<?xml version="1.0" encoding="UTF-8" standalone="no" ?>
<gpx xmlns="http://www.topografix.com/GPX/1/1" xmlns:xsi="http://www.w3.org/2001/XMLSchema-instance" xsi:schemaLocation="http://www.topografix.com/GPX/1/1 http://www.topografix.com/GPX/1/1/gpx.xsd" version="1.1" creator="VisuGPX - https://www.visugpx.com">
  <metadata>
    <name>Entre Job et Ger</name>
    <desc><![CDATA[Parcours de 58 km et 2000m de dénivelé environ entre les vallées du Job et du Ger. Parcours assez exigeant, très glissant s'il y a eu de pluie les jours précédents mais de très beaux paysages.]]></desc>
  </metadata>
  <trk>
    <name><![CDATA[Move]]></name>
    <trkseg>
      <trkpt lat="43.01607" lon="0.80226">
        <ele>511</ele>
        <time>2017-06-10T12:49:31.008Z</time>
      </trkpt>
      <trkpt lat="43.01611" lon="0.80213">
        <ele>511</ele>
        <time>2017-06-10T12:49:32.008Z</time>
      </trkpt>
      <trkpt lat="43.01619" lon="0.80186">
        <ele>495.416</ele>
        <time>2017-06-10T12:49:34.008Z</time>
      </trkpt>
      <trkpt lat="43.01623" lon="0.80171">
        <ele>497</ele>
        <time>2017-06-10T12:49:35.008Z</time>
      </trkpt>
      <trkpt lat="43.01628" lon="0.80157">
        <ele>496.792</ele>
        <time>2017-06-10T12:49:36.008Z</time>
      </trkpt>
      <trkpt lat="43.01633" lon="0.80143">
        <ele>495.792</ele>
        <time>2017-06-10T12:49:37.008Z</time>
      </trkpt>
      <trkpt lat="43.01638" lon="0.80128">
        <ele>494.792</ele>
        <time>2017-06-10T12:49:38.008Z</time>
      </trkpt>
      <trkpt lat="43.01643" lon="0.80113">
        <ele>493.792</ele>
        <time>2017-06-10T12:49:39.008Z</time>
      </trkpt>
      <trkpt lat="43.01648" lon="0.80097">
        <ele>492.792</ele>
        <time>2017-06-10T12:49:40.008Z</time>
      </trkpt>
      <trkpt lat="43.01653" lon="0.80082">
        <ele>491.584</ele>
        <time>2017-06-10T12:49:41.008Z</time>
      </trkpt>
      <trkpt lat="43.01658" lon="0.80066">
        <ele>489.584</ele>
        <time>2017-06-10T12:49:42.008Z</time>
      </trkpt>
      <trkpt lat="43.01662" lon="0.80052">
        <ele>487.792</ele>
        <time>2017-06-10T12:49:43.008Z</time>
      </trkpt>
      <trkpt lat="43.01667" lon="0.80038">
        <ele>486.792</ele>
        <time>2017-06-10T12:49:44.008Z</time>
      </trkpt>
      <trkpt lat="43.01671" lon="0.80025">
        <ele>486</ele>
        <time>2017-06-10T12:49:45.008Z</time>
      </trkpt>
      <trkpt lat="43.01676" lon="0.80014">
        <ele>485.584</ele>
        <time>2017-06-10T12:49:46.008Z</time>
      </trkpt>
      <trkpt lat="43.01681" lon="0.80005">
        <ele>483.792</ele>
        <time>2017-06-10T12:49:47.008Z</time>
      </trkpt>
      <trkpt lat="43.01687" lon="0.79998">
        <ele>482.792</ele>
        <time>2017-06-10T12:49:48.008Z</time>
      </trkpt>
      <trkpt lat="43.01696" lon="0.79995">
        <ele>482</ele>
        <time>2017-06-10T12:49:49.008Z</time>
      </trkpt>
      <trkpt lat="43.01706" lon="0.79997">
        <ele>482</ele>
        <time>2017-06-10T12:49:50.008Z</time>
      </trkpt>
      <trkpt lat="43.01716" lon="0.80001">
        <ele>481.792</ele>
        <time>2017-06-10T12:49:51.008Z</time>
      </trkpt>
      <trkpt lat="43.01725" lon="0.80005">
        <ele>480.80190415818</ele>
        <time>2017-06-10T12:49:52.008Z</time>
      </trkpt>
      <trkpt lat="43.01734" lon="0.8001">
        <ele>479.83368140234</ele>
        <time>2017-06-10T12:49:53.008Z</time>
      </trkpt>
      <trkpt lat="43.01744" lon="0.80014">
        <ele>478.792</ele>
        <time>2017-06-10T12:49:54.008Z</time>
      </trkpt>
      <trkpt lat="43.01771" lon="0.80021">
        <ele>480</ele>
        <time>2017-06-10T12:49:57.008Z</time>
      </trkpt>
      <trkpt lat="43.01788" lon="0.80026">
        <ele>481</ele>
        <time>2017-06-10T12:49:59.008Z</time>
      </trkpt>
      <trkpt lat="43.01796" lon="0.80028">
        <ele>481.208</ele>
        <time>2017-06-10T12:50:00.008Z</time>
      </trkpt>
      <trkpt lat="43.01808" lon="0.80031">
        <ele>484.20594124655</ele>
        <time>2017-06-10T12:50:02.008Z</time>
      </trkpt>
      <trkpt lat="43.01819" lon="0.80034">
        <ele>485</ele>
        <time>2017-06-10T12:50:04.008Z</time>
      </trkpt>
      <trkpt lat="43.0183" lon="0.80036">
        <ele>485</ele>
        <time>2017-06-10T12:50:06.008Z</time>
      </trkpt>
      <trkpt lat="43.01844" lon="0.80039">
        <ele>486</ele>
        <time>2017-06-10T12:50:09.008Z</time>
      </trkpt>
      <trkpt lat="43.01854" lon="0.80041">
        <ele>486</ele>
        <time>2017-06-10T12:50:11.008Z</time>
      </trkpt>
      <trkpt lat="43.01861" lon="0.80042">
        <ele>486</ele>
        <time>2017-06-10T12:50:13.008Z</time>
      </trkpt>
      <trkpt lat="43.01868" lon="0.80044">
        <ele>486</ele>
        <time>2017-06-10T12:50:15.008Z</time>
      </trkpt>
      <trkpt lat="43.01877" lon="0.80046">
        <ele>486</ele>
        <time>2017-06-10T12:50:17.008Z</time>
      </trkpt>
      <trkpt lat="43.01885" lon="0.80048">
        <ele>486</ele>
        <time>2017-06-10T12:50:19.008Z</time>
      </trkpt>
      <trkpt lat="43.01894" lon="0.8005">
        <ele>486</ele>
        <time>2017-06-10T12:50:21.008Z</time>
      </trkpt>
      <trkpt lat="43.01902" lon="0.80052">
        <ele>487</ele>
        <time>2017-06-10T12:50:23.008Z</time>
      </trkpt>
      <trkpt lat="43.01911" lon="0.80053">
        <ele>487</ele>
        <time>2017-06-10T12:50:25.008Z</time>
      </trkpt>
      <trkpt lat="43.01915" lon="0.80054">
        <ele>487</ele>
        <time>2017-06-10T12:50:26.008Z</time>
      </trkpt>
      <trkpt lat="43.01919" lon="0.80054">
        <ele>487</ele>
        <time>2017-06-10T12:50:27.008Z</time>
      </trkpt>
      <trkpt lat="43.01923" lon="0.80055">
        <ele>487</ele>
        <time>2017-06-10T12:50:28.008Z</time>
      </trkpt>
      <trkpt lat="43.01932" lon="0.80057">
        <ele>487</ele>
        <time>2017-06-10T12:50:30.008Z</time>
      </trkpt>
      <trkpt lat="43.01939" lon="0.80059">
        <ele>487.416</ele>
        <time>2017-06-10T12:50:32.008Z</time>
      </trkpt>
      <trkpt lat="43.01947" lon="0.8006">
        <ele>489</ele>
        <time>2017-06-10T12:50:34.008Z</time>
      </trkpt>
      <trkpt lat="43.01954" lon="0.80061">
        <ele>489</ele>
        <time>2017-06-10T12:50:36.008Z</time>
      </trkpt>
      <trkpt lat="43.01964" lon="0.80061">
        <ele>489</ele>
        <time>2017-06-10T12:50:39.008Z</time>
      </trkpt>
      <trkpt lat="43.01974" lon="0.80056">
        <ele>489.208</ele>
        <time>2017-06-10T12:50:42.008Z</time>
      </trkpt>
      <trkpt lat="43.01985" lon="0.80054">
        <ele>490</ele>
        <time>2017-06-10T12:50:44.008Z</time>
      </trkpt>
      <trkpt lat="43.0199" lon="0.80052">
        <ele>490</ele>
        <time>2017-06-10T12:50:45.008Z</time>
      </trkpt>
      <trkpt lat="43.01997" lon="0.80051">
        <ele>490</ele>
        <time>2017-06-10T12:50:46.008Z</time>
      </trkpt>
      <trkpt lat="43.02004" lon="0.8005">
        <ele>490</ele>
        <time>2017-06-10T12:50:47.008Z</time>
      </trkpt>
      <trkpt lat="43.02011" lon="0.80049">
        <ele>490</ele>
        <time>2017-06-10T12:50:48.008Z</time>
      </trkpt>
      <trkpt lat="43.02018" lon="0.80048">
        <ele>490</ele>
        <time>2017-06-10T12:50:49.008Z</time>
      </trkpt>
      <trkpt lat="43.02025" lon="0.80047">
        <ele>490</ele>
        <time>2017-06-10T12:50:50.008Z</time>
      </trkpt>
      <trkpt lat="43.02039" lon="0.8005">
        <ele>489.584</ele>
        <time>2017-06-10T12:50:52.008Z</time>
      </trkpt>
      <trkpt lat="43.0205" lon="0.80053">
        <ele>488</ele>
        <time>2017-06-10T12:50:54.008Z</time>
      </trkpt>
      <trkpt lat="43.0206" lon="0.80053">
        <ele>488</ele>
        <time>2017-06-10T12:50:56.008Z</time>
      </trkpt>
      <trkpt lat="43.02073" lon="0.80055">
        <ele>488</ele>
        <time>2017-06-10T12:50:59.008Z</time>
      </trkpt>
      <trkpt lat="43.02084" lon="0.80057">
        <ele>491</ele>
        <time>2017-06-10T12:51:02.008Z</time>
      </trkpt>
      <trkpt lat="43.02094" lon="0.80061">
        <ele>491</ele>
        <time>2017-06-10T12:51:05.008Z</time>
      </trkpt>
      <trkpt lat="43.02106" lon="0.80066">
        <ele>491</ele>
        <time>2017-06-10T12:51:09.008Z</time>
      </trkpt>
      <trkpt lat="43.02116" lon="0.80073">
        <ele>494</ele>
        <time>2017-06-10T12:51:13.008Z</time>
      </trkpt>
      <trkpt lat="43.02126" lon="0.80081">
        <ele>494.792</ele>
        <time>2017-06-10T12:51:17.008Z</time>
      </trkpt>
      <trkpt lat="43.02135" lon="0.80088">
        <ele>493</ele>
        <time>2017-06-10T12:51:20.008Z</time>
      </trkpt>
      <trkpt lat="43.02142" lon="0.80091">
        <ele>493</ele>
        <time>2017-06-10T12:51:22.008Z</time>
      </trkpt>
      <trkpt lat="43.02147" lon="0.80091">
        <ele>493</ele>
        <time>2017-06-10T12:51:23.008Z</time>
      </trkpt>
      <trkpt lat="43.02155" lon="0.80092">
        <ele>493</ele>
        <time>2017-06-10T12:51:25.008Z</time>
      </trkpt>
      <trkpt lat="43.02163" lon="0.80092">
        <ele>493</ele>
        <time>2017-06-10T12:51:27.008Z</time>
      </trkpt>
      <trkpt lat="43.02171" lon="0.80092">
        <ele>493</ele>
        <time>2017-06-10T12:51:29.008Z</time>
      </trkpt>
      <trkpt lat="43.02178" lon="0.80092">
        <ele>493.416</ele>
        <time>2017-06-10T12:51:31.008Z</time>
      </trkpt>
      <trkpt lat="43.02185" lon="0.80092">
        <ele>495</ele>
        <time>2017-06-10T12:51:33.008Z</time>
      </trkpt>
      <trkpt lat="43.02192" lon="0.80092">
        <ele>495</ele>
        <time>2017-06-10T12:51:35.008Z</time>
      </trkpt>
      <trkpt lat="43.02199" lon="0.80094">
        <ele>495</ele>
        <time>2017-06-10T12:51:37.008Z</time>
      </trkpt>
      <trkpt lat="43.02207" lon="0.80096">
        <ele>495</ele>
        <time>2017-06-10T12:51:39.008Z</time>
      </trkpt>
      <trkpt lat="43.02215" lon="0.801">
        <ele>495.208</ele>
        <time>2017-06-10T12:51:41.008Z</time>
      </trkpt>
      <trkpt lat="43.02223" lon="0.80104">
        <ele>496</ele>
        <time>2017-06-10T12:51:43.008Z</time>
      </trkpt>
      <trkpt lat="43.02231" lon="0.80109">
        <ele>496</ele>
        <time>2017-06-10T12:51:45.008Z</time>
      </trkpt>
      <trkpt lat="43.02235" lon="0.80111">
        <ele>496</ele>
        <time>2017-06-10T12:51:46.008Z</time>
      </trkpt>
      <trkpt lat="43.02239" lon="0.80113">
        <ele>496</ele>
        <time>2017-06-10T12:51:47.008Z</time>
      </trkpt>
      <trkpt lat="43.02243" lon="0.80116">
        <ele>496</ele>
        <time>2017-06-10T12:51:48.008Z</time>
      </trkpt>
      <trkpt lat="43.02246" lon="0.80118">
        <ele>496</ele>
        <time>2017-06-10T12:51:49.008Z</time>
      </trkpt>
      <trkpt lat="43.0225" lon="0.8012">
        <ele>496</ele>
        <time>2017-06-10T12:51:50.008Z</time>
      </trkpt>
      <trkpt lat="43.02254" lon="0.80121">
        <ele>496.416</ele>
        <time>2017-06-10T12:51:51.008Z</time>
      </trkpt>
      <trkpt lat="43.02258" lon="0.80122">
        <ele>498</ele>
        <time>2017-06-10T12:51:52.008Z</time>
      </trkpt>
      <trkpt lat="43.02262" lon="0.80121">
        <ele>498</ele>
        <time>2017-06-10T12:51:53.008Z</time>
      </trkpt>
      <trkpt lat="43.02265" lon="0.8012">
        <ele>498</ele>
        <time>2017-06-10T12:51:54.008Z</time>
      </trkpt>
      <trkpt lat="43.02269" lon="0.80118">
        <ele>498</ele>
        <time>2017-06-10T12:51:55.008Z</time>
      </trkpt>
      <trkpt lat="43.02273" lon="0.80115">
        <ele>498</ele>
        <time>2017-06-10T12:51:56.008Z</time>
      </trkpt>
      <trkpt lat="43.02277" lon="0.80112">
        <ele>498</ele>
        <time>2017-06-10T12:51:57.008Z</time>
      </trkpt>
      <trkpt lat="43.0228" lon="0.80108">
        <ele>498</ele>
        <time>2017-06-10T12:51:58.008Z</time>
      </trkpt>
      <trkpt lat="43.02283" lon="0.80105">
        <ele>498</ele>
        <time>2017-06-10T12:51:59.008Z</time>
      </trkpt>
      <trkpt lat="43.02286" lon="0.80101">
        <ele>498</ele>
        <time>2017-06-10T12:52:00.008Z</time>
      </trkpt>
      <trkpt lat="43.02289" lon="0.80098">
        <ele>498</ele>
        <time>2017-06-10T12:52:01.008Z</time>
      </trkpt>
      <trkpt lat="43.02292" lon="0.80094">
        <ele>498</ele>
        <time>2017-06-10T12:52:02.008Z</time>
      </trkpt>
      <trkpt lat="43.02295" lon="0.8009">
        <ele>498</ele>
        <time>2017-06-10T12:52:03.008Z</time>
      </trkpt>
      <trkpt lat="43.02299" lon="0.80087">
        <ele>498</ele>
        <time>2017-06-10T12:52:04.008Z</time>
      </trkpt>
      <trkpt lat="43.02302" lon="0.80084">
        <ele>498</ele>
        <time>2017-06-10T12:52:05.008Z</time>
      </trkpt>
      <trkpt lat="43.02309" lon="0.80079">
        <ele>498</ele>
        <time>2017-06-10T12:52:07.008Z</time>
      </trkpt>
      <trkpt lat="43.02316" lon="0.80073">
        <ele>498</ele>
        <time>2017-06-10T12:52:09.008Z</time>
      </trkpt>
      <trkpt lat="43.02321" lon="0.80065">
        <ele>498</ele>
        <time>2017-06-10T12:52:11.008Z</time>
      </trkpt>
      <trkpt lat="43.02324" lon="0.80055">
        <ele>498</ele>
        <time>2017-06-10T12:52:13.008Z</time>
      </trkpt>
      <trkpt lat="43.02326" lon="0.80044">
        <ele>498</ele>
        <time>2017-06-10T12:52:15.008Z</time>
      </trkpt>
      <trkpt lat="43.02328" lon="0.80034">
        <ele>498</ele>
        <time>2017-06-10T12:52:17.008Z</time>
      </trkpt>
      <trkpt lat="43.02331" lon="0.80025">
        <ele>498</ele>
        <time>2017-06-10T12:52:19.008Z</time>
      </trkpt>
      <trkpt lat="43.02334" lon="0.80016">
        <ele>498.61782373964</ele>
        <time>2017-06-10T12:52:21.008Z</time>
      </trkpt>
      <trkpt lat="43.02337" lon="0.80007">
        <ele>501</ele>
        <time>2017-06-10T12:52:23.008Z</time>
      </trkpt>
      <trkpt lat="43.0234" lon="0.79998">
        <ele>501</ele>
        <time>2017-06-10T12:52:25.008Z</time>
      </trkpt>
      <trkpt lat="43.02344" lon="0.7999">
        <ele>503</ele>
        <time>2017-06-10T12:52:27.008Z</time>
      </trkpt>
      <trkpt lat="43.02348" lon="0.79981">
        <ele>503</ele>
        <time>2017-06-10T12:52:29.008Z</time>
      </trkpt>
      <trkpt lat="43.02352" lon="0.79972">
        <ele>503.208</ele>
        <time>2017-06-10T12:52:31.008Z</time>
      </trkpt>
      <trkpt lat="43.02356" lon="0.79962">
        <ele>504</ele>
        <time>2017-06-10T12:52:33.008Z</time>
      </trkpt>
      <trkpt lat="43.02358" lon="0.79957">
        <ele>504</ele>
        <time>2017-06-10T12:52:34.008Z</time>
      </trkpt>
      <trkpt lat="43.0236" lon="0.79952">
        <ele>504</ele>
        <time>2017-06-10T12:52:35.008Z</time>
      </trkpt>
      <trkpt lat="43.02362" lon="0.79947">
        <ele>504</ele>
        <time>2017-06-10T12:52:36.008Z</time>
      </trkpt>
      <trkpt lat="43.02365" lon="0.79942">
        <ele>504</ele>
        <time>2017-06-10T12:52:37.008Z</time>
      </trkpt>
      <trkpt lat="43.02369" lon="0.79931">
        <ele>504</ele>
        <time>2017-06-10T12:52:39.008Z</time>
      </trkpt>
      <trkpt lat="43.02371" lon="0.79926">
        <ele>504</ele>
        <time>2017-06-10T12:52:40.008Z</time>
      </trkpt>
      <trkpt lat="43.02374" lon="0.7992">
        <ele>504</ele>
        <time>2017-06-10T12:52:41.008Z</time>
      </trkpt>
      <trkpt lat="43.02376" lon="0.79914">
        <ele>504</ele>
        <time>2017-06-10T12:52:42.008Z</time>
      </trkpt>
      <trkpt lat="43.02378" lon="0.79908">
        <ele>504</ele>
        <time>2017-06-10T12:52:43.008Z</time>
      </trkpt>
      <trkpt lat="43.02383" lon="0.79896">
        <ele>504</ele>
        <time>2017-06-10T12:52:45.008Z</time>
      </trkpt>
      <trkpt lat="43.02387" lon="0.79885">
        <ele>504</ele>
        <time>2017-06-10T12:52:47.008Z</time>
      </trkpt>
      <trkpt lat="43.0239" lon="0.79878">
        <ele>504</ele>
        <time>2017-06-10T12:52:48.008Z</time>
      </trkpt>
      <trkpt lat="43.02392" lon="0.79872">
        <ele>504</ele>
        <time>2017-06-10T12:52:49.008Z</time>
      </trkpt>
      <trkpt lat="43.02395" lon="0.79865">
        <ele>504</ele>
        <time>2017-06-10T12:52:50.008Z</time>
      </trkpt>
      <trkpt lat="43.02397" lon="0.79859">
        <ele>504</ele>
        <time>2017-06-10T12:52:51.008Z</time>
      </trkpt>
      <trkpt lat="43.024" lon="0.79852">
        <ele>504</ele>
        <time>2017-06-10T12:52:52.008Z</time>
      </trkpt>
      <trkpt lat="43.02402" lon="0.79845">
        <ele>503.792</ele>
        <time>2017-06-10T12:52:53.008Z</time>
      </trkpt>
      <trkpt lat="43.02405" lon="0.79838">
        <ele>503</ele>
        <time>2017-06-10T12:52:54.008Z</time>
      </trkpt>
      <trkpt lat="43.02408" lon="0.79831">
        <ele>503</ele>
        <time>2017-06-10T12:52:55.008Z</time>
      </trkpt>
      <trkpt lat="43.0241" lon="0.79824">
        <ele>503</ele>
        <time>2017-06-10T12:52:56.008Z</time>
      </trkpt>
      <trkpt lat="43.02412" lon="0.79817">
        <ele>503</ele>
        <time>2017-06-10T12:52:57.008Z</time>
      </trkpt>
      <trkpt lat="43.02415" lon="0.79809">
        <ele>503</ele>
        <time>2017-06-10T12:52:58.008Z</time>
      </trkpt>
      <trkpt lat="43.02417" lon="0.79802">
        <ele>503</ele>
        <time>2017-06-10T12:52:59.008Z</time>
      </trkpt>
      <trkpt lat="43.0242" lon="0.79795">
        <ele>503</ele>
        <time>2017-06-10T12:53:00.008Z</time>
      </trkpt>
      <trkpt lat="43.02423" lon="0.79788">
        <ele>502.584</ele>
        <time>2017-06-10T12:53:01.008Z</time>
      </trkpt>
      <trkpt lat="43.02426" lon="0.79782">
        <ele>501</ele>
        <time>2017-06-10T12:53:02.008Z</time>
      </trkpt>
      <trkpt lat="43.0243" lon="0.79776">
        <ele>501</ele>
        <time>2017-06-10T12:53:03.008Z</time>
      </trkpt>
      <trkpt lat="43.02434" lon="0.7977">
        <ele>501</ele>
        <time>2017-06-10T12:53:04.008Z</time>
      </trkpt>
      <trkpt lat="43.02437" lon="0.79765">
        <ele>501</ele>
        <time>2017-06-10T12:53:05.008Z</time>
      </trkpt>
      <trkpt lat="43.0244" lon="0.79758">
        <ele>501</ele>
        <time>2017-06-10T12:53:06.008Z</time>
      </trkpt>
      <trkpt lat="43.02441" lon="0.79752">
        <ele>501</ele>
        <time>2017-06-10T12:53:07.008Z</time>
      </trkpt>
      <trkpt lat="43.02445" lon="0.79741">
        <ele>501</ele>
        <time>2017-06-10T12:53:09.008Z</time>
      </trkpt>
      <trkpt lat="43.02447" lon="0.79735">
        <ele>501</ele>
        <time>2017-06-10T12:53:10.008Z</time>
      </trkpt>
      <trkpt lat="43.02449" lon="0.79731">
        <ele>501.416</ele>
        <time>2017-06-10T12:53:11.008Z</time>
      </trkpt>
      <trkpt lat="43.02452" lon="0.79726">
        <ele>503</ele>
        <time>2017-06-10T12:53:12.008Z</time>
      </trkpt>
      <trkpt lat="43.02454" lon="0.79722">
        <ele>503</ele>
        <time>2017-06-10T12:53:13.008Z</time>
      </trkpt>
      <trkpt lat="43.02457" lon="0.79717">
        <ele>503</ele>
        <time>2017-06-10T12:53:14.008Z</time>
      </trkpt>
      <trkpt lat="43.02459" lon="0.79713">
        <ele>503</ele>
        <time>2017-06-10T12:53:15.008Z</time>
      </trkpt>
      <trkpt lat="43.02461" lon="0.79704">
        <ele>503</ele>
        <time>2017-06-10T12:53:17.008Z</time>
      </trkpt>
      <trkpt lat="43.02462" lon="0.79696">
        <ele>502</ele>
        <time>2017-06-10T12:53:19.008Z</time>
      </trkpt>
      <trkpt lat="43.02461" lon="0.79687">
        <ele>502.624</ele>
        <time>2017-06-10T12:53:21.008Z</time>
      </trkpt>
      <trkpt lat="43.02459" lon="0.79677">
        <ele>505</ele>
        <time>2017-06-10T12:53:23.008Z</time>
      </trkpt>
      <trkpt lat="43.02459" lon="0.79667">
        <ele>505</ele>
        <time>2017-06-10T12:53:25.008Z</time>
      </trkpt>
      <trkpt lat="43.0246" lon="0.79656">
        <ele>505</ele>
        <time>2017-06-10T12:53:27.008Z</time>
      </trkpt>
      <trkpt lat="43.02463" lon="0.79646">
        <ele>505</ele>
        <time>2017-06-10T12:53:29.008Z</time>
      </trkpt>
      <trkpt lat="43.02467" lon="0.79636">
        <ele>505</ele>
        <time>2017-06-10T12:53:31.008Z</time>
      </trkpt>
      <trkpt lat="43.02473" lon="0.79628">
        <ele>504.792</ele>
        <time>2017-06-10T12:53:33.008Z</time>
      </trkpt>
      <trkpt lat="43.02476" lon="0.79625">
        <ele>504</ele>
        <time>2017-06-10T12:53:34.008Z</time>
      </trkpt>
      <trkpt lat="43.02481" lon="0.79623">
        <ele>504</ele>
        <time>2017-06-10T12:53:35.008Z</time>
      </trkpt>
      <trkpt lat="43.02486" lon="0.79622">
        <ele>504</ele>
        <time>2017-06-10T12:53:36.008Z</time>
      </trkpt>
      <trkpt lat="43.02492" lon="0.79622">
        <ele>504</ele>
        <time>2017-06-10T12:53:37.008Z</time>
      </trkpt>
      <trkpt lat="43.02499" lon="0.79622">
        <ele>504</ele>
        <time>2017-06-10T12:53:38.008Z</time>
      </trkpt>
      <trkpt lat="43.02506" lon="0.79623">
        <ele>504</ele>
        <time>2017-06-10T12:53:39.008Z</time>
      </trkpt>
      <trkpt lat="43.02513" lon="0.79625">
        <ele>504</ele>
        <time>2017-06-10T12:53:40.008Z</time>
      </trkpt>
      <trkpt lat="43.0252" lon="0.79625">
        <ele>503.376</ele>
        <time>2017-06-10T12:53:41.008Z</time>
      </trkpt>
      <trkpt lat="43.02534" lon="0.79626">
        <ele>501</ele>
        <time>2017-06-10T12:53:43.008Z</time>
      </trkpt>
      <trkpt lat="43.02548" lon="0.79626">
        <ele>501</ele>
        <time>2017-06-10T12:53:45.008Z</time>
      </trkpt>
      <trkpt lat="43.02562" lon="0.79627">
        <ele>499</ele>
        <time>2017-06-10T12:53:47.008Z</time>
      </trkpt>
      <trkpt lat="43.02577" lon="0.79625">
        <ele>499</ele>
        <time>2017-06-10T12:53:49.008Z</time>
      </trkpt>
      <trkpt lat="43.02587" lon="0.79619">
        <ele>500</ele>
        <time>2017-06-10T12:53:52.008Z</time>
      </trkpt>
      <trkpt lat="43.02598" lon="0.7962">
        <ele>500</ele>
        <time>2017-06-10T12:53:55.008Z</time>
      </trkpt>
      <trkpt lat="43.02605" lon="0.79627">
        <ele>500</ele>
        <time>2017-06-10T12:53:58.008Z</time>
      </trkpt>
      <trkpt lat="43.02613" lon="0.79633">
        <ele>501.04</ele>
        <time>2017-06-10T12:54:01.008Z</time>
      </trkpt>
      <trkpt lat="43.02621" lon="0.7964">
        <ele>506</ele>
        <time>2017-06-10T12:54:05.008Z</time>
      </trkpt>
      <trkpt lat="43.02625" lon="0.79648">
        <ele>506</ele>
        <time>2017-06-10T12:54:08.008Z</time>
      </trkpt>
      <trkpt lat="43.02627" lon="0.79657">
        <ele>506.208</ele>
        <time>2017-06-10T12:54:11.008Z</time>
      </trkpt>
      <trkpt lat="43.02627" lon="0.79666">
        <ele>507</ele>
        <time>2017-06-10T12:54:14.008Z</time>
      </trkpt>
      <trkpt lat="43.02624" lon="0.79678">
        <ele>508</ele>
        <time>2017-06-10T12:54:18.008Z</time>
      </trkpt>
      <trkpt lat="43.02619" lon="0.79689">
        <ele>508</ele>
        <time>2017-06-10T12:54:21.008Z</time>
      </trkpt>
      <trkpt lat="43.02616" lon="0.797">
        <ele>508</ele>
        <time>2017-06-10T12:54:23.008Z</time>
      </trkpt>
      <trkpt lat="43.02614" lon="0.79711">
        <ele>508</ele>
        <time>2017-06-10T12:54:25.008Z</time>
      </trkpt>
      <trkpt lat="43.02613" lon="0.79721">
        <ele>508</ele>
        <time>2017-06-10T12:54:27.008Z</time>
      </trkpt>
      <trkpt lat="43.02612" lon="0.79732">
        <ele>508</ele>
        <time>2017-06-10T12:54:29.008Z</time>
      </trkpt>
      <trkpt lat="43.0261" lon="0.79744">
        <ele>507.792</ele>
        <time>2017-06-10T12:54:31.008Z</time>
      </trkpt>
      <trkpt lat="43.02606" lon="0.79757">
        <ele>507</ele>
        <time>2017-06-10T12:54:33.008Z</time>
      </trkpt>
      <trkpt lat="43.02603" lon="0.79768">
        <ele>507</ele>
        <time>2017-06-10T12:54:35.008Z</time>
      </trkpt>
      <trkpt lat="43.02601" lon="0.79779">
        <ele>507</ele>
        <time>2017-06-10T12:54:37.008Z</time>
      </trkpt>
      <trkpt lat="43.02604" lon="0.79791">
        <ele>507</ele>
        <time>2017-06-10T12:54:40.008Z</time>
      </trkpt>
      <trkpt lat="43.02607" lon="0.79806">
        <ele>507</ele>
        <time>2017-06-10T12:54:43.008Z</time>
      </trkpt>
      <trkpt lat="43.02604" lon="0.79818">
        <ele>507</ele>
        <time>2017-06-10T12:54:45.008Z</time>
      </trkpt>
      <trkpt lat="43.02599" lon="0.79831">
        <ele>507</ele>
        <time>2017-06-10T12:54:47.008Z</time>
      </trkpt>
      <trkpt lat="43.02593" lon="0.79844">
        <ele>507</ele>
        <time>2017-06-10T12:54:49.008Z</time>
      </trkpt>
      <trkpt lat="43.02592" lon="0.79859">
        <ele>506.584</ele>
        <time>2017-06-10T12:54:51.008Z</time>
      </trkpt>
      <trkpt lat="43.02592" lon="0.79874">
        <ele>505</ele>
        <time>2017-06-10T12:54:53.008Z</time>
      </trkpt>
      <trkpt lat="43.02592" lon="0.79886">
        <ele>505</ele>
        <time>2017-06-10T12:54:55.008Z</time>
      </trkpt>
      <trkpt lat="43.0259" lon="0.79898">
        <ele>503</ele>
        <time>2017-06-10T12:54:57.008Z</time>
      </trkpt>
      <trkpt lat="43.02586" lon="0.79911">
        <ele>503</ele>
        <time>2017-06-10T12:54:59.008Z</time>
      </trkpt>
      <trkpt lat="43.02583" lon="0.7993">
        <ele>502.376</ele>
        <time>2017-06-10T12:55:01.008Z</time>
      </trkpt>
      <trkpt lat="43.02583" lon="0.79951">
        <ele>500</ele>
        <time>2017-06-10T12:55:03.008Z</time>
      </trkpt>
      <trkpt lat="43.02584" lon="0.79968">
        <ele>500</ele>
        <time>2017-06-10T12:55:05.008Z</time>
      </trkpt>
      <trkpt lat="43.02584" lon="0.79981">
        <ele>500</ele>
        <time>2017-06-10T12:55:07.008Z</time>
      </trkpt>
      <trkpt lat="43.02581" lon="0.79996">
        <ele>500</ele>
        <time>2017-06-10T12:55:09.008Z</time>
      </trkpt>
      <trkpt lat="43.0258" lon="0.80009">
        <ele>500</ele>
        <time>2017-06-10T12:55:11.008Z</time>
      </trkpt>
      <trkpt lat="43.0258" lon="0.80023">
        <ele>500</ele>
        <time>2017-06-10T12:55:13.008Z</time>
      </trkpt>
      <trkpt lat="43.0258" lon="0.80036">
        <ele>500</ele>
        <time>2017-06-10T12:55:15.008Z</time>
      </trkpt>
      <trkpt lat="43.02579" lon="0.80049">
        <ele>500</ele>
        <time>2017-06-10T12:55:17.008Z</time>
      </trkpt>
      <trkpt lat="43.0258" lon="0.80063">
        <ele>500</ele>
        <time>2017-06-10T12:55:19.008Z</time>
      </trkpt>
      <trkpt lat="43.0258" lon="0.80075">
        <ele>500</ele>
        <time>2017-06-10T12:55:21.008Z</time>
      </trkpt>
      <trkpt lat="43.0258" lon="0.8009">
        <ele>500</ele>
        <time>2017-06-10T12:55:23.008Z</time>
      </trkpt>
      <trkpt lat="43.02578" lon="0.80102">
        <ele>500</ele>
        <time>2017-06-10T12:55:25.008Z</time>
      </trkpt>
      <trkpt lat="43.02574" lon="0.80115">
        <ele>500</ele>
        <time>2017-06-10T12:55:27.008Z</time>
      </trkpt>
      <trkpt lat="43.02569" lon="0.80127">
        <ele>500</ele>
        <time>2017-06-10T12:55:29.008Z</time>
      </trkpt>
      <trkpt lat="43.02566" lon="0.80145">
        <ele>499</ele>
        <time>2017-06-10T12:55:32.008Z</time>
      </trkpt>
      <trkpt lat="43.02567" lon="0.80159">
        <ele>499</ele>
        <time>2017-06-10T12:55:35.008Z</time>
      </trkpt>
      <trkpt lat="43.02567" lon="0.80176">
        <ele>499</ele>
        <time>2017-06-10T12:55:39.008Z</time>
      </trkpt>
      <trkpt lat="43.02563" lon="0.80192">
        <ele>500</ele>
        <time>2017-06-10T12:55:42.008Z</time>
      </trkpt>
      <trkpt lat="43.02561" lon="0.80207">
        <ele>500</ele>
        <time>2017-06-10T12:55:44.008Z</time>
      </trkpt>
      <trkpt lat="43.02558" lon="0.80221">
        <ele>500</ele>
        <time>2017-06-10T12:55:46.008Z</time>
      </trkpt>
      <trkpt lat="43.02559" lon="0.80233">
        <ele>500</ele>
        <time>2017-06-10T12:55:48.008Z</time>
      </trkpt>
      <trkpt lat="43.02565" lon="0.80244">
        <ele>500.416</ele>
        <time>2017-06-10T12:55:51.008Z</time>
      </trkpt>
      <trkpt lat="43.02566" lon="0.80262">
        <ele>502</ele>
        <time>2017-06-10T12:55:55.008Z</time>
      </trkpt>
      <trkpt lat="43.02566" lon="0.80274">
        <ele>502</ele>
        <time>2017-06-10T12:55:57.008Z</time>
      </trkpt>
      <trkpt lat="43.02564" lon="0.80286">
        <ele>502</ele>
        <time>2017-06-10T12:55:59.008Z</time>
      </trkpt>
      <trkpt lat="43.02562" lon="0.80298">
        <ele>502.208</ele>
        <time>2017-06-10T12:56:01.008Z</time>
      </trkpt>
      <trkpt lat="43.02561" lon="0.80309">
        <ele>503</ele>
        <time>2017-06-10T12:56:03.008Z</time>
      </trkpt>
      <trkpt lat="43.0256" lon="0.80321">
        <ele>503</ele>
        <time>2017-06-10T12:56:05.008Z</time>
      </trkpt>
      <trkpt lat="43.02558" lon="0.80335">
        <ele>503</ele>
        <time>2017-06-10T12:56:08.008Z</time>
      </trkpt>
      <trkpt lat="43.02556" lon="0.80343">
        <ele>502</ele>
        <time>2017-06-10T12:56:16.008Z</time>
      </trkpt>
      <trkpt lat="43.02558" lon="0.8035">
        <ele>503</ele>
        <time>2017-06-10T12:56:32.008Z</time>
      </trkpt>
      <trkpt lat="43.02557" lon="0.8036">
        <ele>503</ele>
        <time>2017-06-10T12:56:35.008Z</time>
      </trkpt>
      <trkpt lat="43.02556" lon="0.8037">
        <ele>503</ele>
        <time>2017-06-10T12:56:38.008Z</time>
      </trkpt>
      <trkpt lat="43.02559" lon="0.8038">
        <ele>503.624</ele>
        <time>2017-06-10T12:56:41.008Z</time>
      </trkpt>
      <trkpt lat="43.02562" lon="0.8039">
        <ele>506</ele>
        <time>2017-06-10T12:56:44.008Z</time>
      </trkpt>
      <trkpt lat="43.02564" lon="0.80402">
        <ele>506</ele>
        <time>2017-06-10T12:56:47.008Z</time>
      </trkpt>
      <trkpt lat="43.02564" lon="0.80412">
        <ele>506</ele>
        <time>2017-06-10T12:56:50.008Z</time>
      </trkpt>
      <trkpt lat="43.02562" lon="0.80421">
        <ele>507</ele>
        <time>2017-06-10T12:56:52.008Z</time>
      </trkpt>
      <trkpt lat="43.0256" lon="0.8043">
        <ele>507</ele>
        <time>2017-06-10T12:56:54.008Z</time>
      </trkpt>
      <trkpt lat="43.02561" lon="0.80439">
        <ele>507</ele>
        <time>2017-06-10T12:56:56.008Z</time>
      </trkpt>
      <trkpt lat="43.02568" lon="0.80447">
        <ele>507</ele>
        <time>2017-06-10T12:56:59.008Z</time>
      </trkpt>
      <trkpt lat="43.02577" lon="0.80451">
        <ele>510</ele>
        <time>2017-06-10T12:57:03.008Z</time>
      </trkpt>
      <trkpt lat="43.02582" lon="0.80458">
        <ele>512</ele>
        <time>2017-06-10T12:57:08.008Z</time>
      </trkpt>
      <trkpt lat="43.02578" lon="0.80469">
        <ele>511.792</ele>
        <time>2017-06-10T12:57:11.008Z</time>
      </trkpt>
      <trkpt lat="43.02576" lon="0.80479">
        <ele>511</ele>
        <time>2017-06-10T12:57:13.008Z</time>
      </trkpt>
      <trkpt lat="43.02574" lon="0.8049">
        <ele>511</ele>
        <time>2017-06-10T12:57:15.008Z</time>
      </trkpt>
      <trkpt lat="43.02565" lon="0.80501">
        <ele>511</ele>
        <time>2017-06-10T12:57:18.008Z</time>
      </trkpt>
      <trkpt lat="43.02558" lon="0.80508">
        <ele>510.376</ele>
        <time>2017-06-10T12:57:21.008Z</time>
      </trkpt>
      <trkpt lat="43.02563" lon="0.80503">
        <ele>507</ele>
        <time>2017-06-10T12:57:38.008Z</time>
      </trkpt>
      <trkpt lat="43.02569" lon="0.80496">
        <ele>509</ele>
        <time>2017-06-10T12:57:43.008Z</time>
      </trkpt>
      <trkpt lat="43.02571" lon="0.80485">
        <ele>509</ele>
        <time>2017-06-10T12:57:47.008Z</time>
      </trkpt>
      <trkpt lat="43.02573" lon="0.80474">
        <ele>509.416</ele>
        <time>2017-06-10T12:57:51.008Z</time>
      </trkpt>
      <trkpt lat="43.02576" lon="0.80465">
        <ele>511</ele>
        <time>2017-06-10T12:57:54.008Z</time>
      </trkpt>
      <trkpt lat="43.02578" lon="0.80456">
        <ele>511</ele>
        <time>2017-06-10T12:57:57.008Z</time>
      </trkpt>
      <trkpt lat="43.02581" lon="0.80448">
        <ele>513</ele>
        <time>2017-06-10T12:58:05.008Z</time>
      </trkpt>
      <trkpt lat="43.02584" lon="0.80443">
        <ele>514</ele>
        <time>2017-06-10T12:58:09.008Z</time>
      </trkpt>
      <trkpt lat="43.02589" lon="0.80438">
        <ele>514</ele>
        <time>2017-06-10T12:58:15.008Z</time>
      </trkpt>
      <trkpt lat="43.02594" lon="0.80433">
        <ele>514.416</ele>
        <time>2017-06-10T12:58:21.008Z</time>
      </trkpt>
      <trkpt lat="43.026" lon="0.8043">
        <ele>516</ele>
        <time>2017-06-10T12:58:29.008Z</time>
      </trkpt>
      <trkpt lat="43.02606" lon="0.80428">
        <ele>518</ele>
        <time>2017-06-10T12:58:34.008Z</time>
      </trkpt>
      <trkpt lat="43.02612" lon="0.80425">
        <ele>518</ele>
        <time>2017-06-10T12:58:39.008Z</time>
      </trkpt>
      <trkpt lat="43.02618" lon="0.80423">
        <ele>519</ele>
        <time>2017-06-10T12:58:46.008Z</time>
      </trkpt>
      <trkpt lat="43.02624" lon="0.80424">
        <ele>522</ele>
        <time>2017-06-10T12:58:52.008Z</time>
      </trkpt>
      <trkpt lat="43.0263" lon="0.80424">
        <ele>523</ele>
        <time>2017-06-10T12:58:58.008Z</time>
      </trkpt>
      <trkpt lat="43.02636" lon="0.80421">
        <ele>524</ele>
        <time>2017-06-10T12:59:04.008Z</time>
      </trkpt>
      <trkpt lat="43.02642" lon="0.8042">
        <ele>524</ele>
        <time>2017-06-10T12:59:09.008Z</time>
      </trkpt>
      <trkpt lat="43.02648" lon="0.80417">
        <ele>525</ele>
        <time>2017-06-10T12:59:16.008Z</time>
      </trkpt>
      <trkpt lat="43.02653" lon="0.80414">
        <ele>527</ele>
        <time>2017-06-10T12:59:22.008Z</time>
      </trkpt>
      <trkpt lat="43.02658" lon="0.80416">
        <ele>527</ele>
        <time>2017-06-10T13:00:03.008Z</time>
      </trkpt>
      <trkpt lat="43.02665" lon="0.80419">
        <ele>527</ele>
        <time>2017-06-10T13:00:10.008Z</time>
      </trkpt>
      <trkpt lat="43.0267" lon="0.80421">
        <ele>529</ele>
        <time>2017-06-10T13:00:16.008Z</time>
      </trkpt>
      <trkpt lat="43.02677" lon="0.80423">
        <ele>529</ele>
        <time>2017-06-10T13:00:23.008Z</time>
      </trkpt>
      <trkpt lat="43.02684" lon="0.80427">
        <ele>529</ele>
        <time>2017-06-10T13:00:27.008Z</time>
      </trkpt>
      <trkpt lat="43.0269" lon="0.80431">
        <ele>529.416</ele>
        <time>2017-06-10T13:00:31.008Z</time>
      </trkpt>
      <trkpt lat="43.02697" lon="0.80434">
        <ele>531</ele>
        <time>2017-06-10T13:00:35.008Z</time>
      </trkpt>
      <trkpt lat="43.02705" lon="0.80436">
        <ele>531</ele>
        <time>2017-06-10T13:00:39.008Z</time>
      </trkpt>
      <trkpt lat="43.02713" lon="0.80439">
        <ele>532</ele>
        <time>2017-06-10T13:00:42.008Z</time>
      </trkpt>
      <trkpt lat="43.02719" lon="0.80445">
        <ele>532</ele>
        <time>2017-06-10T13:00:46.008Z</time>
      </trkpt>
      <trkpt lat="43.02726" lon="0.80453">
        <ele>532</ele>
        <time>2017-06-10T13:00:49.008Z</time>
      </trkpt>
      <trkpt lat="43.02733" lon="0.80459">
        <ele>534</ele>
        <time>2017-06-10T13:00:52.008Z</time>
      </trkpt>
      <trkpt lat="43.0274" lon="0.80466">
        <ele>534</ele>
        <time>2017-06-10T13:00:56.008Z</time>
      </trkpt>
      <trkpt lat="43.02747" lon="0.80472">
        <ele>536</ele>
        <time>2017-06-10T13:01:03.008Z</time>
      </trkpt>
      <trkpt lat="43.02754" lon="0.80478">
        <ele>536</ele>
        <time>2017-06-10T13:01:08.008Z</time>
      </trkpt>
      <trkpt lat="43.0276" lon="0.80483">
        <ele>536</ele>
        <time>2017-06-10T13:01:12.008Z</time>
      </trkpt>
      <trkpt lat="43.02763" lon="0.8049">
        <ele>536</ele>
        <time>2017-06-10T13:01:15.008Z</time>
      </trkpt>
      <trkpt lat="43.02762" lon="0.80499">
        <ele>536</ele>
        <time>2017-06-10T13:01:18.008Z</time>
      </trkpt>
      <trkpt lat="43.02762" lon="0.8051">
        <ele>536</ele>
        <time>2017-06-10T13:01:21.008Z</time>
      </trkpt>
      <trkpt lat="43.02765" lon="0.80522">
        <ele>536</ele>
        <time>2017-06-10T13:01:24.008Z</time>
      </trkpt>
      <trkpt lat="43.0277" lon="0.80534">
        <ele>536</ele>
        <time>2017-06-10T13:01:27.008Z</time>
      </trkpt>
      <trkpt lat="43.02776" lon="0.80542">
        <ele>536</ele>
        <time>2017-06-10T13:01:29.008Z</time>
      </trkpt>
      <trkpt lat="43.02782" lon="0.80547">
        <ele>536</ele>
        <time>2017-06-10T13:01:31.008Z</time>
      </trkpt>
      <trkpt lat="43.02788" lon="0.80554">
        <ele>536</ele>
        <time>2017-06-10T13:01:34.008Z</time>
      </trkpt>
      <trkpt lat="43.02795" lon="0.80562">
        <ele>536</ele>
        <time>2017-06-10T13:01:37.008Z</time>
      </trkpt>
      <trkpt lat="43.02799" lon="0.80569">
        <ele>536</ele>
        <time>2017-06-10T13:01:39.008Z</time>
      </trkpt>
      <trkpt lat="43.02805" lon="0.80579">
        <ele>537</ele>
        <time>2017-06-10T13:01:42.008Z</time>
      </trkpt>
      <trkpt lat="43.02811" lon="0.80591">
        <ele>537</ele>
        <time>2017-06-10T13:01:45.008Z</time>
      </trkpt>
      <trkpt lat="43.02817" lon="0.80602">
        <ele>537</ele>
        <time>2017-06-10T13:01:48.008Z</time>
      </trkpt>
      <trkpt lat="43.02822" lon="0.80613">
        <ele>538</ele>
        <time>2017-06-10T13:01:52.008Z</time>
      </trkpt>
      <trkpt lat="43.02828" lon="0.80621">
        <ele>538</ele>
        <time>2017-06-10T13:01:55.008Z</time>
      </trkpt>
      <trkpt lat="43.02834" lon="0.80632">
        <ele>538</ele>
        <time>2017-06-10T13:01:58.008Z</time>
      </trkpt>
      <trkpt lat="43.02842" lon="0.8064">
        <ele>538.208</ele>
        <time>2017-06-10T13:02:01.008Z</time>
      </trkpt>
      <trkpt lat="43.02849" lon="0.80649">
        <ele>539</ele>
        <time>2017-06-10T13:02:04.008Z</time>
      </trkpt>
      <trkpt lat="43.02853" lon="0.8066">
        <ele>539</ele>
        <time>2017-06-10T13:02:07.008Z</time>
      </trkpt>
      <trkpt lat="43.02857" lon="0.80669">
        <ele>539</ele>
        <time>2017-06-10T13:02:09.008Z</time>
      </trkpt>
      <trkpt lat="43.02863" lon="0.80677">
        <ele>539</ele>
        <time>2017-06-10T13:02:11.008Z</time>
      </trkpt>
      <trkpt lat="43.02869" lon="0.80684">
        <ele>539</ele>
        <time>2017-06-10T13:02:13.008Z</time>
      </trkpt>
      <trkpt lat="43.02876" lon="0.80692">
        <ele>539</ele>
        <time>2017-06-10T13:02:15.008Z</time>
      </trkpt>
      <trkpt lat="43.02881" lon="0.80704">
        <ele>539</ele>
        <time>2017-06-10T13:02:18.008Z</time>
      </trkpt>
      <trkpt lat="43.02885" lon="0.80721">
        <ele>538.584</ele>
        <time>2017-06-10T13:02:21.008Z</time>
      </trkpt>
      <trkpt lat="43.02888" lon="0.80735">
        <ele>537</ele>
        <time>2017-06-10T13:02:23.008Z</time>
      </trkpt>
      <trkpt lat="43.02891" lon="0.80749">
        <ele>537</ele>
        <time>2017-06-10T13:02:25.008Z</time>
      </trkpt>
      <trkpt lat="43.02894" lon="0.80768">
        <ele>537</ele>
        <time>2017-06-10T13:02:27.008Z</time>
      </trkpt>
      <trkpt lat="43.02893" lon="0.80784">
        <ele>537</ele>
        <time>2017-06-10T13:02:29.008Z</time>
      </trkpt>
      <trkpt lat="43.02888" lon="0.80797">
        <ele>536.168</ele>
        <time>2017-06-10T13:02:31.008Z</time>
      </trkpt>
      <trkpt lat="43.02883" lon="0.80814">
        <ele>533</ele>
        <time>2017-06-10T13:02:33.008Z</time>
      </trkpt>
      <trkpt lat="43.02878" lon="0.80827">
        <ele>533</ele>
        <time>2017-06-10T13:02:35.008Z</time>
      </trkpt>
      <trkpt lat="43.02874" lon="0.80839">
        <ele>529</ele>
        <time>2017-06-10T13:02:37.008Z</time>
      </trkpt>
      <trkpt lat="43.0287" lon="0.80849">
        <ele>529</ele>
        <time>2017-06-10T13:02:39.008Z</time>
      </trkpt>
      <trkpt lat="43.02873" lon="0.80864">
        <ele>527</ele>
        <time>2017-06-10T13:02:42.008Z</time>
      </trkpt>
      <trkpt lat="43.02882" lon="0.80872">
        <ele>527</ele>
        <time>2017-06-10T13:02:45.008Z</time>
      </trkpt>
      <trkpt lat="43.02889" lon="0.80884">
        <ele>527</ele>
        <time>2017-06-10T13:02:48.008Z</time>
      </trkpt>
      <trkpt lat="43.02896" lon="0.80892">
        <ele>526.208</ele>
        <time>2017-06-10T13:02:50.008Z</time>
      </trkpt>
      <trkpt lat="43.02905" lon="0.80904">
        <ele>527</ele>
        <time>2017-06-10T13:02:53.008Z</time>
      </trkpt>
      <trkpt lat="43.02914" lon="0.80911">
        <ele>527</ele>
        <time>2017-06-10T13:02:56.008Z</time>
      </trkpt>
      <trkpt lat="43.02927" lon="0.80913">
        <ele>527</ele>
        <time>2017-06-10T13:02:59.008Z</time>
      </trkpt>
      <trkpt lat="43.02938" lon="0.80913">
        <ele>526.168</ele>
        <time>2017-06-10T13:03:01.008Z</time>
      </trkpt>
      <trkpt lat="43.02949" lon="0.80911">
        <ele>523</ele>
        <time>2017-06-10T13:03:03.008Z</time>
      </trkpt>
      <trkpt lat="43.02961" lon="0.80913">
        <ele>523</ele>
        <time>2017-06-10T13:03:05.008Z</time>
      </trkpt>
      <trkpt lat="43.02975" lon="0.8092">
        <ele>518</ele>
        <time>2017-06-10T13:03:07.008Z</time>
      </trkpt>
      <trkpt lat="43.02988" lon="0.80927">
        <ele>518</ele>
        <time>2017-06-10T13:03:09.008Z</time>
      </trkpt>
      <trkpt lat="43.03001" lon="0.80935">
        <ele>517.376</ele>
        <time>2017-06-10T13:03:11.008Z</time>
      </trkpt>
      <trkpt lat="43.0301" lon="0.80947">
        <ele>513.792</ele>
        <time>2017-06-10T13:03:13.008Z</time>
      </trkpt>
      <trkpt lat="43.03016" lon="0.80961">
        <ele>513.208</ele>
        <time>2017-06-10T13:03:15.008Z</time>
      </trkpt>
      <trkpt lat="43.03019" lon="0.80975">
        <ele>513.584</ele>
        <time>2017-06-10T13:03:17.008Z</time>
      </trkpt>
      <trkpt lat="43.03022" lon="0.8099">
        <ele>511.792</ele>
        <time>2017-06-10T13:03:19.008Z</time>
      </trkpt>
      <trkpt lat="43.03027" lon="0.81005">
        <ele>510.792</ele>
        <time>2017-06-10T13:03:21.008Z</time>
      </trkpt>
      <trkpt lat="43.03033" lon="0.8102">
        <ele>509</ele>
        <time>2017-06-10T13:03:23.008Z</time>
      </trkpt>
      <trkpt lat="43.03042" lon="0.81032">
        <ele>507.792</ele>
        <time>2017-06-10T13:03:25.008Z</time>
      </trkpt>
      <trkpt lat="43.0305" lon="0.81042">
        <ele>506</ele>
        <time>2017-06-10T13:03:27.008Z</time>
      </trkpt>
      <trkpt lat="43.03059" lon="0.81052">
        <ele>506</ele>
        <time>2017-06-10T13:03:29.008Z</time>
      </trkpt>
      <trkpt lat="43.03069" lon="0.81063">
        <ele>505.58811750691</ele>
        <time>2017-06-10T13:03:31.008Z</time>
      </trkpt>
      <trkpt lat="43.03081" lon="0.81076">
        <ele>502.792</ele>
        <time>2017-06-10T13:03:33.008Z</time>
      </trkpt>
      <trkpt lat="43.03089" lon="0.81091">
        <ele>501.584</ele>
        <time>2017-06-10T13:03:35.008Z</time>
      </trkpt>
      <trkpt lat="43.031" lon="0.8111">
        <ele>499.584</ele>
        <time>2017-06-10T13:03:37.008Z</time>
      </trkpt>
      <trkpt lat="43.03108" lon="0.81132">
        <ele>495.58811750691</ele>
        <time>2017-06-10T13:03:39.008Z</time>
      </trkpt>
      <trkpt lat="43.03117" lon="0.81152">
        <ele>493.792</ele>
        <time>2017-06-10T13:03:41.008Z</time>
      </trkpt>
      <trkpt lat="43.03124" lon="0.81164">
        <ele>493</ele>
        <time>2017-06-10T13:03:42.008Z</time>
      </trkpt>
      <trkpt lat="43.03134" lon="0.81182">
        <ele>490.792</ele>
        <time>2017-06-10T13:03:44.008Z</time>
      </trkpt>
      <trkpt lat="43.03144" lon="0.81201">
        <ele>489</ele>
        <time>2017-06-10T13:03:46.008Z</time>
      </trkpt>
      <trkpt lat="43.03157" lon="0.8122">
        <ele>488</ele>
        <time>2017-06-10T13:03:48.008Z</time>
      </trkpt>
      <trkpt lat="43.0317" lon="0.81236">
        <ele>487.584</ele>
        <time>2017-06-10T13:03:50.008Z</time>
      </trkpt>
      <trkpt lat="43.03183" lon="0.81252">
        <ele>483.792</ele>
        <time>2017-06-10T13:03:52.008Z</time>
      </trkpt>
      <trkpt lat="43.03197" lon="0.81268">
        <ele>483</ele>
        <time>2017-06-10T13:03:54.008Z</time>
      </trkpt>
      <trkpt lat="43.03211" lon="0.81288">
        <ele>483</ele>
        <time>2017-06-10T13:03:56.008Z</time>
      </trkpt>
      <trkpt lat="43.03224" lon="0.81302">
        <ele>483</ele>
        <time>2017-06-10T13:03:58.008Z</time>
      </trkpt>
      <trkpt lat="43.03226" lon="0.81295">
        <ele>483</ele>
        <time>2017-06-10T13:04:29.008Z</time>
      </trkpt>
      <trkpt lat="43.03235" lon="0.81292">
        <ele>483</ele>
        <time>2017-06-10T13:04:33.008Z</time>
      </trkpt>
      <trkpt lat="43.03241" lon="0.81287">
        <ele>483</ele>
        <time>2017-06-10T13:04:35.008Z</time>
      </trkpt>
      <trkpt lat="43.03247" lon="0.81278">
        <ele>483</ele>
        <time>2017-06-10T13:04:37.008Z</time>
      </trkpt>
      <trkpt lat="43.03252" lon="0.81268">
        <ele>483</ele>
        <time>2017-06-10T13:04:39.008Z</time>
      </trkpt>
      <trkpt lat="43.03255" lon="0.8126">
        <ele>483</ele>
        <time>2017-06-10T13:04:41.008Z</time>
      </trkpt>
      <trkpt lat="43.03257" lon="0.81253">
        <ele>483</ele>
        <time>2017-06-10T13:04:43.008Z</time>
      </trkpt>
      <trkpt lat="43.0326" lon="0.81247">
        <ele>483</ele>
        <time>2017-06-10T13:04:45.008Z</time>
      </trkpt>
      <trkpt lat="43.03262" lon="0.8124">
        <ele>483</ele>
        <time>2017-06-10T13:04:47.008Z</time>
      </trkpt>
      <trkpt lat="43.03264" lon="0.81232">
        <ele>483</ele>
        <time>2017-06-10T13:04:49.008Z</time>
      </trkpt>
      <trkpt lat="43.03266" lon="0.81226">
        <ele>483</ele>
        <time>2017-06-10T13:04:51.008Z</time>
      </trkpt>
      <trkpt lat="43.03268" lon="0.81222">
        <ele>483</ele>
        <time>2017-06-10T13:05:03.008Z</time>
      </trkpt>
      <trkpt lat="43.03272" lon="0.8122">
        <ele>483</ele>
        <time>2017-06-10T13:05:05.008Z</time>
      </trkpt>
      <trkpt lat="43.03277" lon="0.81218">
        <ele>483</ele>
        <time>2017-06-10T13:05:07.008Z</time>
      </trkpt>
      <trkpt lat="43.03282" lon="0.81215">
        <ele>483</ele>
        <time>2017-06-10T13:05:09.008Z</time>
      </trkpt>
      <trkpt lat="43.03287" lon="0.8121">
        <ele>484</ele>
        <time>2017-06-10T13:05:12.008Z</time>
      </trkpt>
      <trkpt lat="43.03292" lon="0.81204">
        <ele>484</ele>
        <time>2017-06-10T13:05:14.008Z</time>
      </trkpt>
      <trkpt lat="43.03299" lon="0.81196">
        <ele>484</ele>
        <time>2017-06-10T13:05:17.008Z</time>
      </trkpt>
      <trkpt lat="43.03306" lon="0.81192">
        <ele>484</ele>
        <time>2017-06-10T13:05:19.008Z</time>
      </trkpt>
      <trkpt lat="43.03316" lon="0.81189">
        <ele>484</ele>
        <time>2017-06-10T13:05:22.008Z</time>
      </trkpt>
      <trkpt lat="43.03321" lon="0.81185">
        <ele>484</ele>
        <time>2017-06-10T13:05:24.008Z</time>
      </trkpt>
      <trkpt lat="43.03325" lon="0.81175">
        <ele>484</ele>
        <time>2017-06-10T13:05:27.008Z</time>
      </trkpt>
      <trkpt lat="43.03326" lon="0.81167">
        <ele>484</ele>
        <time>2017-06-10T13:05:29.008Z</time>
      </trkpt>
      <trkpt lat="43.0333" lon="0.81156">
        <ele>486</ele>
        <time>2017-06-10T13:05:32.008Z</time>
      </trkpt>
      <trkpt lat="43.03337" lon="0.81151">
        <ele>486</ele>
        <time>2017-06-10T13:05:35.008Z</time>
      </trkpt>
      <trkpt lat="43.03347" lon="0.81148">
        <ele>486</ele>
        <time>2017-06-10T13:05:39.008Z</time>
      </trkpt>
      <trkpt lat="43.03354" lon="0.8114">
        <ele>488</ele>
        <time>2017-06-10T13:05:44.008Z</time>
      </trkpt>
      <trkpt lat="43.03361" lon="0.81132">
        <ele>488</ele>
        <time>2017-06-10T13:05:47.008Z</time>
      </trkpt>
      <trkpt lat="43.03368" lon="0.81125">
        <ele>488.208</ele>
        <time>2017-06-10T13:05:51.008Z</time>
      </trkpt>
      <trkpt lat="43.03377" lon="0.81123">
        <ele>489</ele>
        <time>2017-06-10T13:05:56.008Z</time>
      </trkpt>
      <trkpt lat="43.03385" lon="0.81116">
        <ele>489.624</ele>
        <time>2017-06-10T13:06:01.008Z</time>
      </trkpt>
      <trkpt lat="43.03389" lon="0.81108">
        <ele>492.416</ele>
        <time>2017-06-10T13:06:06.008Z</time>
      </trkpt>
      <trkpt lat="43.03382" lon="0.81103">
        <ele>494.416</ele>
        <time>2017-06-10T13:06:16.008Z</time>
      </trkpt>
      <trkpt lat="43.03377" lon="0.81095">
        <ele>496</ele>
        <time>2017-06-10T13:06:20.008Z</time>
      </trkpt>
      <trkpt lat="43.03373" lon="0.81086">
        <ele>497</ele>
        <time>2017-06-10T13:06:25.008Z</time>
      </trkpt>
      <trkpt lat="43.03371" lon="0.81078">
        <ele>498</ele>
        <time>2017-06-10T13:06:28.008Z</time>
      </trkpt>
      <trkpt lat="43.03369" lon="0.81067">
        <ele>499</ele>
        <time>2017-06-10T13:06:32.008Z</time>
      </trkpt>
      <trkpt lat="43.0337" lon="0.81057">
        <ele>499</ele>
        <time>2017-06-10T13:06:36.008Z</time>
      </trkpt>
      <trkpt lat="43.03373" lon="0.81049">
        <ele>499</ele>
        <time>2017-06-10T13:06:40.008Z</time>
      </trkpt>
      <trkpt lat="43.03375" lon="0.81041">
        <ele>500</ele>
        <time>2017-06-10T13:06:45.008Z</time>
      </trkpt>
      <trkpt lat="43.0338" lon="0.81033">
        <ele>500</ele>
        <time>2017-06-10T13:06:50.008Z</time>
      </trkpt>
      <trkpt lat="43.03383" lon="0.81025">
        <ele>503</ele>
        <time>2017-06-10T13:06:54.008Z</time>
      </trkpt>
      <trkpt lat="43.03385" lon="0.81018">
        <ele>505</ele>
        <time>2017-06-10T13:06:59.008Z</time>
      </trkpt>
      <trkpt lat="43.03388" lon="0.81011">
        <ele>506</ele>
        <time>2017-06-10T13:07:06.008Z</time>
      </trkpt>
      <trkpt lat="43.03391" lon="0.81002">
        <ele>506</ele>
        <time>2017-06-10T13:07:15.008Z</time>
      </trkpt>
      <trkpt lat="43.03395" lon="0.80994">
        <ele>506</ele>
        <time>2017-06-10T13:07:20.008Z</time>
      </trkpt>
      <trkpt lat="43.03397" lon="0.80986">
        <ele>508</ele>
        <time>2017-06-10T13:07:24.008Z</time>
      </trkpt>
      <trkpt lat="43.034" lon="0.80978">
        <ele>508</ele>
        <time>2017-06-10T13:07:28.008Z</time>
      </trkpt>
      <trkpt lat="43.03405" lon="0.80973">
        <ele>512</ele>
        <time>2017-06-10T13:07:32.008Z</time>
      </trkpt>
      <trkpt lat="43.03409" lon="0.80966">
        <ele>512.208</ele>
        <time>2017-06-10T13:07:36.008Z</time>
      </trkpt>
      <trkpt lat="43.03412" lon="0.80959">
        <ele>513</ele>
        <time>2017-06-10T13:07:40.008Z</time>
      </trkpt>
      <trkpt lat="43.03415" lon="0.80951">
        <ele>514</ele>
        <time>2017-06-10T13:07:44.008Z</time>
      </trkpt>
      <trkpt lat="43.03422" lon="0.80949">
        <ele>514.416</ele>
        <time>2017-06-10T13:07:51.008Z</time>
      </trkpt>
      <trkpt lat="43.03429" lon="0.80949">
        <ele>516</ele>
        <time>2017-06-10T13:07:58.008Z</time>
      </trkpt>
      <trkpt lat="43.03433" lon="0.80956">
        <ele>519</ele>
        <time>2017-06-10T13:08:14.008Z</time>
      </trkpt>
      <trkpt lat="43.03436" lon="0.80964">
        <ele>519</ele>
        <time>2017-06-10T13:08:22.008Z</time>
      </trkpt>
      <trkpt lat="43.03441" lon="0.80972">
        <ele>519</ele>
        <time>2017-06-10T13:08:27.008Z</time>
      </trkpt>
      <trkpt lat="43.03446" lon="0.80978">
        <ele>519.832</ele>
        <time>2017-06-10T13:08:31.008Z</time>
      </trkpt>
      <trkpt lat="43.03452" lon="0.80983">
        <ele>523</ele>
        <time>2017-06-10T13:08:34.008Z</time>
      </trkpt>
      <trkpt lat="43.03455" lon="0.80989">
        <ele>525</ele>
        <time>2017-06-10T13:08:37.008Z</time>
      </trkpt>
      <trkpt lat="43.0346" lon="0.80994">
        <ele>525</ele>
        <time>2017-06-10T13:08:40.008Z</time>
      </trkpt>
      <trkpt lat="43.03465" lon="0.81001">
        <ele>526</ele>
        <time>2017-06-10T13:08:44.008Z</time>
      </trkpt>
      <trkpt lat="43.0347" lon="0.81006">
        <ele>528</ele>
        <time>2017-06-10T13:08:48.008Z</time>
      </trkpt>
      <trkpt lat="43.03475" lon="0.81013">
        <ele>529</ele>
        <time>2017-06-10T13:08:52.008Z</time>
      </trkpt>
      <trkpt lat="43.03481" lon="0.8102">
        <ele>529.416</ele>
        <time>2017-06-10T13:08:56.008Z</time>
      </trkpt>
      <trkpt lat="43.03485" lon="0.81027">
        <ele>531</ele>
        <time>2017-06-10T13:09:01.008Z</time>
      </trkpt>
      <trkpt lat="43.03489" lon="0.81036">
        <ele>531.20594124655</ele>
        <time>2017-06-10T13:09:06.008Z</time>
      </trkpt>
      <trkpt lat="43.03492" lon="0.81046">
        <ele>532</ele>
        <time>2017-06-10T13:09:09.008Z</time>
      </trkpt>
      <trkpt lat="43.03496" lon="0.81055">
        <ele>532</ele>
        <time>2017-06-10T13:09:12.008Z</time>
      </trkpt>
      <trkpt lat="43.035" lon="0.81064">
        <ele>532</ele>
        <time>2017-06-10T13:09:15.008Z</time>
      </trkpt>
      <trkpt lat="43.03504" lon="0.81073">
        <ele>532</ele>
        <time>2017-06-10T13:09:18.008Z</time>
      </trkpt>
      <trkpt lat="43.03507" lon="0.8108">
        <ele>532.416</ele>
        <time>2017-06-10T13:09:21.008Z</time>
      </trkpt>
      <trkpt lat="43.03511" lon="0.81089">
        <ele>534</ele>
        <time>2017-06-10T13:09:24.008Z</time>
      </trkpt>
      <trkpt lat="43.03517" lon="0.81096">
        <ele>534</ele>
        <time>2017-06-10T13:09:28.008Z</time>
      </trkpt>
      <trkpt lat="43.03524" lon="0.81104">
        <ele>537</ele>
        <time>2017-06-10T13:09:33.008Z</time>
      </trkpt>
      <trkpt lat="43.0353" lon="0.81111">
        <ele>537</ele>
        <time>2017-06-10T13:09:37.008Z</time>
      </trkpt>
      <trkpt lat="43.03536" lon="0.81118">
        <ele>537.208</ele>
        <time>2017-06-10T13:09:41.008Z</time>
      </trkpt>
      <trkpt lat="43.03543" lon="0.81124">
        <ele>538</ele>
        <time>2017-06-10T13:09:46.008Z</time>
      </trkpt>
      <trkpt lat="43.03548" lon="0.81133">
        <ele>538</ele>
        <time>2017-06-10T13:09:50.008Z</time>
      </trkpt>
      <trkpt lat="43.03554" lon="0.8114">
        <ele>540</ele>
        <time>2017-06-10T13:09:53.008Z</time>
      </trkpt>
      <trkpt lat="43.03562" lon="0.81148">
        <ele>540</ele>
        <time>2017-06-10T13:09:57.008Z</time>
      </trkpt>
      <trkpt lat="43.03569" lon="0.81156">
        <ele>540.624</ele>
        <time>2017-06-10T13:10:01.008Z</time>
      </trkpt>
      <trkpt lat="43.03576" lon="0.81163">
        <ele>543.208</ele>
        <time>2017-06-10T13:10:06.008Z</time>
      </trkpt>
      <trkpt lat="43.03582" lon="0.81168">
        <ele>544</ele>
        <time>2017-06-10T13:10:09.008Z</time>
      </trkpt>
      <trkpt lat="43.0359" lon="0.81171">
        <ele>546</ele>
        <time>2017-06-10T13:10:12.008Z</time>
      </trkpt>
      <trkpt lat="43.03597" lon="0.81175">
        <ele>546.208</ele>
        <time>2017-06-10T13:10:16.008Z</time>
      </trkpt>
      <trkpt lat="43.03603" lon="0.8118">
        <ele>547</ele>
        <time>2017-06-10T13:10:20.008Z</time>
      </trkpt>
      <trkpt lat="43.03612" lon="0.81185">
        <ele>548</ele>
        <time>2017-06-10T13:10:24.008Z</time>
      </trkpt>
      <trkpt lat="43.03621" lon="0.81189">
        <ele>548</ele>
        <time>2017-06-10T13:10:28.008Z</time>
      </trkpt>
      <trkpt lat="43.0363" lon="0.8119">
        <ele>548.20000258585</ele>
        <time>2017-06-10T13:10:31.008Z</time>
      </trkpt>
      <trkpt lat="43.03638" lon="0.81188">
        <ele>549</ele>
        <time>2017-06-10T13:10:34.008Z</time>
      </trkpt>
      <trkpt lat="43.03646" lon="0.81185">
        <ele>549</ele>
        <time>2017-06-10T13:10:38.008Z</time>
      </trkpt>
      <trkpt lat="43.03642" lon="0.81178">
        <ele>553</ele>
        <time>2017-06-10T13:10:54.008Z</time>
      </trkpt>
      <trkpt lat="43.03634" lon="0.81173">
        <ele>555</ele>
        <time>2017-06-10T13:11:04.008Z</time>
      </trkpt>
      <trkpt lat="43.03629" lon="0.81166">
        <ele>555</ele>
        <time>2017-06-10T13:11:12.008Z</time>
      </trkpt>
      <trkpt lat="43.03622" lon="0.81159">
        <ele>557</ele>
        <time>2017-06-10T13:11:22.008Z</time>
      </trkpt>
      <trkpt lat="43.03615" lon="0.81151">
        <ele>557</ele>
        <time>2017-06-10T13:11:27.008Z</time>
      </trkpt>
      <trkpt lat="43.0361" lon="0.81142">
        <ele>557.416</ele>
        <time>2017-06-10T13:11:31.008Z</time>
      </trkpt>
      <trkpt lat="43.03606" lon="0.81133">
        <ele>559</ele>
        <time>2017-06-10T13:11:35.008Z</time>
      </trkpt>
      <trkpt lat="43.03602" lon="0.81124">
        <ele>559</ele>
        <time>2017-06-10T13:11:39.008Z</time>
      </trkpt>
      <trkpt lat="43.03597" lon="0.81114">
        <ele>561</ele>
        <time>2017-06-10T13:11:43.008Z</time>
      </trkpt>
      <trkpt lat="43.03594" lon="0.81104">
        <ele>564</ele>
        <time>2017-06-10T13:11:47.008Z</time>
      </trkpt>
      <trkpt lat="43.03592" lon="0.81095">
        <ele>564.208</ele>
        <time>2017-06-10T13:11:51.008Z</time>
      </trkpt>
      <trkpt lat="43.03589" lon="0.81087">
        <ele>565</ele>
        <time>2017-06-10T13:11:55.008Z</time>
      </trkpt>
      <trkpt lat="43.03586" lon="0.81076">
        <ele>567</ele>
        <time>2017-06-10T13:11:59.008Z</time>
      </trkpt>
      <trkpt lat="43.03585" lon="0.81065">
        <ele>568</ele>
        <time>2017-06-10T13:12:04.008Z</time>
      </trkpt>
      <trkpt lat="43.03583" lon="0.81055">
        <ele>570</ele>
        <time>2017-06-10T13:12:08.008Z</time>
      </trkpt>
      <trkpt lat="43.03581" lon="0.81045">
        <ele>571</ele>
        <time>2017-06-10T13:12:12.008Z</time>
      </trkpt>
      <trkpt lat="43.03578" lon="0.81035">
        <ele>571.416</ele>
        <time>2017-06-10T13:12:16.008Z</time>
      </trkpt>
      <trkpt lat="43.03576" lon="0.81026">
        <ele>573</ele>
        <time>2017-06-10T13:12:20.008Z</time>
      </trkpt>
      <trkpt lat="43.03574" lon="0.81018">
        <ele>574</ele>
        <time>2017-06-10T13:12:24.008Z</time>
      </trkpt>
      <trkpt lat="43.03573" lon="0.81008">
        <ele>576</ele>
        <time>2017-06-10T13:12:28.008Z</time>
      </trkpt>
      <trkpt lat="43.03572" lon="0.81001">
        <ele>576.208</ele>
        <time>2017-06-10T13:12:31.008Z</time>
      </trkpt>
      <trkpt lat="43.03571" lon="0.80992">
        <ele>577</ele>
        <time>2017-06-10T13:12:35.008Z</time>
      </trkpt>
      <trkpt lat="43.03572" lon="0.80982">
        <ele>578</ele>
        <time>2017-06-10T13:12:39.008Z</time>
      </trkpt>
      <trkpt lat="43.03573" lon="0.80974">
        <ele>580</ele>
        <time>2017-06-10T13:12:42.008Z</time>
      </trkpt>
      <trkpt lat="43.03574" lon="0.80966">
        <ele>580</ele>
        <time>2017-06-10T13:12:45.008Z</time>
      </trkpt>
      <trkpt lat="43.03573" lon="0.80958">
        <ele>580</ele>
        <time>2017-06-10T13:12:48.008Z</time>
      </trkpt>
      <trkpt lat="43.03571" lon="0.8095">
        <ele>580.20000258585</ele>
        <time>2017-06-10T13:12:51.008Z</time>
      </trkpt>
      <trkpt lat="43.0357" lon="0.80941">
        <ele>581</ele>
        <time>2017-06-10T13:12:54.008Z</time>
      </trkpt>
      <trkpt lat="43.03571" lon="0.80933">
        <ele>581</ele>
        <time>2017-06-10T13:12:57.008Z</time>
      </trkpt>
      <trkpt lat="43.03572" lon="0.80926">
        <ele>581</ele>
        <time>2017-06-10T13:13:00.008Z</time>
      </trkpt>
      <trkpt lat="43.03572" lon="0.80918">
        <ele>585</ele>
        <time>2017-06-10T13:13:03.008Z</time>
      </trkpt>
      <trkpt lat="43.03572" lon="0.8091">
        <ele>585.208</ele>
        <time>2017-06-10T13:13:06.008Z</time>
      </trkpt>
      <trkpt lat="43.03572" lon="0.80902">
        <ele>586</ele>
        <time>2017-06-10T13:13:09.008Z</time>
      </trkpt>
      <trkpt lat="43.03572" lon="0.80892">
        <ele>587</ele>
        <time>2017-06-10T13:13:13.008Z</time>
      </trkpt>
      <trkpt lat="43.03574" lon="0.80884">
        <ele>587.208</ele>
        <time>2017-06-10T13:13:16.008Z</time>
      </trkpt>
      <trkpt lat="43.03575" lon="0.80874">
        <ele>588</ele>
        <time>2017-06-10T13:13:20.008Z</time>
      </trkpt>
      <trkpt lat="43.03575" lon="0.80864">
        <ele>590</ele>
        <time>2017-06-10T13:13:24.008Z</time>
      </trkpt>
      <trkpt lat="43.03577" lon="0.80856">
        <ele>591</ele>
        <time>2017-06-10T13:13:27.008Z</time>
      </trkpt>
      <trkpt lat="43.03579" lon="0.80845">
        <ele>591.208</ele>
        <time>2017-06-10T13:13:31.008Z</time>
      </trkpt>
      <trkpt lat="43.0358" lon="0.80834">
        <ele>592</ele>
        <time>2017-06-10T13:13:35.008Z</time>
      </trkpt>
      <trkpt lat="43.03582" lon="0.80825">
        <ele>592</ele>
        <time>2017-06-10T13:13:38.008Z</time>
      </trkpt>
      <trkpt lat="43.03583" lon="0.80816">
        <ele>592.208</ele>
        <time>2017-06-10T13:13:41.008Z</time>
      </trkpt>
      <trkpt lat="43.03584" lon="0.80808">
        <ele>593</ele>
        <time>2017-06-10T13:13:44.008Z</time>
      </trkpt>
      <trkpt lat="43.03585" lon="0.80799">
        <ele>593</ele>
        <time>2017-06-10T13:13:47.008Z</time>
      </trkpt>
      <trkpt lat="43.03587" lon="0.8079">
        <ele>593</ele>
        <time>2017-06-10T13:13:50.008Z</time>
      </trkpt>
      <trkpt lat="43.03588" lon="0.80783">
        <ele>595</ele>
        <time>2017-06-10T13:13:53.008Z</time>
      </trkpt>
      <trkpt lat="43.03591" lon="0.80774">
        <ele>595</ele>
        <time>2017-06-10T13:13:56.008Z</time>
      </trkpt>
      <trkpt lat="43.03594" lon="0.80768">
        <ele>595</ele>
        <time>2017-06-10T13:13:58.008Z</time>
      </trkpt>
      <trkpt lat="43.03597" lon="0.80764">
        <ele>595</ele>
        <time>2017-06-10T13:14:00.008Z</time>
      </trkpt>
      <trkpt lat="43.03601" lon="0.80758">
        <ele>599</ele>
        <time>2017-06-10T13:14:03.008Z</time>
      </trkpt>
      <trkpt lat="43.03606" lon="0.80753">
        <ele>599</ele>
        <time>2017-06-10T13:14:06.008Z</time>
      </trkpt>
      <trkpt lat="43.03611" lon="0.80747">
        <ele>599</ele>
        <time>2017-06-10T13:14:09.008Z</time>
      </trkpt>
      <trkpt lat="43.03615" lon="0.80741">
        <ele>600</ele>
        <time>2017-06-10T13:14:12.008Z</time>
      </trkpt>
      <trkpt lat="43.03619" lon="0.80734">
        <ele>600</ele>
        <time>2017-06-10T13:14:15.008Z</time>
      </trkpt>
      <trkpt lat="43.03622" lon="0.80726">
        <ele>600</ele>
        <time>2017-06-10T13:14:18.008Z</time>
      </trkpt>
      <trkpt lat="43.03625" lon="0.80718">
        <ele>600.208</ele>
        <time>2017-06-10T13:14:21.008Z</time>
      </trkpt>
      <trkpt lat="43.03626" lon="0.80711">
        <ele>601</ele>
        <time>2017-06-10T13:14:24.008Z</time>
      </trkpt>
      <trkpt lat="43.03627" lon="0.80702">
        <ele>601</ele>
        <time>2017-06-10T13:14:27.008Z</time>
      </trkpt>
      <trkpt lat="43.0363" lon="0.80692">
        <ele>601</ele>
        <time>2017-06-10T13:14:30.008Z</time>
      </trkpt>
      <trkpt lat="43.03633" lon="0.80681">
        <ele>601</ele>
        <time>2017-06-10T13:14:33.008Z</time>
      </trkpt>
      <trkpt lat="43.03634" lon="0.80667">
        <ele>601</ele>
        <time>2017-06-10T13:14:36.008Z</time>
      </trkpt>
      <trkpt lat="43.03638" lon="0.80652">
        <ele>601</ele>
        <time>2017-06-10T13:14:39.008Z</time>
      </trkpt>
      <trkpt lat="43.03642" lon="0.80642">
        <ele>600.792</ele>
        <time>2017-06-10T13:14:41.008Z</time>
      </trkpt>
      <trkpt lat="43.03644" lon="0.80628">
        <ele>600</ele>
        <time>2017-06-10T13:14:43.008Z</time>
      </trkpt>
      <trkpt lat="43.03647" lon="0.80616">
        <ele>600</ele>
        <time>2017-06-10T13:14:45.008Z</time>
      </trkpt>
      <trkpt lat="43.0365" lon="0.80604">
        <ele>600</ele>
        <time>2017-06-10T13:14:47.008Z</time>
      </trkpt>
      <trkpt lat="43.03654" lon="0.80589">
        <ele>600</ele>
        <time>2017-06-10T13:14:50.008Z</time>
      </trkpt>
      <trkpt lat="43.03658" lon="0.80571">
        <ele>598</ele>
        <time>2017-06-10T13:14:53.008Z</time>
      </trkpt>
      <trkpt lat="43.03663" lon="0.80558">
        <ele>598</ele>
        <time>2017-06-10T13:14:55.008Z</time>
      </trkpt>
      <trkpt lat="43.03666" lon="0.80544">
        <ele>598</ele>
        <time>2017-06-10T13:14:57.008Z</time>
      </trkpt>
      <trkpt lat="43.03671" lon="0.80526">
        <ele>598</ele>
        <time>2017-06-10T13:15:00.008Z</time>
      </trkpt>
      <trkpt lat="43.03674" lon="0.80509">
        <ele>596</ele>
        <time>2017-06-10T13:15:03.008Z</time>
      </trkpt>
      <trkpt lat="43.03676" lon="0.80496">
        <ele>596.208</ele>
        <time>2017-06-10T13:15:06.008Z</time>
      </trkpt>
      <trkpt lat="43.03678" lon="0.80482">
        <ele>597</ele>
        <time>2017-06-10T13:15:09.008Z</time>
      </trkpt>
      <trkpt lat="43.03682" lon="0.80469">
        <ele>597</ele>
        <time>2017-06-10T13:15:12.008Z</time>
      </trkpt>
      <trkpt lat="43.03687" lon="0.8046">
        <ele>597</ele>
        <time>2017-06-10T13:15:14.008Z</time>
      </trkpt>
      <trkpt lat="43.03691" lon="0.80449">
        <ele>597</ele>
        <time>2017-06-10T13:15:17.008Z</time>
      </trkpt>
      <trkpt lat="43.03696" lon="0.80435">
        <ele>597</ele>
        <time>2017-06-10T13:15:20.008Z</time>
      </trkpt>
      <trkpt lat="43.03702" lon="0.80424">
        <ele>598</ele>
        <time>2017-06-10T13:15:23.008Z</time>
      </trkpt>
      <trkpt lat="43.03705" lon="0.8041">
        <ele>598</ele>
        <time>2017-06-10T13:15:27.008Z</time>
      </trkpt>
      <trkpt lat="43.0371" lon="0.80399">
        <ele>598.208</ele>
        <time>2017-06-10T13:15:31.008Z</time>
      </trkpt>
      <trkpt lat="43.03716" lon="0.80386">
        <ele>599</ele>
        <time>2017-06-10T13:15:35.008Z</time>
      </trkpt>
      <trkpt lat="43.03721" lon="0.80376">
        <ele>599</ele>
        <time>2017-06-10T13:15:38.008Z</time>
      </trkpt>
      <trkpt lat="43.03726" lon="0.80367">
        <ele>599.416</ele>
        <time>2017-06-10T13:15:41.008Z</time>
      </trkpt>
      <trkpt lat="43.03732" lon="0.80359">
        <ele>601</ele>
        <time>2017-06-10T13:15:44.008Z</time>
      </trkpt>
      <trkpt lat="43.03739" lon="0.8035">
        <ele>601</ele>
        <time>2017-06-10T13:15:46.008Z</time>
      </trkpt>
      <trkpt lat="43.03747" lon="0.80338">
        <ele>601</ele>
        <time>2017-06-10T13:15:49.008Z</time>
      </trkpt>
      <trkpt lat="43.03756" lon="0.80332">
        <ele>602</ele>
        <time>2017-06-10T13:15:53.008Z</time>
      </trkpt>
      <trkpt lat="43.03765" lon="0.80327">
        <ele>602</ele>
        <time>2017-06-10T13:15:57.008Z</time>
      </trkpt>
      <trkpt lat="43.03774" lon="0.80324">
        <ele>606</ele>
        <time>2017-06-10T13:16:03.008Z</time>
      </trkpt>
      <trkpt lat="43.03781" lon="0.80323">
        <ele>606</ele>
        <time>2017-06-10T13:16:08.008Z</time>
      </trkpt>
      <trkpt lat="43.03786" lon="0.80318">
        <ele>608</ele>
        <time>2017-06-10T13:16:12.008Z</time>
      </trkpt>
      <trkpt lat="43.03792" lon="0.8031">
        <ele>610</ele>
        <time>2017-06-10T13:16:18.008Z</time>
      </trkpt>
      <trkpt lat="43.03798" lon="0.80302">
        <ele>612</ele>
        <time>2017-06-10T13:16:23.008Z</time>
      </trkpt>
      <trkpt lat="43.03802" lon="0.80295">
        <ele>615</ele>
        <time>2017-06-10T13:16:27.008Z</time>
      </trkpt>
      <trkpt lat="43.03807" lon="0.80287">
        <ele>615.416</ele>
        <time>2017-06-10T13:16:31.008Z</time>
      </trkpt>
      <trkpt lat="43.03811" lon="0.80279">
        <ele>616.792</ele>
        <time>2017-06-10T13:16:35.008Z</time>
      </trkpt>
      <trkpt lat="43.03816" lon="0.80271">
        <ele>618</ele>
        <time>2017-06-10T13:16:40.008Z</time>
      </trkpt>
      <trkpt lat="43.0382" lon="0.8026">
        <ele>619</ele>
        <time>2017-06-10T13:16:45.008Z</time>
      </trkpt>
      <trkpt lat="43.03823" lon="0.80252">
        <ele>619</ele>
        <time>2017-06-10T13:16:48.008Z</time>
      </trkpt>
      <trkpt lat="43.03828" lon="0.80244">
        <ele>619</ele>
        <time>2017-06-10T13:16:51.008Z</time>
      </trkpt>
      <trkpt lat="43.03835" lon="0.80233">
        <ele>619</ele>
        <time>2017-06-10T13:16:55.008Z</time>
      </trkpt>
      <trkpt lat="43.03839" lon="0.80223">
        <ele>619</ele>
        <time>2017-06-10T13:16:57.008Z</time>
      </trkpt>
      <trkpt lat="43.03844" lon="0.80213">
        <ele>618</ele>
        <time>2017-06-10T13:16:59.008Z</time>
      </trkpt>
      <trkpt lat="43.03851" lon="0.80199">
        <ele>611.584</ele>
        <time>2017-06-10T13:17:03.008Z</time>
      </trkpt>
      <trkpt lat="43.03858" lon="0.80187">
        <ele>608</ele>
        <time>2017-06-10T13:17:07.008Z</time>
      </trkpt>
      <trkpt lat="43.03868" lon="0.80172">
        <ele>603.792</ele>
        <time>2017-06-10T13:17:10.008Z</time>
      </trkpt>
      <trkpt lat="43.03874" lon="0.8016">
        <ele>602.584</ele>
        <time>2017-06-10T13:17:12.008Z</time>
      </trkpt>
      <trkpt lat="43.03878" lon="0.80145">
        <ele>599.584</ele>
        <time>2017-06-10T13:17:15.008Z</time>
      </trkpt>
      <trkpt lat="43.03881" lon="0.80132">
        <ele>595.792</ele>
        <time>2017-06-10T13:17:18.008Z</time>
      </trkpt>
      <trkpt lat="43.03893" lon="0.80122">
        <ele>591.792</ele>
        <time>2017-06-10T13:17:22.008Z</time>
      </trkpt>
      <trkpt lat="43.039" lon="0.80107">
        <ele>590.792</ele>
        <time>2017-06-10T13:17:24.008Z</time>
      </trkpt>
      <trkpt lat="43.03911" lon="0.80095">
        <ele>589</ele>
        <time>2017-06-10T13:17:26.008Z</time>
      </trkpt>
      <trkpt lat="43.03923" lon="0.80083">
        <ele>588.792</ele>
        <time>2017-06-10T13:17:28.008Z</time>
      </trkpt>
      <trkpt lat="43.03934" lon="0.80073">
        <ele>586.792</ele>
        <time>2017-06-10T13:17:30.008Z</time>
      </trkpt>
      <trkpt lat="43.03944" lon="0.80065">
        <ele>585.792</ele>
        <time>2017-06-10T13:17:32.008Z</time>
      </trkpt>
      <trkpt lat="43.03952" lon="0.80058">
        <ele>585</ele>
        <time>2017-06-10T13:17:34.008Z</time>
      </trkpt>
      <trkpt lat="43.0396" lon="0.80046">
        <ele>584</ele>
        <time>2017-06-10T13:17:36.008Z</time>
      </trkpt>
      <trkpt lat="43.03972" lon="0.80033">
        <ele>583</ele>
        <time>2017-06-10T13:17:38.008Z</time>
      </trkpt>
      <trkpt lat="43.03982" lon="0.80022">
        <ele>582</ele>
        <time>2017-06-10T13:17:40.008Z</time>
      </trkpt>
      <trkpt lat="43.0399" lon="0.80011">
        <ele>582</ele>
        <time>2017-06-10T13:17:42.008Z</time>
      </trkpt>
      <trkpt lat="43.03999" lon="0.79999">
        <ele>582</ele>
        <time>2017-06-10T13:17:44.008Z</time>
      </trkpt>
      <trkpt lat="43.04005" lon="0.79988">
        <ele>581.376</ele>
        <time>2017-06-10T13:17:46.008Z</time>
      </trkpt>
      <trkpt lat="43.04017" lon="0.79977">
        <ele>579</ele>
        <time>2017-06-10T13:17:49.008Z</time>
      </trkpt>
      <trkpt lat="43.04027" lon="0.79967">
        <ele>578.584</ele>
        <time>2017-06-10T13:17:51.008Z</time>
      </trkpt>
      <trkpt lat="43.04034" lon="0.79958">
        <ele>577</ele>
        <time>2017-06-10T13:17:53.008Z</time>
      </trkpt>
      <trkpt lat="43.04042" lon="0.79947">
        <ele>576.584</ele>
        <time>2017-06-10T13:17:56.008Z</time>
      </trkpt>
      <trkpt lat="43.04048" lon="0.79935">
        <ele>575</ele>
        <time>2017-06-10T13:17:58.008Z</time>
      </trkpt>
      <trkpt lat="43.04054" lon="0.79924">
        <ele>575</ele>
        <time>2017-06-10T13:18:00.008Z</time>
      </trkpt>
      <trkpt lat="43.04064" lon="0.79912">
        <ele>573</ele>
        <time>2017-06-10T13:18:02.008Z</time>
      </trkpt>
      <trkpt lat="43.04071" lon="0.79901">
        <ele>573</ele>
        <time>2017-06-10T13:18:04.008Z</time>
      </trkpt>
      <trkpt lat="43.04082" lon="0.7989">
        <ele>572.792</ele>
        <time>2017-06-10T13:18:06.008Z</time>
      </trkpt>
      <trkpt lat="43.04095" lon="0.79881">
        <ele>572</ele>
        <time>2017-06-10T13:18:08.008Z</time>
      </trkpt>
      <trkpt lat="43.04104" lon="0.79872">
        <ele>572</ele>
        <time>2017-06-10T13:18:10.008Z</time>
      </trkpt>
      <trkpt lat="43.04114" lon="0.79863">
        <ele>571</ele>
        <time>2017-06-10T13:18:12.008Z</time>
      </trkpt>
      <trkpt lat="43.04126" lon="0.79855">
        <ele>571</ele>
        <time>2017-06-10T13:18:14.008Z</time>
      </trkpt>
      <trkpt lat="43.04137" lon="0.79851">
        <ele>571</ele>
        <time>2017-06-10T13:18:16.008Z</time>
      </trkpt>
      <trkpt lat="43.04147" lon="0.79846">
        <ele>571</ele>
        <time>2017-06-10T13:18:18.008Z</time>
      </trkpt>
      <trkpt lat="43.04159" lon="0.79842">
        <ele>571</ele>
        <time>2017-06-10T13:18:20.008Z</time>
      </trkpt>
      <trkpt lat="43.04173" lon="0.79837">
        <ele>565.584</ele>
        <time>2017-06-10T13:18:22.008Z</time>
      </trkpt>
      <trkpt lat="43.04187" lon="0.79834">
        <ele>564</ele>
        <time>2017-06-10T13:18:24.008Z</time>
      </trkpt>
      <trkpt lat="43.04201" lon="0.79831">
        <ele>563</ele>
        <time>2017-06-10T13:18:26.008Z</time>
      </trkpt>
      <trkpt lat="43.04214" lon="0.79825">
        <ele>562</ele>
        <time>2017-06-10T13:18:28.008Z</time>
      </trkpt>
      <trkpt lat="43.04225" lon="0.79815">
        <ele>561</ele>
        <time>2017-06-10T13:18:30.008Z</time>
      </trkpt>
      <trkpt lat="43.04237" lon="0.79806">
        <ele>558.792</ele>
        <time>2017-06-10T13:18:32.008Z</time>
      </trkpt>
      <trkpt lat="43.04247" lon="0.79795">
        <ele>556.792</ele>
        <time>2017-06-10T13:18:34.008Z</time>
      </trkpt>
      <trkpt lat="43.04257" lon="0.79784">
        <ele>554.584</ele>
        <time>2017-06-10T13:18:36.008Z</time>
      </trkpt>
      <trkpt lat="43.04267" lon="0.79773">
        <ele>551.792</ele>
        <time>2017-06-10T13:18:38.008Z</time>
      </trkpt>
      <trkpt lat="43.04277" lon="0.79759">
        <ele>550</ele>
        <time>2017-06-10T13:18:40.008Z</time>
      </trkpt>
      <trkpt lat="43.04287" lon="0.79746">
        <ele>550</ele>
        <time>2017-06-10T13:18:42.008Z</time>
      </trkpt>
      <trkpt lat="43.0429" lon="0.79726">
        <ele>548.792</ele>
        <time>2017-06-10T13:18:44.008Z</time>
      </trkpt>
      <trkpt lat="43.04294" lon="0.79706">
        <ele>547</ele>
        <time>2017-06-10T13:18:46.008Z</time>
      </trkpt>
      <trkpt lat="43.04303" lon="0.79684">
        <ele>545</ele>
        <time>2017-06-10T13:18:48.008Z</time>
      </trkpt>
      <trkpt lat="43.04312" lon="0.79667">
        <ele>544.5999948283</ele>
        <time>2017-06-10T13:18:50.008Z</time>
      </trkpt>
      <trkpt lat="43.04321" lon="0.79654">
        <ele>541.792</ele>
        <time>2017-06-10T13:18:52.008Z</time>
      </trkpt>
      <trkpt lat="43.04331" lon="0.79652">
        <ele>539.792</ele>
        <time>2017-06-10T13:18:55.008Z</time>
      </trkpt>
      <trkpt lat="43.04341" lon="0.79663">
        <ele>537.792</ele>
        <time>2017-06-10T13:18:58.008Z</time>
      </trkpt>
      <trkpt lat="43.04351" lon="0.79663">
        <ele>534.792</ele>
        <time>2017-06-10T13:19:00.008Z</time>
      </trkpt>
      <trkpt lat="43.04361" lon="0.79657">
        <ele>534</ele>
        <time>2017-06-10T13:19:02.008Z</time>
      </trkpt>
      <trkpt lat="43.04372" lon="0.79646">
        <ele>533</ele>
        <time>2017-06-10T13:19:05.008Z</time>
      </trkpt>
      <trkpt lat="43.04377" lon="0.79637">
        <ele>533</ele>
        <time>2017-06-10T13:19:08.008Z</time>
      </trkpt>
      <trkpt lat="43.04383" lon="0.79639">
        <ele>533</ele>
        <time>2017-06-10T13:19:11.008Z</time>
      </trkpt>
      <trkpt lat="43.04388" lon="0.79637">
        <ele>533</ele>
        <time>2017-06-10T13:19:13.008Z</time>
      </trkpt>
      <trkpt lat="43.04395" lon="0.79636">
        <ele>533</ele>
        <time>2017-06-10T13:19:16.008Z</time>
      </trkpt>
      <trkpt lat="43.04402" lon="0.79634">
        <ele>533</ele>
        <time>2017-06-10T13:19:19.008Z</time>
      </trkpt>
      <trkpt lat="43.04408" lon="0.79636">
        <ele>534</ele>
        <time>2017-06-10T13:19:22.008Z</time>
      </trkpt>
      <trkpt lat="43.04412" lon="0.79641">
        <ele>534</ele>
        <time>2017-06-10T13:19:48.008Z</time>
      </trkpt>
      <trkpt lat="43.04417" lon="0.79644">
        <ele>534</ele>
        <time>2017-06-10T13:19:50.008Z</time>
      </trkpt>
      <trkpt lat="43.04421" lon="0.79646">
        <ele>535</ele>
        <time>2017-06-10T13:19:52.008Z</time>
      </trkpt>
      <trkpt lat="43.04426" lon="0.79649">
        <ele>535</ele>
        <time>2017-06-10T13:19:54.008Z</time>
      </trkpt>
      <trkpt lat="43.0443" lon="0.79651">
        <ele>535</ele>
        <time>2017-06-10T13:19:56.008Z</time>
      </trkpt>
      <trkpt lat="43.04435" lon="0.79653">
        <ele>535</ele>
        <time>2017-06-10T13:19:59.008Z</time>
      </trkpt>
      <trkpt lat="43.04441" lon="0.79654">
        <ele>538</ele>
        <time>2017-06-10T13:20:02.008Z</time>
      </trkpt>
      <trkpt lat="43.04448" lon="0.79657">
        <ele>538</ele>
        <time>2017-06-10T13:20:05.008Z</time>
      </trkpt>
      <trkpt lat="43.04454" lon="0.79662">
        <ele>539</ele>
        <time>2017-06-10T13:20:08.008Z</time>
      </trkpt>
      <trkpt lat="43.0446" lon="0.79668">
        <ele>539</ele>
        <time>2017-06-10T13:20:11.008Z</time>
      </trkpt>
      <trkpt lat="43.04466" lon="0.79672">
        <ele>539</ele>
        <time>2017-06-10T13:20:14.008Z</time>
      </trkpt>
      <trkpt lat="43.04472" lon="0.79676">
        <ele>539</ele>
        <time>2017-06-10T13:20:17.008Z</time>
      </trkpt>
      <trkpt lat="43.04478" lon="0.79679">
        <ele>539</ele>
        <time>2017-06-10T13:20:20.008Z</time>
      </trkpt>
      <trkpt lat="43.04486" lon="0.79683">
        <ele>541</ele>
        <time>2017-06-10T13:20:24.008Z</time>
      </trkpt>
      <trkpt lat="43.04494" lon="0.79684">
        <ele>541</ele>
        <time>2017-06-10T13:20:27.008Z</time>
      </trkpt>
      <trkpt lat="43.04501" lon="0.79683">
        <ele>541</ele>
        <time>2017-06-10T13:20:29.008Z</time>
      </trkpt>
      <trkpt lat="43.04508" lon="0.7968">
        <ele>543</ele>
        <time>2017-06-10T13:20:32.008Z</time>
      </trkpt>
      <trkpt lat="43.04515" lon="0.79675">
        <ele>543</ele>
        <time>2017-06-10T13:20:35.008Z</time>
      </trkpt>
      <trkpt lat="43.04521" lon="0.79668">
        <ele>543</ele>
        <time>2017-06-10T13:20:38.008Z</time>
      </trkpt>
      <trkpt lat="43.04528" lon="0.79661">
        <ele>543</ele>
        <time>2017-06-10T13:20:41.008Z</time>
      </trkpt>
      <trkpt lat="43.04534" lon="0.79654">
        <ele>543</ele>
        <time>2017-06-10T13:20:43.008Z</time>
      </trkpt>
      <trkpt lat="43.0454" lon="0.79645">
        <ele>543</ele>
        <time>2017-06-10T13:20:45.008Z</time>
      </trkpt>
      <trkpt lat="43.04546" lon="0.79635">
        <ele>543</ele>
        <time>2017-06-10T13:20:48.008Z</time>
      </trkpt>
      <trkpt lat="43.04551" lon="0.79627">
        <ele>543</ele>
        <time>2017-06-10T13:20:50.008Z</time>
      </trkpt>
      <trkpt lat="43.04555" lon="0.79618">
        <ele>542</ele>
        <time>2017-06-10T13:20:52.008Z</time>
      </trkpt>
      <trkpt lat="43.04561" lon="0.79607">
        <ele>542</ele>
        <time>2017-06-10T13:20:55.008Z</time>
      </trkpt>
      <trkpt lat="43.04565" lon="0.79594">
        <ele>542</ele>
        <time>2017-06-10T13:20:58.008Z</time>
      </trkpt>
      <trkpt lat="43.04572" lon="0.79579">
        <ele>540</ele>
        <time>2017-06-10T13:21:02.008Z</time>
      </trkpt>
      <trkpt lat="43.04575" lon="0.79564">
        <ele>540</ele>
        <time>2017-06-10T13:21:05.008Z</time>
      </trkpt>
      <trkpt lat="43.04579" lon="0.7955">
        <ele>540</ele>
        <time>2017-06-10T13:21:10.008Z</time>
      </trkpt>
      <trkpt lat="43.04586" lon="0.7954">
        <ele>541</ele>
        <time>2017-06-10T13:21:14.008Z</time>
      </trkpt>
      <trkpt lat="43.04597" lon="0.79539">
        <ele>541</ele>
        <time>2017-06-10T13:21:18.008Z</time>
      </trkpt>
      <trkpt lat="43.04607" lon="0.79542">
        <ele>541</ele>
        <time>2017-06-10T13:21:22.008Z</time>
      </trkpt>
      <trkpt lat="43.04616" lon="0.79551">
        <ele>541</ele>
        <time>2017-06-10T13:21:26.008Z</time>
      </trkpt>
      <trkpt lat="43.04623" lon="0.7956">
        <ele>541</ele>
        <time>2017-06-10T13:21:29.008Z</time>
      </trkpt>
      <trkpt lat="43.04632" lon="0.79566">
        <ele>541</ele>
        <time>2017-06-10T13:21:32.008Z</time>
      </trkpt>
      <trkpt lat="43.04641" lon="0.79574">
        <ele>541</ele>
        <time>2017-06-10T13:21:35.008Z</time>
      </trkpt>
      <trkpt lat="43.04649" lon="0.79582">
        <ele>541</ele>
        <time>2017-06-10T13:21:38.008Z</time>
      </trkpt>
      <trkpt lat="43.04653" lon="0.79595">
        <ele>541</ele>
        <time>2017-06-10T13:21:41.008Z</time>
      </trkpt>
      <trkpt lat="43.04657" lon="0.79608">
        <ele>541</ele>
        <time>2017-06-10T13:21:45.008Z</time>
      </trkpt>
      <trkpt lat="43.04663" lon="0.79616">
        <ele>541</ele>
        <time>2017-06-10T13:21:47.008Z</time>
      </trkpt>
      <trkpt lat="43.0467" lon="0.79628">
        <ele>541</ele>
        <time>2017-06-10T13:21:50.008Z</time>
      </trkpt>
      <trkpt lat="43.04674" lon="0.79638">
        <ele>542</ele>
        <time>2017-06-10T13:21:53.008Z</time>
      </trkpt>
      <trkpt lat="43.04681" lon="0.79647">
        <ele>542</ele>
        <time>2017-06-10T13:21:56.008Z</time>
      </trkpt>
      <trkpt lat="43.04688" lon="0.79656">
        <ele>542</ele>
        <time>2017-06-10T13:21:59.008Z</time>
      </trkpt>
      <trkpt lat="43.04696" lon="0.79666">
        <ele>541</ele>
        <time>2017-06-10T13:22:02.008Z</time>
      </trkpt>
      <trkpt lat="43.04702" lon="0.79675">
        <ele>541</ele>
        <time>2017-06-10T13:22:04.008Z</time>
      </trkpt>
      <trkpt lat="43.04708" lon="0.79686">
        <ele>541</ele>
        <time>2017-06-10T13:22:06.008Z</time>
      </trkpt>
      <trkpt lat="43.04716" lon="0.79696">
        <ele>541</ele>
        <time>2017-06-10T13:22:08.008Z</time>
      </trkpt>
      <trkpt lat="43.04724" lon="0.79708">
        <ele>541</ele>
        <time>2017-06-10T13:22:11.008Z</time>
      </trkpt>
      <trkpt lat="43.04731" lon="0.79717">
        <ele>541</ele>
        <time>2017-06-10T13:22:14.008Z</time>
      </trkpt>
      <trkpt lat="43.04739" lon="0.79726">
        <ele>541</ele>
        <time>2017-06-10T13:22:17.008Z</time>
      </trkpt>
      <trkpt lat="43.04745" lon="0.79735">
        <ele>541</ele>
        <time>2017-06-10T13:22:20.008Z</time>
      </trkpt>
      <trkpt lat="43.04752" lon="0.7974">
        <ele>541</ele>
        <time>2017-06-10T13:22:23.008Z</time>
      </trkpt>
      <trkpt lat="43.04758" lon="0.79739">
        <ele>541</ele>
        <time>2017-06-10T13:22:26.008Z</time>
      </trkpt>
      <trkpt lat="43.04763" lon="0.79742">
        <ele>541</ele>
        <time>2017-06-10T13:22:55.008Z</time>
      </trkpt>
      <trkpt lat="43.04766" lon="0.79753">
        <ele>540</ele>
        <time>2017-06-10T13:23:17.008Z</time>
      </trkpt>
      <trkpt lat="43.04767" lon="0.79768">
        <ele>542</ele>
        <time>2017-06-10T13:23:22.008Z</time>
      </trkpt>
      <trkpt lat="43.04768" lon="0.79783">
        <ele>542</ele>
        <time>2017-06-10T13:23:27.008Z</time>
      </trkpt>
      <trkpt lat="43.04772" lon="0.79794">
        <ele>544</ele>
        <time>2017-06-10T13:23:32.008Z</time>
      </trkpt>
      <trkpt lat="43.04776" lon="0.79801">
        <ele>544</ele>
        <time>2017-06-10T13:23:35.008Z</time>
      </trkpt>
      <trkpt lat="43.04785" lon="0.79809">
        <ele>545</ele>
        <time>2017-06-10T13:23:40.008Z</time>
      </trkpt>
      <trkpt lat="43.04795" lon="0.79818">
        <ele>547</ele>
        <time>2017-06-10T13:23:45.008Z</time>
      </trkpt>
      <trkpt lat="43.04805" lon="0.79825">
        <ele>547</ele>
        <time>2017-06-10T13:23:49.008Z</time>
      </trkpt>
      <trkpt lat="43.04814" lon="0.79835">
        <ele>548</ele>
        <time>2017-06-10T13:23:54.008Z</time>
      </trkpt>
      <trkpt lat="43.04823" lon="0.79845">
        <ele>548</ele>
        <time>2017-06-10T13:23:58.008Z</time>
      </trkpt>
      <trkpt lat="43.04832" lon="0.79853">
        <ele>551</ele>
        <time>2017-06-10T13:24:03.008Z</time>
      </trkpt>
      <trkpt lat="43.04841" lon="0.7986">
        <ele>552</ele>
        <time>2017-06-10T13:24:08.008Z</time>
      </trkpt>
      <trkpt lat="43.0485" lon="0.79867">
        <ele>553</ele>
        <time>2017-06-10T13:24:13.008Z</time>
      </trkpt>
      <trkpt lat="43.0486" lon="0.79877">
        <ele>554</ele>
        <time>2017-06-10T13:24:18.008Z</time>
      </trkpt>
      <trkpt lat="43.04869" lon="0.79885">
        <ele>555</ele>
        <time>2017-06-10T13:24:22.008Z</time>
      </trkpt>
      <trkpt lat="43.04879" lon="0.79893">
        <ele>556</ele>
        <time>2017-06-10T13:24:27.008Z</time>
      </trkpt>
      <trkpt lat="43.04887" lon="0.79901">
        <ele>556.208</ele>
        <time>2017-06-10T13:24:31.008Z</time>
      </trkpt>
      <trkpt lat="43.04895" lon="0.79908">
        <ele>557</ele>
        <time>2017-06-10T13:24:35.008Z</time>
      </trkpt>
      <trkpt lat="43.04903" lon="0.79915">
        <ele>557</ele>
        <time>2017-06-10T13:24:39.008Z</time>
      </trkpt>
      <trkpt lat="43.04911" lon="0.79921">
        <ele>558</ele>
        <time>2017-06-10T13:24:43.008Z</time>
      </trkpt>
      <trkpt lat="43.04918" lon="0.79927">
        <ele>558</ele>
        <time>2017-06-10T13:24:46.008Z</time>
      </trkpt>
      <trkpt lat="43.04921" lon="0.79932">
        <ele>558</ele>
        <time>2017-06-10T13:24:48.008Z</time>
      </trkpt>
      <trkpt lat="43.04925" lon="0.79938">
        <ele>558</ele>
        <time>2017-06-10T13:24:50.008Z</time>
      </trkpt>
      <trkpt lat="43.04929" lon="0.79943">
        <ele>559</ele>
        <time>2017-06-10T13:24:52.008Z</time>
      </trkpt>
      <trkpt lat="43.04934" lon="0.79947">
        <ele>559</ele>
        <time>2017-06-10T13:24:54.008Z</time>
      </trkpt>
      <trkpt lat="43.0494" lon="0.79956">
        <ele>559</ele>
        <time>2017-06-10T13:24:57.008Z</time>
      </trkpt>
      <trkpt lat="43.04947" lon="0.79964">
        <ele>559</ele>
        <time>2017-06-10T13:25:00.008Z</time>
      </trkpt>
      <trkpt lat="43.04955" lon="0.79977">
        <ele>559</ele>
        <time>2017-06-10T13:25:04.008Z</time>
      </trkpt>
      <trkpt lat="43.04959" lon="0.79989">
        <ele>559</ele>
        <time>2017-06-10T13:25:08.008Z</time>
      </trkpt>
      <trkpt lat="43.04962" lon="0.80003">
        <ele>561</ele>
        <time>2017-06-10T13:25:12.008Z</time>
      </trkpt>
      <trkpt lat="43.04964" lon="0.80015">
        <ele>561</ele>
        <time>2017-06-10T13:25:16.008Z</time>
      </trkpt>
      <trkpt lat="43.04967" lon="0.80027">
        <ele>560.792</ele>
        <time>2017-06-10T13:25:20.008Z</time>
      </trkpt>
      <trkpt lat="43.0497" lon="0.8004">
        <ele>562</ele>
        <time>2017-06-10T13:25:24.008Z</time>
      </trkpt>
      <trkpt lat="43.04971" lon="0.80056">
        <ele>562</ele>
        <time>2017-06-10T13:25:29.008Z</time>
      </trkpt>
      <trkpt lat="43.04972" lon="0.80072">
        <ele>564</ele>
        <time>2017-06-10T13:25:33.008Z</time>
      </trkpt>
      <trkpt lat="43.04971" lon="0.80086">
        <ele>563</ele>
        <time>2017-06-10T13:25:36.008Z</time>
      </trkpt>
      <trkpt lat="43.0497" lon="0.80103">
        <ele>563</ele>
        <time>2017-06-10T13:25:40.008Z</time>
      </trkpt>
      <trkpt lat="43.04969" lon="0.80114">
        <ele>565</ele>
        <time>2017-06-10T13:25:43.008Z</time>
      </trkpt>
      <trkpt lat="43.04969" lon="0.80129">
        <ele>565</ele>
        <time>2017-06-10T13:25:47.008Z</time>
      </trkpt>
      <trkpt lat="43.04968" lon="0.80143">
        <ele>565.208</ele>
        <time>2017-06-10T13:25:51.008Z</time>
      </trkpt>
      <trkpt lat="43.04966" lon="0.80156">
        <ele>566</ele>
        <time>2017-06-10T13:25:55.008Z</time>
      </trkpt>
      <trkpt lat="43.04964" lon="0.80169">
        <ele>566</ele>
        <time>2017-06-10T13:25:59.008Z</time>
      </trkpt>
      <trkpt lat="43.0496" lon="0.80183">
        <ele>568</ele>
        <time>2017-06-10T13:26:03.008Z</time>
      </trkpt>
      <trkpt lat="43.04959" lon="0.80197">
        <ele>568</ele>
        <time>2017-06-10T13:26:07.008Z</time>
      </trkpt>
      <trkpt lat="43.04956" lon="0.80212">
        <ele>568</ele>
        <time>2017-06-10T13:26:10.008Z</time>
      </trkpt>
      <trkpt lat="43.04954" lon="0.80226">
        <ele>568</ele>
        <time>2017-06-10T13:26:14.008Z</time>
      </trkpt>
      <trkpt lat="43.04952" lon="0.8024">
        <ele>568</ele>
        <time>2017-06-10T13:26:18.008Z</time>
      </trkpt>
      <trkpt lat="43.04949" lon="0.80253">
        <ele>568</ele>
        <time>2017-06-10T13:26:21.008Z</time>
      </trkpt>
      <trkpt lat="43.04948" lon="0.80266">
        <ele>568</ele>
        <time>2017-06-10T13:26:24.008Z</time>
      </trkpt>
      <trkpt lat="43.04946" lon="0.8028">
        <ele>568</ele>
        <time>2017-06-10T13:26:28.008Z</time>
      </trkpt>
      <trkpt lat="43.04939" lon="0.80291">
        <ele>567.376</ele>
        <time>2017-06-10T13:26:31.008Z</time>
      </trkpt>
      <trkpt lat="43.04934" lon="0.80303">
        <ele>565</ele>
        <time>2017-06-10T13:26:34.008Z</time>
      </trkpt>
      <trkpt lat="43.04939" lon="0.80318">
        <ele>563</ele>
        <time>2017-06-10T13:26:38.008Z</time>
      </trkpt>
      <trkpt lat="43.04938" lon="0.80334">
        <ele>562</ele>
        <time>2017-06-10T13:26:42.008Z</time>
      </trkpt>
      <trkpt lat="43.04935" lon="0.80347">
        <ele>562</ele>
        <time>2017-06-10T13:26:46.008Z</time>
      </trkpt>
      <trkpt lat="43.04935" lon="0.80358">
        <ele>562</ele>
        <time>2017-06-10T13:26:49.008Z</time>
      </trkpt>
      <trkpt lat="43.04932" lon="0.80371">
        <ele>561</ele>
        <time>2017-06-10T13:26:52.008Z</time>
      </trkpt>
      <trkpt lat="43.04928" lon="0.80387">
        <ele>561</ele>
        <time>2017-06-10T13:26:55.008Z</time>
      </trkpt>
      <trkpt lat="43.04924" lon="0.80403">
        <ele>561</ele>
        <time>2017-06-10T13:26:58.008Z</time>
      </trkpt>
      <trkpt lat="43.04919" lon="0.80418">
        <ele>560.584</ele>
        <time>2017-06-10T13:27:01.008Z</time>
      </trkpt>
      <trkpt lat="43.04915" lon="0.80431">
        <ele>559</ele>
        <time>2017-06-10T13:27:03.008Z</time>
      </trkpt>
      <trkpt lat="43.04911" lon="0.80444">
        <ele>559</ele>
        <time>2017-06-10T13:27:05.008Z</time>
      </trkpt>
      <trkpt lat="43.04904" lon="0.80462">
        <ele>559</ele>
        <time>2017-06-10T13:27:08.008Z</time>
      </trkpt>
      <trkpt lat="43.04898" lon="0.80479">
        <ele>557.792</ele>
        <time>2017-06-10T13:27:11.008Z</time>
      </trkpt>
      <trkpt lat="43.04891" lon="0.80496">
        <ele>557</ele>
        <time>2017-06-10T13:27:14.008Z</time>
      </trkpt>
      <trkpt lat="43.04886" lon="0.80508">
        <ele>557</ele>
        <time>2017-06-10T13:27:16.008Z</time>
      </trkpt>
      <trkpt lat="43.04877" lon="0.80523">
        <ele>556</ele>
        <time>2017-06-10T13:27:19.008Z</time>
      </trkpt>
      <trkpt lat="43.04867" lon="0.80536">
        <ele>554</ele>
        <time>2017-06-10T13:27:22.008Z</time>
      </trkpt>
      <trkpt lat="43.04856" lon="0.80547">
        <ele>554</ele>
        <time>2017-06-10T13:27:25.008Z</time>
      </trkpt>
      <trkpt lat="43.04848" lon="0.80557">
        <ele>549</ele>
        <time>2017-06-10T13:27:27.008Z</time>
      </trkpt>
      <trkpt lat="43.04839" lon="0.80569">
        <ele>549</ele>
        <time>2017-06-10T13:27:30.008Z</time>
      </trkpt>
      <trkpt lat="43.04829" lon="0.80577">
        <ele>547</ele>
        <time>2017-06-10T13:27:33.008Z</time>
      </trkpt>
      <trkpt lat="43.04815" lon="0.80582">
        <ele>545.792</ele>
        <time>2017-06-10T13:27:36.008Z</time>
      </trkpt>
      <trkpt lat="43.04801" lon="0.80585">
        <ele>542.792</ele>
        <time>2017-06-10T13:27:39.008Z</time>
      </trkpt>
      <trkpt lat="43.04786" lon="0.80587">
        <ele>540.792</ele>
        <time>2017-06-10T13:27:42.008Z</time>
      </trkpt>
      <trkpt lat="43.04776" lon="0.80588">
        <ele>538.792</ele>
        <time>2017-06-10T13:27:44.008Z</time>
      </trkpt>
      <trkpt lat="43.04764" lon="0.80589">
        <ele>537.792</ele>
        <time>2017-06-10T13:27:46.008Z</time>
      </trkpt>
      <trkpt lat="43.04754" lon="0.80588">
        <ele>536</ele>
        <time>2017-06-10T13:27:48.008Z</time>
      </trkpt>
      <trkpt lat="43.04743" lon="0.80589">
        <ele>534.792</ele>
        <time>2017-06-10T13:27:50.008Z</time>
      </trkpt>
      <trkpt lat="43.04731" lon="0.80586">
        <ele>532.792</ele>
        <time>2017-06-10T13:27:53.008Z</time>
      </trkpt>
      <trkpt lat="43.04716" lon="0.80582">
        <ele>529</ele>
        <time>2017-06-10T13:27:56.008Z</time>
      </trkpt>
      <trkpt lat="43.04702" lon="0.80579">
        <ele>529</ele>
        <time>2017-06-10T13:27:58.008Z</time>
      </trkpt>
      <trkpt lat="43.04688" lon="0.80576">
        <ele>528</ele>
        <time>2017-06-10T13:28:00.008Z</time>
      </trkpt>
      <trkpt lat="43.04677" lon="0.80571">
        <ele>528</ele>
        <time>2017-06-10T13:28:02.008Z</time>
      </trkpt>
      <trkpt lat="43.04668" lon="0.80563">
        <ele>528</ele>
        <time>2017-06-10T13:28:04.008Z</time>
      </trkpt>
      <trkpt lat="43.04658" lon="0.80552">
        <ele>527</ele>
        <time>2017-06-10T13:28:07.008Z</time>
      </trkpt>
      <trkpt lat="43.04651" lon="0.8054">
        <ele>526.792</ele>
        <time>2017-06-10T13:28:09.008Z</time>
      </trkpt>
      <trkpt lat="43.04644" lon="0.80529">
        <ele>525</ele>
        <time>2017-06-10T13:28:11.008Z</time>
      </trkpt>
      <trkpt lat="43.04637" lon="0.80519">
        <ele>525</ele>
        <time>2017-06-10T13:28:13.008Z</time>
      </trkpt>
      <trkpt lat="43.04629" lon="0.80502">
        <ele>525</ele>
        <time>2017-06-10T13:28:15.008Z</time>
      </trkpt>
      <trkpt lat="43.04619" lon="0.80483">
        <ele>522</ele>
        <time>2017-06-10T13:28:17.008Z</time>
      </trkpt>
      <trkpt lat="43.04612" lon="0.80463">
        <ele>522</ele>
        <time>2017-06-10T13:28:19.008Z</time>
      </trkpt>
      <trkpt lat="43.04605" lon="0.80441">
        <ele>521.376</ele>
        <time>2017-06-10T13:28:21.008Z</time>
      </trkpt>
      <trkpt lat="43.04598" lon="0.80424">
        <ele>517.792</ele>
        <time>2017-06-10T13:28:23.008Z</time>
      </trkpt>
      <trkpt lat="43.04591" lon="0.80408">
        <ele>516</ele>
        <time>2017-06-10T13:28:25.008Z</time>
      </trkpt>
      <trkpt lat="43.04582" lon="0.80404">
        <ele>514.792</ele>
        <time>2017-06-10T13:28:29.008Z</time>
      </trkpt>
      <trkpt lat="43.0458" lon="0.8042">
        <ele>513</ele>
        <time>2017-06-10T13:28:32.008Z</time>
      </trkpt>
      <trkpt lat="43.0458" lon="0.80435">
        <ele>511.792</ele>
        <time>2017-06-10T13:28:34.008Z</time>
      </trkpt>
      <trkpt lat="43.04579" lon="0.80454">
        <ele>509.792</ele>
        <time>2017-06-10T13:28:36.008Z</time>
      </trkpt>
      <trkpt lat="43.04578" lon="0.80473">
        <ele>507.792</ele>
        <time>2017-06-10T13:28:38.008Z</time>
      </trkpt>
      <trkpt lat="43.04577" lon="0.80491">
        <ele>505.792</ele>
        <time>2017-06-10T13:28:40.008Z</time>
      </trkpt>
      <trkpt lat="43.04578" lon="0.80509">
        <ele>505</ele>
        <time>2017-06-10T13:28:42.008Z</time>
      </trkpt>
      <trkpt lat="43.04578" lon="0.80528">
        <ele>503.792</ele>
        <time>2017-06-10T13:28:44.008Z</time>
      </trkpt>
      <trkpt lat="43.04578" lon="0.80548">
        <ele>502.792</ele>
        <time>2017-06-10T13:28:46.008Z</time>
      </trkpt>
      <trkpt lat="43.04579" lon="0.80568">
        <ele>500.792</ele>
        <time>2017-06-10T13:28:48.008Z</time>
      </trkpt>
      <trkpt lat="43.04581" lon="0.80585">
        <ele>499.208</ele>
        <time>2017-06-10T13:28:51.008Z</time>
      </trkpt>
      <trkpt lat="43.04588" lon="0.80597">
        <ele>501</ele>
        <time>2017-06-10T13:28:55.008Z</time>
      </trkpt>
      <trkpt lat="43.04596" lon="0.80604">
        <ele>501.208</ele>
        <time>2017-06-10T13:28:59.008Z</time>
      </trkpt>
      <trkpt lat="43.04605" lon="0.80608">
        <ele>503</ele>
        <time>2017-06-10T13:29:02.008Z</time>
      </trkpt>
      <trkpt lat="43.04611" lon="0.80614">
        <ele>503</ele>
        <time>2017-06-10T13:29:05.008Z</time>
      </trkpt>
      <trkpt lat="43.04621" lon="0.80622">
        <ele>503</ele>
        <time>2017-06-10T13:29:09.008Z</time>
      </trkpt>
      <trkpt lat="43.04632" lon="0.80628">
        <ele>504</ele>
        <time>2017-06-10T13:29:13.008Z</time>
      </trkpt>
      <trkpt lat="43.04641" lon="0.80631">
        <ele>504</ele>
        <time>2017-06-10T13:29:17.008Z</time>
      </trkpt>
      <trkpt lat="43.04653" lon="0.80634">
        <ele>504</ele>
        <time>2017-06-10T13:29:21.008Z</time>
      </trkpt>
      <trkpt lat="43.04664" lon="0.80629">
        <ele>504</ele>
        <time>2017-06-10T13:29:25.008Z</time>
      </trkpt>
      <trkpt lat="43.04675" lon="0.80623">
        <ele>504</ele>
        <time>2017-06-10T13:29:28.008Z</time>
      </trkpt>
      <trkpt lat="43.04686" lon="0.80626">
        <ele>504</ele>
        <time>2017-06-10T13:29:31.008Z</time>
      </trkpt>
      <trkpt lat="43.04698" lon="0.80631">
        <ele>503</ele>
        <time>2017-06-10T13:29:34.008Z</time>
      </trkpt>
      <trkpt lat="43.04709" lon="0.80637">
        <ele>503</ele>
        <time>2017-06-10T13:29:38.008Z</time>
      </trkpt>
      <trkpt lat="43.04719" lon="0.80643">
        <ele>504</ele>
        <time>2017-06-10T13:29:42.008Z</time>
      </trkpt>
      <trkpt lat="43.0473" lon="0.80649">
        <ele>504</ele>
        <time>2017-06-10T13:29:45.008Z</time>
      </trkpt>
      <trkpt lat="43.04742" lon="0.80653">
        <ele>504</ele>
        <time>2017-06-10T13:29:49.008Z</time>
      </trkpt>
      <trkpt lat="43.04752" lon="0.80657">
        <ele>505</ele>
        <time>2017-06-10T13:29:52.008Z</time>
      </trkpt>
      <trkpt lat="43.04762" lon="0.8066">
        <ele>505</ele>
        <time>2017-06-10T13:29:55.008Z</time>
      </trkpt>
      <trkpt lat="43.04772" lon="0.80661">
        <ele>505</ele>
        <time>2017-06-10T13:29:59.008Z</time>
      </trkpt>
      <trkpt lat="43.04783" lon="0.8066">
        <ele>504</ele>
        <time>2017-06-10T13:30:07.008Z</time>
      </trkpt>
      <trkpt lat="43.04794" lon="0.8066">
        <ele>504</ele>
        <time>2017-06-10T13:30:16.008Z</time>
      </trkpt>
      <trkpt lat="43.04805" lon="0.8066">
        <ele>503</ele>
        <time>2017-06-10T13:30:20.008Z</time>
      </trkpt>
      <trkpt lat="43.04818" lon="0.80658">
        <ele>503</ele>
        <time>2017-06-10T13:30:23.008Z</time>
      </trkpt>
      <trkpt lat="43.04829" lon="0.80659">
        <ele>502</ele>
        <time>2017-06-10T13:30:26.008Z</time>
      </trkpt>
      <trkpt lat="43.04841" lon="0.80656">
        <ele>502</ele>
        <time>2017-06-10T13:30:29.008Z</time>
      </trkpt>
      <trkpt lat="43.04852" lon="0.80653">
        <ele>500</ele>
        <time>2017-06-10T13:30:32.008Z</time>
      </trkpt>
      <trkpt lat="43.04865" lon="0.80651">
        <ele>500</ele>
        <time>2017-06-10T13:30:35.008Z</time>
      </trkpt>
      <trkpt lat="43.04875" lon="0.80651">
        <ele>500</ele>
        <time>2017-06-10T13:30:38.008Z</time>
      </trkpt>
      <trkpt lat="43.04885" lon="0.8065">
        <ele>500</ele>
        <time>2017-06-10T13:30:41.008Z</time>
      </trkpt>
      <trkpt lat="43.04897" lon="0.80647">
        <ele>500</ele>
        <time>2017-06-10T13:30:45.008Z</time>
      </trkpt>
      <trkpt lat="43.0491" lon="0.8064">
        <ele>499</ele>
        <time>2017-06-10T13:30:49.008Z</time>
      </trkpt>
      <trkpt lat="43.04921" lon="0.80635">
        <ele>496</ele>
        <time>2017-06-10T13:30:53.008Z</time>
      </trkpt>
      <trkpt lat="43.04931" lon="0.80625">
        <ele>493</ele>
        <time>2017-06-10T13:30:57.008Z</time>
      </trkpt>
      <trkpt lat="43.04945" lon="0.8062">
        <ele>493</ele>
        <time>2017-06-10T13:31:00.008Z</time>
      </trkpt>
      <trkpt lat="43.04955" lon="0.80617">
        <ele>490</ele>
        <time>2017-06-10T13:31:02.008Z</time>
      </trkpt>
      <trkpt lat="43.04966" lon="0.80619">
        <ele>488</ele>
        <time>2017-06-10T13:31:05.008Z</time>
      </trkpt>
      <trkpt lat="43.04968" lon="0.80633">
        <ele>486</ele>
        <time>2017-06-10T13:31:13.008Z</time>
      </trkpt>
      <trkpt lat="43.04964" lon="0.80643">
        <ele>486</ele>
        <time>2017-06-10T13:31:28.008Z</time>
      </trkpt>
      <trkpt lat="43.04958" lon="0.80654">
        <ele>483</ele>
        <time>2017-06-10T13:31:34.008Z</time>
      </trkpt>
      <trkpt lat="43.04953" lon="0.80668">
        <ele>481</ele>
        <time>2017-06-10T13:31:39.008Z</time>
      </trkpt>
      <trkpt lat="43.04948" lon="0.80679">
        <ele>477.376</ele>
        <time>2017-06-10T13:31:42.008Z</time>
      </trkpt>
      <trkpt lat="43.04941" lon="0.8069">
        <ele>473.792</ele>
        <time>2017-06-10T13:31:45.008Z</time>
      </trkpt>
      <trkpt lat="43.04935" lon="0.80699">
        <ele>472</ele>
        <time>2017-06-10T13:31:47.008Z</time>
      </trkpt>
      <trkpt lat="43.04934" lon="0.80704">
        <ele>472</ele>
        <time>2017-06-10T13:32:19.008Z</time>
      </trkpt>
      <trkpt lat="43.0494" lon="0.80707">
        <ele>471</ele>
        <time>2017-06-10T13:32:26.008Z</time>
      </trkpt>
      <trkpt lat="43.04945" lon="0.80709">
        <ele>471</ele>
        <time>2017-06-10T13:32:28.008Z</time>
      </trkpt>
      <trkpt lat="43.04949" lon="0.80712">
        <ele>471</ele>
        <time>2017-06-10T13:32:30.008Z</time>
      </trkpt>
      <trkpt lat="43.04954" lon="0.80716">
        <ele>474</ele>
        <time>2017-06-10T13:32:33.008Z</time>
      </trkpt>
      <trkpt lat="43.04959" lon="0.80717">
        <ele>474.416</ele>
        <time>2017-06-10T13:32:36.008Z</time>
      </trkpt>
      <trkpt lat="43.04965" lon="0.80714">
        <ele>476</ele>
        <time>2017-06-10T13:32:39.008Z</time>
      </trkpt>
      <trkpt lat="43.04969" lon="0.80708">
        <ele>476</ele>
        <time>2017-06-10T13:32:42.008Z</time>
      </trkpt>
      <trkpt lat="43.04976" lon="0.80703">
        <ele>476</ele>
        <time>2017-06-10T13:32:45.008Z</time>
      </trkpt>
      <trkpt lat="43.04982" lon="0.807">
        <ele>476</ele>
        <time>2017-06-10T13:32:47.008Z</time>
      </trkpt>
      <trkpt lat="43.04988" lon="0.80697">
        <ele>476</ele>
        <time>2017-06-10T13:32:49.008Z</time>
      </trkpt>
      <trkpt lat="43.04996" lon="0.80693">
        <ele>475.792</ele>
        <time>2017-06-10T13:32:51.008Z</time>
      </trkpt>
      <trkpt lat="43.05" lon="0.80691">
        <ele>475</ele>
        <time>2017-06-10T13:32:52.008Z</time>
      </trkpt>
      <trkpt lat="43.05004" lon="0.8069">
        <ele>474.792</ele>
        <time>2017-06-10T13:32:53.008Z</time>
      </trkpt>
      <trkpt lat="43.05013" lon="0.8069">
        <ele>474</ele>
        <time>2017-06-10T13:32:55.008Z</time>
      </trkpt>
      <trkpt lat="43.05024" lon="0.80696">
        <ele>474</ele>
        <time>2017-06-10T13:32:58.008Z</time>
      </trkpt>
      <trkpt lat="43.05036" lon="0.80703">
        <ele>472.96</ele>
        <time>2017-06-10T13:33:01.008Z</time>
      </trkpt>
      <trkpt lat="43.05049" lon="0.80713">
        <ele>468</ele>
        <time>2017-06-10T13:33:04.008Z</time>
      </trkpt>
      <trkpt lat="43.05061" lon="0.80722">
        <ele>467</ele>
        <time>2017-06-10T13:33:07.008Z</time>
      </trkpt>
      <trkpt lat="43.0507" lon="0.8073">
        <ele>465.792</ele>
        <time>2017-06-10T13:33:09.008Z</time>
      </trkpt>
      <trkpt lat="43.05081" lon="0.80739">
        <ele>464.584</ele>
        <time>2017-06-10T13:33:11.008Z</time>
      </trkpt>
      <trkpt lat="43.05093" lon="0.80748">
        <ele>462.792</ele>
        <time>2017-06-10T13:33:13.008Z</time>
      </trkpt>
      <trkpt lat="43.05105" lon="0.80758">
        <ele>461</ele>
        <time>2017-06-10T13:33:15.008Z</time>
      </trkpt>
      <trkpt lat="43.05115" lon="0.80769">
        <ele>461</ele>
        <time>2017-06-10T13:33:17.008Z</time>
      </trkpt>
      <trkpt lat="43.05127" lon="0.80781">
        <ele>461</ele>
        <time>2017-06-10T13:33:19.008Z</time>
      </trkpt>
      <trkpt lat="43.05138" lon="0.80792">
        <ele>461</ele>
        <time>2017-06-10T13:33:21.008Z</time>
      </trkpt>
      <trkpt lat="43.05147" lon="0.80804">
        <ele>461</ele>
        <time>2017-06-10T13:33:23.008Z</time>
      </trkpt>
      <trkpt lat="43.05156" lon="0.80816">
        <ele>461</ele>
        <time>2017-06-10T13:33:26.008Z</time>
      </trkpt>
      <trkpt lat="43.05168" lon="0.80821">
        <ele>461</ele>
        <time>2017-06-10T13:33:29.008Z</time>
      </trkpt>
      <trkpt lat="43.05178" lon="0.80819">
        <ele>461</ele>
        <time>2017-06-10T13:33:32.008Z</time>
      </trkpt>
      <trkpt lat="43.05187" lon="0.80816">
        <ele>461</ele>
        <time>2017-06-10T13:33:35.008Z</time>
      </trkpt>
      <trkpt lat="43.05194" lon="0.80814">
        <ele>461</ele>
        <time>2017-06-10T13:33:38.008Z</time>
      </trkpt>
      <trkpt lat="43.05201" lon="0.80809">
        <ele>461.208</ele>
        <time>2017-06-10T13:33:41.008Z</time>
      </trkpt>
      <trkpt lat="43.05204" lon="0.808">
        <ele>462</ele>
        <time>2017-06-10T13:33:44.008Z</time>
      </trkpt>
      <trkpt lat="43.05205" lon="0.8079">
        <ele>462</ele>
        <time>2017-06-10T13:33:46.008Z</time>
      </trkpt>
      <trkpt lat="43.05207" lon="0.8078">
        <ele>462</ele>
        <time>2017-06-10T13:33:48.008Z</time>
      </trkpt>
      <trkpt lat="43.0521" lon="0.80769">
        <ele>462</ele>
        <time>2017-06-10T13:33:50.008Z</time>
      </trkpt>
      <trkpt lat="43.05211" lon="0.80754">
        <ele>461</ele>
        <time>2017-06-10T13:33:53.008Z</time>
      </trkpt>
      <trkpt lat="43.05207" lon="0.80742">
        <ele>461</ele>
        <time>2017-06-10T13:33:55.008Z</time>
      </trkpt>
      <trkpt lat="43.05204" lon="0.80728">
        <ele>461</ele>
        <time>2017-06-10T13:33:57.008Z</time>
      </trkpt>
      <trkpt lat="43.05201" lon="0.8071">
        <ele>461</ele>
        <time>2017-06-10T13:33:59.008Z</time>
      </trkpt>
      <trkpt lat="43.05201" lon="0.80695">
        <ele>460.584</ele>
        <time>2017-06-10T13:34:01.008Z</time>
      </trkpt>
      <trkpt lat="43.05201" lon="0.80682">
        <ele>459</ele>
        <time>2017-06-10T13:34:03.008Z</time>
      </trkpt>
      <trkpt lat="43.05202" lon="0.80667">
        <ele>459</ele>
        <time>2017-06-10T13:34:05.008Z</time>
      </trkpt>
      <trkpt lat="43.05202" lon="0.80653">
        <ele>457</ele>
        <time>2017-06-10T13:34:07.008Z</time>
      </trkpt>
      <trkpt lat="43.052" lon="0.8064">
        <ele>457</ele>
        <time>2017-06-10T13:34:09.008Z</time>
      </trkpt>
      <trkpt lat="43.05197" lon="0.80627">
        <ele>456.168</ele>
        <time>2017-06-10T13:34:11.008Z</time>
      </trkpt>
      <trkpt lat="43.05193" lon="0.80609">
        <ele>452.792</ele>
        <time>2017-06-10T13:34:13.008Z</time>
      </trkpt>
      <trkpt lat="43.05192" lon="0.80591">
        <ele>450.5999948283</ele>
        <time>2017-06-10T13:34:15.008Z</time>
      </trkpt>
      <trkpt lat="43.05191" lon="0.80575">
        <ele>447.792</ele>
        <time>2017-06-10T13:34:17.008Z</time>
      </trkpt>
      <trkpt lat="43.05187" lon="0.80558">
        <ele>447</ele>
        <time>2017-06-10T13:34:19.008Z</time>
      </trkpt>
      <trkpt lat="43.05181" lon="0.80543">
        <ele>446.792</ele>
        <time>2017-06-10T13:34:21.008Z</time>
      </trkpt>
      <trkpt lat="43.05174" lon="0.80531">
        <ele>445.792</ele>
        <time>2017-06-10T13:34:23.008Z</time>
      </trkpt>
      <trkpt lat="43.0517" lon="0.80521">
        <ele>445.208</ele>
        <time>2017-06-10T13:34:30.008Z</time>
      </trkpt>
      <trkpt lat="43.05177" lon="0.80517">
        <ele>444</ele>
        <time>2017-06-10T13:34:42.008Z</time>
      </trkpt>
      <trkpt lat="43.05186" lon="0.8051">
        <ele>444</ele>
        <time>2017-06-10T13:34:45.008Z</time>
      </trkpt>
      <trkpt lat="43.05198" lon="0.80504">
        <ele>444</ele>
        <time>2017-06-10T13:34:49.008Z</time>
      </trkpt>
      <trkpt lat="43.05207" lon="0.80497">
        <ele>442.96</ele>
        <time>2017-06-10T13:34:51.008Z</time>
      </trkpt>
      <trkpt lat="43.05218" lon="0.80491">
        <ele>435.792</ele>
        <time>2017-06-10T13:34:53.008Z</time>
      </trkpt>
      <trkpt lat="43.05229" lon="0.80488">
        <ele>434.792</ele>
        <time>2017-06-10T13:34:55.008Z</time>
      </trkpt>
      <trkpt lat="43.05241" lon="0.80492">
        <ele>433</ele>
        <time>2017-06-10T13:34:58.008Z</time>
      </trkpt>
      <trkpt lat="43.0525" lon="0.80493">
        <ele>432.584</ele>
        <time>2017-06-10T13:35:01.008Z</time>
      </trkpt>
      <trkpt lat="43.05261" lon="0.80498">
        <ele>430</ele>
        <time>2017-06-10T13:35:04.008Z</time>
      </trkpt>
      <trkpt lat="43.05273" lon="0.805">
        <ele>428</ele>
        <time>2017-06-10T13:35:07.008Z</time>
      </trkpt>
      <trkpt lat="43.05282" lon="0.80498">
        <ele>428</ele>
        <time>2017-06-10T13:35:09.008Z</time>
      </trkpt>
      <trkpt lat="43.05293" lon="0.80495">
        <ele>427</ele>
        <time>2017-06-10T13:35:11.008Z</time>
      </trkpt>
      <trkpt lat="43.05303" lon="0.80491">
        <ele>427</ele>
        <time>2017-06-10T13:35:13.008Z</time>
      </trkpt>
      <trkpt lat="43.05315" lon="0.80486">
        <ele>427</ele>
        <time>2017-06-10T13:35:15.008Z</time>
      </trkpt>
      <trkpt lat="43.05328" lon="0.80481">
        <ele>426</ele>
        <time>2017-06-10T13:35:17.008Z</time>
      </trkpt>
      <trkpt lat="43.05339" lon="0.80477">
        <ele>426</ele>
        <time>2017-06-10T13:35:19.008Z</time>
      </trkpt>
      <trkpt lat="43.0535" lon="0.8047">
        <ele>425</ele>
        <time>2017-06-10T13:35:22.008Z</time>
      </trkpt>
      <trkpt lat="43.05355" lon="0.8046">
        <ele>425</ele>
        <time>2017-06-10T13:35:25.008Z</time>
      </trkpt>
      <trkpt lat="43.05352" lon="0.80448">
        <ele>424</ele>
        <time>2017-06-10T13:35:28.008Z</time>
      </trkpt>
      <trkpt lat="43.05351" lon="0.80441">
        <ele>424</ele>
        <time>2017-06-10T13:35:30.008Z</time>
      </trkpt>
      <trkpt lat="43.05349" lon="0.80433">
        <ele>425</ele>
        <time>2017-06-10T13:35:32.008Z</time>
      </trkpt>
      <trkpt lat="43.05348" lon="0.80426">
        <ele>425</ele>
        <time>2017-06-10T13:35:34.008Z</time>
      </trkpt>
      <trkpt lat="43.05347" lon="0.80417">
        <ele>425</ele>
        <time>2017-06-10T13:35:36.008Z</time>
      </trkpt>
      <trkpt lat="43.05345" lon="0.80408">
        <ele>425</ele>
        <time>2017-06-10T13:35:38.008Z</time>
      </trkpt>
      <trkpt lat="43.05344" lon="0.804">
        <ele>425</ele>
        <time>2017-06-10T13:35:40.008Z</time>
      </trkpt>
      <trkpt lat="43.05344" lon="0.80392">
        <ele>425</ele>
        <time>2017-06-10T13:35:42.008Z</time>
      </trkpt>
      <trkpt lat="43.05343" lon="0.8038">
        <ele>425</ele>
        <time>2017-06-10T13:35:45.008Z</time>
      </trkpt>
      <trkpt lat="43.05343" lon="0.80371">
        <ele>425</ele>
        <time>2017-06-10T13:35:47.008Z</time>
      </trkpt>
      <trkpt lat="43.05343" lon="0.80361">
        <ele>425</ele>
        <time>2017-06-10T13:35:49.008Z</time>
      </trkpt>
      <trkpt lat="43.05342" lon="0.80352">
        <ele>425.416</ele>
        <time>2017-06-10T13:35:51.008Z</time>
      </trkpt>
      <trkpt lat="43.05342" lon="0.80343">
        <ele>427</ele>
        <time>2017-06-10T13:35:53.008Z</time>
      </trkpt>
      <trkpt lat="43.05342" lon="0.80334">
        <ele>427</ele>
        <time>2017-06-10T13:35:55.008Z</time>
      </trkpt>
      <trkpt lat="43.05341" lon="0.80324">
        <ele>427</ele>
        <time>2017-06-10T13:35:57.008Z</time>
      </trkpt>
      <trkpt lat="43.05341" lon="0.80319">
        <ele>427</ele>
        <time>2017-06-10T13:35:58.008Z</time>
      </trkpt>
      <trkpt lat="43.0534" lon="0.80308">
        <ele>427</ele>
        <time>2017-06-10T13:36:00.008Z</time>
      </trkpt>
      <trkpt lat="43.05339" lon="0.80298">
        <ele>430</ele>
        <time>2017-06-10T13:36:02.008Z</time>
      </trkpt>
      <trkpt lat="43.05338" lon="0.80287">
        <ele>430</ele>
        <time>2017-06-10T13:36:04.008Z</time>
      </trkpt>
      <trkpt lat="43.05337" lon="0.80282">
        <ele>430</ele>
        <time>2017-06-10T13:36:05.008Z</time>
      </trkpt>
      <trkpt lat="43.05336" lon="0.80277">
        <ele>430.208</ele>
        <time>2017-06-10T13:36:06.008Z</time>
      </trkpt>
      <trkpt lat="43.05335" lon="0.80266">
        <ele>431</ele>
        <time>2017-06-10T13:36:08.008Z</time>
      </trkpt>
      <trkpt lat="43.05334" lon="0.80256">
        <ele>431</ele>
        <time>2017-06-10T13:36:10.008Z</time>
      </trkpt>
      <trkpt lat="43.05332" lon="0.80246">
        <ele>431</ele>
        <time>2017-06-10T13:36:12.008Z</time>
      </trkpt>
      <trkpt lat="43.0533" lon="0.80235">
        <ele>431</ele>
        <time>2017-06-10T13:36:14.008Z</time>
      </trkpt>
      <trkpt lat="43.0533" lon="0.8023">
        <ele>431</ele>
        <time>2017-06-10T13:36:15.008Z</time>
      </trkpt>
      <trkpt lat="43.05328" lon="0.80219">
        <ele>431</ele>
        <time>2017-06-10T13:36:17.008Z</time>
      </trkpt>
      <trkpt lat="43.05326" lon="0.80209">
        <ele>431</ele>
        <time>2017-06-10T13:36:19.008Z</time>
      </trkpt>
      <trkpt lat="43.05325" lon="0.80204">
        <ele>431</ele>
        <time>2017-06-10T13:36:20.008Z</time>
      </trkpt>
      <trkpt lat="43.05324" lon="0.80198">
        <ele>431</ele>
        <time>2017-06-10T13:36:21.008Z</time>
      </trkpt>
      <trkpt lat="43.05323" lon="0.80193">
        <ele>431</ele>
        <time>2017-06-10T13:36:22.008Z</time>
      </trkpt>
      <trkpt lat="43.05322" lon="0.80187">
        <ele>431</ele>
        <time>2017-06-10T13:36:23.008Z</time>
      </trkpt>
      <trkpt lat="43.0532" lon="0.80182">
        <ele>431</ele>
        <time>2017-06-10T13:36:24.008Z</time>
      </trkpt>
      <trkpt lat="43.05319" lon="0.80176">
        <ele>431</ele>
        <time>2017-06-10T13:36:25.008Z</time>
      </trkpt>
      <trkpt lat="43.05317" lon="0.80171">
        <ele>431</ele>
        <time>2017-06-10T13:36:26.008Z</time>
      </trkpt>
      <trkpt lat="43.05315" lon="0.80165">
        <ele>431</ele>
        <time>2017-06-10T13:36:27.008Z</time>
      </trkpt>
      <trkpt lat="43.05313" lon="0.8016">
        <ele>431</ele>
        <time>2017-06-10T13:36:28.008Z</time>
      </trkpt>
      <trkpt lat="43.05311" lon="0.80155">
        <ele>431</ele>
        <time>2017-06-10T13:36:29.008Z</time>
      </trkpt>
      <trkpt lat="43.05308" lon="0.8015">
        <ele>431</ele>
        <time>2017-06-10T13:36:30.008Z</time>
      </trkpt>
      <trkpt lat="43.05306" lon="0.80145">
        <ele>431.208</ele>
        <time>2017-06-10T13:36:31.008Z</time>
      </trkpt>
      <trkpt lat="43.05303" lon="0.80141">
        <ele>432</ele>
        <time>2017-06-10T13:36:32.008Z</time>
      </trkpt>
      <trkpt lat="43.05301" lon="0.80136">
        <ele>432</ele>
        <time>2017-06-10T13:36:33.008Z</time>
      </trkpt>
      <trkpt lat="43.05298" lon="0.80131">
        <ele>432</ele>
        <time>2017-06-10T13:36:34.008Z</time>
      </trkpt>
      <trkpt lat="43.05296" lon="0.80126">
        <ele>432</ele>
        <time>2017-06-10T13:36:35.008Z</time>
      </trkpt>
      <trkpt lat="43.05293" lon="0.80121">
        <ele>432</ele>
        <time>2017-06-10T13:36:36.008Z</time>
      </trkpt>
      <trkpt lat="43.05291" lon="0.80116">
        <ele>432</ele>
        <time>2017-06-10T13:36:37.008Z</time>
      </trkpt>
      <trkpt lat="43.05288" lon="0.80111">
        <ele>432</ele>
        <time>2017-06-10T13:36:38.008Z</time>
      </trkpt>
      <trkpt lat="43.05286" lon="0.80106">
        <ele>432</ele>
        <time>2017-06-10T13:36:39.008Z</time>
      </trkpt>
      <trkpt lat="43.05284" lon="0.80101">
        <ele>432</ele>
        <time>2017-06-10T13:36:40.008Z</time>
      </trkpt>
      <trkpt lat="43.05282" lon="0.80096">
        <ele>432.416</ele>
        <time>2017-06-10T13:36:41.008Z</time>
      </trkpt>
      <trkpt lat="43.0528" lon="0.8009">
        <ele>434</ele>
        <time>2017-06-10T13:36:42.008Z</time>
      </trkpt>
      <trkpt lat="43.05278" lon="0.80085">
        <ele>434</ele>
        <time>2017-06-10T13:36:43.008Z</time>
      </trkpt>
      <trkpt lat="43.05276" lon="0.8008">
        <ele>434</ele>
        <time>2017-06-10T13:36:44.008Z</time>
      </trkpt>
      <trkpt lat="43.05274" lon="0.80074">
        <ele>434</ele>
        <time>2017-06-10T13:36:45.008Z</time>
      </trkpt>
      <trkpt lat="43.05273" lon="0.80069">
        <ele>434</ele>
        <time>2017-06-10T13:36:46.008Z</time>
      </trkpt>
      <trkpt lat="43.05271" lon="0.80063">
        <ele>434</ele>
        <time>2017-06-10T13:36:47.008Z</time>
      </trkpt>
      <trkpt lat="43.0527" lon="0.80057">
        <ele>434</ele>
        <time>2017-06-10T13:36:48.008Z</time>
      </trkpt>
      <trkpt lat="43.05268" lon="0.80051">
        <ele>434</ele>
        <time>2017-06-10T13:36:49.008Z</time>
      </trkpt>
      <trkpt lat="43.05267" lon="0.80045">
        <ele>434</ele>
        <time>2017-06-10T13:36:50.008Z</time>
      </trkpt>
      <trkpt lat="43.05266" lon="0.80039">
        <ele>433.792</ele>
        <time>2017-06-10T13:36:51.008Z</time>
      </trkpt>
      <trkpt lat="43.05264" lon="0.80033">
        <ele>433</ele>
        <time>2017-06-10T13:36:52.008Z</time>
      </trkpt>
      <trkpt lat="43.05263" lon="0.80026">
        <ele>433</ele>
        <time>2017-06-10T13:36:53.008Z</time>
      </trkpt>
      <trkpt lat="43.05262" lon="0.8002">
        <ele>433</ele>
        <time>2017-06-10T13:36:54.008Z</time>
      </trkpt>
      <trkpt lat="43.05261" lon="0.80013">
        <ele>433</ele>
        <time>2017-06-10T13:36:55.008Z</time>
      </trkpt>
      <trkpt lat="43.0526" lon="0.80007">
        <ele>433</ele>
        <time>2017-06-10T13:36:56.008Z</time>
      </trkpt>
      <trkpt lat="43.05259" lon="0.8">
        <ele>433</ele>
        <time>2017-06-10T13:36:57.008Z</time>
      </trkpt>
      <trkpt lat="43.05258" lon="0.79993">
        <ele>433</ele>
        <time>2017-06-10T13:36:58.008Z</time>
      </trkpt>
      <trkpt lat="43.05256" lon="0.79987">
        <ele>433</ele>
        <time>2017-06-10T13:36:59.008Z</time>
      </trkpt>
      <trkpt lat="43.05255" lon="0.7998">
        <ele>433</ele>
        <time>2017-06-10T13:37:00.008Z</time>
      </trkpt>
      <trkpt lat="43.05254" lon="0.79974">
        <ele>433.208</ele>
        <time>2017-06-10T13:37:01.008Z</time>
      </trkpt>
      <trkpt lat="43.05252" lon="0.79967">
        <ele>434</ele>
        <time>2017-06-10T13:37:02.008Z</time>
      </trkpt>
      <trkpt lat="43.05251" lon="0.79961">
        <ele>434</ele>
        <time>2017-06-10T13:37:03.008Z</time>
      </trkpt>
      <trkpt lat="43.0525" lon="0.79955">
        <ele>434</ele>
        <time>2017-06-10T13:37:04.008Z</time>
      </trkpt>
      <trkpt lat="43.05248" lon="0.79949">
        <ele>434</ele>
        <time>2017-06-10T13:37:05.008Z</time>
      </trkpt>
      <trkpt lat="43.05247" lon="0.79942">
        <ele>434</ele>
        <time>2017-06-10T13:37:06.008Z</time>
      </trkpt>
      <trkpt lat="43.05246" lon="0.79936">
        <ele>433.792</ele>
        <time>2017-06-10T13:37:07.008Z</time>
      </trkpt>
      <trkpt lat="43.05244" lon="0.7993">
        <ele>433</ele>
        <time>2017-06-10T13:37:08.008Z</time>
      </trkpt>
      <trkpt lat="43.05242" lon="0.79924">
        <ele>433</ele>
        <time>2017-06-10T13:37:09.008Z</time>
      </trkpt>
      <trkpt lat="43.05241" lon="0.79918">
        <ele>433</ele>
        <time>2017-06-10T13:37:10.008Z</time>
      </trkpt>
      <trkpt lat="43.05239" lon="0.79912">
        <ele>433.208</ele>
        <time>2017-06-10T13:37:11.008Z</time>
      </trkpt>
      <trkpt lat="43.05236" lon="0.79901">
        <ele>434</ele>
        <time>2017-06-10T13:37:13.008Z</time>
      </trkpt>
      <trkpt lat="43.05235" lon="0.79895">
        <ele>434</ele>
        <time>2017-06-10T13:37:14.008Z</time>
      </trkpt>
      <trkpt lat="43.05233" lon="0.79889">
        <ele>434</ele>
        <time>2017-06-10T13:37:15.008Z</time>
      </trkpt>
      <trkpt lat="43.05232" lon="0.79883">
        <ele>433.792</ele>
        <time>2017-06-10T13:37:16.008Z</time>
      </trkpt>
      <trkpt lat="43.05229" lon="0.79872">
        <ele>433</ele>
        <time>2017-06-10T13:37:18.008Z</time>
      </trkpt>
      <trkpt lat="43.05225" lon="0.79861">
        <ele>433</ele>
        <time>2017-06-10T13:37:20.008Z</time>
      </trkpt>
      <trkpt lat="43.0522" lon="0.79849">
        <ele>434.792</ele>
        <time>2017-06-10T13:37:23.008Z</time>
      </trkpt>
      <trkpt lat="43.05216" lon="0.79836">
        <ele>434</ele>
        <time>2017-06-10T13:37:26.008Z</time>
      </trkpt>
      <trkpt lat="43.05213" lon="0.79826">
        <ele>434</ele>
        <time>2017-06-10T13:37:28.008Z</time>
      </trkpt>
      <trkpt lat="43.0521" lon="0.79815">
        <ele>434</ele>
        <time>2017-06-10T13:37:30.008Z</time>
      </trkpt>
      <trkpt lat="43.05206" lon="0.79805">
        <ele>435</ele>
        <time>2017-06-10T13:37:32.008Z</time>
      </trkpt>
      <trkpt lat="43.05203" lon="0.79796">
        <ele>435</ele>
        <time>2017-06-10T13:37:34.008Z</time>
      </trkpt>
      <trkpt lat="43.05201" lon="0.79788">
        <ele>435</ele>
        <time>2017-06-10T13:37:36.008Z</time>
      </trkpt>
      <trkpt lat="43.05198" lon="0.79778">
        <ele>435</ele>
        <time>2017-06-10T13:37:38.008Z</time>
      </trkpt>
      <trkpt lat="43.05196" lon="0.79769">
        <ele>435</ele>
        <time>2017-06-10T13:37:40.008Z</time>
      </trkpt>
      <trkpt lat="43.05195" lon="0.79764">
        <ele>435.208</ele>
        <time>2017-06-10T13:37:41.008Z</time>
      </trkpt>
      <trkpt lat="43.05191" lon="0.79755">
        <ele>436</ele>
        <time>2017-06-10T13:37:43.008Z</time>
      </trkpt>
      <trkpt lat="43.0519" lon="0.79747">
        <ele>436</ele>
        <time>2017-06-10T13:37:45.008Z</time>
      </trkpt>
      <trkpt lat="43.05188" lon="0.79738">
        <ele>436</ele>
        <time>2017-06-10T13:37:47.008Z</time>
      </trkpt>
      <trkpt lat="43.05186" lon="0.7973">
        <ele>436</ele>
        <time>2017-06-10T13:37:49.008Z</time>
      </trkpt>
      <trkpt lat="43.05184" lon="0.79718">
        <ele>438</ele>
        <time>2017-06-10T13:37:52.008Z</time>
      </trkpt>
      <trkpt lat="43.0518" lon="0.79706">
        <ele>438</ele>
        <time>2017-06-10T13:37:55.008Z</time>
      </trkpt>
      <trkpt lat="43.05177" lon="0.79697">
        <ele>440</ele>
        <time>2017-06-10T13:37:58.008Z</time>
      </trkpt>
      <trkpt lat="43.05172" lon="0.79688">
        <ele>440</ele>
        <time>2017-06-10T13:38:00.008Z</time>
      </trkpt>
      <trkpt lat="43.05167" lon="0.7968">
        <ele>441</ele>
        <time>2017-06-10T13:38:02.008Z</time>
      </trkpt>
      <trkpt lat="43.05162" lon="0.79673">
        <ele>441</ele>
        <time>2017-06-10T13:38:04.008Z</time>
      </trkpt>
      <trkpt lat="43.05158" lon="0.79667">
        <ele>441.416</ele>
        <time>2017-06-10T13:38:06.008Z</time>
      </trkpt>
      <trkpt lat="43.05154" lon="0.7966">
        <ele>442</ele>
        <time>2017-06-10T13:38:08.008Z</time>
      </trkpt>
      <trkpt lat="43.0515" lon="0.79654">
        <ele>442</ele>
        <time>2017-06-10T13:38:10.008Z</time>
      </trkpt>
      <trkpt lat="43.05147" lon="0.79646">
        <ele>444</ele>
        <time>2017-06-10T13:38:12.008Z</time>
      </trkpt>
      <trkpt lat="43.05142" lon="0.79636">
        <ele>444</ele>
        <time>2017-06-10T13:38:15.008Z</time>
      </trkpt>
      <trkpt lat="43.05139" lon="0.79624">
        <ele>445</ele>
        <time>2017-06-10T13:38:18.008Z</time>
      </trkpt>
      <trkpt lat="43.05135" lon="0.79614">
        <ele>445</ele>
        <time>2017-06-10T13:38:20.008Z</time>
      </trkpt>
      <trkpt lat="43.05133" lon="0.79605">
        <ele>444</ele>
        <time>2017-06-10T13:38:22.008Z</time>
      </trkpt>
      <trkpt lat="43.0513" lon="0.79596">
        <ele>444</ele>
        <time>2017-06-10T13:38:24.008Z</time>
      </trkpt>
      <trkpt lat="43.05128" lon="0.79587">
        <ele>444</ele>
        <time>2017-06-10T13:38:26.008Z</time>
      </trkpt>
      <trkpt lat="43.05127" lon="0.79578">
        <ele>444</ele>
        <time>2017-06-10T13:38:28.008Z</time>
      </trkpt>
      <trkpt lat="43.05125" lon="0.79569">
        <ele>444</ele>
        <time>2017-06-10T13:38:30.008Z</time>
      </trkpt>
      <trkpt lat="43.05123" lon="0.7956">
        <ele>446</ele>
        <time>2017-06-10T13:38:32.008Z</time>
      </trkpt>
      <trkpt lat="43.05122" lon="0.79551">
        <ele>446</ele>
        <time>2017-06-10T13:38:34.008Z</time>
      </trkpt>
      <trkpt lat="43.05121" lon="0.79542">
        <ele>445.792</ele>
        <time>2017-06-10T13:38:36.008Z</time>
      </trkpt>
      <trkpt lat="43.05119" lon="0.79534">
        <ele>445</ele>
        <time>2017-06-10T13:38:38.008Z</time>
      </trkpt>
      <trkpt lat="43.05118" lon="0.79524">
        <ele>445</ele>
        <time>2017-06-10T13:38:40.008Z</time>
      </trkpt>
      <trkpt lat="43.05117" lon="0.79513">
        <ele>445</ele>
        <time>2017-06-10T13:38:42.008Z</time>
      </trkpt>
      <trkpt lat="43.05116" lon="0.79501">
        <ele>445</ele>
        <time>2017-06-10T13:38:44.008Z</time>
      </trkpt>
      <trkpt lat="43.05115" lon="0.79494">
        <ele>445</ele>
        <time>2017-06-10T13:38:45.008Z</time>
      </trkpt>
      <trkpt lat="43.05114" lon="0.79487">
        <ele>445</ele>
        <time>2017-06-10T13:38:46.008Z</time>
      </trkpt>
      <trkpt lat="43.05113" lon="0.7948">
        <ele>445</ele>
        <time>2017-06-10T13:38:47.008Z</time>
      </trkpt>
      <trkpt lat="43.05112" lon="0.79472">
        <ele>445</ele>
        <time>2017-06-10T13:38:48.008Z</time>
      </trkpt>
      <trkpt lat="43.0511" lon="0.79464">
        <ele>445</ele>
        <time>2017-06-10T13:38:49.008Z</time>
      </trkpt>
      <trkpt lat="43.05109" lon="0.79456">
        <ele>445</ele>
        <time>2017-06-10T13:38:50.008Z</time>
      </trkpt>
      <trkpt lat="43.05106" lon="0.79448">
        <ele>444.792</ele>
        <time>2017-06-10T13:38:51.008Z</time>
      </trkpt>
      <trkpt lat="43.05102" lon="0.7943">
        <ele>444</ele>
        <time>2017-06-10T13:38:53.008Z</time>
      </trkpt>
      <trkpt lat="43.051" lon="0.7942">
        <ele>444</ele>
        <time>2017-06-10T13:38:54.008Z</time>
      </trkpt>
      <trkpt lat="43.05098" lon="0.79411">
        <ele>443.792</ele>
        <time>2017-06-10T13:38:55.008Z</time>
      </trkpt>
      <trkpt lat="43.05097" lon="0.79402">
        <ele>443</ele>
        <time>2017-06-10T13:38:56.008Z</time>
      </trkpt>
      <trkpt lat="43.05095" lon="0.79393">
        <ele>443</ele>
        <time>2017-06-10T13:38:57.008Z</time>
      </trkpt>
      <trkpt lat="43.05093" lon="0.79384">
        <ele>443</ele>
        <time>2017-06-10T13:38:58.008Z</time>
      </trkpt>
      <trkpt lat="43.05091" lon="0.79375">
        <ele>443</ele>
        <time>2017-06-10T13:38:59.008Z</time>
      </trkpt>
      <trkpt lat="43.05089" lon="0.79366">
        <ele>443</ele>
        <time>2017-06-10T13:39:00.008Z</time>
      </trkpt>
      <trkpt lat="43.05087" lon="0.79356">
        <ele>442.584</ele>
        <time>2017-06-10T13:39:01.008Z</time>
      </trkpt>
      <trkpt lat="43.05085" lon="0.79348">
        <ele>441</ele>
        <time>2017-06-10T13:39:02.008Z</time>
      </trkpt>
      <trkpt lat="43.05084" lon="0.79339">
        <ele>441</ele>
        <time>2017-06-10T13:39:03.008Z</time>
      </trkpt>
      <trkpt lat="43.05083" lon="0.7933">
        <ele>441</ele>
        <time>2017-06-10T13:39:04.008Z</time>
      </trkpt>
      <trkpt lat="43.05082" lon="0.79321">
        <ele>441</ele>
        <time>2017-06-10T13:39:05.008Z</time>
      </trkpt>
      <trkpt lat="43.05081" lon="0.79313">
        <ele>441</ele>
        <time>2017-06-10T13:39:06.008Z</time>
      </trkpt>
      <trkpt lat="43.0508" lon="0.79304">
        <ele>441</ele>
        <time>2017-06-10T13:39:07.008Z</time>
      </trkpt>
      <trkpt lat="43.05079" lon="0.79296">
        <ele>441</ele>
        <time>2017-06-10T13:39:08.008Z</time>
      </trkpt>
      <trkpt lat="43.05079" lon="0.79288">
        <ele>441</ele>
        <time>2017-06-10T13:39:09.008Z</time>
      </trkpt>
      <trkpt lat="43.05079" lon="0.7928">
        <ele>441</ele>
        <time>2017-06-10T13:39:10.008Z</time>
      </trkpt>
      <trkpt lat="43.05078" lon="0.79272">
        <ele>441.208</ele>
        <time>2017-06-10T13:39:11.008Z</time>
      </trkpt>
      <trkpt lat="43.05078" lon="0.79264">
        <ele>442</ele>
        <time>2017-06-10T13:39:12.008Z</time>
      </trkpt>
      <trkpt lat="43.05078" lon="0.79256">
        <ele>442</ele>
        <time>2017-06-10T13:39:13.008Z</time>
      </trkpt>
      <trkpt lat="43.05078" lon="0.79249">
        <ele>442</ele>
        <time>2017-06-10T13:39:14.008Z</time>
      </trkpt>
      <trkpt lat="43.05077" lon="0.79241">
        <ele>442</ele>
        <time>2017-06-10T13:39:15.008Z</time>
      </trkpt>
      <trkpt lat="43.05077" lon="0.79234">
        <ele>442</ele>
        <time>2017-06-10T13:39:16.008Z</time>
      </trkpt>
      <trkpt lat="43.05076" lon="0.79227">
        <ele>441.792</ele>
        <time>2017-06-10T13:39:17.008Z</time>
      </trkpt>
      <trkpt lat="43.05075" lon="0.7922">
        <ele>441</ele>
        <time>2017-06-10T13:39:18.008Z</time>
      </trkpt>
      <trkpt lat="43.05075" lon="0.79213">
        <ele>441</ele>
        <time>2017-06-10T13:39:19.008Z</time>
      </trkpt>
      <trkpt lat="43.05074" lon="0.79206">
        <ele>441</ele>
        <time>2017-06-10T13:39:20.008Z</time>
      </trkpt>
      <trkpt lat="43.05073" lon="0.792">
        <ele>441.416</ele>
        <time>2017-06-10T13:39:21.008Z</time>
      </trkpt>
      <trkpt lat="43.05072" lon="0.79193">
        <ele>443</ele>
        <time>2017-06-10T13:39:22.008Z</time>
      </trkpt>
      <trkpt lat="43.05072" lon="0.79187">
        <ele>443</ele>
        <time>2017-06-10T13:39:23.008Z</time>
      </trkpt>
      <trkpt lat="43.05071" lon="0.7918">
        <ele>443</ele>
        <time>2017-06-10T13:39:24.008Z</time>
      </trkpt>
      <trkpt lat="43.0507" lon="0.79173">
        <ele>443</ele>
        <time>2017-06-10T13:39:25.008Z</time>
      </trkpt>
      <trkpt lat="43.05069" lon="0.79167">
        <ele>443</ele>
        <time>2017-06-10T13:39:26.008Z</time>
      </trkpt>
      <trkpt lat="43.05069" lon="0.7916">
        <ele>443</ele>
        <time>2017-06-10T13:39:27.008Z</time>
      </trkpt>
      <trkpt lat="43.05068" lon="0.79153">
        <ele>443</ele>
        <time>2017-06-10T13:39:28.008Z</time>
      </trkpt>
      <trkpt lat="43.05067" lon="0.79146">
        <ele>443</ele>
        <time>2017-06-10T13:39:29.008Z</time>
      </trkpt>
      <trkpt lat="43.05066" lon="0.79139">
        <ele>443</ele>
        <time>2017-06-10T13:39:30.008Z</time>
      </trkpt>
      <trkpt lat="43.05065" lon="0.79132">
        <ele>443</ele>
        <time>2017-06-10T13:39:31.008Z</time>
      </trkpt>
      <trkpt lat="43.05064" lon="0.79125">
        <ele>443</ele>
        <time>2017-06-10T13:39:32.008Z</time>
      </trkpt>
      <trkpt lat="43.05063" lon="0.79118">
        <ele>443</ele>
        <time>2017-06-10T13:39:33.008Z</time>
      </trkpt>
      <trkpt lat="43.05062" lon="0.79112">
        <ele>443</ele>
        <time>2017-06-10T13:39:34.008Z</time>
      </trkpt>
      <trkpt lat="43.05061" lon="0.79105">
        <ele>443</ele>
        <time>2017-06-10T13:39:35.008Z</time>
      </trkpt>
      <trkpt lat="43.0506" lon="0.79098">
        <ele>443</ele>
        <time>2017-06-10T13:39:36.008Z</time>
      </trkpt>
      <trkpt lat="43.05059" lon="0.79091">
        <ele>443</ele>
        <time>2017-06-10T13:39:37.008Z</time>
      </trkpt>
      <trkpt lat="43.05057" lon="0.79084">
        <ele>443</ele>
        <time>2017-06-10T13:39:38.008Z</time>
      </trkpt>
      <trkpt lat="43.05056" lon="0.79077">
        <ele>443</ele>
        <time>2017-06-10T13:39:39.008Z</time>
      </trkpt>
      <trkpt lat="43.05054" lon="0.7907">
        <ele>443</ele>
        <time>2017-06-10T13:39:40.008Z</time>
      </trkpt>
      <trkpt lat="43.05053" lon="0.79063">
        <ele>443</ele>
        <time>2017-06-10T13:39:41.008Z</time>
      </trkpt>
      <trkpt lat="43.05051" lon="0.79056">
        <ele>443</ele>
        <time>2017-06-10T13:39:42.008Z</time>
      </trkpt>
      <trkpt lat="43.05049" lon="0.79048">
        <ele>443</ele>
        <time>2017-06-10T13:39:43.008Z</time>
      </trkpt>
      <trkpt lat="43.05048" lon="0.79041">
        <ele>443</ele>
        <time>2017-06-10T13:39:44.008Z</time>
      </trkpt>
      <trkpt lat="43.05046" lon="0.79034">
        <ele>443</ele>
        <time>2017-06-10T13:39:45.008Z</time>
      </trkpt>
      <trkpt lat="43.05044" lon="0.79021">
        <ele>443</ele>
        <time>2017-06-10T13:39:47.008Z</time>
      </trkpt>
      <trkpt lat="43.05041" lon="0.79007">
        <ele>443</ele>
        <time>2017-06-10T13:39:49.008Z</time>
      </trkpt>
      <trkpt lat="43.05038" lon="0.78993">
        <ele>443</ele>
        <time>2017-06-10T13:39:51.008Z</time>
      </trkpt>
      <trkpt lat="43.05036" lon="0.78981">
        <ele>442.792</ele>
        <time>2017-06-10T13:39:53.008Z</time>
      </trkpt>
      <trkpt lat="43.05034" lon="0.78967">
        <ele>442</ele>
        <time>2017-06-10T13:39:55.008Z</time>
      </trkpt>
      <trkpt lat="43.05032" lon="0.78951">
        <ele>442</ele>
        <time>2017-06-10T13:39:57.008Z</time>
      </trkpt>
      <trkpt lat="43.05031" lon="0.78934">
        <ele>442</ele>
        <time>2017-06-10T13:39:59.008Z</time>
      </trkpt>
      <trkpt lat="43.05037" lon="0.78919">
        <ele>441.376</ele>
        <time>2017-06-10T13:40:01.008Z</time>
      </trkpt>
      <trkpt lat="43.05045" lon="0.7891">
        <ele>439</ele>
        <time>2017-06-10T13:40:03.008Z</time>
      </trkpt>
      <trkpt lat="43.05051" lon="0.78897">
        <ele>438</ele>
        <time>2017-06-10T13:40:07.008Z</time>
      </trkpt>
      <trkpt lat="43.05049" lon="0.78888">
        <ele>438</ele>
        <time>2017-06-10T13:40:09.008Z</time>
      </trkpt>
      <trkpt lat="43.05045" lon="0.78877">
        <ele>438</ele>
        <time>2017-06-10T13:40:11.008Z</time>
      </trkpt>
      <trkpt lat="43.05043" lon="0.78872">
        <ele>438</ele>
        <time>2017-06-10T13:40:12.008Z</time>
      </trkpt>
      <trkpt lat="43.05039" lon="0.78861">
        <ele>438</ele>
        <time>2017-06-10T13:40:14.008Z</time>
      </trkpt>
      <trkpt lat="43.05036" lon="0.78856">
        <ele>438</ele>
        <time>2017-06-10T13:40:15.008Z</time>
      </trkpt>
      <trkpt lat="43.05034" lon="0.7885">
        <ele>438</ele>
        <time>2017-06-10T13:40:16.008Z</time>
      </trkpt>
      <trkpt lat="43.05032" lon="0.78844">
        <ele>438</ele>
        <time>2017-06-10T13:40:17.008Z</time>
      </trkpt>
      <trkpt lat="43.0503" lon="0.78838">
        <ele>438</ele>
        <time>2017-06-10T13:40:18.008Z</time>
      </trkpt>
      <trkpt lat="43.05029" lon="0.78832">
        <ele>438</ele>
        <time>2017-06-10T13:40:19.008Z</time>
      </trkpt>
      <trkpt lat="43.05027" lon="0.78826">
        <ele>438</ele>
        <time>2017-06-10T13:40:20.008Z</time>
      </trkpt>
      <trkpt lat="43.05025" lon="0.78821">
        <ele>438.208</ele>
        <time>2017-06-10T13:40:21.008Z</time>
      </trkpt>
      <trkpt lat="43.05023" lon="0.78815">
        <ele>439</ele>
        <time>2017-06-10T13:40:22.008Z</time>
      </trkpt>
      <trkpt lat="43.05021" lon="0.7881">
        <ele>439</ele>
        <time>2017-06-10T13:40:23.008Z</time>
      </trkpt>
      <trkpt lat="43.05019" lon="0.78804">
        <ele>439</ele>
        <time>2017-06-10T13:40:24.008Z</time>
      </trkpt>
      <trkpt lat="43.05017" lon="0.78798">
        <ele>439</ele>
        <time>2017-06-10T13:40:25.008Z</time>
      </trkpt>
      <trkpt lat="43.05015" lon="0.78792">
        <ele>439</ele>
        <time>2017-06-10T13:40:26.008Z</time>
      </trkpt>
      <trkpt lat="43.05013" lon="0.78786">
        <ele>439</ele>
        <time>2017-06-10T13:40:27.008Z</time>
      </trkpt>
      <trkpt lat="43.05011" lon="0.78779">
        <ele>438.792</ele>
        <time>2017-06-10T13:40:28.008Z</time>
      </trkpt>
      <trkpt lat="43.0501" lon="0.78772">
        <ele>438</ele>
        <time>2017-06-10T13:40:29.008Z</time>
      </trkpt>
      <trkpt lat="43.05008" lon="0.78764">
        <ele>438</ele>
        <time>2017-06-10T13:40:30.008Z</time>
      </trkpt>
      <trkpt lat="43.05006" lon="0.78757">
        <ele>438</ele>
        <time>2017-06-10T13:40:31.008Z</time>
      </trkpt>
      <trkpt lat="43.05004" lon="0.7875">
        <ele>438</ele>
        <time>2017-06-10T13:40:32.008Z</time>
      </trkpt>
      <trkpt lat="43.05003" lon="0.78742">
        <ele>438</ele>
        <time>2017-06-10T13:40:33.008Z</time>
      </trkpt>
      <trkpt lat="43.05001" lon="0.78735">
        <ele>438</ele>
        <time>2017-06-10T13:40:34.008Z</time>
      </trkpt>
      <trkpt lat="43.05" lon="0.78727">
        <ele>438</ele>
        <time>2017-06-10T13:40:35.008Z</time>
      </trkpt>
      <trkpt lat="43.04999" lon="0.7872">
        <ele>438</ele>
        <time>2017-06-10T13:40:36.008Z</time>
      </trkpt>
      <trkpt lat="43.04997" lon="0.78712">
        <ele>438</ele>
        <time>2017-06-10T13:40:37.008Z</time>
      </trkpt>
      <trkpt lat="43.04996" lon="0.78705">
        <ele>438</ele>
        <time>2017-06-10T13:40:38.008Z</time>
      </trkpt>
      <trkpt lat="43.04995" lon="0.78697">
        <ele>438</ele>
        <time>2017-06-10T13:40:39.008Z</time>
      </trkpt>
      <trkpt lat="43.04993" lon="0.78689">
        <ele>438</ele>
        <time>2017-06-10T13:40:40.008Z</time>
      </trkpt>
      <trkpt lat="43.04991" lon="0.78682">
        <ele>438</ele>
        <time>2017-06-10T13:40:41.008Z</time>
      </trkpt>
      <trkpt lat="43.0499" lon="0.78674">
        <ele>438</ele>
        <time>2017-06-10T13:40:42.008Z</time>
      </trkpt>
      <trkpt lat="43.04988" lon="0.78667">
        <ele>438</ele>
        <time>2017-06-10T13:40:43.008Z</time>
      </trkpt>
      <trkpt lat="43.04987" lon="0.78659">
        <ele>438</ele>
        <time>2017-06-10T13:40:44.008Z</time>
      </trkpt>
      <trkpt lat="43.04986" lon="0.78652">
        <ele>438</ele>
        <time>2017-06-10T13:40:45.008Z</time>
      </trkpt>
      <trkpt lat="43.04985" lon="0.78644">
        <ele>438</ele>
        <time>2017-06-10T13:40:46.008Z</time>
      </trkpt>
      <trkpt lat="43.04983" lon="0.78636">
        <ele>438</ele>
        <time>2017-06-10T13:40:47.008Z</time>
      </trkpt>
      <trkpt lat="43.04982" lon="0.78629">
        <ele>438</ele>
        <time>2017-06-10T13:40:48.008Z</time>
      </trkpt>
      <trkpt lat="43.04981" lon="0.78621">
        <ele>438</ele>
        <time>2017-06-10T13:40:49.008Z</time>
      </trkpt>
      <trkpt lat="43.0498" lon="0.78613">
        <ele>438</ele>
        <time>2017-06-10T13:40:50.008Z</time>
      </trkpt>
      <trkpt lat="43.04979" lon="0.78605">
        <ele>438</ele>
        <time>2017-06-10T13:40:51.008Z</time>
      </trkpt>
      <trkpt lat="43.04978" lon="0.78597">
        <ele>438</ele>
        <time>2017-06-10T13:40:52.008Z</time>
      </trkpt>
      <trkpt lat="43.04977" lon="0.78589">
        <ele>437.792</ele>
        <time>2017-06-10T13:40:53.008Z</time>
      </trkpt>
      <trkpt lat="43.04976" lon="0.78581">
        <ele>437</ele>
        <time>2017-06-10T13:40:54.008Z</time>
      </trkpt>
      <trkpt lat="43.04975" lon="0.78573">
        <ele>437</ele>
        <time>2017-06-10T13:40:55.008Z</time>
      </trkpt>
      <trkpt lat="43.04974" lon="0.78565">
        <ele>437</ele>
        <time>2017-06-10T13:40:56.008Z</time>
      </trkpt>
      <trkpt lat="43.04973" lon="0.78556">
        <ele>437</ele>
        <time>2017-06-10T13:40:57.008Z</time>
      </trkpt>
      <trkpt lat="43.04972" lon="0.78548">
        <ele>437</ele>
        <time>2017-06-10T13:40:58.008Z</time>
      </trkpt>
      <trkpt lat="43.04971" lon="0.7854">
        <ele>437</ele>
        <time>2017-06-10T13:40:59.008Z</time>
      </trkpt>
      <trkpt lat="43.0497" lon="0.78531">
        <ele>437</ele>
        <time>2017-06-10T13:41:00.008Z</time>
      </trkpt>
      <trkpt lat="43.04969" lon="0.78523">
        <ele>436.584</ele>
        <time>2017-06-10T13:41:01.008Z</time>
      </trkpt>
      <trkpt lat="43.04969" lon="0.78514">
        <ele>434.792</ele>
        <time>2017-06-10T13:41:02.008Z</time>
      </trkpt>
      <trkpt lat="43.04968" lon="0.78506">
        <ele>434</ele>
        <time>2017-06-10T13:41:03.008Z</time>
      </trkpt>
      <trkpt lat="43.04967" lon="0.78497">
        <ele>434</ele>
        <time>2017-06-10T13:41:04.008Z</time>
      </trkpt>
      <trkpt lat="43.04966" lon="0.78489">
        <ele>434</ele>
        <time>2017-06-10T13:41:05.008Z</time>
      </trkpt>
      <trkpt lat="43.04965" lon="0.78481">
        <ele>434</ele>
        <time>2017-06-10T13:41:06.008Z</time>
      </trkpt>
      <trkpt lat="43.04964" lon="0.78472">
        <ele>434</ele>
        <time>2017-06-10T13:41:07.008Z</time>
      </trkpt>
      <trkpt lat="43.04963" lon="0.78464">
        <ele>434</ele>
        <time>2017-06-10T13:41:08.008Z</time>
      </trkpt>
      <trkpt lat="43.04963" lon="0.78456">
        <ele>434</ele>
        <time>2017-06-10T13:41:09.008Z</time>
      </trkpt>
      <trkpt lat="43.04962" lon="0.78447">
        <ele>434</ele>
        <time>2017-06-10T13:41:10.008Z</time>
      </trkpt>
      <trkpt lat="43.04962" lon="0.78439">
        <ele>433.792</ele>
        <time>2017-06-10T13:41:11.008Z</time>
      </trkpt>
      <trkpt lat="43.04961" lon="0.7843">
        <ele>433</ele>
        <time>2017-06-10T13:41:12.008Z</time>
      </trkpt>
      <trkpt lat="43.0496" lon="0.78422">
        <ele>433</ele>
        <time>2017-06-10T13:41:13.008Z</time>
      </trkpt>
      <trkpt lat="43.04959" lon="0.78413">
        <ele>433</ele>
        <time>2017-06-10T13:41:14.008Z</time>
      </trkpt>
      <trkpt lat="43.04958" lon="0.78404">
        <ele>433</ele>
        <time>2017-06-10T13:41:15.008Z</time>
      </trkpt>
      <trkpt lat="43.04958" lon="0.78396">
        <ele>433</ele>
        <time>2017-06-10T13:41:16.008Z</time>
      </trkpt>
      <trkpt lat="43.04957" lon="0.78387">
        <ele>433</ele>
        <time>2017-06-10T13:41:17.008Z</time>
      </trkpt>
      <trkpt lat="43.04957" lon="0.78379">
        <ele>433</ele>
        <time>2017-06-10T13:41:18.008Z</time>
      </trkpt>
      <trkpt lat="43.04957" lon="0.7837">
        <ele>433</ele>
        <time>2017-06-10T13:41:19.008Z</time>
      </trkpt>
      <trkpt lat="43.04956" lon="0.78362">
        <ele>433</ele>
        <time>2017-06-10T13:41:20.008Z</time>
      </trkpt>
      <trkpt lat="43.04956" lon="0.78355">
        <ele>432.584</ele>
        <time>2017-06-10T13:41:21.008Z</time>
      </trkpt>
      <trkpt lat="43.04955" lon="0.78349">
        <ele>431</ele>
        <time>2017-06-10T13:41:22.008Z</time>
      </trkpt>
      <trkpt lat="43.04955" lon="0.78344">
        <ele>431</ele>
        <time>2017-06-10T13:41:23.008Z</time>
      </trkpt>
      <trkpt lat="43.04952" lon="0.78341">
        <ele>431</ele>
        <time>2017-06-10T13:41:24.008Z</time>
      </trkpt>
      <trkpt lat="43.04949" lon="0.7834">
        <ele>431</ele>
        <time>2017-06-10T13:41:25.008Z</time>
      </trkpt>
      <trkpt lat="43.04945" lon="0.7834">
        <ele>431</ele>
        <time>2017-06-10T13:41:26.008Z</time>
      </trkpt>
      <trkpt lat="43.04941" lon="0.78341">
        <ele>431</ele>
        <time>2017-06-10T13:41:27.008Z</time>
      </trkpt>
      <trkpt lat="43.04937" lon="0.78342">
        <ele>431</ele>
        <time>2017-06-10T13:41:28.008Z</time>
      </trkpt>
      <trkpt lat="43.04933" lon="0.78343">
        <ele>431</ele>
        <time>2017-06-10T13:41:29.008Z</time>
      </trkpt>
      <trkpt lat="43.04928" lon="0.78344">
        <ele>431</ele>
        <time>2017-06-10T13:41:30.008Z</time>
      </trkpt>
      <trkpt lat="43.04924" lon="0.78344">
        <ele>431.208</ele>
        <time>2017-06-10T13:41:31.008Z</time>
      </trkpt>
      <trkpt lat="43.0492" lon="0.78345">
        <ele>432</ele>
        <time>2017-06-10T13:41:32.008Z</time>
      </trkpt>
      <trkpt lat="43.04915" lon="0.78346">
        <ele>432</ele>
        <time>2017-06-10T13:41:33.008Z</time>
      </trkpt>
      <trkpt lat="43.04911" lon="0.78347">
        <ele>432</ele>
        <time>2017-06-10T13:41:34.008Z</time>
      </trkpt>
      <trkpt lat="43.04907" lon="0.78348">
        <ele>432</ele>
        <time>2017-06-10T13:41:35.008Z</time>
      </trkpt>
      <trkpt lat="43.04902" lon="0.78348">
        <ele>432</ele>
        <time>2017-06-10T13:41:36.008Z</time>
      </trkpt>
      <trkpt lat="43.04898" lon="0.78349">
        <ele>431.792</ele>
        <time>2017-06-10T13:41:37.008Z</time>
      </trkpt>
      <trkpt lat="43.04894" lon="0.78349">
        <ele>431</ele>
        <time>2017-06-10T13:41:38.008Z</time>
      </trkpt>
      <trkpt lat="43.0489" lon="0.7835">
        <ele>431</ele>
        <time>2017-06-10T13:41:39.008Z</time>
      </trkpt>
      <trkpt lat="43.04885" lon="0.78349">
        <ele>431</ele>
        <time>2017-06-10T13:41:40.008Z</time>
      </trkpt>
      <trkpt lat="43.04881" lon="0.78349">
        <ele>431.208</ele>
        <time>2017-06-10T13:41:41.008Z</time>
      </trkpt>
      <trkpt lat="43.04877" lon="0.78349">
        <ele>432</ele>
        <time>2017-06-10T13:41:42.008Z</time>
      </trkpt>
      <trkpt lat="43.04873" lon="0.78349">
        <ele>432</ele>
        <time>2017-06-10T13:41:43.008Z</time>
      </trkpt>
      <trkpt lat="43.04869" lon="0.7835">
        <ele>432</ele>
        <time>2017-06-10T13:41:44.008Z</time>
      </trkpt>
      <trkpt lat="43.04865" lon="0.7835">
        <ele>432</ele>
        <time>2017-06-10T13:41:45.008Z</time>
      </trkpt>
      <trkpt lat="43.04862" lon="0.78349">
        <ele>432</ele>
        <time>2017-06-10T13:41:46.008Z</time>
      </trkpt>
      <trkpt lat="43.04858" lon="0.7834">
        <ele>432</ele>
        <time>2017-06-10T13:41:48.008Z</time>
      </trkpt>
      <trkpt lat="43.04859" lon="0.78335">
        <ele>432</ele>
        <time>2017-06-10T13:41:49.008Z</time>
      </trkpt>
      <trkpt lat="43.0486" lon="0.78329">
        <ele>432</ele>
        <time>2017-06-10T13:41:50.008Z</time>
      </trkpt>
      <trkpt lat="43.04861" lon="0.78324">
        <ele>432.208</ele>
        <time>2017-06-10T13:41:51.008Z</time>
      </trkpt>
      <trkpt lat="43.04862" lon="0.78319">
        <ele>433</ele>
        <time>2017-06-10T13:41:52.008Z</time>
      </trkpt>
      <trkpt lat="43.04864" lon="0.78313">
        <ele>433</ele>
        <time>2017-06-10T13:41:53.008Z</time>
      </trkpt>
      <trkpt lat="43.04865" lon="0.78308">
        <ele>433</ele>
        <time>2017-06-10T13:41:54.008Z</time>
      </trkpt>
      <trkpt lat="43.04867" lon="0.78302">
        <ele>432.792</ele>
        <time>2017-06-10T13:41:55.008Z</time>
      </trkpt>
      <trkpt lat="43.04868" lon="0.78296">
        <ele>432</ele>
        <time>2017-06-10T13:41:56.008Z</time>
      </trkpt>
      <trkpt lat="43.04869" lon="0.7829">
        <ele>432</ele>
        <time>2017-06-10T13:41:57.008Z</time>
      </trkpt>
      <trkpt lat="43.04871" lon="0.78284">
        <ele>432</ele>
        <time>2017-06-10T13:41:58.008Z</time>
      </trkpt>
      <trkpt lat="43.04872" lon="0.78278">
        <ele>432</ele>
        <time>2017-06-10T13:41:59.008Z</time>
      </trkpt>
      <trkpt lat="43.04874" lon="0.78272">
        <ele>432</ele>
        <time>2017-06-10T13:42:00.008Z</time>
      </trkpt>
      <trkpt lat="43.04875" lon="0.78265">
        <ele>431.792</ele>
        <time>2017-06-10T13:42:01.008Z</time>
      </trkpt>
      <trkpt lat="43.04876" lon="0.78259">
        <ele>431</ele>
        <time>2017-06-10T13:42:02.008Z</time>
      </trkpt>
      <trkpt lat="43.04877" lon="0.78252">
        <ele>431</ele>
        <time>2017-06-10T13:42:03.008Z</time>
      </trkpt>
      <trkpt lat="43.04879" lon="0.78246">
        <ele>431</ele>
        <time>2017-06-10T13:42:04.008Z</time>
      </trkpt>
      <trkpt lat="43.04883" lon="0.78243">
        <ele>431</ele>
        <time>2017-06-10T13:42:05.008Z</time>
      </trkpt>
      <trkpt lat="43.04887" lon="0.7824">
        <ele>431</ele>
        <time>2017-06-10T13:42:06.008Z</time>
      </trkpt>
      <trkpt lat="43.04891" lon="0.78236">
        <ele>431</ele>
        <time>2017-06-10T13:42:07.008Z</time>
      </trkpt>
      <trkpt lat="43.04895" lon="0.78232">
        <ele>431</ele>
        <time>2017-06-10T13:42:08.008Z</time>
      </trkpt>
      <trkpt lat="43.04898" lon="0.78227">
        <ele>431</ele>
        <time>2017-06-10T13:42:09.008Z</time>
      </trkpt>
      <trkpt lat="43.04901" lon="0.78221">
        <ele>431</ele>
        <time>2017-06-10T13:42:10.008Z</time>
      </trkpt>
      <trkpt lat="43.04904" lon="0.78215">
        <ele>430.584</ele>
        <time>2017-06-10T13:42:11.008Z</time>
      </trkpt>
      <trkpt lat="43.04908" lon="0.78209">
        <ele>429</ele>
        <time>2017-06-10T13:42:12.008Z</time>
      </trkpt>
      <trkpt lat="43.04911" lon="0.78204">
        <ele>429</ele>
        <time>2017-06-10T13:42:13.008Z</time>
      </trkpt>
      <trkpt lat="43.04917" lon="0.78196">
        <ele>429</ele>
        <time>2017-06-10T13:42:15.008Z</time>
      </trkpt>
      <trkpt lat="43.04925" lon="0.78195">
        <ele>429</ele>
        <time>2017-06-10T13:42:17.008Z</time>
      </trkpt>
      <trkpt lat="43.04933" lon="0.78192">
        <ele>429</ele>
        <time>2017-06-10T13:42:20.008Z</time>
      </trkpt>
      <trkpt lat="43.04932" lon="0.78174">
        <ele>420.584</ele>
        <time>2017-06-10T13:42:23.008Z</time>
      </trkpt>
      <trkpt lat="43.04933" lon="0.78159">
        <ele>417.584</ele>
        <time>2017-06-10T13:42:25.008Z</time>
      </trkpt>
      <trkpt lat="43.04935" lon="0.78149">
        <ele>415</ele>
        <time>2017-06-10T13:42:27.008Z</time>
      </trkpt>
      <trkpt lat="43.04934" lon="0.78138">
        <ele>414</ele>
        <time>2017-06-10T13:42:31.008Z</time>
      </trkpt>
      <trkpt lat="43.04925" lon="0.78131">
        <ele>414.792</ele>
        <time>2017-06-10T13:42:34.008Z</time>
      </trkpt>
      <trkpt lat="43.04917" lon="0.78123">
        <ele>412.79405875345</ele>
        <time>2017-06-10T13:42:36.008Z</time>
      </trkpt>
      <trkpt lat="43.04912" lon="0.78119">
        <ele>412</ele>
        <time>2017-06-10T13:42:37.008Z</time>
      </trkpt>
      <trkpt lat="43.04906" lon="0.78115">
        <ele>411.792</ele>
        <time>2017-06-10T13:42:38.008Z</time>
      </trkpt>
      <trkpt lat="43.04899" lon="0.7811">
        <ele>411</ele>
        <time>2017-06-10T13:42:39.008Z</time>
      </trkpt>
      <trkpt lat="43.04892" lon="0.78106">
        <ele>410.792</ele>
        <time>2017-06-10T13:42:40.008Z</time>
      </trkpt>
      <trkpt lat="43.04885" lon="0.78103">
        <ele>409.792</ele>
        <time>2017-06-10T13:42:41.008Z</time>
      </trkpt>
      <trkpt lat="43.04877" lon="0.781">
        <ele>409</ele>
        <time>2017-06-10T13:42:42.008Z</time>
      </trkpt>
      <trkpt lat="43.0487" lon="0.78098">
        <ele>409</ele>
        <time>2017-06-10T13:42:43.008Z</time>
      </trkpt>
      <trkpt lat="43.04861" lon="0.78095">
        <ele>409</ele>
        <time>2017-06-10T13:42:44.008Z</time>
      </trkpt>
      <trkpt lat="43.04853" lon="0.78094">
        <ele>409</ele>
        <time>2017-06-10T13:42:45.008Z</time>
      </trkpt>
      <trkpt lat="43.04845" lon="0.78092">
        <ele>408.584</ele>
        <time>2017-06-10T13:42:46.008Z</time>
      </trkpt>
      <trkpt lat="43.04837" lon="0.7809">
        <ele>407</ele>
        <time>2017-06-10T13:42:47.008Z</time>
      </trkpt>
      <trkpt lat="43.04829" lon="0.78089">
        <ele>407</ele>
        <time>2017-06-10T13:42:48.008Z</time>
      </trkpt>
      <trkpt lat="43.0482" lon="0.78087">
        <ele>407</ele>
        <time>2017-06-10T13:42:49.008Z</time>
      </trkpt>
      <trkpt lat="43.04812" lon="0.78084">
        <ele>407</ele>
        <time>2017-06-10T13:42:50.008Z</time>
      </trkpt>
      <trkpt lat="43.04805" lon="0.78079">
        <ele>406.168</ele>
        <time>2017-06-10T13:42:51.008Z</time>
      </trkpt>
      <trkpt lat="43.04799" lon="0.78072">
        <ele>402.792</ele>
        <time>2017-06-10T13:42:52.008Z</time>
      </trkpt>
      <trkpt lat="43.04792" lon="0.78064">
        <ele>401.792</ele>
        <time>2017-06-10T13:42:53.008Z</time>
      </trkpt>
      <trkpt lat="43.04785" lon="0.78058">
        <ele>401</ele>
        <time>2017-06-10T13:42:54.008Z</time>
      </trkpt>
      <trkpt lat="43.04778" lon="0.78054">
        <ele>401</ele>
        <time>2017-06-10T13:42:55.008Z</time>
      </trkpt>
      <trkpt lat="43.04771" lon="0.78049">
        <ele>401</ele>
        <time>2017-06-10T13:42:56.008Z</time>
      </trkpt>
      <trkpt lat="43.04765" lon="0.78043">
        <ele>401</ele>
        <time>2017-06-10T13:42:57.008Z</time>
      </trkpt>
      <trkpt lat="43.0476" lon="0.78025">
        <ele>400</ele>
        <time>2017-06-10T13:42:59.008Z</time>
      </trkpt>
      <trkpt lat="43.04758" lon="0.78006">
        <ele>400</ele>
        <time>2017-06-10T13:43:01.008Z</time>
      </trkpt>
      <trkpt lat="43.04756" lon="0.77997">
        <ele>400</ele>
        <time>2017-06-10T13:43:02.008Z</time>
      </trkpt>
      <trkpt lat="43.04755" lon="0.77988">
        <ele>400</ele>
        <time>2017-06-10T13:43:03.008Z</time>
      </trkpt>
      <trkpt lat="43.04754" lon="0.77978">
        <ele>400</ele>
        <time>2017-06-10T13:43:04.008Z</time>
      </trkpt>
      <trkpt lat="43.04753" lon="0.7797">
        <ele>400</ele>
        <time>2017-06-10T13:43:05.008Z</time>
      </trkpt>
      <trkpt lat="43.0475" lon="0.77952">
        <ele>400</ele>
        <time>2017-06-10T13:43:07.008Z</time>
      </trkpt>
      <trkpt lat="43.04749" lon="0.77944">
        <ele>400</ele>
        <time>2017-06-10T13:43:08.008Z</time>
      </trkpt>
      <trkpt lat="43.04746" lon="0.77926">
        <ele>400</ele>
        <time>2017-06-10T13:43:10.008Z</time>
      </trkpt>
      <trkpt lat="43.04745" lon="0.77907">
        <ele>399</ele>
        <time>2017-06-10T13:43:12.008Z</time>
      </trkpt>
      <trkpt lat="43.04745" lon="0.77899">
        <ele>399</ele>
        <time>2017-06-10T13:43:13.008Z</time>
      </trkpt>
      <trkpt lat="43.04746" lon="0.7789">
        <ele>399</ele>
        <time>2017-06-10T13:43:14.008Z</time>
      </trkpt>
      <trkpt lat="43.04747" lon="0.77873">
        <ele>399</ele>
        <time>2017-06-10T13:43:16.008Z</time>
      </trkpt>
      <trkpt lat="43.04747" lon="0.77864">
        <ele>399</ele>
        <time>2017-06-10T13:43:17.008Z</time>
      </trkpt>
      <trkpt lat="43.04748" lon="0.77856">
        <ele>399</ele>
        <time>2017-06-10T13:43:18.008Z</time>
      </trkpt>
      <trkpt lat="43.04749" lon="0.77848">
        <ele>399</ele>
        <time>2017-06-10T13:43:19.008Z</time>
      </trkpt>
      <trkpt lat="43.04749" lon="0.7784">
        <ele>399</ele>
        <time>2017-06-10T13:43:20.008Z</time>
      </trkpt>
      <trkpt lat="43.0475" lon="0.77833">
        <ele>399.208</ele>
        <time>2017-06-10T13:43:21.008Z</time>
      </trkpt>
      <trkpt lat="43.0475" lon="0.77825">
        <ele>400</ele>
        <time>2017-06-10T13:43:22.008Z</time>
      </trkpt>
      <trkpt lat="43.0475" lon="0.77818">
        <ele>400</ele>
        <time>2017-06-10T13:43:23.008Z</time>
      </trkpt>
      <trkpt lat="43.0475" lon="0.7781">
        <ele>400</ele>
        <time>2017-06-10T13:43:24.008Z</time>
      </trkpt>
      <trkpt lat="43.04749" lon="0.77803">
        <ele>400</ele>
        <time>2017-06-10T13:43:25.008Z</time>
      </trkpt>
      <trkpt lat="43.04749" lon="0.77795">
        <ele>400</ele>
        <time>2017-06-10T13:43:26.008Z</time>
      </trkpt>
      <trkpt lat="43.04749" lon="0.77788">
        <ele>400</ele>
        <time>2017-06-10T13:43:27.008Z</time>
      </trkpt>
      <trkpt lat="43.04749" lon="0.77781">
        <ele>400</ele>
        <time>2017-06-10T13:43:28.008Z</time>
      </trkpt>
      <trkpt lat="43.04748" lon="0.77774">
        <ele>400</ele>
        <time>2017-06-10T13:43:29.008Z</time>
      </trkpt>
      <trkpt lat="43.04748" lon="0.77767">
        <ele>400</ele>
        <time>2017-06-10T13:43:30.008Z</time>
      </trkpt>
      <trkpt lat="43.04748" lon="0.77761">
        <ele>400</ele>
        <time>2017-06-10T13:43:31.008Z</time>
      </trkpt>
      <trkpt lat="43.04747" lon="0.77754">
        <ele>400</ele>
        <time>2017-06-10T13:43:32.008Z</time>
      </trkpt>
      <trkpt lat="43.04746" lon="0.77747">
        <ele>400</ele>
        <time>2017-06-10T13:43:33.008Z</time>
      </trkpt>
      <trkpt lat="43.04745" lon="0.77735">
        <ele>400</ele>
        <time>2017-06-10T13:43:35.008Z</time>
      </trkpt>
      <trkpt lat="43.04744" lon="0.77728">
        <ele>400</ele>
        <time>2017-06-10T13:43:36.008Z</time>
      </trkpt>
      <trkpt lat="43.04743" lon="0.77722">
        <ele>400</ele>
        <time>2017-06-10T13:43:37.008Z</time>
      </trkpt>
      <trkpt lat="43.04742" lon="0.77716">
        <ele>400</ele>
        <time>2017-06-10T13:43:38.008Z</time>
      </trkpt>
      <trkpt lat="43.04742" lon="0.77711">
        <ele>400</ele>
        <time>2017-06-10T13:43:39.008Z</time>
      </trkpt>
      <trkpt lat="43.04742" lon="0.77699">
        <ele>400.208</ele>
        <time>2017-06-10T13:43:41.008Z</time>
      </trkpt>
      <trkpt lat="43.04743" lon="0.77693">
        <ele>401</ele>
        <time>2017-06-10T13:43:42.008Z</time>
      </trkpt>
      <trkpt lat="43.04747" lon="0.77682">
        <ele>401</ele>
        <time>2017-06-10T13:43:44.008Z</time>
      </trkpt>
      <trkpt lat="43.04748" lon="0.77676">
        <ele>401</ele>
        <time>2017-06-10T13:43:45.008Z</time>
      </trkpt>
      <trkpt lat="43.04749" lon="0.7767">
        <ele>401</ele>
        <time>2017-06-10T13:43:46.008Z</time>
      </trkpt>
      <trkpt lat="43.04749" lon="0.77664">
        <ele>401</ele>
        <time>2017-06-10T13:43:47.008Z</time>
      </trkpt>
      <trkpt lat="43.04744" lon="0.77654">
        <ele>401</ele>
        <time>2017-06-10T13:43:49.008Z</time>
      </trkpt>
      <trkpt lat="43.0474" lon="0.7765">
        <ele>401</ele>
        <time>2017-06-10T13:43:50.008Z</time>
      </trkpt>
      <trkpt lat="43.04737" lon="0.77646">
        <ele>401.208</ele>
        <time>2017-06-10T13:43:51.008Z</time>
      </trkpt>
      <trkpt lat="43.04733" lon="0.77642">
        <ele>402</ele>
        <time>2017-06-10T13:43:52.008Z</time>
      </trkpt>
      <trkpt lat="43.04731" lon="0.77637">
        <ele>402</ele>
        <time>2017-06-10T13:43:53.008Z</time>
      </trkpt>
      <trkpt lat="43.04729" lon="0.77631">
        <ele>402</ele>
        <time>2017-06-10T13:43:54.008Z</time>
      </trkpt>
      <trkpt lat="43.04727" lon="0.77624">
        <ele>402</ele>
        <time>2017-06-10T13:43:55.008Z</time>
      </trkpt>
      <trkpt lat="43.04726" lon="0.77618">
        <ele>402</ele>
        <time>2017-06-10T13:43:56.008Z</time>
      </trkpt>
      <trkpt lat="43.04725" lon="0.77611">
        <ele>402</ele>
        <time>2017-06-10T13:43:57.008Z</time>
      </trkpt>
      <trkpt lat="43.04725" lon="0.77605">
        <ele>402</ele>
        <time>2017-06-10T13:43:58.008Z</time>
      </trkpt>
      <trkpt lat="43.04723" lon="0.77591">
        <ele>402</ele>
        <time>2017-06-10T13:44:00.008Z</time>
      </trkpt>
      <trkpt lat="43.04721" lon="0.77577">
        <ele>402</ele>
        <time>2017-06-10T13:44:02.008Z</time>
      </trkpt>
      <trkpt lat="43.04719" lon="0.77563">
        <ele>402</ele>
        <time>2017-06-10T13:44:04.008Z</time>
      </trkpt>
      <trkpt lat="43.04718" lon="0.77557">
        <ele>402</ele>
        <time>2017-06-10T13:44:05.008Z</time>
      </trkpt>
      <trkpt lat="43.04717" lon="0.7755">
        <ele>402</ele>
        <time>2017-06-10T13:44:06.008Z</time>
      </trkpt>
      <trkpt lat="43.04716" lon="0.77535">
        <ele>402</ele>
        <time>2017-06-10T13:44:08.008Z</time>
      </trkpt>
      <trkpt lat="43.04714" lon="0.77521">
        <ele>402</ele>
        <time>2017-06-10T13:44:10.008Z</time>
      </trkpt>
      <trkpt lat="43.04712" lon="0.77506">
        <ele>402</ele>
        <time>2017-06-10T13:44:12.008Z</time>
      </trkpt>
      <trkpt lat="43.04712" lon="0.77499">
        <ele>402</ele>
        <time>2017-06-10T13:44:13.008Z</time>
      </trkpt>
      <trkpt lat="43.04711" lon="0.77492">
        <ele>402</ele>
        <time>2017-06-10T13:44:14.008Z</time>
      </trkpt>
      <trkpt lat="43.04711" lon="0.77484">
        <ele>402</ele>
        <time>2017-06-10T13:44:15.008Z</time>
      </trkpt>
      <trkpt lat="43.0471" lon="0.77477">
        <ele>402</ele>
        <time>2017-06-10T13:44:16.008Z</time>
      </trkpt>
      <trkpt lat="43.04709" lon="0.7747">
        <ele>402</ele>
        <time>2017-06-10T13:44:17.008Z</time>
      </trkpt>
      <trkpt lat="43.04707" lon="0.77463">
        <ele>402</ele>
        <time>2017-06-10T13:44:18.008Z</time>
      </trkpt>
      <trkpt lat="43.04705" lon="0.77457">
        <ele>402</ele>
        <time>2017-06-10T13:44:19.008Z</time>
      </trkpt>
      <trkpt lat="43.04701" lon="0.77452">
        <ele>402</ele>
        <time>2017-06-10T13:44:20.008Z</time>
      </trkpt>
      <trkpt lat="43.04697" lon="0.77449">
        <ele>402</ele>
        <time>2017-06-10T13:44:21.008Z</time>
      </trkpt>
      <trkpt lat="43.04692" lon="0.77446">
        <ele>402</ele>
        <time>2017-06-10T13:44:22.008Z</time>
      </trkpt>
      <trkpt lat="43.04687" lon="0.77443">
        <ele>402</ele>
        <time>2017-06-10T13:44:23.008Z</time>
      </trkpt>
      <trkpt lat="43.04682" lon="0.7744">
        <ele>402</ele>
        <time>2017-06-10T13:44:24.008Z</time>
      </trkpt>
      <trkpt lat="43.04677" lon="0.77435">
        <ele>402</ele>
        <time>2017-06-10T13:44:25.008Z</time>
      </trkpt>
      <trkpt lat="43.04674" lon="0.7743">
        <ele>402</ele>
        <time>2017-06-10T13:44:26.008Z</time>
      </trkpt>
      <trkpt lat="43.04671" lon="0.77423">
        <ele>402</ele>
        <time>2017-06-10T13:44:27.008Z</time>
      </trkpt>
      <trkpt lat="43.04668" lon="0.77417">
        <ele>402</ele>
        <time>2017-06-10T13:44:28.008Z</time>
      </trkpt>
      <trkpt lat="43.04666" lon="0.7741">
        <ele>402</ele>
        <time>2017-06-10T13:44:29.008Z</time>
      </trkpt>
      <trkpt lat="43.04664" lon="0.77404">
        <ele>402</ele>
        <time>2017-06-10T13:44:30.008Z</time>
      </trkpt>
      <trkpt lat="43.04662" lon="0.77397">
        <ele>401.792</ele>
        <time>2017-06-10T13:44:31.008Z</time>
      </trkpt>
      <trkpt lat="43.0466" lon="0.7739">
        <ele>401</ele>
        <time>2017-06-10T13:44:32.008Z</time>
      </trkpt>
      <trkpt lat="43.04658" lon="0.77383">
        <ele>401</ele>
        <time>2017-06-10T13:44:33.008Z</time>
      </trkpt>
      <trkpt lat="43.04655" lon="0.77376">
        <ele>401</ele>
        <time>2017-06-10T13:44:34.008Z</time>
      </trkpt>
      <trkpt lat="43.04653" lon="0.77369">
        <ele>401</ele>
        <time>2017-06-10T13:44:35.008Z</time>
      </trkpt>
      <trkpt lat="43.04652" lon="0.77362">
        <ele>401</ele>
        <time>2017-06-10T13:44:36.008Z</time>
      </trkpt>
      <trkpt lat="43.0465" lon="0.77355">
        <ele>401</ele>
        <time>2017-06-10T13:44:37.008Z</time>
      </trkpt>
      <trkpt lat="43.04648" lon="0.77347">
        <ele>401</ele>
        <time>2017-06-10T13:44:38.008Z</time>
      </trkpt>
      <trkpt lat="43.04646" lon="0.7734">
        <ele>401</ele>
        <time>2017-06-10T13:44:39.008Z</time>
      </trkpt>
      <trkpt lat="43.04643" lon="0.77333">
        <ele>401</ele>
        <time>2017-06-10T13:44:40.008Z</time>
      </trkpt>
      <trkpt lat="43.04641" lon="0.77326">
        <ele>401</ele>
        <time>2017-06-10T13:44:41.008Z</time>
      </trkpt>
      <trkpt lat="43.04639" lon="0.77319">
        <ele>401</ele>
        <time>2017-06-10T13:44:42.008Z</time>
      </trkpt>
      <trkpt lat="43.04637" lon="0.77313">
        <ele>401</ele>
        <time>2017-06-10T13:44:43.008Z</time>
      </trkpt>
      <trkpt lat="43.04635" lon="0.77306">
        <ele>401</ele>
        <time>2017-06-10T13:44:44.008Z</time>
      </trkpt>
      <trkpt lat="43.04633" lon="0.77299">
        <ele>401</ele>
        <time>2017-06-10T13:44:45.008Z</time>
      </trkpt>
      <trkpt lat="43.04631" lon="0.77292">
        <ele>401</ele>
        <time>2017-06-10T13:44:46.008Z</time>
      </trkpt>
      <trkpt lat="43.04628" lon="0.77285">
        <ele>401</ele>
        <time>2017-06-10T13:44:47.008Z</time>
      </trkpt>
      <trkpt lat="43.04626" lon="0.77278">
        <ele>401</ele>
        <time>2017-06-10T13:44:48.008Z</time>
      </trkpt>
      <trkpt lat="43.04624" lon="0.77271">
        <ele>401</ele>
        <time>2017-06-10T13:44:49.008Z</time>
      </trkpt>
      <trkpt lat="43.04621" lon="0.77264">
        <ele>401</ele>
        <time>2017-06-10T13:44:50.008Z</time>
      </trkpt>
      <trkpt lat="43.04619" lon="0.77258">
        <ele>401</ele>
        <time>2017-06-10T13:44:51.008Z</time>
      </trkpt>
      <trkpt lat="43.04617" lon="0.77252">
        <ele>401</ele>
        <time>2017-06-10T13:44:52.008Z</time>
      </trkpt>
      <trkpt lat="43.04612" lon="0.77239">
        <ele>401</ele>
        <time>2017-06-10T13:44:54.008Z</time>
      </trkpt>
      <trkpt lat="43.0461" lon="0.77232">
        <ele>401</ele>
        <time>2017-06-10T13:44:55.008Z</time>
      </trkpt>
      <trkpt lat="43.04608" lon="0.77226">
        <ele>401</ele>
        <time>2017-06-10T13:44:56.008Z</time>
      </trkpt>
      <trkpt lat="43.04605" lon="0.7722">
        <ele>401</ele>
        <time>2017-06-10T13:44:57.008Z</time>
      </trkpt>
      <trkpt lat="43.046" lon="0.77209">
        <ele>401</ele>
        <time>2017-06-10T13:44:59.008Z</time>
      </trkpt>
      <trkpt lat="43.04595" lon="0.77199">
        <ele>401.208</ele>
        <time>2017-06-10T13:45:01.008Z</time>
      </trkpt>
      <trkpt lat="43.04588" lon="0.7719">
        <ele>402</ele>
        <time>2017-06-10T13:45:03.008Z</time>
      </trkpt>
      <trkpt lat="43.04582" lon="0.77182">
        <ele>402</ele>
        <time>2017-06-10T13:45:05.008Z</time>
      </trkpt>
      <trkpt lat="43.04578" lon="0.77172">
        <ele>402</ele>
        <time>2017-06-10T13:45:07.008Z</time>
      </trkpt>
      <trkpt lat="43.04576" lon="0.77163">
        <ele>402</ele>
        <time>2017-06-10T13:45:09.008Z</time>
      </trkpt>
      <trkpt lat="43.04574" lon="0.77153">
        <ele>402</ele>
        <time>2017-06-10T13:45:11.008Z</time>
      </trkpt>
      <trkpt lat="43.04572" lon="0.77145">
        <ele>402</ele>
        <time>2017-06-10T13:45:13.008Z</time>
      </trkpt>
      <trkpt lat="43.04569" lon="0.77135">
        <ele>402</ele>
        <time>2017-06-10T13:45:15.008Z</time>
      </trkpt>
      <trkpt lat="43.04566" lon="0.77127">
        <ele>402</ele>
        <time>2017-06-10T13:45:17.008Z</time>
      </trkpt>
      <trkpt lat="43.04565" lon="0.77118">
        <ele>402</ele>
        <time>2017-06-10T13:45:19.008Z</time>
      </trkpt>
      <trkpt lat="43.04563" lon="0.77104">
        <ele>403</ele>
        <time>2017-06-10T13:45:22.008Z</time>
      </trkpt>
      <trkpt lat="43.04561" lon="0.77088">
        <ele>403</ele>
        <time>2017-06-10T13:45:25.008Z</time>
      </trkpt>
      <trkpt lat="43.04555" lon="0.77069">
        <ele>403</ele>
        <time>2017-06-10T13:45:28.008Z</time>
      </trkpt>
      <trkpt lat="43.04551" lon="0.77056">
        <ele>403</ele>
        <time>2017-06-10T13:45:30.008Z</time>
      </trkpt>
      <trkpt lat="43.04547" lon="0.77044">
        <ele>403</ele>
        <time>2017-06-10T13:45:32.008Z</time>
      </trkpt>
      <trkpt lat="43.04543" lon="0.77032">
        <ele>403</ele>
        <time>2017-06-10T13:45:34.008Z</time>
      </trkpt>
      <trkpt lat="43.04539" lon="0.77019">
        <ele>403</ele>
        <time>2017-06-10T13:45:36.008Z</time>
      </trkpt>
      <trkpt lat="43.04536" lon="0.77006">
        <ele>403</ele>
        <time>2017-06-10T13:45:38.008Z</time>
      </trkpt>
      <trkpt lat="43.04534" lon="0.76993">
        <ele>403</ele>
        <time>2017-06-10T13:45:40.008Z</time>
      </trkpt>
      <trkpt lat="43.04533" lon="0.76987">
        <ele>403.208</ele>
        <time>2017-06-10T13:45:41.008Z</time>
      </trkpt>
      <trkpt lat="43.04532" lon="0.7698">
        <ele>404</ele>
        <time>2017-06-10T13:45:42.008Z</time>
      </trkpt>
      <trkpt lat="43.04531" lon="0.76968">
        <ele>404</ele>
        <time>2017-06-10T13:45:44.008Z</time>
      </trkpt>
      <trkpt lat="43.0453" lon="0.76955">
        <ele>404</ele>
        <time>2017-06-10T13:45:46.008Z</time>
      </trkpt>
      <trkpt lat="43.0453" lon="0.76948">
        <ele>404</ele>
        <time>2017-06-10T13:45:47.008Z</time>
      </trkpt>
      <trkpt lat="43.0453" lon="0.76936">
        <ele>404</ele>
        <time>2017-06-10T13:45:49.008Z</time>
      </trkpt>
      <trkpt lat="43.0453" lon="0.76924">
        <ele>404.208</ele>
        <time>2017-06-10T13:45:51.008Z</time>
      </trkpt>
      <trkpt lat="43.0453" lon="0.76914">
        <ele>405</ele>
        <time>2017-06-10T13:45:53.008Z</time>
      </trkpt>
      <trkpt lat="43.04528" lon="0.76906">
        <ele>405</ele>
        <time>2017-06-10T13:45:55.008Z</time>
      </trkpt>
      <trkpt lat="43.04526" lon="0.76898">
        <ele>404.792</ele>
        <time>2017-06-10T13:45:57.008Z</time>
      </trkpt>
      <trkpt lat="43.04525" lon="0.76884">
        <ele>404.832</ele>
        <time>2017-06-10T13:46:01.008Z</time>
      </trkpt>
      <trkpt lat="43.04524" lon="0.7687">
        <ele>408</ele>
        <time>2017-06-10T13:46:05.008Z</time>
      </trkpt>
      <trkpt lat="43.04523" lon="0.76857">
        <ele>409</ele>
        <time>2017-06-10T13:46:08.008Z</time>
      </trkpt>
      <trkpt lat="43.0452" lon="0.76845">
        <ele>409.208</ele>
        <time>2017-06-10T13:46:11.008Z</time>
      </trkpt>
      <trkpt lat="43.04516" lon="0.76833">
        <ele>409.792</ele>
        <time>2017-06-10T13:46:14.008Z</time>
      </trkpt>
      <trkpt lat="43.04512" lon="0.76822">
        <ele>409</ele>
        <time>2017-06-10T13:46:17.008Z</time>
      </trkpt>
      <trkpt lat="43.04505" lon="0.76812">
        <ele>409</ele>
        <time>2017-06-10T13:46:20.008Z</time>
      </trkpt>
      <trkpt lat="43.04499" lon="0.76804">
        <ele>411</ele>
        <time>2017-06-10T13:46:23.008Z</time>
      </trkpt>
      <trkpt lat="43.04492" lon="0.76796">
        <ele>411</ele>
        <time>2017-06-10T13:46:26.008Z</time>
      </trkpt>
      <trkpt lat="43.04487" lon="0.76786">
        <ele>411</ele>
        <time>2017-06-10T13:46:29.008Z</time>
      </trkpt>
      <trkpt lat="43.04483" lon="0.76774">
        <ele>413</ele>
        <time>2017-06-10T13:46:32.008Z</time>
      </trkpt>
      <trkpt lat="43.0448" lon="0.76763">
        <ele>413</ele>
        <time>2017-06-10T13:46:35.008Z</time>
      </trkpt>
      <trkpt lat="43.04476" lon="0.76748">
        <ele>413</ele>
        <time>2017-06-10T13:46:39.008Z</time>
      </trkpt>
      <trkpt lat="43.04475" lon="0.76731">
        <ele>414</ele>
        <time>2017-06-10T13:46:43.008Z</time>
      </trkpt>
      <trkpt lat="43.04472" lon="0.76716">
        <ele>414</ele>
        <time>2017-06-10T13:46:47.008Z</time>
      </trkpt>
      <trkpt lat="43.04469" lon="0.76702">
        <ele>414</ele>
        <time>2017-06-10T13:46:50.008Z</time>
      </trkpt>
      <trkpt lat="43.04465" lon="0.76688">
        <ele>417</ele>
        <time>2017-06-10T13:46:54.008Z</time>
      </trkpt>
      <trkpt lat="43.0446" lon="0.76674">
        <ele>419</ele>
        <time>2017-06-10T13:46:58.008Z</time>
      </trkpt>
      <trkpt lat="43.04457" lon="0.76661">
        <ele>418</ele>
        <time>2017-06-10T13:47:02.008Z</time>
      </trkpt>
      <trkpt lat="43.04454" lon="0.76645">
        <ele>418</ele>
        <time>2017-06-10T13:47:06.008Z</time>
      </trkpt>
      <trkpt lat="43.04449" lon="0.76629">
        <ele>418</ele>
        <time>2017-06-10T13:47:10.008Z</time>
      </trkpt>
      <trkpt lat="43.04447" lon="0.76615">
        <ele>420</ele>
        <time>2017-06-10T13:47:13.008Z</time>
      </trkpt>
      <trkpt lat="43.04441" lon="0.766">
        <ele>420</ele>
        <time>2017-06-10T13:47:17.008Z</time>
      </trkpt>
      <trkpt lat="43.04437" lon="0.76585">
        <ele>420.416</ele>
        <time>2017-06-10T13:47:21.008Z</time>
      </trkpt>
      <trkpt lat="43.04434" lon="0.76574">
        <ele>422</ele>
        <time>2017-06-10T13:47:24.008Z</time>
      </trkpt>
      <trkpt lat="43.04431" lon="0.76563">
        <ele>422</ele>
        <time>2017-06-10T13:47:27.008Z</time>
      </trkpt>
      <trkpt lat="43.04427" lon="0.7655">
        <ele>422.416</ele>
        <time>2017-06-10T13:47:31.008Z</time>
      </trkpt>
      <trkpt lat="43.04423" lon="0.76535">
        <ele>426</ele>
        <time>2017-06-10T13:47:37.008Z</time>
      </trkpt>
      <trkpt lat="43.04418" lon="0.7652">
        <ele>428</ele>
        <time>2017-06-10T13:47:42.008Z</time>
      </trkpt>
      <trkpt lat="43.04414" lon="0.76507">
        <ele>430</ele>
        <time>2017-06-10T13:47:47.008Z</time>
      </trkpt>
      <trkpt lat="43.04407" lon="0.76495">
        <ele>431</ele>
        <time>2017-06-10T13:47:54.008Z</time>
      </trkpt>
      <trkpt lat="43.04403" lon="0.76481">
        <ele>433.416</ele>
        <time>2017-06-10T13:48:01.008Z</time>
      </trkpt>
      <trkpt lat="43.04398" lon="0.76467">
        <ele>436</ele>
        <time>2017-06-10T13:48:08.008Z</time>
      </trkpt>
      <trkpt lat="43.04393" lon="0.76455">
        <ele>437</ele>
        <time>2017-06-10T13:48:15.008Z</time>
      </trkpt>
      <trkpt lat="43.04391" lon="0.76441">
        <ele>439.416</ele>
        <time>2017-06-10T13:48:21.008Z</time>
      </trkpt>
      <trkpt lat="43.04397" lon="0.76429">
        <ele>441</ele>
        <time>2017-06-10T13:48:26.008Z</time>
      </trkpt>
      <trkpt lat="43.04404" lon="0.76419">
        <ele>442</ele>
        <time>2017-06-10T13:48:33.008Z</time>
      </trkpt>
      <trkpt lat="43.04397" lon="0.7641">
        <ele>442.208</ele>
        <time>2017-06-10T13:48:51.008Z</time>
      </trkpt>
      <trkpt lat="43.0439" lon="0.76405">
        <ele>447.208</ele>
        <time>2017-06-10T13:49:06.008Z</time>
      </trkpt>
      <trkpt lat="43.04381" lon="0.76403">
        <ele>448</ele>
        <time>2017-06-10T13:49:19.008Z</time>
      </trkpt>
      <trkpt lat="43.04373" lon="0.76397">
        <ele>448</ele>
        <time>2017-06-10T13:49:29.008Z</time>
      </trkpt>
      <trkpt lat="43.04366" lon="0.7639">
        <ele>450</ele>
        <time>2017-06-10T13:49:37.008Z</time>
      </trkpt>
      <trkpt lat="43.04362" lon="0.76382">
        <ele>452</ele>
        <time>2017-06-10T13:49:47.008Z</time>
      </trkpt>
      <trkpt lat="43.04354" lon="0.76376">
        <ele>454</ele>
        <time>2017-06-10T13:49:55.008Z</time>
      </trkpt>
      <trkpt lat="43.04346" lon="0.76371">
        <ele>456</ele>
        <time>2017-06-10T13:50:05.008Z</time>
      </trkpt>
      <trkpt lat="43.04339" lon="0.76366">
        <ele>457</ele>
        <time>2017-06-10T13:50:13.008Z</time>
      </trkpt>
      <trkpt lat="43.04331" lon="0.7636">
        <ele>458</ele>
        <time>2017-06-10T13:50:26.008Z</time>
      </trkpt>
      <trkpt lat="43.04324" lon="0.76357">
        <ele>460</ele>
        <time>2017-06-10T13:50:35.008Z</time>
      </trkpt>
      <trkpt lat="43.04316" lon="0.76352">
        <ele>460.208</ele>
        <time>2017-06-10T13:50:41.008Z</time>
      </trkpt>
      <trkpt lat="43.04308" lon="0.76349">
        <ele>461</ele>
        <time>2017-06-10T13:50:50.008Z</time>
      </trkpt>
      <trkpt lat="43.043" lon="0.76346">
        <ele>461</ele>
        <time>2017-06-10T13:51:09.008Z</time>
      </trkpt>
      <trkpt lat="43.04293" lon="0.76341">
        <ele>462</ele>
        <time>2017-06-10T13:51:19.008Z</time>
      </trkpt>
      <trkpt lat="43.04285" lon="0.76334">
        <ele>463.208</ele>
        <time>2017-06-10T13:51:31.008Z</time>
      </trkpt>
      <trkpt lat="43.04277" lon="0.76329">
        <ele>464</ele>
        <time>2017-06-10T13:51:40.008Z</time>
      </trkpt>
      <trkpt lat="43.04271" lon="0.76323">
        <ele>466</ele>
        <time>2017-06-10T13:51:48.008Z</time>
      </trkpt>
      <trkpt lat="43.04262" lon="0.76318">
        <ele>469</ele>
        <time>2017-06-10T13:52:02.008Z</time>
      </trkpt>
      <trkpt lat="43.04254" lon="0.7631">
        <ele>471</ele>
        <time>2017-06-10T13:52:13.008Z</time>
      </trkpt>
      <trkpt lat="43.04248" lon="0.76299">
        <ele>473</ele>
        <time>2017-06-10T13:52:25.008Z</time>
      </trkpt>
      <trkpt lat="43.04241" lon="0.76291">
        <ele>474</ele>
        <time>2017-06-10T13:52:42.008Z</time>
      </trkpt>
      <trkpt lat="43.04235" lon="0.76281">
        <ele>476</ele>
        <time>2017-06-10T13:52:55.008Z</time>
      </trkpt>
      <trkpt lat="43.04227" lon="0.76272">
        <ele>478</ele>
        <time>2017-06-10T13:53:03.008Z</time>
      </trkpt>
      <trkpt lat="43.04221" lon="0.76262">
        <ele>478</ele>
        <time>2017-06-10T13:53:09.008Z</time>
      </trkpt>
      <trkpt lat="43.04217" lon="0.76253">
        <ele>482</ele>
        <time>2017-06-10T13:53:18.008Z</time>
      </trkpt>
      <trkpt lat="43.04211" lon="0.76245">
        <ele>483</ele>
        <time>2017-06-10T13:53:29.008Z</time>
      </trkpt>
      <trkpt lat="43.04206" lon="0.76237">
        <ele>484</ele>
        <time>2017-06-10T13:53:39.008Z</time>
      </trkpt>
      <trkpt lat="43.04201" lon="0.76232">
        <ele>486</ele>
        <time>2017-06-10T13:53:59.008Z</time>
      </trkpt>
      <trkpt lat="43.04195" lon="0.76224">
        <ele>487</ele>
        <time>2017-06-10T13:54:04.008Z</time>
      </trkpt>
      <trkpt lat="43.0419" lon="0.76217">
        <ele>487</ele>
        <time>2017-06-10T13:54:09.008Z</time>
      </trkpt>
      <trkpt lat="43.04186" lon="0.76207">
        <ele>488</ele>
        <time>2017-06-10T13:54:14.008Z</time>
      </trkpt>
      <trkpt lat="43.04183" lon="0.76199">
        <ele>488</ele>
        <time>2017-06-10T13:54:18.008Z</time>
      </trkpt>
      <trkpt lat="43.0418" lon="0.76191">
        <ele>489</ele>
        <time>2017-06-10T13:54:27.008Z</time>
      </trkpt>
      <trkpt lat="43.04176" lon="0.76185">
        <ele>491</ele>
        <time>2017-06-10T13:54:37.008Z</time>
      </trkpt>
      <trkpt lat="43.04172" lon="0.76179">
        <ele>491</ele>
        <time>2017-06-10T13:54:41.008Z</time>
      </trkpt>
      <trkpt lat="43.04168" lon="0.76174">
        <ele>491</ele>
        <time>2017-06-10T13:54:45.008Z</time>
      </trkpt>
      <trkpt lat="43.04164" lon="0.76168">
        <ele>491</ele>
        <time>2017-06-10T13:54:48.008Z</time>
      </trkpt>
      <trkpt lat="43.04158" lon="0.76164">
        <ele>493</ele>
        <time>2017-06-10T13:54:52.008Z</time>
      </trkpt>
      <trkpt lat="43.04153" lon="0.76166">
        <ele>493</ele>
        <time>2017-06-10T13:54:56.008Z</time>
      </trkpt>
      <trkpt lat="43.04147" lon="0.76165">
        <ele>493</ele>
        <time>2017-06-10T13:54:59.008Z</time>
      </trkpt>
      <trkpt lat="43.0414" lon="0.76166">
        <ele>498.208</ele>
        <time>2017-06-10T13:55:03.008Z</time>
      </trkpt>
      <trkpt lat="43.04134" lon="0.76164">
        <ele>502</ele>
        <time>2017-06-10T13:55:07.008Z</time>
      </trkpt>
      <trkpt lat="43.04128" lon="0.76161">
        <ele>504.208</ele>
        <time>2017-06-10T13:55:11.008Z</time>
      </trkpt>
      <trkpt lat="43.0412" lon="0.7616">
        <ele>503</ele>
        <time>2017-06-10T13:55:16.008Z</time>
      </trkpt>
      <trkpt lat="43.04113" lon="0.76157">
        <ele>502</ele>
        <time>2017-06-10T13:55:20.008Z</time>
      </trkpt>
      <trkpt lat="43.04107" lon="0.76153">
        <ele>501</ele>
        <time>2017-06-10T13:55:25.008Z</time>
      </trkpt>
      <trkpt lat="43.04099" lon="0.7615">
        <ele>500</ele>
        <time>2017-06-10T13:55:30.008Z</time>
      </trkpt>
      <trkpt lat="43.04091" lon="0.76149">
        <ele>503</ele>
        <time>2017-06-10T13:55:35.008Z</time>
      </trkpt>
      <trkpt lat="43.04082" lon="0.76146">
        <ele>503</ele>
        <time>2017-06-10T13:55:40.008Z</time>
      </trkpt>
      <trkpt lat="43.04075" lon="0.7614">
        <ele>507</ele>
        <time>2017-06-10T13:55:45.008Z</time>
      </trkpt>
      <trkpt lat="43.04071" lon="0.76131">
        <ele>510</ele>
        <time>2017-06-10T13:55:49.008Z</time>
      </trkpt>
      <trkpt lat="43.04071" lon="0.76121">
        <ele>508</ele>
        <time>2017-06-10T13:55:54.008Z</time>
      </trkpt>
      <trkpt lat="43.04069" lon="0.76113">
        <ele>508</ele>
        <time>2017-06-10T13:55:59.008Z</time>
      </trkpt>
      <trkpt lat="43.04064" lon="0.76105">
        <ele>514</ele>
        <time>2017-06-10T13:56:03.008Z</time>
      </trkpt>
      <trkpt lat="43.04066" lon="0.76095">
        <ele>516.208</ele>
        <time>2017-06-10T13:56:08.008Z</time>
      </trkpt>
      <trkpt lat="43.04071" lon="0.76088">
        <ele>518.208</ele>
        <time>2017-06-10T13:56:12.008Z</time>
      </trkpt>
      <trkpt lat="43.04074" lon="0.76078">
        <ele>520</ele>
        <time>2017-06-10T13:56:16.008Z</time>
      </trkpt>
      <trkpt lat="43.04074" lon="0.76071">
        <ele>521.208</ele>
        <time>2017-06-10T13:56:19.008Z</time>
      </trkpt>
      <trkpt lat="43.04073" lon="0.76064">
        <ele>522</ele>
        <time>2017-06-10T13:56:22.008Z</time>
      </trkpt>
      <trkpt lat="43.0407" lon="0.76057">
        <ele>522</ele>
        <time>2017-06-10T13:56:25.008Z</time>
      </trkpt>
      <trkpt lat="43.04067" lon="0.7605">
        <ele>522</ele>
        <time>2017-06-10T13:56:28.008Z</time>
      </trkpt>
      <trkpt lat="43.04065" lon="0.76044">
        <ele>522</ele>
        <time>2017-06-10T13:56:31.008Z</time>
      </trkpt>
      <trkpt lat="43.04063" lon="0.76035">
        <ele>522</ele>
        <time>2017-06-10T13:56:34.008Z</time>
      </trkpt>
      <trkpt lat="43.04064" lon="0.76027">
        <ele>522</ele>
        <time>2017-06-10T13:56:36.008Z</time>
      </trkpt>
      <trkpt lat="43.04063" lon="0.76018">
        <ele>522</ele>
        <time>2017-06-10T13:56:38.008Z</time>
      </trkpt>
      <trkpt lat="43.04063" lon="0.76006">
        <ele>522</ele>
        <time>2017-06-10T13:56:41.008Z</time>
      </trkpt>
      <trkpt lat="43.04071" lon="0.75999">
        <ele>522</ele>
        <time>2017-06-10T13:56:45.008Z</time>
      </trkpt>
      <trkpt lat="43.0408" lon="0.75991">
        <ele>522</ele>
        <time>2017-06-10T13:56:49.008Z</time>
      </trkpt>
      <trkpt lat="43.04088" lon="0.75985">
        <ele>522</ele>
        <time>2017-06-10T13:56:51.008Z</time>
      </trkpt>
      <trkpt lat="43.04095" lon="0.7598">
        <ele>521.792</ele>
        <time>2017-06-10T13:56:53.008Z</time>
      </trkpt>
      <trkpt lat="43.04105" lon="0.75976">
        <ele>521</ele>
        <time>2017-06-10T13:56:55.008Z</time>
      </trkpt>
      <trkpt lat="43.04115" lon="0.75976">
        <ele>521</ele>
        <time>2017-06-10T13:56:57.008Z</time>
      </trkpt>
      <trkpt lat="43.04129" lon="0.75976">
        <ele>521</ele>
        <time>2017-06-10T13:57:00.008Z</time>
      </trkpt>
      <trkpt lat="43.04139" lon="0.75978">
        <ele>521</ele>
        <time>2017-06-10T13:57:02.008Z</time>
      </trkpt>
      <trkpt lat="43.04151" lon="0.75982">
        <ele>521</ele>
        <time>2017-06-10T13:57:05.008Z</time>
      </trkpt>
      <trkpt lat="43.04163" lon="0.75978">
        <ele>521</ele>
        <time>2017-06-10T13:57:08.008Z</time>
      </trkpt>
      <trkpt lat="43.04169" lon="0.75969">
        <ele>521</ele>
        <time>2017-06-10T13:57:10.008Z</time>
      </trkpt>
      <trkpt lat="43.04173" lon="0.75952">
        <ele>509</ele>
        <time>2017-06-10T13:57:13.008Z</time>
      </trkpt>
      <trkpt lat="43.04176" lon="0.75937">
        <ele>508.792</ele>
        <time>2017-06-10T13:57:17.008Z</time>
      </trkpt>
      <trkpt lat="43.04182" lon="0.75922">
        <ele>504</ele>
        <time>2017-06-10T13:57:22.008Z</time>
      </trkpt>
      <trkpt lat="43.04188" lon="0.75908">
        <ele>499.208</ele>
        <time>2017-06-10T13:57:26.008Z</time>
      </trkpt>
      <trkpt lat="43.04194" lon="0.75894">
        <ele>499.792</ele>
        <time>2017-06-10T13:57:29.008Z</time>
      </trkpt>
      <trkpt lat="43.042" lon="0.75879">
        <ele>491.792</ele>
        <time>2017-06-10T13:57:32.008Z</time>
      </trkpt>
      <trkpt lat="43.04206" lon="0.75868">
        <ele>491.792</ele>
        <time>2017-06-10T13:57:39.008Z</time>
      </trkpt>
      <trkpt lat="43.04211" lon="0.7586">
        <ele>491</ele>
        <time>2017-06-10T13:57:51.008Z</time>
      </trkpt>
      <trkpt lat="43.04217" lon="0.75852">
        <ele>491</ele>
        <time>2017-06-10T13:57:57.008Z</time>
      </trkpt>
      <trkpt lat="43.04224" lon="0.75843">
        <ele>489.752</ele>
        <time>2017-06-10T13:58:01.008Z</time>
      </trkpt>
      <trkpt lat="43.04233" lon="0.75833">
        <ele>485.20594124655</ele>
        <time>2017-06-10T13:58:04.008Z</time>
      </trkpt>
      <trkpt lat="43.04242" lon="0.75823">
        <ele>483.792</ele>
        <time>2017-06-10T13:58:07.008Z</time>
      </trkpt>
      <trkpt lat="43.0425" lon="0.75809">
        <ele>478.792</ele>
        <time>2017-06-10T13:58:10.008Z</time>
      </trkpt>
      <trkpt lat="43.04257" lon="0.75796">
        <ele>476.792</ele>
        <time>2017-06-10T13:58:13.008Z</time>
      </trkpt>
      <trkpt lat="43.04265" lon="0.75781">
        <ele>478</ele>
        <time>2017-06-10T13:58:16.008Z</time>
      </trkpt>
      <trkpt lat="43.04276" lon="0.75768">
        <ele>479.792</ele>
        <time>2017-06-10T13:58:19.008Z</time>
      </trkpt>
      <trkpt lat="43.04286" lon="0.75764">
        <ele>478</ele>
        <time>2017-06-10T13:58:21.008Z</time>
      </trkpt>
      <trkpt lat="43.04301" lon="0.7576">
        <ele>478</ele>
        <time>2017-06-10T13:58:24.008Z</time>
      </trkpt>
      <trkpt lat="43.04311" lon="0.75759">
        <ele>478</ele>
        <time>2017-06-10T13:58:26.008Z</time>
      </trkpt>
      <trkpt lat="43.04321" lon="0.75755">
        <ele>478</ele>
        <time>2017-06-10T13:58:29.008Z</time>
      </trkpt>
      <trkpt lat="43.04329" lon="0.75747">
        <ele>472.208</ele>
        <time>2017-06-10T13:58:51.008Z</time>
      </trkpt>
      <trkpt lat="43.04341" lon="0.75741">
        <ele>473</ele>
        <time>2017-06-10T13:58:57.008Z</time>
      </trkpt>
      <trkpt lat="43.04354" lon="0.75736">
        <ele>473.208</ele>
        <time>2017-06-10T13:59:01.008Z</time>
      </trkpt>
      <trkpt lat="43.04364" lon="0.7573">
        <ele>474</ele>
        <time>2017-06-10T13:59:04.008Z</time>
      </trkpt>
      <trkpt lat="43.04375" lon="0.75724">
        <ele>474</ele>
        <time>2017-06-10T13:59:07.008Z</time>
      </trkpt>
      <trkpt lat="43.04388" lon="0.75718">
        <ele>474</ele>
        <time>2017-06-10T13:59:10.008Z</time>
      </trkpt>
      <trkpt lat="43.04399" lon="0.75711">
        <ele>475</ele>
        <time>2017-06-10T13:59:13.008Z</time>
      </trkpt>
      <trkpt lat="43.04411" lon="0.75709">
        <ele>475</ele>
        <time>2017-06-10T13:59:16.008Z</time>
      </trkpt>
      <trkpt lat="43.04424" lon="0.75706">
        <ele>475</ele>
        <time>2017-06-10T13:59:19.008Z</time>
      </trkpt>
      <trkpt lat="43.04436" lon="0.75702">
        <ele>474</ele>
        <time>2017-06-10T13:59:22.008Z</time>
      </trkpt>
      <trkpt lat="43.04448" lon="0.75698">
        <ele>474</ele>
        <time>2017-06-10T13:59:25.008Z</time>
      </trkpt>
      <trkpt lat="43.0446" lon="0.75696">
        <ele>474</ele>
        <time>2017-06-10T13:59:28.008Z</time>
      </trkpt>
      <trkpt lat="43.04468" lon="0.75693">
        <ele>474</ele>
        <time>2017-06-10T13:59:30.008Z</time>
      </trkpt>
      <trkpt lat="43.04481" lon="0.7569">
        <ele>475</ele>
        <time>2017-06-10T13:59:33.008Z</time>
      </trkpt>
      <trkpt lat="43.04494" lon="0.75689">
        <ele>475</ele>
        <time>2017-06-10T13:59:36.008Z</time>
      </trkpt>
      <trkpt lat="43.04507" lon="0.75687">
        <ele>475</ele>
        <time>2017-06-10T13:59:39.008Z</time>
      </trkpt>
      <trkpt lat="43.04519" lon="0.75685">
        <ele>478</ele>
        <time>2017-06-10T13:59:42.008Z</time>
      </trkpt>
      <trkpt lat="43.04532" lon="0.75684">
        <ele>478</ele>
        <time>2017-06-10T13:59:45.008Z</time>
      </trkpt>
      <trkpt lat="43.04543" lon="0.75686">
        <ele>478</ele>
        <time>2017-06-10T13:59:48.008Z</time>
      </trkpt>
      <trkpt lat="43.04557" lon="0.75686">
        <ele>478</ele>
        <time>2017-06-10T13:59:51.008Z</time>
      </trkpt>
      <trkpt lat="43.04569" lon="0.75687">
        <ele>478</ele>
        <time>2017-06-10T13:59:54.008Z</time>
      </trkpt>
      <trkpt lat="43.04583" lon="0.75688">
        <ele>478</ele>
        <time>2017-06-10T13:59:57.008Z</time>
      </trkpt>
      <trkpt lat="43.04593" lon="0.75691">
        <ele>478</ele>
        <time>2017-06-10T13:59:59.008Z</time>
      </trkpt>
      <trkpt lat="43.04603" lon="0.75692">
        <ele>477.376</ele>
        <time>2017-06-10T14:00:01.008Z</time>
      </trkpt>
      <trkpt lat="43.04616" lon="0.75693">
        <ele>475</ele>
        <time>2017-06-10T14:00:03.008Z</time>
      </trkpt>
      <trkpt lat="43.04629" lon="0.75694">
        <ele>475</ele>
        <time>2017-06-10T14:00:05.008Z</time>
      </trkpt>
      <trkpt lat="43.0464" lon="0.75697">
        <ele>477</ele>
        <time>2017-06-10T14:00:07.008Z</time>
      </trkpt>
      <trkpt lat="43.04652" lon="0.75698">
        <ele>477</ele>
        <time>2017-06-10T14:00:09.008Z</time>
      </trkpt>
      <trkpt lat="43.04663" lon="0.75705">
        <ele>476.792</ele>
        <time>2017-06-10T14:00:11.008Z</time>
      </trkpt>
      <trkpt lat="43.04676" lon="0.75708">
        <ele>476</ele>
        <time>2017-06-10T14:00:13.008Z</time>
      </trkpt>
      <trkpt lat="43.04688" lon="0.75711">
        <ele>476</ele>
        <time>2017-06-10T14:00:15.008Z</time>
      </trkpt>
      <trkpt lat="43.04702" lon="0.75714">
        <ele>476</ele>
        <time>2017-06-10T14:00:17.008Z</time>
      </trkpt>
      <trkpt lat="43.04715" lon="0.75717">
        <ele>476</ele>
        <time>2017-06-10T14:00:19.008Z</time>
      </trkpt>
      <trkpt lat="43.04726" lon="0.75722">
        <ele>475.168</ele>
        <time>2017-06-10T14:00:21.008Z</time>
      </trkpt>
      <trkpt lat="43.04737" lon="0.75728">
        <ele>472</ele>
        <time>2017-06-10T14:00:23.008Z</time>
      </trkpt>
      <trkpt lat="43.04748" lon="0.75733">
        <ele>472</ele>
        <time>2017-06-10T14:00:25.008Z</time>
      </trkpt>
      <trkpt lat="43.0476" lon="0.75737">
        <ele>469</ele>
        <time>2017-06-10T14:00:27.008Z</time>
      </trkpt>
      <trkpt lat="43.04773" lon="0.75744">
        <ele>469</ele>
        <time>2017-06-10T14:00:29.008Z</time>
      </trkpt>
      <trkpt lat="43.04785" lon="0.75751">
        <ele>464.84</ele>
        <time>2017-06-10T14:00:31.008Z</time>
      </trkpt>
      <trkpt lat="43.04796" lon="0.75756">
        <ele>437.792</ele>
        <time>2017-06-10T14:00:33.008Z</time>
      </trkpt>
      <trkpt lat="43.04805" lon="0.7576">
        <ele>436</ele>
        <time>2017-06-10T14:00:35.008Z</time>
      </trkpt>
      <trkpt lat="43.04816" lon="0.75769">
        <ele>435.792</ele>
        <time>2017-06-10T14:00:37.008Z</time>
      </trkpt>
      <trkpt lat="43.04826" lon="0.7578">
        <ele>434.792</ele>
        <time>2017-06-10T14:00:39.008Z</time>
      </trkpt>
      <trkpt lat="43.04835" lon="0.75789">
        <ele>432.792</ele>
        <time>2017-06-10T14:00:41.008Z</time>
      </trkpt>
      <trkpt lat="43.04844" lon="0.75797">
        <ele>430.792</ele>
        <time>2017-06-10T14:00:43.008Z</time>
      </trkpt>
      <trkpt lat="43.04853" lon="0.75806">
        <ele>429</ele>
        <time>2017-06-10T14:00:45.008Z</time>
      </trkpt>
      <trkpt lat="43.04862" lon="0.75816">
        <ele>426.792</ele>
        <time>2017-06-10T14:00:47.008Z</time>
      </trkpt>
      <trkpt lat="43.04872" lon="0.75825">
        <ele>426</ele>
        <time>2017-06-10T14:00:49.008Z</time>
      </trkpt>
      <trkpt lat="43.0488" lon="0.75836">
        <ele>425</ele>
        <time>2017-06-10T14:00:51.008Z</time>
      </trkpt>
      <trkpt lat="43.04889" lon="0.75848">
        <ele>424</ele>
        <time>2017-06-10T14:00:54.008Z</time>
      </trkpt>
      <trkpt lat="43.04896" lon="0.75861">
        <ele>424</ele>
        <time>2017-06-10T14:00:57.008Z</time>
      </trkpt>
      <trkpt lat="43.04902" lon="0.75872">
        <ele>424</ele>
        <time>2017-06-10T14:01:03.008Z</time>
      </trkpt>
      <trkpt lat="43.04907" lon="0.75885">
        <ele>424</ele>
        <time>2017-06-10T14:01:08.008Z</time>
      </trkpt>
      <trkpt lat="43.04914" lon="0.75897">
        <ele>423.792</ele>
        <time>2017-06-10T14:01:11.008Z</time>
      </trkpt>
      <trkpt lat="43.0492" lon="0.75909">
        <ele>423</ele>
        <time>2017-06-10T14:01:14.008Z</time>
      </trkpt>
      <trkpt lat="43.04928" lon="0.75916">
        <ele>423</ele>
        <time>2017-06-10T14:01:19.008Z</time>
      </trkpt>
      <trkpt lat="43.04939" lon="0.75911">
        <ele>418</ele>
        <time>2017-06-10T14:01:23.008Z</time>
      </trkpt>
      <trkpt lat="43.04948" lon="0.75909">
        <ele>417.376</ele>
        <time>2017-06-10T14:01:26.008Z</time>
      </trkpt>
      <trkpt lat="43.04958" lon="0.75908">
        <ele>415</ele>
        <time>2017-06-10T14:01:30.008Z</time>
      </trkpt>
      <trkpt lat="43.04967" lon="0.75904">
        <ele>411</ele>
        <time>2017-06-10T14:01:33.008Z</time>
      </trkpt>
      <trkpt lat="43.04981" lon="0.75901">
        <ele>409.792</ele>
        <time>2017-06-10T14:01:37.008Z</time>
      </trkpt>
      <trkpt lat="43.04994" lon="0.75899">
        <ele>409</ele>
        <time>2017-06-10T14:01:40.008Z</time>
      </trkpt>
      <trkpt lat="43.05006" lon="0.75896">
        <ele>409</ele>
        <time>2017-06-10T14:01:43.008Z</time>
      </trkpt>
      <trkpt lat="43.05013" lon="0.75895">
        <ele>408</ele>
        <time>2017-06-10T14:01:59.008Z</time>
      </trkpt>
      <trkpt lat="43.05002" lon="0.759">
        <ele>408</ele>
        <time>2017-06-10T14:02:17.008Z</time>
      </trkpt>
      <trkpt lat="43.04992" lon="0.75903">
        <ele>410</ele>
        <time>2017-06-10T14:02:22.008Z</time>
      </trkpt>
      <trkpt lat="43.04982" lon="0.75907">
        <ele>410</ele>
        <time>2017-06-10T14:02:27.008Z</time>
      </trkpt>
      <trkpt lat="43.04972" lon="0.75909">
        <ele>411</ele>
        <time>2017-06-10T14:02:32.008Z</time>
      </trkpt>
      <trkpt lat="43.04964" lon="0.75912">
        <ele>411</ele>
        <time>2017-06-10T14:02:38.008Z</time>
      </trkpt>
      <trkpt lat="43.04955" lon="0.75913">
        <ele>413.208</ele>
        <time>2017-06-10T14:02:46.008Z</time>
      </trkpt>
      <trkpt lat="43.04946" lon="0.75914">
        <ele>415</ele>
        <time>2017-06-10T14:02:56.008Z</time>
      </trkpt>
      <trkpt lat="43.04939" lon="0.75918">
        <ele>417</ele>
        <time>2017-06-10T14:03:05.008Z</time>
      </trkpt>
      <trkpt lat="43.04931" lon="0.7592">
        <ele>418</ele>
        <time>2017-06-10T14:03:13.008Z</time>
      </trkpt>
      <trkpt lat="43.04923" lon="0.75918">
        <ele>418.416</ele>
        <time>2017-06-10T14:03:21.008Z</time>
      </trkpt>
      <trkpt lat="43.04918" lon="0.75911">
        <ele>420</ele>
        <time>2017-06-10T14:03:28.008Z</time>
      </trkpt>
      <trkpt lat="43.04916" lon="0.75903">
        <ele>422.208</ele>
        <time>2017-06-10T14:03:41.008Z</time>
      </trkpt>
      <trkpt lat="43.04912" lon="0.75897">
        <ele>423</ele>
        <time>2017-06-10T14:03:46.008Z</time>
      </trkpt>
      <trkpt lat="43.04908" lon="0.7589">
        <ele>423</ele>
        <time>2017-06-10T14:03:50.008Z</time>
      </trkpt>
      <trkpt lat="43.04904" lon="0.75883">
        <ele>424</ele>
        <time>2017-06-10T14:03:54.008Z</time>
      </trkpt>
      <trkpt lat="43.04901" lon="0.75875">
        <ele>424</ele>
        <time>2017-06-10T14:03:57.008Z</time>
      </trkpt>
      <trkpt lat="43.04898" lon="0.75865">
        <ele>418.792</ele>
        <time>2017-06-10T14:04:19.008Z</time>
      </trkpt>
      <trkpt lat="43.04895" lon="0.75857">
        <ele>419</ele>
        <time>2017-06-10T14:04:28.008Z</time>
      </trkpt>
      <trkpt lat="43.04891" lon="0.75852">
        <ele>419</ele>
        <time>2017-06-10T14:04:34.008Z</time>
      </trkpt>
      <trkpt lat="43.04887" lon="0.75845">
        <ele>419</ele>
        <time>2017-06-10T14:04:39.008Z</time>
      </trkpt>
      <trkpt lat="43.04884" lon="0.75837">
        <ele>420</ele>
        <time>2017-06-10T14:04:43.008Z</time>
      </trkpt>
      <trkpt lat="43.04879" lon="0.7583">
        <ele>420</ele>
        <time>2017-06-10T14:04:52.008Z</time>
      </trkpt>
      <trkpt lat="43.04873" lon="0.75823">
        <ele>419</ele>
        <time>2017-06-10T14:05:10.008Z</time>
      </trkpt>
      <trkpt lat="43.04869" lon="0.75813">
        <ele>419</ele>
        <time>2017-06-10T14:05:22.008Z</time>
      </trkpt>
      <trkpt lat="43.04866" lon="0.75802">
        <ele>418</ele>
        <time>2017-06-10T14:05:45.008Z</time>
      </trkpt>
      <trkpt lat="43.04862" lon="0.75791">
        <ele>418</ele>
        <time>2017-06-10T14:05:48.008Z</time>
      </trkpt>
      <trkpt lat="43.04858" lon="0.75777">
        <ele>418.208</ele>
        <time>2017-06-10T14:05:51.008Z</time>
      </trkpt>
      <trkpt lat="43.04855" lon="0.75764">
        <ele>419</ele>
        <time>2017-06-10T14:05:54.008Z</time>
      </trkpt>
      <trkpt lat="43.04851" lon="0.75753">
        <ele>419</ele>
        <time>2017-06-10T14:05:56.008Z</time>
      </trkpt>
      <trkpt lat="43.04848" lon="0.75735">
        <ele>419</ele>
        <time>2017-06-10T14:05:59.008Z</time>
      </trkpt>
      <trkpt lat="43.04845" lon="0.7572">
        <ele>413.792</ele>
        <time>2017-06-10T14:06:02.008Z</time>
      </trkpt>
      <trkpt lat="43.04843" lon="0.75702">
        <ele>411</ele>
        <time>2017-06-10T14:06:06.008Z</time>
      </trkpt>
      <trkpt lat="43.04841" lon="0.75683">
        <ele>409</ele>
        <time>2017-06-10T14:06:09.008Z</time>
      </trkpt>
      <trkpt lat="43.04839" lon="0.75668">
        <ele>407.792</ele>
        <time>2017-06-10T14:06:11.008Z</time>
      </trkpt>
      <trkpt lat="43.04836" lon="0.75654">
        <ele>406</ele>
        <time>2017-06-10T14:06:13.008Z</time>
      </trkpt>
      <trkpt lat="43.04835" lon="0.75641">
        <ele>406</ele>
        <time>2017-06-10T14:06:15.008Z</time>
      </trkpt>
      <trkpt lat="43.04831" lon="0.7563">
        <ele>406</ele>
        <time>2017-06-10T14:06:18.008Z</time>
      </trkpt>
      <trkpt lat="43.04827" lon="0.75619">
        <ele>406</ele>
        <time>2017-06-10T14:06:21.008Z</time>
      </trkpt>
      <trkpt lat="43.04822" lon="0.75608">
        <ele>406</ele>
        <time>2017-06-10T14:06:24.008Z</time>
      </trkpt>
      <trkpt lat="43.04812" lon="0.75602">
        <ele>406</ele>
        <time>2017-06-10T14:06:28.008Z</time>
      </trkpt>
      <trkpt lat="43.04804" lon="0.75597">
        <ele>406.208</ele>
        <time>2017-06-10T14:06:31.008Z</time>
      </trkpt>
      <trkpt lat="43.04796" lon="0.75592">
        <ele>407</ele>
        <time>2017-06-10T14:06:34.008Z</time>
      </trkpt>
      <trkpt lat="43.04787" lon="0.75581">
        <ele>407</ele>
        <time>2017-06-10T14:06:37.008Z</time>
      </trkpt>
      <trkpt lat="43.0478" lon="0.75572">
        <ele>407</ele>
        <time>2017-06-10T14:06:39.008Z</time>
      </trkpt>
      <trkpt lat="43.04775" lon="0.75563">
        <ele>407</ele>
        <time>2017-06-10T14:06:44.008Z</time>
      </trkpt>
      <trkpt lat="43.04783" lon="0.75563">
        <ele>407</ele>
        <time>2017-06-10T14:06:58.008Z</time>
      </trkpt>
      <trkpt lat="43.04787" lon="0.75553">
        <ele>407</ele>
        <time>2017-06-10T14:07:03.008Z</time>
      </trkpt>
      <trkpt lat="43.0479" lon="0.75538">
        <ele>407</ele>
        <time>2017-06-10T14:07:07.008Z</time>
      </trkpt>
      <trkpt lat="43.04798" lon="0.75528">
        <ele>407</ele>
        <time>2017-06-10T14:07:14.008Z</time>
      </trkpt>
      <trkpt lat="43.04806" lon="0.75522">
        <ele>407</ele>
        <time>2017-06-10T14:07:18.008Z</time>
      </trkpt>
      <trkpt lat="43.04816" lon="0.75517">
        <ele>409</ele>
        <time>2017-06-10T14:07:23.008Z</time>
      </trkpt>
      <trkpt lat="43.04827" lon="0.75514">
        <ele>409</ele>
        <time>2017-06-10T14:07:27.008Z</time>
      </trkpt>
      <trkpt lat="43.04836" lon="0.7551">
        <ele>409</ele>
        <time>2017-06-10T14:07:30.008Z</time>
      </trkpt>
      <trkpt lat="43.04843" lon="0.75505">
        <ele>411</ele>
        <time>2017-06-10T14:07:32.008Z</time>
      </trkpt>
      <trkpt lat="43.04851" lon="0.75498">
        <ele>411</ele>
        <time>2017-06-10T14:07:35.008Z</time>
      </trkpt>
      <trkpt lat="43.04857" lon="0.75491">
        <ele>411</ele>
        <time>2017-06-10T14:07:38.008Z</time>
      </trkpt>
      <trkpt lat="43.04863" lon="0.75482">
        <ele>411.416</ele>
        <time>2017-06-10T14:07:41.008Z</time>
      </trkpt>
      <trkpt lat="43.04867" lon="0.7547">
        <ele>413</ele>
        <time>2017-06-10T14:07:45.008Z</time>
      </trkpt>
      <trkpt lat="43.04869" lon="0.75458">
        <ele>414</ele>
        <time>2017-06-10T14:07:49.008Z</time>
      </trkpt>
      <trkpt lat="43.0487" lon="0.75447">
        <ele>415</ele>
        <time>2017-06-10T14:07:52.008Z</time>
      </trkpt>
      <trkpt lat="43.04872" lon="0.75435">
        <ele>415</ele>
        <time>2017-06-10T14:07:56.008Z</time>
      </trkpt>
      <trkpt lat="43.04876" lon="0.75427">
        <ele>415</ele>
        <time>2017-06-10T14:08:00.008Z</time>
      </trkpt>
      <trkpt lat="43.04878" lon="0.75417">
        <ele>418</ele>
        <time>2017-06-10T14:08:04.008Z</time>
      </trkpt>
      <trkpt lat="43.04877" lon="0.75403">
        <ele>418</ele>
        <time>2017-06-10T14:08:10.008Z</time>
      </trkpt>
      <trkpt lat="43.04884" lon="0.75392">
        <ele>418</ele>
        <time>2017-06-10T14:08:15.008Z</time>
      </trkpt>
      <trkpt lat="43.04889" lon="0.75388">
        <ele>418</ele>
        <time>2017-06-10T14:08:17.008Z</time>
      </trkpt>
      <trkpt lat="43.04893" lon="0.75383">
        <ele>418</ele>
        <time>2017-06-10T14:08:19.008Z</time>
      </trkpt>
      <trkpt lat="43.04902" lon="0.75374">
        <ele>419</ele>
        <time>2017-06-10T14:08:23.008Z</time>
      </trkpt>
      <trkpt lat="43.04911" lon="0.75366">
        <ele>419</ele>
        <time>2017-06-10T14:08:27.008Z</time>
      </trkpt>
      <trkpt lat="43.04917" lon="0.75364">
        <ele>419</ele>
        <time>2017-06-10T14:08:29.008Z</time>
      </trkpt>
      <trkpt lat="43.04927" lon="0.75359">
        <ele>419</ele>
        <time>2017-06-10T14:08:33.008Z</time>
      </trkpt>
      <trkpt lat="43.04935" lon="0.75348">
        <ele>419</ele>
        <time>2017-06-10T14:08:37.008Z</time>
      </trkpt>
      <trkpt lat="43.04939" lon="0.75338">
        <ele>419</ele>
        <time>2017-06-10T14:08:40.008Z</time>
      </trkpt>
      <trkpt lat="43.04944" lon="0.75326">
        <ele>421</ele>
        <time>2017-06-10T14:08:43.008Z</time>
      </trkpt>
      <trkpt lat="43.04949" lon="0.75318">
        <ele>421</ele>
        <time>2017-06-10T14:08:45.008Z</time>
      </trkpt>
      <trkpt lat="43.04955" lon="0.7531">
        <ele>421</ele>
        <time>2017-06-10T14:08:48.008Z</time>
      </trkpt>
      <trkpt lat="43.04959" lon="0.75306">
        <ele>404</ele>
        <time>2017-06-10T14:11:36.008Z</time>
      </trkpt>
      <trkpt lat="43.04963" lon="0.75302">
        <ele>404</ele>
        <time>2017-06-10T14:11:38.008Z</time>
      </trkpt>
      <trkpt lat="43.04967" lon="0.75296">
        <ele>404</ele>
        <time>2017-06-10T14:11:40.008Z</time>
      </trkpt>
      <trkpt lat="43.04974" lon="0.75287">
        <ele>404</ele>
        <time>2017-06-10T14:11:43.008Z</time>
      </trkpt>
      <trkpt lat="43.04982" lon="0.75277">
        <ele>404</ele>
        <time>2017-06-10T14:11:47.008Z</time>
      </trkpt>
      <trkpt lat="43.04989" lon="0.75265">
        <ele>404</ele>
        <time>2017-06-10T14:11:50.008Z</time>
      </trkpt>
      <trkpt lat="43.04994" lon="0.75255">
        <ele>404</ele>
        <time>2017-06-10T14:11:52.008Z</time>
      </trkpt>
      <trkpt lat="43.05" lon="0.75245">
        <ele>404</ele>
        <time>2017-06-10T14:11:54.008Z</time>
      </trkpt>
      <trkpt lat="43.05007" lon="0.75233">
        <ele>404</ele>
        <time>2017-06-10T14:11:56.008Z</time>
      </trkpt>
      <trkpt lat="43.05015" lon="0.75223">
        <ele>404</ele>
        <time>2017-06-10T14:11:58.008Z</time>
      </trkpt>
      <trkpt lat="43.05023" lon="0.75211">
        <ele>403</ele>
        <time>2017-06-10T14:12:00.008Z</time>
      </trkpt>
      <trkpt lat="43.05031" lon="0.75203">
        <ele>397</ele>
        <time>2017-06-10T14:12:02.008Z</time>
      </trkpt>
      <trkpt lat="43.0504" lon="0.75195">
        <ele>397</ele>
        <time>2017-06-10T14:12:05.008Z</time>
      </trkpt>
      <trkpt lat="43.05039" lon="0.75184">
        <ele>397</ele>
        <time>2017-06-10T14:12:08.008Z</time>
      </trkpt>
      <trkpt lat="43.05038" lon="0.75175">
        <ele>397.208</ele>
        <time>2017-06-10T14:12:10.008Z</time>
      </trkpt>
      <trkpt lat="43.05038" lon="0.75165">
        <ele>398</ele>
        <time>2017-06-10T14:12:12.008Z</time>
      </trkpt>
      <trkpt lat="43.05037" lon="0.75155">
        <ele>398</ele>
        <time>2017-06-10T14:12:14.008Z</time>
      </trkpt>
      <trkpt lat="43.05034" lon="0.75148">
        <ele>398</ele>
        <time>2017-06-10T14:12:16.008Z</time>
      </trkpt>
      <trkpt lat="43.05028" lon="0.75144">
        <ele>398</ele>
        <time>2017-06-10T14:12:19.008Z</time>
      </trkpt>
      <trkpt lat="43.05023" lon="0.75139">
        <ele>399</ele>
        <time>2017-06-10T14:12:22.008Z</time>
      </trkpt>
      <trkpt lat="43.05017" lon="0.75133">
        <ele>399</ele>
        <time>2017-06-10T14:12:27.008Z</time>
      </trkpt>
      <trkpt lat="43.05012" lon="0.75127">
        <ele>401</ele>
        <time>2017-06-10T14:12:32.008Z</time>
      </trkpt>
      <trkpt lat="43.05007" lon="0.75119">
        <ele>401</ele>
        <time>2017-06-10T14:12:40.008Z</time>
      </trkpt>
      <trkpt lat="43.05005" lon="0.75109">
        <ele>404</ele>
        <time>2017-06-10T14:12:52.008Z</time>
      </trkpt>
      <trkpt lat="43.05002" lon="0.75099">
        <ele>404.416</ele>
        <time>2017-06-10T14:13:01.008Z</time>
      </trkpt>
      <trkpt lat="43.04999" lon="0.7509">
        <ele>406.416</ele>
        <time>2017-06-10T14:13:11.008Z</time>
      </trkpt>
      <trkpt lat="43.04996" lon="0.75083">
        <ele>408</ele>
        <time>2017-06-10T14:13:18.008Z</time>
      </trkpt>
      <trkpt lat="43.04991" lon="0.75075">
        <ele>408</ele>
        <time>2017-06-10T14:13:26.008Z</time>
      </trkpt>
      <trkpt lat="43.04987" lon="0.75066">
        <ele>413</ele>
        <time>2017-06-10T14:13:37.008Z</time>
      </trkpt>
      <trkpt lat="43.04983" lon="0.75056">
        <ele>415</ele>
        <time>2017-06-10T14:13:50.008Z</time>
      </trkpt>
      <trkpt lat="43.04976" lon="0.75046">
        <ele>415.208</ele>
        <time>2017-06-10T14:14:05.008Z</time>
      </trkpt>
      <trkpt lat="43.04971" lon="0.75035">
        <ele>417</ele>
        <time>2017-06-10T14:14:17.008Z</time>
      </trkpt>
      <trkpt lat="43.04965" lon="0.75027">
        <ele>419</ele>
        <time>2017-06-10T14:14:27.008Z</time>
      </trkpt>
      <trkpt lat="43.04959" lon="0.7502">
        <ele>422.208</ele>
        <time>2017-06-10T14:14:36.008Z</time>
      </trkpt>
      <trkpt lat="43.04955" lon="0.75012">
        <ele>423</ele>
        <time>2017-06-10T14:14:45.008Z</time>
      </trkpt>
      <trkpt lat="43.04952" lon="0.75003">
        <ele>426</ele>
        <time>2017-06-10T14:15:09.008Z</time>
      </trkpt>
      <trkpt lat="43.04949" lon="0.74994">
        <ele>427</ele>
        <time>2017-06-10T14:15:26.008Z</time>
      </trkpt>
      <trkpt lat="43.04942" lon="0.74985">
        <ele>430</ele>
        <time>2017-06-10T14:15:32.008Z</time>
      </trkpt>
      <trkpt lat="43.04937" lon="0.74976">
        <ele>433</ele>
        <time>2017-06-10T14:15:38.008Z</time>
      </trkpt>
      <trkpt lat="43.04931" lon="0.74968">
        <ele>434</ele>
        <time>2017-06-10T14:15:47.008Z</time>
      </trkpt>
      <trkpt lat="43.04925" lon="0.74961">
        <ele>434</ele>
        <time>2017-06-10T14:15:57.008Z</time>
      </trkpt>
      <trkpt lat="43.04918" lon="0.74956">
        <ele>435</ele>
        <time>2017-06-10T14:16:08.008Z</time>
      </trkpt>
      <trkpt lat="43.04909" lon="0.74956">
        <ele>436</ele>
        <time>2017-06-10T14:16:19.008Z</time>
      </trkpt>
      <trkpt lat="43.04901" lon="0.74957">
        <ele>438</ele>
        <time>2017-06-10T14:16:29.008Z</time>
      </trkpt>
      <trkpt lat="43.04893" lon="0.74951">
        <ele>440</ele>
        <time>2017-06-10T14:17:26.008Z</time>
      </trkpt>
      <trkpt lat="43.04884" lon="0.74951">
        <ele>443</ele>
        <time>2017-06-10T14:17:35.008Z</time>
      </trkpt>
      <trkpt lat="43.04877" lon="0.74947">
        <ele>443</ele>
        <time>2017-06-10T14:17:44.008Z</time>
      </trkpt>
      <trkpt lat="43.0487" lon="0.74949">
        <ele>443</ele>
        <time>2017-06-10T14:17:52.008Z</time>
      </trkpt>
      <trkpt lat="43.04863" lon="0.74953">
        <ele>443</ele>
        <time>2017-06-10T14:18:00.008Z</time>
      </trkpt>
      <trkpt lat="43.04856" lon="0.74959">
        <ele>442</ele>
        <time>2017-06-10T14:18:10.008Z</time>
      </trkpt>
      <trkpt lat="43.04849" lon="0.74963">
        <ele>451</ele>
        <time>2017-06-10T14:18:19.008Z</time>
      </trkpt>
      <trkpt lat="43.04844" lon="0.74968">
        <ele>452</ele>
        <time>2017-06-10T14:18:29.008Z</time>
      </trkpt>
      <trkpt lat="43.04837" lon="0.74973">
        <ele>452</ele>
        <time>2017-06-10T14:18:40.008Z</time>
      </trkpt>
      <trkpt lat="43.04829" lon="0.74978">
        <ele>453</ele>
        <time>2017-06-10T14:18:47.008Z</time>
      </trkpt>
      <trkpt lat="43.04825" lon="0.74985">
        <ele>457</ele>
        <time>2017-06-10T14:18:52.008Z</time>
      </trkpt>
      <trkpt lat="43.04819" lon="0.74989">
        <ele>458</ele>
        <time>2017-06-10T14:18:57.008Z</time>
      </trkpt>
      <trkpt lat="43.04811" lon="0.74991">
        <ele>460</ele>
        <time>2017-06-10T14:19:02.008Z</time>
      </trkpt>
      <trkpt lat="43.04805" lon="0.74989">
        <ele>460</ele>
        <time>2017-06-10T14:19:08.008Z</time>
      </trkpt>
      <trkpt lat="43.04803" lon="0.7498">
        <ele>460</ele>
        <time>2017-06-10T14:20:15.008Z</time>
      </trkpt>
      <trkpt lat="43.04802" lon="0.74967">
        <ele>459.584</ele>
        <time>2017-06-10T14:20:21.008Z</time>
      </trkpt>
      <trkpt lat="43.04802" lon="0.74955">
        <ele>458</ele>
        <time>2017-06-10T14:20:24.008Z</time>
      </trkpt>
      <trkpt lat="43.04805" lon="0.74942">
        <ele>458</ele>
        <time>2017-06-10T14:20:30.008Z</time>
      </trkpt>
      <trkpt lat="43.04803" lon="0.74928">
        <ele>456</ele>
        <time>2017-06-10T14:20:33.008Z</time>
      </trkpt>
      <trkpt lat="43.048" lon="0.74915">
        <ele>454</ele>
        <time>2017-06-10T14:20:38.008Z</time>
      </trkpt>
      <trkpt lat="43.04799" lon="0.74898">
        <ele>454</ele>
        <time>2017-06-10T14:20:44.008Z</time>
      </trkpt>
      <trkpt lat="43.04798" lon="0.74883">
        <ele>454</ele>
        <time>2017-06-10T14:20:49.008Z</time>
      </trkpt>
      <trkpt lat="43.04797" lon="0.74873">
        <ele>454</ele>
        <time>2017-06-10T14:21:29.008Z</time>
      </trkpt>
      <trkpt lat="43.04794" lon="0.7486">
        <ele>453</ele>
        <time>2017-06-10T14:21:34.008Z</time>
      </trkpt>
      <trkpt lat="43.04792" lon="0.74847">
        <ele>453</ele>
        <time>2017-06-10T14:21:38.008Z</time>
      </trkpt>
      <trkpt lat="43.04792" lon="0.74833">
        <ele>451</ele>
        <time>2017-06-10T14:21:43.008Z</time>
      </trkpt>
      <trkpt lat="43.0479" lon="0.74823">
        <ele>449.208</ele>
        <time>2017-06-10T14:21:52.008Z</time>
      </trkpt>
      <trkpt lat="43.04797" lon="0.74835">
        <ele>448</ele>
        <time>2017-06-10T14:23:54.008Z</time>
      </trkpt>
      <trkpt lat="43.04799" lon="0.74848">
        <ele>449</ele>
        <time>2017-06-10T14:24:05.008Z</time>
      </trkpt>
      <trkpt lat="43.048" lon="0.74861">
        <ele>450</ele>
        <time>2017-06-10T14:24:14.008Z</time>
      </trkpt>
      <trkpt lat="43.04805" lon="0.74873">
        <ele>450</ele>
        <time>2017-06-10T14:24:25.008Z</time>
      </trkpt>
      <trkpt lat="43.04805" lon="0.74888">
        <ele>451</ele>
        <time>2017-06-10T14:24:39.008Z</time>
      </trkpt>
      <trkpt lat="43.04804" lon="0.74902">
        <ele>453</ele>
        <time>2017-06-10T14:24:46.008Z</time>
      </trkpt>
      <trkpt lat="43.04805" lon="0.74916">
        <ele>454</ele>
        <time>2017-06-10T14:24:52.008Z</time>
      </trkpt>
      <trkpt lat="43.04808" lon="0.7493">
        <ele>454</ele>
        <time>2017-06-10T14:24:58.008Z</time>
      </trkpt>
      <trkpt lat="43.04809" lon="0.74941">
        <ele>456</ele>
        <time>2017-06-10T14:25:07.008Z</time>
      </trkpt>
      <trkpt lat="43.04808" lon="0.74955">
        <ele>456</ele>
        <time>2017-06-10T14:25:19.008Z</time>
      </trkpt>
      <trkpt lat="43.04806" lon="0.74969">
        <ele>459</ele>
        <time>2017-06-10T14:25:32.008Z</time>
      </trkpt>
      <trkpt lat="43.04804" lon="0.74984">
        <ele>460</ele>
        <time>2017-06-10T14:25:42.008Z</time>
      </trkpt>
      <trkpt lat="43.04797" lon="0.74979">
        <ele>462</ele>
        <time>2017-06-10T14:25:58.008Z</time>
      </trkpt>
      <trkpt lat="43.04793" lon="0.74968">
        <ele>464</ele>
        <time>2017-06-10T14:26:06.008Z</time>
      </trkpt>
      <trkpt lat="43.04788" lon="0.74956">
        <ele>465</ele>
        <time>2017-06-10T14:26:12.008Z</time>
      </trkpt>
      <trkpt lat="43.04783" lon="0.74944">
        <ele>466</ele>
        <time>2017-06-10T14:26:19.008Z</time>
      </trkpt>
      <trkpt lat="43.04779" lon="0.74933">
        <ele>469</ele>
        <time>2017-06-10T14:26:25.008Z</time>
      </trkpt>
      <trkpt lat="43.04775" lon="0.74919">
        <ele>471.208</ele>
        <time>2017-06-10T14:26:31.008Z</time>
      </trkpt>
      <trkpt lat="43.0477" lon="0.74908">
        <ele>472.208</ele>
        <time>2017-06-10T14:26:36.008Z</time>
      </trkpt>
      <trkpt lat="43.04762" lon="0.74897">
        <ele>473.416</ele>
        <time>2017-06-10T14:26:41.008Z</time>
      </trkpt>
      <trkpt lat="43.04757" lon="0.74887">
        <ele>475.208</ele>
        <time>2017-06-10T14:26:46.008Z</time>
      </trkpt>
      <trkpt lat="43.0475" lon="0.74878">
        <ele>476.41188249309</ele>
        <time>2017-06-10T14:26:51.008Z</time>
      </trkpt>
      <trkpt lat="43.04744" lon="0.74867">
        <ele>477</ele>
        <time>2017-06-10T14:26:57.008Z</time>
      </trkpt>
      <trkpt lat="43.04739" lon="0.74855">
        <ele>477.208</ele>
        <time>2017-06-10T14:27:01.008Z</time>
      </trkpt>
      <trkpt lat="43.04731" lon="0.74845">
        <ele>478</ele>
        <time>2017-06-10T14:27:06.008Z</time>
      </trkpt>
      <trkpt lat="43.04724" lon="0.74834">
        <ele>480</ele>
        <time>2017-06-10T14:27:12.008Z</time>
      </trkpt>
      <trkpt lat="43.04719" lon="0.7482">
        <ele>480</ele>
        <time>2017-06-10T14:27:17.008Z</time>
      </trkpt>
      <trkpt lat="43.04713" lon="0.74808">
        <ele>481</ele>
        <time>2017-06-10T14:27:22.008Z</time>
      </trkpt>
      <trkpt lat="43.04707" lon="0.74798">
        <ele>481</ele>
        <time>2017-06-10T14:27:26.008Z</time>
      </trkpt>
      <trkpt lat="43.04699" lon="0.74788">
        <ele>481.208</ele>
        <time>2017-06-10T14:27:31.008Z</time>
      </trkpt>
      <trkpt lat="43.04691" lon="0.74779">
        <ele>482</ele>
        <time>2017-06-10T14:27:37.008Z</time>
      </trkpt>
      <trkpt lat="43.04681" lon="0.74769">
        <ele>486</ele>
        <time>2017-06-10T14:27:42.008Z</time>
      </trkpt>
      <trkpt lat="43.04671" lon="0.74764">
        <ele>488</ele>
        <time>2017-06-10T14:27:47.008Z</time>
      </trkpt>
      <trkpt lat="43.04663" lon="0.74758">
        <ele>488</ele>
        <time>2017-06-10T14:27:51.008Z</time>
      </trkpt>
      <trkpt lat="43.04654" lon="0.74752">
        <ele>488</ele>
        <time>2017-06-10T14:27:55.008Z</time>
      </trkpt>
      <trkpt lat="43.04643" lon="0.74745">
        <ele>489</ele>
        <time>2017-06-10T14:28:00.008Z</time>
      </trkpt>
      <trkpt lat="43.04633" lon="0.74739">
        <ele>489</ele>
        <time>2017-06-10T14:28:04.008Z</time>
      </trkpt>
      <trkpt lat="43.04622" lon="0.74734">
        <ele>489</ele>
        <time>2017-06-10T14:28:09.008Z</time>
      </trkpt>
      <trkpt lat="43.04611" lon="0.74734">
        <ele>491</ele>
        <time>2017-06-10T14:28:14.008Z</time>
      </trkpt>
      <trkpt lat="43.04602" lon="0.74733">
        <ele>491</ele>
        <time>2017-06-10T14:28:18.008Z</time>
      </trkpt>
      <trkpt lat="43.04591" lon="0.74734">
        <ele>493</ele>
        <time>2017-06-10T14:28:23.008Z</time>
      </trkpt>
      <trkpt lat="43.04581" lon="0.74735">
        <ele>493</ele>
        <time>2017-06-10T14:28:28.008Z</time>
      </trkpt>
      <trkpt lat="43.04569" lon="0.74737">
        <ele>494</ele>
        <time>2017-06-10T14:28:32.008Z</time>
      </trkpt>
      <trkpt lat="43.04558" lon="0.7474">
        <ele>494</ele>
        <time>2017-06-10T14:28:37.008Z</time>
      </trkpt>
      <trkpt lat="43.04547" lon="0.74742">
        <ele>495</ele>
        <time>2017-06-10T14:28:42.008Z</time>
      </trkpt>
      <trkpt lat="43.04537" lon="0.74746">
        <ele>495</ele>
        <time>2017-06-10T14:28:47.008Z</time>
      </trkpt>
      <trkpt lat="43.04527" lon="0.74752">
        <ele>497</ele>
        <time>2017-06-10T14:28:52.008Z</time>
      </trkpt>
      <trkpt lat="43.04516" lon="0.74758">
        <ele>497</ele>
        <time>2017-06-10T14:28:58.008Z</time>
      </trkpt>
      <trkpt lat="43.04506" lon="0.74762">
        <ele>500</ele>
        <time>2017-06-10T14:29:02.008Z</time>
      </trkpt>
      <trkpt lat="43.04497" lon="0.7477">
        <ele>500</ele>
        <time>2017-06-10T14:29:07.008Z</time>
      </trkpt>
      <trkpt lat="43.04488" lon="0.74778">
        <ele>500</ele>
        <time>2017-06-10T14:29:15.008Z</time>
      </trkpt>
      <trkpt lat="43.04478" lon="0.7478">
        <ele>500.416</ele>
        <time>2017-06-10T14:29:21.008Z</time>
      </trkpt>
      <trkpt lat="43.04468" lon="0.74783">
        <ele>502</ele>
        <time>2017-06-10T14:29:26.008Z</time>
      </trkpt>
      <trkpt lat="43.04458" lon="0.74786">
        <ele>505</ele>
        <time>2017-06-10T14:29:32.008Z</time>
      </trkpt>
      <trkpt lat="43.04446" lon="0.74787">
        <ele>506</ele>
        <time>2017-06-10T14:29:39.008Z</time>
      </trkpt>
      <trkpt lat="43.04436" lon="0.74783">
        <ele>506</ele>
        <time>2017-06-10T14:29:45.008Z</time>
      </trkpt>
      <trkpt lat="43.04425" lon="0.74781">
        <ele>506</ele>
        <time>2017-06-10T14:29:50.008Z</time>
      </trkpt>
      <trkpt lat="43.04414" lon="0.74779">
        <ele>508</ele>
        <time>2017-06-10T14:29:56.008Z</time>
      </trkpt>
      <trkpt lat="43.04403" lon="0.74774">
        <ele>509</ele>
        <time>2017-06-10T14:30:02.008Z</time>
      </trkpt>
      <trkpt lat="43.04392" lon="0.74772">
        <ele>509</ele>
        <time>2017-06-10T14:30:07.008Z</time>
      </trkpt>
      <trkpt lat="43.04382" lon="0.7477">
        <ele>509.208</ele>
        <time>2017-06-10T14:30:11.008Z</time>
      </trkpt>
      <trkpt lat="43.04371" lon="0.74768">
        <ele>510</ele>
        <time>2017-06-10T14:30:16.008Z</time>
      </trkpt>
      <trkpt lat="43.04361" lon="0.74764">
        <ele>510.208</ele>
        <time>2017-06-10T14:30:21.008Z</time>
      </trkpt>
      <trkpt lat="43.04349" lon="0.74765">
        <ele>511</ele>
        <time>2017-06-10T14:30:26.008Z</time>
      </trkpt>
      <trkpt lat="43.04339" lon="0.74768">
        <ele>511.208</ele>
        <time>2017-06-10T14:30:31.008Z</time>
      </trkpt>
      <trkpt lat="43.04329" lon="0.74771">
        <ele>512</ele>
        <time>2017-06-10T14:30:36.008Z</time>
      </trkpt>
      <trkpt lat="43.04319" lon="0.74775">
        <ele>512</ele>
        <time>2017-06-10T14:30:40.008Z</time>
      </trkpt>
      <trkpt lat="43.04311" lon="0.74782">
        <ele>512</ele>
        <time>2017-06-10T14:30:43.008Z</time>
      </trkpt>
      <trkpt lat="43.04304" lon="0.74788">
        <ele>512</ele>
        <time>2017-06-10T14:30:46.008Z</time>
      </trkpt>
      <trkpt lat="43.04298" lon="0.74796">
        <ele>512</ele>
        <time>2017-06-10T14:30:49.008Z</time>
      </trkpt>
      <trkpt lat="43.04293" lon="0.74806">
        <ele>513</ele>
        <time>2017-06-10T14:30:53.008Z</time>
      </trkpt>
      <trkpt lat="43.04289" lon="0.74816">
        <ele>513</ele>
        <time>2017-06-10T14:30:57.008Z</time>
      </trkpt>
      <trkpt lat="43.04284" lon="0.74829">
        <ele>513.208</ele>
        <time>2017-06-10T14:31:01.008Z</time>
      </trkpt>
      <trkpt lat="43.04278" lon="0.74842">
        <ele>514</ele>
        <time>2017-06-10T14:31:05.008Z</time>
      </trkpt>
      <trkpt lat="43.04274" lon="0.74852">
        <ele>514</ele>
        <time>2017-06-10T14:31:08.008Z</time>
      </trkpt>
      <trkpt lat="43.0427" lon="0.74863">
        <ele>514.208</ele>
        <time>2017-06-10T14:31:11.008Z</time>
      </trkpt>
      <trkpt lat="43.04266" lon="0.74873">
        <ele>515</ele>
        <time>2017-06-10T14:31:14.008Z</time>
      </trkpt>
      <trkpt lat="43.04262" lon="0.74884">
        <ele>515</ele>
        <time>2017-06-10T14:31:17.008Z</time>
      </trkpt>
      <trkpt lat="43.04254" lon="0.74896">
        <ele>516.456</ele>
        <time>2017-06-10T14:31:21.008Z</time>
      </trkpt>
      <trkpt lat="43.0425" lon="0.74908">
        <ele>525</ele>
        <time>2017-06-10T14:31:24.008Z</time>
      </trkpt>
      <trkpt lat="43.04246" lon="0.74922">
        <ele>525</ele>
        <time>2017-06-10T14:31:28.008Z</time>
      </trkpt>
      <trkpt lat="43.04244" lon="0.74935">
        <ele>525</ele>
        <time>2017-06-10T14:31:31.008Z</time>
      </trkpt>
      <trkpt lat="43.04241" lon="0.74948">
        <ele>525</ele>
        <time>2017-06-10T14:31:35.008Z</time>
      </trkpt>
      <trkpt lat="43.04237" lon="0.74964">
        <ele>525</ele>
        <time>2017-06-10T14:31:39.008Z</time>
      </trkpt>
      <trkpt lat="43.04234" lon="0.74977">
        <ele>525</ele>
        <time>2017-06-10T14:31:42.008Z</time>
      </trkpt>
      <trkpt lat="43.04229" lon="0.7499">
        <ele>525</ele>
        <time>2017-06-10T14:31:45.008Z</time>
      </trkpt>
      <trkpt lat="43.04225" lon="0.75003">
        <ele>525</ele>
        <time>2017-06-10T14:31:48.008Z</time>
      </trkpt>
      <trkpt lat="43.04222" lon="0.75019">
        <ele>525</ele>
        <time>2017-06-10T14:31:52.008Z</time>
      </trkpt>
      <trkpt lat="43.04217" lon="0.75032">
        <ele>525</ele>
        <time>2017-06-10T14:31:55.008Z</time>
      </trkpt>
      <trkpt lat="43.04214" lon="0.75045">
        <ele>525</ele>
        <time>2017-06-10T14:31:58.008Z</time>
      </trkpt>
      <trkpt lat="43.04211" lon="0.7506">
        <ele>525</ele>
        <time>2017-06-10T14:32:02.008Z</time>
      </trkpt>
      <trkpt lat="43.0421" lon="0.75072">
        <ele>525</ele>
        <time>2017-06-10T14:32:05.008Z</time>
      </trkpt>
      <trkpt lat="43.04209" lon="0.75085">
        <ele>525</ele>
        <time>2017-06-10T14:32:08.008Z</time>
      </trkpt>
      <trkpt lat="43.04207" lon="0.75099">
        <ele>525</ele>
        <time>2017-06-10T14:32:11.008Z</time>
      </trkpt>
      <trkpt lat="43.04207" lon="0.75113">
        <ele>525</ele>
        <time>2017-06-10T14:32:14.008Z</time>
      </trkpt>
      <trkpt lat="43.04205" lon="0.7513">
        <ele>525</ele>
        <time>2017-06-10T14:32:17.008Z</time>
      </trkpt>
      <trkpt lat="43.04204" lon="0.75145">
        <ele>525</ele>
        <time>2017-06-10T14:32:19.008Z</time>
      </trkpt>
      <trkpt lat="43.04201" lon="0.75161">
        <ele>524.584</ele>
        <time>2017-06-10T14:32:21.008Z</time>
      </trkpt>
      <trkpt lat="43.042" lon="0.75175">
        <ele>523</ele>
        <time>2017-06-10T14:32:23.008Z</time>
      </trkpt>
      <trkpt lat="43.04196" lon="0.75194">
        <ele>522.168</ele>
        <time>2017-06-10T14:32:26.008Z</time>
      </trkpt>
      <trkpt lat="43.04192" lon="0.75207">
        <ele>519</ele>
        <time>2017-06-10T14:32:28.008Z</time>
      </trkpt>
      <trkpt lat="43.04189" lon="0.75221">
        <ele>519</ele>
        <time>2017-06-10T14:32:30.008Z</time>
      </trkpt>
      <trkpt lat="43.04184" lon="0.75234">
        <ele>519</ele>
        <time>2017-06-10T14:32:32.008Z</time>
      </trkpt>
      <trkpt lat="43.04176" lon="0.7525">
        <ele>519</ele>
        <time>2017-06-10T14:32:35.008Z</time>
      </trkpt>
      <trkpt lat="43.04167" lon="0.75263">
        <ele>518</ele>
        <time>2017-06-10T14:32:38.008Z</time>
      </trkpt>
      <trkpt lat="43.0416" lon="0.75275">
        <ele>516</ele>
        <time>2017-06-10T14:32:42.008Z</time>
      </trkpt>
      <trkpt lat="43.04148" lon="0.75275">
        <ele>515</ele>
        <time>2017-06-10T14:32:47.008Z</time>
      </trkpt>
      <trkpt lat="43.04142" lon="0.75262">
        <ele>514</ele>
        <time>2017-06-10T14:33:11.008Z</time>
      </trkpt>
      <trkpt lat="43.04141" lon="0.75246">
        <ele>514</ele>
        <time>2017-06-10T14:33:16.008Z</time>
      </trkpt>
      <trkpt lat="43.04145" lon="0.7523">
        <ele>514</ele>
        <time>2017-06-10T14:33:20.008Z</time>
      </trkpt>
      <trkpt lat="43.04147" lon="0.75217">
        <ele>511</ele>
        <time>2017-06-10T14:33:24.008Z</time>
      </trkpt>
      <trkpt lat="43.04151" lon="0.75201">
        <ele>508</ele>
        <time>2017-06-10T14:33:30.008Z</time>
      </trkpt>
      <trkpt lat="43.04141" lon="0.75193">
        <ele>503.792</ele>
        <time>2017-06-10T14:33:37.008Z</time>
      </trkpt>
      <trkpt lat="43.04132" lon="0.75184">
        <ele>500</ele>
        <time>2017-06-10T14:33:41.008Z</time>
      </trkpt>
      <trkpt lat="43.04123" lon="0.75171">
        <ele>497.792</ele>
        <time>2017-06-10T14:33:45.008Z</time>
      </trkpt>
      <trkpt lat="43.04114" lon="0.7516">
        <ele>495.792</ele>
        <time>2017-06-10T14:33:48.008Z</time>
      </trkpt>
      <trkpt lat="43.04104" lon="0.7515">
        <ele>494</ele>
        <time>2017-06-10T14:33:51.008Z</time>
      </trkpt>
      <trkpt lat="43.04094" lon="0.75138">
        <ele>492</ele>
        <time>2017-06-10T14:33:55.008Z</time>
      </trkpt>
      <trkpt lat="43.04087" lon="0.75127">
        <ele>489.792</ele>
        <time>2017-06-10T14:33:58.008Z</time>
      </trkpt>
      <trkpt lat="43.0408" lon="0.75119">
        <ele>488</ele>
        <time>2017-06-10T14:34:01.008Z</time>
      </trkpt>
      <trkpt lat="43.04072" lon="0.75109">
        <ele>487</ele>
        <time>2017-06-10T14:34:04.008Z</time>
      </trkpt>
      <trkpt lat="43.04063" lon="0.75103">
        <ele>485</ele>
        <time>2017-06-10T14:34:08.008Z</time>
      </trkpt>
      <trkpt lat="43.04053" lon="0.75097">
        <ele>482</ele>
        <time>2017-06-10T14:34:11.008Z</time>
      </trkpt>
      <trkpt lat="43.04044" lon="0.75092">
        <ele>481</ele>
        <time>2017-06-10T14:34:13.008Z</time>
      </trkpt>
      <trkpt lat="43.04033" lon="0.75085">
        <ele>479.792</ele>
        <time>2017-06-10T14:34:16.008Z</time>
      </trkpt>
      <trkpt lat="43.04021" lon="0.75077">
        <ele>476.792</ele>
        <time>2017-06-10T14:34:19.008Z</time>
      </trkpt>
      <trkpt lat="43.04009" lon="0.75065">
        <ele>474.792</ele>
        <time>2017-06-10T14:34:22.008Z</time>
      </trkpt>
      <trkpt lat="43.03998" lon="0.75059">
        <ele>472.792</ele>
        <time>2017-06-10T14:34:25.008Z</time>
      </trkpt>
      <trkpt lat="43.03988" lon="0.75057">
        <ele>469.792</ele>
        <time>2017-06-10T14:34:28.008Z</time>
      </trkpt>
      <trkpt lat="43.03979" lon="0.75047">
        <ele>468.792</ele>
        <time>2017-06-10T14:34:31.008Z</time>
      </trkpt>
      <trkpt lat="43.03971" lon="0.75038">
        <ele>467</ele>
        <time>2017-06-10T14:34:34.008Z</time>
      </trkpt>
      <trkpt lat="43.03961" lon="0.75031">
        <ele>467</ele>
        <time>2017-06-10T14:34:39.008Z</time>
      </trkpt>
      <trkpt lat="43.0395" lon="0.75033">
        <ele>467</ele>
        <time>2017-06-10T14:34:46.008Z</time>
      </trkpt>
      <trkpt lat="43.03938" lon="0.75032">
        <ele>467.416</ele>
        <time>2017-06-10T14:34:51.008Z</time>
      </trkpt>
      <trkpt lat="43.03926" lon="0.75026">
        <ele>469.416</ele>
        <time>2017-06-10T14:34:56.008Z</time>
      </trkpt>
      <trkpt lat="43.03915" lon="0.75022">
        <ele>471</ele>
        <time>2017-06-10T14:35:00.008Z</time>
      </trkpt>
      <trkpt lat="43.03905" lon="0.75019">
        <ele>471</ele>
        <time>2017-06-10T14:35:04.008Z</time>
      </trkpt>
      <trkpt lat="43.03895" lon="0.75016">
        <ele>471</ele>
        <time>2017-06-10T14:35:08.008Z</time>
      </trkpt>
      <trkpt lat="43.03885" lon="0.75012">
        <ele>471.416</ele>
        <time>2017-06-10T14:35:11.008Z</time>
      </trkpt>
      <trkpt lat="43.03873" lon="0.75007">
        <ele>473</ele>
        <time>2017-06-10T14:35:14.008Z</time>
      </trkpt>
      <trkpt lat="43.03862" lon="0.75008">
        <ele>473</ele>
        <time>2017-06-10T14:35:18.008Z</time>
      </trkpt>
      <trkpt lat="43.03852" lon="0.75011">
        <ele>476</ele>
        <time>2017-06-10T14:35:23.008Z</time>
      </trkpt>
      <trkpt lat="43.03842" lon="0.75014">
        <ele>478</ele>
        <time>2017-06-10T14:35:28.008Z</time>
      </trkpt>
      <trkpt lat="43.03831" lon="0.7502">
        <ele>479</ele>
        <time>2017-06-10T14:35:34.008Z</time>
      </trkpt>
      <trkpt lat="43.0382" lon="0.75024">
        <ele>481</ele>
        <time>2017-06-10T14:35:40.008Z</time>
      </trkpt>
      <trkpt lat="43.03807" lon="0.75027">
        <ele>482</ele>
        <time>2017-06-10T14:35:45.008Z</time>
      </trkpt>
      <trkpt lat="43.03797" lon="0.7503">
        <ele>482</ele>
        <time>2017-06-10T14:35:49.008Z</time>
      </trkpt>
      <trkpt lat="43.03787" lon="0.75038">
        <ele>483</ele>
        <time>2017-06-10T14:35:54.008Z</time>
      </trkpt>
      <trkpt lat="43.03778" lon="0.75045">
        <ele>483</ele>
        <time>2017-06-10T14:35:59.008Z</time>
      </trkpt>
      <trkpt lat="43.0377" lon="0.75055">
        <ele>488</ele>
        <time>2017-06-10T14:36:05.008Z</time>
      </trkpt>
      <trkpt lat="43.03759" lon="0.75059">
        <ele>488</ele>
        <time>2017-06-10T14:36:11.008Z</time>
      </trkpt>
      <trkpt lat="43.03746" lon="0.75062">
        <ele>488</ele>
        <time>2017-06-10T14:36:15.008Z</time>
      </trkpt>
      <trkpt lat="43.03733" lon="0.75062">
        <ele>488</ele>
        <time>2017-06-10T14:36:19.008Z</time>
      </trkpt>
      <trkpt lat="43.03719" lon="0.75059">
        <ele>485</ele>
        <time>2017-06-10T14:36:22.008Z</time>
      </trkpt>
      <trkpt lat="43.03708" lon="0.7506">
        <ele>485</ele>
        <time>2017-06-10T14:36:24.008Z</time>
      </trkpt>
      <trkpt lat="43.03694" lon="0.7506">
        <ele>482</ele>
        <time>2017-06-10T14:36:27.008Z</time>
      </trkpt>
      <trkpt lat="43.03683" lon="0.75061">
        <ele>482</ele>
        <time>2017-06-10T14:36:29.008Z</time>
      </trkpt>
      <trkpt lat="43.03671" lon="0.7506">
        <ele>481.584</ele>
        <time>2017-06-10T14:36:31.008Z</time>
      </trkpt>
      <trkpt lat="43.03661" lon="0.75059">
        <ele>479</ele>
        <time>2017-06-10T14:36:33.008Z</time>
      </trkpt>
      <trkpt lat="43.03649" lon="0.75065">
        <ele>479</ele>
        <time>2017-06-10T14:36:36.008Z</time>
      </trkpt>
      <trkpt lat="43.0364" lon="0.75072">
        <ele>481</ele>
        <time>2017-06-10T14:36:39.008Z</time>
      </trkpt>
      <trkpt lat="43.03629" lon="0.7507">
        <ele>481</ele>
        <time>2017-06-10T14:36:43.008Z</time>
      </trkpt>
      <trkpt lat="43.03619" lon="0.75065">
        <ele>481</ele>
        <time>2017-06-10T14:36:46.008Z</time>
      </trkpt>
      <trkpt lat="43.03608" lon="0.75056">
        <ele>481</ele>
        <time>2017-06-10T14:36:50.008Z</time>
      </trkpt>
      <trkpt lat="43.03598" lon="0.75047">
        <ele>481</ele>
        <time>2017-06-10T14:36:54.008Z</time>
      </trkpt>
      <trkpt lat="43.03589" lon="0.75037">
        <ele>481</ele>
        <time>2017-06-10T14:36:59.008Z</time>
      </trkpt>
      <trkpt lat="43.03581" lon="0.75025">
        <ele>484</ele>
        <time>2017-06-10T14:37:04.008Z</time>
      </trkpt>
      <trkpt lat="43.03575" lon="0.75014">
        <ele>484</ele>
        <time>2017-06-10T14:37:07.008Z</time>
      </trkpt>
      <trkpt lat="43.03567" lon="0.75">
        <ele>484</ele>
        <time>2017-06-10T14:37:10.008Z</time>
      </trkpt>
      <trkpt lat="43.03559" lon="0.74985">
        <ele>483</ele>
        <time>2017-06-10T14:37:13.008Z</time>
      </trkpt>
      <trkpt lat="43.03552" lon="0.74972">
        <ele>483</ele>
        <time>2017-06-10T14:37:16.008Z</time>
      </trkpt>
      <trkpt lat="43.03544" lon="0.74954">
        <ele>483</ele>
        <time>2017-06-10T14:37:19.008Z</time>
      </trkpt>
      <trkpt lat="43.03538" lon="0.74938">
        <ele>482.792</ele>
        <time>2017-06-10T14:37:21.008Z</time>
      </trkpt>
      <trkpt lat="43.03534" lon="0.74923">
        <ele>482</ele>
        <time>2017-06-10T14:37:23.008Z</time>
      </trkpt>
      <trkpt lat="43.0353" lon="0.74906">
        <ele>482</ele>
        <time>2017-06-10T14:37:25.008Z</time>
      </trkpt>
      <trkpt lat="43.03529" lon="0.74889">
        <ele>482</ele>
        <time>2017-06-10T14:37:27.008Z</time>
      </trkpt>
      <trkpt lat="43.0353" lon="0.74874">
        <ele>482</ele>
        <time>2017-06-10T14:37:29.008Z</time>
      </trkpt>
      <trkpt lat="43.0353" lon="0.7486">
        <ele>480.544</ele>
        <time>2017-06-10T14:37:31.008Z</time>
      </trkpt>
      <trkpt lat="43.03532" lon="0.74842">
        <ele>469.792</ele>
        <time>2017-06-10T14:37:33.008Z</time>
      </trkpt>
      <trkpt lat="43.03534" lon="0.74824">
        <ele>468.792</ele>
        <time>2017-06-10T14:37:35.008Z</time>
      </trkpt>
      <trkpt lat="43.03538" lon="0.7481">
        <ele>466.792</ele>
        <time>2017-06-10T14:37:37.008Z</time>
      </trkpt>
      <trkpt lat="43.03543" lon="0.74796">
        <ele>464.792</ele>
        <time>2017-06-10T14:37:39.008Z</time>
      </trkpt>
      <trkpt lat="43.03547" lon="0.74781">
        <ele>462.792</ele>
        <time>2017-06-10T14:37:41.008Z</time>
      </trkpt>
      <trkpt lat="43.0355" lon="0.74759">
        <ele>460.584</ele>
        <time>2017-06-10T14:37:43.008Z</time>
      </trkpt>
      <trkpt lat="43.03556" lon="0.74739">
        <ele>456.792</ele>
        <time>2017-06-10T14:37:45.008Z</time>
      </trkpt>
      <trkpt lat="43.03559" lon="0.74721">
        <ele>454.792</ele>
        <time>2017-06-10T14:37:47.008Z</time>
      </trkpt>
      <trkpt lat="43.03561" lon="0.74702">
        <ele>453</ele>
        <time>2017-06-10T14:37:49.008Z</time>
      </trkpt>
      <trkpt lat="43.03557" lon="0.74684">
        <ele>453</ele>
        <time>2017-06-10T14:37:51.008Z</time>
      </trkpt>
      <trkpt lat="43.03551" lon="0.74669">
        <ele>453</ele>
        <time>2017-06-10T14:37:53.008Z</time>
      </trkpt>
      <trkpt lat="43.03544" lon="0.74656">
        <ele>453</ele>
        <time>2017-06-10T14:37:55.008Z</time>
      </trkpt>
      <trkpt lat="43.03537" lon="0.74645">
        <ele>453</ele>
        <time>2017-06-10T14:37:57.008Z</time>
      </trkpt>
      <trkpt lat="43.03527" lon="0.74633">
        <ele>453</ele>
        <time>2017-06-10T14:37:59.008Z</time>
      </trkpt>
      <trkpt lat="43.03519" lon="0.74622">
        <ele>451.584</ele>
        <time>2017-06-10T14:38:01.008Z</time>
      </trkpt>
      <trkpt lat="43.03512" lon="0.74608">
        <ele>450</ele>
        <time>2017-06-10T14:38:03.008Z</time>
      </trkpt>
      <trkpt lat="43.03503" lon="0.74595">
        <ele>450</ele>
        <time>2017-06-10T14:38:05.008Z</time>
      </trkpt>
      <trkpt lat="43.03495" lon="0.74584">
        <ele>447</ele>
        <time>2017-06-10T14:38:07.008Z</time>
      </trkpt>
      <trkpt lat="43.03482" lon="0.74578">
        <ele>447</ele>
        <time>2017-06-10T14:38:10.008Z</time>
      </trkpt>
      <trkpt lat="43.03468" lon="0.74575">
        <ele>445</ele>
        <time>2017-06-10T14:38:13.008Z</time>
      </trkpt>
      <trkpt lat="43.03456" lon="0.74573">
        <ele>445</ele>
        <time>2017-06-10T14:38:15.008Z</time>
      </trkpt>
      <trkpt lat="43.03444" lon="0.74569">
        <ele>444</ele>
        <time>2017-06-10T14:38:17.008Z</time>
      </trkpt>
      <trkpt lat="43.03431" lon="0.74569">
        <ele>444</ele>
        <time>2017-06-10T14:38:19.008Z</time>
      </trkpt>
      <trkpt lat="43.03418" lon="0.7457">
        <ele>443.376</ele>
        <time>2017-06-10T14:38:21.008Z</time>
      </trkpt>
      <trkpt lat="43.03406" lon="0.74569">
        <ele>441</ele>
        <time>2017-06-10T14:38:23.008Z</time>
      </trkpt>
      <trkpt lat="43.03393" lon="0.7457">
        <ele>441</ele>
        <time>2017-06-10T14:38:25.008Z</time>
      </trkpt>
      <trkpt lat="43.03383" lon="0.74571">
        <ele>438</ele>
        <time>2017-06-10T14:38:27.008Z</time>
      </trkpt>
      <trkpt lat="43.03376" lon="0.74557">
        <ele>438</ele>
        <time>2017-06-10T14:38:30.008Z</time>
      </trkpt>
      <trkpt lat="43.03372" lon="0.74544">
        <ele>429.792</ele>
        <time>2017-06-10T14:38:33.008Z</time>
      </trkpt>
      <trkpt lat="43.03366" lon="0.74528">
        <ele>427</ele>
        <time>2017-06-10T14:38:37.008Z</time>
      </trkpt>
      <trkpt lat="43.03358" lon="0.74518">
        <ele>425.208</ele>
        <time>2017-06-10T14:38:42.008Z</time>
      </trkpt>
      <trkpt lat="43.03367" lon="0.74512">
        <ele>426</ele>
        <time>2017-06-10T14:39:14.008Z</time>
      </trkpt>
      <trkpt lat="43.03378" lon="0.74504">
        <ele>426</ele>
        <time>2017-06-10T14:39:17.008Z</time>
      </trkpt>
      <trkpt lat="43.03391" lon="0.74495">
        <ele>426</ele>
        <time>2017-06-10T14:39:20.008Z</time>
      </trkpt>
      <trkpt lat="43.03404" lon="0.74488">
        <ele>423</ele>
        <time>2017-06-10T14:39:22.008Z</time>
      </trkpt>
      <trkpt lat="43.03415" lon="0.7448">
        <ele>423</ele>
        <time>2017-06-10T14:39:24.008Z</time>
      </trkpt>
      <trkpt lat="43.03427" lon="0.74474">
        <ele>422.584</ele>
        <time>2017-06-10T14:39:26.008Z</time>
      </trkpt>
      <trkpt lat="43.0344" lon="0.7447">
        <ele>421</ele>
        <time>2017-06-10T14:39:28.008Z</time>
      </trkpt>
      <trkpt lat="43.03452" lon="0.74467">
        <ele>421</ele>
        <time>2017-06-10T14:39:30.008Z</time>
      </trkpt>
      <trkpt lat="43.03464" lon="0.7446">
        <ele>420</ele>
        <time>2017-06-10T14:39:33.008Z</time>
      </trkpt>
      <trkpt lat="43.03452" lon="0.74453">
        <ele>419</ele>
        <time>2017-06-10T14:39:39.008Z</time>
      </trkpt>
      <trkpt lat="43.03442" lon="0.74448">
        <ele>418.792</ele>
        <time>2017-06-10T14:39:41.008Z</time>
      </trkpt>
      <trkpt lat="43.03432" lon="0.74444">
        <ele>418</ele>
        <time>2017-06-10T14:39:43.008Z</time>
      </trkpt>
      <trkpt lat="43.0342" lon="0.74439">
        <ele>418</ele>
        <time>2017-06-10T14:39:45.008Z</time>
      </trkpt>
      <trkpt lat="43.03407" lon="0.74433">
        <ele>418</ele>
        <time>2017-06-10T14:39:47.008Z</time>
      </trkpt>
      <trkpt lat="43.03394" lon="0.74425">
        <ele>418</ele>
        <time>2017-06-10T14:39:49.008Z</time>
      </trkpt>
      <trkpt lat="43.0338" lon="0.74418">
        <ele>417.376</ele>
        <time>2017-06-10T14:39:51.008Z</time>
      </trkpt>
      <trkpt lat="43.03367" lon="0.74415">
        <ele>415</ele>
        <time>2017-06-10T14:39:53.008Z</time>
      </trkpt>
      <trkpt lat="43.03352" lon="0.74409">
        <ele>415</ele>
        <time>2017-06-10T14:39:55.008Z</time>
      </trkpt>
      <trkpt lat="43.03337" lon="0.74402">
        <ele>413</ele>
        <time>2017-06-10T14:39:57.008Z</time>
      </trkpt>
      <trkpt lat="43.0332" lon="0.74394">
        <ele>413</ele>
        <time>2017-06-10T14:39:59.008Z</time>
      </trkpt>
      <trkpt lat="43.03305" lon="0.74387">
        <ele>412.168</ele>
        <time>2017-06-10T14:40:01.008Z</time>
      </trkpt>
      <trkpt lat="43.03293" lon="0.74378">
        <ele>409</ele>
        <time>2017-06-10T14:40:03.008Z</time>
      </trkpt>
      <trkpt lat="43.03288" lon="0.74363">
        <ele>408.792</ele>
        <time>2017-06-10T14:40:05.008Z</time>
      </trkpt>
      <trkpt lat="43.03289" lon="0.74346">
        <ele>408</ele>
        <time>2017-06-10T14:40:07.008Z</time>
      </trkpt>
      <trkpt lat="43.03293" lon="0.74329">
        <ele>408</ele>
        <time>2017-06-10T14:40:09.008Z</time>
      </trkpt>
      <trkpt lat="43.03299" lon="0.74312">
        <ele>407.792</ele>
        <time>2017-06-10T14:40:11.008Z</time>
      </trkpt>
      <trkpt lat="43.03304" lon="0.74295">
        <ele>407</ele>
        <time>2017-06-10T14:40:13.008Z</time>
      </trkpt>
      <trkpt lat="43.03309" lon="0.74278">
        <ele>407</ele>
        <time>2017-06-10T14:40:15.008Z</time>
      </trkpt>
      <trkpt lat="43.03314" lon="0.74261">
        <ele>407</ele>
        <time>2017-06-10T14:40:17.008Z</time>
      </trkpt>
      <trkpt lat="43.03319" lon="0.74244">
        <ele>407</ele>
        <time>2017-06-10T14:40:19.008Z</time>
      </trkpt>
      <trkpt lat="43.03323" lon="0.7423">
        <ele>407</ele>
        <time>2017-06-10T14:40:21.008Z</time>
      </trkpt>
      <trkpt lat="43.03326" lon="0.74223">
        <ele>407</ele>
        <time>2017-06-10T14:40:22.008Z</time>
      </trkpt>
      <trkpt lat="43.03329" lon="0.74211">
        <ele>407</ele>
        <time>2017-06-10T14:40:24.008Z</time>
      </trkpt>
      <trkpt lat="43.03323" lon="0.74198">
        <ele>407</ele>
        <time>2017-06-10T14:40:27.008Z</time>
      </trkpt>
      <trkpt lat="43.03313" lon="0.74199">
        <ele>407</ele>
        <time>2017-06-10T14:40:29.008Z</time>
      </trkpt>
      <trkpt lat="43.03302" lon="0.74201">
        <ele>407</ele>
        <time>2017-06-10T14:40:31.008Z</time>
      </trkpt>
      <trkpt lat="43.0329" lon="0.74203">
        <ele>407</ele>
        <time>2017-06-10T14:40:33.008Z</time>
      </trkpt>
      <trkpt lat="43.03277" lon="0.74205">
        <ele>407</ele>
        <time>2017-06-10T14:40:35.008Z</time>
      </trkpt>
      <trkpt lat="43.03263" lon="0.74206">
        <ele>407</ele>
        <time>2017-06-10T14:40:37.008Z</time>
      </trkpt>
      <trkpt lat="43.03249" lon="0.74206">
        <ele>407</ele>
        <time>2017-06-10T14:40:39.008Z</time>
      </trkpt>
      <trkpt lat="43.03236" lon="0.74205">
        <ele>406.792</ele>
        <time>2017-06-10T14:40:41.008Z</time>
      </trkpt>
      <trkpt lat="43.03223" lon="0.74204">
        <ele>406</ele>
        <time>2017-06-10T14:40:43.008Z</time>
      </trkpt>
      <trkpt lat="43.0321" lon="0.74205">
        <ele>406</ele>
        <time>2017-06-10T14:40:45.008Z</time>
      </trkpt>
      <trkpt lat="43.03198" lon="0.74206">
        <ele>406</ele>
        <time>2017-06-10T14:40:47.008Z</time>
      </trkpt>
      <trkpt lat="43.03186" lon="0.74207">
        <ele>406</ele>
        <time>2017-06-10T14:40:49.008Z</time>
      </trkpt>
      <trkpt lat="43.03173" lon="0.74208">
        <ele>406</ele>
        <time>2017-06-10T14:40:51.008Z</time>
      </trkpt>
      <trkpt lat="43.03161" lon="0.7421">
        <ele>406</ele>
        <time>2017-06-10T14:40:53.008Z</time>
      </trkpt>
      <trkpt lat="43.0315" lon="0.74209">
        <ele>406</ele>
        <time>2017-06-10T14:40:55.008Z</time>
      </trkpt>
      <trkpt lat="43.03138" lon="0.74209">
        <ele>406</ele>
        <time>2017-06-10T14:40:57.008Z</time>
      </trkpt>
      <trkpt lat="43.03127" lon="0.74209">
        <ele>406</ele>
        <time>2017-06-10T14:40:59.008Z</time>
      </trkpt>
      <trkpt lat="43.03117" lon="0.74209">
        <ele>406.416</ele>
        <time>2017-06-10T14:41:01.008Z</time>
      </trkpt>
      <trkpt lat="43.03106" lon="0.74209">
        <ele>408</ele>
        <time>2017-06-10T14:41:03.008Z</time>
      </trkpt>
      <trkpt lat="43.03096" lon="0.74209">
        <ele>408</ele>
        <time>2017-06-10T14:41:05.008Z</time>
      </trkpt>
      <trkpt lat="43.03087" lon="0.74208">
        <ele>408</ele>
        <time>2017-06-10T14:41:07.008Z</time>
      </trkpt>
      <trkpt lat="43.03074" lon="0.74205">
        <ele>408</ele>
        <time>2017-06-10T14:41:10.008Z</time>
      </trkpt>
      <trkpt lat="43.03065" lon="0.74201">
        <ele>409</ele>
        <time>2017-06-10T14:41:12.008Z</time>
      </trkpt>
      <trkpt lat="43.03056" lon="0.74199">
        <ele>409</ele>
        <time>2017-06-10T14:41:14.008Z</time>
      </trkpt>
      <trkpt lat="43.03047" lon="0.74197">
        <ele>409</ele>
        <time>2017-06-10T14:41:16.008Z</time>
      </trkpt>
      <trkpt lat="43.03038" lon="0.74195">
        <ele>409</ele>
        <time>2017-06-10T14:41:18.008Z</time>
      </trkpt>
      <trkpt lat="43.03029" lon="0.74192">
        <ele>409</ele>
        <time>2017-06-10T14:41:20.008Z</time>
      </trkpt>
      <trkpt lat="43.0302" lon="0.7419">
        <ele>411</ele>
        <time>2017-06-10T14:41:22.008Z</time>
      </trkpt>
      <trkpt lat="43.03011" lon="0.74189">
        <ele>411</ele>
        <time>2017-06-10T14:41:24.008Z</time>
      </trkpt>
      <trkpt lat="43.03002" lon="0.74188">
        <ele>411</ele>
        <time>2017-06-10T14:41:26.008Z</time>
      </trkpt>
      <trkpt lat="43.02993" lon="0.74189">
        <ele>411</ele>
        <time>2017-06-10T14:41:28.008Z</time>
      </trkpt>
      <trkpt lat="43.02984" lon="0.74192">
        <ele>411</ele>
        <time>2017-06-10T14:41:30.008Z</time>
      </trkpt>
      <trkpt lat="43.02978" lon="0.74199">
        <ele>412</ele>
        <time>2017-06-10T14:41:32.008Z</time>
      </trkpt>
      <trkpt lat="43.02973" lon="0.74206">
        <ele>412</ele>
        <time>2017-06-10T14:41:34.008Z</time>
      </trkpt>
      <trkpt lat="43.02968" lon="0.74219">
        <ele>412</ele>
        <time>2017-06-10T14:41:37.008Z</time>
      </trkpt>
      <trkpt lat="43.02964" lon="0.7423">
        <ele>412</ele>
        <time>2017-06-10T14:41:40.008Z</time>
      </trkpt>
      <trkpt lat="43.02958" lon="0.74243">
        <ele>414</ele>
        <time>2017-06-10T14:41:44.008Z</time>
      </trkpt>
      <trkpt lat="43.02954" lon="0.74257">
        <ele>417</ele>
        <time>2017-06-10T14:41:48.008Z</time>
      </trkpt>
      <trkpt lat="43.02949" lon="0.74269">
        <ele>420</ele>
        <time>2017-06-10T14:41:54.008Z</time>
      </trkpt>
      <trkpt lat="43.02939" lon="0.74277">
        <ele>422</ele>
        <time>2017-06-10T14:41:59.008Z</time>
      </trkpt>
      <trkpt lat="43.02929" lon="0.74284">
        <ele>422</ele>
        <time>2017-06-10T14:42:03.008Z</time>
      </trkpt>
      <trkpt lat="43.02918" lon="0.74287">
        <ele>423</ele>
        <time>2017-06-10T14:42:07.008Z</time>
      </trkpt>
      <trkpt lat="43.02908" lon="0.7429">
        <ele>423</ele>
        <time>2017-06-10T14:42:10.008Z</time>
      </trkpt>
      <trkpt lat="43.02897" lon="0.74291">
        <ele>423</ele>
        <time>2017-06-10T14:42:13.008Z</time>
      </trkpt>
      <trkpt lat="43.02887" lon="0.74293">
        <ele>423</ele>
        <time>2017-06-10T14:42:16.008Z</time>
      </trkpt>
      <trkpt lat="43.02876" lon="0.74297">
        <ele>423</ele>
        <time>2017-06-10T14:42:19.008Z</time>
      </trkpt>
      <trkpt lat="43.02863" lon="0.743">
        <ele>423</ele>
        <time>2017-06-10T14:42:22.008Z</time>
      </trkpt>
      <trkpt lat="43.02851" lon="0.74303">
        <ele>423</ele>
        <time>2017-06-10T14:42:25.008Z</time>
      </trkpt>
      <trkpt lat="43.02843" lon="0.74304">
        <ele>423</ele>
        <time>2017-06-10T14:42:27.008Z</time>
      </trkpt>
      <trkpt lat="43.0283" lon="0.74305">
        <ele>423</ele>
        <time>2017-06-10T14:42:30.008Z</time>
      </trkpt>
      <trkpt lat="43.02821" lon="0.74306">
        <ele>424</ele>
        <time>2017-06-10T14:42:32.008Z</time>
      </trkpt>
      <trkpt lat="43.02812" lon="0.74308">
        <ele>424</ele>
        <time>2017-06-10T14:42:34.008Z</time>
      </trkpt>
      <trkpt lat="43.02803" lon="0.74309">
        <ele>424</ele>
        <time>2017-06-10T14:42:36.008Z</time>
      </trkpt>
      <trkpt lat="43.02793" lon="0.7431">
        <ele>424</ele>
        <time>2017-06-10T14:42:38.008Z</time>
      </trkpt>
      <trkpt lat="43.02784" lon="0.74312">
        <ele>424</ele>
        <time>2017-06-10T14:42:40.008Z</time>
      </trkpt>
      <trkpt lat="43.0277" lon="0.74315">
        <ele>424</ele>
        <time>2017-06-10T14:42:43.008Z</time>
      </trkpt>
      <trkpt lat="43.02757" lon="0.74319">
        <ele>424</ele>
        <time>2017-06-10T14:42:46.008Z</time>
      </trkpt>
      <trkpt lat="43.02748" lon="0.74322">
        <ele>424</ele>
        <time>2017-06-10T14:42:48.008Z</time>
      </trkpt>
      <trkpt lat="43.02734" lon="0.74323">
        <ele>424</ele>
        <time>2017-06-10T14:42:51.008Z</time>
      </trkpt>
      <trkpt lat="43.02724" lon="0.74326">
        <ele>424</ele>
        <time>2017-06-10T14:42:53.008Z</time>
      </trkpt>
      <trkpt lat="43.02715" lon="0.7433">
        <ele>424</ele>
        <time>2017-06-10T14:42:55.008Z</time>
      </trkpt>
      <trkpt lat="43.02706" lon="0.74335">
        <ele>424</ele>
        <time>2017-06-10T14:42:57.008Z</time>
      </trkpt>
      <trkpt lat="43.02696" lon="0.74339">
        <ele>424</ele>
        <time>2017-06-10T14:42:59.008Z</time>
      </trkpt>
      <trkpt lat="43.02688" lon="0.74344">
        <ele>424</ele>
        <time>2017-06-10T14:43:01.008Z</time>
      </trkpt>
      <trkpt lat="43.0268" lon="0.7435">
        <ele>424</ele>
        <time>2017-06-10T14:43:03.008Z</time>
      </trkpt>
      <trkpt lat="43.02672" lon="0.74356">
        <ele>424</ele>
        <time>2017-06-10T14:43:05.008Z</time>
      </trkpt>
      <trkpt lat="43.02665" lon="0.74362">
        <ele>424</ele>
        <time>2017-06-10T14:43:07.008Z</time>
      </trkpt>
      <trkpt lat="43.02658" lon="0.74369">
        <ele>424</ele>
        <time>2017-06-10T14:43:09.008Z</time>
      </trkpt>
      <trkpt lat="43.0265" lon="0.74376">
        <ele>424.20000258585</ele>
        <time>2017-06-10T14:43:11.008Z</time>
      </trkpt>
      <trkpt lat="43.02644" lon="0.74384">
        <ele>425</ele>
        <time>2017-06-10T14:43:13.008Z</time>
      </trkpt>
      <trkpt lat="43.02638" lon="0.74393">
        <ele>425</ele>
        <time>2017-06-10T14:43:15.008Z</time>
      </trkpt>
      <trkpt lat="43.02632" lon="0.74401">
        <ele>425</ele>
        <time>2017-06-10T14:43:17.008Z</time>
      </trkpt>
      <trkpt lat="43.02625" lon="0.74411">
        <ele>425</ele>
        <time>2017-06-10T14:43:20.008Z</time>
      </trkpt>
      <trkpt lat="43.02616" lon="0.74422">
        <ele>426</ele>
        <time>2017-06-10T14:43:24.008Z</time>
      </trkpt>
      <trkpt lat="43.02609" lon="0.74432">
        <ele>426</ele>
        <time>2017-06-10T14:43:27.008Z</time>
      </trkpt>
      <trkpt lat="43.02602" lon="0.74442">
        <ele>426</ele>
        <time>2017-06-10T14:43:30.008Z</time>
      </trkpt>
      <trkpt lat="43.02595" lon="0.74453">
        <ele>428</ele>
        <time>2017-06-10T14:43:33.008Z</time>
      </trkpt>
      <trkpt lat="43.02585" lon="0.74464">
        <ele>428</ele>
        <time>2017-06-10T14:43:36.008Z</time>
      </trkpt>
      <trkpt lat="43.02576" lon="0.74473">
        <ele>428</ele>
        <time>2017-06-10T14:43:39.008Z</time>
      </trkpt>
      <trkpt lat="43.02566" lon="0.74482">
        <ele>430</ele>
        <time>2017-06-10T14:43:42.008Z</time>
      </trkpt>
      <trkpt lat="43.02557" lon="0.74493">
        <ele>430</ele>
        <time>2017-06-10T14:43:46.008Z</time>
      </trkpt>
      <trkpt lat="43.0255" lon="0.74506">
        <ele>430</ele>
        <time>2017-06-10T14:43:50.008Z</time>
      </trkpt>
      <trkpt lat="43.02542" lon="0.7452">
        <ele>431</ele>
        <time>2017-06-10T14:43:54.008Z</time>
      </trkpt>
      <trkpt lat="43.02535" lon="0.74532">
        <ele>431</ele>
        <time>2017-06-10T14:43:58.008Z</time>
      </trkpt>
      <trkpt lat="43.02529" lon="0.74545">
        <ele>433</ele>
        <time>2017-06-10T14:44:02.008Z</time>
      </trkpt>
      <trkpt lat="43.02523" lon="0.74558">
        <ele>433</ele>
        <time>2017-06-10T14:44:06.008Z</time>
      </trkpt>
      <trkpt lat="43.02519" lon="0.74572">
        <ele>436</ele>
        <time>2017-06-10T14:44:12.008Z</time>
      </trkpt>
      <trkpt lat="43.02516" lon="0.74587">
        <ele>438</ele>
        <time>2017-06-10T14:44:18.008Z</time>
      </trkpt>
      <trkpt lat="43.02513" lon="0.74599">
        <ele>440</ele>
        <time>2017-06-10T14:44:25.008Z</time>
      </trkpt>
      <trkpt lat="43.0251" lon="0.74615">
        <ele>442.208</ele>
        <time>2017-06-10T14:44:31.008Z</time>
      </trkpt>
      <trkpt lat="43.02506" lon="0.74629">
        <ele>444</ele>
        <time>2017-06-10T14:44:39.008Z</time>
      </trkpt>
      <trkpt lat="43.02503" lon="0.74645">
        <ele>445</ele>
        <time>2017-06-10T14:44:45.008Z</time>
      </trkpt>
      <trkpt lat="43.02498" lon="0.74659">
        <ele>446.208</ele>
        <time>2017-06-10T14:44:51.008Z</time>
      </trkpt>
      <trkpt lat="43.02494" lon="0.74673">
        <ele>447</ele>
        <time>2017-06-10T14:44:56.008Z</time>
      </trkpt>
      <trkpt lat="43.02491" lon="0.74688">
        <ele>449</ele>
        <time>2017-06-10T14:45:02.008Z</time>
      </trkpt>
      <trkpt lat="43.02488" lon="0.74703">
        <ele>451</ele>
        <time>2017-06-10T14:45:07.008Z</time>
      </trkpt>
      <trkpt lat="43.02487" lon="0.74717">
        <ele>453</ele>
        <time>2017-06-10T14:45:12.008Z</time>
      </trkpt>
      <trkpt lat="43.02484" lon="0.74731">
        <ele>453</ele>
        <time>2017-06-10T14:45:17.008Z</time>
      </trkpt>
      <trkpt lat="43.02483" lon="0.74745">
        <ele>455</ele>
        <time>2017-06-10T14:45:22.008Z</time>
      </trkpt>
      <trkpt lat="43.02481" lon="0.74758">
        <ele>455</ele>
        <time>2017-06-10T14:45:27.008Z</time>
      </trkpt>
      <trkpt lat="43.02479" lon="0.74772">
        <ele>456</ele>
        <time>2017-06-10T14:45:32.008Z</time>
      </trkpt>
      <trkpt lat="43.02477" lon="0.74787">
        <ele>456</ele>
        <time>2017-06-10T14:45:38.008Z</time>
      </trkpt>
      <trkpt lat="43.02476" lon="0.74802">
        <ele>460</ele>
        <time>2017-06-10T14:45:44.008Z</time>
      </trkpt>
      <trkpt lat="43.02475" lon="0.74818">
        <ele>462</ele>
        <time>2017-06-10T14:45:50.008Z</time>
      </trkpt>
      <trkpt lat="43.02474" lon="0.74833">
        <ele>465</ele>
        <time>2017-06-10T14:45:57.008Z</time>
      </trkpt>
      <trkpt lat="43.02475" lon="0.74847">
        <ele>467</ele>
        <time>2017-06-10T14:46:03.008Z</time>
      </trkpt>
      <trkpt lat="43.02474" lon="0.7486">
        <ele>468</ele>
        <time>2017-06-10T14:46:09.008Z</time>
      </trkpt>
      <trkpt lat="43.02473" lon="0.74874">
        <ele>469</ele>
        <time>2017-06-10T14:46:15.008Z</time>
      </trkpt>
      <trkpt lat="43.02471" lon="0.74889">
        <ele>469.416</ele>
        <time>2017-06-10T14:46:21.008Z</time>
      </trkpt>
      <trkpt lat="43.02472" lon="0.74902">
        <ele>471</ele>
        <time>2017-06-10T14:46:27.008Z</time>
      </trkpt>
      <trkpt lat="43.0247" lon="0.74917">
        <ele>474</ele>
        <time>2017-06-10T14:46:34.008Z</time>
      </trkpt>
      <trkpt lat="43.0247" lon="0.74932">
        <ele>475</ele>
        <time>2017-06-10T14:46:40.008Z</time>
      </trkpt>
      <trkpt lat="43.02472" lon="0.74946">
        <ele>477.208</ele>
        <time>2017-06-10T14:46:46.008Z</time>
      </trkpt>
      <trkpt lat="43.02472" lon="0.74959">
        <ele>479</ele>
        <time>2017-06-10T14:46:52.008Z</time>
      </trkpt>
      <trkpt lat="43.02477" lon="0.74973">
        <ele>479</ele>
        <time>2017-06-10T14:46:58.008Z</time>
      </trkpt>
      <trkpt lat="43.02481" lon="0.74987">
        <ele>482</ele>
        <time>2017-06-10T14:47:04.008Z</time>
      </trkpt>
      <trkpt lat="43.02479" lon="0.75001">
        <ele>483</ele>
        <time>2017-06-10T14:47:10.008Z</time>
      </trkpt>
      <trkpt lat="43.02479" lon="0.75016">
        <ele>485</ele>
        <time>2017-06-10T14:47:17.008Z</time>
      </trkpt>
      <trkpt lat="43.02476" lon="0.7503">
        <ele>485</ele>
        <time>2017-06-10T14:47:21.008Z</time>
      </trkpt>
      <trkpt lat="43.02474" lon="0.75043">
        <ele>485</ele>
        <time>2017-06-10T14:47:24.008Z</time>
      </trkpt>
      <trkpt lat="43.02472" lon="0.75058">
        <ele>485</ele>
        <time>2017-06-10T14:47:28.008Z</time>
      </trkpt>
      <trkpt lat="43.02469" lon="0.75071">
        <ele>485</ele>
        <time>2017-06-10T14:47:31.008Z</time>
      </trkpt>
      <trkpt lat="43.02466" lon="0.75085">
        <ele>485</ele>
        <time>2017-06-10T14:47:34.008Z</time>
      </trkpt>
      <trkpt lat="43.02465" lon="0.75102">
        <ele>485</ele>
        <time>2017-06-10T14:47:38.008Z</time>
      </trkpt>
      <trkpt lat="43.02464" lon="0.75116">
        <ele>485.208</ele>
        <time>2017-06-10T14:47:41.008Z</time>
      </trkpt>
      <trkpt lat="43.02464" lon="0.7513">
        <ele>486</ele>
        <time>2017-06-10T14:47:44.008Z</time>
      </trkpt>
      <trkpt lat="43.02466" lon="0.75142">
        <ele>486</ele>
        <time>2017-06-10T14:47:47.008Z</time>
      </trkpt>
      <trkpt lat="43.02468" lon="0.75153">
        <ele>486</ele>
        <time>2017-06-10T14:47:50.008Z</time>
      </trkpt>
      <trkpt lat="43.02469" lon="0.75168">
        <ele>486</ele>
        <time>2017-06-10T14:47:54.008Z</time>
      </trkpt>
      <trkpt lat="43.02476" lon="0.7518">
        <ele>486</ele>
        <time>2017-06-10T14:47:58.008Z</time>
      </trkpt>
      <trkpt lat="43.02477" lon="0.75193">
        <ele>489</ele>
        <time>2017-06-10T14:48:02.008Z</time>
      </trkpt>
      <trkpt lat="43.02481" lon="0.75204">
        <ele>489</ele>
        <time>2017-06-10T14:48:05.008Z</time>
      </trkpt>
      <trkpt lat="43.02486" lon="0.75215">
        <ele>489</ele>
        <time>2017-06-10T14:48:08.008Z</time>
      </trkpt>
      <trkpt lat="43.02494" lon="0.75231">
        <ele>488</ele>
        <time>2017-06-10T14:48:12.008Z</time>
      </trkpt>
      <trkpt lat="43.02501" lon="0.75243">
        <ele>488</ele>
        <time>2017-06-10T14:48:15.008Z</time>
      </trkpt>
      <trkpt lat="43.02501" lon="0.75252">
        <ele>482</ele>
        <time>2017-06-10T14:50:12.008Z</time>
      </trkpt>
      <trkpt lat="43.02502" lon="0.75264">
        <ele>486</ele>
        <time>2017-06-10T14:50:54.008Z</time>
      </trkpt>
      <trkpt lat="43.02503" lon="0.75277">
        <ele>486.416</ele>
        <time>2017-06-10T14:51:01.008Z</time>
      </trkpt>
      <trkpt lat="43.02506" lon="0.75293">
        <ele>488.416</ele>
        <time>2017-06-10T14:51:06.008Z</time>
      </trkpt>
      <trkpt lat="43.0251" lon="0.75306">
        <ele>490</ele>
        <time>2017-06-10T14:51:10.008Z</time>
      </trkpt>
      <trkpt lat="43.02515" lon="0.75319">
        <ele>491</ele>
        <time>2017-06-10T14:51:13.008Z</time>
      </trkpt>
      <trkpt lat="43.02519" lon="0.75331">
        <ele>493</ele>
        <time>2017-06-10T14:51:18.008Z</time>
      </trkpt>
      <trkpt lat="43.02523" lon="0.75347">
        <ele>494</ele>
        <time>2017-06-10T14:51:25.008Z</time>
      </trkpt>
      <trkpt lat="43.02527" lon="0.75359">
        <ele>495.416</ele>
        <time>2017-06-10T14:51:31.008Z</time>
      </trkpt>
      <trkpt lat="43.02533" lon="0.75371">
        <ele>499</ele>
        <time>2017-06-10T14:51:37.008Z</time>
      </trkpt>
      <trkpt lat="43.02538" lon="0.75383">
        <ele>500</ele>
        <time>2017-06-10T14:51:44.008Z</time>
      </trkpt>
      <trkpt lat="43.02543" lon="0.75397">
        <ele>502</ele>
        <time>2017-06-10T14:51:50.008Z</time>
      </trkpt>
      <trkpt lat="43.02548" lon="0.75408">
        <ele>503.416</ele>
        <time>2017-06-10T14:51:56.008Z</time>
      </trkpt>
      <trkpt lat="43.02556" lon="0.7542">
        <ele>506</ele>
        <time>2017-06-10T14:52:02.008Z</time>
      </trkpt>
      <trkpt lat="43.02564" lon="0.75431">
        <ele>508</ele>
        <time>2017-06-10T14:52:08.008Z</time>
      </trkpt>
      <trkpt lat="43.0257" lon="0.75441">
        <ele>510</ele>
        <time>2017-06-10T14:52:14.008Z</time>
      </trkpt>
      <trkpt lat="43.02579" lon="0.75452">
        <ele>511.416</ele>
        <time>2017-06-10T14:52:21.008Z</time>
      </trkpt>
      <trkpt lat="43.02587" lon="0.75461">
        <ele>514</ele>
        <time>2017-06-10T14:52:27.008Z</time>
      </trkpt>
      <trkpt lat="43.02595" lon="0.75472">
        <ele>515</ele>
        <time>2017-06-10T14:52:32.008Z</time>
      </trkpt>
      <trkpt lat="43.02601" lon="0.75484">
        <ele>515</ele>
        <time>2017-06-10T14:52:35.008Z</time>
      </trkpt>
      <trkpt lat="43.02606" lon="0.75498">
        <ele>516</ele>
        <time>2017-06-10T14:52:39.008Z</time>
      </trkpt>
      <trkpt lat="43.0261" lon="0.75512">
        <ele>517</ele>
        <time>2017-06-10T14:52:44.008Z</time>
      </trkpt>
      <trkpt lat="43.02612" lon="0.75528">
        <ele>517</ele>
        <time>2017-06-10T14:52:48.008Z</time>
      </trkpt>
      <trkpt lat="43.02613" lon="0.75541">
        <ele>518</ele>
        <time>2017-06-10T14:52:52.008Z</time>
      </trkpt>
      <trkpt lat="43.02616" lon="0.7556">
        <ele>518</ele>
        <time>2017-06-10T14:52:55.008Z</time>
      </trkpt>
      <trkpt lat="43.02614" lon="0.75576">
        <ele>518</ele>
        <time>2017-06-10T14:52:59.008Z</time>
      </trkpt>
      <trkpt lat="43.02606" lon="0.75587">
        <ele>518</ele>
        <time>2017-06-10T14:53:10.008Z</time>
      </trkpt>
      <trkpt lat="43.026" lon="0.75596">
        <ele>518</ele>
        <time>2017-06-10T14:53:22.008Z</time>
      </trkpt>
      <trkpt lat="43.02606" lon="0.7561">
        <ele>518</ele>
        <time>2017-06-10T14:53:26.008Z</time>
      </trkpt>
      <trkpt lat="43.02612" lon="0.75623">
        <ele>517</ele>
        <time>2017-06-10T14:53:30.008Z</time>
      </trkpt>
      <trkpt lat="43.0262" lon="0.75636">
        <ele>518</ele>
        <time>2017-06-10T14:53:34.008Z</time>
      </trkpt>
      <trkpt lat="43.02628" lon="0.75651">
        <ele>518</ele>
        <time>2017-06-10T14:53:37.008Z</time>
      </trkpt>
      <trkpt lat="43.02632" lon="0.75664">
        <ele>518</ele>
        <time>2017-06-10T14:53:40.008Z</time>
      </trkpt>
      <trkpt lat="43.02635" lon="0.75678">
        <ele>522</ele>
        <time>2017-06-10T14:53:44.008Z</time>
      </trkpt>
      <trkpt lat="43.02636" lon="0.75691">
        <ele>523</ele>
        <time>2017-06-10T14:53:48.008Z</time>
      </trkpt>
      <trkpt lat="43.02638" lon="0.75706">
        <ele>524</ele>
        <time>2017-06-10T14:53:54.008Z</time>
      </trkpt>
      <trkpt lat="43.02642" lon="0.75719">
        <ele>526</ele>
        <time>2017-06-10T14:53:59.008Z</time>
      </trkpt>
      <trkpt lat="43.02648" lon="0.75729">
        <ele>527</ele>
        <time>2017-06-10T14:54:03.008Z</time>
      </trkpt>
      <trkpt lat="43.02656" lon="0.7574">
        <ele>526</ele>
        <time>2017-06-10T14:54:08.008Z</time>
      </trkpt>
      <trkpt lat="43.02666" lon="0.75749">
        <ele>527</ele>
        <time>2017-06-10T14:54:13.008Z</time>
      </trkpt>
      <trkpt lat="43.02674" lon="0.7576">
        <ele>527</ele>
        <time>2017-06-10T14:54:19.008Z</time>
      </trkpt>
      <trkpt lat="43.02682" lon="0.75767">
        <ele>529</ele>
        <time>2017-06-10T14:54:24.008Z</time>
      </trkpt>
      <trkpt lat="43.02688" lon="0.75778">
        <ele>529</ele>
        <time>2017-06-10T14:54:29.008Z</time>
      </trkpt>
      <trkpt lat="43.02693" lon="0.75789">
        <ele>530.792</ele>
        <time>2017-06-10T14:54:34.008Z</time>
      </trkpt>
      <trkpt lat="43.02699" lon="0.758">
        <ele>530</ele>
        <time>2017-06-10T14:54:39.008Z</time>
      </trkpt>
      <trkpt lat="43.02704" lon="0.7581">
        <ele>532</ele>
        <time>2017-06-10T14:54:44.008Z</time>
      </trkpt>
      <trkpt lat="43.02711" lon="0.75819">
        <ele>532</ele>
        <time>2017-06-10T14:54:49.008Z</time>
      </trkpt>
      <trkpt lat="43.02715" lon="0.75833">
        <ele>534</ele>
        <time>2017-06-10T14:54:54.008Z</time>
      </trkpt>
      <trkpt lat="43.0272" lon="0.75845">
        <ele>536</ele>
        <time>2017-06-10T14:54:59.008Z</time>
      </trkpt>
      <trkpt lat="43.02726" lon="0.75856">
        <ele>536</ele>
        <time>2017-06-10T14:55:05.008Z</time>
      </trkpt>
      <trkpt lat="43.0273" lon="0.75869">
        <ele>538</ele>
        <time>2017-06-10T14:55:12.008Z</time>
      </trkpt>
      <trkpt lat="43.02734" lon="0.75882">
        <ele>537</ele>
        <time>2017-06-10T14:55:18.008Z</time>
      </trkpt>
      <trkpt lat="43.0274" lon="0.75894">
        <ele>540</ele>
        <time>2017-06-10T14:55:23.008Z</time>
      </trkpt>
      <trkpt lat="43.02745" lon="0.75907">
        <ele>541</ele>
        <time>2017-06-10T14:55:29.008Z</time>
      </trkpt>
      <trkpt lat="43.0275" lon="0.7592">
        <ele>541</ele>
        <time>2017-06-10T14:55:35.008Z</time>
      </trkpt>
      <trkpt lat="43.02755" lon="0.75933">
        <ele>541</ele>
        <time>2017-06-10T14:55:40.008Z</time>
      </trkpt>
      <trkpt lat="43.02762" lon="0.75946">
        <ele>542</ele>
        <time>2017-06-10T14:55:45.008Z</time>
      </trkpt>
      <trkpt lat="43.02763" lon="0.75962">
        <ele>542</ele>
        <time>2017-06-10T14:55:49.008Z</time>
      </trkpt>
      <trkpt lat="43.02762" lon="0.75975">
        <ele>542.208</ele>
        <time>2017-06-10T14:55:51.008Z</time>
      </trkpt>
      <trkpt lat="43.02758" lon="0.75993">
        <ele>543</ele>
        <time>2017-06-10T14:55:54.008Z</time>
      </trkpt>
      <trkpt lat="43.02758" lon="0.76008">
        <ele>543</ele>
        <time>2017-06-10T14:55:56.008Z</time>
      </trkpt>
      <trkpt lat="43.02757" lon="0.76023">
        <ele>543</ele>
        <time>2017-06-10T14:55:58.008Z</time>
      </trkpt>
      <trkpt lat="43.02758" lon="0.76044">
        <ele>543</ele>
        <time>2017-06-10T14:56:01.008Z</time>
      </trkpt>
      <trkpt lat="43.02759" lon="0.7606">
        <ele>543</ele>
        <time>2017-06-10T14:56:03.008Z</time>
      </trkpt>
      <trkpt lat="43.02761" lon="0.76078">
        <ele>543</ele>
        <time>2017-06-10T14:56:05.008Z</time>
      </trkpt>
      <trkpt lat="43.02766" lon="0.761">
        <ele>543</ele>
        <time>2017-06-10T14:56:07.008Z</time>
      </trkpt>
      <trkpt lat="43.0277" lon="0.76117">
        <ele>543</ele>
        <time>2017-06-10T14:56:09.008Z</time>
      </trkpt>
      <trkpt lat="43.02772" lon="0.76133">
        <ele>542.376</ele>
        <time>2017-06-10T14:56:11.008Z</time>
      </trkpt>
      <trkpt lat="43.02773" lon="0.76148">
        <ele>540</ele>
        <time>2017-06-10T14:56:13.008Z</time>
      </trkpt>
      <trkpt lat="43.02774" lon="0.76163">
        <ele>539.792</ele>
        <time>2017-06-10T14:56:15.008Z</time>
      </trkpt>
      <trkpt lat="43.02774" lon="0.76182">
        <ele>537</ele>
        <time>2017-06-10T14:56:18.008Z</time>
      </trkpt>
      <trkpt lat="43.02772" lon="0.762">
        <ele>536.376</ele>
        <time>2017-06-10T14:56:21.008Z</time>
      </trkpt>
      <trkpt lat="43.02768" lon="0.76219">
        <ele>528.584</ele>
        <time>2017-06-10T14:56:24.008Z</time>
      </trkpt>
      <trkpt lat="43.02765" lon="0.76231">
        <ele>525.792</ele>
        <time>2017-06-10T14:56:26.008Z</time>
      </trkpt>
      <trkpt lat="43.02759" lon="0.76245">
        <ele>523</ele>
        <time>2017-06-10T14:56:28.008Z</time>
      </trkpt>
      <trkpt lat="43.02756" lon="0.76259">
        <ele>522.584</ele>
        <time>2017-06-10T14:56:30.008Z</time>
      </trkpt>
      <trkpt lat="43.02752" lon="0.76273">
        <ele>520</ele>
        <time>2017-06-10T14:56:32.008Z</time>
      </trkpt>
      <trkpt lat="43.02749" lon="0.76286">
        <ele>520</ele>
        <time>2017-06-10T14:56:34.008Z</time>
      </trkpt>
      <trkpt lat="43.02746" lon="0.76302">
        <ele>519</ele>
        <time>2017-06-10T14:56:36.008Z</time>
      </trkpt>
      <trkpt lat="43.02741" lon="0.76319">
        <ele>518.584</ele>
        <time>2017-06-10T14:56:38.008Z</time>
      </trkpt>
      <trkpt lat="43.02737" lon="0.76333">
        <ele>517</ele>
        <time>2017-06-10T14:56:40.008Z</time>
      </trkpt>
      <trkpt lat="43.02734" lon="0.7635">
        <ele>516</ele>
        <time>2017-06-10T14:56:43.008Z</time>
      </trkpt>
      <trkpt lat="43.02736" lon="0.7636">
        <ele>499</ele>
        <time>2017-06-10T14:59:07.008Z</time>
      </trkpt>
      <trkpt lat="43.02729" lon="0.76372">
        <ele>499</ele>
        <time>2017-06-10T14:59:10.008Z</time>
      </trkpt>
      <trkpt lat="43.02726" lon="0.76382">
        <ele>497</ele>
        <time>2017-06-10T14:59:12.008Z</time>
      </trkpt>
      <trkpt lat="43.02721" lon="0.76395">
        <ele>497</ele>
        <time>2017-06-10T14:59:14.008Z</time>
      </trkpt>
      <trkpt lat="43.02719" lon="0.76409">
        <ele>497</ele>
        <time>2017-06-10T14:59:16.008Z</time>
      </trkpt>
      <trkpt lat="43.02716" lon="0.76428">
        <ele>497</ele>
        <time>2017-06-10T14:59:19.008Z</time>
      </trkpt>
      <trkpt lat="43.02707" lon="0.76439">
        <ele>494</ele>
        <time>2017-06-10T14:59:23.008Z</time>
      </trkpt>
      <trkpt lat="43.02698" lon="0.76441">
        <ele>494</ele>
        <time>2017-06-10T14:59:25.008Z</time>
      </trkpt>
      <trkpt lat="43.02689" lon="0.76441">
        <ele>493</ele>
        <time>2017-06-10T14:59:27.008Z</time>
      </trkpt>
      <trkpt lat="43.0268" lon="0.76441">
        <ele>493</ele>
        <time>2017-06-10T14:59:29.008Z</time>
      </trkpt>
      <trkpt lat="43.02669" lon="0.76441">
        <ele>493</ele>
        <time>2017-06-10T14:59:31.008Z</time>
      </trkpt>
      <trkpt lat="43.0266" lon="0.76448">
        <ele>493</ele>
        <time>2017-06-10T14:59:35.008Z</time>
      </trkpt>
      <trkpt lat="43.02651" lon="0.76454">
        <ele>493</ele>
        <time>2017-06-10T14:59:39.008Z</time>
      </trkpt>
      <trkpt lat="43.0264" lon="0.76463">
        <ele>493</ele>
        <time>2017-06-10T14:59:43.008Z</time>
      </trkpt>
      <trkpt lat="43.02632" lon="0.76469">
        <ele>493</ele>
        <time>2017-06-10T14:59:45.008Z</time>
      </trkpt>
      <trkpt lat="43.02623" lon="0.76475">
        <ele>493</ele>
        <time>2017-06-10T14:59:47.008Z</time>
      </trkpt>
      <trkpt lat="43.02614" lon="0.76481">
        <ele>493</ele>
        <time>2017-06-10T14:59:49.008Z</time>
      </trkpt>
      <trkpt lat="43.02606" lon="0.76484">
        <ele>493</ele>
        <time>2017-06-10T14:59:51.008Z</time>
      </trkpt>
      <trkpt lat="43.02598" lon="0.7648">
        <ele>493</ele>
        <time>2017-06-10T14:59:53.008Z</time>
      </trkpt>
      <trkpt lat="43.02594" lon="0.76476">
        <ele>493</ele>
        <time>2017-06-10T14:59:54.008Z</time>
      </trkpt>
      <trkpt lat="43.0259" lon="0.76472">
        <ele>493</ele>
        <time>2017-06-10T14:59:55.008Z</time>
      </trkpt>
      <trkpt lat="43.02586" lon="0.76468">
        <ele>493</ele>
        <time>2017-06-10T14:59:56.008Z</time>
      </trkpt>
      <trkpt lat="43.02578" lon="0.7646">
        <ele>493</ele>
        <time>2017-06-10T14:59:58.008Z</time>
      </trkpt>
      <trkpt lat="43.02574" lon="0.76456">
        <ele>493</ele>
        <time>2017-06-10T14:59:59.008Z</time>
      </trkpt>
      <trkpt lat="43.0257" lon="0.76453">
        <ele>493</ele>
        <time>2017-06-10T15:00:00.008Z</time>
      </trkpt>
      <trkpt lat="43.02562" lon="0.76445">
        <ele>492</ele>
        <time>2017-06-10T15:00:02.008Z</time>
      </trkpt>
      <trkpt lat="43.02554" lon="0.76437">
        <ele>492</ele>
        <time>2017-06-10T15:00:04.008Z</time>
      </trkpt>
      <trkpt lat="43.02545" lon="0.7643">
        <ele>492</ele>
        <time>2017-06-10T15:00:06.008Z</time>
      </trkpt>
      <trkpt lat="43.02537" lon="0.76424">
        <ele>492</ele>
        <time>2017-06-10T15:00:08.008Z</time>
      </trkpt>
      <trkpt lat="43.02529" lon="0.76417">
        <ele>492</ele>
        <time>2017-06-10T15:00:10.008Z</time>
      </trkpt>
      <trkpt lat="43.02522" lon="0.76412">
        <ele>492</ele>
        <time>2017-06-10T15:00:12.008Z</time>
      </trkpt>
      <trkpt lat="43.02513" lon="0.76404">
        <ele>492</ele>
        <time>2017-06-10T15:00:15.008Z</time>
      </trkpt>
      <trkpt lat="43.02505" lon="0.76398">
        <ele>492</ele>
        <time>2017-06-10T15:00:18.008Z</time>
      </trkpt>
      <trkpt lat="43.02495" lon="0.7639">
        <ele>493</ele>
        <time>2017-06-10T15:00:22.008Z</time>
      </trkpt>
      <trkpt lat="43.02487" lon="0.76383">
        <ele>493</ele>
        <time>2017-06-10T15:00:26.008Z</time>
      </trkpt>
      <trkpt lat="43.02477" lon="0.76378">
        <ele>493</ele>
        <time>2017-06-10T15:00:37.008Z</time>
      </trkpt>
      <trkpt lat="43.02468" lon="0.76371">
        <ele>495</ele>
        <time>2017-06-10T15:00:53.008Z</time>
      </trkpt>
      <trkpt lat="43.0246" lon="0.76372">
        <ele>495</ele>
        <time>2017-06-10T15:01:08.008Z</time>
      </trkpt>
      <trkpt lat="43.0245" lon="0.76373">
        <ele>496</ele>
        <time>2017-06-10T15:01:23.008Z</time>
      </trkpt>
      <trkpt lat="43.0244" lon="0.76375">
        <ele>496.208</ele>
        <time>2017-06-10T15:01:31.008Z</time>
      </trkpt>
      <trkpt lat="43.02431" lon="0.76377">
        <ele>497</ele>
        <time>2017-06-10T15:01:39.008Z</time>
      </trkpt>
      <trkpt lat="43.02424" lon="0.76387">
        <ele>498</ele>
        <time>2017-06-10T15:01:47.008Z</time>
      </trkpt>
      <trkpt lat="43.02416" lon="0.76394">
        <ele>498</ele>
        <time>2017-06-10T15:01:50.008Z</time>
      </trkpt>
      <trkpt lat="43.02406" lon="0.76403">
        <ele>498</ele>
        <time>2017-06-10T15:01:54.008Z</time>
      </trkpt>
      <trkpt lat="43.02397" lon="0.7641">
        <ele>498</ele>
        <time>2017-06-10T15:01:57.008Z</time>
      </trkpt>
      <trkpt lat="43.02389" lon="0.76418">
        <ele>498</ele>
        <time>2017-06-10T15:02:00.008Z</time>
      </trkpt>
      <trkpt lat="43.02379" lon="0.76424">
        <ele>499</ele>
        <time>2017-06-10T15:02:03.008Z</time>
      </trkpt>
      <trkpt lat="43.02369" lon="0.76431">
        <ele>499</ele>
        <time>2017-06-10T15:02:06.008Z</time>
      </trkpt>
      <trkpt lat="43.02359" lon="0.76437">
        <ele>499</ele>
        <time>2017-06-10T15:02:09.008Z</time>
      </trkpt>
      <trkpt lat="43.02349" lon="0.7644">
        <ele>499</ele>
        <time>2017-06-10T15:02:12.008Z</time>
      </trkpt>
      <trkpt lat="43.02337" lon="0.76441">
        <ele>499</ele>
        <time>2017-06-10T15:02:16.008Z</time>
      </trkpt>
      <trkpt lat="43.02324" lon="0.76444">
        <ele>499</ele>
        <time>2017-06-10T15:02:20.008Z</time>
      </trkpt>
      <trkpt lat="43.02312" lon="0.76447">
        <ele>499</ele>
        <time>2017-06-10T15:02:23.008Z</time>
      </trkpt>
      <trkpt lat="43.02299" lon="0.76451">
        <ele>499</ele>
        <time>2017-06-10T15:02:27.008Z</time>
      </trkpt>
      <trkpt lat="43.02288" lon="0.76455">
        <ele>499</ele>
        <time>2017-06-10T15:02:30.008Z</time>
      </trkpt>
      <trkpt lat="43.02276" lon="0.76456">
        <ele>491</ele>
        <time>2017-06-10T15:02:33.008Z</time>
      </trkpt>
      <trkpt lat="43.02264" lon="0.76455">
        <ele>491</ele>
        <time>2017-06-10T15:02:36.008Z</time>
      </trkpt>
      <trkpt lat="43.02254" lon="0.76452">
        <ele>489</ele>
        <time>2017-06-10T15:02:39.008Z</time>
      </trkpt>
      <trkpt lat="43.02242" lon="0.76446">
        <ele>489</ele>
        <time>2017-06-10T15:02:42.008Z</time>
      </trkpt>
      <trkpt lat="43.02229" lon="0.76438">
        <ele>489</ele>
        <time>2017-06-10T15:02:45.008Z</time>
      </trkpt>
      <trkpt lat="43.02219" lon="0.7643">
        <ele>488</ele>
        <time>2017-06-10T15:02:49.008Z</time>
      </trkpt>
      <trkpt lat="43.02212" lon="0.76419">
        <ele>485</ele>
        <time>2017-06-10T15:02:57.008Z</time>
      </trkpt>
      <trkpt lat="43.02206" lon="0.76408">
        <ele>485.624</ele>
        <time>2017-06-10T15:03:11.008Z</time>
      </trkpt>
      <trkpt lat="43.022" lon="0.76403">
        <ele>490</ele>
        <time>2017-06-10T15:04:09.008Z</time>
      </trkpt>
      <trkpt lat="43.02207" lon="0.76398">
        <ele>482</ele>
        <time>2017-06-10T15:05:05.008Z</time>
      </trkpt>
      <trkpt lat="43.02199" lon="0.76403">
        <ele>481</ele>
        <time>2017-06-10T15:06:25.008Z</time>
      </trkpt>
      <trkpt lat="43.02189" lon="0.76401">
        <ele>481</ele>
        <time>2017-06-10T15:06:43.008Z</time>
      </trkpt>
      <trkpt lat="43.02181" lon="0.76391">
        <ele>481</ele>
        <time>2017-06-10T15:06:49.008Z</time>
      </trkpt>
      <trkpt lat="43.02173" lon="0.76384">
        <ele>483</ele>
        <time>2017-06-10T15:06:54.008Z</time>
      </trkpt>
      <trkpt lat="43.02162" lon="0.76379">
        <ele>483</ele>
        <time>2017-06-10T15:07:00.008Z</time>
      </trkpt>
      <trkpt lat="43.02153" lon="0.76369">
        <ele>486</ele>
        <time>2017-06-10T15:07:04.008Z</time>
      </trkpt>
      <trkpt lat="43.02144" lon="0.76362">
        <ele>486</ele>
        <time>2017-06-10T15:07:09.008Z</time>
      </trkpt>
      <trkpt lat="43.02134" lon="0.76353">
        <ele>486</ele>
        <time>2017-06-10T15:07:13.008Z</time>
      </trkpt>
      <trkpt lat="43.02124" lon="0.76347">
        <ele>486</ele>
        <time>2017-06-10T15:07:17.008Z</time>
      </trkpt>
      <trkpt lat="43.02112" lon="0.76345">
        <ele>486</ele>
        <time>2017-06-10T15:07:20.008Z</time>
      </trkpt>
      <trkpt lat="43.02102" lon="0.76341">
        <ele>486</ele>
        <time>2017-06-10T15:07:23.008Z</time>
      </trkpt>
      <trkpt lat="43.02091" lon="0.76335">
        <ele>486</ele>
        <time>2017-06-10T15:07:26.008Z</time>
      </trkpt>
      <trkpt lat="43.0208" lon="0.76328">
        <ele>485</ele>
        <time>2017-06-10T15:07:32.008Z</time>
      </trkpt>
      <trkpt lat="43.0207" lon="0.76322">
        <ele>485</ele>
        <time>2017-06-10T15:07:36.008Z</time>
      </trkpt>
      <trkpt lat="43.02061" lon="0.7631">
        <ele>485</ele>
        <time>2017-06-10T15:07:40.008Z</time>
      </trkpt>
      <trkpt lat="43.02053" lon="0.76301">
        <ele>485</ele>
        <time>2017-06-10T15:07:43.008Z</time>
      </trkpt>
      <trkpt lat="43.02041" lon="0.76292">
        <ele>485</ele>
        <time>2017-06-10T15:07:46.008Z</time>
      </trkpt>
      <trkpt lat="43.0203" lon="0.76283">
        <ele>485</ele>
        <time>2017-06-10T15:07:50.008Z</time>
      </trkpt>
      <trkpt lat="43.02021" lon="0.76276">
        <ele>485</ele>
        <time>2017-06-10T15:07:55.008Z</time>
      </trkpt>
      <trkpt lat="43.02011" lon="0.76265">
        <ele>485</ele>
        <time>2017-06-10T15:07:59.008Z</time>
      </trkpt>
      <trkpt lat="43.02002" lon="0.76254">
        <ele>488</ele>
        <time>2017-06-10T15:08:03.008Z</time>
      </trkpt>
      <trkpt lat="43.01992" lon="0.76243">
        <ele>487.56789465672</ele>
        <time>2017-06-10T15:08:06.008Z</time>
      </trkpt>
      <trkpt lat="43.01982" lon="0.76229">
        <ele>486</ele>
        <time>2017-06-10T15:08:09.008Z</time>
      </trkpt>
      <trkpt lat="43.01976" lon="0.76218">
        <ele>485.5820032</ele>
        <time>2017-06-10T15:08:11.008Z</time>
      </trkpt>
      <trkpt lat="43.01966" lon="0.76207">
        <ele>484</ele>
        <time>2017-06-10T15:08:14.008Z</time>
      </trkpt>
      <trkpt lat="43.01959" lon="0.762">
        <ele>483.7910016</ele>
        <time>2017-06-10T15:08:16.008Z</time>
      </trkpt>
      <trkpt lat="43.01952" lon="0.76192">
        <ele>483</ele>
        <time>2017-06-10T15:08:18.008Z</time>
      </trkpt>
      <trkpt lat="43.0194" lon="0.76183">
        <ele>482.1640064</ele>
        <time>2017-06-10T15:08:21.008Z</time>
      </trkpt>
      <trkpt lat="43.01932" lon="0.7617">
        <ele>473.7910016</ele>
        <time>2017-06-10T15:08:24.008Z</time>
      </trkpt>
      <trkpt lat="43.01924" lon="0.76159">
        <ele>449.7910016</ele>
        <time>2017-06-10T15:08:29.008Z</time>
      </trkpt>
      <trkpt lat="43.01915" lon="0.76165">
        <ele>447</ele>
        <time>2017-06-10T15:08:32.008Z</time>
      </trkpt>
      <trkpt lat="43.01904" lon="0.76168">
        <ele>444.7910016</ele>
        <time>2017-06-10T15:08:35.008Z</time>
      </trkpt>
      <trkpt lat="43.01898" lon="0.76157">
        <ele>443</ele>
        <time>2017-06-10T15:08:38.008Z</time>
      </trkpt>
      <trkpt lat="43.01898" lon="0.76145">
        <ele>443</ele>
        <time>2017-06-10T15:08:40.008Z</time>
      </trkpt>
      <trkpt lat="43.01896" lon="0.76136">
        <ele>441.7910016</ele>
        <time>2017-06-10T15:08:42.008Z</time>
      </trkpt>
      <trkpt lat="43.01893" lon="0.76125">
        <ele>440.2089984</ele>
        <time>2017-06-10T15:08:45.008Z</time>
      </trkpt>
      <trkpt lat="43.0189" lon="0.7611">
        <ele>439.7910016</ele>
        <time>2017-06-10T15:08:48.008Z</time>
      </trkpt>
      <trkpt lat="43.01888" lon="0.76094">
        <ele>438</ele>
        <time>2017-06-10T15:08:50.008Z</time>
      </trkpt>
      <trkpt lat="43.01884" lon="0.76076">
        <ele>438</ele>
        <time>2017-06-10T15:08:52.008Z</time>
      </trkpt>
      <trkpt lat="43.01882" lon="0.76056">
        <ele>438</ele>
        <time>2017-06-10T15:08:54.008Z</time>
      </trkpt>
      <trkpt lat="43.01881" lon="0.76046">
        <ele>438</ele>
        <time>2017-06-10T15:08:55.008Z</time>
      </trkpt>
      <trkpt lat="43.01879" lon="0.76036">
        <ele>437.5820032</ele>
        <time>2017-06-10T15:08:56.008Z</time>
      </trkpt>
      <trkpt lat="43.01878" lon="0.76026">
        <ele>436</ele>
        <time>2017-06-10T15:08:57.008Z</time>
      </trkpt>
      <trkpt lat="43.01877" lon="0.76017">
        <ele>436</ele>
        <time>2017-06-10T15:08:58.008Z</time>
      </trkpt>
      <trkpt lat="43.01876" lon="0.76008">
        <ele>436</ele>
        <time>2017-06-10T15:08:59.008Z</time>
      </trkpt>
      <trkpt lat="43.01875" lon="0.75999">
        <ele>436</ele>
        <time>2017-06-10T15:09:00.008Z</time>
      </trkpt>
      <trkpt lat="43.01874" lon="0.75991">
        <ele>436</ele>
        <time>2017-06-10T15:09:01.008Z</time>
      </trkpt>
      <trkpt lat="43.01872" lon="0.75982">
        <ele>436</ele>
        <time>2017-06-10T15:09:02.008Z</time>
      </trkpt>
      <trkpt lat="43.01871" lon="0.75974">
        <ele>436</ele>
        <time>2017-06-10T15:09:03.008Z</time>
      </trkpt>
      <trkpt lat="43.01869" lon="0.75965">
        <ele>436</ele>
        <time>2017-06-10T15:09:04.008Z</time>
      </trkpt>
      <trkpt lat="43.01867" lon="0.75957">
        <ele>436</ele>
        <time>2017-06-10T15:09:05.008Z</time>
      </trkpt>
      <trkpt lat="43.01866" lon="0.75949">
        <ele>436</ele>
        <time>2017-06-10T15:09:06.008Z</time>
      </trkpt>
      <trkpt lat="43.01864" lon="0.75941">
        <ele>436</ele>
        <time>2017-06-10T15:09:07.008Z</time>
      </trkpt>
      <trkpt lat="43.01863" lon="0.75933">
        <ele>436</ele>
        <time>2017-06-10T15:09:08.008Z</time>
      </trkpt>
      <trkpt lat="43.01861" lon="0.75926">
        <ele>436</ele>
        <time>2017-06-10T15:09:09.008Z</time>
      </trkpt>
      <trkpt lat="43.01857" lon="0.75911">
        <ele>435.7910016</ele>
        <time>2017-06-10T15:09:11.008Z</time>
      </trkpt>
      <trkpt lat="43.01853" lon="0.75896">
        <ele>435</ele>
        <time>2017-06-10T15:09:13.008Z</time>
      </trkpt>
      <trkpt lat="43.01851" lon="0.75889">
        <ele>435</ele>
        <time>2017-06-10T15:09:14.008Z</time>
      </trkpt>
      <trkpt lat="43.01848" lon="0.75881">
        <ele>435</ele>
        <time>2017-06-10T15:09:15.008Z</time>
      </trkpt>
      <trkpt lat="43.01846" lon="0.75874">
        <ele>435</ele>
        <time>2017-06-10T15:09:16.008Z</time>
      </trkpt>
      <trkpt lat="43.01845" lon="0.75866">
        <ele>435</ele>
        <time>2017-06-10T15:09:17.008Z</time>
      </trkpt>
      <trkpt lat="43.01841" lon="0.75852">
        <ele>435</ele>
        <time>2017-06-10T15:09:19.008Z</time>
      </trkpt>
      <trkpt lat="43.01838" lon="0.75837">
        <ele>434.792</ele>
        <time>2017-06-10T15:09:21.008Z</time>
      </trkpt>
      <trkpt lat="43.01836" lon="0.75829">
        <ele>434</ele>
        <time>2017-06-10T15:09:22.008Z</time>
      </trkpt>
      <trkpt lat="43.01835" lon="0.75822">
        <ele>434</ele>
        <time>2017-06-10T15:09:23.008Z</time>
      </trkpt>
      <trkpt lat="43.01832" lon="0.75807">
        <ele>434</ele>
        <time>2017-06-10T15:09:25.008Z</time>
      </trkpt>
      <trkpt lat="43.01832" lon="0.75792">
        <ele>434</ele>
        <time>2017-06-10T15:09:27.008Z</time>
      </trkpt>
      <trkpt lat="43.01834" lon="0.75777">
        <ele>434</ele>
        <time>2017-06-10T15:09:29.008Z</time>
      </trkpt>
      <trkpt lat="43.01836" lon="0.75763">
        <ele>434</ele>
        <time>2017-06-10T15:09:31.008Z</time>
      </trkpt>
      <trkpt lat="43.01837" lon="0.75748">
        <ele>434</ele>
        <time>2017-06-10T15:09:33.008Z</time>
      </trkpt>
      <trkpt lat="43.01839" lon="0.75734">
        <ele>434</ele>
        <time>2017-06-10T15:09:35.008Z</time>
      </trkpt>
      <trkpt lat="43.01838" lon="0.7572">
        <ele>434</ele>
        <time>2017-06-10T15:09:37.008Z</time>
      </trkpt>
      <trkpt lat="43.01833" lon="0.75709">
        <ele>434</ele>
        <time>2017-06-10T15:09:39.008Z</time>
      </trkpt>
      <trkpt lat="43.01827" lon="0.75701">
        <ele>434</ele>
        <time>2017-06-10T15:09:41.008Z</time>
      </trkpt>
      <trkpt lat="43.01821" lon="0.75693">
        <ele>434</ele>
        <time>2017-06-10T15:09:43.008Z</time>
      </trkpt>
      <trkpt lat="43.01816" lon="0.75686">
        <ele>434</ele>
        <time>2017-06-10T15:09:45.008Z</time>
      </trkpt>
      <trkpt lat="43.0181" lon="0.75681">
        <ele>434</ele>
        <time>2017-06-10T15:09:47.008Z</time>
      </trkpt>
      <trkpt lat="43.01805" lon="0.75677">
        <ele>434</ele>
        <time>2017-06-10T15:09:49.008Z</time>
      </trkpt>
      <trkpt lat="43.01801" lon="0.75674">
        <ele>434.624</ele>
        <time>2017-06-10T15:09:51.008Z</time>
      </trkpt>
      <trkpt lat="43.01798" lon="0.75671">
        <ele>437</ele>
        <time>2017-06-10T15:09:53.008Z</time>
      </trkpt>
      <trkpt lat="43.01794" lon="0.75669">
        <ele>437</ele>
        <time>2017-06-10T15:09:55.008Z</time>
      </trkpt>
      <trkpt lat="43.01789" lon="0.75667">
        <ele>438</ele>
        <time>2017-06-10T15:09:57.008Z</time>
      </trkpt>
      <trkpt lat="43.01785" lon="0.75664">
        <ele>438</ele>
        <time>2017-06-10T15:09:59.008Z</time>
      </trkpt>
      <trkpt lat="43.0178" lon="0.75663">
        <ele>438</ele>
        <time>2017-06-10T15:10:01.008Z</time>
      </trkpt>
      <trkpt lat="43.01787" lon="0.75665">
        <ele>438</ele>
        <time>2017-06-10T15:10:26.008Z</time>
      </trkpt>
      <trkpt lat="43.01793" lon="0.75669">
        <ele>438</ele>
        <time>2017-06-10T15:10:28.008Z</time>
      </trkpt>
      <trkpt lat="43.01796" lon="0.75671">
        <ele>438</ele>
        <time>2017-06-10T15:10:29.008Z</time>
      </trkpt>
      <trkpt lat="43.01799" lon="0.75673">
        <ele>438</ele>
        <time>2017-06-10T15:10:30.008Z</time>
      </trkpt>
      <trkpt lat="43.01803" lon="0.75676">
        <ele>438</ele>
        <time>2017-06-10T15:10:31.008Z</time>
      </trkpt>
      <trkpt lat="43.01806" lon="0.75679">
        <ele>438</ele>
        <time>2017-06-10T15:10:32.008Z</time>
      </trkpt>
      <trkpt lat="43.0181" lon="0.75683">
        <ele>438</ele>
        <time>2017-06-10T15:10:33.008Z</time>
      </trkpt>
      <trkpt lat="43.01815" lon="0.75687">
        <ele>438</ele>
        <time>2017-06-10T15:10:34.008Z</time>
      </trkpt>
      <trkpt lat="43.0182" lon="0.75692">
        <ele>437.792</ele>
        <time>2017-06-10T15:10:35.008Z</time>
      </trkpt>
      <trkpt lat="43.01824" lon="0.75697">
        <ele>437</ele>
        <time>2017-06-10T15:10:36.008Z</time>
      </trkpt>
      <trkpt lat="43.01829" lon="0.75703">
        <ele>437</ele>
        <time>2017-06-10T15:10:37.008Z</time>
      </trkpt>
      <trkpt lat="43.01832" lon="0.75708">
        <ele>437</ele>
        <time>2017-06-10T15:10:38.008Z</time>
      </trkpt>
      <trkpt lat="43.01836" lon="0.75711">
        <ele>437</ele>
        <time>2017-06-10T15:10:39.008Z</time>
      </trkpt>
      <trkpt lat="43.01841" lon="0.75712">
        <ele>436.584</ele>
        <time>2017-06-10T15:10:41.008Z</time>
      </trkpt>
      <trkpt lat="43.01842" lon="0.75702">
        <ele>435</ele>
        <time>2017-06-10T15:10:43.008Z</time>
      </trkpt>
      <trkpt lat="43.01839" lon="0.75688">
        <ele>435</ele>
        <time>2017-06-10T15:10:45.008Z</time>
      </trkpt>
      <trkpt lat="43.01837" lon="0.75679">
        <ele>434.168</ele>
        <time>2017-06-10T15:10:46.008Z</time>
      </trkpt>
      <trkpt lat="43.01835" lon="0.75669">
        <ele>431</ele>
        <time>2017-06-10T15:10:47.008Z</time>
      </trkpt>
      <trkpt lat="43.01833" lon="0.75659">
        <ele>431</ele>
        <time>2017-06-10T15:10:48.008Z</time>
      </trkpt>
      <trkpt lat="43.01829" lon="0.75651">
        <ele>431</ele>
        <time>2017-06-10T15:10:49.008Z</time>
      </trkpt>
      <trkpt lat="43.01825" lon="0.75643">
        <ele>431</ele>
        <time>2017-06-10T15:10:50.008Z</time>
      </trkpt>
      <trkpt lat="43.0182" lon="0.75636">
        <ele>430.584</ele>
        <time>2017-06-10T15:10:51.008Z</time>
      </trkpt>
      <trkpt lat="43.01816" lon="0.75629">
        <ele>428.792</ele>
        <time>2017-06-10T15:10:52.008Z</time>
      </trkpt>
      <trkpt lat="43.0181" lon="0.75623">
        <ele>427.792</ele>
        <time>2017-06-10T15:10:53.008Z</time>
      </trkpt>
      <trkpt lat="43.01805" lon="0.75618">
        <ele>426.792</ele>
        <time>2017-06-10T15:10:54.008Z</time>
      </trkpt>
      <trkpt lat="43.01799" lon="0.75613">
        <ele>425.792</ele>
        <time>2017-06-10T15:10:55.008Z</time>
      </trkpt>
      <trkpt lat="43.01793" lon="0.7561">
        <ele>425</ele>
        <time>2017-06-10T15:10:56.008Z</time>
      </trkpt>
      <trkpt lat="43.01787" lon="0.75609">
        <ele>425.208</ele>
        <time>2017-06-10T15:10:57.008Z</time>
      </trkpt>
      <trkpt lat="43.01781" lon="0.75609">
        <ele>426</ele>
        <time>2017-06-10T15:10:58.008Z</time>
      </trkpt>
      <trkpt lat="43.01775" lon="0.7561">
        <ele>425.792</ele>
        <time>2017-06-10T15:10:59.008Z</time>
      </trkpt>
      <trkpt lat="43.01769" lon="0.7561">
        <ele>425</ele>
        <time>2017-06-10T15:11:00.008Z</time>
      </trkpt>
      <trkpt lat="43.01763" lon="0.75611">
        <ele>424.792</ele>
        <time>2017-06-10T15:11:01.008Z</time>
      </trkpt>
      <trkpt lat="43.01758" lon="0.75612">
        <ele>424.208</ele>
        <time>2017-06-10T15:11:02.008Z</time>
      </trkpt>
      <trkpt lat="43.01746" lon="0.75613">
        <ele>425</ele>
        <time>2017-06-10T15:11:04.008Z</time>
      </trkpt>
      <trkpt lat="43.0174" lon="0.75614">
        <ele>425</ele>
        <time>2017-06-10T15:11:05.008Z</time>
      </trkpt>
      <trkpt lat="43.01734" lon="0.75613">
        <ele>424.792</ele>
        <time>2017-06-10T15:11:06.008Z</time>
      </trkpt>
      <trkpt lat="43.01729" lon="0.75612">
        <ele>424</ele>
        <time>2017-06-10T15:11:07.008Z</time>
      </trkpt>
      <trkpt lat="43.01725" lon="0.75609">
        <ele>424</ele>
        <time>2017-06-10T15:11:08.008Z</time>
      </trkpt>
      <trkpt lat="43.01718" lon="0.75603">
        <ele>424</ele>
        <time>2017-06-10T15:11:10.008Z</time>
      </trkpt>
      <trkpt lat="43.01712" lon="0.75596">
        <ele>423</ele>
        <time>2017-06-10T15:11:12.008Z</time>
      </trkpt>
      <trkpt lat="43.01706" lon="0.75591">
        <ele>423</ele>
        <time>2017-06-10T15:11:14.008Z</time>
      </trkpt>
      <trkpt lat="43.01699" lon="0.75585">
        <ele>423</ele>
        <time>2017-06-10T15:11:16.008Z</time>
      </trkpt>
      <trkpt lat="43.01691" lon="0.75578">
        <ele>423</ele>
        <time>2017-06-10T15:11:18.008Z</time>
      </trkpt>
      <trkpt lat="43.01682" lon="0.75575">
        <ele>423</ele>
        <time>2017-06-10T15:11:20.008Z</time>
      </trkpt>
      <trkpt lat="43.01678" lon="0.75574">
        <ele>422.792</ele>
        <time>2017-06-10T15:11:21.008Z</time>
      </trkpt>
      <trkpt lat="43.01673" lon="0.75574">
        <ele>422</ele>
        <time>2017-06-10T15:11:22.008Z</time>
      </trkpt>
      <trkpt lat="43.01668" lon="0.75573">
        <ele>422</ele>
        <time>2017-06-10T15:11:23.008Z</time>
      </trkpt>
      <trkpt lat="43.01663" lon="0.75573">
        <ele>422</ele>
        <time>2017-06-10T15:11:24.008Z</time>
      </trkpt>
      <trkpt lat="43.01654" lon="0.75572">
        <ele>422</ele>
        <time>2017-06-10T15:11:26.008Z</time>
      </trkpt>
      <trkpt lat="43.01644" lon="0.75569">
        <ele>422</ele>
        <time>2017-06-10T15:11:28.008Z</time>
      </trkpt>
      <trkpt lat="43.01635" lon="0.75566">
        <ele>422</ele>
        <time>2017-06-10T15:11:30.008Z</time>
      </trkpt>
      <trkpt lat="43.01625" lon="0.75564">
        <ele>422</ele>
        <time>2017-06-10T15:11:32.008Z</time>
      </trkpt>
      <trkpt lat="43.01617" lon="0.75564">
        <ele>422</ele>
        <time>2017-06-10T15:11:34.008Z</time>
      </trkpt>
      <trkpt lat="43.01607" lon="0.75563">
        <ele>422</ele>
        <time>2017-06-10T15:11:36.008Z</time>
      </trkpt>
      <trkpt lat="43.01598" lon="0.75564">
        <ele>422</ele>
        <time>2017-06-10T15:11:38.008Z</time>
      </trkpt>
      <trkpt lat="43.01585" lon="0.75563">
        <ele>422.208</ele>
        <time>2017-06-10T15:11:41.008Z</time>
      </trkpt>
      <trkpt lat="43.01576" lon="0.75562">
        <ele>423</ele>
        <time>2017-06-10T15:11:43.008Z</time>
      </trkpt>
      <trkpt lat="43.01568" lon="0.7556">
        <ele>423</ele>
        <time>2017-06-10T15:11:45.008Z</time>
      </trkpt>
      <trkpt lat="43.01564" lon="0.75558">
        <ele>423</ele>
        <time>2017-06-10T15:11:46.008Z</time>
      </trkpt>
      <trkpt lat="43.0156" lon="0.75556">
        <ele>423</ele>
        <time>2017-06-10T15:11:47.008Z</time>
      </trkpt>
      <trkpt lat="43.01557" lon="0.75553">
        <ele>423</ele>
        <time>2017-06-10T15:11:48.008Z</time>
      </trkpt>
      <trkpt lat="43.01555" lon="0.75548">
        <ele>423</ele>
        <time>2017-06-10T15:11:49.008Z</time>
      </trkpt>
      <trkpt lat="43.01554" lon="0.75537">
        <ele>423.208</ele>
        <time>2017-06-10T15:11:51.008Z</time>
      </trkpt>
      <trkpt lat="43.01554" lon="0.75525">
        <ele>424</ele>
        <time>2017-06-10T15:11:53.008Z</time>
      </trkpt>
      <trkpt lat="43.01554" lon="0.75513">
        <ele>424</ele>
        <time>2017-06-10T15:11:55.008Z</time>
      </trkpt>
      <trkpt lat="43.01554" lon="0.755">
        <ele>424</ele>
        <time>2017-06-10T15:11:57.008Z</time>
      </trkpt>
      <trkpt lat="43.01553" lon="0.75488">
        <ele>424</ele>
        <time>2017-06-10T15:11:59.008Z</time>
      </trkpt>
      <trkpt lat="43.01552" lon="0.75475">
        <ele>423.792</ele>
        <time>2017-06-10T15:12:01.008Z</time>
      </trkpt>
      <trkpt lat="43.01549" lon="0.75463">
        <ele>423</ele>
        <time>2017-06-10T15:12:03.008Z</time>
      </trkpt>
      <trkpt lat="43.01539" lon="0.75463">
        <ele>423</ele>
        <time>2017-06-10T15:12:06.008Z</time>
      </trkpt>
      <trkpt lat="43.01532" lon="0.75469">
        <ele>423</ele>
        <time>2017-06-10T15:12:08.008Z</time>
      </trkpt>
      <trkpt lat="43.01525" lon="0.75475">
        <ele>423</ele>
        <time>2017-06-10T15:12:10.008Z</time>
      </trkpt>
      <trkpt lat="43.01517" lon="0.75481">
        <ele>423</ele>
        <time>2017-06-10T15:12:12.008Z</time>
      </trkpt>
      <trkpt lat="43.01505" lon="0.7549">
        <ele>423</ele>
        <time>2017-06-10T15:12:15.008Z</time>
      </trkpt>
      <trkpt lat="43.01497" lon="0.75495">
        <ele>423</ele>
        <time>2017-06-10T15:12:17.008Z</time>
      </trkpt>
      <trkpt lat="43.01489" lon="0.75498">
        <ele>423</ele>
        <time>2017-06-10T15:12:19.008Z</time>
      </trkpt>
      <trkpt lat="43.0148" lon="0.75499">
        <ele>423.208</ele>
        <time>2017-06-10T15:12:21.008Z</time>
      </trkpt>
      <trkpt lat="43.01471" lon="0.755">
        <ele>424</ele>
        <time>2017-06-10T15:12:23.008Z</time>
      </trkpt>
      <trkpt lat="43.01462" lon="0.75502">
        <ele>424</ele>
        <time>2017-06-10T15:12:25.008Z</time>
      </trkpt>
      <trkpt lat="43.01452" lon="0.75504">
        <ele>424</ele>
        <time>2017-06-10T15:12:27.008Z</time>
      </trkpt>
      <trkpt lat="43.01443" lon="0.75505">
        <ele>424</ele>
        <time>2017-06-10T15:12:29.008Z</time>
      </trkpt>
      <trkpt lat="43.01434" lon="0.75505">
        <ele>424.208</ele>
        <time>2017-06-10T15:12:31.008Z</time>
      </trkpt>
      <trkpt lat="43.01424" lon="0.75506">
        <ele>425</ele>
        <time>2017-06-10T15:12:33.008Z</time>
      </trkpt>
      <trkpt lat="43.01411" lon="0.75506">
        <ele>425</ele>
        <time>2017-06-10T15:12:36.008Z</time>
      </trkpt>
      <trkpt lat="43.01402" lon="0.75504">
        <ele>425</ele>
        <time>2017-06-10T15:12:38.008Z</time>
      </trkpt>
      <trkpt lat="43.01389" lon="0.755">
        <ele>425</ele>
        <time>2017-06-10T15:12:41.008Z</time>
      </trkpt>
      <trkpt lat="43.01381" lon="0.75497">
        <ele>425</ele>
        <time>2017-06-10T15:12:43.008Z</time>
      </trkpt>
      <trkpt lat="43.01373" lon="0.75494">
        <ele>425</ele>
        <time>2017-06-10T15:12:45.008Z</time>
      </trkpt>
      <trkpt lat="43.01364" lon="0.75491">
        <ele>425</ele>
        <time>2017-06-10T15:12:47.008Z</time>
      </trkpt>
      <trkpt lat="43.01356" lon="0.75489">
        <ele>425</ele>
        <time>2017-06-10T15:12:49.008Z</time>
      </trkpt>
      <trkpt lat="43.01348" lon="0.75485">
        <ele>425</ele>
        <time>2017-06-10T15:12:51.008Z</time>
      </trkpt>
      <trkpt lat="43.01344" lon="0.75476">
        <ele>425</ele>
        <time>2017-06-10T15:12:53.008Z</time>
      </trkpt>
      <trkpt lat="43.01345" lon="0.75466">
        <ele>425</ele>
        <time>2017-06-10T15:12:55.008Z</time>
      </trkpt>
      <trkpt lat="43.01347" lon="0.75455">
        <ele>425</ele>
        <time>2017-06-10T15:12:57.008Z</time>
      </trkpt>
      <trkpt lat="43.0135" lon="0.75443">
        <ele>425</ele>
        <time>2017-06-10T15:12:59.008Z</time>
      </trkpt>
      <trkpt lat="43.01353" lon="0.75431">
        <ele>425</ele>
        <time>2017-06-10T15:13:01.008Z</time>
      </trkpt>
      <trkpt lat="43.01354" lon="0.7542">
        <ele>425</ele>
        <time>2017-06-10T15:13:03.008Z</time>
      </trkpt>
      <trkpt lat="43.0135" lon="0.75411">
        <ele>425</ele>
        <time>2017-06-10T15:13:05.008Z</time>
      </trkpt>
      <trkpt lat="43.01343" lon="0.75406">
        <ele>425</ele>
        <time>2017-06-10T15:13:07.008Z</time>
      </trkpt>
      <trkpt lat="43.01336" lon="0.75402">
        <ele>425</ele>
        <time>2017-06-10T15:13:09.008Z</time>
      </trkpt>
      <trkpt lat="43.01329" lon="0.75399">
        <ele>425.43167819938</ele>
        <time>2017-06-10T15:13:11.008Z</time>
      </trkpt>
      <trkpt lat="43.01322" lon="0.75395">
        <ele>427</ele>
        <time>2017-06-10T15:13:13.008Z</time>
      </trkpt>
      <trkpt lat="43.01316" lon="0.7539">
        <ele>427</ele>
        <time>2017-06-10T15:13:15.008Z</time>
      </trkpt>
      <trkpt lat="43.01309" lon="0.75385">
        <ele>430</ele>
        <time>2017-06-10T15:13:17.008Z</time>
      </trkpt>
      <trkpt lat="43.01304" lon="0.7538">
        <ele>430</ele>
        <time>2017-06-10T15:13:19.008Z</time>
      </trkpt>
      <trkpt lat="43.01298" lon="0.75376">
        <ele>430</ele>
        <time>2017-06-10T15:13:21.008Z</time>
      </trkpt>
      <trkpt lat="43.01292" lon="0.75371">
        <ele>430</ele>
        <time>2017-06-10T15:13:23.008Z</time>
      </trkpt>
      <trkpt lat="43.01287" lon="0.75366">
        <ele>430</ele>
        <time>2017-06-10T15:13:25.008Z</time>
      </trkpt>
      <trkpt lat="43.01279" lon="0.7536">
        <ele>431</ele>
        <time>2017-06-10T15:13:28.008Z</time>
      </trkpt>
      <trkpt lat="43.0127" lon="0.75354">
        <ele>431</ele>
        <time>2017-06-10T15:13:31.008Z</time>
      </trkpt>
      <trkpt lat="43.01264" lon="0.75348">
        <ele>431</ele>
        <time>2017-06-10T15:13:33.008Z</time>
      </trkpt>
      <trkpt lat="43.01258" lon="0.75342">
        <ele>431</ele>
        <time>2017-06-10T15:13:35.008Z</time>
      </trkpt>
      <trkpt lat="43.01252" lon="0.75335">
        <ele>431</ele>
        <time>2017-06-10T15:13:37.008Z</time>
      </trkpt>
      <trkpt lat="43.01247" lon="0.75328">
        <ele>431</ele>
        <time>2017-06-10T15:13:39.008Z</time>
      </trkpt>
      <trkpt lat="43.01241" lon="0.75321">
        <ele>431.43167819938</ele>
        <time>2017-06-10T15:13:41.008Z</time>
      </trkpt>
      <trkpt lat="43.01236" lon="0.75314">
        <ele>433</ele>
        <time>2017-06-10T15:13:43.008Z</time>
      </trkpt>
      <trkpt lat="43.01227" lon="0.75305">
        <ele>433</ele>
        <time>2017-06-10T15:13:46.008Z</time>
      </trkpt>
      <trkpt lat="43.01221" lon="0.753">
        <ele>433</ele>
        <time>2017-06-10T15:13:48.008Z</time>
      </trkpt>
      <trkpt lat="43.01214" lon="0.75295">
        <ele>433</ele>
        <time>2017-06-10T15:13:50.008Z</time>
      </trkpt>
      <trkpt lat="43.01207" lon="0.7529">
        <ele>434</ele>
        <time>2017-06-10T15:13:52.008Z</time>
      </trkpt>
      <trkpt lat="43.01197" lon="0.75284">
        <ele>434</ele>
        <time>2017-06-10T15:13:55.008Z</time>
      </trkpt>
      <trkpt lat="43.01188" lon="0.75275">
        <ele>434</ele>
        <time>2017-06-10T15:13:58.008Z</time>
      </trkpt>
      <trkpt lat="43.01178" lon="0.75266">
        <ele>434</ele>
        <time>2017-06-10T15:14:01.008Z</time>
      </trkpt>
      <trkpt lat="43.01171" lon="0.75259">
        <ele>434</ele>
        <time>2017-06-10T15:14:03.008Z</time>
      </trkpt>
      <trkpt lat="43.01164" lon="0.75252">
        <ele>434</ele>
        <time>2017-06-10T15:14:05.008Z</time>
      </trkpt>
      <trkpt lat="43.01158" lon="0.75244">
        <ele>434</ele>
        <time>2017-06-10T15:14:07.008Z</time>
      </trkpt>
      <trkpt lat="43.01152" lon="0.75235">
        <ele>434</ele>
        <time>2017-06-10T15:14:09.008Z</time>
      </trkpt>
      <trkpt lat="43.01145" lon="0.75222">
        <ele>435</ele>
        <time>2017-06-10T15:14:12.008Z</time>
      </trkpt>
      <trkpt lat="43.0114" lon="0.75208">
        <ele>435</ele>
        <time>2017-06-10T15:14:15.008Z</time>
      </trkpt>
      <trkpt lat="43.01136" lon="0.75199">
        <ele>435</ele>
        <time>2017-06-10T15:14:17.008Z</time>
      </trkpt>
      <trkpt lat="43.01131" lon="0.7519">
        <ele>435</ele>
        <time>2017-06-10T15:14:19.008Z</time>
      </trkpt>
      <trkpt lat="43.01126" lon="0.75181">
        <ele>435.208</ele>
        <time>2017-06-10T15:14:21.008Z</time>
      </trkpt>
      <trkpt lat="43.01117" lon="0.75172">
        <ele>436</ele>
        <time>2017-06-10T15:14:24.008Z</time>
      </trkpt>
      <trkpt lat="43.01107" lon="0.75164">
        <ele>436</ele>
        <time>2017-06-10T15:14:27.008Z</time>
      </trkpt>
      <trkpt lat="43.01097" lon="0.75156">
        <ele>436</ele>
        <time>2017-06-10T15:14:30.008Z</time>
      </trkpt>
      <trkpt lat="43.01087" lon="0.75152">
        <ele>437</ele>
        <time>2017-06-10T15:14:33.008Z</time>
      </trkpt>
      <trkpt lat="43.01081" lon="0.75148">
        <ele>437</ele>
        <time>2017-06-10T15:14:35.008Z</time>
      </trkpt>
      <trkpt lat="43.01075" lon="0.75146">
        <ele>437</ele>
        <time>2017-06-10T15:14:37.008Z</time>
      </trkpt>
      <trkpt lat="43.01068" lon="0.75144">
        <ele>437</ele>
        <time>2017-06-10T15:14:39.008Z</time>
      </trkpt>
      <trkpt lat="43.01061" lon="0.75142">
        <ele>437.64751729906</ele>
        <time>2017-06-10T15:14:41.008Z</time>
      </trkpt>
      <trkpt lat="43.01054" lon="0.75142">
        <ele>440</ele>
        <time>2017-06-10T15:14:43.008Z</time>
      </trkpt>
      <trkpt lat="43.01046" lon="0.75142">
        <ele>440</ele>
        <time>2017-06-10T15:14:45.008Z</time>
      </trkpt>
      <trkpt lat="43.01039" lon="0.75144">
        <ele>441</ele>
        <time>2017-06-10T15:14:47.008Z</time>
      </trkpt>
      <trkpt lat="43.01032" lon="0.75146">
        <ele>441</ele>
        <time>2017-06-10T15:14:49.008Z</time>
      </trkpt>
      <trkpt lat="43.01022" lon="0.7515">
        <ele>441</ele>
        <time>2017-06-10T15:14:52.008Z</time>
      </trkpt>
      <trkpt lat="43.01011" lon="0.75151">
        <ele>441</ele>
        <time>2017-06-10T15:14:55.008Z</time>
      </trkpt>
      <trkpt lat="43.01004" lon="0.75151">
        <ele>441</ele>
        <time>2017-06-10T15:14:57.008Z</time>
      </trkpt>
      <trkpt lat="43.00996" lon="0.7515">
        <ele>441</ele>
        <time>2017-06-10T15:14:59.008Z</time>
      </trkpt>
      <trkpt lat="43.00985" lon="0.75149">
        <ele>443</ele>
        <time>2017-06-10T15:15:02.008Z</time>
      </trkpt>
      <trkpt lat="43.00974" lon="0.75148">
        <ele>443</ele>
        <time>2017-06-10T15:15:05.008Z</time>
      </trkpt>
      <trkpt lat="43.00964" lon="0.75148">
        <ele>444</ele>
        <time>2017-06-10T15:15:08.008Z</time>
      </trkpt>
      <trkpt lat="43.00953" lon="0.75148">
        <ele>444.21583909969</ele>
        <time>2017-06-10T15:15:11.008Z</time>
      </trkpt>
      <trkpt lat="43.00941" lon="0.75149">
        <ele>445</ele>
        <time>2017-06-10T15:15:14.008Z</time>
      </trkpt>
      <trkpt lat="43.00933" lon="0.75148">
        <ele>445</ele>
        <time>2017-06-10T15:15:16.008Z</time>
      </trkpt>
      <trkpt lat="43.00926" lon="0.75148">
        <ele>445</ele>
        <time>2017-06-10T15:15:18.008Z</time>
      </trkpt>
      <trkpt lat="43.00919" lon="0.75147">
        <ele>445</ele>
        <time>2017-06-10T15:15:20.008Z</time>
      </trkpt>
      <trkpt lat="43.00912" lon="0.75146">
        <ele>447</ele>
        <time>2017-06-10T15:15:22.008Z</time>
      </trkpt>
      <trkpt lat="43.00905" lon="0.75145">
        <ele>447</ele>
        <time>2017-06-10T15:15:24.008Z</time>
      </trkpt>
      <trkpt lat="43.00898" lon="0.75144">
        <ele>447</ele>
        <time>2017-06-10T15:15:26.008Z</time>
      </trkpt>
      <trkpt lat="43.00891" lon="0.75142">
        <ele>447</ele>
        <time>2017-06-10T15:15:28.008Z</time>
      </trkpt>
      <trkpt lat="43.00884" lon="0.7514">
        <ele>447</ele>
        <time>2017-06-10T15:15:30.008Z</time>
      </trkpt>
      <trkpt lat="43.00878" lon="0.75136">
        <ele>448</ele>
        <time>2017-06-10T15:15:32.008Z</time>
      </trkpt>
      <trkpt lat="43.00871" lon="0.75132">
        <ele>448</ele>
        <time>2017-06-10T15:15:34.008Z</time>
      </trkpt>
      <trkpt lat="43.00864" lon="0.75128">
        <ele>448</ele>
        <time>2017-06-10T15:15:36.008Z</time>
      </trkpt>
      <trkpt lat="43.00859" lon="0.75124">
        <ele>448</ele>
        <time>2017-06-10T15:15:38.008Z</time>
      </trkpt>
      <trkpt lat="43.0085" lon="0.75118">
        <ele>448.21583909969</ele>
        <time>2017-06-10T15:15:41.008Z</time>
      </trkpt>
      <trkpt lat="43.00839" lon="0.7511">
        <ele>449</ele>
        <time>2017-06-10T15:15:45.008Z</time>
      </trkpt>
      <trkpt lat="43.00828" lon="0.75101">
        <ele>449</ele>
        <time>2017-06-10T15:15:49.008Z</time>
      </trkpt>
      <trkpt lat="43.00818" lon="0.75095">
        <ele>451</ele>
        <time>2017-06-10T15:15:52.008Z</time>
      </trkpt>
      <trkpt lat="43.00808" lon="0.75089">
        <ele>451</ele>
        <time>2017-06-10T15:15:55.008Z</time>
      </trkpt>
      <trkpt lat="43.00797" lon="0.75081">
        <ele>451</ele>
        <time>2017-06-10T15:15:58.008Z</time>
      </trkpt>
      <trkpt lat="43.00788" lon="0.75073">
        <ele>451.208</ele>
        <time>2017-06-10T15:16:01.008Z</time>
      </trkpt>
      <trkpt lat="43.00779" lon="0.75064">
        <ele>452</ele>
        <time>2017-06-10T15:16:04.008Z</time>
      </trkpt>
      <trkpt lat="43.00771" lon="0.75055">
        <ele>452</ele>
        <time>2017-06-10T15:16:07.008Z</time>
      </trkpt>
      <trkpt lat="43.00765" lon="0.7505">
        <ele>452</ele>
        <time>2017-06-10T15:16:09.008Z</time>
      </trkpt>
      <trkpt lat="43.00759" lon="0.75045">
        <ele>452.64751729906</ele>
        <time>2017-06-10T15:16:11.008Z</time>
      </trkpt>
      <trkpt lat="43.00753" lon="0.75042">
        <ele>455</ele>
        <time>2017-06-10T15:16:13.008Z</time>
      </trkpt>
      <trkpt lat="43.00747" lon="0.75039">
        <ele>455</ele>
        <time>2017-06-10T15:16:15.008Z</time>
      </trkpt>
      <trkpt lat="43.00741" lon="0.75036">
        <ele>456</ele>
        <time>2017-06-10T15:16:17.008Z</time>
      </trkpt>
      <trkpt lat="43.00735" lon="0.75033">
        <ele>456</ele>
        <time>2017-06-10T15:16:19.008Z</time>
      </trkpt>
      <trkpt lat="43.00729" lon="0.75028">
        <ele>456</ele>
        <time>2017-06-10T15:16:21.008Z</time>
      </trkpt>
      <trkpt lat="43.00722" lon="0.75024">
        <ele>456</ele>
        <time>2017-06-10T15:16:23.008Z</time>
      </trkpt>
      <trkpt lat="43.00715" lon="0.75018">
        <ele>456</ele>
        <time>2017-06-10T15:16:26.008Z</time>
      </trkpt>
      <trkpt lat="43.00705" lon="0.75011">
        <ele>456</ele>
        <time>2017-06-10T15:16:29.008Z</time>
      </trkpt>
      <trkpt lat="43.00695" lon="0.75">
        <ele>456</ele>
        <time>2017-06-10T15:16:33.008Z</time>
      </trkpt>
      <trkpt lat="43.00687" lon="0.74991">
        <ele>456</ele>
        <time>2017-06-10T15:16:37.008Z</time>
      </trkpt>
      <trkpt lat="43.00677" lon="0.74979">
        <ele>456.21583909969</ele>
        <time>2017-06-10T15:16:41.008Z</time>
      </trkpt>
      <trkpt lat="43.00671" lon="0.74969">
        <ele>457</ele>
        <time>2017-06-10T15:16:44.008Z</time>
      </trkpt>
      <trkpt lat="43.00662" lon="0.74959">
        <ele>457</ele>
        <time>2017-06-10T15:16:48.008Z</time>
      </trkpt>
      <trkpt lat="43.00656" lon="0.74949">
        <ele>457.208</ele>
        <time>2017-06-10T15:16:51.008Z</time>
      </trkpt>
      <trkpt lat="43.00648" lon="0.74936">
        <ele>458</ele>
        <time>2017-06-10T15:16:55.008Z</time>
      </trkpt>
      <trkpt lat="43.00639" lon="0.74926">
        <ele>458</ele>
        <time>2017-06-10T15:16:59.008Z</time>
      </trkpt>
      <trkpt lat="43.00631" lon="0.74917">
        <ele>460</ele>
        <time>2017-06-10T15:17:02.008Z</time>
      </trkpt>
      <trkpt lat="43.00624" lon="0.74903">
        <ele>460</ele>
        <time>2017-06-10T15:17:07.008Z</time>
      </trkpt>
      <trkpt lat="43.00617" lon="0.74893">
        <ele>462</ele>
        <time>2017-06-10T15:17:12.008Z</time>
      </trkpt>
      <trkpt lat="43.00611" lon="0.74881">
        <ele>462</ele>
        <time>2017-06-10T15:17:17.008Z</time>
      </trkpt>
      <trkpt lat="43.00603" lon="0.7487">
        <ele>463</ele>
        <time>2017-06-10T15:17:22.008Z</time>
      </trkpt>
      <trkpt lat="43.00595" lon="0.74861">
        <ele>463.64751729906</ele>
        <time>2017-06-10T15:17:31.008Z</time>
      </trkpt>
      <trkpt lat="43.00586" lon="0.7486">
        <ele>469</ele>
        <time>2017-06-10T15:17:38.008Z</time>
      </trkpt>
      <trkpt lat="43.00577" lon="0.74867">
        <ele>472</ele>
        <time>2017-06-10T15:17:48.008Z</time>
      </trkpt>
      <trkpt lat="43.00567" lon="0.74873">
        <ele>473</ele>
        <time>2017-06-10T15:17:53.008Z</time>
      </trkpt>
      <trkpt lat="43.00557" lon="0.74883">
        <ele>474.416</ele>
        <time>2017-06-10T15:18:01.008Z</time>
      </trkpt>
      <trkpt lat="43.00549" lon="0.74893">
        <ele>476</ele>
        <time>2017-06-10T15:18:08.008Z</time>
      </trkpt>
      <trkpt lat="43.0054" lon="0.74903">
        <ele>477</ele>
        <time>2017-06-10T15:18:15.008Z</time>
      </trkpt>
      <trkpt lat="43.00532" lon="0.74913">
        <ele>480</ele>
        <time>2017-06-10T15:18:23.008Z</time>
      </trkpt>
      <trkpt lat="43.00524" lon="0.74923">
        <ele>481</ele>
        <time>2017-06-10T15:18:30.008Z</time>
      </trkpt>
      <trkpt lat="43.00516" lon="0.74931">
        <ele>481</ele>
        <time>2017-06-10T15:18:38.008Z</time>
      </trkpt>
      <trkpt lat="43.00506" lon="0.74936">
        <ele>484</ele>
        <time>2017-06-10T15:18:52.008Z</time>
      </trkpt>
      <trkpt lat="43.00498" lon="0.74946">
        <ele>486</ele>
        <time>2017-06-10T15:19:47.008Z</time>
      </trkpt>
      <trkpt lat="43.00492" lon="0.74958">
        <ele>488</ele>
        <time>2017-06-10T15:20:03.008Z</time>
      </trkpt>
      <trkpt lat="43.00482" lon="0.74965">
        <ele>492</ele>
        <time>2017-06-10T15:20:21.008Z</time>
      </trkpt>
      <trkpt lat="43.00473" lon="0.74971">
        <ele>494</ele>
        <time>2017-06-10T15:20:32.008Z</time>
      </trkpt>
      <trkpt lat="43.00467" lon="0.7496">
        <ele>497</ele>
        <time>2017-06-10T15:20:56.008Z</time>
      </trkpt>
      <trkpt lat="43.00467" lon="0.74946">
        <ele>499</ele>
        <time>2017-06-10T15:21:07.008Z</time>
      </trkpt>
      <trkpt lat="43.00469" lon="0.74932">
        <ele>500</ele>
        <time>2017-06-10T15:21:19.008Z</time>
      </trkpt>
      <trkpt lat="43.00471" lon="0.74919">
        <ele>501</ele>
        <time>2017-06-10T15:21:29.008Z</time>
      </trkpt>
      <trkpt lat="43.00472" lon="0.74904">
        <ele>505</ele>
        <time>2017-06-10T15:21:45.008Z</time>
      </trkpt>
      <trkpt lat="43.00478" lon="0.74893">
        <ele>506</ele>
        <time>2017-06-10T15:21:56.008Z</time>
      </trkpt>
      <trkpt lat="43.00482" lon="0.74881">
        <ele>505</ele>
        <time>2017-06-10T15:22:07.008Z</time>
      </trkpt>
      <trkpt lat="43.00487" lon="0.74867">
        <ele>507</ele>
        <time>2017-06-10T15:22:24.008Z</time>
      </trkpt>
      <trkpt lat="43.00492" lon="0.74853">
        <ele>507</ele>
        <time>2017-06-10T15:22:30.008Z</time>
      </trkpt>
      <trkpt lat="43.00498" lon="0.74841">
        <ele>510</ele>
        <time>2017-06-10T15:22:44.008Z</time>
      </trkpt>
      <trkpt lat="43.00506" lon="0.74831">
        <ele>512</ele>
        <time>2017-06-10T15:22:55.008Z</time>
      </trkpt>
      <trkpt lat="43.00514" lon="0.74821">
        <ele>514</ele>
        <time>2017-06-10T15:23:02.008Z</time>
      </trkpt>
      <trkpt lat="43.0052" lon="0.74809">
        <ele>515</ele>
        <time>2017-06-10T15:23:09.008Z</time>
      </trkpt>
      <trkpt lat="43.00527" lon="0.74796">
        <ele>515</ele>
        <time>2017-06-10T15:23:16.008Z</time>
      </trkpt>
      <trkpt lat="43.00535" lon="0.74786">
        <ele>515.416</ele>
        <time>2017-06-10T15:23:21.008Z</time>
      </trkpt>
      <trkpt lat="43.00539" lon="0.74771">
        <ele>517</ele>
        <time>2017-06-10T15:23:29.008Z</time>
      </trkpt>
      <trkpt lat="43.00547" lon="0.7476">
        <ele>519</ele>
        <time>2017-06-10T15:23:39.008Z</time>
      </trkpt>
      <trkpt lat="43.00548" lon="0.74746">
        <ele>520</ele>
        <time>2017-06-10T15:23:50.008Z</time>
      </trkpt>
      <trkpt lat="43.00553" lon="0.74736">
        <ele>520</ele>
        <time>2017-06-10T15:24:04.008Z</time>
      </trkpt>
      <trkpt lat="43.0056" lon="0.74729">
        <ele>522</ele>
        <time>2017-06-10T15:24:17.008Z</time>
      </trkpt>
      <trkpt lat="43.00568" lon="0.74725">
        <ele>523</ele>
        <time>2017-06-10T15:24:23.008Z</time>
      </trkpt>
      <trkpt lat="43.00577" lon="0.7472">
        <ele>523</ele>
        <time>2017-06-10T15:24:30.008Z</time>
      </trkpt>
      <trkpt lat="43.00584" lon="0.74711">
        <ele>524</ele>
        <time>2017-06-10T15:24:37.008Z</time>
      </trkpt>
      <trkpt lat="43.00592" lon="0.747">
        <ele>526</ele>
        <time>2017-06-10T15:24:42.008Z</time>
      </trkpt>
      <trkpt lat="43.00598" lon="0.7469">
        <ele>526</ele>
        <time>2017-06-10T15:24:47.008Z</time>
      </trkpt>
      <trkpt lat="43.00606" lon="0.74679">
        <ele>527</ele>
        <time>2017-06-10T15:24:54.008Z</time>
      </trkpt>
      <trkpt lat="43.00613" lon="0.74668">
        <ele>527.208</ele>
        <time>2017-06-10T15:25:01.008Z</time>
      </trkpt>
      <trkpt lat="43.00625" lon="0.74666">
        <ele>528</ele>
        <time>2017-06-10T15:25:08.008Z</time>
      </trkpt>
      <trkpt lat="43.00632" lon="0.74662">
        <ele>530</ele>
        <time>2017-06-10T15:25:12.008Z</time>
      </trkpt>
      <trkpt lat="43.00636" lon="0.74654">
        <ele>530</ele>
        <time>2017-06-10T15:25:17.008Z</time>
      </trkpt>
      <trkpt lat="43.00626" lon="0.74653">
        <ele>531</ele>
        <time>2017-06-10T15:25:26.008Z</time>
      </trkpt>
      <trkpt lat="43.00626" lon="0.74638">
        <ele>533</ele>
        <time>2017-06-10T15:25:33.008Z</time>
      </trkpt>
      <trkpt lat="43.00633" lon="0.74627">
        <ele>534</ele>
        <time>2017-06-10T15:25:49.008Z</time>
      </trkpt>
      <trkpt lat="43.0064" lon="0.74617">
        <ele>539</ele>
        <time>2017-06-10T15:26:04.008Z</time>
      </trkpt>
      <trkpt lat="43.00646" lon="0.74605">
        <ele>540</ele>
        <time>2017-06-10T15:26:20.008Z</time>
      </trkpt>
      <trkpt lat="43.00653" lon="0.74595">
        <ele>543</ele>
        <time>2017-06-10T15:26:35.008Z</time>
      </trkpt>
      <trkpt lat="43.0066" lon="0.74586">
        <ele>550</ele>
        <time>2017-06-10T15:26:48.008Z</time>
      </trkpt>
      <trkpt lat="43.00664" lon="0.74577">
        <ele>549</ele>
        <time>2017-06-10T15:27:20.008Z</time>
      </trkpt>
      <trkpt lat="43.00674" lon="0.74574">
        <ele>552</ele>
        <time>2017-06-10T15:27:32.008Z</time>
      </trkpt>
      <trkpt lat="43.00682" lon="0.74567">
        <ele>552</ele>
        <time>2017-06-10T15:27:39.008Z</time>
      </trkpt>
      <trkpt lat="43.00676" lon="0.74556">
        <ele>554</ele>
        <time>2017-06-10T15:27:59.008Z</time>
      </trkpt>
      <trkpt lat="43.00667" lon="0.74549">
        <ele>554</ele>
        <time>2017-06-10T15:28:15.008Z</time>
      </trkpt>
      <trkpt lat="43.00657" lon="0.74546">
        <ele>554</ele>
        <time>2017-06-10T15:28:22.008Z</time>
      </trkpt>
      <trkpt lat="43.00647" lon="0.74546">
        <ele>554</ele>
        <time>2017-06-10T15:28:31.008Z</time>
      </trkpt>
      <trkpt lat="43.00637" lon="0.74547">
        <ele>555</ele>
        <time>2017-06-10T15:28:45.008Z</time>
      </trkpt>
      <trkpt lat="43.00628" lon="0.74552">
        <ele>557</ele>
        <time>2017-06-10T15:28:53.008Z</time>
      </trkpt>
      <trkpt lat="43.00618" lon="0.74551">
        <ele>558</ele>
        <time>2017-06-10T15:29:05.008Z</time>
      </trkpt>
      <trkpt lat="43.00609" lon="0.74546">
        <ele>560</ele>
        <time>2017-06-10T15:29:20.008Z</time>
      </trkpt>
      <trkpt lat="43.00603" lon="0.74537">
        <ele>564</ele>
        <time>2017-06-10T15:29:32.008Z</time>
      </trkpt>
      <trkpt lat="43.00593" lon="0.74534">
        <ele>564</ele>
        <time>2017-06-10T15:29:47.008Z</time>
      </trkpt>
      <trkpt lat="43.00583" lon="0.7453">
        <ele>565</ele>
        <time>2017-06-10T15:29:58.008Z</time>
      </trkpt>
      <trkpt lat="43.00584" lon="0.74516">
        <ele>567</ele>
        <time>2017-06-10T15:30:12.008Z</time>
      </trkpt>
      <trkpt lat="43.00587" lon="0.74503">
        <ele>568</ele>
        <time>2017-06-10T15:30:24.008Z</time>
      </trkpt>
      <trkpt lat="43.00593" lon="0.7449">
        <ele>568</ele>
        <time>2017-06-10T15:30:36.008Z</time>
      </trkpt>
      <trkpt lat="43.00593" lon="0.74476">
        <ele>569</ele>
        <time>2017-06-10T15:30:45.008Z</time>
      </trkpt>
      <trkpt lat="43.00587" lon="0.74464">
        <ele>570.872</ele>
        <time>2017-06-10T15:31:01.008Z</time>
      </trkpt>
      <trkpt lat="43.00585" lon="0.74452">
        <ele>573</ele>
        <time>2017-06-10T15:31:12.008Z</time>
      </trkpt>
      <trkpt lat="43.00578" lon="0.74443">
        <ele>575</ele>
        <time>2017-06-10T15:31:27.008Z</time>
      </trkpt>
      <trkpt lat="43.00568" lon="0.74439">
        <ele>575</ele>
        <time>2017-06-10T15:31:37.008Z</time>
      </trkpt>
      <trkpt lat="43.00558" lon="0.74435">
        <ele>575</ele>
        <time>2017-06-10T15:31:50.008Z</time>
      </trkpt>
      <trkpt lat="43.00548" lon="0.74437">
        <ele>576</ele>
        <time>2017-06-10T15:32:03.008Z</time>
      </trkpt>
      <trkpt lat="43.00538" lon="0.74437">
        <ele>576</ele>
        <time>2017-06-10T15:32:12.008Z</time>
      </trkpt>
      <trkpt lat="43.00529" lon="0.74436">
        <ele>576.416</ele>
        <time>2017-06-10T15:32:21.008Z</time>
      </trkpt>
      <trkpt lat="43.00522" lon="0.74439">
        <ele>576</ele>
        <time>2017-06-10T15:35:33.008Z</time>
      </trkpt>
      <trkpt lat="43.00514" lon="0.74447">
        <ele>576</ele>
        <time>2017-06-10T15:35:39.008Z</time>
      </trkpt>
      <trkpt lat="43.00505" lon="0.74454">
        <ele>578</ele>
        <time>2017-06-10T15:35:44.008Z</time>
      </trkpt>
      <trkpt lat="43.00495" lon="0.74462">
        <ele>578</ele>
        <time>2017-06-10T15:35:49.008Z</time>
      </trkpt>
      <trkpt lat="43.00485" lon="0.74465">
        <ele>580</ele>
        <time>2017-06-10T15:35:54.008Z</time>
      </trkpt>
      <trkpt lat="43.00478" lon="0.74466">
        <ele>580</ele>
        <time>2017-06-10T15:35:58.008Z</time>
      </trkpt>
      <trkpt lat="43.00471" lon="0.74471">
        <ele>584</ele>
        <time>2017-06-10T15:36:02.008Z</time>
      </trkpt>
      <trkpt lat="43.00463" lon="0.74477">
        <ele>584.21583909969</ele>
        <time>2017-06-10T15:36:06.008Z</time>
      </trkpt>
      <trkpt lat="43.00455" lon="0.74482">
        <ele>585</ele>
        <time>2017-06-10T15:36:10.008Z</time>
      </trkpt>
      <trkpt lat="43.00446" lon="0.74486">
        <ele>586</ele>
        <time>2017-06-10T15:36:15.008Z</time>
      </trkpt>
      <trkpt lat="43.00436" lon="0.74489">
        <ele>586</ele>
        <time>2017-06-10T15:36:20.008Z</time>
      </trkpt>
      <trkpt lat="43.00426" lon="0.74495">
        <ele>588</ele>
        <time>2017-06-10T15:36:26.008Z</time>
      </trkpt>
      <trkpt lat="43.00417" lon="0.745">
        <ele>588.64751729907</ele>
        <time>2017-06-10T15:36:31.008Z</time>
      </trkpt>
      <trkpt lat="43.00411" lon="0.74504">
        <ele>591</ele>
        <time>2017-06-10T15:36:35.008Z</time>
      </trkpt>
      <trkpt lat="43.00404" lon="0.74507">
        <ele>593</ele>
        <time>2017-06-10T15:36:40.008Z</time>
      </trkpt>
      <trkpt lat="43.00397" lon="0.74507">
        <ele>595</ele>
        <time>2017-06-10T15:36:44.008Z</time>
      </trkpt>
      <trkpt lat="43.00392" lon="0.74506">
        <ele>597</ele>
        <time>2017-06-10T15:36:47.008Z</time>
      </trkpt>
      <trkpt lat="43.00387" lon="0.74504">
        <ele>597.208</ele>
        <time>2017-06-10T15:36:51.008Z</time>
      </trkpt>
      <trkpt lat="43.00381" lon="0.74502">
        <ele>598</ele>
        <time>2017-06-10T15:36:54.008Z</time>
      </trkpt>
      <trkpt lat="43.00376" lon="0.74501">
        <ele>600</ele>
        <time>2017-06-10T15:36:57.008Z</time>
      </trkpt>
      <trkpt lat="43.00371" lon="0.74499">
        <ele>600</ele>
        <time>2017-06-10T15:37:00.008Z</time>
      </trkpt>
      <trkpt lat="43.00367" lon="0.74496">
        <ele>602</ele>
        <time>2017-06-10T15:37:03.008Z</time>
      </trkpt>
      <trkpt lat="43.00363" lon="0.74494">
        <ele>602</ele>
        <time>2017-06-10T15:37:05.008Z</time>
      </trkpt>
      <trkpt lat="43.0036" lon="0.74491">
        <ele>603</ele>
        <time>2017-06-10T15:37:07.008Z</time>
      </trkpt>
      <trkpt lat="43.00356" lon="0.74487">
        <ele>603</ele>
        <time>2017-06-10T15:37:10.008Z</time>
      </trkpt>
      <trkpt lat="43.00351" lon="0.74482">
        <ele>605</ele>
        <time>2017-06-10T15:37:13.008Z</time>
      </trkpt>
      <trkpt lat="43.00347" lon="0.74477">
        <ele>605.208</ele>
        <time>2017-06-10T15:37:16.008Z</time>
      </trkpt>
      <trkpt lat="43.00341" lon="0.74473">
        <ele>606</ele>
        <time>2017-06-10T15:37:20.008Z</time>
      </trkpt>
      <trkpt lat="43.00336" lon="0.7447">
        <ele>607</ele>
        <time>2017-06-10T15:37:23.008Z</time>
      </trkpt>
      <trkpt lat="43.0033" lon="0.74468">
        <ele>607</ele>
        <time>2017-06-10T15:37:26.008Z</time>
      </trkpt>
      <trkpt lat="43.00324" lon="0.74464">
        <ele>607</ele>
        <time>2017-06-10T15:37:29.008Z</time>
      </trkpt>
      <trkpt lat="43.00319" lon="0.7446">
        <ele>609</ele>
        <time>2017-06-10T15:37:32.008Z</time>
      </trkpt>
      <trkpt lat="43.00313" lon="0.74456">
        <ele>609</ele>
        <time>2017-06-10T15:37:35.008Z</time>
      </trkpt>
      <trkpt lat="43.00308" lon="0.74453">
        <ele>609</ele>
        <time>2017-06-10T15:37:38.008Z</time>
      </trkpt>
      <trkpt lat="43.00305" lon="0.7445">
        <ele>609</ele>
        <time>2017-06-10T15:37:40.008Z</time>
      </trkpt>
      <trkpt lat="43.00303" lon="0.74445">
        <ele>611</ele>
        <time>2017-06-10T15:37:42.008Z</time>
      </trkpt>
      <trkpt lat="43.00304" lon="0.74438">
        <ele>611</ele>
        <time>2017-06-10T15:37:45.008Z</time>
      </trkpt>
      <trkpt lat="43.00308" lon="0.74436">
        <ele>611</ele>
        <time>2017-06-10T15:37:47.008Z</time>
      </trkpt>
      <trkpt lat="43.00311" lon="0.74434">
        <ele>611</ele>
        <time>2017-06-10T15:37:49.008Z</time>
      </trkpt>
      <trkpt lat="43.00314" lon="0.74432">
        <ele>611.624</ele>
        <time>2017-06-10T15:37:51.008Z</time>
      </trkpt>
      <trkpt lat="43.00319" lon="0.74427">
        <ele>614</ele>
        <time>2017-06-10T15:37:54.008Z</time>
      </trkpt>
      <trkpt lat="43.00321" lon="0.74423">
        <ele>614.43167819938</ele>
        <time>2017-06-10T15:37:56.008Z</time>
      </trkpt>
      <trkpt lat="43.00324" lon="0.74418">
        <ele>616</ele>
        <time>2017-06-10T15:37:58.008Z</time>
      </trkpt>
      <trkpt lat="43.00325" lon="0.7441">
        <ele>616.208</ele>
        <time>2017-06-10T15:38:01.008Z</time>
      </trkpt>
      <trkpt lat="43.00326" lon="0.74402">
        <ele>617</ele>
        <time>2017-06-10T15:38:04.008Z</time>
      </trkpt>
      <trkpt lat="43.00326" lon="0.74397">
        <ele>617.208</ele>
        <time>2017-06-10T15:38:06.008Z</time>
      </trkpt>
      <trkpt lat="43.00325" lon="0.74391">
        <ele>618</ele>
        <time>2017-06-10T15:38:08.008Z</time>
      </trkpt>
      <trkpt lat="43.00324" lon="0.74385">
        <ele>618</ele>
        <time>2017-06-10T15:38:10.008Z</time>
      </trkpt>
      <trkpt lat="43.00323" lon="0.74379">
        <ele>619</ele>
        <time>2017-06-10T15:38:12.008Z</time>
      </trkpt>
      <trkpt lat="43.00322" lon="0.74373">
        <ele>619</ele>
        <time>2017-06-10T15:38:14.008Z</time>
      </trkpt>
      <trkpt lat="43.00321" lon="0.74367">
        <ele>619</ele>
        <time>2017-06-10T15:38:16.008Z</time>
      </trkpt>
      <trkpt lat="43.00319" lon="0.74361">
        <ele>619</ele>
        <time>2017-06-10T15:38:18.008Z</time>
      </trkpt>
      <trkpt lat="43.00316" lon="0.74355">
        <ele>619</ele>
        <time>2017-06-10T15:38:20.008Z</time>
      </trkpt>
      <trkpt lat="43.0031" lon="0.74349">
        <ele>620</ele>
        <time>2017-06-10T15:38:23.008Z</time>
      </trkpt>
      <trkpt lat="43.00306" lon="0.74344">
        <ele>620</ele>
        <time>2017-06-10T15:38:25.008Z</time>
      </trkpt>
      <trkpt lat="43.00301" lon="0.7434">
        <ele>620</ele>
        <time>2017-06-10T15:38:27.008Z</time>
      </trkpt>
      <trkpt lat="43.00293" lon="0.74335">
        <ele>621</ele>
        <time>2017-06-10T15:38:30.008Z</time>
      </trkpt>
      <trkpt lat="43.00287" lon="0.74329">
        <ele>622</ele>
        <time>2017-06-10T15:38:33.008Z</time>
      </trkpt>
      <trkpt lat="43.00283" lon="0.74324">
        <ele>622.21372369395</ele>
        <time>2017-06-10T15:38:35.008Z</time>
      </trkpt>
      <trkpt lat="43.00279" lon="0.74319">
        <ele>623</ele>
        <time>2017-06-10T15:38:37.008Z</time>
      </trkpt>
      <trkpt lat="43.00276" lon="0.74313">
        <ele>623</ele>
        <time>2017-06-10T15:38:39.008Z</time>
      </trkpt>
      <trkpt lat="43.00273" lon="0.74308">
        <ele>623.43167819938</ele>
        <time>2017-06-10T15:38:41.008Z</time>
      </trkpt>
      <trkpt lat="43.00267" lon="0.743">
        <ele>625</ele>
        <time>2017-06-10T15:38:44.008Z</time>
      </trkpt>
      <trkpt lat="43.00261" lon="0.74292">
        <ele>625</ele>
        <time>2017-06-10T15:38:47.008Z</time>
      </trkpt>
      <trkpt lat="43.00258" lon="0.74288">
        <ele>625</ele>
        <time>2017-06-10T15:38:49.008Z</time>
      </trkpt>
      <trkpt lat="43.00254" lon="0.74284">
        <ele>625</ele>
        <time>2017-06-10T15:38:51.008Z</time>
      </trkpt>
      <trkpt lat="43.0025" lon="0.74279">
        <ele>625</ele>
        <time>2017-06-10T15:38:53.008Z</time>
      </trkpt>
      <trkpt lat="43.00246" lon="0.74274">
        <ele>625</ele>
        <time>2017-06-10T15:38:55.008Z</time>
      </trkpt>
      <trkpt lat="43.00243" lon="0.74269">
        <ele>625</ele>
        <time>2017-06-10T15:38:57.008Z</time>
      </trkpt>
      <trkpt lat="43.0024" lon="0.74263">
        <ele>625</ele>
        <time>2017-06-10T15:38:59.008Z</time>
      </trkpt>
      <trkpt lat="43.00235" lon="0.74252">
        <ele>629</ele>
        <time>2017-06-10T15:39:03.008Z</time>
      </trkpt>
      <trkpt lat="43.0023" lon="0.7424">
        <ele>636</ele>
        <time>2017-06-10T15:39:07.008Z</time>
      </trkpt>
      <trkpt lat="43.00223" lon="0.74232">
        <ele>641.208</ele>
        <time>2017-06-10T15:39:13.008Z</time>
      </trkpt>
      <trkpt lat="43.00214" lon="0.74223">
        <ele>642.208</ele>
        <time>2017-06-10T15:39:19.008Z</time>
      </trkpt>
      <trkpt lat="43.00208" lon="0.74221">
        <ele>644</ele>
        <time>2017-06-10T15:39:22.008Z</time>
      </trkpt>
      <trkpt lat="43.00202" lon="0.74219">
        <ele>644</ele>
        <time>2017-06-10T15:39:25.008Z</time>
      </trkpt>
      <trkpt lat="43.00197" lon="0.74212">
        <ele>645</ele>
        <time>2017-06-10T15:39:29.008Z</time>
      </trkpt>
      <trkpt lat="43.00194" lon="0.74204">
        <ele>647</ele>
        <time>2017-06-10T15:39:33.008Z</time>
      </trkpt>
      <trkpt lat="43.00191" lon="0.74195">
        <ele>648</ele>
        <time>2017-06-10T15:39:37.008Z</time>
      </trkpt>
      <trkpt lat="43.00189" lon="0.74185">
        <ele>648.43167819938</ele>
        <time>2017-06-10T15:39:41.008Z</time>
      </trkpt>
      <trkpt lat="43.00184" lon="0.74177">
        <ele>650.208</ele>
        <time>2017-06-10T15:39:46.008Z</time>
      </trkpt>
      <trkpt lat="43.00177" lon="0.7417">
        <ele>651.416</ele>
        <time>2017-06-10T15:39:51.008Z</time>
      </trkpt>
      <trkpt lat="43.00174" lon="0.74162">
        <ele>653</ele>
        <time>2017-06-10T15:39:55.008Z</time>
      </trkpt>
      <trkpt lat="43.0017" lon="0.74153">
        <ele>655</ele>
        <time>2017-06-10T15:40:00.008Z</time>
      </trkpt>
      <trkpt lat="43.00164" lon="0.74146">
        <ele>656</ele>
        <time>2017-06-10T15:40:05.008Z</time>
      </trkpt>
      <trkpt lat="43.00159" lon="0.7414">
        <ele>658</ele>
        <time>2017-06-10T15:40:09.008Z</time>
      </trkpt>
      <trkpt lat="43.00154" lon="0.74135">
        <ele>659</ele>
        <time>2017-06-10T15:40:13.008Z</time>
      </trkpt>
      <trkpt lat="43.00148" lon="0.74132">
        <ele>660</ele>
        <time>2017-06-10T15:40:17.008Z</time>
      </trkpt>
      <trkpt lat="43.00141" lon="0.74132">
        <ele>660</ele>
        <time>2017-06-10T15:40:21.008Z</time>
      </trkpt>
      <trkpt lat="43.00134" lon="0.74131">
        <ele>660</ele>
        <time>2017-06-10T15:40:25.008Z</time>
      </trkpt>
      <trkpt lat="43.0013" lon="0.7413">
        <ele>660</ele>
        <time>2017-06-10T15:40:28.008Z</time>
      </trkpt>
      <trkpt lat="43.00125" lon="0.74128">
        <ele>660.64751729907</ele>
        <time>2017-06-10T15:40:31.008Z</time>
      </trkpt>
      <trkpt lat="43.0012" lon="0.74125">
        <ele>663</ele>
        <time>2017-06-10T15:40:34.008Z</time>
      </trkpt>
      <trkpt lat="43.00115" lon="0.74121">
        <ele>665</ele>
        <time>2017-06-10T15:40:38.008Z</time>
      </trkpt>
      <trkpt lat="43.00112" lon="0.74116">
        <ele>665.21583909969</ele>
        <time>2017-06-10T15:40:41.008Z</time>
      </trkpt>
      <trkpt lat="43.0011" lon="0.74109">
        <ele>666</ele>
        <time>2017-06-10T15:40:44.008Z</time>
      </trkpt>
      <trkpt lat="43.00107" lon="0.74102">
        <ele>668</ele>
        <time>2017-06-10T15:40:48.008Z</time>
      </trkpt>
      <trkpt lat="43.00104" lon="0.74094">
        <ele>669</ele>
        <time>2017-06-10T15:40:52.008Z</time>
      </trkpt>
      <trkpt lat="43.00101" lon="0.74082">
        <ele>669</ele>
        <time>2017-06-10T15:40:59.008Z</time>
      </trkpt>
      <trkpt lat="43.00101" lon="0.7407">
        <ele>671</ele>
        <time>2017-06-10T15:41:19.008Z</time>
      </trkpt>
      <trkpt lat="43.00096" lon="0.74078">
        <ele>674</ele>
        <time>2017-06-10T15:41:36.008Z</time>
      </trkpt>
      <trkpt lat="43.00089" lon="0.74085">
        <ele>676</ele>
        <time>2017-06-10T15:41:45.008Z</time>
      </trkpt>
      <trkpt lat="43.00083" lon="0.7409">
        <ele>677</ele>
        <time>2017-06-10T15:41:52.008Z</time>
      </trkpt>
      <trkpt lat="43.00077" lon="0.74095">
        <ele>677</ele>
        <time>2017-06-10T15:42:00.008Z</time>
      </trkpt>
      <trkpt lat="43.00071" lon="0.74098">
        <ele>678</ele>
        <time>2017-06-10T15:42:08.008Z</time>
      </trkpt>
      <trkpt lat="43.00066" lon="0.74104">
        <ele>680</ele>
        <time>2017-06-10T15:42:17.008Z</time>
      </trkpt>
      <trkpt lat="43.00061" lon="0.74109">
        <ele>682</ele>
        <time>2017-06-10T15:42:25.008Z</time>
      </trkpt>
      <trkpt lat="43.00054" lon="0.74111">
        <ele>683</ele>
        <time>2017-06-10T15:42:33.008Z</time>
      </trkpt>
      <trkpt lat="43.00048" lon="0.74113">
        <ele>683</ele>
        <time>2017-06-10T15:42:40.008Z</time>
      </trkpt>
      <trkpt lat="43.00042" lon="0.74114">
        <ele>685</ele>
        <time>2017-06-10T15:42:47.008Z</time>
      </trkpt>
      <trkpt lat="43.00035" lon="0.7411">
        <ele>687.21583909969</ele>
        <time>2017-06-10T15:42:56.008Z</time>
      </trkpt>
      <trkpt lat="43.00028" lon="0.74104">
        <ele>689</ele>
        <time>2017-06-10T15:43:05.008Z</time>
      </trkpt>
      <trkpt lat="43.00023" lon="0.74097">
        <ele>689.416</ele>
        <time>2017-06-10T15:43:21.008Z</time>
      </trkpt>
      <trkpt lat="43.00017" lon="0.7409">
        <ele>693</ele>
        <time>2017-06-10T15:43:32.008Z</time>
      </trkpt>
      <trkpt lat="43.0001" lon="0.74086">
        <ele>693</ele>
        <time>2017-06-10T15:43:43.008Z</time>
      </trkpt>
      <trkpt lat="43.00005" lon="0.7408">
        <ele>695</ele>
        <time>2017-06-10T15:43:53.008Z</time>
      </trkpt>
      <trkpt lat="43.00004" lon="0.74068">
        <ele>696</ele>
        <time>2017-06-10T15:44:07.008Z</time>
      </trkpt>
      <trkpt lat="43.00001" lon="0.74054">
        <ele>698.208</ele>
        <time>2017-06-10T15:44:21.008Z</time>
      </trkpt>
      <trkpt lat="43.00001" lon="0.74043">
        <ele>699</ele>
        <time>2017-06-10T15:44:30.008Z</time>
      </trkpt>
      <trkpt lat="43.00005" lon="0.74036">
        <ele>700</ele>
        <time>2017-06-10T15:44:33.008Z</time>
      </trkpt>
      <trkpt lat="43.00009" lon="0.74024">
        <ele>700</ele>
        <time>2017-06-10T15:44:36.008Z</time>
      </trkpt>
      <trkpt lat="43.00016" lon="0.74011">
        <ele>700</ele>
        <time>2017-06-10T15:44:39.008Z</time>
      </trkpt>
      <trkpt lat="43.00023" lon="0.74003">
        <ele>699.792</ele>
        <time>2017-06-10T15:44:41.008Z</time>
      </trkpt>
      <trkpt lat="43.00031" lon="0.73995">
        <ele>699</ele>
        <time>2017-06-10T15:44:43.008Z</time>
      </trkpt>
      <trkpt lat="43.00039" lon="0.73987">
        <ele>699</ele>
        <time>2017-06-10T15:44:45.008Z</time>
      </trkpt>
      <trkpt lat="43.00046" lon="0.73978">
        <ele>699</ele>
        <time>2017-06-10T15:44:47.008Z</time>
      </trkpt>
      <trkpt lat="43.0005" lon="0.73973">
        <ele>699</ele>
        <time>2017-06-10T15:44:48.008Z</time>
      </trkpt>
      <trkpt lat="43.00053" lon="0.73968">
        <ele>699</ele>
        <time>2017-06-10T15:44:49.008Z</time>
      </trkpt>
      <trkpt lat="43.00057" lon="0.73958">
        <ele>698.792</ele>
        <time>2017-06-10T15:44:51.008Z</time>
      </trkpt>
      <trkpt lat="43.00059" lon="0.73954">
        <ele>698</ele>
        <time>2017-06-10T15:44:52.008Z</time>
      </trkpt>
      <trkpt lat="43.00064" lon="0.73946">
        <ele>698</ele>
        <time>2017-06-10T15:44:54.008Z</time>
      </trkpt>
      <trkpt lat="43.00068" lon="0.73939">
        <ele>698</ele>
        <time>2017-06-10T15:44:56.008Z</time>
      </trkpt>
      <trkpt lat="43.00071" lon="0.73932">
        <ele>698</ele>
        <time>2017-06-10T15:44:58.008Z</time>
      </trkpt>
      <trkpt lat="43.00074" lon="0.73925">
        <ele>698</ele>
        <time>2017-06-10T15:45:00.008Z</time>
      </trkpt>
      <trkpt lat="43.00077" lon="0.73918">
        <ele>700</ele>
        <time>2017-06-10T15:45:02.008Z</time>
      </trkpt>
      <trkpt lat="43.00079" lon="0.73912">
        <ele>700</ele>
        <time>2017-06-10T15:45:04.008Z</time>
      </trkpt>
      <trkpt lat="43.00082" lon="0.73905">
        <ele>700</ele>
        <time>2017-06-10T15:45:06.008Z</time>
      </trkpt>
      <trkpt lat="43.00084" lon="0.73899">
        <ele>700</ele>
        <time>2017-06-10T15:45:08.008Z</time>
      </trkpt>
      <trkpt lat="43.00086" lon="0.73893">
        <ele>700</ele>
        <time>2017-06-10T15:45:10.008Z</time>
      </trkpt>
      <trkpt lat="43.00088" lon="0.73887">
        <ele>702</ele>
        <time>2017-06-10T15:45:12.008Z</time>
      </trkpt>
      <trkpt lat="43.00088" lon="0.7388">
        <ele>702</ele>
        <time>2017-06-10T15:45:14.008Z</time>
      </trkpt>
      <trkpt lat="43.00088" lon="0.73874">
        <ele>702</ele>
        <time>2017-06-10T15:45:16.008Z</time>
      </trkpt>
      <trkpt lat="43.00087" lon="0.73867">
        <ele>702</ele>
        <time>2017-06-10T15:45:19.008Z</time>
      </trkpt>
      <trkpt lat="43.00083" lon="0.7386">
        <ele>706</ele>
        <time>2017-06-10T15:45:22.008Z</time>
      </trkpt>
      <trkpt lat="43.00078" lon="0.73854">
        <ele>706</ele>
        <time>2017-06-10T15:45:25.008Z</time>
      </trkpt>
      <trkpt lat="43.00072" lon="0.73848">
        <ele>707</ele>
        <time>2017-06-10T15:45:28.008Z</time>
      </trkpt>
      <trkpt lat="43.00069" lon="0.73844">
        <ele>707</ele>
        <time>2017-06-10T15:45:30.008Z</time>
      </trkpt>
      <trkpt lat="43.00066" lon="0.7384">
        <ele>709</ele>
        <time>2017-06-10T15:45:32.008Z</time>
      </trkpt>
      <trkpt lat="43.00062" lon="0.73837">
        <ele>709</ele>
        <time>2017-06-10T15:45:34.008Z</time>
      </trkpt>
      <trkpt lat="43.00057" lon="0.73832">
        <ele>711</ele>
        <time>2017-06-10T15:45:37.008Z</time>
      </trkpt>
      <trkpt lat="43.00051" lon="0.73829">
        <ele>711</ele>
        <time>2017-06-10T15:45:40.008Z</time>
      </trkpt>
      <trkpt lat="43.00044" lon="0.73824">
        <ele>713</ele>
        <time>2017-06-10T15:45:44.008Z</time>
      </trkpt>
      <trkpt lat="43.00037" lon="0.73819">
        <ele>714</ele>
        <time>2017-06-10T15:45:48.008Z</time>
      </trkpt>
      <trkpt lat="43.00033" lon="0.73814">
        <ele>714.208</ele>
        <time>2017-06-10T15:45:51.008Z</time>
      </trkpt>
      <trkpt lat="43.00029" lon="0.73809">
        <ele>715</ele>
        <time>2017-06-10T15:45:54.008Z</time>
      </trkpt>
      <trkpt lat="43.00025" lon="0.73802">
        <ele>715</ele>
        <time>2017-06-10T15:45:57.008Z</time>
      </trkpt>
      <trkpt lat="43.00021" lon="0.73795">
        <ele>715</ele>
        <time>2017-06-10T15:46:00.008Z</time>
      </trkpt>
      <trkpt lat="43.00018" lon="0.7379">
        <ele>717</ele>
        <time>2017-06-10T15:46:02.008Z</time>
      </trkpt>
      <trkpt lat="43.00014" lon="0.73782">
        <ele>717</ele>
        <time>2017-06-10T15:46:05.008Z</time>
      </trkpt>
      <trkpt lat="43.0001" lon="0.73774">
        <ele>719</ele>
        <time>2017-06-10T15:46:08.008Z</time>
      </trkpt>
      <trkpt lat="43.00007" lon="0.73764">
        <ele>720</ele>
        <time>2017-06-10T15:46:12.008Z</time>
      </trkpt>
      <trkpt lat="43.00005" lon="0.73755">
        <ele>720</ele>
        <time>2017-06-10T15:46:15.008Z</time>
      </trkpt>
      <trkpt lat="43.00005" lon="0.73746">
        <ele>722</ele>
        <time>2017-06-10T15:46:18.008Z</time>
      </trkpt>
      <trkpt lat="43.00004" lon="0.73735">
        <ele>722.208</ele>
        <time>2017-06-10T15:46:21.008Z</time>
      </trkpt>
      <trkpt lat="43.00006" lon="0.73727">
        <ele>723</ele>
        <time>2017-06-10T15:46:24.008Z</time>
      </trkpt>
      <trkpt lat="43.00009" lon="0.73719">
        <ele>724</ele>
        <time>2017-06-10T15:46:27.008Z</time>
      </trkpt>
      <trkpt lat="43.00013" lon="0.73712">
        <ele>724</ele>
        <time>2017-06-10T15:46:30.008Z</time>
      </trkpt>
      <trkpt lat="43.0002" lon="0.73704">
        <ele>725</ele>
        <time>2017-06-10T15:46:34.008Z</time>
      </trkpt>
      <trkpt lat="43.00024" lon="0.737">
        <ele>725.416</ele>
        <time>2017-06-10T15:46:36.008Z</time>
      </trkpt>
      <trkpt lat="43.00032" lon="0.73695">
        <ele>727</ele>
        <time>2017-06-10T15:46:40.008Z</time>
      </trkpt>
      <trkpt lat="43.00036" lon="0.73694">
        <ele>728</ele>
        <time>2017-06-10T15:46:42.008Z</time>
      </trkpt>
      <trkpt lat="43.00042" lon="0.73692">
        <ele>728</ele>
        <time>2017-06-10T15:46:45.008Z</time>
      </trkpt>
      <trkpt lat="43.00049" lon="0.73691">
        <ele>729</ele>
        <time>2017-06-10T15:46:48.008Z</time>
      </trkpt>
      <trkpt lat="43.00058" lon="0.7369">
        <ele>730</ele>
        <time>2017-06-10T15:46:52.008Z</time>
      </trkpt>
      <trkpt lat="43.00063" lon="0.73689">
        <ele>730</ele>
        <time>2017-06-10T15:46:54.008Z</time>
      </trkpt>
      <trkpt lat="43.00067" lon="0.73689">
        <ele>730</ele>
        <time>2017-06-10T15:46:56.008Z</time>
      </trkpt>
      <trkpt lat="43.00072" lon="0.73689">
        <ele>730</ele>
        <time>2017-06-10T15:46:58.008Z</time>
      </trkpt>
      <trkpt lat="43.00077" lon="0.73688">
        <ele>730</ele>
        <time>2017-06-10T15:47:00.008Z</time>
      </trkpt>
      <trkpt lat="43.00081" lon="0.73688">
        <ele>733</ele>
        <time>2017-06-10T15:47:02.008Z</time>
      </trkpt>
      <trkpt lat="43.00086" lon="0.73687">
        <ele>733</ele>
        <time>2017-06-10T15:47:04.008Z</time>
      </trkpt>
      <trkpt lat="43.0009" lon="0.73686">
        <ele>733.208</ele>
        <time>2017-06-10T15:47:06.008Z</time>
      </trkpt>
      <trkpt lat="43.00095" lon="0.73686">
        <ele>734</ele>
        <time>2017-06-10T15:47:08.008Z</time>
      </trkpt>
      <trkpt lat="43.001" lon="0.73685">
        <ele>734</ele>
        <time>2017-06-10T15:47:10.008Z</time>
      </trkpt>
      <trkpt lat="43.00105" lon="0.73685">
        <ele>735</ele>
        <time>2017-06-10T15:47:12.008Z</time>
      </trkpt>
      <trkpt lat="43.00109" lon="0.73684">
        <ele>735</ele>
        <time>2017-06-10T15:47:14.008Z</time>
      </trkpt>
      <trkpt lat="43.00114" lon="0.73683">
        <ele>735</ele>
        <time>2017-06-10T15:47:16.008Z</time>
      </trkpt>
      <trkpt lat="43.00118" lon="0.73682">
        <ele>735</ele>
        <time>2017-06-10T15:47:18.008Z</time>
      </trkpt>
      <trkpt lat="43.00122" lon="0.7368">
        <ele>735</ele>
        <time>2017-06-10T15:47:20.008Z</time>
      </trkpt>
      <trkpt lat="43.00126" lon="0.73677">
        <ele>737</ele>
        <time>2017-06-10T15:47:22.008Z</time>
      </trkpt>
      <trkpt lat="43.00129" lon="0.73674">
        <ele>737</ele>
        <time>2017-06-10T15:47:24.008Z</time>
      </trkpt>
      <trkpt lat="43.00133" lon="0.7367">
        <ele>737</ele>
        <time>2017-06-10T15:47:26.008Z</time>
      </trkpt>
      <trkpt lat="43.00136" lon="0.73666">
        <ele>737</ele>
        <time>2017-06-10T15:47:28.008Z</time>
      </trkpt>
      <trkpt lat="43.00139" lon="0.73661">
        <ele>737</ele>
        <time>2017-06-10T15:47:30.008Z</time>
      </trkpt>
      <trkpt lat="43.00141" lon="0.73657">
        <ele>740</ele>
        <time>2017-06-10T15:47:32.008Z</time>
      </trkpt>
      <trkpt lat="43.00144" lon="0.73652">
        <ele>740</ele>
        <time>2017-06-10T15:47:34.008Z</time>
      </trkpt>
      <trkpt lat="43.00147" lon="0.73647">
        <ele>740.416</ele>
        <time>2017-06-10T15:47:36.008Z</time>
      </trkpt>
      <trkpt lat="43.00149" lon="0.73642">
        <ele>742</ele>
        <time>2017-06-10T15:47:38.008Z</time>
      </trkpt>
      <trkpt lat="43.00151" lon="0.73638">
        <ele>742</ele>
        <time>2017-06-10T15:47:40.008Z</time>
      </trkpt>
      <trkpt lat="43.00154" lon="0.73633">
        <ele>744</ele>
        <time>2017-06-10T15:47:42.008Z</time>
      </trkpt>
      <trkpt lat="43.00156" lon="0.73628">
        <ele>744</ele>
        <time>2017-06-10T15:47:44.008Z</time>
      </trkpt>
      <trkpt lat="43.00159" lon="0.73622">
        <ele>744</ele>
        <time>2017-06-10T15:47:46.008Z</time>
      </trkpt>
      <trkpt lat="43.00161" lon="0.73617">
        <ele>744</ele>
        <time>2017-06-10T15:47:48.008Z</time>
      </trkpt>
      <trkpt lat="43.00163" lon="0.73612">
        <ele>744</ele>
        <time>2017-06-10T15:47:50.008Z</time>
      </trkpt>
      <trkpt lat="43.00166" lon="0.73607">
        <ele>746</ele>
        <time>2017-06-10T15:47:52.008Z</time>
      </trkpt>
      <trkpt lat="43.00168" lon="0.73602">
        <ele>746</ele>
        <time>2017-06-10T15:47:54.008Z</time>
      </trkpt>
      <trkpt lat="43.0017" lon="0.73596">
        <ele>746</ele>
        <time>2017-06-10T15:47:56.008Z</time>
      </trkpt>
      <trkpt lat="43.00172" lon="0.73591">
        <ele>746</ele>
        <time>2017-06-10T15:47:58.008Z</time>
      </trkpt>
      <trkpt lat="43.00174" lon="0.73586">
        <ele>746</ele>
        <time>2017-06-10T15:48:00.008Z</time>
      </trkpt>
      <trkpt lat="43.00176" lon="0.7358">
        <ele>747</ele>
        <time>2017-06-10T15:48:02.008Z</time>
      </trkpt>
      <trkpt lat="43.00179" lon="0.73575">
        <ele>747</ele>
        <time>2017-06-10T15:48:04.008Z</time>
      </trkpt>
      <trkpt lat="43.00181" lon="0.7357">
        <ele>747</ele>
        <time>2017-06-10T15:48:06.008Z</time>
      </trkpt>
      <trkpt lat="43.00183" lon="0.73565">
        <ele>747</ele>
        <time>2017-06-10T15:48:08.008Z</time>
      </trkpt>
      <trkpt lat="43.00185" lon="0.73559">
        <ele>747</ele>
        <time>2017-06-10T15:48:10.008Z</time>
      </trkpt>
      <trkpt lat="43.00188" lon="0.73554">
        <ele>749</ele>
        <time>2017-06-10T15:48:12.008Z</time>
      </trkpt>
      <trkpt lat="43.0019" lon="0.73549">
        <ele>749.208</ele>
        <time>2017-06-10T15:48:14.008Z</time>
      </trkpt>
      <trkpt lat="43.00193" lon="0.73543">
        <ele>750.208</ele>
        <time>2017-06-10T15:48:16.008Z</time>
      </trkpt>
      <trkpt lat="43.00196" lon="0.73538">
        <ele>751</ele>
        <time>2017-06-10T15:48:18.008Z</time>
      </trkpt>
      <trkpt lat="43.00199" lon="0.73533">
        <ele>751</ele>
        <time>2017-06-10T15:48:20.008Z</time>
      </trkpt>
      <trkpt lat="43.00203" lon="0.73527">
        <ele>752</ele>
        <time>2017-06-10T15:48:23.008Z</time>
      </trkpt>
      <trkpt lat="43.00207" lon="0.73518">
        <ele>754</ele>
        <time>2017-06-10T15:48:27.008Z</time>
      </trkpt>
      <trkpt lat="43.00211" lon="0.73508">
        <ele>754.208</ele>
        <time>2017-06-10T15:48:31.008Z</time>
      </trkpt>
      <trkpt lat="43.00216" lon="0.73496">
        <ele>755.208</ele>
        <time>2017-06-10T15:48:36.008Z</time>
      </trkpt>
      <trkpt lat="43.00218" lon="0.73487">
        <ele>756</ele>
        <time>2017-06-10T15:48:39.008Z</time>
      </trkpt>
      <trkpt lat="43.0022" lon="0.73478">
        <ele>758</ele>
        <time>2017-06-10T15:48:42.008Z</time>
      </trkpt>
      <trkpt lat="43.00222" lon="0.7347">
        <ele>758</ele>
        <time>2017-06-10T15:48:45.008Z</time>
      </trkpt>
      <trkpt lat="43.00223" lon="0.73462">
        <ele>761</ele>
        <time>2017-06-10T15:48:48.008Z</time>
      </trkpt>
      <trkpt lat="43.00223" lon="0.73455">
        <ele>761.208</ele>
        <time>2017-06-10T15:48:51.008Z</time>
      </trkpt>
      <trkpt lat="43.00222" lon="0.73448">
        <ele>762</ele>
        <time>2017-06-10T15:48:54.008Z</time>
      </trkpt>
      <trkpt lat="43.00221" lon="0.7344">
        <ele>763</ele>
        <time>2017-06-10T15:48:57.008Z</time>
      </trkpt>
      <trkpt lat="43.00219" lon="0.73434">
        <ele>764</ele>
        <time>2017-06-10T15:49:00.008Z</time>
      </trkpt>
      <trkpt lat="43.00216" lon="0.73427">
        <ele>765</ele>
        <time>2017-06-10T15:49:03.008Z</time>
      </trkpt>
      <trkpt lat="43.00214" lon="0.7342">
        <ele>765.416</ele>
        <time>2017-06-10T15:49:06.008Z</time>
      </trkpt>
      <trkpt lat="43.00213" lon="0.73413">
        <ele>767</ele>
        <time>2017-06-10T15:49:09.008Z</time>
      </trkpt>
      <trkpt lat="43.00212" lon="0.73408">
        <ele>767.20000258585</ele>
        <time>2017-06-10T15:49:11.008Z</time>
      </trkpt>
      <trkpt lat="43.00211" lon="0.73402">
        <ele>768</ele>
        <time>2017-06-10T15:49:13.008Z</time>
      </trkpt>
      <trkpt lat="43.0021" lon="0.73396">
        <ele>768</ele>
        <time>2017-06-10T15:49:15.008Z</time>
      </trkpt>
      <trkpt lat="43.00209" lon="0.7339">
        <ele>769</ele>
        <time>2017-06-10T15:49:17.008Z</time>
      </trkpt>
      <trkpt lat="43.00208" lon="0.73381">
        <ele>769</ele>
        <time>2017-06-10T15:49:20.008Z</time>
      </trkpt>
      <trkpt lat="43.00207" lon="0.73375">
        <ele>770</ele>
        <time>2017-06-10T15:49:22.008Z</time>
      </trkpt>
      <trkpt lat="43.00206" lon="0.73369">
        <ele>770</ele>
        <time>2017-06-10T15:49:24.008Z</time>
      </trkpt>
      <trkpt lat="43.00206" lon="0.73362">
        <ele>770</ele>
        <time>2017-06-10T15:49:26.008Z</time>
      </trkpt>
      <trkpt lat="43.00205" lon="0.73356">
        <ele>770</ele>
        <time>2017-06-10T15:49:28.008Z</time>
      </trkpt>
      <trkpt lat="43.00205" lon="0.73349">
        <ele>770</ele>
        <time>2017-06-10T15:49:30.008Z</time>
      </trkpt>
      <trkpt lat="43.00205" lon="0.73343">
        <ele>772</ele>
        <time>2017-06-10T15:49:32.008Z</time>
      </trkpt>
      <trkpt lat="43.00205" lon="0.73336">
        <ele>772</ele>
        <time>2017-06-10T15:49:34.008Z</time>
      </trkpt>
      <trkpt lat="43.00204" lon="0.73325">
        <ele>772</ele>
        <time>2017-06-10T15:49:37.008Z</time>
      </trkpt>
      <trkpt lat="43.00203" lon="0.73314">
        <ele>772</ele>
        <time>2017-06-10T15:49:40.008Z</time>
      </trkpt>
      <trkpt lat="43.00203" lon="0.73306">
        <ele>773</ele>
        <time>2017-06-10T15:49:42.008Z</time>
      </trkpt>
      <trkpt lat="43.00202" lon="0.73298">
        <ele>773</ele>
        <time>2017-06-10T15:49:44.008Z</time>
      </trkpt>
      <trkpt lat="43.00201" lon="0.73287">
        <ele>773</ele>
        <time>2017-06-10T15:49:47.008Z</time>
      </trkpt>
      <trkpt lat="43.002" lon="0.73277">
        <ele>773</ele>
        <time>2017-06-10T15:49:50.008Z</time>
      </trkpt>
      <trkpt lat="43.00201" lon="0.73264">
        <ele>775</ele>
        <time>2017-06-10T15:49:55.008Z</time>
      </trkpt>
      <trkpt lat="43.002" lon="0.73252">
        <ele>775</ele>
        <time>2017-06-10T15:49:58.008Z</time>
      </trkpt>
      <trkpt lat="43.00199" lon="0.7324">
        <ele>775.416</ele>
        <time>2017-06-10T15:50:01.008Z</time>
      </trkpt>
      <trkpt lat="43.00199" lon="0.7323">
        <ele>777</ele>
        <time>2017-06-10T15:50:04.008Z</time>
      </trkpt>
      <trkpt lat="43.002" lon="0.7322">
        <ele>777</ele>
        <time>2017-06-10T15:50:07.008Z</time>
      </trkpt>
      <trkpt lat="43.00201" lon="0.73214">
        <ele>777</ele>
        <time>2017-06-10T15:50:09.008Z</time>
      </trkpt>
      <trkpt lat="43.00202" lon="0.73205">
        <ele>779.208</ele>
        <time>2017-06-10T15:50:12.008Z</time>
      </trkpt>
      <trkpt lat="43.00204" lon="0.73195">
        <ele>780</ele>
        <time>2017-06-10T15:50:15.008Z</time>
      </trkpt>
      <trkpt lat="43.00207" lon="0.73186">
        <ele>781</ele>
        <time>2017-06-10T15:50:18.008Z</time>
      </trkpt>
      <trkpt lat="43.00208" lon="0.7318">
        <ele>781</ele>
        <time>2017-06-10T15:50:20.008Z</time>
      </trkpt>
      <trkpt lat="43.0021" lon="0.73174">
        <ele>782</ele>
        <time>2017-06-10T15:50:22.008Z</time>
      </trkpt>
      <trkpt lat="43.00211" lon="0.73168">
        <ele>782</ele>
        <time>2017-06-10T15:50:24.008Z</time>
      </trkpt>
      <trkpt lat="43.00213" lon="0.73162">
        <ele>782.208</ele>
        <time>2017-06-10T15:50:26.008Z</time>
      </trkpt>
      <trkpt lat="43.00214" lon="0.73156">
        <ele>783</ele>
        <time>2017-06-10T15:50:28.008Z</time>
      </trkpt>
      <trkpt lat="43.00216" lon="0.73151">
        <ele>783</ele>
        <time>2017-06-10T15:50:30.008Z</time>
      </trkpt>
      <trkpt lat="43.00217" lon="0.73145">
        <ele>785</ele>
        <time>2017-06-10T15:50:32.008Z</time>
      </trkpt>
      <trkpt lat="43.00218" lon="0.73139">
        <ele>785</ele>
        <time>2017-06-10T15:50:34.008Z</time>
      </trkpt>
      <trkpt lat="43.0022" lon="0.73133">
        <ele>785.208</ele>
        <time>2017-06-10T15:50:36.008Z</time>
      </trkpt>
      <trkpt lat="43.00221" lon="0.73128">
        <ele>786</ele>
        <time>2017-06-10T15:50:38.008Z</time>
      </trkpt>
      <trkpt lat="43.00223" lon="0.73122">
        <ele>786</ele>
        <time>2017-06-10T15:50:40.008Z</time>
      </trkpt>
      <trkpt lat="43.00224" lon="0.73117">
        <ele>788</ele>
        <time>2017-06-10T15:50:42.008Z</time>
      </trkpt>
      <trkpt lat="43.00225" lon="0.73111">
        <ele>788</ele>
        <time>2017-06-10T15:50:44.008Z</time>
      </trkpt>
      <trkpt lat="43.00226" lon="0.73106">
        <ele>788.416</ele>
        <time>2017-06-10T15:50:46.008Z</time>
      </trkpt>
      <trkpt lat="43.00227" lon="0.73101">
        <ele>790</ele>
        <time>2017-06-10T15:50:48.008Z</time>
      </trkpt>
      <trkpt lat="43.00229" lon="0.73096">
        <ele>790</ele>
        <time>2017-06-10T15:50:50.008Z</time>
      </trkpt>
      <trkpt lat="43.00231" lon="0.73091">
        <ele>790</ele>
        <time>2017-06-10T15:50:52.008Z</time>
      </trkpt>
      <trkpt lat="43.00233" lon="0.73086">
        <ele>790</ele>
        <time>2017-06-10T15:50:54.008Z</time>
      </trkpt>
      <trkpt lat="43.00236" lon="0.73082">
        <ele>790</ele>
        <time>2017-06-10T15:50:56.008Z</time>
      </trkpt>
      <trkpt lat="43.0024" lon="0.7308">
        <ele>790</ele>
        <time>2017-06-10T15:50:58.008Z</time>
      </trkpt>
      <trkpt lat="43.00245" lon="0.73082">
        <ele>790</ele>
        <time>2017-06-10T15:51:00.008Z</time>
      </trkpt>
      <trkpt lat="43.00248" lon="0.73085">
        <ele>793</ele>
        <time>2017-06-10T15:51:02.008Z</time>
      </trkpt>
      <trkpt lat="43.00251" lon="0.73091">
        <ele>794</ele>
        <time>2017-06-10T15:51:04.008Z</time>
      </trkpt>
      <trkpt lat="43.00254" lon="0.73097">
        <ele>794</ele>
        <time>2017-06-10T15:51:06.008Z</time>
      </trkpt>
      <trkpt lat="43.00256" lon="0.73103">
        <ele>794</ele>
        <time>2017-06-10T15:51:08.008Z</time>
      </trkpt>
      <trkpt lat="43.00258" lon="0.7311">
        <ele>794</ele>
        <time>2017-06-10T15:51:10.008Z</time>
      </trkpt>
      <trkpt lat="43.0026" lon="0.73116">
        <ele>794</ele>
        <time>2017-06-10T15:51:12.008Z</time>
      </trkpt>
      <trkpt lat="43.00262" lon="0.73123">
        <ele>794</ele>
        <time>2017-06-10T15:51:14.008Z</time>
      </trkpt>
      <trkpt lat="43.00265" lon="0.73129">
        <ele>794</ele>
        <time>2017-06-10T15:51:16.008Z</time>
      </trkpt>
      <trkpt lat="43.00267" lon="0.73135">
        <ele>794</ele>
        <time>2017-06-10T15:51:18.008Z</time>
      </trkpt>
      <trkpt lat="43.00269" lon="0.73141">
        <ele>794</ele>
        <time>2017-06-10T15:51:20.008Z</time>
      </trkpt>
      <trkpt lat="43.00271" lon="0.73147">
        <ele>795</ele>
        <time>2017-06-10T15:51:22.008Z</time>
      </trkpt>
      <trkpt lat="43.00273" lon="0.73153">
        <ele>796</ele>
        <time>2017-06-10T15:51:24.008Z</time>
      </trkpt>
      <trkpt lat="43.00276" lon="0.73159">
        <ele>796</ele>
        <time>2017-06-10T15:51:26.008Z</time>
      </trkpt>
      <trkpt lat="43.00278" lon="0.73166">
        <ele>796</ele>
        <time>2017-06-10T15:51:28.008Z</time>
      </trkpt>
      <trkpt lat="43.00279" lon="0.73172">
        <ele>796</ele>
        <time>2017-06-10T15:51:30.008Z</time>
      </trkpt>
      <trkpt lat="43.00281" lon="0.73179">
        <ele>798</ele>
        <time>2017-06-10T15:51:32.008Z</time>
      </trkpt>
      <trkpt lat="43.00283" lon="0.73185">
        <ele>798</ele>
        <time>2017-06-10T15:51:34.008Z</time>
      </trkpt>
      <trkpt lat="43.00286" lon="0.7319">
        <ele>798.624</ele>
        <time>2017-06-10T15:51:36.008Z</time>
      </trkpt>
      <trkpt lat="43.00289" lon="0.73194">
        <ele>801</ele>
        <time>2017-06-10T15:51:38.008Z</time>
      </trkpt>
      <trkpt lat="43.00295" lon="0.73196">
        <ele>801.416</ele>
        <time>2017-06-10T15:51:41.008Z</time>
      </trkpt>
      <trkpt lat="43.00303" lon="0.73192">
        <ele>803</ele>
        <time>2017-06-10T15:51:45.008Z</time>
      </trkpt>
      <trkpt lat="43.00306" lon="0.73187">
        <ele>803</ele>
        <time>2017-06-10T15:51:47.008Z</time>
      </trkpt>
      <trkpt lat="43.00309" lon="0.73183">
        <ele>803</ele>
        <time>2017-06-10T15:51:49.008Z</time>
      </trkpt>
      <trkpt lat="43.00313" lon="0.73177">
        <ele>805</ele>
        <time>2017-06-10T15:51:52.008Z</time>
      </trkpt>
      <trkpt lat="43.00317" lon="0.7317">
        <ele>805</ele>
        <time>2017-06-10T15:51:55.008Z</time>
      </trkpt>
      <trkpt lat="43.00319" lon="0.73161">
        <ele>805</ele>
        <time>2017-06-10T15:51:58.008Z</time>
      </trkpt>
      <trkpt lat="43.0032" lon="0.73155">
        <ele>805</ele>
        <time>2017-06-10T15:52:00.008Z</time>
      </trkpt>
      <trkpt lat="43.00321" lon="0.73149">
        <ele>808</ele>
        <time>2017-06-10T15:52:02.008Z</time>
      </trkpt>
      <trkpt lat="43.00322" lon="0.73141">
        <ele>808</ele>
        <time>2017-06-10T15:52:05.008Z</time>
      </trkpt>
      <trkpt lat="43.00325" lon="0.73133">
        <ele>810</ele>
        <time>2017-06-10T15:52:08.008Z</time>
      </trkpt>
      <trkpt lat="43.00327" lon="0.73126">
        <ele>810.208</ele>
        <time>2017-06-10T15:52:11.008Z</time>
      </trkpt>
      <trkpt lat="43.00328" lon="0.73116">
        <ele>811</ele>
        <time>2017-06-10T15:52:15.008Z</time>
      </trkpt>
      <trkpt lat="43.00325" lon="0.73103">
        <ele>812.416</ele>
        <time>2017-06-10T15:52:21.008Z</time>
      </trkpt>
      <trkpt lat="43.00321" lon="0.73091">
        <ele>814</ele>
        <time>2017-06-10T15:52:25.008Z</time>
      </trkpt>
      <trkpt lat="43.00318" lon="0.73079">
        <ele>814</ele>
        <time>2017-06-10T15:52:28.008Z</time>
      </trkpt>
      <trkpt lat="43.00316" lon="0.73067">
        <ele>814</ele>
        <time>2017-06-10T15:52:31.008Z</time>
      </trkpt>
      <trkpt lat="43.00314" lon="0.73059">
        <ele>814</ele>
        <time>2017-06-10T15:52:33.008Z</time>
      </trkpt>
      <trkpt lat="43.00312" lon="0.73051">
        <ele>814</ele>
        <time>2017-06-10T15:52:35.008Z</time>
      </trkpt>
      <trkpt lat="43.00309" lon="0.73043">
        <ele>814</ele>
        <time>2017-06-10T15:52:37.008Z</time>
      </trkpt>
      <trkpt lat="43.00304" lon="0.73033">
        <ele>814</ele>
        <time>2017-06-10T15:52:39.008Z</time>
      </trkpt>
      <trkpt lat="43.003" lon="0.73023">
        <ele>814</ele>
        <time>2017-06-10T15:52:41.008Z</time>
      </trkpt>
      <trkpt lat="43.00297" lon="0.73018">
        <ele>814</ele>
        <time>2017-06-10T15:52:42.008Z</time>
      </trkpt>
      <trkpt lat="43.00294" lon="0.73013">
        <ele>814</ele>
        <time>2017-06-10T15:52:43.008Z</time>
      </trkpt>
      <trkpt lat="43.00291" lon="0.73008">
        <ele>814</ele>
        <time>2017-06-10T15:52:44.008Z</time>
      </trkpt>
      <trkpt lat="43.00288" lon="0.73004">
        <ele>814</ele>
        <time>2017-06-10T15:52:45.008Z</time>
      </trkpt>
      <trkpt lat="43.00284" lon="0.73001">
        <ele>814</ele>
        <time>2017-06-10T15:52:46.008Z</time>
      </trkpt>
      <trkpt lat="43.0028" lon="0.72999">
        <ele>814</ele>
        <time>2017-06-10T15:52:47.008Z</time>
      </trkpt>
      <trkpt lat="43.00272" lon="0.72996">
        <ele>814</ele>
        <time>2017-06-10T15:52:49.008Z</time>
      </trkpt>
      <trkpt lat="43.00265" lon="0.72994">
        <ele>814</ele>
        <time>2017-06-10T15:52:51.008Z</time>
      </trkpt>
      <trkpt lat="43.00257" lon="0.72991">
        <ele>814</ele>
        <time>2017-06-10T15:52:53.008Z</time>
      </trkpt>
      <trkpt lat="43.00252" lon="0.7299">
        <ele>814</ele>
        <time>2017-06-10T15:52:54.008Z</time>
      </trkpt>
      <trkpt lat="43.00248" lon="0.72989">
        <ele>814</ele>
        <time>2017-06-10T15:52:55.008Z</time>
      </trkpt>
      <trkpt lat="43.00243" lon="0.72989">
        <ele>814</ele>
        <time>2017-06-10T15:52:56.008Z</time>
      </trkpt>
      <trkpt lat="43.00238" lon="0.72989">
        <ele>814</ele>
        <time>2017-06-10T15:52:57.008Z</time>
      </trkpt>
      <trkpt lat="43.00233" lon="0.7299">
        <ele>814</ele>
        <time>2017-06-10T15:52:58.008Z</time>
      </trkpt>
      <trkpt lat="43.00229" lon="0.7299">
        <ele>814</ele>
        <time>2017-06-10T15:52:59.008Z</time>
      </trkpt>
      <trkpt lat="43.00221" lon="0.72991">
        <ele>814.416</ele>
        <time>2017-06-10T15:53:01.008Z</time>
      </trkpt>
      <trkpt lat="43.00214" lon="0.7299">
        <ele>816</ele>
        <time>2017-06-10T15:53:03.008Z</time>
      </trkpt>
      <trkpt lat="43.00208" lon="0.72989">
        <ele>816</ele>
        <time>2017-06-10T15:53:05.008Z</time>
      </trkpt>
      <trkpt lat="43.002" lon="0.72986">
        <ele>816</ele>
        <time>2017-06-10T15:53:08.008Z</time>
      </trkpt>
      <trkpt lat="43.00191" lon="0.72983">
        <ele>816.208</ele>
        <time>2017-06-10T15:53:11.008Z</time>
      </trkpt>
      <trkpt lat="43.0018" lon="0.72976">
        <ele>817</ele>
        <time>2017-06-10T15:53:15.008Z</time>
      </trkpt>
      <trkpt lat="43.00173" lon="0.72968">
        <ele>817</ele>
        <time>2017-06-10T15:53:18.008Z</time>
      </trkpt>
      <trkpt lat="43.0017" lon="0.72961">
        <ele>817</ele>
        <time>2017-06-10T15:53:20.008Z</time>
      </trkpt>
      <trkpt lat="43.00167" lon="0.72951">
        <ele>819</ele>
        <time>2017-06-10T15:53:23.008Z</time>
      </trkpt>
      <trkpt lat="43.00165" lon="0.72942">
        <ele>819</ele>
        <time>2017-06-10T15:53:26.008Z</time>
      </trkpt>
      <trkpt lat="43.00161" lon="0.72922">
        <ele>819</ele>
        <time>2017-06-10T15:53:30.008Z</time>
      </trkpt>
      <trkpt lat="43.00157" lon="0.7291">
        <ele>820</ele>
        <time>2017-06-10T15:53:32.008Z</time>
      </trkpt>
      <trkpt lat="43.0015" lon="0.72895">
        <ele>820</ele>
        <time>2017-06-10T15:53:35.008Z</time>
      </trkpt>
      <trkpt lat="43.00145" lon="0.72883">
        <ele>820</ele>
        <time>2017-06-10T15:53:37.008Z</time>
      </trkpt>
      <trkpt lat="43.00144" lon="0.72869">
        <ele>820</ele>
        <time>2017-06-10T15:53:39.008Z</time>
      </trkpt>
      <trkpt lat="43.00142" lon="0.72853">
        <ele>819.584</ele>
        <time>2017-06-10T15:53:41.008Z</time>
      </trkpt>
      <trkpt lat="43.0014" lon="0.72845">
        <ele>818</ele>
        <time>2017-06-10T15:53:42.008Z</time>
      </trkpt>
      <trkpt lat="43.00138" lon="0.72837">
        <ele>818</ele>
        <time>2017-06-10T15:53:43.008Z</time>
      </trkpt>
      <trkpt lat="43.00135" lon="0.72828">
        <ele>818</ele>
        <time>2017-06-10T15:53:44.008Z</time>
      </trkpt>
      <trkpt lat="43.00131" lon="0.72818">
        <ele>818</ele>
        <time>2017-06-10T15:53:45.008Z</time>
      </trkpt>
      <trkpt lat="43.00128" lon="0.72807">
        <ele>817.5999948283</ele>
        <time>2017-06-10T15:53:46.008Z</time>
      </trkpt>
      <trkpt lat="43.00126" lon="0.72795">
        <ele>816</ele>
        <time>2017-06-10T15:53:47.008Z</time>
      </trkpt>
      <trkpt lat="43.00124" lon="0.72784">
        <ele>816</ele>
        <time>2017-06-10T15:53:48.008Z</time>
      </trkpt>
      <trkpt lat="43.00124" lon="0.72772">
        <ele>816</ele>
        <time>2017-06-10T15:53:49.008Z</time>
      </trkpt>
      <trkpt lat="43.00124" lon="0.72761">
        <ele>816</ele>
        <time>2017-06-10T15:53:50.008Z</time>
      </trkpt>
      <trkpt lat="43.00125" lon="0.72745">
        <ele>814</ele>
        <time>2017-06-10T15:53:52.008Z</time>
      </trkpt>
      <trkpt lat="43.00126" lon="0.72756">
        <ele>813.208</ele>
        <time>2017-06-10T15:54:01.008Z</time>
      </trkpt>
      <trkpt lat="43.00131" lon="0.72762">
        <ele>814</ele>
        <time>2017-06-10T15:54:04.008Z</time>
      </trkpt>
      <trkpt lat="43.00137" lon="0.72762">
        <ele>814</ele>
        <time>2017-06-10T15:54:07.008Z</time>
      </trkpt>
      <trkpt lat="43.00142" lon="0.72761">
        <ele>814</ele>
        <time>2017-06-10T15:54:10.008Z</time>
      </trkpt>
      <trkpt lat="43.00138" lon="0.72762">
        <ele>815</ele>
        <time>2017-06-10T15:54:35.008Z</time>
      </trkpt>
      <trkpt lat="43.00132" lon="0.72761">
        <ele>815</ele>
        <time>2017-06-10T15:54:38.008Z</time>
      </trkpt>
      <trkpt lat="43.00126" lon="0.72757">
        <ele>815</ele>
        <time>2017-06-10T15:54:41.008Z</time>
      </trkpt>
      <trkpt lat="43.00125" lon="0.72751">
        <ele>815</ele>
        <time>2017-06-10T15:54:43.008Z</time>
      </trkpt>
      <trkpt lat="43.00125" lon="0.72744">
        <ele>815</ele>
        <time>2017-06-10T15:54:45.008Z</time>
      </trkpt>
      <trkpt lat="43.00126" lon="0.7273">
        <ele>815</ele>
        <time>2017-06-10T15:54:49.008Z</time>
      </trkpt>
      <trkpt lat="43.00126" lon="0.7272">
        <ele>814.792</ele>
        <time>2017-06-10T15:54:51.008Z</time>
      </trkpt>
      <trkpt lat="43.00125" lon="0.72705">
        <ele>814</ele>
        <time>2017-06-10T15:54:54.008Z</time>
      </trkpt>
      <trkpt lat="43.00123" lon="0.7269">
        <ele>814</ele>
        <time>2017-06-10T15:54:57.008Z</time>
      </trkpt>
      <trkpt lat="43.00118" lon="0.72675">
        <ele>814</ele>
        <time>2017-06-10T15:55:00.008Z</time>
      </trkpt>
      <trkpt lat="43.00114" lon="0.7266">
        <ele>814</ele>
        <time>2017-06-10T15:55:04.008Z</time>
      </trkpt>
      <trkpt lat="43.00111" lon="0.72647">
        <ele>814</ele>
        <time>2017-06-10T15:55:07.008Z</time>
      </trkpt>
      <trkpt lat="43.00107" lon="0.72636">
        <ele>814</ele>
        <time>2017-06-10T15:55:10.008Z</time>
      </trkpt>
      <trkpt lat="43.00104" lon="0.72621">
        <ele>816</ele>
        <time>2017-06-10T15:55:15.008Z</time>
      </trkpt>
      <trkpt lat="43.001" lon="0.72604">
        <ele>816</ele>
        <time>2017-06-10T15:55:19.008Z</time>
      </trkpt>
      <trkpt lat="43.00096" lon="0.72589">
        <ele>818</ele>
        <time>2017-06-10T15:55:23.008Z</time>
      </trkpt>
      <trkpt lat="43.00094" lon="0.72575">
        <ele>818</ele>
        <time>2017-06-10T15:55:27.008Z</time>
      </trkpt>
      <trkpt lat="43.00094" lon="0.7256">
        <ele>818</ele>
        <time>2017-06-10T15:55:30.008Z</time>
      </trkpt>
      <trkpt lat="43.00097" lon="0.7254">
        <ele>818</ele>
        <time>2017-06-10T15:55:33.008Z</time>
      </trkpt>
      <trkpt lat="43.00103" lon="0.72527">
        <ele>818</ele>
        <time>2017-06-10T15:55:35.008Z</time>
      </trkpt>
      <trkpt lat="43.00106" lon="0.72512">
        <ele>818</ele>
        <time>2017-06-10T15:55:37.008Z</time>
      </trkpt>
      <trkpt lat="43.00107" lon="0.72496">
        <ele>818</ele>
        <time>2017-06-10T15:55:39.008Z</time>
      </trkpt>
      <trkpt lat="43.00107" lon="0.72481">
        <ele>817.376</ele>
        <time>2017-06-10T15:55:41.008Z</time>
      </trkpt>
      <trkpt lat="43.001" lon="0.72465">
        <ele>815</ele>
        <time>2017-06-10T15:55:43.008Z</time>
      </trkpt>
      <trkpt lat="43.00091" lon="0.72448">
        <ele>815</ele>
        <time>2017-06-10T15:55:45.008Z</time>
      </trkpt>
      <trkpt lat="43.00083" lon="0.72429">
        <ele>814</ele>
        <time>2017-06-10T15:55:47.008Z</time>
      </trkpt>
      <trkpt lat="43.00077" lon="0.72412">
        <ele>814</ele>
        <time>2017-06-10T15:55:49.008Z</time>
      </trkpt>
      <trkpt lat="43.00073" lon="0.72405">
        <ele>814</ele>
        <time>2017-06-10T15:55:50.008Z</time>
      </trkpt>
      <trkpt lat="43.00068" lon="0.72399">
        <ele>813.792</ele>
        <time>2017-06-10T15:55:51.008Z</time>
      </trkpt>
      <trkpt lat="43.00059" lon="0.72395">
        <ele>813</ele>
        <time>2017-06-10T15:55:53.008Z</time>
      </trkpt>
      <trkpt lat="43.0005" lon="0.72395">
        <ele>813</ele>
        <time>2017-06-10T15:55:55.008Z</time>
      </trkpt>
      <trkpt lat="43.0004" lon="0.72393">
        <ele>814</ele>
        <time>2017-06-10T15:55:58.008Z</time>
      </trkpt>
      <trkpt lat="43.00031" lon="0.72383">
        <ele>814.208</ele>
        <time>2017-06-10T15:56:01.008Z</time>
      </trkpt>
      <trkpt lat="43.00026" lon="0.72374">
        <ele>815</ele>
        <time>2017-06-10T15:56:03.008Z</time>
      </trkpt>
      <trkpt lat="43.00022" lon="0.72366">
        <ele>815</ele>
        <time>2017-06-10T15:56:05.008Z</time>
      </trkpt>
      <trkpt lat="43.00018" lon="0.72358">
        <ele>816</ele>
        <time>2017-06-10T15:56:07.008Z</time>
      </trkpt>
      <trkpt lat="43.00014" lon="0.72351">
        <ele>816</ele>
        <time>2017-06-10T15:56:09.008Z</time>
      </trkpt>
      <trkpt lat="43.0001" lon="0.72343">
        <ele>816.416</ele>
        <time>2017-06-10T15:56:11.008Z</time>
      </trkpt>
      <trkpt lat="43.00006" lon="0.72337">
        <ele>818</ele>
        <time>2017-06-10T15:56:13.008Z</time>
      </trkpt>
      <trkpt lat="43.00003" lon="0.7233">
        <ele>818</ele>
        <time>2017-06-10T15:56:15.008Z</time>
      </trkpt>
      <trkpt lat="42.99999" lon="0.72324">
        <ele>820</ele>
        <time>2017-06-10T15:56:17.008Z</time>
      </trkpt>
      <trkpt lat="42.99995" lon="0.72318">
        <ele>820</ele>
        <time>2017-06-10T15:56:19.008Z</time>
      </trkpt>
      <trkpt lat="42.99992" lon="0.72312">
        <ele>820.416</ele>
        <time>2017-06-10T15:56:21.008Z</time>
      </trkpt>
      <trkpt lat="42.99989" lon="0.72305">
        <ele>822</ele>
        <time>2017-06-10T15:56:23.008Z</time>
      </trkpt>
      <trkpt lat="42.99986" lon="0.723">
        <ele>822</ele>
        <time>2017-06-10T15:56:25.008Z</time>
      </trkpt>
      <trkpt lat="42.99983" lon="0.72294">
        <ele>823</ele>
        <time>2017-06-10T15:56:27.008Z</time>
      </trkpt>
      <trkpt lat="42.99981" lon="0.72288">
        <ele>823</ele>
        <time>2017-06-10T15:56:29.008Z</time>
      </trkpt>
      <trkpt lat="42.99979" lon="0.72281">
        <ele>823.208</ele>
        <time>2017-06-10T15:56:31.008Z</time>
      </trkpt>
      <trkpt lat="42.99977" lon="0.72274">
        <ele>824</ele>
        <time>2017-06-10T15:56:33.008Z</time>
      </trkpt>
      <trkpt lat="42.99975" lon="0.72264">
        <ele>824.416</ele>
        <time>2017-06-10T15:56:36.008Z</time>
      </trkpt>
      <trkpt lat="42.99974" lon="0.72252">
        <ele>826</ele>
        <time>2017-06-10T15:56:40.008Z</time>
      </trkpt>
      <trkpt lat="42.99976" lon="0.72239">
        <ele>827</ele>
        <time>2017-06-10T15:56:45.008Z</time>
      </trkpt>
      <trkpt lat="42.99978" lon="0.72223">
        <ele>827</ele>
        <time>2017-06-10T15:56:49.008Z</time>
      </trkpt>
      <trkpt lat="42.99979" lon="0.72209">
        <ele>827</ele>
        <time>2017-06-10T15:56:52.008Z</time>
      </trkpt>
      <trkpt lat="42.99985" lon="0.72195">
        <ele>827</ele>
        <time>2017-06-10T15:56:56.008Z</time>
      </trkpt>
      <trkpt lat="42.99995" lon="0.72189">
        <ele>827</ele>
        <time>2017-06-10T15:56:59.008Z</time>
      </trkpt>
      <trkpt lat="43.00004" lon="0.72182">
        <ele>829</ele>
        <time>2017-06-10T15:57:02.008Z</time>
      </trkpt>
      <trkpt lat="43.00012" lon="0.72174">
        <ele>829</ele>
        <time>2017-06-10T15:57:05.008Z</time>
      </trkpt>
      <trkpt lat="43.00018" lon="0.72168">
        <ele>829</ele>
        <time>2017-06-10T15:57:07.008Z</time>
      </trkpt>
      <trkpt lat="43.00023" lon="0.72155">
        <ele>829</ele>
        <time>2017-06-10T15:57:10.008Z</time>
      </trkpt>
      <trkpt lat="43.00028" lon="0.72141">
        <ele>829</ele>
        <time>2017-06-10T15:57:13.008Z</time>
      </trkpt>
      <trkpt lat="43.00033" lon="0.72126">
        <ele>829</ele>
        <time>2017-06-10T15:57:16.008Z</time>
      </trkpt>
      <trkpt lat="43.00032" lon="0.72113">
        <ele>829</ele>
        <time>2017-06-10T15:57:18.008Z</time>
      </trkpt>
      <trkpt lat="43.00031" lon="0.72098">
        <ele>829</ele>
        <time>2017-06-10T15:57:20.008Z</time>
      </trkpt>
      <trkpt lat="43.00029" lon="0.72084">
        <ele>828</ele>
        <time>2017-06-10T15:57:22.008Z</time>
      </trkpt>
      <trkpt lat="43.00028" lon="0.7207">
        <ele>828</ele>
        <time>2017-06-10T15:57:24.008Z</time>
      </trkpt>
      <trkpt lat="43.00027" lon="0.72055">
        <ele>828</ele>
        <time>2017-06-10T15:57:26.008Z</time>
      </trkpt>
      <trkpt lat="43.00025" lon="0.7204">
        <ele>828</ele>
        <time>2017-06-10T15:57:28.008Z</time>
      </trkpt>
      <trkpt lat="43.00024" lon="0.72025">
        <ele>828</ele>
        <time>2017-06-10T15:57:30.008Z</time>
      </trkpt>
      <trkpt lat="43.00022" lon="0.72012">
        <ele>827</ele>
        <time>2017-06-10T15:57:32.008Z</time>
      </trkpt>
      <trkpt lat="43.00021" lon="0.71999">
        <ele>827</ele>
        <time>2017-06-10T15:57:34.008Z</time>
      </trkpt>
      <trkpt lat="43.00018" lon="0.71985">
        <ele>827</ele>
        <time>2017-06-10T15:57:36.008Z</time>
      </trkpt>
      <trkpt lat="43.00016" lon="0.71973">
        <ele>827</ele>
        <time>2017-06-10T15:57:38.008Z</time>
      </trkpt>
      <trkpt lat="43.00012" lon="0.71961">
        <ele>827</ele>
        <time>2017-06-10T15:57:40.008Z</time>
      </trkpt>
      <trkpt lat="43.00009" lon="0.71949">
        <ele>828</ele>
        <time>2017-06-10T15:57:42.008Z</time>
      </trkpt>
      <trkpt lat="43.00005" lon="0.71939">
        <ele>828</ele>
        <time>2017-06-10T15:57:44.008Z</time>
      </trkpt>
      <trkpt lat="43.00001" lon="0.71931">
        <ele>828</ele>
        <time>2017-06-10T15:57:46.008Z</time>
      </trkpt>
      <trkpt lat="42.99997" lon="0.71925">
        <ele>828</ele>
        <time>2017-06-10T15:57:48.008Z</time>
      </trkpt>
      <trkpt lat="42.99994" lon="0.71921">
        <ele>828</ele>
        <time>2017-06-10T15:57:50.008Z</time>
      </trkpt>
      <trkpt lat="42.9999" lon="0.71916">
        <ele>830</ele>
        <time>2017-06-10T15:57:52.008Z</time>
      </trkpt>
      <trkpt lat="42.99987" lon="0.7191">
        <ele>830</ele>
        <time>2017-06-10T15:57:54.008Z</time>
      </trkpt>
      <trkpt lat="42.99984" lon="0.71904">
        <ele>830</ele>
        <time>2017-06-10T15:57:56.008Z</time>
      </trkpt>
      <trkpt lat="42.9998" lon="0.71899">
        <ele>830</ele>
        <time>2017-06-10T15:57:58.008Z</time>
      </trkpt>
      <trkpt lat="42.99975" lon="0.71892">
        <ele>830</ele>
        <time>2017-06-10T15:58:00.008Z</time>
      </trkpt>
      <trkpt lat="42.99971" lon="0.71884">
        <ele>828</ele>
        <time>2017-06-10T15:58:02.008Z</time>
      </trkpt>
      <trkpt lat="42.99965" lon="0.7187">
        <ele>828</ele>
        <time>2017-06-10T15:58:05.008Z</time>
      </trkpt>
      <trkpt lat="42.99962" lon="0.71858">
        <ele>828</ele>
        <time>2017-06-10T15:58:07.008Z</time>
      </trkpt>
      <trkpt lat="42.99958" lon="0.71842">
        <ele>828</ele>
        <time>2017-06-10T15:58:10.008Z</time>
      </trkpt>
      <trkpt lat="42.99952" lon="0.71825">
        <ele>825</ele>
        <time>2017-06-10T15:58:13.008Z</time>
      </trkpt>
      <trkpt lat="42.9995" lon="0.71807">
        <ele>823</ele>
        <time>2017-06-10T15:58:17.008Z</time>
      </trkpt>
      <trkpt lat="42.99952" lon="0.71794">
        <ele>823</ele>
        <time>2017-06-10T15:58:20.008Z</time>
      </trkpt>
      <trkpt lat="42.99952" lon="0.71779">
        <ele>824</ele>
        <time>2017-06-10T15:58:23.008Z</time>
      </trkpt>
      <trkpt lat="42.99953" lon="0.71763">
        <ele>824</ele>
        <time>2017-06-10T15:58:27.008Z</time>
      </trkpt>
      <trkpt lat="42.99954" lon="0.71745">
        <ele>824.208</ele>
        <time>2017-06-10T15:58:31.008Z</time>
      </trkpt>
      <trkpt lat="42.99954" lon="0.71728">
        <ele>825</ele>
        <time>2017-06-10T15:58:35.008Z</time>
      </trkpt>
      <trkpt lat="42.9995" lon="0.71711">
        <ele>825</ele>
        <time>2017-06-10T15:58:38.008Z</time>
      </trkpt>
      <trkpt lat="42.99946" lon="0.71697">
        <ele>825.208</ele>
        <time>2017-06-10T15:58:41.008Z</time>
      </trkpt>
      <trkpt lat="42.9994" lon="0.71684">
        <ele>826</ele>
        <time>2017-06-10T15:58:44.008Z</time>
      </trkpt>
      <trkpt lat="42.99934" lon="0.7167">
        <ele>826</ele>
        <time>2017-06-10T15:58:48.008Z</time>
      </trkpt>
      <trkpt lat="42.99927" lon="0.71659">
        <ele>826.208</ele>
        <time>2017-06-10T15:58:51.008Z</time>
      </trkpt>
      <trkpt lat="42.99919" lon="0.71645">
        <ele>827</ele>
        <time>2017-06-10T15:58:54.008Z</time>
      </trkpt>
      <trkpt lat="42.99913" lon="0.71633">
        <ele>827</ele>
        <time>2017-06-10T15:58:57.008Z</time>
      </trkpt>
      <trkpt lat="42.99905" lon="0.71618">
        <ele>827.208</ele>
        <time>2017-06-10T15:59:01.008Z</time>
      </trkpt>
      <trkpt lat="42.99899" lon="0.71604">
        <ele>828</ele>
        <time>2017-06-10T15:59:04.008Z</time>
      </trkpt>
      <trkpt lat="42.99892" lon="0.71589">
        <ele>828</ele>
        <time>2017-06-10T15:59:07.008Z</time>
      </trkpt>
      <trkpt lat="42.99886" lon="0.71577">
        <ele>828</ele>
        <time>2017-06-10T15:59:09.008Z</time>
      </trkpt>
      <trkpt lat="42.99878" lon="0.71564">
        <ele>828</ele>
        <time>2017-06-10T15:59:12.008Z</time>
      </trkpt>
      <trkpt lat="42.99869" lon="0.71557">
        <ele>828</ele>
        <time>2017-06-10T15:59:15.008Z</time>
      </trkpt>
      <trkpt lat="42.99858" lon="0.7156">
        <ele>828</ele>
        <time>2017-06-10T15:59:20.008Z</time>
      </trkpt>
      <trkpt lat="42.99849" lon="0.71569">
        <ele>829</ele>
        <time>2017-06-10T15:59:24.008Z</time>
      </trkpt>
      <trkpt lat="42.9984" lon="0.71578">
        <ele>829</ele>
        <time>2017-06-10T15:59:30.008Z</time>
      </trkpt>
      <trkpt lat="42.99834" lon="0.71585">
        <ele>832</ele>
        <time>2017-06-10T15:59:34.008Z</time>
      </trkpt>
      <trkpt lat="42.99828" lon="0.71594">
        <ele>834</ele>
        <time>2017-06-10T15:59:40.008Z</time>
      </trkpt>
      <trkpt lat="42.9982" lon="0.71601">
        <ele>834.208</ele>
        <time>2017-06-10T15:59:46.008Z</time>
      </trkpt>
      <trkpt lat="42.99812" lon="0.71607">
        <ele>837</ele>
        <time>2017-06-10T15:59:52.008Z</time>
      </trkpt>
      <trkpt lat="42.99803" lon="0.71614">
        <ele>838</ele>
        <time>2017-06-10T15:59:59.008Z</time>
      </trkpt>
      <trkpt lat="42.99796" lon="0.71622">
        <ele>839</ele>
        <time>2017-06-10T16:00:04.008Z</time>
      </trkpt>
      <trkpt lat="42.99789" lon="0.71631">
        <ele>839</ele>
        <time>2017-06-10T16:00:10.008Z</time>
      </trkpt>
      <trkpt lat="42.99781" lon="0.71638">
        <ele>841</ele>
        <time>2017-06-10T16:00:16.008Z</time>
      </trkpt>
      <trkpt lat="42.99771" lon="0.71642">
        <ele>842</ele>
        <time>2017-06-10T16:00:22.008Z</time>
      </trkpt>
      <trkpt lat="42.99764" lon="0.71636">
        <ele>843</ele>
        <time>2017-06-10T16:00:29.008Z</time>
      </trkpt>
      <trkpt lat="42.99759" lon="0.71627">
        <ele>845</ele>
        <time>2017-06-10T16:00:35.008Z</time>
      </trkpt>
      <trkpt lat="42.99756" lon="0.71612">
        <ele>847.208</ele>
        <time>2017-06-10T16:00:41.008Z</time>
      </trkpt>
      <trkpt lat="42.99756" lon="0.71597">
        <ele>848</ele>
        <time>2017-06-10T16:00:47.008Z</time>
      </trkpt>
      <trkpt lat="42.99757" lon="0.71582">
        <ele>849</ele>
        <time>2017-06-10T16:00:53.008Z</time>
      </trkpt>
      <trkpt lat="42.99758" lon="0.71569">
        <ele>849</ele>
        <time>2017-06-10T16:00:57.008Z</time>
      </trkpt>
      <trkpt lat="42.99764" lon="0.71557">
        <ele>850</ele>
        <time>2017-06-10T16:01:02.008Z</time>
      </trkpt>
      <trkpt lat="42.9977" lon="0.71545">
        <ele>850</ele>
        <time>2017-06-10T16:01:06.008Z</time>
      </trkpt>
      <trkpt lat="42.99778" lon="0.71536">
        <ele>850</ele>
        <time>2017-06-10T16:01:10.008Z</time>
      </trkpt>
      <trkpt lat="42.99784" lon="0.71523">
        <ele>852</ele>
        <time>2017-06-10T16:01:15.008Z</time>
      </trkpt>
      <trkpt lat="42.99785" lon="0.71511">
        <ele>852</ele>
        <time>2017-06-10T16:01:20.008Z</time>
      </trkpt>
      <trkpt lat="42.99784" lon="0.71496">
        <ele>853</ele>
        <time>2017-06-10T16:01:30.008Z</time>
      </trkpt>
      <trkpt lat="42.99783" lon="0.71484">
        <ele>854</ele>
        <time>2017-06-10T16:01:40.008Z</time>
      </trkpt>
      <trkpt lat="42.9978" lon="0.71471">
        <ele>855</ele>
        <time>2017-06-10T16:01:48.008Z</time>
      </trkpt>
      <trkpt lat="42.99781" lon="0.71461">
        <ele>855</ele>
        <time>2017-06-10T16:03:37.008Z</time>
      </trkpt>
      <trkpt lat="42.99779" lon="0.71451">
        <ele>857</ele>
        <time>2017-06-10T16:04:02.008Z</time>
      </trkpt>
      <trkpt lat="42.9978" lon="0.71439">
        <ele>857</ele>
        <time>2017-06-10T16:04:07.008Z</time>
      </trkpt>
      <trkpt lat="42.99783" lon="0.71427">
        <ele>858</ele>
        <time>2017-06-10T16:04:12.008Z</time>
      </trkpt>
      <trkpt lat="42.99788" lon="0.71417">
        <ele>858</ele>
        <time>2017-06-10T16:04:17.008Z</time>
      </trkpt>
      <trkpt lat="42.99792" lon="0.7141">
        <ele>858</ele>
        <time>2017-06-10T16:04:20.008Z</time>
      </trkpt>
      <trkpt lat="42.99795" lon="0.714">
        <ele>859</ele>
        <time>2017-06-10T16:04:24.008Z</time>
      </trkpt>
      <trkpt lat="42.99796" lon="0.71387">
        <ele>859</ele>
        <time>2017-06-10T16:04:29.008Z</time>
      </trkpt>
      <trkpt lat="42.99797" lon="0.71374">
        <ele>859</ele>
        <time>2017-06-10T16:04:32.008Z</time>
      </trkpt>
      <trkpt lat="42.99798" lon="0.71361">
        <ele>859</ele>
        <time>2017-06-10T16:04:35.008Z</time>
      </trkpt>
      <trkpt lat="42.99799" lon="0.71346">
        <ele>859</ele>
        <time>2017-06-10T16:04:39.008Z</time>
      </trkpt>
      <trkpt lat="42.99797" lon="0.71332">
        <ele>859</ele>
        <time>2017-06-10T16:04:41.008Z</time>
      </trkpt>
      <trkpt lat="42.99797" lon="0.71319">
        <ele>859</ele>
        <time>2017-06-10T16:04:43.008Z</time>
      </trkpt>
      <trkpt lat="42.99798" lon="0.71306">
        <ele>859</ele>
        <time>2017-06-10T16:04:45.008Z</time>
      </trkpt>
      <trkpt lat="42.99798" lon="0.71294">
        <ele>859</ele>
        <time>2017-06-10T16:04:47.008Z</time>
      </trkpt>
      <trkpt lat="42.99799" lon="0.71279">
        <ele>859</ele>
        <time>2017-06-10T16:04:50.008Z</time>
      </trkpt>
      <trkpt lat="42.998" lon="0.71266">
        <ele>858</ele>
        <time>2017-06-10T16:04:53.008Z</time>
      </trkpt>
      <trkpt lat="42.99803" lon="0.71251">
        <ele>858</ele>
        <time>2017-06-10T16:04:56.008Z</time>
      </trkpt>
      <trkpt lat="42.99796" lon="0.71238">
        <ele>856</ele>
        <time>2017-06-10T16:05:02.008Z</time>
      </trkpt>
      <trkpt lat="42.99787" lon="0.71239">
        <ele>855.792</ele>
        <time>2017-06-10T16:05:06.008Z</time>
      </trkpt>
      <trkpt lat="42.99775" lon="0.71234">
        <ele>855</ele>
        <time>2017-06-10T16:05:09.008Z</time>
      </trkpt>
      <trkpt lat="42.99764" lon="0.71234">
        <ele>852</ele>
        <time>2017-06-10T16:05:12.008Z</time>
      </trkpt>
      <trkpt lat="42.99755" lon="0.71226">
        <ele>852</ele>
        <time>2017-06-10T16:05:15.008Z</time>
      </trkpt>
      <trkpt lat="42.9975" lon="0.71213">
        <ele>851</ele>
        <time>2017-06-10T16:05:20.008Z</time>
      </trkpt>
      <trkpt lat="42.99745" lon="0.71205">
        <ele>852</ele>
        <time>2017-06-10T16:05:23.008Z</time>
      </trkpt>
      <trkpt lat="42.99737" lon="0.71196">
        <ele>852</ele>
        <time>2017-06-10T16:05:27.008Z</time>
      </trkpt>
      <trkpt lat="42.99732" lon="0.71183">
        <ele>852.208</ele>
        <time>2017-06-10T16:05:31.008Z</time>
      </trkpt>
      <trkpt lat="42.99729" lon="0.71172">
        <ele>853</ele>
        <time>2017-06-10T16:05:34.008Z</time>
      </trkpt>
      <trkpt lat="42.99725" lon="0.71164">
        <ele>853</ele>
        <time>2017-06-10T16:05:37.008Z</time>
      </trkpt>
      <trkpt lat="42.99721" lon="0.71153">
        <ele>853</ele>
        <time>2017-06-10T16:05:40.008Z</time>
      </trkpt>
      <trkpt lat="42.99716" lon="0.71144">
        <ele>854</ele>
        <time>2017-06-10T16:05:43.008Z</time>
      </trkpt>
      <trkpt lat="42.99712" lon="0.71136">
        <ele>854</ele>
        <time>2017-06-10T16:05:46.008Z</time>
      </trkpt>
      <trkpt lat="42.99707" lon="0.71128">
        <ele>854</ele>
        <time>2017-06-10T16:05:49.008Z</time>
      </trkpt>
      <trkpt lat="42.99701" lon="0.71122">
        <ele>854</ele>
        <time>2017-06-10T16:05:52.008Z</time>
      </trkpt>
      <trkpt lat="42.99689" lon="0.71115">
        <ele>854</ele>
        <time>2017-06-10T16:05:56.008Z</time>
      </trkpt>
      <trkpt lat="42.99679" lon="0.71108">
        <ele>854</ele>
        <time>2017-06-10T16:05:59.008Z</time>
      </trkpt>
      <trkpt lat="42.99669" lon="0.71095">
        <ele>850</ele>
        <time>2017-06-10T16:06:03.008Z</time>
      </trkpt>
      <trkpt lat="42.99661" lon="0.71084">
        <ele>849.584</ele>
        <time>2017-06-10T16:06:06.008Z</time>
      </trkpt>
      <trkpt lat="42.99653" lon="0.71075">
        <ele>848</ele>
        <time>2017-06-10T16:06:08.008Z</time>
      </trkpt>
      <trkpt lat="42.99644" lon="0.71068">
        <ele>848</ele>
        <time>2017-06-10T16:06:10.008Z</time>
      </trkpt>
      <trkpt lat="42.9963" lon="0.71068">
        <ele>845</ele>
        <time>2017-06-10T16:06:13.008Z</time>
      </trkpt>
      <trkpt lat="42.9962" lon="0.71071">
        <ele>845</ele>
        <time>2017-06-10T16:06:15.008Z</time>
      </trkpt>
      <trkpt lat="42.99609" lon="0.71072">
        <ele>841</ele>
        <time>2017-06-10T16:06:17.008Z</time>
      </trkpt>
      <trkpt lat="42.99599" lon="0.71078">
        <ele>841</ele>
        <time>2017-06-10T16:06:19.008Z</time>
      </trkpt>
      <trkpt lat="42.99589" lon="0.71087">
        <ele>840.376</ele>
        <time>2017-06-10T16:06:21.008Z</time>
      </trkpt>
      <trkpt lat="42.99578" lon="0.71096">
        <ele>835.584</ele>
        <time>2017-06-10T16:06:24.008Z</time>
      </trkpt>
      <trkpt lat="42.99566" lon="0.71096">
        <ele>832</ele>
        <time>2017-06-10T16:06:27.008Z</time>
      </trkpt>
      <trkpt lat="42.99555" lon="0.71089">
        <ele>829.792</ele>
        <time>2017-06-10T16:06:31.008Z</time>
      </trkpt>
      <trkpt lat="42.99544" lon="0.7108">
        <ele>827</ele>
        <time>2017-06-10T16:06:34.008Z</time>
      </trkpt>
      <trkpt lat="42.99531" lon="0.71083">
        <ele>824.792</ele>
        <time>2017-06-10T16:06:37.008Z</time>
      </trkpt>
      <trkpt lat="42.9952" lon="0.71079">
        <ele>823.208</ele>
        <time>2017-06-10T16:06:39.008Z</time>
      </trkpt>
      <trkpt lat="42.99508" lon="0.71071">
        <ele>823.208</ele>
        <time>2017-06-10T16:06:42.008Z</time>
      </trkpt>
      <trkpt lat="42.99502" lon="0.71059">
        <ele>825</ele>
        <time>2017-06-10T16:06:45.008Z</time>
      </trkpt>
      <trkpt lat="42.99494" lon="0.71049">
        <ele>825</ele>
        <time>2017-06-10T16:06:52.008Z</time>
      </trkpt>
      <trkpt lat="42.99484" lon="0.71043">
        <ele>825</ele>
        <time>2017-06-10T16:06:55.008Z</time>
      </trkpt>
      <trkpt lat="42.99473" lon="0.71035">
        <ele>825</ele>
        <time>2017-06-10T16:06:59.008Z</time>
      </trkpt>
      <trkpt lat="42.99463" lon="0.71024">
        <ele>825</ele>
        <time>2017-06-10T16:07:03.008Z</time>
      </trkpt>
      <trkpt lat="42.99456" lon="0.71015">
        <ele>825</ele>
        <time>2017-06-10T16:07:07.008Z</time>
      </trkpt>
      <trkpt lat="42.99449" lon="0.71006">
        <ele>825</ele>
        <time>2017-06-10T16:07:10.008Z</time>
      </trkpt>
      <trkpt lat="42.99441" lon="0.70998">
        <ele>824</ele>
        <time>2017-06-10T16:07:13.008Z</time>
      </trkpt>
      <trkpt lat="42.9943" lon="0.70992">
        <ele>824</ele>
        <time>2017-06-10T16:07:16.008Z</time>
      </trkpt>
      <trkpt lat="42.9942" lon="0.70984">
        <ele>824</ele>
        <time>2017-06-10T16:07:19.008Z</time>
      </trkpt>
      <trkpt lat="42.99411" lon="0.70975">
        <ele>818.376</ele>
        <time>2017-06-10T16:07:22.008Z</time>
      </trkpt>
      <trkpt lat="42.99404" lon="0.70962">
        <ele>814</ele>
        <time>2017-06-10T16:07:25.008Z</time>
      </trkpt>
      <trkpt lat="42.99399" lon="0.70943">
        <ele>812.584</ele>
        <time>2017-06-10T16:07:28.008Z</time>
      </trkpt>
      <trkpt lat="42.99395" lon="0.7093">
        <ele>810</ele>
        <time>2017-06-10T16:07:30.008Z</time>
      </trkpt>
      <trkpt lat="42.9939" lon="0.70918">
        <ele>808.792</ele>
        <time>2017-06-10T16:07:32.008Z</time>
      </trkpt>
      <trkpt lat="42.99387" lon="0.70902">
        <ele>805.792</ele>
        <time>2017-06-10T16:07:35.008Z</time>
      </trkpt>
      <trkpt lat="42.99386" lon="0.70886">
        <ele>804.792</ele>
        <time>2017-06-10T16:07:38.008Z</time>
      </trkpt>
      <trkpt lat="42.99381" lon="0.70874">
        <ele>803.792</ele>
        <time>2017-06-10T16:07:40.008Z</time>
      </trkpt>
      <trkpt lat="42.99381" lon="0.70859">
        <ele>801.792</ele>
        <time>2017-06-10T16:07:43.008Z</time>
      </trkpt>
      <trkpt lat="42.99385" lon="0.70846">
        <ele>798.792</ele>
        <time>2017-06-10T16:07:47.008Z</time>
      </trkpt>
      <trkpt lat="42.99382" lon="0.70833">
        <ele>796.792</ele>
        <time>2017-06-10T16:07:50.008Z</time>
      </trkpt>
      <trkpt lat="42.99379" lon="0.7082">
        <ele>795.792</ele>
        <time>2017-06-10T16:07:53.008Z</time>
      </trkpt>
      <trkpt lat="42.99378" lon="0.70804">
        <ele>792</ele>
        <time>2017-06-10T16:07:58.008Z</time>
      </trkpt>
      <trkpt lat="42.99377" lon="0.70787">
        <ele>789</ele>
        <time>2017-06-10T16:08:02.008Z</time>
      </trkpt>
      <trkpt lat="42.99377" lon="0.70771">
        <ele>787</ele>
        <time>2017-06-10T16:08:05.008Z</time>
      </trkpt>
      <trkpt lat="42.99377" lon="0.70751">
        <ele>786</ele>
        <time>2017-06-10T16:08:08.008Z</time>
      </trkpt>
      <trkpt lat="42.99379" lon="0.70731">
        <ele>784.792</ele>
        <time>2017-06-10T16:08:11.008Z</time>
      </trkpt>
      <trkpt lat="42.99381" lon="0.70715">
        <ele>783</ele>
        <time>2017-06-10T16:08:13.008Z</time>
      </trkpt>
      <trkpt lat="42.99384" lon="0.70699">
        <ele>782.792</ele>
        <time>2017-06-10T16:08:15.008Z</time>
      </trkpt>
      <trkpt lat="42.99384" lon="0.70682">
        <ele>782</ele>
        <time>2017-06-10T16:08:17.008Z</time>
      </trkpt>
      <trkpt lat="42.99385" lon="0.70668">
        <ele>782</ele>
        <time>2017-06-10T16:08:19.008Z</time>
      </trkpt>
      <trkpt lat="42.99385" lon="0.70653">
        <ele>781.792</ele>
        <time>2017-06-10T16:08:21.008Z</time>
      </trkpt>
      <trkpt lat="42.99382" lon="0.70636">
        <ele>781</ele>
        <time>2017-06-10T16:08:23.008Z</time>
      </trkpt>
      <trkpt lat="42.99378" lon="0.70619">
        <ele>781</ele>
        <time>2017-06-10T16:08:25.008Z</time>
      </trkpt>
      <trkpt lat="42.9937" lon="0.70599">
        <ele>781</ele>
        <time>2017-06-10T16:08:26.008Z</time>
      </trkpt>
      <trkpt lat="42.99365" lon="0.70578">
        <ele>781</ele>
        <time>2017-06-10T16:08:28.008Z</time>
      </trkpt>
      <trkpt lat="42.99362" lon="0.70564">
        <ele>781</ele>
        <time>2017-06-10T16:08:30.008Z</time>
      </trkpt>
      <trkpt lat="42.99361" lon="0.70545">
        <ele>781</ele>
        <time>2017-06-10T16:08:33.008Z</time>
      </trkpt>
      <trkpt lat="42.99358" lon="0.70528">
        <ele>781</ele>
        <time>2017-06-10T16:08:36.008Z</time>
      </trkpt>
      <trkpt lat="42.99357" lon="0.70514">
        <ele>781</ele>
        <time>2017-06-10T16:08:39.008Z</time>
      </trkpt>
      <trkpt lat="42.99358" lon="0.705">
        <ele>779</ele>
        <time>2017-06-10T16:08:42.008Z</time>
      </trkpt>
      <trkpt lat="42.99352" lon="0.70479">
        <ele>779</ele>
        <time>2017-06-10T16:08:45.008Z</time>
      </trkpt>
      <trkpt lat="42.99348" lon="0.70463">
        <ele>779</ele>
        <time>2017-06-10T16:08:47.008Z</time>
      </trkpt>
      <trkpt lat="42.99344" lon="0.70447">
        <ele>779</ele>
        <time>2017-06-10T16:08:49.008Z</time>
      </trkpt>
      <trkpt lat="42.99338" lon="0.70433">
        <ele>777.96</ele>
        <time>2017-06-10T16:08:51.008Z</time>
      </trkpt>
      <trkpt lat="42.99333" lon="0.70419">
        <ele>770.584</ele>
        <time>2017-06-10T16:08:53.008Z</time>
      </trkpt>
      <trkpt lat="42.99324" lon="0.70407">
        <ele>768.792</ele>
        <time>2017-06-10T16:08:56.008Z</time>
      </trkpt>
      <trkpt lat="42.99317" lon="0.70397">
        <ele>766.79999741415</ele>
        <time>2017-06-10T16:08:58.008Z</time>
      </trkpt>
      <trkpt lat="42.99308" lon="0.70386">
        <ele>764.792</ele>
        <time>2017-06-10T16:09:00.008Z</time>
      </trkpt>
      <trkpt lat="42.99301" lon="0.70373">
        <ele>763</ele>
        <time>2017-06-10T16:09:02.008Z</time>
      </trkpt>
      <trkpt lat="42.99294" lon="0.70359">
        <ele>760.792</ele>
        <time>2017-06-10T16:09:04.008Z</time>
      </trkpt>
      <trkpt lat="42.99286" lon="0.70347">
        <ele>758.792</ele>
        <time>2017-06-10T16:09:06.008Z</time>
      </trkpt>
      <trkpt lat="42.99276" lon="0.70337">
        <ele>757.792</ele>
        <time>2017-06-10T16:09:08.008Z</time>
      </trkpt>
      <trkpt lat="42.99263" lon="0.70328">
        <ele>755.792</ele>
        <time>2017-06-10T16:09:10.008Z</time>
      </trkpt>
      <trkpt lat="42.99253" lon="0.7032">
        <ele>754</ele>
        <time>2017-06-10T16:09:12.008Z</time>
      </trkpt>
      <trkpt lat="42.99243" lon="0.70313">
        <ele>753.584</ele>
        <time>2017-06-10T16:09:14.008Z</time>
      </trkpt>
      <trkpt lat="42.9923" lon="0.70314">
        <ele>751</ele>
        <time>2017-06-10T16:09:16.008Z</time>
      </trkpt>
      <trkpt lat="42.99218" lon="0.7031">
        <ele>751</ele>
        <time>2017-06-10T16:09:18.008Z</time>
      </trkpt>
      <trkpt lat="42.99207" lon="0.70302">
        <ele>751</ele>
        <time>2017-06-10T16:09:20.008Z</time>
      </trkpt>
      <trkpt lat="42.99197" lon="0.70296">
        <ele>751</ele>
        <time>2017-06-10T16:09:22.008Z</time>
      </trkpt>
      <trkpt lat="42.99187" lon="0.70292">
        <ele>751</ele>
        <time>2017-06-10T16:09:28.008Z</time>
      </trkpt>
      <trkpt lat="42.99197" lon="0.70295">
        <ele>751</ele>
        <time>2017-06-10T16:09:44.008Z</time>
      </trkpt>
      <trkpt lat="42.99198" lon="0.70305">
        <ele>751</ele>
        <time>2017-06-10T16:09:47.008Z</time>
      </trkpt>
      <trkpt lat="42.99198" lon="0.70314">
        <ele>751</ele>
        <time>2017-06-10T16:09:49.008Z</time>
      </trkpt>
      <trkpt lat="42.99197" lon="0.70325">
        <ele>750.376</ele>
        <time>2017-06-10T16:09:51.008Z</time>
      </trkpt>
      <trkpt lat="42.99196" lon="0.70341">
        <ele>748</ele>
        <time>2017-06-10T16:09:54.008Z</time>
      </trkpt>
      <trkpt lat="42.99189" lon="0.70355">
        <ele>744</ele>
        <time>2017-06-10T16:09:57.008Z</time>
      </trkpt>
      <trkpt lat="42.99182" lon="0.70368">
        <ele>743.168</ele>
        <time>2017-06-10T16:10:01.008Z</time>
      </trkpt>
      <trkpt lat="42.99174" lon="0.70379">
        <ele>736.792</ele>
        <time>2017-06-10T16:10:09.008Z</time>
      </trkpt>
      <trkpt lat="42.99165" lon="0.70387">
        <ele>736</ele>
        <time>2017-06-10T16:10:14.008Z</time>
      </trkpt>
      <trkpt lat="42.99155" lon="0.70392">
        <ele>734</ele>
        <time>2017-06-10T16:10:18.008Z</time>
      </trkpt>
      <trkpt lat="42.99143" lon="0.70394">
        <ele>732</ele>
        <time>2017-06-10T16:10:23.008Z</time>
      </trkpt>
      <trkpt lat="42.99142" lon="0.70408">
        <ele>731.168</ele>
        <time>2017-06-10T16:10:26.008Z</time>
      </trkpt>
      <trkpt lat="42.99143" lon="0.70423">
        <ele>728</ele>
        <time>2017-06-10T16:10:30.008Z</time>
      </trkpt>
      <trkpt lat="42.99142" lon="0.70438">
        <ele>724.792</ele>
        <time>2017-06-10T16:10:34.008Z</time>
      </trkpt>
      <trkpt lat="42.9914" lon="0.70453">
        <ele>724</ele>
        <time>2017-06-10T16:10:38.008Z</time>
      </trkpt>
      <trkpt lat="42.99135" lon="0.70467">
        <ele>723</ele>
        <time>2017-06-10T16:10:42.008Z</time>
      </trkpt>
      <trkpt lat="42.99129" lon="0.70481">
        <ele>722.584</ele>
        <time>2017-06-10T16:10:46.008Z</time>
      </trkpt>
      <trkpt lat="42.99125" lon="0.70495">
        <ele>721</ele>
        <time>2017-06-10T16:10:49.008Z</time>
      </trkpt>
      <trkpt lat="42.99119" lon="0.70506">
        <ele>718</ele>
        <time>2017-06-10T16:10:52.008Z</time>
      </trkpt>
      <trkpt lat="42.99112" lon="0.7052">
        <ele>718</ele>
        <time>2017-06-10T16:10:55.008Z</time>
      </trkpt>
      <trkpt lat="42.9911" lon="0.70541">
        <ele>715</ele>
        <time>2017-06-10T16:10:58.008Z</time>
      </trkpt>
      <trkpt lat="42.9911" lon="0.70557">
        <ele>715</ele>
        <time>2017-06-10T16:11:00.008Z</time>
      </trkpt>
      <trkpt lat="42.99109" lon="0.70574">
        <ele>711</ele>
        <time>2017-06-10T16:11:02.008Z</time>
      </trkpt>
      <trkpt lat="42.99108" lon="0.7059">
        <ele>711</ele>
        <time>2017-06-10T16:11:04.008Z</time>
      </trkpt>
      <trkpt lat="42.99106" lon="0.70604">
        <ele>711</ele>
        <time>2017-06-10T16:11:06.008Z</time>
      </trkpt>
      <trkpt lat="42.99104" lon="0.70618">
        <ele>711</ele>
        <time>2017-06-10T16:11:09.008Z</time>
      </trkpt>
      <trkpt lat="42.991" lon="0.70633">
        <ele>711</ele>
        <time>2017-06-10T16:11:12.008Z</time>
      </trkpt>
      <trkpt lat="42.99096" lon="0.70649">
        <ele>711</ele>
        <time>2017-06-10T16:11:15.008Z</time>
      </trkpt>
      <trkpt lat="42.99093" lon="0.70666">
        <ele>711</ele>
        <time>2017-06-10T16:11:18.008Z</time>
      </trkpt>
      <trkpt lat="42.99089" lon="0.70683">
        <ele>712</ele>
        <time>2017-06-10T16:11:22.008Z</time>
      </trkpt>
      <trkpt lat="42.99085" lon="0.70698">
        <ele>712</ele>
        <time>2017-06-10T16:11:26.008Z</time>
      </trkpt>
      <trkpt lat="42.99082" lon="0.7071">
        <ele>712</ele>
        <time>2017-06-10T16:11:29.008Z</time>
      </trkpt>
      <trkpt lat="42.99082" lon="0.70719">
        <ele>711</ele>
        <time>2017-06-10T16:11:53.008Z</time>
      </trkpt>
      <trkpt lat="42.99085" lon="0.70713">
        <ele>712</ele>
        <time>2017-06-10T16:13:15.008Z</time>
      </trkpt>
      <trkpt lat="42.99081" lon="0.70724">
        <ele>712</ele>
        <time>2017-06-10T16:13:55.008Z</time>
      </trkpt>
      <trkpt lat="42.99077" lon="0.70734">
        <ele>712</ele>
        <time>2017-06-10T16:13:59.008Z</time>
      </trkpt>
      <trkpt lat="42.99073" lon="0.70746">
        <ele>711</ele>
        <time>2017-06-10T16:14:02.008Z</time>
      </trkpt>
      <trkpt lat="42.99071" lon="0.70758">
        <ele>711</ele>
        <time>2017-06-10T16:14:04.008Z</time>
      </trkpt>
      <trkpt lat="42.99069" lon="0.70771">
        <ele>711</ele>
        <time>2017-06-10T16:14:06.008Z</time>
      </trkpt>
      <trkpt lat="42.99067" lon="0.70782">
        <ele>711</ele>
        <time>2017-06-10T16:14:08.008Z</time>
      </trkpt>
      <trkpt lat="42.99065" lon="0.70792">
        <ele>711</ele>
        <time>2017-06-10T16:14:10.008Z</time>
      </trkpt>
      <trkpt lat="42.99062" lon="0.70805">
        <ele>709</ele>
        <time>2017-06-10T16:14:13.008Z</time>
      </trkpt>
      <trkpt lat="42.9906" lon="0.70815">
        <ele>709</ele>
        <time>2017-06-10T16:14:15.008Z</time>
      </trkpt>
      <trkpt lat="42.99057" lon="0.70829">
        <ele>709</ele>
        <time>2017-06-10T16:14:18.008Z</time>
      </trkpt>
      <trkpt lat="42.99054" lon="0.70839">
        <ele>709</ele>
        <time>2017-06-10T16:14:20.008Z</time>
      </trkpt>
      <trkpt lat="42.99051" lon="0.70849">
        <ele>706</ele>
        <time>2017-06-10T16:14:22.008Z</time>
      </trkpt>
      <trkpt lat="42.99048" lon="0.70859">
        <ele>706</ele>
        <time>2017-06-10T16:14:24.008Z</time>
      </trkpt>
      <trkpt lat="42.99042" lon="0.70872">
        <ele>704</ele>
        <time>2017-06-10T16:14:27.008Z</time>
      </trkpt>
      <trkpt lat="42.99036" lon="0.70884">
        <ele>704</ele>
        <time>2017-06-10T16:14:30.008Z</time>
      </trkpt>
      <trkpt lat="42.99029" lon="0.70898">
        <ele>703</ele>
        <time>2017-06-10T16:14:33.008Z</time>
      </trkpt>
      <trkpt lat="42.99024" lon="0.70911">
        <ele>703</ele>
        <time>2017-06-10T16:14:35.008Z</time>
      </trkpt>
      <trkpt lat="42.99019" lon="0.70923">
        <ele>701</ele>
        <time>2017-06-10T16:14:37.008Z</time>
      </trkpt>
      <trkpt lat="42.99012" lon="0.70938">
        <ele>701</ele>
        <time>2017-06-10T16:14:40.008Z</time>
      </trkpt>
      <trkpt lat="42.99006" lon="0.70953">
        <ele>700</ele>
        <time>2017-06-10T16:14:43.008Z</time>
      </trkpt>
      <trkpt lat="42.99002" lon="0.70968">
        <ele>700</ele>
        <time>2017-06-10T16:14:46.008Z</time>
      </trkpt>
      <trkpt lat="42.99001" lon="0.7098">
        <ele>700</ele>
        <time>2017-06-10T16:14:48.008Z</time>
      </trkpt>
      <trkpt lat="42.99001" lon="0.70997">
        <ele>700</ele>
        <time>2017-06-10T16:14:51.008Z</time>
      </trkpt>
      <trkpt lat="42.98999" lon="0.71012">
        <ele>700</ele>
        <time>2017-06-10T16:14:54.008Z</time>
      </trkpt>
      <trkpt lat="42.98997" lon="0.71026">
        <ele>700</ele>
        <time>2017-06-10T16:14:58.008Z</time>
      </trkpt>
      <trkpt lat="42.98994" lon="0.71041">
        <ele>701</ele>
        <time>2017-06-10T16:15:02.008Z</time>
      </trkpt>
      <trkpt lat="42.98995" lon="0.71057">
        <ele>701</ele>
        <time>2017-06-10T16:15:06.008Z</time>
      </trkpt>
      <trkpt lat="42.98992" lon="0.71072">
        <ele>701</ele>
        <time>2017-06-10T16:15:10.008Z</time>
      </trkpt>
      <trkpt lat="42.98988" lon="0.71088">
        <ele>703</ele>
        <time>2017-06-10T16:15:14.008Z</time>
      </trkpt>
      <trkpt lat="42.98984" lon="0.71102">
        <ele>703</ele>
        <time>2017-06-10T16:15:18.008Z</time>
      </trkpt>
      <trkpt lat="42.98982" lon="0.71117">
        <ele>704</ele>
        <time>2017-06-10T16:15:22.008Z</time>
      </trkpt>
      <trkpt lat="42.98978" lon="0.71131">
        <ele>704</ele>
        <time>2017-06-10T16:15:26.008Z</time>
      </trkpt>
      <trkpt lat="42.98973" lon="0.71146">
        <ele>704</ele>
        <time>2017-06-10T16:15:30.008Z</time>
      </trkpt>
      <trkpt lat="42.98967" lon="0.71158">
        <ele>706</ele>
        <time>2017-06-10T16:15:34.008Z</time>
      </trkpt>
      <trkpt lat="42.98965" lon="0.71172">
        <ele>706</ele>
        <time>2017-06-10T16:15:39.008Z</time>
      </trkpt>
      <trkpt lat="42.9896" lon="0.71188">
        <ele>707</ele>
        <time>2017-06-10T16:15:44.008Z</time>
      </trkpt>
      <trkpt lat="42.98956" lon="0.712">
        <ele>707</ele>
        <time>2017-06-10T16:15:47.008Z</time>
      </trkpt>
      <trkpt lat="42.98949" lon="0.71211">
        <ele>707.416</ele>
        <time>2017-06-10T16:15:51.008Z</time>
      </trkpt>
      <trkpt lat="42.98943" lon="0.7122">
        <ele>709</ele>
        <time>2017-06-10T16:15:56.008Z</time>
      </trkpt>
      <trkpt lat="42.98936" lon="0.71229">
        <ele>709.416</ele>
        <time>2017-06-10T16:16:01.008Z</time>
      </trkpt>
      <trkpt lat="42.9893" lon="0.71242">
        <ele>712</ele>
        <time>2017-06-10T16:16:09.008Z</time>
      </trkpt>
      <trkpt lat="42.98923" lon="0.7125">
        <ele>713</ele>
        <time>2017-06-10T16:16:14.008Z</time>
      </trkpt>
      <trkpt lat="42.98918" lon="0.71259">
        <ele>713</ele>
        <time>2017-06-10T16:16:19.008Z</time>
      </trkpt>
      <trkpt lat="42.98913" lon="0.7127">
        <ele>714</ele>
        <time>2017-06-10T16:16:24.008Z</time>
      </trkpt>
      <trkpt lat="42.98905" lon="0.71281">
        <ele>714.416</ele>
        <time>2017-06-10T16:16:31.008Z</time>
      </trkpt>
      <trkpt lat="42.989" lon="0.71292">
        <ele>716</ele>
        <time>2017-06-10T16:16:36.008Z</time>
      </trkpt>
      <trkpt lat="42.98896" lon="0.71303">
        <ele>716.416</ele>
        <time>2017-06-10T16:16:41.008Z</time>
      </trkpt>
      <trkpt lat="42.98892" lon="0.71317">
        <ele>718</ele>
        <time>2017-06-10T16:16:47.008Z</time>
      </trkpt>
      <trkpt lat="42.98886" lon="0.71324">
        <ele>718.416</ele>
        <time>2017-06-10T16:16:51.008Z</time>
      </trkpt>
      <trkpt lat="42.98879" lon="0.71322">
        <ele>720</ele>
        <time>2017-06-10T16:16:55.008Z</time>
      </trkpt>
      <trkpt lat="42.98877" lon="0.71312">
        <ele>720</ele>
        <time>2017-06-10T16:16:58.008Z</time>
      </trkpt>
      <trkpt lat="42.98877" lon="0.71305">
        <ele>720</ele>
        <time>2017-06-10T16:17:00.008Z</time>
      </trkpt>
      <trkpt lat="42.98875" lon="0.71296">
        <ele>721</ele>
        <time>2017-06-10T16:17:03.008Z</time>
      </trkpt>
      <trkpt lat="42.98871" lon="0.7129">
        <ele>721</ele>
        <time>2017-06-10T16:17:06.008Z</time>
      </trkpt>
      <trkpt lat="42.98866" lon="0.71288">
        <ele>721</ele>
        <time>2017-06-10T16:17:09.008Z</time>
      </trkpt>
      <trkpt lat="42.98862" lon="0.71287">
        <ele>721.416</ele>
        <time>2017-06-10T16:17:11.008Z</time>
      </trkpt>
      <trkpt lat="42.98858" lon="0.71287">
        <ele>723</ele>
        <time>2017-06-10T16:17:13.008Z</time>
      </trkpt>
      <trkpt lat="42.98854" lon="0.71286">
        <ele>723</ele>
        <time>2017-06-10T16:17:15.008Z</time>
      </trkpt>
      <trkpt lat="42.98847" lon="0.71286">
        <ele>723</ele>
        <time>2017-06-10T16:17:17.008Z</time>
      </trkpt>
      <trkpt lat="42.98843" lon="0.71286">
        <ele>723</ele>
        <time>2017-06-10T16:17:18.008Z</time>
      </trkpt>
      <trkpt lat="42.98839" lon="0.71287">
        <ele>723</ele>
        <time>2017-06-10T16:17:19.008Z</time>
      </trkpt>
      <trkpt lat="42.98835" lon="0.71287">
        <ele>723</ele>
        <time>2017-06-10T16:17:20.008Z</time>
      </trkpt>
      <trkpt lat="42.98831" lon="0.71287">
        <ele>722.792</ele>
        <time>2017-06-10T16:17:21.008Z</time>
      </trkpt>
      <trkpt lat="42.98826" lon="0.71287">
        <ele>722</ele>
        <time>2017-06-10T16:17:22.008Z</time>
      </trkpt>
      <trkpt lat="42.98822" lon="0.71287">
        <ele>722</ele>
        <time>2017-06-10T16:17:23.008Z</time>
      </trkpt>
      <trkpt lat="42.98817" lon="0.71286">
        <ele>722</ele>
        <time>2017-06-10T16:17:24.008Z</time>
      </trkpt>
      <trkpt lat="42.98812" lon="0.71285">
        <ele>722</ele>
        <time>2017-06-10T16:17:25.008Z</time>
      </trkpt>
      <trkpt lat="42.98806" lon="0.71284">
        <ele>722</ele>
        <time>2017-06-10T16:17:26.008Z</time>
      </trkpt>
      <trkpt lat="42.98801" lon="0.71283">
        <ele>722</ele>
        <time>2017-06-10T16:17:27.008Z</time>
      </trkpt>
      <trkpt lat="42.98795" lon="0.71282">
        <ele>722</ele>
        <time>2017-06-10T16:17:28.008Z</time>
      </trkpt>
      <trkpt lat="42.9879" lon="0.71282">
        <ele>722</ele>
        <time>2017-06-10T16:17:29.008Z</time>
      </trkpt>
      <trkpt lat="42.98784" lon="0.71281">
        <ele>722</ele>
        <time>2017-06-10T16:17:30.008Z</time>
      </trkpt>
      <trkpt lat="42.98778" lon="0.71281">
        <ele>721.376</ele>
        <time>2017-06-10T16:17:31.008Z</time>
      </trkpt>
      <trkpt lat="42.98772" lon="0.71281">
        <ele>719</ele>
        <time>2017-06-10T16:17:32.008Z</time>
      </trkpt>
      <trkpt lat="42.98765" lon="0.71282">
        <ele>719</ele>
        <time>2017-06-10T16:17:33.008Z</time>
      </trkpt>
      <trkpt lat="42.98759" lon="0.71283">
        <ele>719</ele>
        <time>2017-06-10T16:17:34.008Z</time>
      </trkpt>
      <trkpt lat="42.98752" lon="0.71285">
        <ele>719</ele>
        <time>2017-06-10T16:17:35.008Z</time>
      </trkpt>
      <trkpt lat="42.98744" lon="0.71287">
        <ele>718.792</ele>
        <time>2017-06-10T16:17:36.008Z</time>
      </trkpt>
      <trkpt lat="42.98737" lon="0.7129">
        <ele>718</ele>
        <time>2017-06-10T16:17:37.008Z</time>
      </trkpt>
      <trkpt lat="42.98723" lon="0.71294">
        <ele>718</ele>
        <time>2017-06-10T16:17:39.008Z</time>
      </trkpt>
      <trkpt lat="42.98708" lon="0.71296">
        <ele>717.584</ele>
        <time>2017-06-10T16:17:41.008Z</time>
      </trkpt>
      <trkpt lat="42.98692" lon="0.71296">
        <ele>716</ele>
        <time>2017-06-10T16:17:43.008Z</time>
      </trkpt>
      <trkpt lat="42.98684" lon="0.71295">
        <ele>716</ele>
        <time>2017-06-10T16:17:44.008Z</time>
      </trkpt>
      <trkpt lat="42.98668" lon="0.71294">
        <ele>715.584</ele>
        <time>2017-06-10T16:17:46.008Z</time>
      </trkpt>
      <trkpt lat="42.98651" lon="0.71292">
        <ele>714</ele>
        <time>2017-06-10T16:17:48.008Z</time>
      </trkpt>
      <trkpt lat="42.98633" lon="0.7129">
        <ele>714</ele>
        <time>2017-06-10T16:17:50.008Z</time>
      </trkpt>
      <trkpt lat="42.98615" lon="0.71284">
        <ele>712</ele>
        <time>2017-06-10T16:17:52.008Z</time>
      </trkpt>
      <trkpt lat="42.98598" lon="0.71274">
        <ele>712</ele>
        <time>2017-06-10T16:17:54.008Z</time>
      </trkpt>
      <trkpt lat="42.98581" lon="0.71263">
        <ele>711.376</ele>
        <time>2017-06-10T16:17:56.008Z</time>
      </trkpt>
      <trkpt lat="42.98564" lon="0.71252">
        <ele>709</ele>
        <time>2017-06-10T16:17:58.008Z</time>
      </trkpt>
      <trkpt lat="42.98549" lon="0.71243">
        <ele>709</ele>
        <time>2017-06-10T16:18:00.008Z</time>
      </trkpt>
      <trkpt lat="42.98539" lon="0.71236">
        <ele>705</ele>
        <time>2017-06-10T16:18:02.008Z</time>
      </trkpt>
      <trkpt lat="42.98543" lon="0.71249">
        <ele>702</ele>
        <time>2017-06-10T16:18:13.008Z</time>
      </trkpt>
      <trkpt lat="42.98532" lon="0.71247">
        <ele>700.584</ele>
        <time>2017-06-10T16:18:21.008Z</time>
      </trkpt>
      <trkpt lat="42.98519" lon="0.71241">
        <ele>699</ele>
        <time>2017-06-10T16:18:25.008Z</time>
      </trkpt>
      <trkpt lat="42.9851" lon="0.71234">
        <ele>696</ele>
        <time>2017-06-10T16:18:28.008Z</time>
      </trkpt>
      <trkpt lat="42.98498" lon="0.71235">
        <ele>694</ele>
        <time>2017-06-10T16:18:34.008Z</time>
      </trkpt>
      <trkpt lat="42.98485" lon="0.71235">
        <ele>692.584</ele>
        <time>2017-06-10T16:18:41.008Z</time>
      </trkpt>
      <trkpt lat="42.98476" lon="0.7123">
        <ele>691</ele>
        <time>2017-06-10T16:18:44.008Z</time>
      </trkpt>
      <trkpt lat="42.98468" lon="0.7122">
        <ele>691</ele>
        <time>2017-06-10T16:18:48.008Z</time>
      </trkpt>
      <trkpt lat="42.98464" lon="0.71207">
        <ele>690</ele>
        <time>2017-06-10T16:18:52.008Z</time>
      </trkpt>
      <trkpt lat="42.98454" lon="0.71198">
        <ele>690</ele>
        <time>2017-06-10T16:18:59.008Z</time>
      </trkpt>
      <trkpt lat="42.98449" lon="0.71213">
        <ele>680.792</ele>
        <time>2017-06-10T16:19:05.008Z</time>
      </trkpt>
      <trkpt lat="42.9845" lon="0.71228">
        <ele>678.792</ele>
        <time>2017-06-10T16:19:08.008Z</time>
      </trkpt>
      <trkpt lat="42.9845" lon="0.71245">
        <ele>676.792</ele>
        <time>2017-06-10T16:19:11.008Z</time>
      </trkpt>
      <trkpt lat="42.98447" lon="0.7126">
        <ele>675</ele>
        <time>2017-06-10T16:19:14.008Z</time>
      </trkpt>
      <trkpt lat="42.9844" lon="0.71273">
        <ele>673.792</ele>
        <time>2017-06-10T16:19:17.008Z</time>
      </trkpt>
      <trkpt lat="42.98435" lon="0.71286">
        <ele>672.792</ele>
        <time>2017-06-10T16:19:20.008Z</time>
      </trkpt>
      <trkpt lat="42.98431" lon="0.71304">
        <ele>670.792</ele>
        <time>2017-06-10T16:19:23.008Z</time>
      </trkpt>
      <trkpt lat="42.98429" lon="0.71317">
        <ele>667.79405875345</ele>
        <time>2017-06-10T16:19:25.008Z</time>
      </trkpt>
      <trkpt lat="42.98426" lon="0.71331">
        <ele>665.792</ele>
        <time>2017-06-10T16:19:27.008Z</time>
      </trkpt>
      <trkpt lat="42.98421" lon="0.71343">
        <ele>664</ele>
        <time>2017-06-10T16:19:29.008Z</time>
      </trkpt>
      <trkpt lat="42.98412" lon="0.71355">
        <ele>662.792</ele>
        <time>2017-06-10T16:19:32.008Z</time>
      </trkpt>
      <trkpt lat="42.98401" lon="0.71362">
        <ele>661</ele>
        <time>2017-06-10T16:19:35.008Z</time>
      </trkpt>
      <trkpt lat="42.9839" lon="0.71357">
        <ele>657.792</ele>
        <time>2017-06-10T16:19:39.008Z</time>
      </trkpt>
      <trkpt lat="42.9838" lon="0.71351">
        <ele>656.792</ele>
        <time>2017-06-10T16:19:42.008Z</time>
      </trkpt>
      <trkpt lat="42.98369" lon="0.71342">
        <ele>655</ele>
        <time>2017-06-10T16:19:45.008Z</time>
      </trkpt>
      <trkpt lat="42.98359" lon="0.71336">
        <ele>653</ele>
        <time>2017-06-10T16:19:48.008Z</time>
      </trkpt>
      <trkpt lat="42.98347" lon="0.71333">
        <ele>649.792</ele>
        <time>2017-06-10T16:19:53.008Z</time>
      </trkpt>
      <trkpt lat="42.98336" lon="0.71335">
        <ele>648</ele>
        <time>2017-06-10T16:19:56.008Z</time>
      </trkpt>
      <trkpt lat="42.98331" lon="0.71347">
        <ele>646</ele>
        <time>2017-06-10T16:19:59.008Z</time>
      </trkpt>
      <trkpt lat="42.98329" lon="0.71362">
        <ele>643.792</ele>
        <time>2017-06-10T16:20:03.008Z</time>
      </trkpt>
      <trkpt lat="42.98317" lon="0.71364">
        <ele>641</ele>
        <time>2017-06-10T16:20:07.008Z</time>
      </trkpt>
      <trkpt lat="42.98308" lon="0.71356">
        <ele>639</ele>
        <time>2017-06-10T16:20:10.008Z</time>
      </trkpt>
      <trkpt lat="42.983" lon="0.71345">
        <ele>638</ele>
        <time>2017-06-10T16:20:13.008Z</time>
      </trkpt>
      <trkpt lat="42.98293" lon="0.71332">
        <ele>636.792</ele>
        <time>2017-06-10T16:20:16.008Z</time>
      </trkpt>
      <trkpt lat="42.98285" lon="0.7132">
        <ele>632.792</ele>
        <time>2017-06-10T16:20:20.008Z</time>
      </trkpt>
      <trkpt lat="42.98279" lon="0.71306">
        <ele>628.792</ele>
        <time>2017-06-10T16:20:23.008Z</time>
      </trkpt>
      <trkpt lat="42.98273" lon="0.71289">
        <ele>627.792</ele>
        <time>2017-06-10T16:20:25.008Z</time>
      </trkpt>
      <trkpt lat="42.98268" lon="0.71271">
        <ele>624.584</ele>
        <time>2017-06-10T16:20:28.008Z</time>
      </trkpt>
      <trkpt lat="42.98264" lon="0.71253">
        <ele>622</ele>
        <time>2017-06-10T16:20:31.008Z</time>
      </trkpt>
      <trkpt lat="42.98254" lon="0.71239">
        <ele>621</ele>
        <time>2017-06-10T16:20:34.008Z</time>
      </trkpt>
      <trkpt lat="42.98244" lon="0.71229">
        <ele>619.792</ele>
        <time>2017-06-10T16:20:37.008Z</time>
      </trkpt>
      <trkpt lat="42.98233" lon="0.71217">
        <ele>620</ele>
        <time>2017-06-10T16:20:40.008Z</time>
      </trkpt>
      <trkpt lat="42.98225" lon="0.71207">
        <ele>620</ele>
        <time>2017-06-10T16:20:42.008Z</time>
      </trkpt>
      <trkpt lat="42.98218" lon="0.71197">
        <ele>620</ele>
        <time>2017-06-10T16:20:44.008Z</time>
      </trkpt>
      <trkpt lat="42.9821" lon="0.71184">
        <ele>620</ele>
        <time>2017-06-10T16:20:47.008Z</time>
      </trkpt>
      <trkpt lat="42.98202" lon="0.7117">
        <ele>620</ele>
        <time>2017-06-10T16:20:50.008Z</time>
      </trkpt>
      <trkpt lat="42.98195" lon="0.71156">
        <ele>620</ele>
        <time>2017-06-10T16:20:53.008Z</time>
      </trkpt>
      <trkpt lat="42.98185" lon="0.71142">
        <ele>620</ele>
        <time>2017-06-10T16:20:56.008Z</time>
      </trkpt>
      <trkpt lat="42.98177" lon="0.71129">
        <ele>620</ele>
        <time>2017-06-10T16:20:59.008Z</time>
      </trkpt>
      <trkpt lat="42.98168" lon="0.71114">
        <ele>614.416</ele>
        <time>2017-06-10T16:21:02.008Z</time>
      </trkpt>
      <trkpt lat="42.98162" lon="0.71101">
        <ele>613</ele>
        <time>2017-06-10T16:21:05.008Z</time>
      </trkpt>
      <trkpt lat="42.98151" lon="0.71104">
        <ele>613</ele>
        <time>2017-06-10T16:21:10.008Z</time>
      </trkpt>
      <trkpt lat="42.98148" lon="0.71093">
        <ele>612</ele>
        <time>2017-06-10T16:21:26.008Z</time>
      </trkpt>
      <trkpt lat="42.98143" lon="0.7108">
        <ele>612</ele>
        <time>2017-06-10T16:21:30.008Z</time>
      </trkpt>
      <trkpt lat="42.98139" lon="0.71063">
        <ele>612</ele>
        <time>2017-06-10T16:21:33.008Z</time>
      </trkpt>
      <trkpt lat="42.98136" lon="0.71047">
        <ele>612</ele>
        <time>2017-06-10T16:21:36.008Z</time>
      </trkpt>
      <trkpt lat="42.98135" lon="0.71034">
        <ele>612</ele>
        <time>2017-06-10T16:21:38.008Z</time>
      </trkpt>
      <trkpt lat="42.98134" lon="0.71019">
        <ele>612</ele>
        <time>2017-06-10T16:21:40.008Z</time>
      </trkpt>
      <trkpt lat="42.98132" lon="0.71003">
        <ele>610</ele>
        <time>2017-06-10T16:21:42.008Z</time>
      </trkpt>
      <trkpt lat="42.9813" lon="0.70987">
        <ele>610</ele>
        <time>2017-06-10T16:21:44.008Z</time>
      </trkpt>
      <trkpt lat="42.98125" lon="0.70973">
        <ele>610</ele>
        <time>2017-06-10T16:21:46.008Z</time>
      </trkpt>
      <trkpt lat="42.98119" lon="0.70961">
        <ele>610</ele>
        <time>2017-06-10T16:21:48.008Z</time>
      </trkpt>
      <trkpt lat="42.98109" lon="0.70952">
        <ele>610</ele>
        <time>2017-06-10T16:21:50.008Z</time>
      </trkpt>
      <trkpt lat="42.981" lon="0.70946">
        <ele>609</ele>
        <time>2017-06-10T16:21:52.008Z</time>
      </trkpt>
      <trkpt lat="42.98091" lon="0.70937">
        <ele>609</ele>
        <time>2017-06-10T16:21:54.008Z</time>
      </trkpt>
      <trkpt lat="42.98083" lon="0.70926">
        <ele>609</ele>
        <time>2017-06-10T16:21:56.008Z</time>
      </trkpt>
      <trkpt lat="42.98077" lon="0.70911">
        <ele>609</ele>
        <time>2017-06-10T16:21:58.008Z</time>
      </trkpt>
      <trkpt lat="42.98072" lon="0.70895">
        <ele>609</ele>
        <time>2017-06-10T16:22:00.008Z</time>
      </trkpt>
      <trkpt lat="42.98069" lon="0.70875">
        <ele>605</ele>
        <time>2017-06-10T16:22:02.008Z</time>
      </trkpt>
      <trkpt lat="42.98067" lon="0.70864">
        <ele>605</ele>
        <time>2017-06-10T16:22:03.008Z</time>
      </trkpt>
      <trkpt lat="42.98066" lon="0.70842">
        <ele>605</ele>
        <time>2017-06-10T16:22:05.008Z</time>
      </trkpt>
      <trkpt lat="42.98064" lon="0.70825">
        <ele>603</ele>
        <time>2017-06-10T16:22:07.008Z</time>
      </trkpt>
      <trkpt lat="42.98058" lon="0.70814">
        <ele>603</ele>
        <time>2017-06-10T16:22:09.008Z</time>
      </trkpt>
      <trkpt lat="42.98051" lon="0.70806">
        <ele>602.792</ele>
        <time>2017-06-10T16:22:11.008Z</time>
      </trkpt>
      <trkpt lat="42.98046" lon="0.708">
        <ele>602</ele>
        <time>2017-06-10T16:22:13.008Z</time>
      </trkpt>
      <trkpt lat="42.98039" lon="0.70794">
        <ele>602</ele>
        <time>2017-06-10T16:22:15.008Z</time>
      </trkpt>
      <trkpt lat="42.98034" lon="0.70787">
        <ele>601</ele>
        <time>2017-06-10T16:22:17.008Z</time>
      </trkpt>
      <trkpt lat="42.98029" lon="0.7078">
        <ele>601</ele>
        <time>2017-06-10T16:22:19.008Z</time>
      </trkpt>
      <trkpt lat="42.9802" lon="0.7077">
        <ele>600</ele>
        <time>2017-06-10T16:22:22.008Z</time>
      </trkpt>
      <trkpt lat="42.98014" lon="0.7076">
        <ele>600</ele>
        <time>2017-06-10T16:22:24.008Z</time>
      </trkpt>
      <trkpt lat="42.98006" lon="0.70746">
        <ele>599.376</ele>
        <time>2017-06-10T16:22:26.008Z</time>
      </trkpt>
      <trkpt lat="42.97997" lon="0.70731">
        <ele>597</ele>
        <time>2017-06-10T16:22:28.008Z</time>
      </trkpt>
      <trkpt lat="42.97988" lon="0.70715">
        <ele>597</ele>
        <time>2017-06-10T16:22:30.008Z</time>
      </trkpt>
      <trkpt lat="42.97978" lon="0.70698">
        <ele>591.792</ele>
        <time>2017-06-10T16:22:32.008Z</time>
      </trkpt>
      <trkpt lat="42.97966" lon="0.70684">
        <ele>590</ele>
        <time>2017-06-10T16:22:34.008Z</time>
      </trkpt>
      <trkpt lat="42.97951" lon="0.70673">
        <ele>588.79405875345</ele>
        <time>2017-06-10T16:22:36.008Z</time>
      </trkpt>
      <trkpt lat="42.97937" lon="0.70665">
        <ele>586.792</ele>
        <time>2017-06-10T16:22:38.008Z</time>
      </trkpt>
      <trkpt lat="42.97922" lon="0.70658">
        <ele>584.792</ele>
        <time>2017-06-10T16:22:40.008Z</time>
      </trkpt>
      <trkpt lat="42.97905" lon="0.70649">
        <ele>583.792</ele>
        <time>2017-06-10T16:22:42.008Z</time>
      </trkpt>
      <trkpt lat="42.97889" lon="0.70641">
        <ele>581.584</ele>
        <time>2017-06-10T16:22:44.008Z</time>
      </trkpt>
      <trkpt lat="42.97881" lon="0.70637">
        <ele>579.792</ele>
        <time>2017-06-10T16:22:45.008Z</time>
      </trkpt>
      <trkpt lat="42.97872" lon="0.70632">
        <ele>579</ele>
        <time>2017-06-10T16:22:46.008Z</time>
      </trkpt>
      <trkpt lat="42.97864" lon="0.70627">
        <ele>579</ele>
        <time>2017-06-10T16:22:47.008Z</time>
      </trkpt>
      <trkpt lat="42.97857" lon="0.70621">
        <ele>578.792</ele>
        <time>2017-06-10T16:22:48.008Z</time>
      </trkpt>
      <trkpt lat="42.97845" lon="0.70611">
        <ele>578</ele>
        <time>2017-06-10T16:22:50.008Z</time>
      </trkpt>
      <trkpt lat="42.97836" lon="0.70602">
        <ele>578</ele>
        <time>2017-06-10T16:22:52.008Z</time>
      </trkpt>
      <trkpt lat="42.97824" lon="0.70597">
        <ele>578</ele>
        <time>2017-06-10T16:22:55.008Z</time>
      </trkpt>
      <trkpt lat="42.9781" lon="0.70602">
        <ele>576.792</ele>
        <time>2017-06-10T16:22:58.008Z</time>
      </trkpt>
      <trkpt lat="42.97801" lon="0.70614">
        <ele>575.792</ele>
        <time>2017-06-10T16:23:00.008Z</time>
      </trkpt>
      <trkpt lat="42.97793" lon="0.70629">
        <ele>574</ele>
        <time>2017-06-10T16:23:02.008Z</time>
      </trkpt>
      <trkpt lat="42.97783" lon="0.70642">
        <ele>574</ele>
        <time>2017-06-10T16:23:04.008Z</time>
      </trkpt>
      <trkpt lat="42.97772" lon="0.70658">
        <ele>573.584</ele>
        <time>2017-06-10T16:23:06.008Z</time>
      </trkpt>
      <trkpt lat="42.97761" lon="0.70676">
        <ele>572</ele>
        <time>2017-06-10T16:23:08.008Z</time>
      </trkpt>
      <trkpt lat="42.9775" lon="0.70695">
        <ele>572</ele>
        <time>2017-06-10T16:23:10.008Z</time>
      </trkpt>
      <trkpt lat="42.97739" lon="0.70713">
        <ele>571</ele>
        <time>2017-06-10T16:23:12.008Z</time>
      </trkpt>
      <trkpt lat="42.97728" lon="0.70728">
        <ele>571</ele>
        <time>2017-06-10T16:23:14.008Z</time>
      </trkpt>
      <trkpt lat="42.97719" lon="0.70741">
        <ele>571.208</ele>
        <time>2017-06-10T16:23:16.008Z</time>
      </trkpt>
      <trkpt lat="42.97712" lon="0.70752">
        <ele>572</ele>
        <time>2017-06-10T16:23:18.008Z</time>
      </trkpt>
      <trkpt lat="42.97706" lon="0.70761">
        <ele>572</ele>
        <time>2017-06-10T16:23:20.008Z</time>
      </trkpt>
      <trkpt lat="42.977" lon="0.70772">
        <ele>573</ele>
        <time>2017-06-10T16:23:23.008Z</time>
      </trkpt>
      <trkpt lat="42.97693" lon="0.70785">
        <ele>575</ele>
        <time>2017-06-10T16:23:27.008Z</time>
      </trkpt>
      <trkpt lat="42.97685" lon="0.70797">
        <ele>575.624</ele>
        <time>2017-06-10T16:23:31.008Z</time>
      </trkpt>
      <trkpt lat="42.97679" lon="0.7081">
        <ele>578</ele>
        <time>2017-06-10T16:23:35.008Z</time>
      </trkpt>
      <trkpt lat="42.97674" lon="0.70823">
        <ele>578</ele>
        <time>2017-06-10T16:23:39.008Z</time>
      </trkpt>
      <trkpt lat="42.97669" lon="0.70832">
        <ele>580</ele>
        <time>2017-06-10T16:23:42.008Z</time>
      </trkpt>
      <trkpt lat="42.97664" lon="0.70841">
        <ele>580</ele>
        <time>2017-06-10T16:23:45.008Z</time>
      </trkpt>
      <trkpt lat="42.97659" lon="0.7085">
        <ele>582</ele>
        <time>2017-06-10T16:23:48.008Z</time>
      </trkpt>
      <trkpt lat="42.97653" lon="0.70858">
        <ele>582</ele>
        <time>2017-06-10T16:23:51.008Z</time>
      </trkpt>
      <trkpt lat="42.97648" lon="0.70866">
        <ele>582</ele>
        <time>2017-06-10T16:23:54.008Z</time>
      </trkpt>
      <trkpt lat="42.97642" lon="0.70874">
        <ele>582</ele>
        <time>2017-06-10T16:23:57.008Z</time>
      </trkpt>
      <trkpt lat="42.97636" lon="0.70882">
        <ele>582</ele>
        <time>2017-06-10T16:24:00.008Z</time>
      </trkpt>
      <trkpt lat="42.97632" lon="0.70887">
        <ele>584</ele>
        <time>2017-06-10T16:24:02.008Z</time>
      </trkpt>
      <trkpt lat="42.97626" lon="0.70895">
        <ele>584</ele>
        <time>2017-06-10T16:24:05.008Z</time>
      </trkpt>
      <trkpt lat="42.97621" lon="0.70902">
        <ele>586</ele>
        <time>2017-06-10T16:24:08.008Z</time>
      </trkpt>
      <trkpt lat="42.97618" lon="0.70907">
        <ele>586</ele>
        <time>2017-06-10T16:24:10.008Z</time>
      </trkpt>
      <trkpt lat="42.97615" lon="0.70912">
        <ele>587</ele>
        <time>2017-06-10T16:24:12.008Z</time>
      </trkpt>
      <trkpt lat="42.97611" lon="0.70921">
        <ele>587</ele>
        <time>2017-06-10T16:24:15.008Z</time>
      </trkpt>
      <trkpt lat="42.97607" lon="0.70933">
        <ele>589</ele>
        <time>2017-06-10T16:24:19.008Z</time>
      </trkpt>
      <trkpt lat="42.97605" lon="0.70939">
        <ele>589.208</ele>
        <time>2017-06-10T16:24:21.008Z</time>
      </trkpt>
      <trkpt lat="42.97603" lon="0.70945">
        <ele>590</ele>
        <time>2017-06-10T16:24:23.008Z</time>
      </trkpt>
      <trkpt lat="42.976" lon="0.70958">
        <ele>591</ele>
        <time>2017-06-10T16:24:27.008Z</time>
      </trkpt>
      <trkpt lat="42.97596" lon="0.7097">
        <ele>591.208</ele>
        <time>2017-06-10T16:24:31.008Z</time>
      </trkpt>
      <trkpt lat="42.97591" lon="0.70982">
        <ele>592</ele>
        <time>2017-06-10T16:24:35.008Z</time>
      </trkpt>
      <trkpt lat="42.97586" lon="0.70994">
        <ele>593</ele>
        <time>2017-06-10T16:24:39.008Z</time>
      </trkpt>
      <trkpt lat="42.97581" lon="0.71002">
        <ele>594</ele>
        <time>2017-06-10T16:24:42.008Z</time>
      </trkpt>
      <trkpt lat="42.97576" lon="0.7101">
        <ele>594</ele>
        <time>2017-06-10T16:24:45.008Z</time>
      </trkpt>
      <trkpt lat="42.97573" lon="0.71019">
        <ele>594</ele>
        <time>2017-06-10T16:24:48.008Z</time>
      </trkpt>
      <trkpt lat="42.97569" lon="0.71027">
        <ele>594.416</ele>
        <time>2017-06-10T16:24:51.008Z</time>
      </trkpt>
      <trkpt lat="42.97566" lon="0.71036">
        <ele>596</ele>
        <time>2017-06-10T16:24:54.008Z</time>
      </trkpt>
      <trkpt lat="42.97563" lon="0.71044">
        <ele>596</ele>
        <time>2017-06-10T16:24:57.008Z</time>
      </trkpt>
      <trkpt lat="42.97563" lon="0.71055">
        <ele>596</ele>
        <time>2017-06-10T16:25:00.008Z</time>
      </trkpt>
      <trkpt lat="42.97566" lon="0.71065">
        <ele>598.792</ele>
        <time>2017-06-10T16:25:03.008Z</time>
      </trkpt>
      <trkpt lat="42.97571" lon="0.71073">
        <ele>598.208</ele>
        <time>2017-06-10T16:25:06.008Z</time>
      </trkpt>
      <trkpt lat="42.97574" lon="0.71082">
        <ele>599</ele>
        <time>2017-06-10T16:25:09.008Z</time>
      </trkpt>
      <trkpt lat="42.97577" lon="0.71092">
        <ele>600</ele>
        <time>2017-06-10T16:25:12.008Z</time>
      </trkpt>
      <trkpt lat="42.97577" lon="0.71102">
        <ele>600</ele>
        <time>2017-06-10T16:25:15.008Z</time>
      </trkpt>
      <trkpt lat="42.97577" lon="0.71113">
        <ele>600</ele>
        <time>2017-06-10T16:25:18.008Z</time>
      </trkpt>
      <trkpt lat="42.97576" lon="0.71124">
        <ele>600.416</ele>
        <time>2017-06-10T16:25:21.008Z</time>
      </trkpt>
      <trkpt lat="42.97575" lon="0.71134">
        <ele>601</ele>
        <time>2017-06-10T16:25:24.008Z</time>
      </trkpt>
      <trkpt lat="42.97575" lon="0.71141">
        <ele>601</ele>
        <time>2017-06-10T16:25:26.008Z</time>
      </trkpt>
      <trkpt lat="42.97573" lon="0.71151">
        <ele>601</ele>
        <time>2017-06-10T16:25:29.008Z</time>
      </trkpt>
      <trkpt lat="42.97571" lon="0.71161">
        <ele>604</ele>
        <time>2017-06-10T16:25:32.008Z</time>
      </trkpt>
      <trkpt lat="42.97569" lon="0.71171">
        <ele>604</ele>
        <time>2017-06-10T16:25:35.008Z</time>
      </trkpt>
      <trkpt lat="42.97567" lon="0.71181">
        <ele>606</ele>
        <time>2017-06-10T16:25:38.008Z</time>
      </trkpt>
      <trkpt lat="42.97565" lon="0.71191">
        <ele>605.208</ele>
        <time>2017-06-10T16:25:41.008Z</time>
      </trkpt>
      <trkpt lat="42.97563" lon="0.71201">
        <ele>606</ele>
        <time>2017-06-10T16:25:44.008Z</time>
      </trkpt>
      <trkpt lat="42.9756" lon="0.7121">
        <ele>607</ele>
        <time>2017-06-10T16:25:47.008Z</time>
      </trkpt>
      <trkpt lat="42.97556" lon="0.7122">
        <ele>607</ele>
        <time>2017-06-10T16:25:50.008Z</time>
      </trkpt>
      <trkpt lat="42.97554" lon="0.71226">
        <ele>609</ele>
        <time>2017-06-10T16:25:52.008Z</time>
      </trkpt>
      <trkpt lat="42.97553" lon="0.71237">
        <ele>609</ele>
        <time>2017-06-10T16:25:55.008Z</time>
      </trkpt>
      <trkpt lat="42.97554" lon="0.71247">
        <ele>610</ele>
        <time>2017-06-10T16:25:58.008Z</time>
      </trkpt>
      <trkpt lat="42.97555" lon="0.71257">
        <ele>610.208</ele>
        <time>2017-06-10T16:26:01.008Z</time>
      </trkpt>
      <trkpt lat="42.97556" lon="0.71267">
        <ele>611</ele>
        <time>2017-06-10T16:26:04.008Z</time>
      </trkpt>
      <trkpt lat="42.97557" lon="0.71278">
        <ele>613</ele>
        <time>2017-06-10T16:26:07.008Z</time>
      </trkpt>
      <trkpt lat="42.97557" lon="0.71288">
        <ele>613</ele>
        <time>2017-06-10T16:26:10.008Z</time>
      </trkpt>
      <trkpt lat="42.97557" lon="0.71298">
        <ele>613.792</ele>
        <time>2017-06-10T16:26:13.008Z</time>
      </trkpt>
      <trkpt lat="42.97556" lon="0.71308">
        <ele>613.208</ele>
        <time>2017-06-10T16:26:16.008Z</time>
      </trkpt>
      <trkpt lat="42.97555" lon="0.71318">
        <ele>614</ele>
        <time>2017-06-10T16:26:19.008Z</time>
      </trkpt>
      <trkpt lat="42.97554" lon="0.71328">
        <ele>615</ele>
        <time>2017-06-10T16:26:22.008Z</time>
      </trkpt>
      <trkpt lat="42.97553" lon="0.71339">
        <ele>615</ele>
        <time>2017-06-10T16:26:25.008Z</time>
      </trkpt>
      <trkpt lat="42.97553" lon="0.71348">
        <ele>615</ele>
        <time>2017-06-10T16:26:28.008Z</time>
      </trkpt>
      <trkpt lat="42.97554" lon="0.71358">
        <ele>615.416</ele>
        <time>2017-06-10T16:26:31.008Z</time>
      </trkpt>
      <trkpt lat="42.97557" lon="0.71367">
        <ele>617</ele>
        <time>2017-06-10T16:26:34.008Z</time>
      </trkpt>
      <trkpt lat="42.97562" lon="0.71375">
        <ele>616</ele>
        <time>2017-06-10T16:26:37.008Z</time>
      </trkpt>
      <trkpt lat="42.97568" lon="0.71381">
        <ele>616</ele>
        <time>2017-06-10T16:26:40.008Z</time>
      </trkpt>
      <trkpt lat="42.97574" lon="0.71388">
        <ele>619</ele>
        <time>2017-06-10T16:26:43.008Z</time>
      </trkpt>
      <trkpt lat="42.97579" lon="0.71396">
        <ele>619.41188249309</ele>
        <time>2017-06-10T16:26:46.008Z</time>
      </trkpt>
      <trkpt lat="42.97583" lon="0.71405">
        <ele>621</ele>
        <time>2017-06-10T16:26:49.008Z</time>
      </trkpt>
      <trkpt lat="42.97585" lon="0.71418">
        <ele>622</ele>
        <time>2017-06-10T16:26:53.008Z</time>
      </trkpt>
      <trkpt lat="42.97585" lon="0.71431">
        <ele>623</ele>
        <time>2017-06-10T16:26:57.008Z</time>
      </trkpt>
      <trkpt lat="42.97585" lon="0.71445">
        <ele>623.208</ele>
        <time>2017-06-10T16:27:01.008Z</time>
      </trkpt>
      <trkpt lat="42.97582" lon="0.71459">
        <ele>624</ele>
        <time>2017-06-10T16:27:05.008Z</time>
      </trkpt>
      <trkpt lat="42.97577" lon="0.71466">
        <ele>624</ele>
        <time>2017-06-10T16:27:08.008Z</time>
      </trkpt>
      <trkpt lat="42.9757" lon="0.71476">
        <ele>625</ele>
        <time>2017-06-10T16:27:12.008Z</time>
      </trkpt>
      <trkpt lat="42.97561" lon="0.71484">
        <ele>625</ele>
        <time>2017-06-10T16:27:16.008Z</time>
      </trkpt>
      <trkpt lat="42.97552" lon="0.71492">
        <ele>625</ele>
        <time>2017-06-10T16:27:20.008Z</time>
      </trkpt>
      <trkpt lat="42.97544" lon="0.71499">
        <ele>628</ele>
        <time>2017-06-10T16:27:23.008Z</time>
      </trkpt>
      <trkpt lat="42.97537" lon="0.71506">
        <ele>628</ele>
        <time>2017-06-10T16:27:26.008Z</time>
      </trkpt>
      <trkpt lat="42.97529" lon="0.71513">
        <ele>628</ele>
        <time>2017-06-10T16:27:29.008Z</time>
      </trkpt>
      <trkpt lat="42.97524" lon="0.71518">
        <ele>628</ele>
        <time>2017-06-10T16:27:31.008Z</time>
      </trkpt>
      <trkpt lat="42.97518" lon="0.71523">
        <ele>628</ele>
        <time>2017-06-10T16:27:33.008Z</time>
      </trkpt>
      <trkpt lat="42.97512" lon="0.71527">
        <ele>628</ele>
        <time>2017-06-10T16:27:35.008Z</time>
      </trkpt>
      <trkpt lat="42.97502" lon="0.71528">
        <ele>628</ele>
        <time>2017-06-10T16:27:37.008Z</time>
      </trkpt>
      <trkpt lat="42.97491" lon="0.71524">
        <ele>628</ele>
        <time>2017-06-10T16:27:39.008Z</time>
      </trkpt>
      <trkpt lat="42.97486" lon="0.71522">
        <ele>628</ele>
        <time>2017-06-10T16:27:40.008Z</time>
      </trkpt>
      <trkpt lat="42.9748" lon="0.7152">
        <ele>627.584</ele>
        <time>2017-06-10T16:27:41.008Z</time>
      </trkpt>
      <trkpt lat="42.97474" lon="0.7152">
        <ele>626</ele>
        <time>2017-06-10T16:27:42.008Z</time>
      </trkpt>
      <trkpt lat="42.97469" lon="0.7152">
        <ele>626</ele>
        <time>2017-06-10T16:27:43.008Z</time>
      </trkpt>
      <trkpt lat="42.97458" lon="0.71524">
        <ele>626</ele>
        <time>2017-06-10T16:27:45.008Z</time>
      </trkpt>
      <trkpt lat="42.97452" lon="0.71529">
        <ele>626</ele>
        <time>2017-06-10T16:27:46.008Z</time>
      </trkpt>
      <trkpt lat="42.97447" lon="0.71533">
        <ele>626</ele>
        <time>2017-06-10T16:27:47.008Z</time>
      </trkpt>
      <trkpt lat="42.97443" lon="0.71539">
        <ele>626</ele>
        <time>2017-06-10T16:27:48.008Z</time>
      </trkpt>
      <trkpt lat="42.97439" lon="0.71545">
        <ele>626</ele>
        <time>2017-06-10T16:27:49.008Z</time>
      </trkpt>
      <trkpt lat="42.97435" lon="0.71552">
        <ele>626</ele>
        <time>2017-06-10T16:27:50.008Z</time>
      </trkpt>
      <trkpt lat="42.97432" lon="0.71558">
        <ele>625.792</ele>
        <time>2017-06-10T16:27:51.008Z</time>
      </trkpt>
      <trkpt lat="42.97429" lon="0.71565">
        <ele>625</ele>
        <time>2017-06-10T16:27:52.008Z</time>
      </trkpt>
      <trkpt lat="42.97423" lon="0.71578">
        <ele>625</ele>
        <time>2017-06-10T16:27:54.008Z</time>
      </trkpt>
      <trkpt lat="42.9742" lon="0.71585">
        <ele>625</ele>
        <time>2017-06-10T16:27:55.008Z</time>
      </trkpt>
      <trkpt lat="42.97416" lon="0.71592">
        <ele>625</ele>
        <time>2017-06-10T16:27:56.008Z</time>
      </trkpt>
      <trkpt lat="42.97413" lon="0.71599">
        <ele>625</ele>
        <time>2017-06-10T16:27:57.008Z</time>
      </trkpt>
      <trkpt lat="42.97408" lon="0.71606">
        <ele>625</ele>
        <time>2017-06-10T16:27:58.008Z</time>
      </trkpt>
      <trkpt lat="42.97404" lon="0.71613">
        <ele>625</ele>
        <time>2017-06-10T16:27:59.008Z</time>
      </trkpt>
      <trkpt lat="42.97399" lon="0.7162">
        <ele>625</ele>
        <time>2017-06-10T16:28:00.008Z</time>
      </trkpt>
      <trkpt lat="42.97394" lon="0.71626">
        <ele>624.376</ele>
        <time>2017-06-10T16:28:01.008Z</time>
      </trkpt>
      <trkpt lat="42.97388" lon="0.71631">
        <ele>622</ele>
        <time>2017-06-10T16:28:02.008Z</time>
      </trkpt>
      <trkpt lat="42.97381" lon="0.71635">
        <ele>622</ele>
        <time>2017-06-10T16:28:03.008Z</time>
      </trkpt>
      <trkpt lat="42.97375" lon="0.71639">
        <ele>622</ele>
        <time>2017-06-10T16:28:04.008Z</time>
      </trkpt>
      <trkpt lat="42.97362" lon="0.71644">
        <ele>622</ele>
        <time>2017-06-10T16:28:06.008Z</time>
      </trkpt>
      <trkpt lat="42.97349" lon="0.71648">
        <ele>622</ele>
        <time>2017-06-10T16:28:08.008Z</time>
      </trkpt>
      <trkpt lat="42.97338" lon="0.71652">
        <ele>622</ele>
        <time>2017-06-10T16:28:10.008Z</time>
      </trkpt>
      <trkpt lat="42.97327" lon="0.71657">
        <ele>621</ele>
        <time>2017-06-10T16:28:12.008Z</time>
      </trkpt>
      <trkpt lat="42.97319" lon="0.71666">
        <ele>621</ele>
        <time>2017-06-10T16:28:14.008Z</time>
      </trkpt>
      <trkpt lat="42.97317" lon="0.7168">
        <ele>621</ele>
        <time>2017-06-10T16:28:16.008Z</time>
      </trkpt>
      <trkpt lat="42.97317" lon="0.71695">
        <ele>621</ele>
        <time>2017-06-10T16:28:18.008Z</time>
      </trkpt>
      <trkpt lat="42.97316" lon="0.7171">
        <ele>621</ele>
        <time>2017-06-10T16:28:20.008Z</time>
      </trkpt>
      <trkpt lat="42.97314" lon="0.71727">
        <ele>621</ele>
        <time>2017-06-10T16:28:22.008Z</time>
      </trkpt>
      <trkpt lat="42.97313" lon="0.71736">
        <ele>621</ele>
        <time>2017-06-10T16:28:23.008Z</time>
      </trkpt>
      <trkpt lat="42.97312" lon="0.71745">
        <ele>621</ele>
        <time>2017-06-10T16:28:24.008Z</time>
      </trkpt>
      <trkpt lat="42.97312" lon="0.71754">
        <ele>621</ele>
        <time>2017-06-10T16:28:25.008Z</time>
      </trkpt>
      <trkpt lat="42.9731" lon="0.71763">
        <ele>621</ele>
        <time>2017-06-10T16:28:26.008Z</time>
      </trkpt>
      <trkpt lat="42.97309" lon="0.71773">
        <ele>621</ele>
        <time>2017-06-10T16:28:27.008Z</time>
      </trkpt>
      <trkpt lat="42.97306" lon="0.71782">
        <ele>621</ele>
        <time>2017-06-10T16:28:28.008Z</time>
      </trkpt>
      <trkpt lat="42.97303" lon="0.71791">
        <ele>621</ele>
        <time>2017-06-10T16:28:29.008Z</time>
      </trkpt>
      <trkpt lat="42.97299" lon="0.718">
        <ele>621</ele>
        <time>2017-06-10T16:28:30.008Z</time>
      </trkpt>
      <trkpt lat="42.97294" lon="0.71808">
        <ele>620.376</ele>
        <time>2017-06-10T16:28:31.008Z</time>
      </trkpt>
      <trkpt lat="42.9729" lon="0.71817">
        <ele>618</ele>
        <time>2017-06-10T16:28:32.008Z</time>
      </trkpt>
      <trkpt lat="42.97286" lon="0.71825">
        <ele>618</ele>
        <time>2017-06-10T16:28:33.008Z</time>
      </trkpt>
      <trkpt lat="42.97282" lon="0.71832">
        <ele>618</ele>
        <time>2017-06-10T16:28:34.008Z</time>
      </trkpt>
      <trkpt lat="42.97267" lon="0.71847">
        <ele>617</ele>
        <time>2017-06-10T16:28:37.008Z</time>
      </trkpt>
      <trkpt lat="42.97262" lon="0.71851">
        <ele>617</ele>
        <time>2017-06-10T16:28:38.008Z</time>
      </trkpt>
      <trkpt lat="42.97252" lon="0.71857">
        <ele>617</ele>
        <time>2017-06-10T16:28:40.008Z</time>
      </trkpt>
      <trkpt lat="42.97243" lon="0.71865">
        <ele>618</ele>
        <time>2017-06-10T16:28:42.008Z</time>
      </trkpt>
      <trkpt lat="42.97235" lon="0.71873">
        <ele>618</ele>
        <time>2017-06-10T16:28:44.008Z</time>
      </trkpt>
      <trkpt lat="42.97227" lon="0.7188">
        <ele>618</ele>
        <time>2017-06-10T16:28:46.008Z</time>
      </trkpt>
      <trkpt lat="42.97219" lon="0.71887">
        <ele>618</ele>
        <time>2017-06-10T16:28:48.008Z</time>
      </trkpt>
      <trkpt lat="42.97212" lon="0.71894">
        <ele>618</ele>
        <time>2017-06-10T16:28:50.008Z</time>
      </trkpt>
      <trkpt lat="42.97204" lon="0.71902">
        <ele>620</ele>
        <time>2017-06-10T16:28:52.008Z</time>
      </trkpt>
      <trkpt lat="42.97197" lon="0.7191">
        <ele>620</ele>
        <time>2017-06-10T16:28:54.008Z</time>
      </trkpt>
      <trkpt lat="42.9719" lon="0.71917">
        <ele>620</ele>
        <time>2017-06-10T16:28:56.008Z</time>
      </trkpt>
      <trkpt lat="42.97184" lon="0.71925">
        <ele>620</ele>
        <time>2017-06-10T16:28:58.008Z</time>
      </trkpt>
      <trkpt lat="42.97177" lon="0.71933">
        <ele>620</ele>
        <time>2017-06-10T16:29:00.008Z</time>
      </trkpt>
      <trkpt lat="42.9717" lon="0.7194">
        <ele>622</ele>
        <time>2017-06-10T16:29:02.008Z</time>
      </trkpt>
      <trkpt lat="42.97162" lon="0.71944">
        <ele>622</ele>
        <time>2017-06-10T16:29:04.008Z</time>
      </trkpt>
      <trkpt lat="42.97149" lon="0.71946">
        <ele>621</ele>
        <time>2017-06-10T16:29:07.008Z</time>
      </trkpt>
      <trkpt lat="42.97142" lon="0.71944">
        <ele>621</ele>
        <time>2017-06-10T16:29:09.008Z</time>
      </trkpt>
      <trkpt lat="42.97133" lon="0.71938">
        <ele>623</ele>
        <time>2017-06-10T16:29:12.008Z</time>
      </trkpt>
      <trkpt lat="42.97126" lon="0.71934">
        <ele>623</ele>
        <time>2017-06-10T16:29:14.008Z</time>
      </trkpt>
      <trkpt lat="42.97118" lon="0.71931">
        <ele>623</ele>
        <time>2017-06-10T16:29:16.008Z</time>
      </trkpt>
      <trkpt lat="42.9711" lon="0.71931">
        <ele>623</ele>
        <time>2017-06-10T16:29:18.008Z</time>
      </trkpt>
      <trkpt lat="42.97102" lon="0.71934">
        <ele>623</ele>
        <time>2017-06-10T16:29:20.008Z</time>
      </trkpt>
      <trkpt lat="42.97095" lon="0.71938">
        <ele>624</ele>
        <time>2017-06-10T16:29:22.008Z</time>
      </trkpt>
      <trkpt lat="42.97088" lon="0.71944">
        <ele>624</ele>
        <time>2017-06-10T16:29:24.008Z</time>
      </trkpt>
      <trkpt lat="42.97082" lon="0.71951">
        <ele>624</ele>
        <time>2017-06-10T16:29:26.008Z</time>
      </trkpt>
      <trkpt lat="42.97076" lon="0.71957">
        <ele>624</ele>
        <time>2017-06-10T16:29:28.008Z</time>
      </trkpt>
      <trkpt lat="42.97072" lon="0.71965">
        <ele>624</ele>
        <time>2017-06-10T16:29:30.008Z</time>
      </trkpt>
      <trkpt lat="42.97064" lon="0.71975">
        <ele>625</ele>
        <time>2017-06-10T16:29:33.008Z</time>
      </trkpt>
      <trkpt lat="42.97056" lon="0.71988">
        <ele>625</ele>
        <time>2017-06-10T16:29:36.008Z</time>
      </trkpt>
      <trkpt lat="42.97051" lon="0.72006">
        <ele>625</ele>
        <time>2017-06-10T16:29:39.008Z</time>
      </trkpt>
      <trkpt lat="42.97051" lon="0.72021">
        <ele>625</ele>
        <time>2017-06-10T16:29:41.008Z</time>
      </trkpt>
      <trkpt lat="42.97051" lon="0.72029">
        <ele>625</ele>
        <time>2017-06-10T16:29:42.008Z</time>
      </trkpt>
      <trkpt lat="42.97051" lon="0.72036">
        <ele>625</ele>
        <time>2017-06-10T16:29:43.008Z</time>
      </trkpt>
      <trkpt lat="42.97052" lon="0.72051">
        <ele>625</ele>
        <time>2017-06-10T16:29:45.008Z</time>
      </trkpt>
      <trkpt lat="42.97051" lon="0.72066">
        <ele>625</ele>
        <time>2017-06-10T16:29:47.008Z</time>
      </trkpt>
      <trkpt lat="42.9705" lon="0.72082">
        <ele>625</ele>
        <time>2017-06-10T16:29:49.008Z</time>
      </trkpt>
      <trkpt lat="42.97048" lon="0.72098">
        <ele>624.792</ele>
        <time>2017-06-10T16:29:51.008Z</time>
      </trkpt>
      <trkpt lat="42.97043" lon="0.72113">
        <ele>624</ele>
        <time>2017-06-10T16:29:53.008Z</time>
      </trkpt>
      <trkpt lat="42.97038" lon="0.72128">
        <ele>624</ele>
        <time>2017-06-10T16:29:55.008Z</time>
      </trkpt>
      <trkpt lat="42.97036" lon="0.72136">
        <ele>624</ele>
        <time>2017-06-10T16:29:56.008Z</time>
      </trkpt>
      <trkpt lat="42.97032" lon="0.72153">
        <ele>624</ele>
        <time>2017-06-10T16:29:58.008Z</time>
      </trkpt>
      <trkpt lat="42.97028" lon="0.7217">
        <ele>624</ele>
        <time>2017-06-10T16:30:00.008Z</time>
      </trkpt>
      <trkpt lat="42.97027" lon="0.72179">
        <ele>623.168</ele>
        <time>2017-06-10T16:30:01.008Z</time>
      </trkpt>
      <trkpt lat="42.97024" lon="0.72196">
        <ele>620</ele>
        <time>2017-06-10T16:30:03.008Z</time>
      </trkpt>
      <trkpt lat="42.97023" lon="0.72204">
        <ele>620</ele>
        <time>2017-06-10T16:30:04.008Z</time>
      </trkpt>
      <trkpt lat="42.97021" lon="0.72218">
        <ele>620</ele>
        <time>2017-06-10T16:30:06.008Z</time>
      </trkpt>
      <trkpt lat="42.97022" lon="0.72229">
        <ele>620</ele>
        <time>2017-06-10T16:30:08.008Z</time>
      </trkpt>
      <trkpt lat="42.97024" lon="0.72241">
        <ele>620</ele>
        <time>2017-06-10T16:30:10.008Z</time>
      </trkpt>
      <trkpt lat="42.97025" lon="0.72248">
        <ele>619.584</ele>
        <time>2017-06-10T16:30:11.008Z</time>
      </trkpt>
      <trkpt lat="42.97026" lon="0.72256">
        <ele>618</ele>
        <time>2017-06-10T16:30:12.008Z</time>
      </trkpt>
      <trkpt lat="42.97027" lon="0.72265">
        <ele>618</ele>
        <time>2017-06-10T16:30:13.008Z</time>
      </trkpt>
      <trkpt lat="42.97029" lon="0.72284">
        <ele>618</ele>
        <time>2017-06-10T16:30:15.008Z</time>
      </trkpt>
      <trkpt lat="42.97031" lon="0.72294">
        <ele>618</ele>
        <time>2017-06-10T16:30:16.008Z</time>
      </trkpt>
      <trkpt lat="42.97036" lon="0.72312">
        <ele>618</ele>
        <time>2017-06-10T16:30:18.008Z</time>
      </trkpt>
      <trkpt lat="42.97039" lon="0.72321">
        <ele>618</ele>
        <time>2017-06-10T16:30:19.008Z</time>
      </trkpt>
      <trkpt lat="42.97044" lon="0.7233">
        <ele>618</ele>
        <time>2017-06-10T16:30:20.008Z</time>
      </trkpt>
      <trkpt lat="42.97048" lon="0.72339">
        <ele>616.752</ele>
        <time>2017-06-10T16:30:21.008Z</time>
      </trkpt>
      <trkpt lat="42.97052" lon="0.72348">
        <ele>611.168</ele>
        <time>2017-06-10T16:30:22.008Z</time>
      </trkpt>
      <trkpt lat="42.97056" lon="0.72357">
        <ele>608</ele>
        <time>2017-06-10T16:30:23.008Z</time>
      </trkpt>
      <trkpt lat="42.9706" lon="0.72366">
        <ele>607.792</ele>
        <time>2017-06-10T16:30:24.008Z</time>
      </trkpt>
      <trkpt lat="42.97064" lon="0.72375">
        <ele>606.792</ele>
        <time>2017-06-10T16:30:25.008Z</time>
      </trkpt>
      <trkpt lat="42.97067" lon="0.72383">
        <ele>605.792</ele>
        <time>2017-06-10T16:30:26.008Z</time>
      </trkpt>
      <trkpt lat="42.9707" lon="0.72391">
        <ele>605</ele>
        <time>2017-06-10T16:30:27.008Z</time>
      </trkpt>
      <trkpt lat="42.97076" lon="0.72414">
        <ele>602</ele>
        <time>2017-06-10T16:30:30.008Z</time>
      </trkpt>
      <trkpt lat="42.97077" lon="0.72421">
        <ele>601.792</ele>
        <time>2017-06-10T16:30:31.008Z</time>
      </trkpt>
      <trkpt lat="42.97078" lon="0.72438">
        <ele>600.792</ele>
        <time>2017-06-10T16:30:33.008Z</time>
      </trkpt>
      <trkpt lat="42.97078" lon="0.72455">
        <ele>599</ele>
        <time>2017-06-10T16:30:35.008Z</time>
      </trkpt>
      <trkpt lat="42.97075" lon="0.72468">
        <ele>599</ele>
        <time>2017-06-10T16:30:37.008Z</time>
      </trkpt>
      <trkpt lat="42.97067" lon="0.72474">
        <ele>599</ele>
        <time>2017-06-10T16:30:39.008Z</time>
      </trkpt>
      <trkpt lat="42.97057" lon="0.72474">
        <ele>599</ele>
        <time>2017-06-10T16:30:41.008Z</time>
      </trkpt>
      <trkpt lat="42.97049" lon="0.72472">
        <ele>599</ele>
        <time>2017-06-10T16:30:43.008Z</time>
      </trkpt>
      <trkpt lat="42.97035" lon="0.72472">
        <ele>599</ele>
        <time>2017-06-10T16:30:46.008Z</time>
      </trkpt>
      <trkpt lat="42.97027" lon="0.72473">
        <ele>599</ele>
        <time>2017-06-10T16:30:48.008Z</time>
      </trkpt>
      <trkpt lat="42.97019" lon="0.72474">
        <ele>599</ele>
        <time>2017-06-10T16:30:50.008Z</time>
      </trkpt>
      <trkpt lat="42.97011" lon="0.72474">
        <ele>600</ele>
        <time>2017-06-10T16:30:52.008Z</time>
      </trkpt>
      <trkpt lat="42.97004" lon="0.72478">
        <ele>600</ele>
        <time>2017-06-10T16:30:54.008Z</time>
      </trkpt>
      <trkpt lat="42.96997" lon="0.72486">
        <ele>600</ele>
        <time>2017-06-10T16:30:57.008Z</time>
      </trkpt>
      <trkpt lat="42.96992" lon="0.72492">
        <ele>600</ele>
        <time>2017-06-10T16:30:59.008Z</time>
      </trkpt>
      <trkpt lat="42.96985" lon="0.72501">
        <ele>602</ele>
        <time>2017-06-10T16:31:02.008Z</time>
      </trkpt>
      <trkpt lat="42.96979" lon="0.72509">
        <ele>602</ele>
        <time>2017-06-10T16:31:05.008Z</time>
      </trkpt>
      <trkpt lat="42.96973" lon="0.72517">
        <ele>602</ele>
        <time>2017-06-10T16:31:08.008Z</time>
      </trkpt>
      <trkpt lat="42.9697" lon="0.72525">
        <ele>602</ele>
        <time>2017-06-10T16:31:12.008Z</time>
      </trkpt>
      <trkpt lat="42.96969" lon="0.72537">
        <ele>603</ele>
        <time>2017-06-10T16:33:36.008Z</time>
      </trkpt>
      <trkpt lat="42.96967" lon="0.72547">
        <ele>603</ele>
        <time>2017-06-10T16:33:40.008Z</time>
      </trkpt>
      <trkpt lat="42.96964" lon="0.72559">
        <ele>605</ele>
        <time>2017-06-10T16:33:45.008Z</time>
      </trkpt>
      <trkpt lat="42.96961" lon="0.72571">
        <ele>605</ele>
        <time>2017-06-10T16:33:50.008Z</time>
      </trkpt>
      <trkpt lat="42.96959" lon="0.72582">
        <ele>609</ele>
        <time>2017-06-10T16:33:55.008Z</time>
      </trkpt>
      <trkpt lat="42.96958" lon="0.72596">
        <ele>611.208</ele>
        <time>2017-06-10T16:34:01.008Z</time>
      </trkpt>
      <trkpt lat="42.96955" lon="0.72609">
        <ele>612.208</ele>
        <time>2017-06-10T16:34:06.008Z</time>
      </trkpt>
      <trkpt lat="42.96954" lon="0.72619">
        <ele>613</ele>
        <time>2017-06-10T16:34:10.008Z</time>
      </trkpt>
      <trkpt lat="42.96952" lon="0.72631">
        <ele>614</ele>
        <time>2017-06-10T16:34:15.008Z</time>
      </trkpt>
      <trkpt lat="42.96949" lon="0.72642">
        <ele>616</ele>
        <time>2017-06-10T16:34:20.008Z</time>
      </trkpt>
      <trkpt lat="42.96947" lon="0.72652">
        <ele>617</ele>
        <time>2017-06-10T16:34:24.008Z</time>
      </trkpt>
      <trkpt lat="42.96944" lon="0.72663">
        <ele>619</ele>
        <time>2017-06-10T16:34:29.008Z</time>
      </trkpt>
      <trkpt lat="42.96942" lon="0.72675">
        <ele>621</ele>
        <time>2017-06-10T16:34:34.008Z</time>
      </trkpt>
      <trkpt lat="42.9694" lon="0.72687">
        <ele>622</ele>
        <time>2017-06-10T16:34:39.008Z</time>
      </trkpt>
      <trkpt lat="42.96938" lon="0.72696">
        <ele>623</ele>
        <time>2017-06-10T16:34:43.008Z</time>
      </trkpt>
      <trkpt lat="42.96931" lon="0.72702">
        <ele>625</ele>
        <time>2017-06-10T16:34:48.008Z</time>
      </trkpt>
      <trkpt lat="42.96925" lon="0.72701">
        <ele>626</ele>
        <time>2017-06-10T16:34:52.008Z</time>
      </trkpt>
      <trkpt lat="42.9692" lon="0.727">
        <ele>626</ele>
        <time>2017-06-10T16:34:55.008Z</time>
      </trkpt>
      <trkpt lat="42.9691" lon="0.72699">
        <ele>626</ele>
        <time>2017-06-10T16:35:00.008Z</time>
      </trkpt>
      <trkpt lat="42.96902" lon="0.72703">
        <ele>627</ele>
        <time>2017-06-10T16:35:05.008Z</time>
      </trkpt>
      <trkpt lat="42.96897" lon="0.72717">
        <ele>628</ele>
        <time>2017-06-10T16:35:12.008Z</time>
      </trkpt>
      <trkpt lat="42.96896" lon="0.72732">
        <ele>628.416</ele>
        <time>2017-06-10T16:35:21.008Z</time>
      </trkpt>
      <trkpt lat="42.96895" lon="0.72746">
        <ele>630</ele>
        <time>2017-06-10T16:35:29.008Z</time>
      </trkpt>
      <trkpt lat="42.96895" lon="0.72761">
        <ele>631</ele>
        <time>2017-06-10T16:35:36.008Z</time>
      </trkpt>
      <trkpt lat="42.96897" lon="0.72775">
        <ele>633</ele>
        <time>2017-06-10T16:35:43.008Z</time>
      </trkpt>
      <trkpt lat="42.96897" lon="0.72789">
        <ele>633</ele>
        <time>2017-06-10T16:35:50.008Z</time>
      </trkpt>
      <trkpt lat="42.96897" lon="0.72803">
        <ele>635</ele>
        <time>2017-06-10T16:35:57.008Z</time>
      </trkpt>
      <trkpt lat="42.969" lon="0.72816">
        <ele>636</ele>
        <time>2017-06-10T16:36:05.008Z</time>
      </trkpt>
      <trkpt lat="42.96904" lon="0.72829">
        <ele>638</ele>
        <time>2017-06-10T16:36:22.008Z</time>
      </trkpt>
      <trkpt lat="42.96907" lon="0.72843">
        <ele>639</ele>
        <time>2017-06-10T16:36:32.008Z</time>
      </trkpt>
      <trkpt lat="42.96908" lon="0.72857">
        <ele>639</ele>
        <time>2017-06-10T16:36:41.008Z</time>
      </trkpt>
      <trkpt lat="42.96914" lon="0.7287">
        <ele>640</ele>
        <time>2017-06-10T16:36:55.008Z</time>
      </trkpt>
      <trkpt lat="42.96919" lon="0.72884">
        <ele>641</ele>
        <time>2017-06-10T16:37:03.008Z</time>
      </trkpt>
      <trkpt lat="42.96925" lon="0.72895">
        <ele>641</ele>
        <time>2017-06-10T16:37:08.008Z</time>
      </trkpt>
      <trkpt lat="42.96932" lon="0.72908">
        <ele>642</ele>
        <time>2017-06-10T16:37:13.008Z</time>
      </trkpt>
      <trkpt lat="42.96939" lon="0.72919">
        <ele>642</ele>
        <time>2017-06-10T16:37:18.008Z</time>
      </trkpt>
      <trkpt lat="42.96944" lon="0.72931">
        <ele>643</ele>
        <time>2017-06-10T16:37:23.008Z</time>
      </trkpt>
      <trkpt lat="42.96949" lon="0.72945">
        <ele>643</ele>
        <time>2017-06-10T16:37:28.008Z</time>
      </trkpt>
      <trkpt lat="42.96955" lon="0.72959">
        <ele>645</ele>
        <time>2017-06-10T16:37:33.008Z</time>
      </trkpt>
      <trkpt lat="42.96958" lon="0.72972">
        <ele>645</ele>
        <time>2017-06-10T16:37:39.008Z</time>
      </trkpt>
      <trkpt lat="42.9696" lon="0.72986">
        <ele>647</ele>
        <time>2017-06-10T16:37:43.008Z</time>
      </trkpt>
      <trkpt lat="42.9696" lon="0.72999">
        <ele>647</ele>
        <time>2017-06-10T16:37:47.008Z</time>
      </trkpt>
      <trkpt lat="42.96958" lon="0.73013">
        <ele>648</ele>
        <time>2017-06-10T16:37:52.008Z</time>
      </trkpt>
      <trkpt lat="42.96955" lon="0.73028">
        <ele>648</ele>
        <time>2017-06-10T16:37:57.008Z</time>
      </trkpt>
      <trkpt lat="42.96954" lon="0.73044">
        <ele>651</ele>
        <time>2017-06-10T16:38:03.008Z</time>
      </trkpt>
      <trkpt lat="42.96959" lon="0.73057">
        <ele>651</ele>
        <time>2017-06-10T16:38:09.008Z</time>
      </trkpt>
      <trkpt lat="42.96963" lon="0.7307">
        <ele>650</ele>
        <time>2017-06-10T16:38:14.008Z</time>
      </trkpt>
      <trkpt lat="42.96969" lon="0.73084">
        <ele>650</ele>
        <time>2017-06-10T16:38:20.008Z</time>
      </trkpt>
      <trkpt lat="42.96976" lon="0.73098">
        <ele>652</ele>
        <time>2017-06-10T16:38:25.008Z</time>
      </trkpt>
      <trkpt lat="42.96981" lon="0.73111">
        <ele>654</ele>
        <time>2017-06-10T16:38:34.008Z</time>
      </trkpt>
      <trkpt lat="42.96986" lon="0.73123">
        <ele>654</ele>
        <time>2017-06-10T16:38:38.008Z</time>
      </trkpt>
      <trkpt lat="42.96992" lon="0.73135">
        <ele>655</ele>
        <time>2017-06-10T16:38:42.008Z</time>
      </trkpt>
      <trkpt lat="42.97001" lon="0.73147">
        <ele>655</ele>
        <time>2017-06-10T16:38:46.008Z</time>
      </trkpt>
      <trkpt lat="42.9701" lon="0.73157">
        <ele>655</ele>
        <time>2017-06-10T16:38:50.008Z</time>
      </trkpt>
      <trkpt lat="42.97021" lon="0.73164">
        <ele>655</ele>
        <time>2017-06-10T16:38:54.008Z</time>
      </trkpt>
      <trkpt lat="42.97032" lon="0.73168">
        <ele>655</ele>
        <time>2017-06-10T16:38:58.008Z</time>
      </trkpt>
      <trkpt lat="42.97043" lon="0.73173">
        <ele>657</ele>
        <time>2017-06-10T16:39:03.008Z</time>
      </trkpt>
      <trkpt lat="42.97053" lon="0.7318">
        <ele>657</ele>
        <time>2017-06-10T16:39:10.008Z</time>
      </trkpt>
      <trkpt lat="42.97061" lon="0.73191">
        <ele>658</ele>
        <time>2017-06-10T16:39:16.008Z</time>
      </trkpt>
      <trkpt lat="42.97069" lon="0.73201">
        <ele>658</ele>
        <time>2017-06-10T16:39:20.008Z</time>
      </trkpt>
      <trkpt lat="42.97076" lon="0.73216">
        <ele>660</ele>
        <time>2017-06-10T16:39:25.008Z</time>
      </trkpt>
      <trkpt lat="42.97079" lon="0.73232">
        <ele>660</ele>
        <time>2017-06-10T16:39:29.008Z</time>
      </trkpt>
      <trkpt lat="42.97083" lon="0.73246">
        <ele>662</ele>
        <time>2017-06-10T16:39:33.008Z</time>
      </trkpt>
      <trkpt lat="42.97083" lon="0.73261">
        <ele>662</ele>
        <time>2017-06-10T16:39:38.008Z</time>
      </trkpt>
      <trkpt lat="42.97082" lon="0.73277">
        <ele>664</ele>
        <time>2017-06-10T16:39:42.008Z</time>
      </trkpt>
      <trkpt lat="42.97082" lon="0.73292">
        <ele>664</ele>
        <time>2017-06-10T16:39:46.008Z</time>
      </trkpt>
      <trkpt lat="42.97082" lon="0.73307">
        <ele>665</ele>
        <time>2017-06-10T16:39:53.008Z</time>
      </trkpt>
      <trkpt lat="42.97083" lon="0.73321">
        <ele>665</ele>
        <time>2017-06-10T16:39:59.008Z</time>
      </trkpt>
      <trkpt lat="42.97084" lon="0.73337">
        <ele>667</ele>
        <time>2017-06-10T16:40:04.008Z</time>
      </trkpt>
      <trkpt lat="42.97086" lon="0.73352">
        <ele>667</ele>
        <time>2017-06-10T16:40:08.008Z</time>
      </trkpt>
      <trkpt lat="42.97088" lon="0.73365">
        <ele>667</ele>
        <time>2017-06-10T16:40:12.008Z</time>
      </trkpt>
      <trkpt lat="42.9709" lon="0.73381">
        <ele>667</ele>
        <time>2017-06-10T16:40:17.008Z</time>
      </trkpt>
      <trkpt lat="42.97091" lon="0.73395">
        <ele>667.208</ele>
        <time>2017-06-10T16:40:21.008Z</time>
      </trkpt>
      <trkpt lat="42.97092" lon="0.7341">
        <ele>668</ele>
        <time>2017-06-10T16:40:25.008Z</time>
      </trkpt>
      <trkpt lat="42.97094" lon="0.73426">
        <ele>668</ele>
        <time>2017-06-10T16:40:29.008Z</time>
      </trkpt>
      <trkpt lat="42.9709" lon="0.73439">
        <ele>668</ele>
        <time>2017-06-10T16:40:33.008Z</time>
      </trkpt>
      <trkpt lat="42.97085" lon="0.73451">
        <ele>668</ele>
        <time>2017-06-10T16:40:37.008Z</time>
      </trkpt>
      <trkpt lat="42.97081" lon="0.73465">
        <ele>668</ele>
        <time>2017-06-10T16:40:40.008Z</time>
      </trkpt>
      <trkpt lat="42.97072" lon="0.73481">
        <ele>667</ele>
        <time>2017-06-10T16:40:43.008Z</time>
      </trkpt>
      <trkpt lat="42.97063" lon="0.73491">
        <ele>667</ele>
        <time>2017-06-10T16:40:45.008Z</time>
      </trkpt>
      <trkpt lat="42.97055" lon="0.73502">
        <ele>667</ele>
        <time>2017-06-10T16:40:48.008Z</time>
      </trkpt>
      <trkpt lat="42.97048" lon="0.73511">
        <ele>666.792</ele>
        <time>2017-06-10T16:40:51.008Z</time>
      </trkpt>
      <trkpt lat="42.9704" lon="0.73521">
        <ele>666</ele>
        <time>2017-06-10T16:40:54.008Z</time>
      </trkpt>
      <trkpt lat="42.97034" lon="0.73532">
        <ele>666</ele>
        <time>2017-06-10T16:40:58.008Z</time>
      </trkpt>
      <trkpt lat="42.9703" lon="0.73546">
        <ele>665</ele>
        <time>2017-06-10T16:41:02.008Z</time>
      </trkpt>
      <trkpt lat="42.97029" lon="0.7356">
        <ele>665</ele>
        <time>2017-06-10T16:41:06.008Z</time>
      </trkpt>
      <trkpt lat="42.97028" lon="0.73578">
        <ele>665</ele>
        <time>2017-06-10T16:41:11.008Z</time>
      </trkpt>
      <trkpt lat="42.97025" lon="0.73595">
        <ele>665</ele>
        <time>2017-06-10T16:41:15.008Z</time>
      </trkpt>
      <trkpt lat="42.97024" lon="0.7361">
        <ele>665</ele>
        <time>2017-06-10T16:41:19.008Z</time>
      </trkpt>
      <trkpt lat="42.97021" lon="0.73624">
        <ele>666</ele>
        <time>2017-06-10T16:41:23.008Z</time>
      </trkpt>
      <trkpt lat="42.97019" lon="0.73637">
        <ele>666</ele>
        <time>2017-06-10T16:41:27.008Z</time>
      </trkpt>
      <trkpt lat="42.97015" lon="0.73654">
        <ele>666</ele>
        <time>2017-06-10T16:41:31.008Z</time>
      </trkpt>
      <trkpt lat="42.97012" lon="0.73667">
        <ele>666</ele>
        <time>2017-06-10T16:41:35.008Z</time>
      </trkpt>
      <trkpt lat="42.9701" lon="0.73682">
        <ele>666.416</ele>
        <time>2017-06-10T16:41:41.008Z</time>
      </trkpt>
      <trkpt lat="42.97007" lon="0.73697">
        <ele>668</ele>
        <time>2017-06-10T16:41:46.008Z</time>
      </trkpt>
      <trkpt lat="42.97004" lon="0.73712">
        <ele>668.208</ele>
        <time>2017-06-10T16:41:51.008Z</time>
      </trkpt>
      <trkpt lat="42.97001" lon="0.73727">
        <ele>669</ele>
        <time>2017-06-10T16:41:57.008Z</time>
      </trkpt>
      <trkpt lat="42.96999" lon="0.73741">
        <ele>671</ele>
        <time>2017-06-10T16:42:03.008Z</time>
      </trkpt>
      <trkpt lat="42.96998" lon="0.73758">
        <ele>671</ele>
        <time>2017-06-10T16:42:09.008Z</time>
      </trkpt>
      <trkpt lat="42.96994" lon="0.73772">
        <ele>672</ele>
        <time>2017-06-10T16:42:14.008Z</time>
      </trkpt>
      <trkpt lat="42.9699" lon="0.73785">
        <ele>672</ele>
        <time>2017-06-10T16:42:20.008Z</time>
      </trkpt>
      <trkpt lat="42.96985" lon="0.73798">
        <ele>674</ele>
        <time>2017-06-10T16:42:27.008Z</time>
      </trkpt>
      <trkpt lat="42.96979" lon="0.73811">
        <ele>678</ele>
        <time>2017-06-10T16:42:33.008Z</time>
      </trkpt>
      <trkpt lat="42.96972" lon="0.73822">
        <ele>679</ele>
        <time>2017-06-10T16:42:39.008Z</time>
      </trkpt>
      <trkpt lat="42.96967" lon="0.73835">
        <ele>679</ele>
        <time>2017-06-10T16:42:50.008Z</time>
      </trkpt>
      <trkpt lat="42.96961" lon="0.73845">
        <ele>681</ele>
        <time>2017-06-10T16:43:06.008Z</time>
      </trkpt>
      <trkpt lat="42.96956" lon="0.73857">
        <ele>683</ele>
        <time>2017-06-10T16:43:14.008Z</time>
      </trkpt>
      <trkpt lat="42.96949" lon="0.73867">
        <ele>684</ele>
        <time>2017-06-10T16:43:26.008Z</time>
      </trkpt>
      <trkpt lat="42.96943" lon="0.73878">
        <ele>684</ele>
        <time>2017-06-10T16:43:36.008Z</time>
      </trkpt>
      <trkpt lat="42.96936" lon="0.73887">
        <ele>686</ele>
        <time>2017-06-10T16:43:44.008Z</time>
      </trkpt>
      <trkpt lat="42.96927" lon="0.73893">
        <ele>688</ele>
        <time>2017-06-10T16:43:54.008Z</time>
      </trkpt>
      <trkpt lat="42.9692" lon="0.739">
        <ele>690</ele>
        <time>2017-06-10T16:44:03.008Z</time>
      </trkpt>
      <trkpt lat="42.96912" lon="0.73908">
        <ele>691</ele>
        <time>2017-06-10T16:44:16.008Z</time>
      </trkpt>
      <trkpt lat="42.96906" lon="0.73918">
        <ele>692</ele>
        <time>2017-06-10T16:44:26.008Z</time>
      </trkpt>
      <trkpt lat="42.96899" lon="0.73926">
        <ele>694</ele>
        <time>2017-06-10T16:44:39.008Z</time>
      </trkpt>
      <trkpt lat="42.96891" lon="0.73935">
        <ele>695</ele>
        <time>2017-06-10T16:44:48.008Z</time>
      </trkpt>
      <trkpt lat="42.96883" lon="0.73939">
        <ele>697</ele>
        <time>2017-06-10T16:44:56.008Z</time>
      </trkpt>
      <trkpt lat="42.96876" lon="0.73943">
        <ele>699</ele>
        <time>2017-06-10T16:45:05.008Z</time>
      </trkpt>
      <trkpt lat="42.9687" lon="0.73951">
        <ele>700</ele>
        <time>2017-06-10T16:45:16.008Z</time>
      </trkpt>
      <trkpt lat="42.96861" lon="0.73957">
        <ele>701</ele>
        <time>2017-06-10T16:45:25.008Z</time>
      </trkpt>
      <trkpt lat="42.96854" lon="0.7396">
        <ele>702</ele>
        <time>2017-06-10T16:45:33.008Z</time>
      </trkpt>
      <trkpt lat="42.96851" lon="0.73967">
        <ele>702.208</ele>
        <time>2017-06-10T16:47:51.008Z</time>
      </trkpt>
      <trkpt lat="42.96842" lon="0.73969">
        <ele>704</ele>
        <time>2017-06-10T16:48:08.008Z</time>
      </trkpt>
      <trkpt lat="42.96833" lon="0.73971">
        <ele>705</ele>
        <time>2017-06-10T16:48:14.008Z</time>
      </trkpt>
      <trkpt lat="42.96823" lon="0.73972">
        <ele>705.208</ele>
        <time>2017-06-10T16:48:21.008Z</time>
      </trkpt>
      <trkpt lat="42.96812" lon="0.73972">
        <ele>706</ele>
        <time>2017-06-10T16:48:28.008Z</time>
      </trkpt>
      <trkpt lat="42.96803" lon="0.73972">
        <ele>709</ele>
        <time>2017-06-10T16:48:34.008Z</time>
      </trkpt>
      <trkpt lat="42.96791" lon="0.73971">
        <ele>713</ele>
        <time>2017-06-10T16:48:42.008Z</time>
      </trkpt>
      <trkpt lat="42.96782" lon="0.73967">
        <ele>714</ele>
        <time>2017-06-10T16:48:48.008Z</time>
      </trkpt>
      <trkpt lat="42.96772" lon="0.73967">
        <ele>714</ele>
        <time>2017-06-10T16:48:59.008Z</time>
      </trkpt>
      <trkpt lat="42.96761" lon="0.73965">
        <ele>716</ele>
        <time>2017-06-10T16:49:22.008Z</time>
      </trkpt>
      <trkpt lat="42.96749" lon="0.73964">
        <ele>719</ele>
        <time>2017-06-10T16:49:28.008Z</time>
      </trkpt>
      <trkpt lat="42.96738" lon="0.73962">
        <ele>720</ele>
        <time>2017-06-10T16:49:35.008Z</time>
      </trkpt>
      <trkpt lat="42.96727" lon="0.73961">
        <ele>722</ele>
        <time>2017-06-10T16:49:42.008Z</time>
      </trkpt>
      <trkpt lat="42.96716" lon="0.73958">
        <ele>722</ele>
        <time>2017-06-10T16:49:49.008Z</time>
      </trkpt>
      <trkpt lat="42.96705" lon="0.73956">
        <ele>724</ele>
        <time>2017-06-10T16:49:55.008Z</time>
      </trkpt>
      <trkpt lat="42.96695" lon="0.73952">
        <ele>726.208</ele>
        <time>2017-06-10T16:50:01.008Z</time>
      </trkpt>
      <trkpt lat="42.96686" lon="0.73946">
        <ele>729</ele>
        <time>2017-06-10T16:50:07.008Z</time>
      </trkpt>
      <trkpt lat="42.96676" lon="0.73941">
        <ele>730</ele>
        <time>2017-06-10T16:50:14.008Z</time>
      </trkpt>
      <trkpt lat="42.96666" lon="0.73936">
        <ele>732.208</ele>
        <time>2017-06-10T16:50:21.008Z</time>
      </trkpt>
      <trkpt lat="42.96656" lon="0.73935">
        <ele>735</ele>
        <time>2017-06-10T16:50:28.008Z</time>
      </trkpt>
      <trkpt lat="42.96646" lon="0.7393">
        <ele>737</ele>
        <time>2017-06-10T16:50:35.008Z</time>
      </trkpt>
      <trkpt lat="42.96636" lon="0.73928">
        <ele>739</ele>
        <time>2017-06-10T16:50:41.008Z</time>
      </trkpt>
      <trkpt lat="42.96625" lon="0.73927">
        <ele>741</ele>
        <time>2017-06-10T16:50:48.008Z</time>
      </trkpt>
      <trkpt lat="42.96615" lon="0.73924">
        <ele>743</ele>
        <time>2017-06-10T16:50:54.008Z</time>
      </trkpt>
      <trkpt lat="42.96605" lon="0.73919">
        <ele>744.416</ele>
        <time>2017-06-10T16:51:01.008Z</time>
      </trkpt>
      <trkpt lat="42.96595" lon="0.73916">
        <ele>746</ele>
        <time>2017-06-10T16:51:09.008Z</time>
      </trkpt>
      <trkpt lat="42.96585" lon="0.73913">
        <ele>747</ele>
        <time>2017-06-10T16:51:16.008Z</time>
      </trkpt>
      <trkpt lat="42.96575" lon="0.7391">
        <ele>750</ele>
        <time>2017-06-10T16:51:22.008Z</time>
      </trkpt>
      <trkpt lat="42.96565" lon="0.73905">
        <ele>753</ele>
        <time>2017-06-10T16:51:28.008Z</time>
      </trkpt>
      <trkpt lat="42.96555" lon="0.739">
        <ele>754</ele>
        <time>2017-06-10T16:51:35.008Z</time>
      </trkpt>
      <trkpt lat="42.96545" lon="0.73897">
        <ele>754.208</ele>
        <time>2017-06-10T16:51:41.008Z</time>
      </trkpt>
      <trkpt lat="42.96535" lon="0.73895">
        <ele>755</ele>
        <time>2017-06-10T16:51:47.008Z</time>
      </trkpt>
      <trkpt lat="42.96525" lon="0.73891">
        <ele>757</ele>
        <time>2017-06-10T16:51:53.008Z</time>
      </trkpt>
      <trkpt lat="42.96515" lon="0.73888">
        <ele>757</ele>
        <time>2017-06-10T16:51:59.008Z</time>
      </trkpt>
      <trkpt lat="42.96504" lon="0.73886">
        <ele>760</ele>
        <time>2017-06-10T16:52:05.008Z</time>
      </trkpt>
      <trkpt lat="42.96492" lon="0.73884">
        <ele>760</ele>
        <time>2017-06-10T16:52:11.008Z</time>
      </trkpt>
      <trkpt lat="42.96483" lon="0.73881">
        <ele>760</ele>
        <time>2017-06-10T16:52:16.008Z</time>
      </trkpt>
      <trkpt lat="42.96474" lon="0.73877">
        <ele>763</ele>
        <time>2017-06-10T16:52:23.008Z</time>
      </trkpt>
      <trkpt lat="42.96465" lon="0.73872">
        <ele>765</ele>
        <time>2017-06-10T16:52:28.008Z</time>
      </trkpt>
      <trkpt lat="42.96458" lon="0.73866">
        <ele>765</ele>
        <time>2017-06-10T16:52:32.008Z</time>
      </trkpt>
      <trkpt lat="42.96447" lon="0.7386">
        <ele>765</ele>
        <time>2017-06-10T16:52:38.008Z</time>
      </trkpt>
      <trkpt lat="42.96439" lon="0.73854">
        <ele>764</ele>
        <time>2017-06-10T16:52:42.008Z</time>
      </trkpt>
      <trkpt lat="42.96431" lon="0.73847">
        <ele>764</ele>
        <time>2017-06-10T16:52:47.008Z</time>
      </trkpt>
      <trkpt lat="42.9642" lon="0.73842">
        <ele>766</ele>
        <time>2017-06-10T16:52:53.008Z</time>
      </trkpt>
      <trkpt lat="42.9641" lon="0.73839">
        <ele>766</ele>
        <time>2017-06-10T16:52:59.008Z</time>
      </trkpt>
      <trkpt lat="42.964" lon="0.73834">
        <ele>767</ele>
        <time>2017-06-10T16:53:05.008Z</time>
      </trkpt>
      <trkpt lat="42.96392" lon="0.73827">
        <ele>767</ele>
        <time>2017-06-10T16:53:10.008Z</time>
      </trkpt>
      <trkpt lat="42.96382" lon="0.73822">
        <ele>768</ele>
        <time>2017-06-10T16:53:16.008Z</time>
      </trkpt>
      <trkpt lat="42.96373" lon="0.73813">
        <ele>770</ele>
        <time>2017-06-10T16:53:22.008Z</time>
      </trkpt>
      <trkpt lat="42.96363" lon="0.73808">
        <ele>770</ele>
        <time>2017-06-10T16:53:27.008Z</time>
      </trkpt>
      <trkpt lat="42.96352" lon="0.73801">
        <ele>771</ele>
        <time>2017-06-10T16:53:33.008Z</time>
      </trkpt>
      <trkpt lat="42.96343" lon="0.73796">
        <ele>771</ele>
        <time>2017-06-10T16:53:38.008Z</time>
      </trkpt>
      <trkpt lat="42.96334" lon="0.73789">
        <ele>773</ele>
        <time>2017-06-10T16:53:43.008Z</time>
      </trkpt>
      <trkpt lat="42.96324" lon="0.7378">
        <ele>772</ele>
        <time>2017-06-10T16:53:49.008Z</time>
      </trkpt>
      <trkpt lat="42.96314" lon="0.73774">
        <ele>773</ele>
        <time>2017-06-10T16:53:56.008Z</time>
      </trkpt>
      <trkpt lat="42.96306" lon="0.73767">
        <ele>774</ele>
        <time>2017-06-10T16:54:02.008Z</time>
      </trkpt>
      <trkpt lat="42.96296" lon="0.7376">
        <ele>774</ele>
        <time>2017-06-10T16:54:08.008Z</time>
      </trkpt>
      <trkpt lat="42.96285" lon="0.73753">
        <ele>775</ele>
        <time>2017-06-10T16:54:13.008Z</time>
      </trkpt>
      <trkpt lat="42.96275" lon="0.73749">
        <ele>775</ele>
        <time>2017-06-10T16:54:17.008Z</time>
      </trkpt>
      <trkpt lat="42.96265" lon="0.73744">
        <ele>775</ele>
        <time>2017-06-10T16:54:22.008Z</time>
      </trkpt>
      <trkpt lat="42.96256" lon="0.73738">
        <ele>775</ele>
        <time>2017-06-10T16:54:28.008Z</time>
      </trkpt>
      <trkpt lat="42.96246" lon="0.73732">
        <ele>776</ele>
        <time>2017-06-10T16:54:34.008Z</time>
      </trkpt>
      <trkpt lat="42.96235" lon="0.73727">
        <ele>776</ele>
        <time>2017-06-10T16:54:39.008Z</time>
      </trkpt>
      <trkpt lat="42.96224" lon="0.73721">
        <ele>777</ele>
        <time>2017-06-10T16:54:44.008Z</time>
      </trkpt>
      <trkpt lat="42.96214" lon="0.73716">
        <ele>777</ele>
        <time>2017-06-10T16:54:49.008Z</time>
      </trkpt>
      <trkpt lat="42.96204" lon="0.73706">
        <ele>777</ele>
        <time>2017-06-10T16:54:54.008Z</time>
      </trkpt>
      <trkpt lat="42.96195" lon="0.73697">
        <ele>777</ele>
        <time>2017-06-10T16:54:58.008Z</time>
      </trkpt>
      <trkpt lat="42.96184" lon="0.73688">
        <ele>779</ele>
        <time>2017-06-10T16:55:03.008Z</time>
      </trkpt>
      <trkpt lat="42.96176" lon="0.73679">
        <ele>779</ele>
        <time>2017-06-10T16:55:07.008Z</time>
      </trkpt>
      <trkpt lat="42.96166" lon="0.73672">
        <ele>779</ele>
        <time>2017-06-10T16:55:11.008Z</time>
      </trkpt>
      <trkpt lat="42.96159" lon="0.73662">
        <ele>779</ele>
        <time>2017-06-10T16:55:15.008Z</time>
      </trkpt>
      <trkpt lat="42.96149" lon="0.73654">
        <ele>779</ele>
        <time>2017-06-10T16:55:21.008Z</time>
      </trkpt>
      <trkpt lat="42.96138" lon="0.73647">
        <ele>779</ele>
        <time>2017-06-10T16:55:28.008Z</time>
      </trkpt>
      <trkpt lat="42.96128" lon="0.73641">
        <ele>780</ele>
        <time>2017-06-10T16:55:34.008Z</time>
      </trkpt>
      <trkpt lat="42.96117" lon="0.73633">
        <ele>780</ele>
        <time>2017-06-10T16:55:39.008Z</time>
      </trkpt>
      <trkpt lat="42.96106" lon="0.73624">
        <ele>781</ele>
        <time>2017-06-10T16:55:43.008Z</time>
      </trkpt>
      <trkpt lat="42.96095" lon="0.73618">
        <ele>781</ele>
        <time>2017-06-10T16:55:47.008Z</time>
      </trkpt>
      <trkpt lat="42.96086" lon="0.73611">
        <ele>781.208</ele>
        <time>2017-06-10T16:55:51.008Z</time>
      </trkpt>
      <trkpt lat="42.96076" lon="0.73604">
        <ele>782</ele>
        <time>2017-06-10T16:55:56.008Z</time>
      </trkpt>
      <trkpt lat="42.96065" lon="0.73598">
        <ele>782</ele>
        <time>2017-06-10T16:56:00.008Z</time>
      </trkpt>
      <trkpt lat="42.96056" lon="0.73597">
        <ele>782</ele>
        <time>2017-06-10T16:56:14.008Z</time>
      </trkpt>
      <trkpt lat="42.96045" lon="0.73598">
        <ele>786</ele>
        <time>2017-06-10T16:56:33.008Z</time>
      </trkpt>
      <trkpt lat="42.96035" lon="0.73595">
        <ele>787</ele>
        <time>2017-06-10T16:56:54.008Z</time>
      </trkpt>
      <trkpt lat="42.96028" lon="0.73584">
        <ele>785</ele>
        <time>2017-06-10T16:57:39.008Z</time>
      </trkpt>
      <trkpt lat="42.96024" lon="0.73572">
        <ele>784</ele>
        <time>2017-06-10T16:57:42.008Z</time>
      </trkpt>
      <trkpt lat="42.9602" lon="0.73558">
        <ele>784</ele>
        <time>2017-06-10T16:57:45.008Z</time>
      </trkpt>
      <trkpt lat="42.96016" lon="0.73542">
        <ele>784</ele>
        <time>2017-06-10T16:57:49.008Z</time>
      </trkpt>
      <trkpt lat="42.96009" lon="0.73531">
        <ele>784</ele>
        <time>2017-06-10T16:57:55.008Z</time>
      </trkpt>
      <trkpt lat="42.96002" lon="0.73518">
        <ele>784</ele>
        <time>2017-06-10T16:58:01.008Z</time>
      </trkpt>
      <trkpt lat="42.96002" lon="0.73503">
        <ele>785</ele>
        <time>2017-06-10T16:58:04.008Z</time>
      </trkpt>
      <trkpt lat="42.95998" lon="0.73488">
        <ele>785</ele>
        <time>2017-06-10T16:58:08.008Z</time>
      </trkpt>
      <trkpt lat="42.95988" lon="0.73482">
        <ele>784</ele>
        <time>2017-06-10T16:58:14.008Z</time>
      </trkpt>
      <trkpt lat="42.95978" lon="0.73475">
        <ele>784</ele>
        <time>2017-06-10T16:58:20.008Z</time>
      </trkpt>
      <trkpt lat="42.95968" lon="0.73466">
        <ele>784</ele>
        <time>2017-06-10T16:58:25.008Z</time>
      </trkpt>
      <trkpt lat="42.95958" lon="0.73472">
        <ele>784</ele>
        <time>2017-06-10T16:58:31.008Z</time>
      </trkpt>
      <trkpt lat="42.95948" lon="0.73474">
        <ele>784</ele>
        <time>2017-06-10T16:58:37.008Z</time>
      </trkpt>
      <trkpt lat="42.95937" lon="0.73467">
        <ele>784</ele>
        <time>2017-06-10T16:58:42.008Z</time>
      </trkpt>
      <trkpt lat="42.95928" lon="0.73458">
        <ele>784</ele>
        <time>2017-06-10T16:58:46.008Z</time>
      </trkpt>
      <trkpt lat="42.95919" lon="0.7345">
        <ele>784</ele>
        <time>2017-06-10T16:58:50.008Z</time>
      </trkpt>
      <trkpt lat="42.95909" lon="0.73443">
        <ele>784</ele>
        <time>2017-06-10T16:58:54.008Z</time>
      </trkpt>
      <trkpt lat="42.95898" lon="0.73436">
        <ele>784</ele>
        <time>2017-06-10T16:58:59.008Z</time>
      </trkpt>
      <trkpt lat="42.95892" lon="0.73423">
        <ele>784</ele>
        <time>2017-06-10T16:59:03.008Z</time>
      </trkpt>
      <trkpt lat="42.95886" lon="0.73408">
        <ele>784</ele>
        <time>2017-06-10T16:59:08.008Z</time>
      </trkpt>
      <trkpt lat="42.95885" lon="0.73392">
        <ele>784</ele>
        <time>2017-06-10T16:59:11.008Z</time>
      </trkpt>
      <trkpt lat="42.95885" lon="0.73375">
        <ele>784</ele>
        <time>2017-06-10T16:59:15.008Z</time>
      </trkpt>
      <trkpt lat="42.95885" lon="0.73359">
        <ele>784</ele>
        <time>2017-06-10T16:59:19.008Z</time>
      </trkpt>
      <trkpt lat="42.95886" lon="0.73344">
        <ele>784</ele>
        <time>2017-06-10T16:59:23.008Z</time>
      </trkpt>
      <trkpt lat="42.95888" lon="0.73327">
        <ele>784</ele>
        <time>2017-06-10T16:59:29.008Z</time>
      </trkpt>
      <trkpt lat="42.95884" lon="0.73314">
        <ele>786</ele>
        <time>2017-06-10T16:59:34.008Z</time>
      </trkpt>
      <trkpt lat="42.9588" lon="0.73302">
        <ele>787</ele>
        <time>2017-06-10T16:59:42.008Z</time>
      </trkpt>
      <trkpt lat="42.95873" lon="0.73291">
        <ele>787</ele>
        <time>2017-06-10T16:59:48.008Z</time>
      </trkpt>
      <trkpt lat="42.95867" lon="0.73281">
        <ele>788</ele>
        <time>2017-06-10T16:59:53.008Z</time>
      </trkpt>
      <trkpt lat="42.95858" lon="0.73273">
        <ele>788.208</ele>
        <time>2017-06-10T17:00:01.008Z</time>
      </trkpt>
      <trkpt lat="42.95847" lon="0.73277">
        <ele>789</ele>
        <time>2017-06-10T17:00:08.008Z</time>
      </trkpt>
      <trkpt lat="42.95843" lon="0.7329">
        <ele>791</ele>
        <time>2017-06-10T17:00:22.008Z</time>
      </trkpt>
      <trkpt lat="42.95832" lon="0.73296">
        <ele>791</ele>
        <time>2017-06-10T17:00:27.008Z</time>
      </trkpt>
      <trkpt lat="42.95819" lon="0.73295">
        <ele>791.208</ele>
        <time>2017-06-10T17:00:31.008Z</time>
      </trkpt>
      <trkpt lat="42.95808" lon="0.73294">
        <ele>792</ele>
        <time>2017-06-10T17:00:35.008Z</time>
      </trkpt>
      <trkpt lat="42.95798" lon="0.73292">
        <ele>792</ele>
        <time>2017-06-10T17:00:39.008Z</time>
      </trkpt>
      <trkpt lat="42.95787" lon="0.73293">
        <ele>793</ele>
        <time>2017-06-10T17:00:45.008Z</time>
      </trkpt>
      <trkpt lat="42.95781" lon="0.73304">
        <ele>793</ele>
        <time>2017-06-10T17:00:49.008Z</time>
      </trkpt>
      <trkpt lat="42.95773" lon="0.73313">
        <ele>794</ele>
        <time>2017-06-10T17:00:54.008Z</time>
      </trkpt>
      <trkpt lat="42.95763" lon="0.73318">
        <ele>794</ele>
        <time>2017-06-10T17:01:00.008Z</time>
      </trkpt>
      <trkpt lat="42.95753" lon="0.73313">
        <ele>795</ele>
        <time>2017-06-10T17:01:05.008Z</time>
      </trkpt>
      <trkpt lat="42.95744" lon="0.73301">
        <ele>795</ele>
        <time>2017-06-10T17:01:09.008Z</time>
      </trkpt>
      <trkpt lat="42.95736" lon="0.73291">
        <ele>794</ele>
        <time>2017-06-10T17:01:13.008Z</time>
      </trkpt>
      <trkpt lat="42.95725" lon="0.73282">
        <ele>794</ele>
        <time>2017-06-10T17:01:18.008Z</time>
      </trkpt>
      <trkpt lat="42.95714" lon="0.73277">
        <ele>794</ele>
        <time>2017-06-10T17:01:22.008Z</time>
      </trkpt>
      <trkpt lat="42.95703" lon="0.73276">
        <ele>794</ele>
        <time>2017-06-10T17:01:26.008Z</time>
      </trkpt>
      <trkpt lat="42.95692" lon="0.73277">
        <ele>794.208</ele>
        <time>2017-06-10T17:01:31.008Z</time>
      </trkpt>
      <trkpt lat="42.95682" lon="0.73281">
        <ele>795</ele>
        <time>2017-06-10T17:01:35.008Z</time>
      </trkpt>
      <trkpt lat="42.95671" lon="0.73283">
        <ele>795</ele>
        <time>2017-06-10T17:01:39.008Z</time>
      </trkpt>
      <trkpt lat="42.95661" lon="0.73282">
        <ele>794</ele>
        <time>2017-06-10T17:01:43.008Z</time>
      </trkpt>
      <trkpt lat="42.95653" lon="0.73273">
        <ele>794</ele>
        <time>2017-06-10T17:01:48.008Z</time>
      </trkpt>
      <trkpt lat="42.95649" lon="0.73257">
        <ele>795</ele>
        <time>2017-06-10T17:01:53.008Z</time>
      </trkpt>
      <trkpt lat="42.95645" lon="0.73244">
        <ele>795</ele>
        <time>2017-06-10T17:01:56.008Z</time>
      </trkpt>
      <trkpt lat="42.95637" lon="0.7323">
        <ele>795</ele>
        <time>2017-06-10T17:02:00.008Z</time>
      </trkpt>
      <trkpt lat="42.95629" lon="0.73217">
        <ele>793</ele>
        <time>2017-06-10T17:02:04.008Z</time>
      </trkpt>
      <trkpt lat="42.9562" lon="0.73206">
        <ele>793</ele>
        <time>2017-06-10T17:02:08.008Z</time>
      </trkpt>
      <trkpt lat="42.95609" lon="0.73199">
        <ele>793</ele>
        <time>2017-06-10T17:02:12.008Z</time>
      </trkpt>
      <trkpt lat="42.95597" lon="0.73194">
        <ele>793</ele>
        <time>2017-06-10T17:02:16.008Z</time>
      </trkpt>
      <trkpt lat="42.95587" lon="0.73196">
        <ele>793.208</ele>
        <time>2017-06-10T17:02:21.008Z</time>
      </trkpt>
      <trkpt lat="42.9558" lon="0.73205">
        <ele>794</ele>
        <time>2017-06-10T17:02:27.008Z</time>
      </trkpt>
      <trkpt lat="42.95571" lon="0.73215">
        <ele>794.416</ele>
        <time>2017-06-10T17:02:31.008Z</time>
      </trkpt>
      <trkpt lat="42.95563" lon="0.73226">
        <ele>796</ele>
        <time>2017-06-10T17:02:34.008Z</time>
      </trkpt>
      <trkpt lat="42.95554" lon="0.73235">
        <ele>796</ele>
        <time>2017-06-10T17:02:39.008Z</time>
      </trkpt>
      <trkpt lat="42.95543" lon="0.73243">
        <ele>795</ele>
        <time>2017-06-10T17:02:42.008Z</time>
      </trkpt>
      <trkpt lat="42.95533" lon="0.73247">
        <ele>795</ele>
        <time>2017-06-10T17:02:45.008Z</time>
      </trkpt>
      <trkpt lat="42.95523" lon="0.73243">
        <ele>795</ele>
        <time>2017-06-10T17:02:49.008Z</time>
      </trkpt>
      <trkpt lat="42.95515" lon="0.73234">
        <ele>794</ele>
        <time>2017-06-10T17:02:53.008Z</time>
      </trkpt>
      <trkpt lat="42.95506" lon="0.73224">
        <ele>794</ele>
        <time>2017-06-10T17:02:57.008Z</time>
      </trkpt>
      <trkpt lat="42.95498" lon="0.73214">
        <ele>794</ele>
        <time>2017-06-10T17:03:00.008Z</time>
      </trkpt>
      <trkpt lat="42.95492" lon="0.732">
        <ele>795</ele>
        <time>2017-06-10T17:03:03.008Z</time>
      </trkpt>
      <trkpt lat="42.95486" lon="0.73189">
        <ele>795</ele>
        <time>2017-06-10T17:03:06.008Z</time>
      </trkpt>
      <trkpt lat="42.95477" lon="0.73176">
        <ele>795</ele>
        <time>2017-06-10T17:03:10.008Z</time>
      </trkpt>
      <trkpt lat="42.95468" lon="0.73165">
        <ele>796</ele>
        <time>2017-06-10T17:03:14.008Z</time>
      </trkpt>
      <trkpt lat="42.95459" lon="0.73157">
        <ele>796</ele>
        <time>2017-06-10T17:03:19.008Z</time>
      </trkpt>
      <trkpt lat="42.95449" lon="0.73165">
        <ele>796</ele>
        <time>2017-06-10T17:03:23.008Z</time>
      </trkpt>
      <trkpt lat="42.95442" lon="0.73175">
        <ele>796</ele>
        <time>2017-06-10T17:03:29.008Z</time>
      </trkpt>
      <trkpt lat="42.95431" lon="0.73184">
        <ele>794.416</ele>
        <time>2017-06-10T17:03:51.008Z</time>
      </trkpt>
      <trkpt lat="42.95423" lon="0.73192">
        <ele>796</ele>
        <time>2017-06-10T17:04:00.008Z</time>
      </trkpt>
      <trkpt lat="42.95413" lon="0.73201">
        <ele>795</ele>
        <time>2017-06-10T17:04:09.008Z</time>
      </trkpt>
      <trkpt lat="42.95405" lon="0.73211">
        <ele>796</ele>
        <time>2017-06-10T17:04:15.008Z</time>
      </trkpt>
      <trkpt lat="42.954" lon="0.73223">
        <ele>796.208</ele>
        <time>2017-06-10T17:04:21.008Z</time>
      </trkpt>
      <trkpt lat="42.95392" lon="0.73232">
        <ele>797</ele>
        <time>2017-06-10T17:04:27.008Z</time>
      </trkpt>
      <trkpt lat="42.95382" lon="0.73237">
        <ele>798</ele>
        <time>2017-06-10T17:04:34.008Z</time>
      </trkpt>
      <trkpt lat="42.95376" lon="0.73248">
        <ele>790.584</ele>
        <time>2017-06-10T17:04:52.008Z</time>
      </trkpt>
      <trkpt lat="42.95371" lon="0.73263">
        <ele>791</ele>
        <time>2017-06-10T17:05:04.008Z</time>
      </trkpt>
      <trkpt lat="42.95363" lon="0.73274">
        <ele>791</ele>
        <time>2017-06-10T17:05:08.008Z</time>
      </trkpt>
      <trkpt lat="42.95351" lon="0.73276">
        <ele>793</ele>
        <time>2017-06-10T17:05:14.008Z</time>
      </trkpt>
      <trkpt lat="42.95341" lon="0.73274">
        <ele>793</ele>
        <time>2017-06-10T17:05:18.008Z</time>
      </trkpt>
      <trkpt lat="42.95329" lon="0.73274">
        <ele>795</ele>
        <time>2017-06-10T17:05:23.008Z</time>
      </trkpt>
      <trkpt lat="42.95319" lon="0.7327">
        <ele>795</ele>
        <time>2017-06-10T17:05:28.008Z</time>
      </trkpt>
      <trkpt lat="42.95309" lon="0.73272">
        <ele>795</ele>
        <time>2017-06-10T17:05:32.008Z</time>
      </trkpt>
      <trkpt lat="42.95298" lon="0.73273">
        <ele>795</ele>
        <time>2017-06-10T17:05:36.008Z</time>
      </trkpt>
      <trkpt lat="42.95288" lon="0.73276">
        <ele>795</ele>
        <time>2017-06-10T17:05:41.008Z</time>
      </trkpt>
      <trkpt lat="42.95277" lon="0.73275">
        <ele>795</ele>
        <time>2017-06-10T17:05:45.008Z</time>
      </trkpt>
      <trkpt lat="42.95265" lon="0.73277">
        <ele>795</ele>
        <time>2017-06-10T17:05:49.008Z</time>
      </trkpt>
      <trkpt lat="42.95254" lon="0.73278">
        <ele>795</ele>
        <time>2017-06-10T17:05:53.008Z</time>
      </trkpt>
      <trkpt lat="42.95244" lon="0.73279">
        <ele>795</ele>
        <time>2017-06-10T17:05:57.008Z</time>
      </trkpt>
      <trkpt lat="42.95233" lon="0.73281">
        <ele>795.832</ele>
        <time>2017-06-10T17:06:01.008Z</time>
      </trkpt>
      <trkpt lat="42.95223" lon="0.73283">
        <ele>799</ele>
        <time>2017-06-10T17:06:06.008Z</time>
      </trkpt>
      <trkpt lat="42.95212" lon="0.73287">
        <ele>799.208</ele>
        <time>2017-06-10T17:06:11.008Z</time>
      </trkpt>
      <trkpt lat="42.95202" lon="0.73292">
        <ele>799</ele>
        <time>2017-06-10T17:06:16.008Z</time>
      </trkpt>
      <trkpt lat="42.95191" lon="0.73297">
        <ele>799</ele>
        <time>2017-06-10T17:06:21.008Z</time>
      </trkpt>
      <trkpt lat="42.95181" lon="0.733">
        <ele>799</ele>
        <time>2017-06-10T17:06:25.008Z</time>
      </trkpt>
      <trkpt lat="42.9517" lon="0.73306">
        <ele>799</ele>
        <time>2017-06-10T17:06:29.008Z</time>
      </trkpt>
      <trkpt lat="42.95161" lon="0.73312">
        <ele>799</ele>
        <time>2017-06-10T17:06:34.008Z</time>
      </trkpt>
      <trkpt lat="42.95151" lon="0.73318">
        <ele>799</ele>
        <time>2017-06-10T17:06:39.008Z</time>
      </trkpt>
      <trkpt lat="42.95141" lon="0.73324">
        <ele>800</ele>
        <time>2017-06-10T17:06:44.008Z</time>
      </trkpt>
      <trkpt lat="42.95132" lon="0.73332">
        <ele>800</ele>
        <time>2017-06-10T17:06:49.008Z</time>
      </trkpt>
      <trkpt lat="42.95122" lon="0.73339">
        <ele>800</ele>
        <time>2017-06-10T17:06:53.008Z</time>
      </trkpt>
      <trkpt lat="42.95112" lon="0.73347">
        <ele>800</ele>
        <time>2017-06-10T17:06:57.008Z</time>
      </trkpt>
      <trkpt lat="42.95103" lon="0.73354">
        <ele>799.584</ele>
        <time>2017-06-10T17:07:01.008Z</time>
      </trkpt>
      <trkpt lat="42.95093" lon="0.7336">
        <ele>798</ele>
        <time>2017-06-10T17:07:05.008Z</time>
      </trkpt>
      <trkpt lat="42.95081" lon="0.73365">
        <ele>798</ele>
        <time>2017-06-10T17:07:10.008Z</time>
      </trkpt>
      <trkpt lat="42.9507" lon="0.73369">
        <ele>798</ele>
        <time>2017-06-10T17:07:15.008Z</time>
      </trkpt>
      <trkpt lat="42.9506" lon="0.73373">
        <ele>798</ele>
        <time>2017-06-10T17:07:19.008Z</time>
      </trkpt>
      <trkpt lat="42.95048" lon="0.73373">
        <ele>775</ele>
        <time>2017-06-10T17:07:24.008Z</time>
      </trkpt>
      <trkpt lat="42.95037" lon="0.73372">
        <ele>776</ele>
        <time>2017-06-10T17:07:29.008Z</time>
      </trkpt>
      <trkpt lat="42.95027" lon="0.73373">
        <ele>776.208</ele>
        <time>2017-06-10T17:07:35.008Z</time>
      </trkpt>
      <trkpt lat="42.95018" lon="0.73376">
        <ele>777.792</ele>
        <time>2017-06-10T17:07:39.008Z</time>
      </trkpt>
      <trkpt lat="42.95009" lon="0.73379">
        <ele>778</ele>
        <time>2017-06-10T17:07:43.008Z</time>
      </trkpt>
      <trkpt lat="42.95" lon="0.73378">
        <ele>778</ele>
        <time>2017-06-10T17:07:47.008Z</time>
      </trkpt>
      <trkpt lat="42.94991" lon="0.73376">
        <ele>778.208</ele>
        <time>2017-06-10T17:07:51.008Z</time>
      </trkpt>
      <trkpt lat="42.94981" lon="0.73372">
        <ele>779</ele>
        <time>2017-06-10T17:07:56.008Z</time>
      </trkpt>
      <trkpt lat="42.94972" lon="0.73366">
        <ele>780</ele>
        <time>2017-06-10T17:08:03.008Z</time>
      </trkpt>
      <trkpt lat="42.94962" lon="0.73363">
        <ele>780</ele>
        <time>2017-06-10T17:08:10.008Z</time>
      </trkpt>
      <trkpt lat="42.94951" lon="0.73359">
        <ele>780</ele>
        <time>2017-06-10T17:08:15.008Z</time>
      </trkpt>
      <trkpt lat="42.94939" lon="0.7336">
        <ele>782</ele>
        <time>2017-06-10T17:08:22.008Z</time>
      </trkpt>
      <trkpt lat="42.94929" lon="0.7336">
        <ele>782</ele>
        <time>2017-06-10T17:08:29.008Z</time>
      </trkpt>
      <trkpt lat="42.94918" lon="0.73364">
        <ele>783</ele>
        <time>2017-06-10T17:08:35.008Z</time>
      </trkpt>
      <trkpt lat="42.94907" lon="0.73367">
        <ele>783</ele>
        <time>2017-06-10T17:08:40.008Z</time>
      </trkpt>
      <trkpt lat="42.94896" lon="0.73358">
        <ele>784</ele>
        <time>2017-06-10T17:08:45.008Z</time>
      </trkpt>
      <trkpt lat="42.94889" lon="0.73346">
        <ele>784</ele>
        <time>2017-06-10T17:08:50.008Z</time>
      </trkpt>
      <trkpt lat="42.94877" lon="0.73344">
        <ele>785</ele>
        <time>2017-06-10T17:08:55.008Z</time>
      </trkpt>
      <trkpt lat="42.94866" lon="0.73337">
        <ele>785.208</ele>
        <time>2017-06-10T17:09:01.008Z</time>
      </trkpt>
      <trkpt lat="42.9486" lon="0.73341">
        <ele>786</ele>
        <time>2017-06-10T17:09:22.008Z</time>
      </trkpt>
      <trkpt lat="42.94868" lon="0.7333">
        <ele>786</ele>
        <time>2017-06-10T17:09:50.008Z</time>
      </trkpt>
      <trkpt lat="42.94874" lon="0.73318">
        <ele>787</ele>
        <time>2017-06-10T17:09:56.008Z</time>
      </trkpt>
      <trkpt lat="42.94884" lon="0.73314">
        <ele>789</ele>
        <time>2017-06-10T17:10:03.008Z</time>
      </trkpt>
      <trkpt lat="42.94894" lon="0.73316">
        <ele>791</ele>
        <time>2017-06-10T17:10:09.008Z</time>
      </trkpt>
      <trkpt lat="42.94906" lon="0.73315">
        <ele>792.416</ele>
        <time>2017-06-10T17:10:16.008Z</time>
      </trkpt>
      <trkpt lat="42.94912" lon="0.7331">
        <ele>794</ele>
        <time>2017-06-10T17:10:20.008Z</time>
      </trkpt>
      <trkpt lat="42.9492" lon="0.73302">
        <ele>795.416</ele>
        <time>2017-06-10T17:10:26.008Z</time>
      </trkpt>
      <trkpt lat="42.94928" lon="0.73291">
        <ele>798</ele>
        <time>2017-06-10T17:10:33.008Z</time>
      </trkpt>
      <trkpt lat="42.94938" lon="0.73285">
        <ele>798</ele>
        <time>2017-06-10T17:10:39.008Z</time>
      </trkpt>
      <trkpt lat="42.94947" lon="0.73283">
        <ele>800</ele>
        <time>2017-06-10T17:10:45.008Z</time>
      </trkpt>
      <trkpt lat="42.94942" lon="0.73269">
        <ele>802</ele>
        <time>2017-06-10T17:10:56.008Z</time>
      </trkpt>
      <trkpt lat="42.94933" lon="0.73262">
        <ele>804</ele>
        <time>2017-06-10T17:11:02.008Z</time>
      </trkpt>
      <trkpt lat="42.94922" lon="0.7326">
        <ele>804</ele>
        <time>2017-06-10T17:11:08.008Z</time>
      </trkpt>
      <trkpt lat="42.94912" lon="0.73264">
        <ele>806</ele>
        <time>2017-06-10T17:11:14.008Z</time>
      </trkpt>
      <trkpt lat="42.94902" lon="0.73268">
        <ele>806</ele>
        <time>2017-06-10T17:11:20.008Z</time>
      </trkpt>
      <trkpt lat="42.94891" lon="0.73264">
        <ele>809</ele>
        <time>2017-06-10T17:11:27.008Z</time>
      </trkpt>
      <trkpt lat="42.94883" lon="0.73252">
        <ele>811</ele>
        <time>2017-06-10T17:11:33.008Z</time>
      </trkpt>
      <trkpt lat="42.94875" lon="0.73243">
        <ele>812</ele>
        <time>2017-06-10T17:11:39.008Z</time>
      </trkpt>
      <trkpt lat="42.94867" lon="0.73231">
        <ele>813</ele>
        <time>2017-06-10T17:11:45.008Z</time>
      </trkpt>
      <trkpt lat="42.9486" lon="0.7322">
        <ele>813.208</ele>
        <time>2017-06-10T17:11:51.008Z</time>
      </trkpt>
      <trkpt lat="42.94855" lon="0.73209">
        <ele>814</ele>
        <time>2017-06-10T17:11:55.008Z</time>
      </trkpt>
      <trkpt lat="42.94854" lon="0.73197">
        <ele>814</ele>
        <time>2017-06-10T17:11:59.008Z</time>
      </trkpt>
      <trkpt lat="42.94847" lon="0.73186">
        <ele>816</ele>
        <time>2017-06-10T17:12:05.008Z</time>
      </trkpt>
      <trkpt lat="42.94838" lon="0.73185">
        <ele>816</ele>
        <time>2017-06-10T17:12:09.008Z</time>
      </trkpt>
      <trkpt lat="42.94828" lon="0.73188">
        <ele>816</ele>
        <time>2017-06-10T17:12:13.008Z</time>
      </trkpt>
      <trkpt lat="42.94819" lon="0.732">
        <ele>816</ele>
        <time>2017-06-10T17:12:18.008Z</time>
      </trkpt>
      <trkpt lat="42.94815" lon="0.73214">
        <ele>816</ele>
        <time>2017-06-10T17:12:22.008Z</time>
      </trkpt>
      <trkpt lat="42.94808" lon="0.73229">
        <ele>816</ele>
        <time>2017-06-10T17:12:26.008Z</time>
      </trkpt>
      <trkpt lat="42.94799" lon="0.73237">
        <ele>816</ele>
        <time>2017-06-10T17:12:29.008Z</time>
      </trkpt>
      <trkpt lat="42.94788" lon="0.7324">
        <ele>816</ele>
        <time>2017-06-10T17:12:32.008Z</time>
      </trkpt>
      <trkpt lat="42.94777" lon="0.73244">
        <ele>816</ele>
        <time>2017-06-10T17:12:35.008Z</time>
      </trkpt>
      <trkpt lat="42.94765" lon="0.7325">
        <ele>816</ele>
        <time>2017-06-10T17:12:38.008Z</time>
      </trkpt>
      <trkpt lat="42.94753" lon="0.73254">
        <ele>816</ele>
        <time>2017-06-10T17:12:41.008Z</time>
      </trkpt>
      <trkpt lat="42.9474" lon="0.73256">
        <ele>816</ele>
        <time>2017-06-10T17:12:44.008Z</time>
      </trkpt>
      <trkpt lat="42.94726" lon="0.73257">
        <ele>816</ele>
        <time>2017-06-10T17:12:47.008Z</time>
      </trkpt>
      <trkpt lat="42.94715" lon="0.73261">
        <ele>816</ele>
        <time>2017-06-10T17:12:50.008Z</time>
      </trkpt>
      <trkpt lat="42.94705" lon="0.73269">
        <ele>816</ele>
        <time>2017-06-10T17:12:53.008Z</time>
      </trkpt>
      <trkpt lat="42.94695" lon="0.73275">
        <ele>816</ele>
        <time>2017-06-10T17:12:56.008Z</time>
      </trkpt>
      <trkpt lat="42.94686" lon="0.73286">
        <ele>816</ele>
        <time>2017-06-10T17:13:00.008Z</time>
      </trkpt>
      <trkpt lat="42.94681" lon="0.73298">
        <ele>815</ele>
        <time>2017-06-10T17:13:14.008Z</time>
      </trkpt>
      <trkpt lat="42.9468" lon="0.73292">
        <ele>816</ele>
        <time>2017-06-10T17:13:30.008Z</time>
      </trkpt>
      <trkpt lat="42.94677" lon="0.73285">
        <ele>814</ele>
        <time>2017-06-10T17:13:53.008Z</time>
      </trkpt>
      <trkpt lat="42.94668" lon="0.73278">
        <ele>815</ele>
        <time>2017-06-10T17:15:28.008Z</time>
      </trkpt>
      <trkpt lat="42.94678" lon="0.73283">
        <ele>815</ele>
        <time>2017-06-10T17:16:02.008Z</time>
      </trkpt>
      <trkpt lat="42.9468" lon="0.73298">
        <ele>815</ele>
        <time>2017-06-10T17:16:07.008Z</time>
      </trkpt>
      <trkpt lat="42.94681" lon="0.73314">
        <ele>815.208</ele>
        <time>2017-06-10T17:16:11.008Z</time>
      </trkpt>
      <trkpt lat="42.94686" lon="0.73329">
        <ele>816</ele>
        <time>2017-06-10T17:16:15.008Z</time>
      </trkpt>
      <trkpt lat="42.94696" lon="0.73339">
        <ele>816</ele>
        <time>2017-06-10T17:16:18.008Z</time>
      </trkpt>
      <trkpt lat="42.94701" lon="0.73351">
        <ele>818</ele>
        <time>2017-06-10T17:16:22.008Z</time>
      </trkpt>
      <trkpt lat="42.94706" lon="0.73365">
        <ele>818</ele>
        <time>2017-06-10T17:16:27.008Z</time>
      </trkpt>
      <trkpt lat="42.94712" lon="0.73378">
        <ele>818.416</ele>
        <time>2017-06-10T17:16:31.008Z</time>
      </trkpt>
      <trkpt lat="42.94715" lon="0.73394">
        <ele>820</ele>
        <time>2017-06-10T17:16:36.008Z</time>
      </trkpt>
      <trkpt lat="42.94713" lon="0.7341">
        <ele>820.624</ele>
        <time>2017-06-10T17:16:41.008Z</time>
      </trkpt>
      <trkpt lat="42.94708" lon="0.73424">
        <ele>823.208</ele>
        <time>2017-06-10T17:16:46.008Z</time>
      </trkpt>
      <trkpt lat="42.94706" lon="0.73438">
        <ele>824</ele>
        <time>2017-06-10T17:16:50.008Z</time>
      </trkpt>
      <trkpt lat="42.94701" lon="0.73453">
        <ele>825</ele>
        <time>2017-06-10T17:16:55.008Z</time>
      </trkpt>
      <trkpt lat="42.94695" lon="0.73467">
        <ele>825</ele>
        <time>2017-06-10T17:17:00.008Z</time>
      </trkpt>
      <trkpt lat="42.94694" lon="0.73481">
        <ele>827</ele>
        <time>2017-06-10T17:17:04.008Z</time>
      </trkpt>
      <trkpt lat="42.94691" lon="0.7349">
        <ele>828</ele>
        <time>2017-06-10T17:17:07.008Z</time>
      </trkpt>
      <trkpt lat="42.94688" lon="0.73504">
        <ele>828.208</ele>
        <time>2017-06-10T17:17:11.008Z</time>
      </trkpt>
      <trkpt lat="42.94686" lon="0.73517">
        <ele>829</ele>
        <time>2017-06-10T17:17:15.008Z</time>
      </trkpt>
      <trkpt lat="42.94684" lon="0.73533">
        <ele>829</ele>
        <time>2017-06-10T17:17:20.008Z</time>
      </trkpt>
      <trkpt lat="42.94684" lon="0.73549">
        <ele>831</ele>
        <time>2017-06-10T17:17:24.008Z</time>
      </trkpt>
      <trkpt lat="42.94686" lon="0.73564">
        <ele>831</ele>
        <time>2017-06-10T17:17:28.008Z</time>
      </trkpt>
      <trkpt lat="42.94689" lon="0.73579">
        <ele>833</ele>
        <time>2017-06-10T17:17:32.008Z</time>
      </trkpt>
      <trkpt lat="42.94694" lon="0.73592">
        <ele>833</ele>
        <time>2017-06-10T17:17:36.008Z</time>
      </trkpt>
      <trkpt lat="42.94699" lon="0.73606">
        <ele>833</ele>
        <time>2017-06-10T17:17:40.008Z</time>
      </trkpt>
      <trkpt lat="42.947" lon="0.73622">
        <ele>834</ele>
        <time>2017-06-10T17:17:44.008Z</time>
      </trkpt>
      <trkpt lat="42.94695" lon="0.73637">
        <ele>834</ele>
        <time>2017-06-10T17:17:48.008Z</time>
      </trkpt>
      <trkpt lat="42.94692" lon="0.7365">
        <ele>834</ele>
        <time>2017-06-10T17:17:51.008Z</time>
      </trkpt>
      <trkpt lat="42.94688" lon="0.73665">
        <ele>834</ele>
        <time>2017-06-10T17:17:55.008Z</time>
      </trkpt>
      <trkpt lat="42.94684" lon="0.7368">
        <ele>834</ele>
        <time>2017-06-10T17:17:59.008Z</time>
      </trkpt>
      <trkpt lat="42.94687" lon="0.7369">
        <ele>834</ele>
        <time>2017-06-10T17:18:04.008Z</time>
      </trkpt>
      <trkpt lat="42.94695" lon="0.73687">
        <ele>834</ele>
        <time>2017-06-10T17:18:08.008Z</time>
      </trkpt>
      <trkpt lat="42.94705" lon="0.73685">
        <ele>834.208</ele>
        <time>2017-06-10T17:18:11.008Z</time>
      </trkpt>
      <trkpt lat="42.94714" lon="0.73685">
        <ele>835</ele>
        <time>2017-06-10T17:18:14.008Z</time>
      </trkpt>
      <trkpt lat="42.94719" lon="0.73692">
        <ele>835</ele>
        <time>2017-06-10T17:18:17.008Z</time>
      </trkpt>
      <trkpt lat="42.94722" lon="0.73705">
        <ele>835.208</ele>
        <time>2017-06-10T17:18:21.008Z</time>
      </trkpt>
      <trkpt lat="42.94732" lon="0.73702">
        <ele>836</ele>
        <time>2017-06-10T17:18:27.008Z</time>
      </trkpt>
      <trkpt lat="42.94739" lon="0.73699">
        <ele>836</ele>
        <time>2017-06-10T17:18:29.008Z</time>
      </trkpt>
      <trkpt lat="42.94747" lon="0.73692">
        <ele>838</ele>
        <time>2017-06-10T17:18:32.008Z</time>
      </trkpt>
      <trkpt lat="42.94753" lon="0.73684">
        <ele>838</ele>
        <time>2017-06-10T17:18:35.008Z</time>
      </trkpt>
      <trkpt lat="42.94761" lon="0.73676">
        <ele>838</ele>
        <time>2017-06-10T17:18:39.008Z</time>
      </trkpt>
      <trkpt lat="42.94771" lon="0.73668">
        <ele>840</ele>
        <time>2017-06-10T17:18:43.008Z</time>
      </trkpt>
      <trkpt lat="42.9478" lon="0.73664">
        <ele>840</ele>
        <time>2017-06-10T17:18:46.008Z</time>
      </trkpt>
      <trkpt lat="42.94788" lon="0.73658">
        <ele>840</ele>
        <time>2017-06-10T17:18:49.008Z</time>
      </trkpt>
      <trkpt lat="42.94796" lon="0.73651">
        <ele>843</ele>
        <time>2017-06-10T17:18:52.008Z</time>
      </trkpt>
      <trkpt lat="42.94804" lon="0.73646">
        <ele>843</ele>
        <time>2017-06-10T17:18:55.008Z</time>
      </trkpt>
      <trkpt lat="42.94813" lon="0.73643">
        <ele>844</ele>
        <time>2017-06-10T17:18:58.008Z</time>
      </trkpt>
      <trkpt lat="42.94819" lon="0.73642">
        <ele>844</ele>
        <time>2017-06-10T17:19:00.008Z</time>
      </trkpt>
      <trkpt lat="42.94828" lon="0.73646">
        <ele>843</ele>
        <time>2017-06-10T17:19:03.008Z</time>
      </trkpt>
      <trkpt lat="42.94838" lon="0.73658">
        <ele>843</ele>
        <time>2017-06-10T17:19:06.008Z</time>
      </trkpt>
      <trkpt lat="42.94845" lon="0.73668">
        <ele>843</ele>
        <time>2017-06-10T17:19:08.008Z</time>
      </trkpt>
      <trkpt lat="42.94853" lon="0.73679">
        <ele>843</ele>
        <time>2017-06-10T17:19:10.008Z</time>
      </trkpt>
      <trkpt lat="42.94861" lon="0.73689">
        <ele>842</ele>
        <time>2017-06-10T17:19:12.008Z</time>
      </trkpt>
      <trkpt lat="42.94871" lon="0.737">
        <ele>842</ele>
        <time>2017-06-10T17:19:14.008Z</time>
      </trkpt>
      <trkpt lat="42.94881" lon="0.73712">
        <ele>842</ele>
        <time>2017-06-10T17:19:16.008Z</time>
      </trkpt>
      <trkpt lat="42.94889" lon="0.73723">
        <ele>842</ele>
        <time>2017-06-10T17:19:18.008Z</time>
      </trkpt>
      <trkpt lat="42.94896" lon="0.73734">
        <ele>842</ele>
        <time>2017-06-10T17:19:20.008Z</time>
      </trkpt>
      <trkpt lat="42.94905" lon="0.73747">
        <ele>837</ele>
        <time>2017-06-10T17:19:23.008Z</time>
      </trkpt>
      <trkpt lat="42.94909" lon="0.73764">
        <ele>834</ele>
        <time>2017-06-10T17:19:27.008Z</time>
      </trkpt>
      <trkpt lat="42.94913" lon="0.73777">
        <ele>834</ele>
        <time>2017-06-10T17:19:39.008Z</time>
      </trkpt>
      <trkpt lat="42.94923" lon="0.7379">
        <ele>834</ele>
        <time>2017-06-10T17:19:47.008Z</time>
      </trkpt>
      <trkpt lat="42.94932" lon="0.73804">
        <ele>834</ele>
        <time>2017-06-10T17:19:50.008Z</time>
      </trkpt>
      <trkpt lat="42.94942" lon="0.73814">
        <ele>830</ele>
        <time>2017-06-10T17:19:52.008Z</time>
      </trkpt>
      <trkpt lat="42.94948" lon="0.7383">
        <ele>830</ele>
        <time>2017-06-10T17:19:55.008Z</time>
      </trkpt>
      <trkpt lat="42.94952" lon="0.73843">
        <ele>826</ele>
        <time>2017-06-10T17:19:57.008Z</time>
      </trkpt>
      <trkpt lat="42.94956" lon="0.73858">
        <ele>826</ele>
        <time>2017-06-10T17:19:59.008Z</time>
      </trkpt>
      <trkpt lat="42.94959" lon="0.73873">
        <ele>824.752</ele>
        <time>2017-06-10T17:20:01.008Z</time>
      </trkpt>
      <trkpt lat="42.94967" lon="0.73885">
        <ele>820</ele>
        <time>2017-06-10T17:20:03.008Z</time>
      </trkpt>
      <trkpt lat="42.94974" lon="0.73899">
        <ele>819</ele>
        <time>2017-06-10T17:20:06.008Z</time>
      </trkpt>
      <trkpt lat="42.9497" lon="0.73908">
        <ele>817</ele>
        <time>2017-06-10T17:20:34.008Z</time>
      </trkpt>
      <trkpt lat="42.94975" lon="0.73894">
        <ele>815.376</ele>
        <time>2017-06-10T17:21:01.008Z</time>
      </trkpt>
      <trkpt lat="42.9499" lon="0.73891">
        <ele>813</ele>
        <time>2017-06-10T17:21:03.008Z</time>
      </trkpt>
      <trkpt lat="42.94995" lon="0.73887">
        <ele>813</ele>
        <time>2017-06-10T17:21:04.008Z</time>
      </trkpt>
      <trkpt lat="42.95" lon="0.73876">
        <ele>813</ele>
        <time>2017-06-10T17:21:06.008Z</time>
      </trkpt>
      <trkpt lat="42.95003" lon="0.73871">
        <ele>813</ele>
        <time>2017-06-10T17:21:07.008Z</time>
      </trkpt>
      <trkpt lat="42.95008" lon="0.73861">
        <ele>813</ele>
        <time>2017-06-10T17:21:09.008Z</time>
      </trkpt>
      <trkpt lat="42.95015" lon="0.73846">
        <ele>813</ele>
        <time>2017-06-10T17:21:12.008Z</time>
      </trkpt>
      <trkpt lat="42.95024" lon="0.73833">
        <ele>813</ele>
        <time>2017-06-10T17:21:15.008Z</time>
      </trkpt>
      <trkpt lat="42.95032" lon="0.73821">
        <ele>813</ele>
        <time>2017-06-10T17:21:18.008Z</time>
      </trkpt>
      <trkpt lat="42.95037" lon="0.73804">
        <ele>814</ele>
        <time>2017-06-10T17:21:22.008Z</time>
      </trkpt>
      <trkpt lat="42.95043" lon="0.73788">
        <ele>814</ele>
        <time>2017-06-10T17:21:26.008Z</time>
      </trkpt>
      <trkpt lat="42.95046" lon="0.73771">
        <ele>814</ele>
        <time>2017-06-10T17:21:30.008Z</time>
      </trkpt>
      <trkpt lat="42.95047" lon="0.73757">
        <ele>815</ele>
        <time>2017-06-10T17:21:33.008Z</time>
      </trkpt>
      <trkpt lat="42.95049" lon="0.73743">
        <ele>815</ele>
        <time>2017-06-10T17:21:36.008Z</time>
      </trkpt>
      <trkpt lat="42.95053" lon="0.7373">
        <ele>815</ele>
        <time>2017-06-10T17:21:39.008Z</time>
      </trkpt>
      <trkpt lat="42.95059" lon="0.73714">
        <ele>816</ele>
        <time>2017-06-10T17:21:43.008Z</time>
      </trkpt>
      <trkpt lat="42.95063" lon="0.73708">
        <ele>816</ele>
        <time>2017-06-10T17:21:45.008Z</time>
      </trkpt>
      <trkpt lat="42.95069" lon="0.73703">
        <ele>816</ele>
        <time>2017-06-10T17:21:47.008Z</time>
      </trkpt>
      <trkpt lat="42.95079" lon="0.73697">
        <ele>816</ele>
        <time>2017-06-10T17:21:50.008Z</time>
      </trkpt>
      <trkpt lat="42.95087" lon="0.73695">
        <ele>817</ele>
        <time>2017-06-10T17:21:52.008Z</time>
      </trkpt>
      <trkpt lat="42.95099" lon="0.73693">
        <ele>817</ele>
        <time>2017-06-10T17:21:55.008Z</time>
      </trkpt>
      <trkpt lat="42.95109" lon="0.73688">
        <ele>817</ele>
        <time>2017-06-10T17:21:58.008Z</time>
      </trkpt>
      <trkpt lat="42.9512" lon="0.73682">
        <ele>817</ele>
        <time>2017-06-10T17:22:02.008Z</time>
      </trkpt>
      <trkpt lat="42.95128" lon="0.7368">
        <ele>817</ele>
        <time>2017-06-10T17:22:04.008Z</time>
      </trkpt>
      <trkpt lat="42.95139" lon="0.73681">
        <ele>817</ele>
        <time>2017-06-10T17:22:07.008Z</time>
      </trkpt>
      <trkpt lat="42.9515" lon="0.73682">
        <ele>817</ele>
        <time>2017-06-10T17:22:10.008Z</time>
      </trkpt>
      <trkpt lat="42.95161" lon="0.73685">
        <ele>819</ele>
        <time>2017-06-10T17:22:13.008Z</time>
      </trkpt>
      <trkpt lat="42.95172" lon="0.73688">
        <ele>819</ele>
        <time>2017-06-10T17:22:16.008Z</time>
      </trkpt>
      <trkpt lat="42.95181" lon="0.73691">
        <ele>819</ele>
        <time>2017-06-10T17:22:19.008Z</time>
      </trkpt>
      <trkpt lat="42.95192" lon="0.73694">
        <ele>821</ele>
        <time>2017-06-10T17:22:23.008Z</time>
      </trkpt>
      <trkpt lat="42.95205" lon="0.73697">
        <ele>821</ele>
        <time>2017-06-10T17:22:27.008Z</time>
      </trkpt>
      <trkpt lat="42.95215" lon="0.73702">
        <ele>821</ele>
        <time>2017-06-10T17:22:30.008Z</time>
      </trkpt>
      <trkpt lat="42.95226" lon="0.73704">
        <ele>821</ele>
        <time>2017-06-10T17:22:33.008Z</time>
      </trkpt>
      <trkpt lat="42.95238" lon="0.73705">
        <ele>821</ele>
        <time>2017-06-10T17:22:36.008Z</time>
      </trkpt>
      <trkpt lat="42.9525" lon="0.73707">
        <ele>821</ele>
        <time>2017-06-10T17:22:39.008Z</time>
      </trkpt>
      <trkpt lat="42.95262" lon="0.7371">
        <ele>822</ele>
        <time>2017-06-10T17:22:42.008Z</time>
      </trkpt>
      <trkpt lat="42.95272" lon="0.73715">
        <ele>822</ele>
        <time>2017-06-10T17:22:45.008Z</time>
      </trkpt>
      <trkpt lat="42.95282" lon="0.73719">
        <ele>822</ele>
        <time>2017-06-10T17:22:48.008Z</time>
      </trkpt>
      <trkpt lat="42.95292" lon="0.73723">
        <ele>822.208</ele>
        <time>2017-06-10T17:22:51.008Z</time>
      </trkpt>
      <trkpt lat="42.95304" lon="0.73728">
        <ele>823</ele>
        <time>2017-06-10T17:22:55.008Z</time>
      </trkpt>
      <trkpt lat="42.95314" lon="0.73733">
        <ele>823</ele>
        <time>2017-06-10T17:22:58.008Z</time>
      </trkpt>
      <trkpt lat="42.95322" lon="0.73737">
        <ele>823</ele>
        <time>2017-06-10T17:23:00.008Z</time>
      </trkpt>
      <trkpt lat="42.95328" lon="0.73742">
        <ele>824</ele>
        <time>2017-06-10T17:23:02.008Z</time>
      </trkpt>
      <trkpt lat="42.95338" lon="0.73747">
        <ele>824</ele>
        <time>2017-06-10T17:23:05.008Z</time>
      </trkpt>
      <trkpt lat="42.95348" lon="0.73756">
        <ele>824</ele>
        <time>2017-06-10T17:23:09.008Z</time>
      </trkpt>
      <trkpt lat="42.95357" lon="0.73763">
        <ele>825</ele>
        <time>2017-06-10T17:23:13.008Z</time>
      </trkpt>
      <trkpt lat="42.95366" lon="0.73772">
        <ele>825</ele>
        <time>2017-06-10T17:23:16.008Z</time>
      </trkpt>
      <trkpt lat="42.95376" lon="0.73782">
        <ele>825</ele>
        <time>2017-06-10T17:23:19.008Z</time>
      </trkpt>
      <trkpt lat="42.95388" lon="0.73793">
        <ele>827</ele>
        <time>2017-06-10T17:23:22.008Z</time>
      </trkpt>
      <trkpt lat="42.95397" lon="0.73801">
        <ele>827</ele>
        <time>2017-06-10T17:23:24.008Z</time>
      </trkpt>
      <trkpt lat="42.95406" lon="0.73812">
        <ele>827</ele>
        <time>2017-06-10T17:23:27.008Z</time>
      </trkpt>
      <trkpt lat="42.95412" lon="0.73822">
        <ele>827</ele>
        <time>2017-06-10T17:23:29.008Z</time>
      </trkpt>
      <trkpt lat="42.95415" lon="0.73833">
        <ele>827</ele>
        <time>2017-06-10T17:23:31.008Z</time>
      </trkpt>
      <trkpt lat="42.95417" lon="0.73843">
        <ele>827</ele>
        <time>2017-06-10T17:23:33.008Z</time>
      </trkpt>
      <trkpt lat="42.95416" lon="0.73855">
        <ele>827</ele>
        <time>2017-06-10T17:23:35.008Z</time>
      </trkpt>
      <trkpt lat="42.95415" lon="0.73867">
        <ele>827.208</ele>
        <time>2017-06-10T17:23:37.008Z</time>
      </trkpt>
      <trkpt lat="42.9542" lon="0.73881">
        <ele>828</ele>
        <time>2017-06-10T17:23:41.008Z</time>
      </trkpt>
      <trkpt lat="42.95432" lon="0.73882">
        <ele>828</ele>
        <time>2017-06-10T17:23:44.008Z</time>
      </trkpt>
      <trkpt lat="42.95441" lon="0.73882">
        <ele>828</ele>
        <time>2017-06-10T17:23:46.008Z</time>
      </trkpt>
      <trkpt lat="42.9545" lon="0.73881">
        <ele>828</ele>
        <time>2017-06-10T17:23:48.008Z</time>
      </trkpt>
      <trkpt lat="42.9546" lon="0.7388">
        <ele>828</ele>
        <time>2017-06-10T17:23:50.008Z</time>
      </trkpt>
      <trkpt lat="42.95474" lon="0.73875">
        <ele>828</ele>
        <time>2017-06-10T17:23:53.008Z</time>
      </trkpt>
      <trkpt lat="42.95483" lon="0.73871">
        <ele>828</ele>
        <time>2017-06-10T17:23:55.008Z</time>
      </trkpt>
      <trkpt lat="42.95492" lon="0.73867">
        <ele>828</ele>
        <time>2017-06-10T17:23:57.008Z</time>
      </trkpt>
      <trkpt lat="42.95506" lon="0.73864">
        <ele>828</ele>
        <time>2017-06-10T17:24:00.008Z</time>
      </trkpt>
      <trkpt lat="42.95516" lon="0.73865">
        <ele>824</ele>
        <time>2017-06-10T17:24:02.008Z</time>
      </trkpt>
      <trkpt lat="42.95526" lon="0.73868">
        <ele>824</ele>
        <time>2017-06-10T17:24:04.008Z</time>
      </trkpt>
      <trkpt lat="42.95536" lon="0.73872">
        <ele>824</ele>
        <time>2017-06-10T17:24:06.008Z</time>
      </trkpt>
      <trkpt lat="42.95548" lon="0.73875">
        <ele>824</ele>
        <time>2017-06-10T17:24:08.008Z</time>
      </trkpt>
      <trkpt lat="42.95562" lon="0.7388">
        <ele>824</ele>
        <time>2017-06-10T17:24:10.008Z</time>
      </trkpt>
      <trkpt lat="42.95574" lon="0.73885">
        <ele>822</ele>
        <time>2017-06-10T17:24:12.008Z</time>
      </trkpt>
      <trkpt lat="42.95588" lon="0.73895">
        <ele>822</ele>
        <time>2017-06-10T17:24:14.008Z</time>
      </trkpt>
      <trkpt lat="42.95597" lon="0.73904">
        <ele>822</ele>
        <time>2017-06-10T17:24:15.008Z</time>
      </trkpt>
      <trkpt lat="42.95607" lon="0.73923">
        <ele>822</ele>
        <time>2017-06-10T17:24:17.008Z</time>
      </trkpt>
      <trkpt lat="42.95616" lon="0.7394">
        <ele>822</ele>
        <time>2017-06-10T17:24:19.008Z</time>
      </trkpt>
      <trkpt lat="42.95625" lon="0.73951">
        <ele>821.376</ele>
        <time>2017-06-10T17:24:21.008Z</time>
      </trkpt>
      <trkpt lat="42.95634" lon="0.73957">
        <ele>819</ele>
        <time>2017-06-10T17:24:23.008Z</time>
      </trkpt>
      <trkpt lat="42.95648" lon="0.73964">
        <ele>819</ele>
        <time>2017-06-10T17:24:25.008Z</time>
      </trkpt>
      <trkpt lat="42.95657" lon="0.73975">
        <ele>815</ele>
        <time>2017-06-10T17:24:27.008Z</time>
      </trkpt>
      <trkpt lat="42.95653" lon="0.73996">
        <ele>815</ele>
        <time>2017-06-10T17:24:29.008Z</time>
      </trkpt>
      <trkpt lat="42.95649" lon="0.74017">
        <ele>814.376</ele>
        <time>2017-06-10T17:24:31.008Z</time>
      </trkpt>
      <trkpt lat="42.95647" lon="0.74038">
        <ele>810.584</ele>
        <time>2017-06-10T17:24:33.008Z</time>
      </trkpt>
      <trkpt lat="42.95648" lon="0.7406">
        <ele>808</ele>
        <time>2017-06-10T17:24:35.008Z</time>
      </trkpt>
      <trkpt lat="42.95649" lon="0.74082">
        <ele>806.792</ele>
        <time>2017-06-10T17:24:37.008Z</time>
      </trkpt>
      <trkpt lat="42.95649" lon="0.74106">
        <ele>805.792</ele>
        <time>2017-06-10T17:24:39.008Z</time>
      </trkpt>
      <trkpt lat="42.95648" lon="0.74129">
        <ele>803.792</ele>
        <time>2017-06-10T17:24:41.008Z</time>
      </trkpt>
      <trkpt lat="42.95645" lon="0.74152">
        <ele>802.792</ele>
        <time>2017-06-10T17:24:43.008Z</time>
      </trkpt>
      <trkpt lat="42.95641" lon="0.74174">
        <ele>802</ele>
        <time>2017-06-10T17:24:45.008Z</time>
      </trkpt>
      <trkpt lat="42.95634" lon="0.74196">
        <ele>802</ele>
        <time>2017-06-10T17:24:47.008Z</time>
      </trkpt>
      <trkpt lat="42.95628" lon="0.74216">
        <ele>802</ele>
        <time>2017-06-10T17:24:49.008Z</time>
      </trkpt>
      <trkpt lat="42.95627" lon="0.74235">
        <ele>800.792</ele>
        <time>2017-06-10T17:24:51.008Z</time>
      </trkpt>
      <trkpt lat="42.95628" lon="0.74253">
        <ele>800</ele>
        <time>2017-06-10T17:24:53.008Z</time>
      </trkpt>
      <trkpt lat="42.95632" lon="0.74266">
        <ele>800</ele>
        <time>2017-06-10T17:24:55.008Z</time>
      </trkpt>
      <trkpt lat="42.95644" lon="0.74271">
        <ele>799</ele>
        <time>2017-06-10T17:24:58.008Z</time>
      </trkpt>
      <trkpt lat="42.95659" lon="0.7426">
        <ele>798.792</ele>
        <time>2017-06-10T17:25:01.008Z</time>
      </trkpt>
      <trkpt lat="42.9567" lon="0.74251">
        <ele>798</ele>
        <time>2017-06-10T17:25:03.008Z</time>
      </trkpt>
      <trkpt lat="42.95683" lon="0.74242">
        <ele>798</ele>
        <time>2017-06-10T17:25:05.008Z</time>
      </trkpt>
      <trkpt lat="42.95694" lon="0.74233">
        <ele>798</ele>
        <time>2017-06-10T17:25:07.008Z</time>
      </trkpt>
      <trkpt lat="42.95704" lon="0.74221">
        <ele>798</ele>
        <time>2017-06-10T17:25:09.008Z</time>
      </trkpt>
      <trkpt lat="42.95716" lon="0.74208">
        <ele>797.584</ele>
        <time>2017-06-10T17:25:11.008Z</time>
      </trkpt>
      <trkpt lat="42.95727" lon="0.74195">
        <ele>796</ele>
        <time>2017-06-10T17:25:13.008Z</time>
      </trkpt>
      <trkpt lat="42.95736" lon="0.74181">
        <ele>796</ele>
        <time>2017-06-10T17:25:15.008Z</time>
      </trkpt>
      <trkpt lat="42.95743" lon="0.74165">
        <ele>796</ele>
        <time>2017-06-10T17:25:17.008Z</time>
      </trkpt>
      <trkpt lat="42.95752" lon="0.74152">
        <ele>796</ele>
        <time>2017-06-10T17:25:19.008Z</time>
      </trkpt>
      <trkpt lat="42.95759" lon="0.74142">
        <ele>795.376</ele>
        <time>2017-06-10T17:25:21.008Z</time>
      </trkpt>
      <trkpt lat="42.95765" lon="0.74131">
        <ele>793</ele>
        <time>2017-06-10T17:25:24.008Z</time>
      </trkpt>
      <trkpt lat="42.95772" lon="0.7412">
        <ele>791</ele>
        <time>2017-06-10T17:25:38.008Z</time>
      </trkpt>
      <trkpt lat="42.95765" lon="0.7411">
        <ele>783</ele>
        <time>2017-06-10T17:26:09.008Z</time>
      </trkpt>
      <trkpt lat="42.95763" lon="0.74096">
        <ele>779</ele>
        <time>2017-06-10T17:26:29.008Z</time>
      </trkpt>
      <trkpt lat="42.9577" lon="0.74083">
        <ele>778</ele>
        <time>2017-06-10T17:26:36.008Z</time>
      </trkpt>
      <trkpt lat="42.95776" lon="0.74069">
        <ele>777.792</ele>
        <time>2017-06-10T17:26:41.008Z</time>
      </trkpt>
      <trkpt lat="42.9578" lon="0.74057">
        <ele>777</ele>
        <time>2017-06-10T17:26:45.008Z</time>
      </trkpt>
      <trkpt lat="42.95786" lon="0.74045">
        <ele>777</ele>
        <time>2017-06-10T17:26:50.008Z</time>
      </trkpt>
      <trkpt lat="42.95797" lon="0.74034">
        <ele>774</ele>
        <time>2017-06-10T17:26:55.008Z</time>
      </trkpt>
      <trkpt lat="42.95804" lon="0.74024">
        <ele>773</ele>
        <time>2017-06-10T17:26:59.008Z</time>
      </trkpt>
      <trkpt lat="42.95812" lon="0.74012">
        <ele>768.792</ele>
        <time>2017-06-10T17:27:03.008Z</time>
      </trkpt>
      <trkpt lat="42.95819" lon="0.74">
        <ele>767</ele>
        <time>2017-06-10T17:27:08.008Z</time>
      </trkpt>
      <trkpt lat="42.9583" lon="0.73993">
        <ele>766</ele>
        <time>2017-06-10T17:27:15.008Z</time>
      </trkpt>
      <trkpt lat="42.95839" lon="0.73985">
        <ele>766</ele>
        <time>2017-06-10T17:27:20.008Z</time>
      </trkpt>
      <trkpt lat="42.9585" lon="0.73978">
        <ele>764</ele>
        <time>2017-06-10T17:27:26.008Z</time>
      </trkpt>
      <trkpt lat="42.9586" lon="0.73973">
        <ele>762</ele>
        <time>2017-06-10T17:27:32.008Z</time>
      </trkpt>
      <trkpt lat="42.95872" lon="0.73972">
        <ele>762</ele>
        <time>2017-06-10T17:27:36.008Z</time>
      </trkpt>
      <trkpt lat="42.95883" lon="0.73973">
        <ele>762</ele>
        <time>2017-06-10T17:27:40.008Z</time>
      </trkpt>
      <trkpt lat="42.95894" lon="0.73974">
        <ele>759.376</ele>
        <time>2017-06-10T17:27:46.008Z</time>
      </trkpt>
      <trkpt lat="42.95907" lon="0.73971">
        <ele>757</ele>
        <time>2017-06-10T17:27:50.008Z</time>
      </trkpt>
      <trkpt lat="42.95918" lon="0.73966">
        <ele>755</ele>
        <time>2017-06-10T17:27:54.008Z</time>
      </trkpt>
      <trkpt lat="42.95929" lon="0.73968">
        <ele>753</ele>
        <time>2017-06-10T17:27:59.008Z</time>
      </trkpt>
      <trkpt lat="42.95941" lon="0.73978">
        <ele>751</ele>
        <time>2017-06-10T17:28:03.008Z</time>
      </trkpt>
      <trkpt lat="42.95952" lon="0.73984">
        <ele>751</ele>
        <time>2017-06-10T17:28:05.008Z</time>
      </trkpt>
      <trkpt lat="42.95963" lon="0.73987">
        <ele>749</ele>
        <time>2017-06-10T17:28:07.008Z</time>
      </trkpt>
      <trkpt lat="42.95973" lon="0.73993">
        <ele>749</ele>
        <time>2017-06-10T17:28:09.008Z</time>
      </trkpt>
      <trkpt lat="42.95983" lon="0.73999">
        <ele>748.376</ele>
        <time>2017-06-10T17:28:11.008Z</time>
      </trkpt>
      <trkpt lat="42.95993" lon="0.74008">
        <ele>746</ele>
        <time>2017-06-10T17:28:15.008Z</time>
      </trkpt>
      <trkpt lat="42.95998" lon="0.7402">
        <ele>745</ele>
        <time>2017-06-10T17:28:20.008Z</time>
      </trkpt>
      <trkpt lat="42.96007" lon="0.74026">
        <ele>743</ele>
        <time>2017-06-10T17:28:28.008Z</time>
      </trkpt>
      <trkpt lat="42.96014" lon="0.74036">
        <ele>742</ele>
        <time>2017-06-10T17:28:35.008Z</time>
      </trkpt>
      <trkpt lat="42.96021" lon="0.74049">
        <ele>741</ele>
        <time>2017-06-10T17:28:42.008Z</time>
      </trkpt>
      <trkpt lat="42.96029" lon="0.7406">
        <ele>741</ele>
        <time>2017-06-10T17:28:49.008Z</time>
      </trkpt>
      <trkpt lat="42.96037" lon="0.74072">
        <ele>738</ele>
        <time>2017-06-10T17:28:55.008Z</time>
      </trkpt>
      <trkpt lat="42.96045" lon="0.74083">
        <ele>736</ele>
        <time>2017-06-10T17:28:59.008Z</time>
      </trkpt>
      <trkpt lat="42.96054" lon="0.7409">
        <ele>734</ele>
        <time>2017-06-10T17:29:02.008Z</time>
      </trkpt>
      <trkpt lat="42.96063" lon="0.74099">
        <ele>733.792</ele>
        <time>2017-06-10T17:29:06.008Z</time>
      </trkpt>
      <trkpt lat="42.96072" lon="0.7411">
        <ele>733</ele>
        <time>2017-06-10T17:29:10.008Z</time>
      </trkpt>
      <trkpt lat="42.9608" lon="0.74122">
        <ele>730</ele>
        <time>2017-06-10T17:29:14.008Z</time>
      </trkpt>
      <trkpt lat="42.96082" lon="0.74136">
        <ele>729</ele>
        <time>2017-06-10T17:29:18.008Z</time>
      </trkpt>
      <trkpt lat="42.96077" lon="0.7415">
        <ele>728</ele>
        <time>2017-06-10T17:29:22.008Z</time>
      </trkpt>
      <trkpt lat="42.96068" lon="0.74162">
        <ele>728</ele>
        <time>2017-06-10T17:29:26.008Z</time>
      </trkpt>
      <trkpt lat="42.96059" lon="0.74171">
        <ele>728</ele>
        <time>2017-06-10T17:29:29.008Z</time>
      </trkpt>
      <trkpt lat="42.96051" lon="0.74182">
        <ele>725</ele>
        <time>2017-06-10T17:29:32.008Z</time>
      </trkpt>
      <trkpt lat="42.9605" lon="0.74196">
        <ele>725</ele>
        <time>2017-06-10T17:29:35.008Z</time>
      </trkpt>
      <trkpt lat="42.96058" lon="0.74204">
        <ele>720</ele>
        <time>2017-06-10T17:30:23.008Z</time>
      </trkpt>
      <trkpt lat="42.96049" lon="0.74198">
        <ele>719</ele>
        <time>2017-06-10T17:30:53.008Z</time>
      </trkpt>
      <trkpt lat="42.96046" lon="0.74184">
        <ele>720</ele>
        <time>2017-06-10T17:31:59.008Z</time>
      </trkpt>
      <trkpt lat="42.96057" lon="0.74188">
        <ele>721</ele>
        <time>2017-06-10T17:32:56.008Z</time>
      </trkpt>
      <trkpt lat="42.96064" lon="0.74196">
        <ele>721</ele>
        <time>2017-06-10T17:33:29.008Z</time>
      </trkpt>
      <trkpt lat="42.96075" lon="0.74191">
        <ele>721.376</ele>
        <time>2017-06-10T17:34:01.008Z</time>
      </trkpt>
      <trkpt lat="42.96085" lon="0.74194">
        <ele>717</ele>
        <time>2017-06-10T17:34:07.008Z</time>
      </trkpt>
      <trkpt lat="42.96094" lon="0.74202">
        <ele>715</ele>
        <time>2017-06-10T17:34:12.008Z</time>
      </trkpt>
      <trkpt lat="42.96104" lon="0.74208">
        <ele>713</ele>
        <time>2017-06-10T17:34:18.008Z</time>
      </trkpt>
      <trkpt lat="42.96115" lon="0.74211">
        <ele>713</ele>
        <time>2017-06-10T17:34:23.008Z</time>
      </trkpt>
      <trkpt lat="42.96129" lon="0.74211">
        <ele>712.376</ele>
        <time>2017-06-10T17:34:26.008Z</time>
      </trkpt>
      <trkpt lat="42.96143" lon="0.74211">
        <ele>710</ele>
        <time>2017-06-10T17:34:29.008Z</time>
      </trkpt>
      <trkpt lat="42.96155" lon="0.74209">
        <ele>709.376</ele>
        <time>2017-06-10T17:34:31.008Z</time>
      </trkpt>
      <trkpt lat="42.96167" lon="0.74204">
        <ele>706</ele>
        <time>2017-06-10T17:34:34.008Z</time>
      </trkpt>
      <trkpt lat="42.96176" lon="0.74198">
        <ele>705.208</ele>
        <time>2017-06-10T17:34:38.008Z</time>
      </trkpt>
      <trkpt lat="42.96184" lon="0.7419">
        <ele>705</ele>
        <time>2017-06-10T17:34:42.008Z</time>
      </trkpt>
      <trkpt lat="42.96195" lon="0.74189">
        <ele>705</ele>
        <time>2017-06-10T17:34:45.008Z</time>
      </trkpt>
      <trkpt lat="42.96203" lon="0.74181">
        <ele>705</ele>
        <time>2017-06-10T17:35:00.008Z</time>
      </trkpt>
      <trkpt lat="42.96213" lon="0.74173">
        <ele>704</ele>
        <time>2017-06-10T17:35:05.008Z</time>
      </trkpt>
      <trkpt lat="42.96223" lon="0.74165">
        <ele>704</ele>
        <time>2017-06-10T17:35:10.008Z</time>
      </trkpt>
      <trkpt lat="42.96235" lon="0.74159">
        <ele>704</ele>
        <time>2017-06-10T17:35:14.008Z</time>
      </trkpt>
      <trkpt lat="42.96246" lon="0.74154">
        <ele>704</ele>
        <time>2017-06-10T17:35:17.008Z</time>
      </trkpt>
      <trkpt lat="42.96255" lon="0.74149">
        <ele>703</ele>
        <time>2017-06-10T17:35:27.008Z</time>
      </trkpt>
      <trkpt lat="42.96267" lon="0.74144">
        <ele>701</ele>
        <time>2017-06-10T17:35:43.008Z</time>
      </trkpt>
      <trkpt lat="42.96277" lon="0.74144">
        <ele>701</ele>
        <time>2017-06-10T17:35:48.008Z</time>
      </trkpt>
      <trkpt lat="42.96287" lon="0.74152">
        <ele>699</ele>
        <time>2017-06-10T17:35:52.008Z</time>
      </trkpt>
      <trkpt lat="42.96297" lon="0.7416">
        <ele>699</ele>
        <time>2017-06-10T17:35:55.008Z</time>
      </trkpt>
      <trkpt lat="42.96308" lon="0.74169">
        <ele>699</ele>
        <time>2017-06-10T17:35:57.008Z</time>
      </trkpt>
      <trkpt lat="42.96318" lon="0.74181">
        <ele>699</ele>
        <time>2017-06-10T17:36:00.008Z</time>
      </trkpt>
      <trkpt lat="42.96324" lon="0.74192">
        <ele>696</ele>
        <time>2017-06-10T17:36:02.008Z</time>
      </trkpt>
      <trkpt lat="42.96329" lon="0.74206">
        <ele>696</ele>
        <time>2017-06-10T17:36:05.008Z</time>
      </trkpt>
      <trkpt lat="42.96333" lon="0.74219">
        <ele>695</ele>
        <time>2017-06-10T17:36:08.008Z</time>
      </trkpt>
      <trkpt lat="42.96338" lon="0.74236">
        <ele>694.168</ele>
        <time>2017-06-10T17:36:11.008Z</time>
      </trkpt>
      <trkpt lat="42.9634" lon="0.74251">
        <ele>686.792</ele>
        <time>2017-06-10T17:36:14.008Z</time>
      </trkpt>
      <trkpt lat="42.96341" lon="0.74266">
        <ele>686</ele>
        <time>2017-06-10T17:36:17.008Z</time>
      </trkpt>
      <trkpt lat="42.96345" lon="0.74282">
        <ele>683.792</ele>
        <time>2017-06-10T17:36:20.008Z</time>
      </trkpt>
      <trkpt lat="42.9635" lon="0.74297">
        <ele>681</ele>
        <time>2017-06-10T17:36:23.008Z</time>
      </trkpt>
      <trkpt lat="42.96357" lon="0.7431">
        <ele>679</ele>
        <time>2017-06-10T17:36:26.008Z</time>
      </trkpt>
      <trkpt lat="42.96365" lon="0.74324">
        <ele>677</ele>
        <time>2017-06-10T17:36:29.008Z</time>
      </trkpt>
      <trkpt lat="42.96369" lon="0.74337">
        <ele>676.792</ele>
        <time>2017-06-10T17:36:32.008Z</time>
      </trkpt>
      <trkpt lat="42.96374" lon="0.74352">
        <ele>676</ele>
        <time>2017-06-10T17:36:35.008Z</time>
      </trkpt>
      <trkpt lat="42.96383" lon="0.7434">
        <ele>677</ele>
        <time>2017-06-10T17:36:45.008Z</time>
      </trkpt>
      <trkpt lat="42.96388" lon="0.74327">
        <ele>677</ele>
        <time>2017-06-10T17:36:50.008Z</time>
      </trkpt>
      <trkpt lat="42.96393" lon="0.74315">
        <ele>678</ele>
        <time>2017-06-10T17:36:54.008Z</time>
      </trkpt>
      <trkpt lat="42.96402" lon="0.74307">
        <ele>678</ele>
        <time>2017-06-10T17:36:58.008Z</time>
      </trkpt>
      <trkpt lat="42.96412" lon="0.743">
        <ele>678</ele>
        <time>2017-06-10T17:37:02.008Z</time>
      </trkpt>
      <trkpt lat="42.96422" lon="0.7429">
        <ele>678</ele>
        <time>2017-06-10T17:37:06.008Z</time>
      </trkpt>
      <trkpt lat="42.96432" lon="0.74286">
        <ele>678.416</ele>
        <time>2017-06-10T17:37:11.008Z</time>
      </trkpt>
      <trkpt lat="42.96441" lon="0.74277">
        <ele>680</ele>
        <time>2017-06-10T17:37:15.008Z</time>
      </trkpt>
      <trkpt lat="42.96451" lon="0.74269">
        <ele>680</ele>
        <time>2017-06-10T17:37:19.008Z</time>
      </trkpt>
      <trkpt lat="42.96462" lon="0.74269">
        <ele>682</ele>
        <time>2017-06-10T17:37:25.008Z</time>
      </trkpt>
      <trkpt lat="42.96475" lon="0.74268">
        <ele>682</ele>
        <time>2017-06-10T17:37:30.008Z</time>
      </trkpt>
      <trkpt lat="42.96484" lon="0.74271">
        <ele>682</ele>
        <time>2017-06-10T17:37:33.008Z</time>
      </trkpt>
      <trkpt lat="42.96495" lon="0.74275">
        <ele>682</ele>
        <time>2017-06-10T17:37:37.008Z</time>
      </trkpt>
      <trkpt lat="42.96505" lon="0.7428">
        <ele>682</ele>
        <time>2017-06-10T17:37:43.008Z</time>
      </trkpt>
      <trkpt lat="42.96515" lon="0.74283">
        <ele>682</ele>
        <time>2017-06-10T17:37:51.008Z</time>
      </trkpt>
      <trkpt lat="42.96529" lon="0.74287">
        <ele>682</ele>
        <time>2017-06-10T17:37:54.008Z</time>
      </trkpt>
      <trkpt lat="42.96543" lon="0.74288">
        <ele>682</ele>
        <time>2017-06-10T17:37:57.008Z</time>
      </trkpt>
      <trkpt lat="42.96554" lon="0.74287">
        <ele>682</ele>
        <time>2017-06-10T17:38:03.008Z</time>
      </trkpt>
      <trkpt lat="42.96566" lon="0.74281">
        <ele>682</ele>
        <time>2017-06-10T17:38:09.008Z</time>
      </trkpt>
      <trkpt lat="42.96576" lon="0.74276">
        <ele>681</ele>
        <time>2017-06-10T17:38:12.008Z</time>
      </trkpt>
      <trkpt lat="42.96587" lon="0.74274">
        <ele>681</ele>
        <time>2017-06-10T17:38:15.008Z</time>
      </trkpt>
      <trkpt lat="42.96599" lon="0.74272">
        <ele>681</ele>
        <time>2017-06-10T17:38:19.008Z</time>
      </trkpt>
      <trkpt lat="42.96612" lon="0.74273">
        <ele>679</ele>
        <time>2017-06-10T17:38:23.008Z</time>
      </trkpt>
      <trkpt lat="42.96625" lon="0.74275">
        <ele>679</ele>
        <time>2017-06-10T17:38:27.008Z</time>
      </trkpt>
      <trkpt lat="42.96637" lon="0.74276">
        <ele>679</ele>
        <time>2017-06-10T17:38:31.008Z</time>
      </trkpt>
      <trkpt lat="42.96647" lon="0.74281">
        <ele>679</ele>
        <time>2017-06-10T17:38:34.008Z</time>
      </trkpt>
      <trkpt lat="42.96657" lon="0.74289">
        <ele>679</ele>
        <time>2017-06-10T17:38:36.008Z</time>
      </trkpt>
      <trkpt lat="42.96667" lon="0.74299">
        <ele>679</ele>
        <time>2017-06-10T17:38:39.008Z</time>
      </trkpt>
      <trkpt lat="42.96671" lon="0.74316">
        <ele>677</ele>
        <time>2017-06-10T17:38:43.008Z</time>
      </trkpt>
      <trkpt lat="42.96682" lon="0.74323">
        <ele>677</ele>
        <time>2017-06-10T17:38:49.008Z</time>
      </trkpt>
      <trkpt lat="42.96693" lon="0.74321">
        <ele>677</ele>
        <time>2017-06-10T17:38:52.008Z</time>
      </trkpt>
      <trkpt lat="42.96704" lon="0.74317">
        <ele>677</ele>
        <time>2017-06-10T17:38:55.008Z</time>
      </trkpt>
      <trkpt lat="42.96714" lon="0.74314">
        <ele>677</ele>
        <time>2017-06-10T17:38:59.008Z</time>
      </trkpt>
      <trkpt lat="42.96723" lon="0.74313">
        <ele>678</ele>
        <time>2017-06-10T17:39:02.008Z</time>
      </trkpt>
      <trkpt lat="42.96735" lon="0.74313">
        <ele>678</ele>
        <time>2017-06-10T17:39:06.008Z</time>
      </trkpt>
      <trkpt lat="42.96746" lon="0.74316">
        <ele>678</ele>
        <time>2017-06-10T17:39:10.008Z</time>
      </trkpt>
      <trkpt lat="42.96755" lon="0.74319">
        <ele>679</ele>
        <time>2017-06-10T17:39:13.008Z</time>
      </trkpt>
      <trkpt lat="42.96766" lon="0.74321">
        <ele>679</ele>
        <time>2017-06-10T17:39:17.008Z</time>
      </trkpt>
      <trkpt lat="42.96779" lon="0.74326">
        <ele>679</ele>
        <time>2017-06-10T17:39:20.008Z</time>
      </trkpt>
      <trkpt lat="42.9679" lon="0.74328">
        <ele>679</ele>
        <time>2017-06-10T17:39:22.008Z</time>
      </trkpt>
      <trkpt lat="42.96801" lon="0.74332">
        <ele>679</ele>
        <time>2017-06-10T17:39:25.008Z</time>
      </trkpt>
      <trkpt lat="42.96813" lon="0.74334">
        <ele>679</ele>
        <time>2017-06-10T17:39:28.008Z</time>
      </trkpt>
      <trkpt lat="42.96824" lon="0.74337">
        <ele>678.792</ele>
        <time>2017-06-10T17:39:31.008Z</time>
      </trkpt>
      <trkpt lat="42.96835" lon="0.74339">
        <ele>678</ele>
        <time>2017-06-10T17:39:34.008Z</time>
      </trkpt>
      <trkpt lat="42.96847" lon="0.74342">
        <ele>679</ele>
        <time>2017-06-10T17:39:38.008Z</time>
      </trkpt>
      <trkpt lat="42.96858" lon="0.74344">
        <ele>679</ele>
        <time>2017-06-10T17:39:41.008Z</time>
      </trkpt>
      <trkpt lat="42.96869" lon="0.74347">
        <ele>679</ele>
        <time>2017-06-10T17:39:45.008Z</time>
      </trkpt>
      <trkpt lat="42.96881" lon="0.74348">
        <ele>679</ele>
        <time>2017-06-10T17:39:48.008Z</time>
      </trkpt>
      <trkpt lat="42.96891" lon="0.74348">
        <ele>679</ele>
        <time>2017-06-10T17:39:50.008Z</time>
      </trkpt>
      <trkpt lat="42.96904" lon="0.74348">
        <ele>677</ele>
        <time>2017-06-10T17:39:53.008Z</time>
      </trkpt>
      <trkpt lat="42.96916" lon="0.7435">
        <ele>677</ele>
        <time>2017-06-10T17:39:56.008Z</time>
      </trkpt>
      <trkpt lat="42.96929" lon="0.74351">
        <ele>677</ele>
        <time>2017-06-10T17:40:00.008Z</time>
      </trkpt>
      <trkpt lat="42.96943" lon="0.74355">
        <ele>670.792</ele>
        <time>2017-06-10T17:40:03.008Z</time>
      </trkpt>
      <trkpt lat="42.96957" lon="0.74359">
        <ele>670</ele>
        <time>2017-06-10T17:40:06.008Z</time>
      </trkpt>
      <trkpt lat="42.96968" lon="0.74364">
        <ele>669</ele>
        <time>2017-06-10T17:40:08.008Z</time>
      </trkpt>
      <trkpt lat="42.96979" lon="0.74371">
        <ele>668.792</ele>
        <time>2017-06-10T17:40:10.008Z</time>
      </trkpt>
      <trkpt lat="42.9699" lon="0.74377">
        <ele>668</ele>
        <time>2017-06-10T17:40:13.008Z</time>
      </trkpt>
      <trkpt lat="42.96999" lon="0.74384">
        <ele>667.584</ele>
        <time>2017-06-10T17:40:16.008Z</time>
      </trkpt>
      <trkpt lat="42.97008" lon="0.74391">
        <ele>666</ele>
        <time>2017-06-10T17:40:20.008Z</time>
      </trkpt>
      <trkpt lat="42.97019" lon="0.74398">
        <ele>661</ele>
        <time>2017-06-10T17:40:23.008Z</time>
      </trkpt>
      <trkpt lat="42.97027" lon="0.74407">
        <ele>659</ele>
        <time>2017-06-10T17:40:26.008Z</time>
      </trkpt>
      <trkpt lat="42.97037" lon="0.7442">
        <ele>657.792</ele>
        <time>2017-06-10T17:40:29.008Z</time>
      </trkpt>
      <trkpt lat="42.97044" lon="0.7443">
        <ele>655.792</ele>
        <time>2017-06-10T17:40:33.008Z</time>
      </trkpt>
      <trkpt lat="42.97049" lon="0.74442">
        <ele>654.792</ele>
        <time>2017-06-10T17:40:37.008Z</time>
      </trkpt>
      <trkpt lat="42.97056" lon="0.74453">
        <ele>653</ele>
        <time>2017-06-10T17:40:41.008Z</time>
      </trkpt>
      <trkpt lat="42.97065" lon="0.7446">
        <ele>653</ele>
        <time>2017-06-10T17:40:44.008Z</time>
      </trkpt>
      <trkpt lat="42.97078" lon="0.74468">
        <ele>650</ele>
        <time>2017-06-10T17:40:47.008Z</time>
      </trkpt>
      <trkpt lat="42.97088" lon="0.74477">
        <ele>650</ele>
        <time>2017-06-10T17:40:49.008Z</time>
      </trkpt>
      <trkpt lat="42.97099" lon="0.74488">
        <ele>646.584</ele>
        <time>2017-06-10T17:40:52.008Z</time>
      </trkpt>
      <trkpt lat="42.97104" lon="0.745">
        <ele>643.792</ele>
        <time>2017-06-10T17:40:54.008Z</time>
      </trkpt>
      <trkpt lat="42.97111" lon="0.74517">
        <ele>641.792</ele>
        <time>2017-06-10T17:40:57.008Z</time>
      </trkpt>
      <trkpt lat="42.97118" lon="0.74528">
        <ele>639.792</ele>
        <time>2017-06-10T17:41:00.008Z</time>
      </trkpt>
      <trkpt lat="42.97126" lon="0.74536">
        <ele>639.792</ele>
        <time>2017-06-10T17:41:03.008Z</time>
      </trkpt>
      <trkpt lat="42.97136" lon="0.74546">
        <ele>639</ele>
        <time>2017-06-10T17:41:06.008Z</time>
      </trkpt>
      <trkpt lat="42.97147" lon="0.74552">
        <ele>639</ele>
        <time>2017-06-10T17:41:08.008Z</time>
      </trkpt>
      <trkpt lat="42.97157" lon="0.74556">
        <ele>639</ele>
        <time>2017-06-10T17:41:10.008Z</time>
      </trkpt>
      <trkpt lat="42.97166" lon="0.74562">
        <ele>638</ele>
        <time>2017-06-10T17:41:12.008Z</time>
      </trkpt>
      <trkpt lat="42.97176" lon="0.74571">
        <ele>638</ele>
        <time>2017-06-10T17:41:15.008Z</time>
      </trkpt>
      <trkpt lat="42.97185" lon="0.7458">
        <ele>638</ele>
        <time>2017-06-10T17:41:18.008Z</time>
      </trkpt>
      <trkpt lat="42.97196" lon="0.7459">
        <ele>637.792</ele>
        <time>2017-06-10T17:41:21.008Z</time>
      </trkpt>
      <trkpt lat="42.97207" lon="0.74596">
        <ele>637</ele>
        <time>2017-06-10T17:41:23.008Z</time>
      </trkpt>
      <trkpt lat="42.97216" lon="0.74602">
        <ele>637</ele>
        <time>2017-06-10T17:41:25.008Z</time>
      </trkpt>
      <trkpt lat="42.97228" lon="0.74609">
        <ele>637</ele>
        <time>2017-06-10T17:41:27.008Z</time>
      </trkpt>
      <trkpt lat="42.97239" lon="0.74617">
        <ele>637</ele>
        <time>2017-06-10T17:41:29.008Z</time>
      </trkpt>
      <trkpt lat="42.97247" lon="0.74626">
        <ele>636.376</ele>
        <time>2017-06-10T17:41:31.008Z</time>
      </trkpt>
      <trkpt lat="42.97254" lon="0.74642">
        <ele>634</ele>
        <time>2017-06-10T17:41:34.008Z</time>
      </trkpt>
      <trkpt lat="42.97261" lon="0.74658">
        <ele>631</ele>
        <time>2017-06-10T17:41:37.008Z</time>
      </trkpt>
      <trkpt lat="42.97267" lon="0.7467">
        <ele>631</ele>
        <time>2017-06-10T17:41:39.008Z</time>
      </trkpt>
      <trkpt lat="42.97274" lon="0.7468">
        <ele>630.168</ele>
        <time>2017-06-10T17:41:41.008Z</time>
      </trkpt>
      <trkpt lat="42.97282" lon="0.7469">
        <ele>625.792</ele>
        <time>2017-06-10T17:41:43.008Z</time>
      </trkpt>
      <trkpt lat="42.97291" lon="0.74701">
        <ele>624</ele>
        <time>2017-06-10T17:41:46.008Z</time>
      </trkpt>
      <trkpt lat="42.97298" lon="0.74714">
        <ele>622.792</ele>
        <time>2017-06-10T17:41:49.008Z</time>
      </trkpt>
      <trkpt lat="42.97305" lon="0.74728">
        <ele>623</ele>
        <time>2017-06-10T17:41:53.008Z</time>
      </trkpt>
      <trkpt lat="42.97311" lon="0.74741">
        <ele>621</ele>
        <time>2017-06-10T17:41:58.008Z</time>
      </trkpt>
      <trkpt lat="42.97318" lon="0.74752">
        <ele>620.584</ele>
        <time>2017-06-10T17:42:01.008Z</time>
      </trkpt>
      <trkpt lat="42.97327" lon="0.74767">
        <ele>619</ele>
        <time>2017-06-10T17:42:04.008Z</time>
      </trkpt>
      <trkpt lat="42.97332" lon="0.7478">
        <ele>618.792</ele>
        <time>2017-06-10T17:42:06.008Z</time>
      </trkpt>
      <trkpt lat="42.97335" lon="0.74798">
        <ele>618</ele>
        <time>2017-06-10T17:42:08.008Z</time>
      </trkpt>
      <trkpt lat="42.97337" lon="0.74814">
        <ele>618</ele>
        <time>2017-06-10T17:42:10.008Z</time>
      </trkpt>
      <trkpt lat="42.97336" lon="0.74825">
        <ele>618</ele>
        <time>2017-06-10T17:42:18.008Z</time>
      </trkpt>
      <trkpt lat="42.97339" lon="0.74835">
        <ele>617</ele>
        <time>2017-06-10T17:42:26.008Z</time>
      </trkpt>
      <trkpt lat="42.97338" lon="0.74842">
        <ele>616</ele>
        <time>2017-06-10T17:42:33.008Z</time>
      </trkpt>
      <trkpt lat="42.97339" lon="0.74848">
        <ele>616</ele>
        <time>2017-06-10T17:42:36.008Z</time>
      </trkpt>
      <trkpt lat="42.97341" lon="0.74855">
        <ele>616</ele>
        <time>2017-06-10T17:42:38.008Z</time>
      </trkpt>
      <trkpt lat="42.97342" lon="0.74863">
        <ele>616</ele>
        <time>2017-06-10T17:42:40.008Z</time>
      </trkpt>
      <trkpt lat="42.97344" lon="0.74872">
        <ele>616</ele>
        <time>2017-06-10T17:42:42.008Z</time>
      </trkpt>
      <trkpt lat="42.97347" lon="0.74881">
        <ele>616</ele>
        <time>2017-06-10T17:42:44.008Z</time>
      </trkpt>
      <trkpt lat="42.97348" lon="0.74886">
        <ele>616</ele>
        <time>2017-06-10T17:42:45.008Z</time>
      </trkpt>
      <trkpt lat="42.9735" lon="0.7489">
        <ele>616</ele>
        <time>2017-06-10T17:42:46.008Z</time>
      </trkpt>
      <trkpt lat="42.97351" lon="0.74895">
        <ele>616</ele>
        <time>2017-06-10T17:42:47.008Z</time>
      </trkpt>
      <trkpt lat="42.97352" lon="0.749">
        <ele>616</ele>
        <time>2017-06-10T17:42:48.008Z</time>
      </trkpt>
      <trkpt lat="42.97354" lon="0.74905">
        <ele>616</ele>
        <time>2017-06-10T17:42:49.008Z</time>
      </trkpt>
      <trkpt lat="42.97355" lon="0.74911">
        <ele>616</ele>
        <time>2017-06-10T17:42:50.008Z</time>
      </trkpt>
      <trkpt lat="42.97358" lon="0.74916">
        <ele>616</ele>
        <time>2017-06-10T17:42:51.008Z</time>
      </trkpt>
      <trkpt lat="42.9736" lon="0.74921">
        <ele>616</ele>
        <time>2017-06-10T17:42:52.008Z</time>
      </trkpt>
      <trkpt lat="42.97362" lon="0.74927">
        <ele>616</ele>
        <time>2017-06-10T17:42:53.008Z</time>
      </trkpt>
      <trkpt lat="42.97365" lon="0.74932">
        <ele>616</ele>
        <time>2017-06-10T17:42:54.008Z</time>
      </trkpt>
      <trkpt lat="42.97367" lon="0.74938">
        <ele>616</ele>
        <time>2017-06-10T17:42:55.008Z</time>
      </trkpt>
      <trkpt lat="42.9737" lon="0.74944">
        <ele>616</ele>
        <time>2017-06-10T17:42:56.008Z</time>
      </trkpt>
      <trkpt lat="42.97372" lon="0.7495">
        <ele>616</ele>
        <time>2017-06-10T17:42:57.008Z</time>
      </trkpt>
      <trkpt lat="42.97374" lon="0.74956">
        <ele>616</ele>
        <time>2017-06-10T17:42:58.008Z</time>
      </trkpt>
      <trkpt lat="42.97377" lon="0.74963">
        <ele>616</ele>
        <time>2017-06-10T17:42:59.008Z</time>
      </trkpt>
      <trkpt lat="42.97379" lon="0.74969">
        <ele>616</ele>
        <time>2017-06-10T17:43:00.008Z</time>
      </trkpt>
      <trkpt lat="42.97381" lon="0.74976">
        <ele>615.376</ele>
        <time>2017-06-10T17:43:01.008Z</time>
      </trkpt>
      <trkpt lat="42.97383" lon="0.74983">
        <ele>613</ele>
        <time>2017-06-10T17:43:02.008Z</time>
      </trkpt>
      <trkpt lat="42.97386" lon="0.7499">
        <ele>613</ele>
        <time>2017-06-10T17:43:03.008Z</time>
      </trkpt>
      <trkpt lat="42.97388" lon="0.74997">
        <ele>613</ele>
        <time>2017-06-10T17:43:04.008Z</time>
      </trkpt>
      <trkpt lat="42.9739" lon="0.75003">
        <ele>613</ele>
        <time>2017-06-10T17:43:05.008Z</time>
      </trkpt>
      <trkpt lat="42.97392" lon="0.7501">
        <ele>613</ele>
        <time>2017-06-10T17:43:06.008Z</time>
      </trkpt>
      <trkpt lat="42.97395" lon="0.75016">
        <ele>613</ele>
        <time>2017-06-10T17:43:07.008Z</time>
      </trkpt>
      <trkpt lat="42.97398" lon="0.75022">
        <ele>613</ele>
        <time>2017-06-10T17:43:08.008Z</time>
      </trkpt>
      <trkpt lat="42.974" lon="0.75028">
        <ele>613</ele>
        <time>2017-06-10T17:43:09.008Z</time>
      </trkpt>
      <trkpt lat="42.97402" lon="0.75034">
        <ele>613</ele>
        <time>2017-06-10T17:43:10.008Z</time>
      </trkpt>
      <trkpt lat="42.97407" lon="0.75045">
        <ele>613</ele>
        <time>2017-06-10T17:43:12.008Z</time>
      </trkpt>
      <trkpt lat="42.97413" lon="0.75056">
        <ele>613</ele>
        <time>2017-06-10T17:43:14.008Z</time>
      </trkpt>
      <trkpt lat="42.97418" lon="0.75068">
        <ele>613</ele>
        <time>2017-06-10T17:43:16.008Z</time>
      </trkpt>
      <trkpt lat="42.97426" lon="0.75084">
        <ele>613</ele>
        <time>2017-06-10T17:43:19.008Z</time>
      </trkpt>
      <trkpt lat="42.9743" lon="0.75095">
        <ele>613</ele>
        <time>2017-06-10T17:43:21.008Z</time>
      </trkpt>
      <trkpt lat="42.97434" lon="0.75105">
        <ele>613</ele>
        <time>2017-06-10T17:43:23.008Z</time>
      </trkpt>
      <trkpt lat="42.97439" lon="0.75115">
        <ele>613</ele>
        <time>2017-06-10T17:43:25.008Z</time>
      </trkpt>
      <trkpt lat="42.97442" lon="0.75124">
        <ele>613</ele>
        <time>2017-06-10T17:43:27.008Z</time>
      </trkpt>
      <trkpt lat="42.97448" lon="0.75137">
        <ele>613</ele>
        <time>2017-06-10T17:43:30.008Z</time>
      </trkpt>
      <trkpt lat="42.97455" lon="0.7515">
        <ele>613</ele>
        <time>2017-06-10T17:43:33.008Z</time>
      </trkpt>
      <trkpt lat="42.97461" lon="0.75158">
        <ele>613</ele>
        <time>2017-06-10T17:43:35.008Z</time>
      </trkpt>
      <trkpt lat="42.9747" lon="0.7517">
        <ele>613</ele>
        <time>2017-06-10T17:43:38.008Z</time>
      </trkpt>
      <trkpt lat="42.9748" lon="0.75183">
        <ele>613</ele>
        <time>2017-06-10T17:43:41.008Z</time>
      </trkpt>
      <trkpt lat="42.97487" lon="0.75192">
        <ele>613</ele>
        <time>2017-06-10T17:43:43.008Z</time>
      </trkpt>
      <trkpt lat="42.97493" lon="0.75201">
        <ele>613</ele>
        <time>2017-06-10T17:43:45.008Z</time>
      </trkpt>
      <trkpt lat="42.975" lon="0.7521">
        <ele>613</ele>
        <time>2017-06-10T17:43:47.008Z</time>
      </trkpt>
      <trkpt lat="42.97507" lon="0.7522">
        <ele>613</ele>
        <time>2017-06-10T17:43:49.008Z</time>
      </trkpt>
      <trkpt lat="42.97514" lon="0.75229">
        <ele>612.792</ele>
        <time>2017-06-10T17:43:51.008Z</time>
      </trkpt>
      <trkpt lat="42.97521" lon="0.75239">
        <ele>612</ele>
        <time>2017-06-10T17:43:53.008Z</time>
      </trkpt>
      <trkpt lat="42.97528" lon="0.75249">
        <ele>612</ele>
        <time>2017-06-10T17:43:55.008Z</time>
      </trkpt>
      <trkpt lat="42.97534" lon="0.7526">
        <ele>612</ele>
        <time>2017-06-10T17:43:57.008Z</time>
      </trkpt>
      <trkpt lat="42.97542" lon="0.7527">
        <ele>612</ele>
        <time>2017-06-10T17:43:59.008Z</time>
      </trkpt>
      <trkpt lat="42.97551" lon="0.75279">
        <ele>611.376</ele>
        <time>2017-06-10T17:44:01.008Z</time>
      </trkpt>
      <trkpt lat="42.97563" lon="0.75284">
        <ele>609</ele>
        <time>2017-06-10T17:44:03.008Z</time>
      </trkpt>
      <trkpt lat="42.97576" lon="0.75288">
        <ele>609</ele>
        <time>2017-06-10T17:44:05.008Z</time>
      </trkpt>
      <trkpt lat="42.97584" lon="0.75297">
        <ele>609</ele>
        <time>2017-06-10T17:44:07.008Z</time>
      </trkpt>
      <trkpt lat="42.97585" lon="0.75304">
        <ele>609</ele>
        <time>2017-06-10T17:44:08.008Z</time>
      </trkpt>
      <trkpt lat="42.97586" lon="0.75311">
        <ele>609</ele>
        <time>2017-06-10T17:44:09.008Z</time>
      </trkpt>
      <trkpt lat="42.97588" lon="0.75326">
        <ele>609</ele>
        <time>2017-06-10T17:44:11.008Z</time>
      </trkpt>
      <trkpt lat="42.97588" lon="0.75333">
        <ele>609</ele>
        <time>2017-06-10T17:44:12.008Z</time>
      </trkpt>
      <trkpt lat="42.97589" lon="0.7534">
        <ele>609</ele>
        <time>2017-06-10T17:44:13.008Z</time>
      </trkpt>
      <trkpt lat="42.97591" lon="0.75354">
        <ele>609</ele>
        <time>2017-06-10T17:44:15.008Z</time>
      </trkpt>
      <trkpt lat="42.97592" lon="0.75361">
        <ele>609</ele>
        <time>2017-06-10T17:44:16.008Z</time>
      </trkpt>
      <trkpt lat="42.97593" lon="0.75367">
        <ele>609</ele>
        <time>2017-06-10T17:44:17.008Z</time>
      </trkpt>
      <trkpt lat="42.97593" lon="0.75373">
        <ele>609</ele>
        <time>2017-06-10T17:44:18.008Z</time>
      </trkpt>
      <trkpt lat="42.97594" lon="0.7538">
        <ele>609</ele>
        <time>2017-06-10T17:44:19.008Z</time>
      </trkpt>
      <trkpt lat="42.97595" lon="0.75386">
        <ele>609</ele>
        <time>2017-06-10T17:44:20.008Z</time>
      </trkpt>
      <trkpt lat="42.97596" lon="0.75393">
        <ele>608.792</ele>
        <time>2017-06-10T17:44:21.008Z</time>
      </trkpt>
      <trkpt lat="42.97598" lon="0.754">
        <ele>608</ele>
        <time>2017-06-10T17:44:22.008Z</time>
      </trkpt>
      <trkpt lat="42.97599" lon="0.75406">
        <ele>608</ele>
        <time>2017-06-10T17:44:23.008Z</time>
      </trkpt>
      <trkpt lat="42.97601" lon="0.75413">
        <ele>608</ele>
        <time>2017-06-10T17:44:24.008Z</time>
      </trkpt>
      <trkpt lat="42.97603" lon="0.7542">
        <ele>608</ele>
        <time>2017-06-10T17:44:25.008Z</time>
      </trkpt>
      <trkpt lat="42.97605" lon="0.75426">
        <ele>608</ele>
        <time>2017-06-10T17:44:26.008Z</time>
      </trkpt>
      <trkpt lat="42.97607" lon="0.75433">
        <ele>608</ele>
        <time>2017-06-10T17:44:27.008Z</time>
      </trkpt>
      <trkpt lat="42.97609" lon="0.7544">
        <ele>608</ele>
        <time>2017-06-10T17:44:28.008Z</time>
      </trkpt>
      <trkpt lat="42.97611" lon="0.75447">
        <ele>608</ele>
        <time>2017-06-10T17:44:29.008Z</time>
      </trkpt>
      <trkpt lat="42.97614" lon="0.75454">
        <ele>608</ele>
        <time>2017-06-10T17:44:30.008Z</time>
      </trkpt>
      <trkpt lat="42.97616" lon="0.75462">
        <ele>607.792</ele>
        <time>2017-06-10T17:44:31.008Z</time>
      </trkpt>
      <trkpt lat="42.97618" lon="0.75469">
        <ele>607</ele>
        <time>2017-06-10T17:44:32.008Z</time>
      </trkpt>
      <trkpt lat="42.9762" lon="0.75477">
        <ele>607</ele>
        <time>2017-06-10T17:44:33.008Z</time>
      </trkpt>
      <trkpt lat="42.97622" lon="0.75485">
        <ele>607</ele>
        <time>2017-06-10T17:44:34.008Z</time>
      </trkpt>
      <trkpt lat="42.97624" lon="0.75493">
        <ele>607</ele>
        <time>2017-06-10T17:44:35.008Z</time>
      </trkpt>
      <trkpt lat="42.97625" lon="0.75501">
        <ele>607</ele>
        <time>2017-06-10T17:44:36.008Z</time>
      </trkpt>
      <trkpt lat="42.97628" lon="0.7551">
        <ele>607</ele>
        <time>2017-06-10T17:44:37.008Z</time>
      </trkpt>
      <trkpt lat="42.97629" lon="0.75519">
        <ele>607</ele>
        <time>2017-06-10T17:44:38.008Z</time>
      </trkpt>
      <trkpt lat="42.97632" lon="0.75527">
        <ele>607</ele>
        <time>2017-06-10T17:44:39.008Z</time>
      </trkpt>
      <trkpt lat="42.97634" lon="0.75534">
        <ele>607</ele>
        <time>2017-06-10T17:44:40.008Z</time>
      </trkpt>
      <trkpt lat="42.97638" lon="0.7554">
        <ele>606.376</ele>
        <time>2017-06-10T17:44:41.008Z</time>
      </trkpt>
      <trkpt lat="42.97641" lon="0.75547">
        <ele>604</ele>
        <time>2017-06-10T17:44:42.008Z</time>
      </trkpt>
      <trkpt lat="42.97643" lon="0.75554">
        <ele>604</ele>
        <time>2017-06-10T17:44:43.008Z</time>
      </trkpt>
      <trkpt lat="42.97646" lon="0.7557">
        <ele>604</ele>
        <time>2017-06-10T17:44:45.008Z</time>
      </trkpt>
      <trkpt lat="42.97649" lon="0.75587">
        <ele>603</ele>
        <time>2017-06-10T17:44:47.008Z</time>
      </trkpt>
      <trkpt lat="42.97649" lon="0.75603">
        <ele>603</ele>
        <time>2017-06-10T17:44:49.008Z</time>
      </trkpt>
      <trkpt lat="42.9765" lon="0.7562">
        <ele>603</ele>
        <time>2017-06-10T17:44:51.008Z</time>
      </trkpt>
      <trkpt lat="42.9765" lon="0.75628">
        <ele>603</ele>
        <time>2017-06-10T17:44:52.008Z</time>
      </trkpt>
      <trkpt lat="42.9765" lon="0.75636">
        <ele>603</ele>
        <time>2017-06-10T17:44:53.008Z</time>
      </trkpt>
      <trkpt lat="42.9765" lon="0.75645">
        <ele>603</ele>
        <time>2017-06-10T17:44:54.008Z</time>
      </trkpt>
      <trkpt lat="42.97651" lon="0.75653">
        <ele>603</ele>
        <time>2017-06-10T17:44:55.008Z</time>
      </trkpt>
      <trkpt lat="42.97651" lon="0.75661">
        <ele>603</ele>
        <time>2017-06-10T17:44:56.008Z</time>
      </trkpt>
      <trkpt lat="42.97652" lon="0.7567">
        <ele>603</ele>
        <time>2017-06-10T17:44:57.008Z</time>
      </trkpt>
      <trkpt lat="42.97654" lon="0.75685">
        <ele>603</ele>
        <time>2017-06-10T17:44:59.008Z</time>
      </trkpt>
      <trkpt lat="42.97658" lon="0.757">
        <ele>602.792</ele>
        <time>2017-06-10T17:45:01.008Z</time>
      </trkpt>
      <trkpt lat="42.97661" lon="0.75706">
        <ele>602</ele>
        <time>2017-06-10T17:45:02.008Z</time>
      </trkpt>
      <trkpt lat="42.97664" lon="0.75712">
        <ele>602</ele>
        <time>2017-06-10T17:45:03.008Z</time>
      </trkpt>
      <trkpt lat="42.97673" lon="0.75722">
        <ele>602</ele>
        <time>2017-06-10T17:45:05.008Z</time>
      </trkpt>
      <trkpt lat="42.97677" lon="0.75727">
        <ele>602</ele>
        <time>2017-06-10T17:45:06.008Z</time>
      </trkpt>
      <trkpt lat="42.97682" lon="0.75731">
        <ele>602</ele>
        <time>2017-06-10T17:45:07.008Z</time>
      </trkpt>
      <trkpt lat="42.97687" lon="0.75735">
        <ele>602</ele>
        <time>2017-06-10T17:45:08.008Z</time>
      </trkpt>
      <trkpt lat="42.97692" lon="0.75739">
        <ele>602</ele>
        <time>2017-06-10T17:45:09.008Z</time>
      </trkpt>
      <trkpt lat="42.97696" lon="0.75743">
        <ele>602</ele>
        <time>2017-06-10T17:45:10.008Z</time>
      </trkpt>
      <trkpt lat="42.977" lon="0.75748">
        <ele>602.208</ele>
        <time>2017-06-10T17:45:11.008Z</time>
      </trkpt>
      <trkpt lat="42.97703" lon="0.75753">
        <ele>603</ele>
        <time>2017-06-10T17:45:12.008Z</time>
      </trkpt>
      <trkpt lat="42.97706" lon="0.75759">
        <ele>603</ele>
        <time>2017-06-10T17:45:13.008Z</time>
      </trkpt>
      <trkpt lat="42.97709" lon="0.75764">
        <ele>603</ele>
        <time>2017-06-10T17:45:14.008Z</time>
      </trkpt>
      <trkpt lat="42.97712" lon="0.7577">
        <ele>603</ele>
        <time>2017-06-10T17:45:15.008Z</time>
      </trkpt>
      <trkpt lat="42.97714" lon="0.75777">
        <ele>603</ele>
        <time>2017-06-10T17:45:16.008Z</time>
      </trkpt>
      <trkpt lat="42.97717" lon="0.75789">
        <ele>603</ele>
        <time>2017-06-10T17:45:18.008Z</time>
      </trkpt>
      <trkpt lat="42.97716" lon="0.758">
        <ele>603</ele>
        <time>2017-06-10T17:45:20.008Z</time>
      </trkpt>
      <trkpt lat="42.97715" lon="0.75806">
        <ele>603.416</ele>
        <time>2017-06-10T17:45:21.008Z</time>
      </trkpt>
      <trkpt lat="42.97715" lon="0.75812">
        <ele>605</ele>
        <time>2017-06-10T17:45:22.008Z</time>
      </trkpt>
      <trkpt lat="42.97714" lon="0.75818">
        <ele>605</ele>
        <time>2017-06-10T17:45:23.008Z</time>
      </trkpt>
      <trkpt lat="42.97714" lon="0.75825">
        <ele>605</ele>
        <time>2017-06-10T17:45:24.008Z</time>
      </trkpt>
      <trkpt lat="42.97711" lon="0.75838">
        <ele>605</ele>
        <time>2017-06-10T17:45:26.008Z</time>
      </trkpt>
      <trkpt lat="42.97709" lon="0.75852">
        <ele>605</ele>
        <time>2017-06-10T17:45:28.008Z</time>
      </trkpt>
      <trkpt lat="42.97709" lon="0.75865">
        <ele>605</ele>
        <time>2017-06-10T17:45:30.008Z</time>
      </trkpt>
      <trkpt lat="42.97708" lon="0.75878">
        <ele>606</ele>
        <time>2017-06-10T17:45:32.008Z</time>
      </trkpt>
      <trkpt lat="42.97706" lon="0.75891">
        <ele>606</ele>
        <time>2017-06-10T17:45:34.008Z</time>
      </trkpt>
      <trkpt lat="42.97702" lon="0.75902">
        <ele>606</ele>
        <time>2017-06-10T17:45:36.008Z</time>
      </trkpt>
      <trkpt lat="42.97697" lon="0.75911">
        <ele>606</ele>
        <time>2017-06-10T17:45:38.008Z</time>
      </trkpt>
      <trkpt lat="42.97695" lon="0.75916">
        <ele>606</ele>
        <time>2017-06-10T17:45:39.008Z</time>
      </trkpt>
      <trkpt lat="42.97693" lon="0.75921">
        <ele>605.792</ele>
        <time>2017-06-10T17:45:40.008Z</time>
      </trkpt>
      <trkpt lat="42.9769" lon="0.75931">
        <ele>606</ele>
        <time>2017-06-10T17:45:42.008Z</time>
      </trkpt>
      <trkpt lat="42.97689" lon="0.75936">
        <ele>606</ele>
        <time>2017-06-10T17:45:43.008Z</time>
      </trkpt>
      <trkpt lat="42.97688" lon="0.75941">
        <ele>606</ele>
        <time>2017-06-10T17:45:44.008Z</time>
      </trkpt>
      <trkpt lat="42.97687" lon="0.75947">
        <ele>606</ele>
        <time>2017-06-10T17:45:45.008Z</time>
      </trkpt>
      <trkpt lat="42.97686" lon="0.75952">
        <ele>606</ele>
        <time>2017-06-10T17:45:46.008Z</time>
      </trkpt>
      <trkpt lat="42.97685" lon="0.75958">
        <ele>606</ele>
        <time>2017-06-10T17:45:47.008Z</time>
      </trkpt>
      <trkpt lat="42.97684" lon="0.75964">
        <ele>606</ele>
        <time>2017-06-10T17:45:48.008Z</time>
      </trkpt>
      <trkpt lat="42.97684" lon="0.7597">
        <ele>606</ele>
        <time>2017-06-10T17:45:49.008Z</time>
      </trkpt>
      <trkpt lat="42.97683" lon="0.75976">
        <ele>606</ele>
        <time>2017-06-10T17:45:50.008Z</time>
      </trkpt>
      <trkpt lat="42.97683" lon="0.75982">
        <ele>606.208</ele>
        <time>2017-06-10T17:45:51.008Z</time>
      </trkpt>
      <trkpt lat="42.97683" lon="0.75989">
        <ele>607</ele>
        <time>2017-06-10T17:45:52.008Z</time>
      </trkpt>
      <trkpt lat="42.97683" lon="0.75995">
        <ele>607</ele>
        <time>2017-06-10T17:45:53.008Z</time>
      </trkpt>
      <trkpt lat="42.97683" lon="0.76002">
        <ele>607</ele>
        <time>2017-06-10T17:45:54.008Z</time>
      </trkpt>
      <trkpt lat="42.97682" lon="0.76009">
        <ele>607</ele>
        <time>2017-06-10T17:45:55.008Z</time>
      </trkpt>
      <trkpt lat="42.97682" lon="0.76015">
        <ele>607</ele>
        <time>2017-06-10T17:45:56.008Z</time>
      </trkpt>
      <trkpt lat="42.97683" lon="0.76029">
        <ele>607</ele>
        <time>2017-06-10T17:45:58.008Z</time>
      </trkpt>
      <trkpt lat="42.97685" lon="0.76043">
        <ele>607</ele>
        <time>2017-06-10T17:46:00.008Z</time>
      </trkpt>
      <trkpt lat="42.97686" lon="0.7605">
        <ele>607</ele>
        <time>2017-06-10T17:46:01.008Z</time>
      </trkpt>
      <trkpt lat="42.97687" lon="0.76056">
        <ele>607</ele>
        <time>2017-06-10T17:46:02.008Z</time>
      </trkpt>
      <trkpt lat="42.97691" lon="0.7607">
        <ele>607</ele>
        <time>2017-06-10T17:46:04.008Z</time>
      </trkpt>
      <trkpt lat="42.97694" lon="0.76077">
        <ele>607</ele>
        <time>2017-06-10T17:46:05.008Z</time>
      </trkpt>
      <trkpt lat="42.97696" lon="0.76085">
        <ele>607</ele>
        <time>2017-06-10T17:46:06.008Z</time>
      </trkpt>
      <trkpt lat="42.97699" lon="0.76093">
        <ele>607</ele>
        <time>2017-06-10T17:46:07.008Z</time>
      </trkpt>
      <trkpt lat="42.97702" lon="0.76109">
        <ele>607</ele>
        <time>2017-06-10T17:46:09.008Z</time>
      </trkpt>
      <trkpt lat="42.97703" lon="0.76117">
        <ele>607</ele>
        <time>2017-06-10T17:46:10.008Z</time>
      </trkpt>
      <trkpt lat="42.97704" lon="0.76124">
        <ele>607</ele>
        <time>2017-06-10T17:46:11.008Z</time>
      </trkpt>
      <trkpt lat="42.97705" lon="0.76131">
        <ele>607</ele>
        <time>2017-06-10T17:46:12.008Z</time>
      </trkpt>
      <trkpt lat="42.97706" lon="0.76139">
        <ele>607</ele>
        <time>2017-06-10T17:46:13.008Z</time>
      </trkpt>
      <trkpt lat="42.97708" lon="0.76152">
        <ele>607</ele>
        <time>2017-06-10T17:46:15.008Z</time>
      </trkpt>
      <trkpt lat="42.97707" lon="0.76172">
        <ele>607</ele>
        <time>2017-06-10T17:46:18.008Z</time>
      </trkpt>
      <trkpt lat="42.97707" lon="0.76178">
        <ele>607</ele>
        <time>2017-06-10T17:46:19.008Z</time>
      </trkpt>
      <trkpt lat="42.97707" lon="0.76185">
        <ele>607</ele>
        <time>2017-06-10T17:46:20.008Z</time>
      </trkpt>
      <trkpt lat="42.97707" lon="0.76192">
        <ele>607.208</ele>
        <time>2017-06-10T17:46:21.008Z</time>
      </trkpt>
      <trkpt lat="42.97707" lon="0.76199">
        <ele>608</ele>
        <time>2017-06-10T17:46:22.008Z</time>
      </trkpt>
      <trkpt lat="42.97707" lon="0.76211">
        <ele>608</ele>
        <time>2017-06-10T17:46:24.008Z</time>
      </trkpt>
      <trkpt lat="42.97706" lon="0.76224">
        <ele>608</ele>
        <time>2017-06-10T17:46:26.008Z</time>
      </trkpt>
      <trkpt lat="42.97705" lon="0.7623">
        <ele>608</ele>
        <time>2017-06-10T17:46:27.008Z</time>
      </trkpt>
      <trkpt lat="42.97705" lon="0.76237">
        <ele>608</ele>
        <time>2017-06-10T17:46:28.008Z</time>
      </trkpt>
      <trkpt lat="42.97705" lon="0.76243">
        <ele>608</ele>
        <time>2017-06-10T17:46:29.008Z</time>
      </trkpt>
      <trkpt lat="42.97704" lon="0.76249">
        <ele>608</ele>
        <time>2017-06-10T17:46:30.008Z</time>
      </trkpt>
      <trkpt lat="42.97703" lon="0.76261">
        <ele>609</ele>
        <time>2017-06-10T17:46:32.008Z</time>
      </trkpt>
      <trkpt lat="42.97701" lon="0.76272">
        <ele>609</ele>
        <time>2017-06-10T17:46:34.008Z</time>
      </trkpt>
      <trkpt lat="42.97702" lon="0.76288">
        <ele>609</ele>
        <time>2017-06-10T17:46:37.008Z</time>
      </trkpt>
      <trkpt lat="42.97705" lon="0.76301">
        <ele>609</ele>
        <time>2017-06-10T17:46:39.008Z</time>
      </trkpt>
      <trkpt lat="42.97706" lon="0.76307">
        <ele>609</ele>
        <time>2017-06-10T17:46:40.008Z</time>
      </trkpt>
      <trkpt lat="42.97708" lon="0.76313">
        <ele>609.208</ele>
        <time>2017-06-10T17:46:41.008Z</time>
      </trkpt>
      <trkpt lat="42.97713" lon="0.76326">
        <ele>610</ele>
        <time>2017-06-10T17:46:43.008Z</time>
      </trkpt>
      <trkpt lat="42.97715" lon="0.76333">
        <ele>610</ele>
        <time>2017-06-10T17:46:44.008Z</time>
      </trkpt>
      <trkpt lat="42.97717" lon="0.76339">
        <ele>610</ele>
        <time>2017-06-10T17:46:45.008Z</time>
      </trkpt>
      <trkpt lat="42.97719" lon="0.76346">
        <ele>610</ele>
        <time>2017-06-10T17:46:46.008Z</time>
      </trkpt>
      <trkpt lat="42.9772" lon="0.76352">
        <ele>610</ele>
        <time>2017-06-10T17:46:47.008Z</time>
      </trkpt>
      <trkpt lat="42.97722" lon="0.76359">
        <ele>610</ele>
        <time>2017-06-10T17:46:48.008Z</time>
      </trkpt>
      <trkpt lat="42.97726" lon="0.76371">
        <ele>610</ele>
        <time>2017-06-10T17:46:50.008Z</time>
      </trkpt>
      <trkpt lat="42.97728" lon="0.76377">
        <ele>610</ele>
        <time>2017-06-10T17:46:51.008Z</time>
      </trkpt>
      <trkpt lat="42.9773" lon="0.76383">
        <ele>610</ele>
        <time>2017-06-10T17:46:52.008Z</time>
      </trkpt>
      <trkpt lat="42.97732" lon="0.76395">
        <ele>610</ele>
        <time>2017-06-10T17:46:54.008Z</time>
      </trkpt>
      <trkpt lat="42.97733" lon="0.76401">
        <ele>610</ele>
        <time>2017-06-10T17:46:55.008Z</time>
      </trkpt>
      <trkpt lat="42.97737" lon="0.76414">
        <ele>610</ele>
        <time>2017-06-10T17:46:57.008Z</time>
      </trkpt>
      <trkpt lat="42.97739" lon="0.7642">
        <ele>610</ele>
        <time>2017-06-10T17:46:58.008Z</time>
      </trkpt>
      <trkpt lat="42.97741" lon="0.76427">
        <ele>610</ele>
        <time>2017-06-10T17:46:59.008Z</time>
      </trkpt>
      <trkpt lat="42.97742" lon="0.76435">
        <ele>610</ele>
        <time>2017-06-10T17:47:00.008Z</time>
      </trkpt>
      <trkpt lat="42.97743" lon="0.76442">
        <ele>609.792</ele>
        <time>2017-06-10T17:47:01.008Z</time>
      </trkpt>
      <trkpt lat="42.97744" lon="0.7645">
        <ele>609</ele>
        <time>2017-06-10T17:47:02.008Z</time>
      </trkpt>
      <trkpt lat="42.97745" lon="0.76458">
        <ele>609</ele>
        <time>2017-06-10T17:47:03.008Z</time>
      </trkpt>
      <trkpt lat="42.97745" lon="0.76466">
        <ele>609</ele>
        <time>2017-06-10T17:47:04.008Z</time>
      </trkpt>
      <trkpt lat="42.97746" lon="0.76474">
        <ele>609</ele>
        <time>2017-06-10T17:47:05.008Z</time>
      </trkpt>
      <trkpt lat="42.97746" lon="0.76483">
        <ele>609</ele>
        <time>2017-06-10T17:47:06.008Z</time>
      </trkpt>
      <trkpt lat="42.97747" lon="0.76491">
        <ele>609</ele>
        <time>2017-06-10T17:47:07.008Z</time>
      </trkpt>
      <trkpt lat="42.97747" lon="0.765">
        <ele>609</ele>
        <time>2017-06-10T17:47:08.008Z</time>
      </trkpt>
      <trkpt lat="42.97746" lon="0.76519">
        <ele>609</ele>
        <time>2017-06-10T17:47:10.008Z</time>
      </trkpt>
      <trkpt lat="42.97746" lon="0.76528">
        <ele>608.792</ele>
        <time>2017-06-10T17:47:11.008Z</time>
      </trkpt>
      <trkpt lat="42.97745" lon="0.76537">
        <ele>608</ele>
        <time>2017-06-10T17:47:12.008Z</time>
      </trkpt>
      <trkpt lat="42.97744" lon="0.76546">
        <ele>608</ele>
        <time>2017-06-10T17:47:13.008Z</time>
      </trkpt>
      <trkpt lat="42.97741" lon="0.76565">
        <ele>608</ele>
        <time>2017-06-10T17:47:15.008Z</time>
      </trkpt>
      <trkpt lat="42.9774" lon="0.76575">
        <ele>608</ele>
        <time>2017-06-10T17:47:16.008Z</time>
      </trkpt>
      <trkpt lat="42.97738" lon="0.76584">
        <ele>608</ele>
        <time>2017-06-10T17:47:17.008Z</time>
      </trkpt>
      <trkpt lat="42.97737" lon="0.76595">
        <ele>608</ele>
        <time>2017-06-10T17:47:18.008Z</time>
      </trkpt>
      <trkpt lat="42.97735" lon="0.76605">
        <ele>608</ele>
        <time>2017-06-10T17:47:19.008Z</time>
      </trkpt>
      <trkpt lat="42.97735" lon="0.76615">
        <ele>608</ele>
        <time>2017-06-10T17:47:20.008Z</time>
      </trkpt>
      <trkpt lat="42.97735" lon="0.76625">
        <ele>607.584</ele>
        <time>2017-06-10T17:47:21.008Z</time>
      </trkpt>
      <trkpt lat="42.97737" lon="0.76635">
        <ele>606</ele>
        <time>2017-06-10T17:47:22.008Z</time>
      </trkpt>
      <trkpt lat="42.9774" lon="0.76644">
        <ele>606</ele>
        <time>2017-06-10T17:47:23.008Z</time>
      </trkpt>
      <trkpt lat="42.97743" lon="0.76653">
        <ele>606</ele>
        <time>2017-06-10T17:47:24.008Z</time>
      </trkpt>
      <trkpt lat="42.97746" lon="0.76663">
        <ele>606</ele>
        <time>2017-06-10T17:47:25.008Z</time>
      </trkpt>
      <trkpt lat="42.97748" lon="0.76673">
        <ele>606</ele>
        <time>2017-06-10T17:47:26.008Z</time>
      </trkpt>
      <trkpt lat="42.97749" lon="0.76683">
        <ele>606</ele>
        <time>2017-06-10T17:47:27.008Z</time>
      </trkpt>
      <trkpt lat="42.9775" lon="0.76694">
        <ele>606</ele>
        <time>2017-06-10T17:47:28.008Z</time>
      </trkpt>
      <trkpt lat="42.97751" lon="0.76704">
        <ele>606</ele>
        <time>2017-06-10T17:47:29.008Z</time>
      </trkpt>
      <trkpt lat="42.97752" lon="0.76714">
        <ele>606</ele>
        <time>2017-06-10T17:47:30.008Z</time>
      </trkpt>
      <trkpt lat="42.97752" lon="0.76724">
        <ele>605.584</ele>
        <time>2017-06-10T17:47:31.008Z</time>
      </trkpt>
      <trkpt lat="42.97751" lon="0.76734">
        <ele>604</ele>
        <time>2017-06-10T17:47:32.008Z</time>
      </trkpt>
      <trkpt lat="42.97751" lon="0.76744">
        <ele>604</ele>
        <time>2017-06-10T17:47:33.008Z</time>
      </trkpt>
      <trkpt lat="42.9775" lon="0.76754">
        <ele>604</ele>
        <time>2017-06-10T17:47:34.008Z</time>
      </trkpt>
      <trkpt lat="42.9775" lon="0.76763">
        <ele>604</ele>
        <time>2017-06-10T17:47:35.008Z</time>
      </trkpt>
      <trkpt lat="42.9775" lon="0.76772">
        <ele>604</ele>
        <time>2017-06-10T17:47:36.008Z</time>
      </trkpt>
      <trkpt lat="42.97749" lon="0.76782">
        <ele>604</ele>
        <time>2017-06-10T17:47:37.008Z</time>
      </trkpt>
      <trkpt lat="42.97749" lon="0.7679">
        <ele>604</ele>
        <time>2017-06-10T17:47:38.008Z</time>
      </trkpt>
      <trkpt lat="42.97749" lon="0.76799">
        <ele>604</ele>
        <time>2017-06-10T17:47:39.008Z</time>
      </trkpt>
      <trkpt lat="42.97749" lon="0.76808">
        <ele>604</ele>
        <time>2017-06-10T17:47:40.008Z</time>
      </trkpt>
      <trkpt lat="42.97751" lon="0.76823">
        <ele>604</ele>
        <time>2017-06-10T17:47:42.008Z</time>
      </trkpt>
      <trkpt lat="42.97753" lon="0.76838">
        <ele>604</ele>
        <time>2017-06-10T17:47:44.008Z</time>
      </trkpt>
      <trkpt lat="42.97756" lon="0.76851">
        <ele>604</ele>
        <time>2017-06-10T17:47:46.008Z</time>
      </trkpt>
      <trkpt lat="42.97757" lon="0.76864">
        <ele>604</ele>
        <time>2017-06-10T17:47:48.008Z</time>
      </trkpt>
      <trkpt lat="42.97759" lon="0.76876">
        <ele>604</ele>
        <time>2017-06-10T17:47:50.008Z</time>
      </trkpt>
      <trkpt lat="42.97761" lon="0.76888">
        <ele>608</ele>
        <time>2017-06-10T17:47:52.008Z</time>
      </trkpt>
      <trkpt lat="42.97762" lon="0.769">
        <ele>608</ele>
        <time>2017-06-10T17:47:54.008Z</time>
      </trkpt>
      <trkpt lat="42.97762" lon="0.76912">
        <ele>608.416</ele>
        <time>2017-06-10T17:47:56.008Z</time>
      </trkpt>
      <trkpt lat="42.97762" lon="0.76924">
        <ele>610</ele>
        <time>2017-06-10T17:47:58.008Z</time>
      </trkpt>
      <trkpt lat="42.97762" lon="0.76937">
        <ele>610</ele>
        <time>2017-06-10T17:48:00.008Z</time>
      </trkpt>
      <trkpt lat="42.97763" lon="0.76949">
        <ele>610</ele>
        <time>2017-06-10T17:48:02.008Z</time>
      </trkpt>
      <trkpt lat="42.97764" lon="0.76961">
        <ele>610</ele>
        <time>2017-06-10T17:48:04.008Z</time>
      </trkpt>
      <trkpt lat="42.97764" lon="0.76967">
        <ele>610</ele>
        <time>2017-06-10T17:48:05.008Z</time>
      </trkpt>
      <trkpt lat="42.97766" lon="0.76973">
        <ele>610.208</ele>
        <time>2017-06-10T17:48:06.008Z</time>
      </trkpt>
      <trkpt lat="42.97767" lon="0.76978">
        <ele>611</ele>
        <time>2017-06-10T17:48:07.008Z</time>
      </trkpt>
      <trkpt lat="42.97769" lon="0.76984">
        <ele>611</ele>
        <time>2017-06-10T17:48:08.008Z</time>
      </trkpt>
      <trkpt lat="42.97772" lon="0.76996">
        <ele>611</ele>
        <time>2017-06-10T17:48:10.008Z</time>
      </trkpt>
      <trkpt lat="42.97773" lon="0.77002">
        <ele>611.208</ele>
        <time>2017-06-10T17:48:11.008Z</time>
      </trkpt>
      <trkpt lat="42.97774" lon="0.77007">
        <ele>612</ele>
        <time>2017-06-10T17:48:12.008Z</time>
      </trkpt>
      <trkpt lat="42.97776" lon="0.77013">
        <ele>612</ele>
        <time>2017-06-10T17:48:13.008Z</time>
      </trkpt>
      <trkpt lat="42.97776" lon="0.77018">
        <ele>612</ele>
        <time>2017-06-10T17:48:14.008Z</time>
      </trkpt>
      <trkpt lat="42.97777" lon="0.77024">
        <ele>612</ele>
        <time>2017-06-10T17:48:15.008Z</time>
      </trkpt>
      <trkpt lat="42.97779" lon="0.77033">
        <ele>612</ele>
        <time>2017-06-10T17:48:17.008Z</time>
      </trkpt>
      <trkpt lat="42.97784" lon="0.77039">
        <ele>612</ele>
        <time>2017-06-10T17:48:19.008Z</time>
      </trkpt>
      <trkpt lat="42.97788" lon="0.77041">
        <ele>612</ele>
        <time>2017-06-10T17:48:20.008Z</time>
      </trkpt>
      <trkpt lat="42.97797" lon="0.77044">
        <ele>611</ele>
        <time>2017-06-10T17:48:22.008Z</time>
      </trkpt>
      <trkpt lat="42.97806" lon="0.77047">
        <ele>611</ele>
        <time>2017-06-10T17:48:24.008Z</time>
      </trkpt>
      <trkpt lat="42.97813" lon="0.77056">
        <ele>611</ele>
        <time>2017-06-10T17:48:27.008Z</time>
      </trkpt>
      <trkpt lat="42.97816" lon="0.77067">
        <ele>611</ele>
        <time>2017-06-10T17:48:29.008Z</time>
      </trkpt>
      <trkpt lat="42.97818" lon="0.77079">
        <ele>610.584</ele>
        <time>2017-06-10T17:48:31.008Z</time>
      </trkpt>
      <trkpt lat="42.97819" lon="0.77092">
        <ele>609</ele>
        <time>2017-06-10T17:48:33.008Z</time>
      </trkpt>
      <trkpt lat="42.9782" lon="0.77099">
        <ele>609</ele>
        <time>2017-06-10T17:48:34.008Z</time>
      </trkpt>
      <trkpt lat="42.97821" lon="0.77106">
        <ele>609</ele>
        <time>2017-06-10T17:48:35.008Z</time>
      </trkpt>
      <trkpt lat="42.97822" lon="0.77112">
        <ele>609</ele>
        <time>2017-06-10T17:48:36.008Z</time>
      </trkpt>
      <trkpt lat="42.97823" lon="0.77119">
        <ele>609</ele>
        <time>2017-06-10T17:48:37.008Z</time>
      </trkpt>
      <trkpt lat="42.97825" lon="0.77126">
        <ele>609</ele>
        <time>2017-06-10T17:48:38.008Z</time>
      </trkpt>
      <trkpt lat="42.97826" lon="0.77132">
        <ele>609</ele>
        <time>2017-06-10T17:48:39.008Z</time>
      </trkpt>
      <trkpt lat="42.97827" lon="0.77139">
        <ele>609</ele>
        <time>2017-06-10T17:48:40.008Z</time>
      </trkpt>
      <trkpt lat="42.97828" lon="0.77146">
        <ele>608.792</ele>
        <time>2017-06-10T17:48:41.008Z</time>
      </trkpt>
      <trkpt lat="42.9783" lon="0.77153">
        <ele>608</ele>
        <time>2017-06-10T17:48:42.008Z</time>
      </trkpt>
      <trkpt lat="42.97831" lon="0.7716">
        <ele>608</ele>
        <time>2017-06-10T17:48:43.008Z</time>
      </trkpt>
      <trkpt lat="42.97833" lon="0.77166">
        <ele>608</ele>
        <time>2017-06-10T17:48:44.008Z</time>
      </trkpt>
      <trkpt lat="42.97835" lon="0.77173">
        <ele>608</ele>
        <time>2017-06-10T17:48:45.008Z</time>
      </trkpt>
      <trkpt lat="42.97836" lon="0.77181">
        <ele>608</ele>
        <time>2017-06-10T17:48:46.008Z</time>
      </trkpt>
      <trkpt lat="42.97838" lon="0.7719">
        <ele>608</ele>
        <time>2017-06-10T17:48:47.008Z</time>
      </trkpt>
      <trkpt lat="42.9784" lon="0.77198">
        <ele>608</ele>
        <time>2017-06-10T17:48:48.008Z</time>
      </trkpt>
      <trkpt lat="42.97842" lon="0.77207">
        <ele>608</ele>
        <time>2017-06-10T17:48:49.008Z</time>
      </trkpt>
      <trkpt lat="42.97844" lon="0.77216">
        <ele>608</ele>
        <time>2017-06-10T17:48:50.008Z</time>
      </trkpt>
      <trkpt lat="42.97846" lon="0.77225">
        <ele>608</ele>
        <time>2017-06-10T17:48:51.008Z</time>
      </trkpt>
      <trkpt lat="42.97848" lon="0.77235">
        <ele>608</ele>
        <time>2017-06-10T17:48:52.008Z</time>
      </trkpt>
      <trkpt lat="42.9785" lon="0.77246">
        <ele>608</ele>
        <time>2017-06-10T17:48:53.008Z</time>
      </trkpt>
      <trkpt lat="42.97852" lon="0.77256">
        <ele>608</ele>
        <time>2017-06-10T17:48:54.008Z</time>
      </trkpt>
      <trkpt lat="42.97854" lon="0.77266">
        <ele>608</ele>
        <time>2017-06-10T17:48:55.008Z</time>
      </trkpt>
      <trkpt lat="42.97857" lon="0.77277">
        <ele>608</ele>
        <time>2017-06-10T17:48:56.008Z</time>
      </trkpt>
      <trkpt lat="42.97859" lon="0.77288">
        <ele>608</ele>
        <time>2017-06-10T17:48:57.008Z</time>
      </trkpt>
      <trkpt lat="42.9786" lon="0.773">
        <ele>608</ele>
        <time>2017-06-10T17:48:58.008Z</time>
      </trkpt>
      <trkpt lat="42.97861" lon="0.77311">
        <ele>608</ele>
        <time>2017-06-10T17:48:59.008Z</time>
      </trkpt>
      <trkpt lat="42.97861" lon="0.77323">
        <ele>608</ele>
        <time>2017-06-10T17:49:00.008Z</time>
      </trkpt>
      <trkpt lat="42.97858" lon="0.77335">
        <ele>607.30434782609</ele>
        <time>2017-06-10T17:49:01.008Z</time>
      </trkpt>
      <trkpt lat="42.97854" lon="0.77346">
        <ele>603</ele>
        <time>2017-06-10T17:49:02.008Z</time>
      </trkpt>
      <trkpt lat="42.9784" lon="0.77378">
        <ele>601.792</ele>
        <time>2017-06-10T17:49:05.008Z</time>
      </trkpt>
      <trkpt lat="42.97835" lon="0.7739">
        <ele>600.792</ele>
        <time>2017-06-10T17:49:06.008Z</time>
      </trkpt>
      <trkpt lat="42.97832" lon="0.77402">
        <ele>600</ele>
        <time>2017-06-10T17:49:07.008Z</time>
      </trkpt>
      <trkpt lat="42.9783" lon="0.77415">
        <ele>600</ele>
        <time>2017-06-10T17:49:08.008Z</time>
      </trkpt>
      <trkpt lat="42.9783" lon="0.77428">
        <ele>600</ele>
        <time>2017-06-10T17:49:09.008Z</time>
      </trkpt>
      <trkpt lat="42.97832" lon="0.77441">
        <ele>599.792</ele>
        <time>2017-06-10T17:49:10.008Z</time>
      </trkpt>
      <trkpt lat="42.97834" lon="0.77454">
        <ele>598.792</ele>
        <time>2017-06-10T17:49:11.008Z</time>
      </trkpt>
      <trkpt lat="42.97838" lon="0.77467">
        <ele>598</ele>
        <time>2017-06-10T17:49:12.008Z</time>
      </trkpt>
      <trkpt lat="42.97841" lon="0.77479">
        <ele>598</ele>
        <time>2017-06-10T17:49:13.008Z</time>
      </trkpt>
      <trkpt lat="42.97844" lon="0.77493">
        <ele>598</ele>
        <time>2017-06-10T17:49:14.008Z</time>
      </trkpt>
      <trkpt lat="42.97846" lon="0.77506">
        <ele>598</ele>
        <time>2017-06-10T17:49:15.008Z</time>
      </trkpt>
      <trkpt lat="42.97847" lon="0.7752">
        <ele>597.376</ele>
        <time>2017-06-10T17:49:16.008Z</time>
      </trkpt>
      <trkpt lat="42.97847" lon="0.77535">
        <ele>595</ele>
        <time>2017-06-10T17:49:17.008Z</time>
      </trkpt>
      <trkpt lat="42.97844" lon="0.77549">
        <ele>595</ele>
        <time>2017-06-10T17:49:18.008Z</time>
      </trkpt>
      <trkpt lat="42.97841" lon="0.77563">
        <ele>595</ele>
        <time>2017-06-10T17:49:19.008Z</time>
      </trkpt>
      <trkpt lat="42.97839" lon="0.77577">
        <ele>595</ele>
        <time>2017-06-10T17:49:20.008Z</time>
      </trkpt>
      <trkpt lat="42.97838" lon="0.7759">
        <ele>594.584</ele>
        <time>2017-06-10T17:49:21.008Z</time>
      </trkpt>
      <trkpt lat="42.97839" lon="0.77604">
        <ele>592.584</ele>
        <time>2017-06-10T17:49:22.008Z</time>
      </trkpt>
      <trkpt lat="42.97841" lon="0.77618">
        <ele>591</ele>
        <time>2017-06-10T17:49:23.008Z</time>
      </trkpt>
      <trkpt lat="42.97844" lon="0.77632">
        <ele>590.792</ele>
        <time>2017-06-10T17:49:24.008Z</time>
      </trkpt>
      <trkpt lat="42.97848" lon="0.77646">
        <ele>590</ele>
        <time>2017-06-10T17:49:25.008Z</time>
      </trkpt>
      <trkpt lat="42.97852" lon="0.77659">
        <ele>589.792</ele>
        <time>2017-06-10T17:49:26.008Z</time>
      </trkpt>
      <trkpt lat="42.97856" lon="0.77673">
        <ele>588.792</ele>
        <time>2017-06-10T17:49:27.008Z</time>
      </trkpt>
      <trkpt lat="42.97859" lon="0.77687">
        <ele>587.792</ele>
        <time>2017-06-10T17:49:28.008Z</time>
      </trkpt>
      <trkpt lat="42.97861" lon="0.77702">
        <ele>587</ele>
        <time>2017-06-10T17:49:29.008Z</time>
      </trkpt>
      <trkpt lat="42.97863" lon="0.77717">
        <ele>586.792</ele>
        <time>2017-06-10T17:49:30.008Z</time>
      </trkpt>
      <trkpt lat="42.97864" lon="0.77733">
        <ele>585.792</ele>
        <time>2017-06-10T17:49:31.008Z</time>
      </trkpt>
      <trkpt lat="42.97864" lon="0.77748">
        <ele>585</ele>
        <time>2017-06-10T17:49:32.008Z</time>
      </trkpt>
      <trkpt lat="42.97865" lon="0.77763">
        <ele>585</ele>
        <time>2017-06-10T17:49:33.008Z</time>
      </trkpt>
      <trkpt lat="42.97866" lon="0.77779">
        <ele>584.792</ele>
        <time>2017-06-10T17:49:34.008Z</time>
      </trkpt>
      <trkpt lat="42.97867" lon="0.77793">
        <ele>584</ele>
        <time>2017-06-10T17:49:35.008Z</time>
      </trkpt>
      <trkpt lat="42.97869" lon="0.77808">
        <ele>583.792</ele>
        <time>2017-06-10T17:49:36.008Z</time>
      </trkpt>
      <trkpt lat="42.97873" lon="0.77822">
        <ele>583</ele>
        <time>2017-06-10T17:49:37.008Z</time>
      </trkpt>
      <trkpt lat="42.97877" lon="0.77836">
        <ele>583</ele>
        <time>2017-06-10T17:49:38.008Z</time>
      </trkpt>
      <trkpt lat="42.97881" lon="0.7785">
        <ele>582.792</ele>
        <time>2017-06-10T17:49:39.008Z</time>
      </trkpt>
      <trkpt lat="42.97885" lon="0.77864">
        <ele>581.792</ele>
        <time>2017-06-10T17:49:40.008Z</time>
      </trkpt>
      <trkpt lat="42.97889" lon="0.77878">
        <ele>580.792</ele>
        <time>2017-06-10T17:49:41.008Z</time>
      </trkpt>
      <trkpt lat="42.97894" lon="0.77892">
        <ele>579.792</ele>
        <time>2017-06-10T17:49:42.008Z</time>
      </trkpt>
      <trkpt lat="42.97898" lon="0.77907">
        <ele>579</ele>
        <time>2017-06-10T17:49:43.008Z</time>
      </trkpt>
      <trkpt lat="42.97902" lon="0.77922">
        <ele>578.792</ele>
        <time>2017-06-10T17:49:44.008Z</time>
      </trkpt>
      <trkpt lat="42.97905" lon="0.77938">
        <ele>578</ele>
        <time>2017-06-10T17:49:45.008Z</time>
      </trkpt>
      <trkpt lat="42.97907" lon="0.77953">
        <ele>578</ele>
        <time>2017-06-10T17:49:46.008Z</time>
      </trkpt>
      <trkpt lat="42.97909" lon="0.77968">
        <ele>578</ele>
        <time>2017-06-10T17:49:47.008Z</time>
      </trkpt>
      <trkpt lat="42.97909" lon="0.77984">
        <ele>577.792</ele>
        <time>2017-06-10T17:49:48.008Z</time>
      </trkpt>
      <trkpt lat="42.9791" lon="0.78">
        <ele>577</ele>
        <time>2017-06-10T17:49:49.008Z</time>
      </trkpt>
      <trkpt lat="42.97909" lon="0.78015">
        <ele>577</ele>
        <time>2017-06-10T17:49:50.008Z</time>
      </trkpt>
      <trkpt lat="42.97909" lon="0.7803">
        <ele>576.584</ele>
        <time>2017-06-10T17:49:51.008Z</time>
      </trkpt>
      <trkpt lat="42.97909" lon="0.78046">
        <ele>575</ele>
        <time>2017-06-10T17:49:52.008Z</time>
      </trkpt>
      <trkpt lat="42.97909" lon="0.78061">
        <ele>575</ele>
        <time>2017-06-10T17:49:53.008Z</time>
      </trkpt>
      <trkpt lat="42.97908" lon="0.78076">
        <ele>574.792</ele>
        <time>2017-06-10T17:49:54.008Z</time>
      </trkpt>
      <trkpt lat="42.97908" lon="0.7809">
        <ele>574</ele>
        <time>2017-06-10T17:49:55.008Z</time>
      </trkpt>
      <trkpt lat="42.97908" lon="0.78105">
        <ele>574</ele>
        <time>2017-06-10T17:49:56.008Z</time>
      </trkpt>
      <trkpt lat="42.97908" lon="0.7812">
        <ele>573.792</ele>
        <time>2017-06-10T17:49:57.008Z</time>
      </trkpt>
      <trkpt lat="42.97908" lon="0.78134">
        <ele>573</ele>
        <time>2017-06-10T17:49:58.008Z</time>
      </trkpt>
      <trkpt lat="42.97908" lon="0.78148">
        <ele>573</ele>
        <time>2017-06-10T17:49:59.008Z</time>
      </trkpt>
      <trkpt lat="42.97909" lon="0.78162">
        <ele>572.792</ele>
        <time>2017-06-10T17:50:00.008Z</time>
      </trkpt>
      <trkpt lat="42.97909" lon="0.78175">
        <ele>572</ele>
        <time>2017-06-10T17:50:01.008Z</time>
      </trkpt>
      <trkpt lat="42.97911" lon="0.78188">
        <ele>572</ele>
        <time>2017-06-10T17:50:02.008Z</time>
      </trkpt>
      <trkpt lat="42.97912" lon="0.78201">
        <ele>572</ele>
        <time>2017-06-10T17:50:03.008Z</time>
      </trkpt>
      <trkpt lat="42.97914" lon="0.78214">
        <ele>572</ele>
        <time>2017-06-10T17:50:04.008Z</time>
      </trkpt>
      <trkpt lat="42.97917" lon="0.78226">
        <ele>572</ele>
        <time>2017-06-10T17:50:05.008Z</time>
      </trkpt>
      <trkpt lat="42.97918" lon="0.78239">
        <ele>571.792</ele>
        <time>2017-06-10T17:50:06.008Z</time>
      </trkpt>
      <trkpt lat="42.9792" lon="0.78252">
        <ele>571</ele>
        <time>2017-06-10T17:50:07.008Z</time>
      </trkpt>
      <trkpt lat="42.97922" lon="0.78264">
        <ele>571</ele>
        <time>2017-06-10T17:50:08.008Z</time>
      </trkpt>
      <trkpt lat="42.97924" lon="0.78277">
        <ele>571</ele>
        <time>2017-06-10T17:50:09.008Z</time>
      </trkpt>
      <trkpt lat="42.97926" lon="0.78289">
        <ele>571</ele>
        <time>2017-06-10T17:50:10.008Z</time>
      </trkpt>
      <trkpt lat="42.97928" lon="0.78302">
        <ele>570.792</ele>
        <time>2017-06-10T17:50:11.008Z</time>
      </trkpt>
      <trkpt lat="42.97929" lon="0.78314">
        <ele>570</ele>
        <time>2017-06-10T17:50:12.008Z</time>
      </trkpt>
      <trkpt lat="42.97929" lon="0.78326">
        <ele>570</ele>
        <time>2017-06-10T17:50:13.008Z</time>
      </trkpt>
      <trkpt lat="42.9793" lon="0.78338">
        <ele>570</ele>
        <time>2017-06-10T17:50:14.008Z</time>
      </trkpt>
      <trkpt lat="42.9793" lon="0.78363">
        <ele>570</ele>
        <time>2017-06-10T17:50:16.008Z</time>
      </trkpt>
      <trkpt lat="42.97927" lon="0.78388">
        <ele>570</ele>
        <time>2017-06-10T17:50:18.008Z</time>
      </trkpt>
      <trkpt lat="42.97924" lon="0.78401">
        <ele>570</ele>
        <time>2017-06-10T17:50:19.008Z</time>
      </trkpt>
      <trkpt lat="42.9792" lon="0.78413">
        <ele>570</ele>
        <time>2017-06-10T17:50:20.008Z</time>
      </trkpt>
      <trkpt lat="42.97917" lon="0.78426">
        <ele>569.376</ele>
        <time>2017-06-10T17:50:21.008Z</time>
      </trkpt>
      <trkpt lat="42.97914" lon="0.78439">
        <ele>567</ele>
        <time>2017-06-10T17:50:22.008Z</time>
      </trkpt>
      <trkpt lat="42.9791" lon="0.78451">
        <ele>567</ele>
        <time>2017-06-10T17:50:23.008Z</time>
      </trkpt>
      <trkpt lat="42.97907" lon="0.78464">
        <ele>567</ele>
        <time>2017-06-10T17:50:24.008Z</time>
      </trkpt>
      <trkpt lat="42.97902" lon="0.7849">
        <ele>566.584</ele>
        <time>2017-06-10T17:50:26.008Z</time>
      </trkpt>
      <trkpt lat="42.97902" lon="0.78504">
        <ele>565</ele>
        <time>2017-06-10T17:50:27.008Z</time>
      </trkpt>
      <trkpt lat="42.97902" lon="0.78518">
        <ele>565</ele>
        <time>2017-06-10T17:50:28.008Z</time>
      </trkpt>
      <trkpt lat="42.97904" lon="0.78531">
        <ele>565</ele>
        <time>2017-06-10T17:50:29.008Z</time>
      </trkpt>
      <trkpt lat="42.97906" lon="0.78545">
        <ele>565</ele>
        <time>2017-06-10T17:50:30.008Z</time>
      </trkpt>
      <trkpt lat="42.97908" lon="0.78558">
        <ele>564.376</ele>
        <time>2017-06-10T17:50:31.008Z</time>
      </trkpt>
      <trkpt lat="42.97911" lon="0.78572">
        <ele>561.584</ele>
        <time>2017-06-10T17:50:32.008Z</time>
      </trkpt>
      <trkpt lat="42.97914" lon="0.78585">
        <ele>560</ele>
        <time>2017-06-10T17:50:33.008Z</time>
      </trkpt>
      <trkpt lat="42.97917" lon="0.78599">
        <ele>559.792</ele>
        <time>2017-06-10T17:50:34.008Z</time>
      </trkpt>
      <trkpt lat="42.97921" lon="0.78612">
        <ele>559</ele>
        <time>2017-06-10T17:50:35.008Z</time>
      </trkpt>
      <trkpt lat="42.97925" lon="0.78625">
        <ele>559</ele>
        <time>2017-06-10T17:50:36.008Z</time>
      </trkpt>
      <trkpt lat="42.97929" lon="0.78637">
        <ele>558.792</ele>
        <time>2017-06-10T17:50:37.008Z</time>
      </trkpt>
      <trkpt lat="42.97935" lon="0.78649">
        <ele>558</ele>
        <time>2017-06-10T17:50:38.008Z</time>
      </trkpt>
      <trkpt lat="42.97942" lon="0.7866">
        <ele>558</ele>
        <time>2017-06-10T17:50:39.008Z</time>
      </trkpt>
      <trkpt lat="42.9795" lon="0.78669">
        <ele>558</ele>
        <time>2017-06-10T17:50:40.008Z</time>
      </trkpt>
      <trkpt lat="42.97959" lon="0.78677">
        <ele>557.792</ele>
        <time>2017-06-10T17:50:41.008Z</time>
      </trkpt>
      <trkpt lat="42.97969" lon="0.78683">
        <ele>556.792</ele>
        <time>2017-06-10T17:50:42.008Z</time>
      </trkpt>
      <trkpt lat="42.97978" lon="0.78689">
        <ele>556</ele>
        <time>2017-06-10T17:50:43.008Z</time>
      </trkpt>
      <trkpt lat="42.97988" lon="0.78694">
        <ele>555.792</ele>
        <time>2017-06-10T17:50:44.008Z</time>
      </trkpt>
      <trkpt lat="42.97998" lon="0.78699">
        <ele>554.792</ele>
        <time>2017-06-10T17:50:45.008Z</time>
      </trkpt>
      <trkpt lat="42.98008" lon="0.78704">
        <ele>553.792</ele>
        <time>2017-06-10T17:50:46.008Z</time>
      </trkpt>
      <trkpt lat="42.98017" lon="0.78708">
        <ele>553</ele>
        <time>2017-06-10T17:50:47.008Z</time>
      </trkpt>
      <trkpt lat="42.98027" lon="0.78713">
        <ele>553</ele>
        <time>2017-06-10T17:50:48.008Z</time>
      </trkpt>
      <trkpt lat="42.98037" lon="0.78718">
        <ele>553</ele>
        <time>2017-06-10T17:50:49.008Z</time>
      </trkpt>
      <trkpt lat="42.98048" lon="0.78722">
        <ele>552.792</ele>
        <time>2017-06-10T17:50:50.008Z</time>
      </trkpt>
      <trkpt lat="42.98058" lon="0.78727">
        <ele>552</ele>
        <time>2017-06-10T17:50:51.008Z</time>
      </trkpt>
      <trkpt lat="42.98068" lon="0.78732">
        <ele>552</ele>
        <time>2017-06-10T17:50:52.008Z</time>
      </trkpt>
      <trkpt lat="42.98078" lon="0.78736">
        <ele>552</ele>
        <time>2017-06-10T17:50:53.008Z</time>
      </trkpt>
      <trkpt lat="42.98088" lon="0.78741">
        <ele>551.584</ele>
        <time>2017-06-10T17:50:54.008Z</time>
      </trkpt>
      <trkpt lat="42.98098" lon="0.78745">
        <ele>549.792</ele>
        <time>2017-06-10T17:50:55.008Z</time>
      </trkpt>
      <trkpt lat="42.98108" lon="0.7875">
        <ele>548.792</ele>
        <time>2017-06-10T17:50:56.008Z</time>
      </trkpt>
      <trkpt lat="42.98119" lon="0.78754">
        <ele>548</ele>
        <time>2017-06-10T17:50:57.008Z</time>
      </trkpt>
      <trkpt lat="42.98129" lon="0.78759">
        <ele>548</ele>
        <time>2017-06-10T17:50:58.008Z</time>
      </trkpt>
      <trkpt lat="42.98139" lon="0.78764">
        <ele>547.792</ele>
        <time>2017-06-10T17:50:59.008Z</time>
      </trkpt>
      <trkpt lat="42.98149" lon="0.78768">
        <ele>547</ele>
        <time>2017-06-10T17:51:00.008Z</time>
      </trkpt>
      <trkpt lat="42.98159" lon="0.78773">
        <ele>547</ele>
        <time>2017-06-10T17:51:01.008Z</time>
      </trkpt>
      <trkpt lat="42.98168" lon="0.78778">
        <ele>547</ele>
        <time>2017-06-10T17:51:02.008Z</time>
      </trkpt>
      <trkpt lat="42.98178" lon="0.78783">
        <ele>546.584</ele>
        <time>2017-06-10T17:51:03.008Z</time>
      </trkpt>
      <trkpt lat="42.98187" lon="0.78788">
        <ele>544.792</ele>
        <time>2017-06-10T17:51:04.008Z</time>
      </trkpt>
      <trkpt lat="42.98197" lon="0.78793">
        <ele>544</ele>
        <time>2017-06-10T17:51:05.008Z</time>
      </trkpt>
      <trkpt lat="42.98207" lon="0.78798">
        <ele>543.792</ele>
        <time>2017-06-10T17:51:06.008Z</time>
      </trkpt>
      <trkpt lat="42.98216" lon="0.78803">
        <ele>543</ele>
        <time>2017-06-10T17:51:07.008Z</time>
      </trkpt>
      <trkpt lat="42.98226" lon="0.78807">
        <ele>542.792</ele>
        <time>2017-06-10T17:51:08.008Z</time>
      </trkpt>
      <trkpt lat="42.98235" lon="0.78812">
        <ele>541.792</ele>
        <time>2017-06-10T17:51:09.008Z</time>
      </trkpt>
      <trkpt lat="42.98244" lon="0.78816">
        <ele>541</ele>
        <time>2017-06-10T17:51:10.008Z</time>
      </trkpt>
      <trkpt lat="42.98253" lon="0.78821">
        <ele>540.792</ele>
        <time>2017-06-10T17:51:11.008Z</time>
      </trkpt>
      <trkpt lat="42.98268" lon="0.78828">
        <ele>540</ele>
        <time>2017-06-10T17:51:13.008Z</time>
      </trkpt>
      <trkpt lat="42.98278" lon="0.78831">
        <ele>539</ele>
        <time>2017-06-10T17:51:15.008Z</time>
      </trkpt>
      <trkpt lat="42.98285" lon="0.78828">
        <ele>539</ele>
        <time>2017-06-10T17:51:17.008Z</time>
      </trkpt>
      <trkpt lat="42.98291" lon="0.78815">
        <ele>540</ele>
        <time>2017-06-10T17:51:20.008Z</time>
      </trkpt>
      <trkpt lat="42.98296" lon="0.78808">
        <ele>540</ele>
        <time>2017-06-10T17:51:22.008Z</time>
      </trkpt>
      <trkpt lat="42.98301" lon="0.78799">
        <ele>540</ele>
        <time>2017-06-10T17:51:25.008Z</time>
      </trkpt>
      <trkpt lat="42.98305" lon="0.78788">
        <ele>540</ele>
        <time>2017-06-10T17:51:28.008Z</time>
      </trkpt>
      <trkpt lat="42.98306" lon="0.78776">
        <ele>540.416</ele>
        <time>2017-06-10T17:51:31.008Z</time>
      </trkpt>
      <trkpt lat="42.98306" lon="0.78768">
        <ele>542</ele>
        <time>2017-06-10T17:51:33.008Z</time>
      </trkpt>
      <trkpt lat="42.98305" lon="0.7876">
        <ele>542</ele>
        <time>2017-06-10T17:51:35.008Z</time>
      </trkpt>
      <trkpt lat="42.98304" lon="0.78752">
        <ele>543</ele>
        <time>2017-06-10T17:51:37.008Z</time>
      </trkpt>
      <trkpt lat="42.98304" lon="0.78744">
        <ele>543</ele>
        <time>2017-06-10T17:51:39.008Z</time>
      </trkpt>
      <trkpt lat="42.98303" lon="0.78737">
        <ele>543.416</ele>
        <time>2017-06-10T17:51:41.008Z</time>
      </trkpt>
      <trkpt lat="42.98304" lon="0.78726">
        <ele>545</ele>
        <time>2017-06-10T17:51:44.008Z</time>
      </trkpt>
      <trkpt lat="42.98305" lon="0.78714">
        <ele>546</ele>
        <time>2017-06-10T17:51:47.008Z</time>
      </trkpt>
      <trkpt lat="42.98305" lon="0.78702">
        <ele>546</ele>
        <time>2017-06-10T17:51:50.008Z</time>
      </trkpt>
      <trkpt lat="42.98307" lon="0.78691">
        <ele>547</ele>
        <time>2017-06-10T17:51:53.008Z</time>
      </trkpt>
      <trkpt lat="42.98307" lon="0.78679">
        <ele>547</ele>
        <time>2017-06-10T17:51:56.008Z</time>
      </trkpt>
      <trkpt lat="42.98308" lon="0.78667">
        <ele>547</ele>
        <time>2017-06-10T17:51:59.008Z</time>
      </trkpt>
      <trkpt lat="42.98308" lon="0.78659">
        <ele>547.416</ele>
        <time>2017-06-10T17:52:01.008Z</time>
      </trkpt>
      <trkpt lat="42.98308" lon="0.78647">
        <ele>549</ele>
        <time>2017-06-10T17:52:04.008Z</time>
      </trkpt>
      <trkpt lat="42.98309" lon="0.78636">
        <ele>549</ele>
        <time>2017-06-10T17:52:07.008Z</time>
      </trkpt>
      <trkpt lat="42.9831" lon="0.78624">
        <ele>549</ele>
        <time>2017-06-10T17:52:10.008Z</time>
      </trkpt>
      <trkpt lat="42.9831" lon="0.78612">
        <ele>550</ele>
        <time>2017-06-10T17:52:13.008Z</time>
      </trkpt>
      <trkpt lat="42.98312" lon="0.78597">
        <ele>550</ele>
        <time>2017-06-10T17:52:17.008Z</time>
      </trkpt>
      <trkpt lat="42.98314" lon="0.78582">
        <ele>550</ele>
        <time>2017-06-10T17:52:20.008Z</time>
      </trkpt>
      <trkpt lat="42.9832" lon="0.7857">
        <ele>551</ele>
        <time>2017-06-10T17:52:23.008Z</time>
      </trkpt>
      <trkpt lat="42.98329" lon="0.78563">
        <ele>551</ele>
        <time>2017-06-10T17:52:26.008Z</time>
      </trkpt>
      <trkpt lat="42.98339" lon="0.7856">
        <ele>551</ele>
        <time>2017-06-10T17:52:30.008Z</time>
      </trkpt>
      <trkpt lat="42.98349" lon="0.78566">
        <ele>553</ele>
        <time>2017-06-10T17:52:35.008Z</time>
      </trkpt>
      <trkpt lat="42.98356" lon="0.78572">
        <ele>553</ele>
        <time>2017-06-10T17:52:38.008Z</time>
      </trkpt>
      <trkpt lat="42.98364" lon="0.78576">
        <ele>553.208</ele>
        <time>2017-06-10T17:52:41.008Z</time>
      </trkpt>
      <trkpt lat="42.98369" lon="0.78581">
        <ele>554</ele>
        <time>2017-06-10T17:52:44.008Z</time>
      </trkpt>
      <trkpt lat="42.98375" lon="0.78585">
        <ele>554</ele>
        <time>2017-06-10T17:52:47.008Z</time>
      </trkpt>
      <trkpt lat="42.98382" lon="0.78586">
        <ele>554</ele>
        <time>2017-06-10T17:52:50.008Z</time>
      </trkpt>
      <trkpt lat="42.98389" lon="0.78586">
        <ele>559</ele>
        <time>2017-06-10T17:52:53.008Z</time>
      </trkpt>
      <trkpt lat="42.98396" lon="0.78586">
        <ele>559.208</ele>
        <time>2017-06-10T17:52:56.008Z</time>
      </trkpt>
      <trkpt lat="42.98404" lon="0.78586">
        <ele>560</ele>
        <time>2017-06-10T17:52:59.008Z</time>
      </trkpt>
      <trkpt lat="42.98409" lon="0.78587">
        <ele>560.208</ele>
        <time>2017-06-10T17:53:01.008Z</time>
      </trkpt>
      <trkpt lat="42.98416" lon="0.7859">
        <ele>561</ele>
        <time>2017-06-10T17:53:04.008Z</time>
      </trkpt>
      <trkpt lat="42.98421" lon="0.78594">
        <ele>561.208</ele>
        <time>2017-06-10T17:53:06.008Z</time>
      </trkpt>
      <trkpt lat="42.98427" lon="0.78599">
        <ele>562</ele>
        <time>2017-06-10T17:53:08.008Z</time>
      </trkpt>
      <trkpt lat="42.98432" lon="0.78604">
        <ele>562</ele>
        <time>2017-06-10T17:53:10.008Z</time>
      </trkpt>
      <trkpt lat="42.98439" lon="0.78612">
        <ele>563</ele>
        <time>2017-06-10T17:53:13.008Z</time>
      </trkpt>
      <trkpt lat="42.98446" lon="0.78621">
        <ele>563</ele>
        <time>2017-06-10T17:53:16.008Z</time>
      </trkpt>
      <trkpt lat="42.98452" lon="0.78627">
        <ele>563</ele>
        <time>2017-06-10T17:53:19.008Z</time>
      </trkpt>
      <trkpt lat="42.9846" lon="0.78626">
        <ele>564</ele>
        <time>2017-06-10T17:53:23.008Z</time>
      </trkpt>
      <trkpt lat="42.98462" lon="0.78614">
        <ele>564</ele>
        <time>2017-06-10T17:53:27.008Z</time>
      </trkpt>
      <trkpt lat="42.98455" lon="0.78604">
        <ele>564.208</ele>
        <time>2017-06-10T17:53:31.008Z</time>
      </trkpt>
      <trkpt lat="42.98446" lon="0.78596">
        <ele>565</ele>
        <time>2017-06-10T17:53:35.008Z</time>
      </trkpt>
      <trkpt lat="42.98441" lon="0.78588">
        <ele>565</ele>
        <time>2017-06-10T17:53:38.008Z</time>
      </trkpt>
      <trkpt lat="42.98436" lon="0.78577">
        <ele>568</ele>
        <time>2017-06-10T17:53:42.008Z</time>
      </trkpt>
      <trkpt lat="42.98429" lon="0.78568">
        <ele>569</ele>
        <time>2017-06-10T17:53:47.008Z</time>
      </trkpt>
      <trkpt lat="42.98422" lon="0.78561">
        <ele>569.4000051717</ele>
        <time>2017-06-10T17:53:51.008Z</time>
      </trkpt>
      <trkpt lat="42.98412" lon="0.78554">
        <ele>571.208</ele>
        <time>2017-06-10T17:53:56.008Z</time>
      </trkpt>
      <trkpt lat="42.98402" lon="0.78549">
        <ele>572.416</ele>
        <time>2017-06-10T17:54:01.008Z</time>
      </trkpt>
      <trkpt lat="42.98393" lon="0.78543">
        <ele>574</ele>
        <time>2017-06-10T17:54:06.008Z</time>
      </trkpt>
      <trkpt lat="42.98385" lon="0.78536">
        <ele>574.208</ele>
        <time>2017-06-10T17:54:11.008Z</time>
      </trkpt>
      <trkpt lat="42.98378" lon="0.78524">
        <ele>575</ele>
        <time>2017-06-10T17:54:16.008Z</time>
      </trkpt>
      <trkpt lat="42.98372" lon="0.78513">
        <ele>575</ele>
        <time>2017-06-10T17:54:20.008Z</time>
      </trkpt>
      <trkpt lat="42.9837" lon="0.78502">
        <ele>577</ele>
        <time>2017-06-10T17:54:24.008Z</time>
      </trkpt>
      <trkpt lat="42.98368" lon="0.78489">
        <ele>578</ele>
        <time>2017-06-10T17:54:28.008Z</time>
      </trkpt>
      <trkpt lat="42.98368" lon="0.78477">
        <ele>579</ele>
        <time>2017-06-10T17:54:32.008Z</time>
      </trkpt>
      <trkpt lat="42.98372" lon="0.78462">
        <ele>579</ele>
        <time>2017-06-10T17:54:38.008Z</time>
      </trkpt>
      <trkpt lat="42.98374" lon="0.78452">
        <ele>579.416</ele>
        <time>2017-06-10T17:54:41.008Z</time>
      </trkpt>
      <trkpt lat="42.98379" lon="0.78441">
        <ele>581</ele>
        <time>2017-06-10T17:54:45.008Z</time>
      </trkpt>
      <trkpt lat="42.98378" lon="0.78429">
        <ele>581</ele>
        <time>2017-06-10T17:54:50.008Z</time>
      </trkpt>
      <trkpt lat="42.98376" lon="0.78419">
        <ele>583</ele>
        <time>2017-06-10T17:54:54.008Z</time>
      </trkpt>
      <trkpt lat="42.98374" lon="0.78411">
        <ele>583</ele>
        <time>2017-06-10T17:54:58.008Z</time>
      </trkpt>
      <trkpt lat="42.98378" lon="0.78403">
        <ele>583.416</ele>
        <time>2017-06-10T17:55:01.008Z</time>
      </trkpt>
      <trkpt lat="42.98385" lon="0.78403">
        <ele>585</ele>
        <time>2017-06-10T17:55:05.008Z</time>
      </trkpt>
      <trkpt lat="42.98392" lon="0.78411">
        <ele>585</ele>
        <time>2017-06-10T17:55:09.008Z</time>
      </trkpt>
      <trkpt lat="42.98392" lon="0.78424">
        <ele>586</ele>
        <time>2017-06-10T17:55:13.008Z</time>
      </trkpt>
      <trkpt lat="42.98391" lon="0.78437">
        <ele>586</ele>
        <time>2017-06-10T17:55:17.008Z</time>
      </trkpt>
      <trkpt lat="42.9839" lon="0.78451">
        <ele>586.416</ele>
        <time>2017-06-10T17:55:21.008Z</time>
      </trkpt>
      <trkpt lat="42.98392" lon="0.78463">
        <ele>588</ele>
        <time>2017-06-10T17:55:25.008Z</time>
      </trkpt>
      <trkpt lat="42.98395" lon="0.78473">
        <ele>588</ele>
        <time>2017-06-10T17:55:28.008Z</time>
      </trkpt>
      <trkpt lat="42.98401" lon="0.7848">
        <ele>590</ele>
        <time>2017-06-10T17:55:32.008Z</time>
      </trkpt>
      <trkpt lat="42.98408" lon="0.7848">
        <ele>590</ele>
        <time>2017-06-10T17:55:37.008Z</time>
      </trkpt>
      <trkpt lat="42.98417" lon="0.78478">
        <ele>590.416</ele>
        <time>2017-06-10T17:55:41.008Z</time>
      </trkpt>
      <trkpt lat="42.98424" lon="0.78476">
        <ele>592</ele>
        <time>2017-06-10T17:55:44.008Z</time>
      </trkpt>
      <trkpt lat="42.98431" lon="0.78474">
        <ele>594</ele>
        <time>2017-06-10T17:55:47.008Z</time>
      </trkpt>
      <trkpt lat="42.98439" lon="0.78468">
        <ele>594</ele>
        <time>2017-06-10T17:55:51.008Z</time>
      </trkpt>
      <trkpt lat="42.98446" lon="0.7846">
        <ele>594</ele>
        <time>2017-06-10T17:55:55.008Z</time>
      </trkpt>
      <trkpt lat="42.98448" lon="0.7845">
        <ele>594</ele>
        <time>2017-06-10T17:55:59.008Z</time>
      </trkpt>
      <trkpt lat="42.98451" lon="0.78439">
        <ele>597</ele>
        <time>2017-06-10T17:56:03.008Z</time>
      </trkpt>
      <trkpt lat="42.98453" lon="0.78428">
        <ele>599</ele>
        <time>2017-06-10T17:56:07.008Z</time>
      </trkpt>
      <trkpt lat="42.98457" lon="0.78416">
        <ele>599</ele>
        <time>2017-06-10T17:56:12.008Z</time>
      </trkpt>
      <trkpt lat="42.98462" lon="0.78405">
        <ele>599</ele>
        <time>2017-06-10T17:56:19.008Z</time>
      </trkpt>
      <trkpt lat="42.98467" lon="0.78393">
        <ele>601</ele>
        <time>2017-06-10T17:56:25.008Z</time>
      </trkpt>
      <trkpt lat="42.98474" lon="0.78382">
        <ele>603</ele>
        <time>2017-06-10T17:56:30.008Z</time>
      </trkpt>
      <trkpt lat="42.98481" lon="0.78369">
        <ele>605</ele>
        <time>2017-06-10T17:56:34.008Z</time>
      </trkpt>
      <trkpt lat="42.98487" lon="0.78359">
        <ele>606</ele>
        <time>2017-06-10T17:56:38.008Z</time>
      </trkpt>
      <trkpt lat="42.98492" lon="0.78344">
        <ele>607</ele>
        <time>2017-06-10T17:56:43.008Z</time>
      </trkpt>
      <trkpt lat="42.98498" lon="0.78333">
        <ele>607</ele>
        <time>2017-06-10T17:56:47.008Z</time>
      </trkpt>
      <trkpt lat="42.98505" lon="0.78321">
        <ele>609</ele>
        <time>2017-06-10T17:56:52.008Z</time>
      </trkpt>
      <trkpt lat="42.98516" lon="0.78315">
        <ele>609</ele>
        <time>2017-06-10T17:56:56.008Z</time>
      </trkpt>
      <trkpt lat="42.98524" lon="0.78307">
        <ele>609.416</ele>
        <time>2017-06-10T17:57:01.008Z</time>
      </trkpt>
      <trkpt lat="42.98532" lon="0.78296">
        <ele>612</ele>
        <time>2017-06-10T17:57:07.008Z</time>
      </trkpt>
      <trkpt lat="42.98539" lon="0.78287">
        <ele>612.208</ele>
        <time>2017-06-10T17:57:11.008Z</time>
      </trkpt>
      <trkpt lat="42.98543" lon="0.78276">
        <ele>613</ele>
        <time>2017-06-10T17:57:15.008Z</time>
      </trkpt>
      <trkpt lat="42.98541" lon="0.78261">
        <ele>613</ele>
        <time>2017-06-10T17:57:19.008Z</time>
      </trkpt>
      <trkpt lat="42.98537" lon="0.78247">
        <ele>615</ele>
        <time>2017-06-10T17:57:23.008Z</time>
      </trkpt>
      <trkpt lat="42.98532" lon="0.78234">
        <ele>615</ele>
        <time>2017-06-10T17:57:27.008Z</time>
      </trkpt>
      <trkpt lat="42.98534" lon="0.7822">
        <ele>618</ele>
        <time>2017-06-10T17:57:32.008Z</time>
      </trkpt>
      <trkpt lat="42.98535" lon="0.78205">
        <ele>619</ele>
        <time>2017-06-10T17:57:37.008Z</time>
      </trkpt>
      <trkpt lat="42.98535" lon="0.78191">
        <ele>621</ele>
        <time>2017-06-10T17:57:42.008Z</time>
      </trkpt>
      <trkpt lat="42.98536" lon="0.78176">
        <ele>621</ele>
        <time>2017-06-10T17:57:47.008Z</time>
      </trkpt>
      <trkpt lat="42.98536" lon="0.7816">
        <ele>622</ele>
        <time>2017-06-10T17:57:53.008Z</time>
      </trkpt>
      <trkpt lat="42.98536" lon="0.78144">
        <ele>622</ele>
        <time>2017-06-10T17:57:59.008Z</time>
      </trkpt>
      <trkpt lat="42.98534" lon="0.78129">
        <ele>626</ele>
        <time>2017-06-10T17:58:04.008Z</time>
      </trkpt>
      <trkpt lat="42.98535" lon="0.78114">
        <ele>626</ele>
        <time>2017-06-10T17:58:08.008Z</time>
      </trkpt>
      <trkpt lat="42.98535" lon="0.78099">
        <ele>627</ele>
        <time>2017-06-10T17:58:13.008Z</time>
      </trkpt>
      <trkpt lat="42.98537" lon="0.78085">
        <ele>627</ele>
        <time>2017-06-10T17:58:18.008Z</time>
      </trkpt>
      <trkpt lat="42.98536" lon="0.78071">
        <ele>629</ele>
        <time>2017-06-10T17:58:23.008Z</time>
      </trkpt>
      <trkpt lat="42.98535" lon="0.78056">
        <ele>631</ele>
        <time>2017-06-10T17:58:28.008Z</time>
      </trkpt>
      <trkpt lat="42.98531" lon="0.78042">
        <ele>633</ele>
        <time>2017-06-10T17:58:33.008Z</time>
      </trkpt>
      <trkpt lat="42.9853" lon="0.78028">
        <ele>633</ele>
        <time>2017-06-10T17:58:38.008Z</time>
      </trkpt>
      <trkpt lat="42.98528" lon="0.78013">
        <ele>635</ele>
        <time>2017-06-10T17:58:43.008Z</time>
      </trkpt>
      <trkpt lat="42.98529" lon="0.77997">
        <ele>635</ele>
        <time>2017-06-10T17:58:48.008Z</time>
      </trkpt>
      <trkpt lat="42.9853" lon="0.77983">
        <ele>637</ele>
        <time>2017-06-10T17:58:53.008Z</time>
      </trkpt>
      <trkpt lat="42.98532" lon="0.77971">
        <ele>637</ele>
        <time>2017-06-10T17:58:57.008Z</time>
      </trkpt>
      <trkpt lat="42.98533" lon="0.7796">
        <ele>637.416</ele>
        <time>2017-06-10T17:59:01.008Z</time>
      </trkpt>
      <trkpt lat="42.98534" lon="0.77946">
        <ele>639</ele>
        <time>2017-06-10T17:59:07.008Z</time>
      </trkpt>
      <trkpt lat="42.98538" lon="0.77936">
        <ele>639</ele>
        <time>2017-06-10T17:59:11.008Z</time>
      </trkpt>
      <trkpt lat="42.98544" lon="0.77924">
        <ele>639</ele>
        <time>2017-06-10T17:59:15.008Z</time>
      </trkpt>
      <trkpt lat="42.98547" lon="0.7791">
        <ele>639</ele>
        <time>2017-06-10T17:59:20.008Z</time>
      </trkpt>
      <trkpt lat="42.9855" lon="0.77897">
        <ele>642</ele>
        <time>2017-06-10T17:59:25.008Z</time>
      </trkpt>
      <trkpt lat="42.98556" lon="0.77885">
        <ele>643</ele>
        <time>2017-06-10T17:59:30.008Z</time>
      </trkpt>
      <trkpt lat="42.98563" lon="0.77872">
        <ele>645.208</ele>
        <time>2017-06-10T17:59:36.008Z</time>
      </trkpt>
      <trkpt lat="42.9857" lon="0.77863">
        <ele>646</ele>
        <time>2017-06-10T17:59:40.008Z</time>
      </trkpt>
      <trkpt lat="42.98577" lon="0.77851">
        <ele>646</ele>
        <time>2017-06-10T17:59:45.008Z</time>
      </trkpt>
      <trkpt lat="42.98581" lon="0.77839">
        <ele>646</ele>
        <time>2017-06-10T17:59:50.008Z</time>
      </trkpt>
      <trkpt lat="42.98584" lon="0.77826">
        <ele>648</ele>
        <time>2017-06-10T17:59:54.008Z</time>
      </trkpt>
      <trkpt lat="42.98585" lon="0.77816">
        <ele>648</ele>
        <time>2017-06-10T17:59:57.008Z</time>
      </trkpt>
      <trkpt lat="42.98588" lon="0.77801">
        <ele>651</ele>
        <time>2017-06-10T18:00:02.008Z</time>
      </trkpt>
      <trkpt lat="42.9859" lon="0.77789">
        <ele>651.416</ele>
        <time>2017-06-10T18:00:06.008Z</time>
      </trkpt>
      <trkpt lat="42.98591" lon="0.77778">
        <ele>653</ele>
        <time>2017-06-10T18:00:10.008Z</time>
      </trkpt>
      <trkpt lat="42.98594" lon="0.77765">
        <ele>653</ele>
        <time>2017-06-10T18:00:15.008Z</time>
      </trkpt>
      <trkpt lat="42.9859" lon="0.77753">
        <ele>653</ele>
        <time>2017-06-10T18:00:19.008Z</time>
      </trkpt>
      <trkpt lat="42.98591" lon="0.77741">
        <ele>655</ele>
        <time>2017-06-10T18:00:23.008Z</time>
      </trkpt>
      <trkpt lat="42.98602" lon="0.77739">
        <ele>655</ele>
        <time>2017-06-10T18:00:29.008Z</time>
      </trkpt>
      <trkpt lat="42.9861" lon="0.77747">
        <ele>657</ele>
        <time>2017-06-10T18:00:33.008Z</time>
      </trkpt>
      <trkpt lat="42.98616" lon="0.77751">
        <ele>659</ele>
        <time>2017-06-10T18:00:37.008Z</time>
      </trkpt>
      <trkpt lat="42.98622" lon="0.77758">
        <ele>659</ele>
        <time>2017-06-10T18:00:40.008Z</time>
      </trkpt>
      <trkpt lat="42.9863" lon="0.77761">
        <ele>660</ele>
        <time>2017-06-10T18:00:43.008Z</time>
      </trkpt>
      <trkpt lat="42.98638" lon="0.7777">
        <ele>661</ele>
        <time>2017-06-10T18:00:48.008Z</time>
      </trkpt>
      <trkpt lat="42.98645" lon="0.7778">
        <ele>662</ele>
        <time>2017-06-10T18:00:53.008Z</time>
      </trkpt>
      <trkpt lat="42.98654" lon="0.77789">
        <ele>662</ele>
        <time>2017-06-10T18:00:58.008Z</time>
      </trkpt>
      <trkpt lat="42.98663" lon="0.77797">
        <ele>664</ele>
        <time>2017-06-10T18:01:04.008Z</time>
      </trkpt>
      <trkpt lat="42.98671" lon="0.7781">
        <ele>665</ele>
        <time>2017-06-10T18:01:10.008Z</time>
      </trkpt>
      <trkpt lat="42.98677" lon="0.77822">
        <ele>667</ele>
        <time>2017-06-10T18:01:15.008Z</time>
      </trkpt>
      <trkpt lat="42.98683" lon="0.77833">
        <ele>668</ele>
        <time>2017-06-10T18:01:20.008Z</time>
      </trkpt>
      <trkpt lat="42.98688" lon="0.77846">
        <ele>669</ele>
        <time>2017-06-10T18:01:24.008Z</time>
      </trkpt>
      <trkpt lat="42.98693" lon="0.77858">
        <ele>669</ele>
        <time>2017-06-10T18:01:28.008Z</time>
      </trkpt>
      <trkpt lat="42.98697" lon="0.77872">
        <ele>671</ele>
        <time>2017-06-10T18:01:33.008Z</time>
      </trkpt>
      <trkpt lat="42.987" lon="0.77885">
        <ele>671</ele>
        <time>2017-06-10T18:01:37.008Z</time>
      </trkpt>
      <trkpt lat="42.98704" lon="0.77897">
        <ele>671.208</ele>
        <time>2017-06-10T18:01:41.008Z</time>
      </trkpt>
      <trkpt lat="42.98709" lon="0.77907">
        <ele>672</ele>
        <time>2017-06-10T18:01:44.008Z</time>
      </trkpt>
      <trkpt lat="42.98714" lon="0.77914">
        <ele>672</ele>
        <time>2017-06-10T18:01:47.008Z</time>
      </trkpt>
      <trkpt lat="42.9872" lon="0.77923">
        <ele>672.208</ele>
        <time>2017-06-10T18:01:51.008Z</time>
      </trkpt>
      <trkpt lat="42.98726" lon="0.77931">
        <ele>673</ele>
        <time>2017-06-10T18:01:54.008Z</time>
      </trkpt>
      <trkpt lat="42.98735" lon="0.7794">
        <ele>673</ele>
        <time>2017-06-10T18:01:58.008Z</time>
      </trkpt>
      <trkpt lat="42.98742" lon="0.77945">
        <ele>672.792</ele>
        <time>2017-06-10T18:02:01.008Z</time>
      </trkpt>
      <trkpt lat="42.98749" lon="0.7795">
        <ele>672</ele>
        <time>2017-06-10T18:02:04.008Z</time>
      </trkpt>
      <trkpt lat="42.98759" lon="0.77954">
        <ele>672</ele>
        <time>2017-06-10T18:02:09.008Z</time>
      </trkpt>
      <trkpt lat="42.9877" lon="0.77953">
        <ele>672</ele>
        <time>2017-06-10T18:02:13.008Z</time>
      </trkpt>
      <trkpt lat="42.98782" lon="0.7795">
        <ele>672</ele>
        <time>2017-06-10T18:02:17.008Z</time>
      </trkpt>
      <trkpt lat="42.98794" lon="0.77943">
        <ele>672.416</ele>
        <time>2017-06-10T18:02:21.008Z</time>
      </trkpt>
      <trkpt lat="42.98804" lon="0.77937">
        <ele>674</ele>
        <time>2017-06-10T18:02:24.008Z</time>
      </trkpt>
      <trkpt lat="42.98814" lon="0.77934">
        <ele>674</ele>
        <time>2017-06-10T18:02:27.008Z</time>
      </trkpt>
      <trkpt lat="42.98823" lon="0.77932">
        <ele>674</ele>
        <time>2017-06-10T18:02:30.008Z</time>
      </trkpt>
      <trkpt lat="42.98833" lon="0.77928">
        <ele>676</ele>
        <time>2017-06-10T18:02:34.008Z</time>
      </trkpt>
      <trkpt lat="42.98843" lon="0.77926">
        <ele>676</ele>
        <time>2017-06-10T18:02:38.008Z</time>
      </trkpt>
      <trkpt lat="42.98855" lon="0.77926">
        <ele>676</ele>
        <time>2017-06-10T18:02:42.008Z</time>
      </trkpt>
      <trkpt lat="42.98866" lon="0.77925">
        <ele>676</ele>
        <time>2017-06-10T18:02:46.008Z</time>
      </trkpt>
      <trkpt lat="42.98875" lon="0.77924">
        <ele>676</ele>
        <time>2017-06-10T18:02:49.008Z</time>
      </trkpt>
      <trkpt lat="42.98886" lon="0.77921">
        <ele>677</ele>
        <time>2017-06-10T18:02:53.008Z</time>
      </trkpt>
      <trkpt lat="42.98896" lon="0.77919">
        <ele>677</ele>
        <time>2017-06-10T18:02:56.008Z</time>
      </trkpt>
      <trkpt lat="42.98907" lon="0.77916">
        <ele>677.208</ele>
        <time>2017-06-10T18:03:01.008Z</time>
      </trkpt>
      <trkpt lat="42.98919" lon="0.77914">
        <ele>678</ele>
        <time>2017-06-10T18:03:05.008Z</time>
      </trkpt>
      <trkpt lat="42.9893" lon="0.77912">
        <ele>678</ele>
        <time>2017-06-10T18:03:10.008Z</time>
      </trkpt>
      <trkpt lat="42.98939" lon="0.77907">
        <ele>680</ele>
        <time>2017-06-10T18:03:13.008Z</time>
      </trkpt>
      <trkpt lat="42.9895" lon="0.77901">
        <ele>680</ele>
        <time>2017-06-10T18:03:16.008Z</time>
      </trkpt>
      <trkpt lat="42.98959" lon="0.77897">
        <ele>680</ele>
        <time>2017-06-10T18:03:19.008Z</time>
      </trkpt>
      <trkpt lat="42.98972" lon="0.77901">
        <ele>681</ele>
        <time>2017-06-10T18:03:23.008Z</time>
      </trkpt>
      <trkpt lat="42.9898" lon="0.77906">
        <ele>681</ele>
        <time>2017-06-10T18:03:25.008Z</time>
      </trkpt>
      <trkpt lat="42.98989" lon="0.77917">
        <ele>681</ele>
        <time>2017-06-10T18:03:28.008Z</time>
      </trkpt>
      <trkpt lat="42.98998" lon="0.77925">
        <ele>682</ele>
        <time>2017-06-10T18:03:32.008Z</time>
      </trkpt>
      <trkpt lat="42.99007" lon="0.77927">
        <ele>682</ele>
        <time>2017-06-10T18:03:36.008Z</time>
      </trkpt>
      <trkpt lat="42.99019" lon="0.7793">
        <ele>682</ele>
        <time>2017-06-10T18:03:40.008Z</time>
      </trkpt>
      <trkpt lat="42.99029" lon="0.77935">
        <ele>684</ele>
        <time>2017-06-10T18:03:44.008Z</time>
      </trkpt>
      <trkpt lat="42.99035" lon="0.77945">
        <ele>684</ele>
        <time>2017-06-10T18:03:47.008Z</time>
      </trkpt>
      <trkpt lat="42.99039" lon="0.77958">
        <ele>684.416</ele>
        <time>2017-06-10T18:03:51.008Z</time>
      </trkpt>
      <trkpt lat="42.99042" lon="0.77971">
        <ele>686</ele>
        <time>2017-06-10T18:03:55.008Z</time>
      </trkpt>
      <trkpt lat="42.99047" lon="0.77984">
        <ele>686</ele>
        <time>2017-06-10T18:03:59.008Z</time>
      </trkpt>
      <trkpt lat="42.9905" lon="0.77996">
        <ele>687</ele>
        <time>2017-06-10T18:04:02.008Z</time>
      </trkpt>
      <trkpt lat="42.99054" lon="0.78006">
        <ele>687</ele>
        <time>2017-06-10T18:04:05.008Z</time>
      </trkpt>
      <trkpt lat="42.99063" lon="0.78015">
        <ele>687</ele>
        <time>2017-06-10T18:04:09.008Z</time>
      </trkpt>
      <trkpt lat="42.9907" lon="0.78019">
        <ele>689</ele>
        <time>2017-06-10T18:04:12.008Z</time>
      </trkpt>
      <trkpt lat="42.99081" lon="0.78021">
        <ele>689</ele>
        <time>2017-06-10T18:04:17.008Z</time>
      </trkpt>
      <trkpt lat="42.99093" lon="0.78023">
        <ele>689.416</ele>
        <time>2017-06-10T18:04:21.008Z</time>
      </trkpt>
      <trkpt lat="42.99102" lon="0.78024">
        <ele>691</ele>
        <time>2017-06-10T18:04:24.008Z</time>
      </trkpt>
      <trkpt lat="42.99113" lon="0.78027">
        <ele>691</ele>
        <time>2017-06-10T18:04:28.008Z</time>
      </trkpt>
      <trkpt lat="42.99123" lon="0.78031">
        <ele>691.416</ele>
        <time>2017-06-10T18:04:31.008Z</time>
      </trkpt>
      <trkpt lat="42.99131" lon="0.78035">
        <ele>693</ele>
        <time>2017-06-10T18:04:34.008Z</time>
      </trkpt>
      <trkpt lat="42.9914" lon="0.78045">
        <ele>693</ele>
        <time>2017-06-10T18:04:37.008Z</time>
      </trkpt>
      <trkpt lat="42.99146" lon="0.78056">
        <ele>693</ele>
        <time>2017-06-10T18:04:40.008Z</time>
      </trkpt>
      <trkpt lat="42.99151" lon="0.78069">
        <ele>693</ele>
        <time>2017-06-10T18:04:44.008Z</time>
      </trkpt>
      <trkpt lat="42.99152" lon="0.78085">
        <ele>693</ele>
        <time>2017-06-10T18:04:48.008Z</time>
      </trkpt>
      <trkpt lat="42.99155" lon="0.78099">
        <ele>694</ele>
        <time>2017-06-10T18:04:52.008Z</time>
      </trkpt>
      <trkpt lat="42.99163" lon="0.78113">
        <ele>694</ele>
        <time>2017-06-10T18:04:56.008Z</time>
      </trkpt>
      <trkpt lat="42.99168" lon="0.78124">
        <ele>694</ele>
        <time>2017-06-10T18:05:00.008Z</time>
      </trkpt>
      <trkpt lat="42.99172" lon="0.78135">
        <ele>696</ele>
        <time>2017-06-10T18:05:03.008Z</time>
      </trkpt>
      <trkpt lat="42.99177" lon="0.78151">
        <ele>696</ele>
        <time>2017-06-10T18:05:07.008Z</time>
      </trkpt>
      <trkpt lat="42.9918" lon="0.78164">
        <ele>696</ele>
        <time>2017-06-10T18:05:10.008Z</time>
      </trkpt>
      <trkpt lat="42.99181" lon="0.78175">
        <ele>698</ele>
        <time>2017-06-10T18:05:13.008Z</time>
      </trkpt>
      <trkpt lat="42.99184" lon="0.78186">
        <ele>698</ele>
        <time>2017-06-10T18:05:16.008Z</time>
      </trkpt>
      <trkpt lat="42.99191" lon="0.78193">
        <ele>698</ele>
        <time>2017-06-10T18:05:19.008Z</time>
      </trkpt>
      <trkpt lat="42.99193" lon="0.78184">
        <ele>699</ele>
        <time>2017-06-10T18:05:24.008Z</time>
      </trkpt>
      <trkpt lat="42.99193" lon="0.78173">
        <ele>699</ele>
        <time>2017-06-10T18:05:28.008Z</time>
      </trkpt>
      <trkpt lat="42.99189" lon="0.78164">
        <ele>702</ele>
        <time>2017-06-10T18:05:32.008Z</time>
      </trkpt>
      <trkpt lat="42.99187" lon="0.78152">
        <ele>703</ele>
        <time>2017-06-10T18:05:37.008Z</time>
      </trkpt>
      <trkpt lat="42.99184" lon="0.78138">
        <ele>705</ele>
        <time>2017-06-10T18:05:42.008Z</time>
      </trkpt>
      <trkpt lat="42.99181" lon="0.78125">
        <ele>706</ele>
        <time>2017-06-10T18:05:47.008Z</time>
      </trkpt>
      <trkpt lat="42.9918" lon="0.78114">
        <ele>706</ele>
        <time>2017-06-10T18:05:50.008Z</time>
      </trkpt>
      <trkpt lat="42.99181" lon="0.78103">
        <ele>708</ele>
        <time>2017-06-10T18:05:53.008Z</time>
      </trkpt>
      <trkpt lat="42.99181" lon="0.78091">
        <ele>709</ele>
        <time>2017-06-10T18:05:57.008Z</time>
      </trkpt>
      <trkpt lat="42.99179" lon="0.7808">
        <ele>709.416</ele>
        <time>2017-06-10T18:06:01.008Z</time>
      </trkpt>
      <trkpt lat="42.99179" lon="0.78066">
        <ele>711</ele>
        <time>2017-06-10T18:06:05.008Z</time>
      </trkpt>
      <trkpt lat="42.99179" lon="0.78056">
        <ele>711</ele>
        <time>2017-06-10T18:06:08.008Z</time>
      </trkpt>
      <trkpt lat="42.99176" lon="0.78043">
        <ele>712</ele>
        <time>2017-06-10T18:06:12.008Z</time>
      </trkpt>
      <trkpt lat="42.99173" lon="0.78031">
        <ele>712</ele>
        <time>2017-06-10T18:06:16.008Z</time>
      </trkpt>
      <trkpt lat="42.99169" lon="0.7802">
        <ele>714</ele>
        <time>2017-06-10T18:06:22.008Z</time>
      </trkpt>
      <trkpt lat="42.99162" lon="0.7801">
        <ele>714</ele>
        <time>2017-06-10T18:06:26.008Z</time>
      </trkpt>
      <trkpt lat="42.99155" lon="0.77999">
        <ele>714</ele>
        <time>2017-06-10T18:06:30.008Z</time>
      </trkpt>
      <trkpt lat="42.99147" lon="0.77991">
        <ele>717</ele>
        <time>2017-06-10T18:06:34.008Z</time>
      </trkpt>
      <trkpt lat="42.99139" lon="0.77983">
        <ele>719</ele>
        <time>2017-06-10T18:06:39.008Z</time>
      </trkpt>
      <trkpt lat="42.9913" lon="0.77976">
        <ele>720</ele>
        <time>2017-06-10T18:06:44.008Z</time>
      </trkpt>
      <trkpt lat="42.99122" lon="0.77969">
        <ele>722</ele>
        <time>2017-06-10T18:06:49.008Z</time>
      </trkpt>
      <trkpt lat="42.99113" lon="0.77961">
        <ele>723</ele>
        <time>2017-06-10T18:06:54.008Z</time>
      </trkpt>
      <trkpt lat="42.99105" lon="0.77953">
        <ele>725</ele>
        <time>2017-06-10T18:06:58.008Z</time>
      </trkpt>
      <trkpt lat="42.99097" lon="0.77942">
        <ele>726</ele>
        <time>2017-06-10T18:07:03.008Z</time>
      </trkpt>
      <trkpt lat="42.99092" lon="0.7793">
        <ele>726.208</ele>
        <time>2017-06-10T18:07:07.008Z</time>
      </trkpt>
      <trkpt lat="42.99089" lon="0.77917">
        <ele>728</ele>
        <time>2017-06-10T18:07:12.008Z</time>
      </trkpt>
      <trkpt lat="42.99086" lon="0.77904">
        <ele>728.208</ele>
        <time>2017-06-10T18:07:16.008Z</time>
      </trkpt>
      <trkpt lat="42.99081" lon="0.77889">
        <ele>730</ele>
        <time>2017-06-10T18:07:22.008Z</time>
      </trkpt>
      <trkpt lat="42.99076" lon="0.77876">
        <ele>730</ele>
        <time>2017-06-10T18:07:27.008Z</time>
      </trkpt>
      <trkpt lat="42.99073" lon="0.77862">
        <ele>730.416</ele>
        <time>2017-06-10T18:07:31.008Z</time>
      </trkpt>
      <trkpt lat="42.99067" lon="0.77848">
        <ele>732</ele>
        <time>2017-06-10T18:07:35.008Z</time>
      </trkpt>
      <trkpt lat="42.99061" lon="0.77838">
        <ele>732</ele>
        <time>2017-06-10T18:07:40.008Z</time>
      </trkpt>
      <trkpt lat="42.99053" lon="0.7783">
        <ele>737</ele>
        <time>2017-06-10T18:07:47.008Z</time>
      </trkpt>
      <trkpt lat="42.99046" lon="0.77822">
        <ele>737.208</ele>
        <time>2017-06-10T18:07:51.008Z</time>
      </trkpt>
      <trkpt lat="42.99039" lon="0.77812">
        <ele>738</ele>
        <time>2017-06-10T18:07:55.008Z</time>
      </trkpt>
      <trkpt lat="42.99032" lon="0.77801">
        <ele>738</ele>
        <time>2017-06-10T18:07:59.008Z</time>
      </trkpt>
      <trkpt lat="42.99026" lon="0.77792">
        <ele>740</ele>
        <time>2017-06-10T18:08:03.008Z</time>
      </trkpt>
      <trkpt lat="42.9902" lon="0.77783">
        <ele>740</ele>
        <time>2017-06-10T18:08:06.008Z</time>
      </trkpt>
      <trkpt lat="42.99011" lon="0.77776">
        <ele>740</ele>
        <time>2017-06-10T18:08:10.008Z</time>
      </trkpt>
      <trkpt lat="42.99003" lon="0.77773">
        <ele>742</ele>
        <time>2017-06-10T18:08:14.008Z</time>
      </trkpt>
      <trkpt lat="42.98997" lon="0.77772">
        <ele>742</ele>
        <time>2017-06-10T18:08:17.008Z</time>
      </trkpt>
      <trkpt lat="42.9899" lon="0.7777">
        <ele>742</ele>
        <time>2017-06-10T18:08:20.008Z</time>
      </trkpt>
      <trkpt lat="42.98989" lon="0.77763">
        <ele>744</ele>
        <time>2017-06-10T18:08:23.008Z</time>
      </trkpt>
      <trkpt lat="42.98996" lon="0.77756">
        <ele>744</ele>
        <time>2017-06-10T18:08:27.008Z</time>
      </trkpt>
      <trkpt lat="42.99005" lon="0.77756">
        <ele>744</ele>
        <time>2017-06-10T18:08:30.008Z</time>
      </trkpt>
      <trkpt lat="42.99014" lon="0.77758">
        <ele>745</ele>
        <time>2017-06-10T18:08:35.008Z</time>
      </trkpt>
      <trkpt lat="42.99024" lon="0.7776">
        <ele>745</ele>
        <time>2017-06-10T18:08:40.008Z</time>
      </trkpt>
      <trkpt lat="42.99032" lon="0.77766">
        <ele>747</ele>
        <time>2017-06-10T18:08:43.008Z</time>
      </trkpt>
      <trkpt lat="42.99038" lon="0.77776">
        <ele>747</ele>
        <time>2017-06-10T18:08:47.008Z</time>
      </trkpt>
      <trkpt lat="42.99046" lon="0.77785">
        <ele>747</ele>
        <time>2017-06-10T18:08:50.008Z</time>
      </trkpt>
      <trkpt lat="42.99054" lon="0.77793">
        <ele>749</ele>
        <time>2017-06-10T18:08:55.008Z</time>
      </trkpt>
      <trkpt lat="42.99065" lon="0.77796">
        <ele>749</ele>
        <time>2017-06-10T18:09:00.008Z</time>
      </trkpt>
      <trkpt lat="42.99075" lon="0.77796">
        <ele>753</ele>
        <time>2017-06-10T18:09:04.008Z</time>
      </trkpt>
      <trkpt lat="42.99085" lon="0.77798">
        <ele>753</ele>
        <time>2017-06-10T18:09:08.008Z</time>
      </trkpt>
      <trkpt lat="42.99094" lon="0.77804">
        <ele>755</ele>
        <time>2017-06-10T18:09:13.008Z</time>
      </trkpt>
      <trkpt lat="42.99099" lon="0.77813">
        <ele>755</ele>
        <time>2017-06-10T18:09:16.008Z</time>
      </trkpt>
      <trkpt lat="42.99104" lon="0.77823">
        <ele>755</ele>
        <time>2017-06-10T18:09:19.008Z</time>
      </trkpt>
      <trkpt lat="42.99112" lon="0.77833">
        <ele>757</ele>
        <time>2017-06-10T18:09:23.008Z</time>
      </trkpt>
      <trkpt lat="42.99118" lon="0.77826">
        <ele>757</ele>
        <time>2017-06-10T18:09:28.008Z</time>
      </trkpt>
      <trkpt lat="42.99111" lon="0.77817">
        <ele>759</ele>
        <time>2017-06-10T18:09:32.008Z</time>
      </trkpt>
      <trkpt lat="42.99105" lon="0.77808">
        <ele>759</ele>
        <time>2017-06-10T18:09:36.008Z</time>
      </trkpt>
      <trkpt lat="42.99098" lon="0.77798">
        <ele>762</ele>
        <time>2017-06-10T18:09:42.008Z</time>
      </trkpt>
      <trkpt lat="42.99092" lon="0.77787">
        <ele>762.416</ele>
        <time>2017-06-10T18:09:46.008Z</time>
      </trkpt>
      <trkpt lat="42.99085" lon="0.77784">
        <ele>764.208</ele>
        <time>2017-06-10T18:09:51.008Z</time>
      </trkpt>
      <trkpt lat="42.99078" lon="0.7778">
        <ele>765</ele>
        <time>2017-06-10T18:09:55.008Z</time>
      </trkpt>
      <trkpt lat="42.99071" lon="0.77775">
        <ele>767</ele>
        <time>2017-06-10T18:09:58.008Z</time>
      </trkpt>
      <trkpt lat="42.99065" lon="0.77767">
        <ele>767.208</ele>
        <time>2017-06-10T18:10:01.008Z</time>
      </trkpt>
      <trkpt lat="42.99063" lon="0.77754">
        <ele>768</ele>
        <time>2017-06-10T18:10:05.008Z</time>
      </trkpt>
      <trkpt lat="42.99069" lon="0.77748">
        <ele>769</ele>
        <time>2017-06-10T18:10:08.008Z</time>
      </trkpt>
      <trkpt lat="42.99076" lon="0.7775">
        <ele>769.208</ele>
        <time>2017-06-10T18:10:11.008Z</time>
      </trkpt>
      <trkpt lat="42.99083" lon="0.77752">
        <ele>770</ele>
        <time>2017-06-10T18:10:14.008Z</time>
      </trkpt>
      <trkpt lat="42.99089" lon="0.77751">
        <ele>770</ele>
        <time>2017-06-10T18:10:17.008Z</time>
      </trkpt>
      <trkpt lat="42.99095" lon="0.77745">
        <ele>770</ele>
        <time>2017-06-10T18:10:20.008Z</time>
      </trkpt>
      <trkpt lat="42.99098" lon="0.77734">
        <ele>772</ele>
        <time>2017-06-10T18:10:24.008Z</time>
      </trkpt>
      <trkpt lat="42.99102" lon="0.77723">
        <ele>772</ele>
        <time>2017-06-10T18:10:28.008Z</time>
      </trkpt>
      <trkpt lat="42.99106" lon="0.77715">
        <ele>772.624</ele>
        <time>2017-06-10T18:10:31.008Z</time>
      </trkpt>
      <trkpt lat="42.9911" lon="0.77707">
        <ele>775</ele>
        <time>2017-06-10T18:10:34.008Z</time>
      </trkpt>
      <trkpt lat="42.99113" lon="0.777">
        <ele>777</ele>
        <time>2017-06-10T18:10:37.008Z</time>
      </trkpt>
      <trkpt lat="42.99115" lon="0.77694">
        <ele>777</ele>
        <time>2017-06-10T18:10:39.008Z</time>
      </trkpt>
      <trkpt lat="42.99117" lon="0.77688">
        <ele>777</ele>
        <time>2017-06-10T18:10:41.008Z</time>
      </trkpt>
      <trkpt lat="42.99119" lon="0.77682">
        <ele>777</ele>
        <time>2017-06-10T18:10:43.008Z</time>
      </trkpt>
      <trkpt lat="42.99121" lon="0.77674">
        <ele>777.208</ele>
        <time>2017-06-10T18:10:46.008Z</time>
      </trkpt>
      <trkpt lat="42.99123" lon="0.77668">
        <ele>778</ele>
        <time>2017-06-10T18:10:48.008Z</time>
      </trkpt>
      <trkpt lat="42.99125" lon="0.77661">
        <ele>778</ele>
        <time>2017-06-10T18:10:50.008Z</time>
      </trkpt>
      <trkpt lat="42.99127" lon="0.77656">
        <ele>778</ele>
        <time>2017-06-10T18:11:00.008Z</time>
      </trkpt>
      <trkpt lat="42.99131" lon="0.77651">
        <ele>769.416</ele>
        <time>2017-06-10T18:12:41.008Z</time>
      </trkpt>
      <trkpt lat="42.99137" lon="0.77646">
        <ele>771</ele>
        <time>2017-06-10T18:12:44.008Z</time>
      </trkpt>
      <trkpt lat="42.99144" lon="0.7764">
        <ele>771</ele>
        <time>2017-06-10T18:12:46.008Z</time>
      </trkpt>
      <trkpt lat="42.99152" lon="0.77637">
        <ele>771</ele>
        <time>2017-06-10T18:12:48.008Z</time>
      </trkpt>
      <trkpt lat="42.99161" lon="0.77638">
        <ele>771</ele>
        <time>2017-06-10T18:12:50.008Z</time>
      </trkpt>
      <trkpt lat="42.9917" lon="0.77641">
        <ele>773</ele>
        <time>2017-06-10T18:12:54.008Z</time>
      </trkpt>
      <trkpt lat="42.99181" lon="0.77646">
        <ele>778</ele>
        <time>2017-06-10T18:13:02.008Z</time>
      </trkpt>
      <trkpt lat="42.99189" lon="0.7765">
        <ele>778</ele>
        <time>2017-06-10T18:13:09.008Z</time>
      </trkpt>
      <trkpt lat="42.99196" lon="0.77653">
        <ele>779</ele>
        <time>2017-06-10T18:13:14.008Z</time>
      </trkpt>
      <trkpt lat="42.99204" lon="0.77655">
        <ele>779</ele>
        <time>2017-06-10T18:13:20.008Z</time>
      </trkpt>
      <trkpt lat="42.99212" lon="0.77656">
        <ele>780</ele>
        <time>2017-06-10T18:13:26.008Z</time>
      </trkpt>
      <trkpt lat="42.9922" lon="0.77662">
        <ele>781</ele>
        <time>2017-06-10T18:13:32.008Z</time>
      </trkpt>
      <trkpt lat="42.99228" lon="0.77668">
        <ele>781</ele>
        <time>2017-06-10T18:13:37.008Z</time>
      </trkpt>
      <trkpt lat="42.99236" lon="0.77676">
        <ele>783</ele>
        <time>2017-06-10T18:13:42.008Z</time>
      </trkpt>
      <trkpt lat="42.99242" lon="0.7768">
        <ele>784.208</ele>
        <time>2017-06-10T18:13:46.008Z</time>
      </trkpt>
      <trkpt lat="42.99248" lon="0.77687">
        <ele>785.208</ele>
        <time>2017-06-10T18:13:51.008Z</time>
      </trkpt>
      <trkpt lat="42.99255" lon="0.77689">
        <ele>786</ele>
        <time>2017-06-10T18:13:55.008Z</time>
      </trkpt>
      <trkpt lat="42.99265" lon="0.77694">
        <ele>787</ele>
        <time>2017-06-10T18:14:00.008Z</time>
      </trkpt>
      <trkpt lat="42.99274" lon="0.77703">
        <ele>788</ele>
        <time>2017-06-10T18:14:05.008Z</time>
      </trkpt>
      <trkpt lat="42.9928" lon="0.77712">
        <ele>788</ele>
        <time>2017-06-10T18:14:08.008Z</time>
      </trkpt>
      <trkpt lat="42.99285" lon="0.77721">
        <ele>788.416</ele>
        <time>2017-06-10T18:14:11.008Z</time>
      </trkpt>
      <trkpt lat="42.9929" lon="0.7773">
        <ele>790</ele>
        <time>2017-06-10T18:14:14.008Z</time>
      </trkpt>
      <trkpt lat="42.99294" lon="0.77742">
        <ele>790</ele>
        <time>2017-06-10T18:14:18.008Z</time>
      </trkpt>
      <trkpt lat="42.99298" lon="0.77755">
        <ele>790</ele>
        <time>2017-06-10T18:14:22.008Z</time>
      </trkpt>
      <trkpt lat="42.99303" lon="0.77768">
        <ele>790</ele>
        <time>2017-06-10T18:14:27.008Z</time>
      </trkpt>
      <trkpt lat="42.9931" lon="0.7778">
        <ele>790</ele>
        <time>2017-06-10T18:14:30.008Z</time>
      </trkpt>
      <trkpt lat="42.99316" lon="0.7779">
        <ele>792</ele>
        <time>2017-06-10T18:14:33.008Z</time>
      </trkpt>
      <trkpt lat="42.99323" lon="0.77804">
        <ele>792</ele>
        <time>2017-06-10T18:14:37.008Z</time>
      </trkpt>
      <trkpt lat="42.9933" lon="0.77818">
        <ele>792.20594124655</ele>
        <time>2017-06-10T18:14:41.008Z</time>
      </trkpt>
      <trkpt lat="42.99336" lon="0.77831">
        <ele>793</ele>
        <time>2017-06-10T18:14:44.008Z</time>
      </trkpt>
      <trkpt lat="42.99347" lon="0.77843">
        <ele>793</ele>
        <time>2017-06-10T18:14:47.008Z</time>
      </trkpt>
      <trkpt lat="42.99357" lon="0.77854">
        <ele>793</ele>
        <time>2017-06-10T18:14:50.008Z</time>
      </trkpt>
      <trkpt lat="42.99366" lon="0.77865">
        <ele>794</ele>
        <time>2017-06-10T18:14:53.008Z</time>
      </trkpt>
      <trkpt lat="42.99374" lon="0.77873">
        <ele>794</ele>
        <time>2017-06-10T18:14:56.008Z</time>
      </trkpt>
      <trkpt lat="42.99384" lon="0.77879">
        <ele>794</ele>
        <time>2017-06-10T18:14:59.008Z</time>
      </trkpt>
      <trkpt lat="42.99393" lon="0.77886">
        <ele>796</ele>
        <time>2017-06-10T18:15:02.008Z</time>
      </trkpt>
      <trkpt lat="42.99404" lon="0.77891">
        <ele>796</ele>
        <time>2017-06-10T18:15:05.008Z</time>
      </trkpt>
      <trkpt lat="42.99418" lon="0.77896">
        <ele>796</ele>
        <time>2017-06-10T18:15:08.008Z</time>
      </trkpt>
      <trkpt lat="42.99428" lon="0.77903">
        <ele>796.208</ele>
        <time>2017-06-10T18:15:11.008Z</time>
      </trkpt>
      <trkpt lat="42.9944" lon="0.7791">
        <ele>797</ele>
        <time>2017-06-10T18:15:14.008Z</time>
      </trkpt>
      <trkpt lat="42.9945" lon="0.77914">
        <ele>797</ele>
        <time>2017-06-10T18:15:16.008Z</time>
      </trkpt>
      <trkpt lat="42.99463" lon="0.77919">
        <ele>797</ele>
        <time>2017-06-10T18:15:18.008Z</time>
      </trkpt>
      <trkpt lat="42.99475" lon="0.77924">
        <ele>797.416</ele>
        <time>2017-06-10T18:15:21.008Z</time>
      </trkpt>
      <trkpt lat="42.99488" lon="0.77932">
        <ele>799</ele>
        <time>2017-06-10T18:15:24.008Z</time>
      </trkpt>
      <trkpt lat="42.995" lon="0.77939">
        <ele>799.416</ele>
        <time>2017-06-10T18:15:26.008Z</time>
      </trkpt>
      <trkpt lat="42.99511" lon="0.77943">
        <ele>801</ele>
        <time>2017-06-10T18:15:28.008Z</time>
      </trkpt>
      <trkpt lat="42.9952" lon="0.77947">
        <ele>801</ele>
        <time>2017-06-10T18:15:30.008Z</time>
      </trkpt>
      <trkpt lat="42.99529" lon="0.77952">
        <ele>801</ele>
        <time>2017-06-10T18:15:32.008Z</time>
      </trkpt>
      <trkpt lat="42.9954" lon="0.77959">
        <ele>801</ele>
        <time>2017-06-10T18:15:34.008Z</time>
      </trkpt>
      <trkpt lat="42.99551" lon="0.77969">
        <ele>801</ele>
        <time>2017-06-10T18:15:37.008Z</time>
      </trkpt>
      <trkpt lat="42.99562" lon="0.77978">
        <ele>801</ele>
        <time>2017-06-10T18:15:40.008Z</time>
      </trkpt>
      <trkpt lat="42.9957" lon="0.77989">
        <ele>803</ele>
        <time>2017-06-10T18:15:47.008Z</time>
      </trkpt>
      <trkpt lat="42.99578" lon="0.77998">
        <ele>803.416</ele>
        <time>2017-06-10T18:15:51.008Z</time>
      </trkpt>
      <trkpt lat="42.99586" lon="0.78006">
        <ele>805</ele>
        <time>2017-06-10T18:15:54.008Z</time>
      </trkpt>
      <trkpt lat="42.99596" lon="0.78014">
        <ele>805</ele>
        <time>2017-06-10T18:15:58.008Z</time>
      </trkpt>
      <trkpt lat="42.99605" lon="0.78026">
        <ele>805.416</ele>
        <time>2017-06-10T18:16:01.008Z</time>
      </trkpt>
      <trkpt lat="42.99613" lon="0.78035">
        <ele>807</ele>
        <time>2017-06-10T18:16:04.008Z</time>
      </trkpt>
      <trkpt lat="42.99623" lon="0.78045">
        <ele>807</ele>
        <time>2017-06-10T18:16:08.008Z</time>
      </trkpt>
      <trkpt lat="42.99632" lon="0.78054">
        <ele>808</ele>
        <time>2017-06-10T18:16:12.008Z</time>
      </trkpt>
      <trkpt lat="42.99641" lon="0.78063">
        <ele>808</ele>
        <time>2017-06-10T18:16:16.008Z</time>
      </trkpt>
      <trkpt lat="42.99652" lon="0.78068">
        <ele>808</ele>
        <time>2017-06-10T18:16:19.008Z</time>
      </trkpt>
      <trkpt lat="42.9966" lon="0.78068">
        <ele>808.208</ele>
        <time>2017-06-10T18:16:21.008Z</time>
      </trkpt>
      <trkpt lat="42.9967" lon="0.78065">
        <ele>809</ele>
        <time>2017-06-10T18:16:24.008Z</time>
      </trkpt>
      <trkpt lat="42.9968" lon="0.78056">
        <ele>809</ele>
        <time>2017-06-10T18:16:27.008Z</time>
      </trkpt>
      <trkpt lat="42.99685" lon="0.78046">
        <ele>809</ele>
        <time>2017-06-10T18:16:29.008Z</time>
      </trkpt>
      <trkpt lat="42.99695" lon="0.78039">
        <ele>807</ele>
        <time>2017-06-10T18:16:33.008Z</time>
      </trkpt>
      <trkpt lat="42.99708" lon="0.78042">
        <ele>807</ele>
        <time>2017-06-10T18:16:37.008Z</time>
      </trkpt>
      <trkpt lat="42.99718" lon="0.78044">
        <ele>807</ele>
        <time>2017-06-10T18:16:39.008Z</time>
      </trkpt>
      <trkpt lat="42.99728" lon="0.78047">
        <ele>805.752</ele>
        <time>2017-06-10T18:16:41.008Z</time>
      </trkpt>
      <trkpt lat="42.99739" lon="0.7805">
        <ele>797.792</ele>
        <time>2017-06-10T18:16:43.008Z</time>
      </trkpt>
      <trkpt lat="42.99749" lon="0.78056">
        <ele>797</ele>
        <time>2017-06-10T18:16:45.008Z</time>
      </trkpt>
      <trkpt lat="42.99762" lon="0.78066">
        <ele>796</ele>
        <time>2017-06-10T18:16:47.008Z</time>
      </trkpt>
      <trkpt lat="42.99775" lon="0.78078">
        <ele>795</ele>
        <time>2017-06-10T18:16:49.008Z</time>
      </trkpt>
      <trkpt lat="42.9979" lon="0.78091">
        <ele>793.792</ele>
        <time>2017-06-10T18:16:51.008Z</time>
      </trkpt>
      <trkpt lat="42.99801" lon="0.78104">
        <ele>793.96</ele>
        <time>2017-06-10T18:16:53.008Z</time>
      </trkpt>
      <trkpt lat="42.9981" lon="0.78114">
        <ele>789.208</ele>
        <time>2017-06-10T18:16:55.008Z</time>
      </trkpt>
      <trkpt lat="42.99819" lon="0.78127">
        <ele>791</ele>
        <time>2017-06-10T18:16:58.008Z</time>
      </trkpt>
      <trkpt lat="42.99826" lon="0.78135">
        <ele>792</ele>
        <time>2017-06-10T18:17:00.008Z</time>
      </trkpt>
      <trkpt lat="42.99838" lon="0.78144">
        <ele>793</ele>
        <time>2017-06-10T18:17:03.008Z</time>
      </trkpt>
      <trkpt lat="42.99849" lon="0.78152">
        <ele>793</ele>
        <time>2017-06-10T18:17:06.008Z</time>
      </trkpt>
      <trkpt lat="42.99859" lon="0.78155">
        <ele>793</ele>
        <time>2017-06-10T18:17:09.008Z</time>
      </trkpt>
      <trkpt lat="42.99871" lon="0.78156">
        <ele>791</ele>
        <time>2017-06-10T18:17:12.008Z</time>
      </trkpt>
      <trkpt lat="42.99884" lon="0.78157">
        <ele>791</ele>
        <time>2017-06-10T18:17:14.008Z</time>
      </trkpt>
      <trkpt lat="42.999" lon="0.7816">
        <ele>791</ele>
        <time>2017-06-10T18:17:16.008Z</time>
      </trkpt>
      <trkpt lat="42.99916" lon="0.78165">
        <ele>791</ele>
        <time>2017-06-10T18:17:18.008Z</time>
      </trkpt>
      <trkpt lat="42.99932" lon="0.78171">
        <ele>791</ele>
        <time>2017-06-10T18:17:20.008Z</time>
      </trkpt>
      <trkpt lat="42.99946" lon="0.78178">
        <ele>790</ele>
        <time>2017-06-10T18:17:22.008Z</time>
      </trkpt>
      <trkpt lat="42.99958" lon="0.78183">
        <ele>790</ele>
        <time>2017-06-10T18:17:24.008Z</time>
      </trkpt>
      <trkpt lat="42.99968" lon="0.78185">
        <ele>790</ele>
        <time>2017-06-10T18:17:26.008Z</time>
      </trkpt>
      <trkpt lat="42.99976" lon="0.78186">
        <ele>790</ele>
        <time>2017-06-10T18:17:28.008Z</time>
      </trkpt>
      <trkpt lat="42.99983" lon="0.78185">
        <ele>790</ele>
        <time>2017-06-10T18:17:30.008Z</time>
      </trkpt>
      <trkpt lat="42.9999" lon="0.78186">
        <ele>791</ele>
        <time>2017-06-10T18:17:32.008Z</time>
      </trkpt>
      <trkpt lat="42.99997" lon="0.78187">
        <ele>791</ele>
        <time>2017-06-10T18:17:34.008Z</time>
      </trkpt>
      <trkpt lat="43.00005" lon="0.78188">
        <ele>791</ele>
        <time>2017-06-10T18:17:36.008Z</time>
      </trkpt>
      <trkpt lat="43.00012" lon="0.78189">
        <ele>791</ele>
        <time>2017-06-10T18:17:38.008Z</time>
      </trkpt>
      <trkpt lat="43.0002" lon="0.78191">
        <ele>791</ele>
        <time>2017-06-10T18:17:40.008Z</time>
      </trkpt>
      <trkpt lat="43.00027" lon="0.78192">
        <ele>785.168</ele>
        <time>2017-06-10T18:17:42.008Z</time>
      </trkpt>
      <trkpt lat="43.00034" lon="0.78192">
        <ele>782.208</ele>
        <time>2017-06-10T18:17:44.008Z</time>
      </trkpt>
      <trkpt lat="43.00044" lon="0.78189">
        <ele>782</ele>
        <time>2017-06-10T18:17:47.008Z</time>
      </trkpt>
      <trkpt lat="43.00055" lon="0.7819">
        <ele>782</ele>
        <time>2017-06-10T18:17:50.008Z</time>
      </trkpt>
      <trkpt lat="43.0007" lon="0.78193">
        <ele>781</ele>
        <time>2017-06-10T18:17:53.008Z</time>
      </trkpt>
      <trkpt lat="43.00082" lon="0.78196">
        <ele>781</ele>
        <time>2017-06-10T18:17:55.008Z</time>
      </trkpt>
      <trkpt lat="43.00093" lon="0.782">
        <ele>779</ele>
        <time>2017-06-10T18:17:57.008Z</time>
      </trkpt>
      <trkpt lat="43.00106" lon="0.78205">
        <ele>779</ele>
        <time>2017-06-10T18:18:00.008Z</time>
      </trkpt>
      <trkpt lat="43.00119" lon="0.78213">
        <ele>768.672</ele>
        <time>2017-06-10T18:18:02.008Z</time>
      </trkpt>
      <trkpt lat="43.00133" lon="0.78225">
        <ele>747.792</ele>
        <time>2017-06-10T18:18:04.008Z</time>
      </trkpt>
      <trkpt lat="43.00146" lon="0.7824">
        <ele>745.584</ele>
        <time>2017-06-10T18:18:06.008Z</time>
      </trkpt>
      <trkpt lat="43.00157" lon="0.78253">
        <ele>744</ele>
        <time>2017-06-10T18:18:08.008Z</time>
      </trkpt>
      <trkpt lat="43.0017" lon="0.78266">
        <ele>742.792</ele>
        <time>2017-06-10T18:18:10.008Z</time>
      </trkpt>
      <trkpt lat="43.00183" lon="0.78279">
        <ele>740.792</ele>
        <time>2017-06-10T18:18:12.008Z</time>
      </trkpt>
      <trkpt lat="43.00196" lon="0.78292">
        <ele>738.792</ele>
        <time>2017-06-10T18:18:14.008Z</time>
      </trkpt>
      <trkpt lat="43.00207" lon="0.78303">
        <ele>736.792</ele>
        <time>2017-06-10T18:18:16.008Z</time>
      </trkpt>
      <trkpt lat="43.00218" lon="0.78314">
        <ele>735</ele>
        <time>2017-06-10T18:18:18.008Z</time>
      </trkpt>
      <trkpt lat="43.00232" lon="0.78322">
        <ele>733.792</ele>
        <time>2017-06-10T18:18:20.008Z</time>
      </trkpt>
      <trkpt lat="43.00245" lon="0.78335">
        <ele>731.79405875345</ele>
        <time>2017-06-10T18:18:22.008Z</time>
      </trkpt>
      <trkpt lat="43.00259" lon="0.78349">
        <ele>728</ele>
        <time>2017-06-10T18:18:24.008Z</time>
      </trkpt>
      <trkpt lat="43.00271" lon="0.78363">
        <ele>727.584</ele>
        <time>2017-06-10T18:18:26.008Z</time>
      </trkpt>
      <trkpt lat="43.00285" lon="0.78375">
        <ele>725.584</ele>
        <time>2017-06-10T18:18:28.008Z</time>
      </trkpt>
      <trkpt lat="43.00299" lon="0.78388">
        <ele>722.792</ele>
        <time>2017-06-10T18:18:30.008Z</time>
      </trkpt>
      <trkpt lat="43.00314" lon="0.78398">
        <ele>721.584</ele>
        <time>2017-06-10T18:18:32.008Z</time>
      </trkpt>
      <trkpt lat="43.00329" lon="0.78403">
        <ele>719</ele>
        <time>2017-06-10T18:18:34.008Z</time>
      </trkpt>
      <trkpt lat="43.00341" lon="0.78407">
        <ele>717.792</ele>
        <time>2017-06-10T18:18:36.008Z</time>
      </trkpt>
      <trkpt lat="43.00351" lon="0.7841">
        <ele>716.792</ele>
        <time>2017-06-10T18:18:38.008Z</time>
      </trkpt>
      <trkpt lat="43.00364" lon="0.78416">
        <ele>715</ele>
        <time>2017-06-10T18:18:40.008Z</time>
      </trkpt>
      <trkpt lat="43.00377" lon="0.78425">
        <ele>713.792</ele>
        <time>2017-06-10T18:18:42.008Z</time>
      </trkpt>
      <trkpt lat="43.00391" lon="0.78434">
        <ele>712.584</ele>
        <time>2017-06-10T18:18:44.008Z</time>
      </trkpt>
      <trkpt lat="43.00402" lon="0.78439">
        <ele>708.79607715186</ele>
        <time>2017-06-10T18:18:46.008Z</time>
      </trkpt>
      <trkpt lat="43.00413" lon="0.78442">
        <ele>708</ele>
        <time>2017-06-10T18:18:48.008Z</time>
      </trkpt>
      <trkpt lat="43.00425" lon="0.78447">
        <ele>706.584</ele>
        <time>2017-06-10T18:18:50.008Z</time>
      </trkpt>
      <trkpt lat="43.00443" lon="0.78454">
        <ele>704</ele>
        <time>2017-06-10T18:18:52.008Z</time>
      </trkpt>
      <trkpt lat="43.00457" lon="0.78458">
        <ele>703.584</ele>
        <time>2017-06-10T18:18:54.008Z</time>
      </trkpt>
      <trkpt lat="43.00469" lon="0.78462">
        <ele>701</ele>
        <time>2017-06-10T18:18:56.008Z</time>
      </trkpt>
      <trkpt lat="43.00482" lon="0.78469">
        <ele>699</ele>
        <time>2017-06-10T18:18:58.008Z</time>
      </trkpt>
      <trkpt lat="43.00494" lon="0.78476">
        <ele>697.792</ele>
        <time>2017-06-10T18:19:00.008Z</time>
      </trkpt>
      <trkpt lat="43.00504" lon="0.78478">
        <ele>697</ele>
        <time>2017-06-10T18:19:02.008Z</time>
      </trkpt>
      <trkpt lat="43.00512" lon="0.78476">
        <ele>697</ele>
        <time>2017-06-10T18:19:15.008Z</time>
      </trkpt>
      <trkpt lat="43.00513" lon="0.78489">
        <ele>697</ele>
        <time>2017-06-10T18:19:20.008Z</time>
      </trkpt>
      <trkpt lat="43.00517" lon="0.78504">
        <ele>696</ele>
        <time>2017-06-10T18:19:23.008Z</time>
      </trkpt>
      <trkpt lat="43.00522" lon="0.78521">
        <ele>696</ele>
        <time>2017-06-10T18:19:26.008Z</time>
      </trkpt>
      <trkpt lat="43.00526" lon="0.78534">
        <ele>696</ele>
        <time>2017-06-10T18:19:28.008Z</time>
      </trkpt>
      <trkpt lat="43.00526" lon="0.78552">
        <ele>695.584</ele>
        <time>2017-06-10T18:19:31.008Z</time>
      </trkpt>
      <trkpt lat="43.00523" lon="0.78567">
        <ele>694</ele>
        <time>2017-06-10T18:19:34.008Z</time>
      </trkpt>
      <trkpt lat="43.00519" lon="0.7858">
        <ele>694</ele>
        <time>2017-06-10T18:19:37.008Z</time>
      </trkpt>
      <trkpt lat="43.00515" lon="0.78588">
        <ele>694</ele>
        <time>2017-06-10T18:19:39.008Z</time>
      </trkpt>
      <trkpt lat="43.00512" lon="0.78597">
        <ele>694</ele>
        <time>2017-06-10T18:19:41.008Z</time>
      </trkpt>
      <trkpt lat="43.0051" lon="0.78607">
        <ele>694</ele>
        <time>2017-06-10T18:19:43.008Z</time>
      </trkpt>
      <trkpt lat="43.00508" lon="0.78616">
        <ele>694</ele>
        <time>2017-06-10T18:19:45.008Z</time>
      </trkpt>
      <trkpt lat="43.00506" lon="0.78626">
        <ele>694</ele>
        <time>2017-06-10T18:19:47.008Z</time>
      </trkpt>
      <trkpt lat="43.00505" lon="0.78638">
        <ele>694</ele>
        <time>2017-06-10T18:19:50.008Z</time>
      </trkpt>
      <trkpt lat="43.00503" lon="0.78648">
        <ele>695</ele>
        <time>2017-06-10T18:19:53.008Z</time>
      </trkpt>
      <trkpt lat="43.00507" lon="0.78664">
        <ele>695</ele>
        <time>2017-06-10T18:19:58.008Z</time>
      </trkpt>
      <trkpt lat="43.00511" lon="0.78677">
        <ele>697</ele>
        <time>2017-06-10T18:20:03.008Z</time>
      </trkpt>
      <trkpt lat="43.00518" lon="0.78687">
        <ele>697</ele>
        <time>2017-06-10T18:20:07.008Z</time>
      </trkpt>
      <trkpt lat="43.00525" lon="0.78696">
        <ele>697</ele>
        <time>2017-06-10T18:20:12.008Z</time>
      </trkpt>
      <trkpt lat="43.00533" lon="0.78704">
        <ele>697</ele>
        <time>2017-06-10T18:20:17.008Z</time>
      </trkpt>
      <trkpt lat="43.00542" lon="0.7871">
        <ele>697.208</ele>
        <time>2017-06-10T18:20:21.008Z</time>
      </trkpt>
      <trkpt lat="43.00551" lon="0.78716">
        <ele>698</ele>
        <time>2017-06-10T18:20:25.008Z</time>
      </trkpt>
      <trkpt lat="43.00563" lon="0.78722">
        <ele>698</ele>
        <time>2017-06-10T18:20:28.008Z</time>
      </trkpt>
      <trkpt lat="43.00573" lon="0.78726">
        <ele>698</ele>
        <time>2017-06-10T18:20:31.008Z</time>
      </trkpt>
      <trkpt lat="43.00586" lon="0.7873">
        <ele>698</ele>
        <time>2017-06-10T18:20:34.008Z</time>
      </trkpt>
      <trkpt lat="43.00598" lon="0.78733">
        <ele>698</ele>
        <time>2017-06-10T18:20:36.008Z</time>
      </trkpt>
      <trkpt lat="43.00609" lon="0.78734">
        <ele>698</ele>
        <time>2017-06-10T18:20:37.008Z</time>
      </trkpt>
      <trkpt lat="43.00624" lon="0.78736">
        <ele>698</ele>
        <time>2017-06-10T18:20:39.008Z</time>
      </trkpt>
      <trkpt lat="43.00635" lon="0.78742">
        <ele>697.168</ele>
        <time>2017-06-10T18:20:41.008Z</time>
      </trkpt>
      <trkpt lat="43.0065" lon="0.78747">
        <ele>694</ele>
        <time>2017-06-10T18:20:44.008Z</time>
      </trkpt>
      <trkpt lat="43.0066" lon="0.7875">
        <ele>693.376</ele>
        <time>2017-06-10T18:20:46.008Z</time>
      </trkpt>
      <trkpt lat="43.00671" lon="0.78751">
        <ele>691</ele>
        <time>2017-06-10T18:20:48.008Z</time>
      </trkpt>
      <trkpt lat="43.00681" lon="0.78752">
        <ele>690.792</ele>
        <time>2017-06-10T18:20:51.008Z</time>
      </trkpt>
      <trkpt lat="43.00693" lon="0.78755">
        <ele>690</ele>
        <time>2017-06-10T18:20:56.008Z</time>
      </trkpt>
      <trkpt lat="43.00703" lon="0.78758">
        <ele>690</ele>
        <time>2017-06-10T18:21:00.008Z</time>
      </trkpt>
      <trkpt lat="43.00715" lon="0.78762">
        <ele>690</ele>
        <time>2017-06-10T18:21:04.008Z</time>
      </trkpt>
      <trkpt lat="43.00727" lon="0.78761">
        <ele>690</ele>
        <time>2017-06-10T18:21:09.008Z</time>
      </trkpt>
      <trkpt lat="43.00736" lon="0.78752">
        <ele>691</ele>
        <time>2017-06-10T18:21:14.008Z</time>
      </trkpt>
      <trkpt lat="43.00744" lon="0.78744">
        <ele>691</ele>
        <time>2017-06-10T18:21:18.008Z</time>
      </trkpt>
      <trkpt lat="43.00755" lon="0.78735">
        <ele>691</ele>
        <time>2017-06-10T18:21:21.008Z</time>
      </trkpt>
      <trkpt lat="43.00762" lon="0.78725">
        <ele>691</ele>
        <time>2017-06-10T18:21:24.008Z</time>
      </trkpt>
      <trkpt lat="43.00769" lon="0.78714">
        <ele>691</ele>
        <time>2017-06-10T18:21:28.008Z</time>
      </trkpt>
      <trkpt lat="43.00776" lon="0.78703">
        <ele>691</ele>
        <time>2017-06-10T18:21:31.008Z</time>
      </trkpt>
      <trkpt lat="43.00782" lon="0.78696">
        <ele>691</ele>
        <time>2017-06-10T18:21:33.008Z</time>
      </trkpt>
      <trkpt lat="43.00791" lon="0.78688">
        <ele>691</ele>
        <time>2017-06-10T18:21:35.008Z</time>
      </trkpt>
      <trkpt lat="43.008" lon="0.78681">
        <ele>691</ele>
        <time>2017-06-10T18:21:37.008Z</time>
      </trkpt>
      <trkpt lat="43.00811" lon="0.78675">
        <ele>691</ele>
        <time>2017-06-10T18:21:39.008Z</time>
      </trkpt>
      <trkpt lat="43.0082" lon="0.7867">
        <ele>690.792</ele>
        <time>2017-06-10T18:21:41.008Z</time>
      </trkpt>
      <trkpt lat="43.00829" lon="0.78663">
        <ele>690</ele>
        <time>2017-06-10T18:21:43.008Z</time>
      </trkpt>
      <trkpt lat="43.00837" lon="0.78657">
        <ele>690</ele>
        <time>2017-06-10T18:21:45.008Z</time>
      </trkpt>
      <trkpt lat="43.00844" lon="0.78651">
        <ele>690</ele>
        <time>2017-06-10T18:21:47.008Z</time>
      </trkpt>
      <trkpt lat="43.00851" lon="0.78645">
        <ele>690</ele>
        <time>2017-06-10T18:21:49.008Z</time>
      </trkpt>
      <trkpt lat="43.00858" lon="0.7864">
        <ele>690</ele>
        <time>2017-06-10T18:21:51.008Z</time>
      </trkpt>
      <trkpt lat="43.00864" lon="0.78636">
        <ele>690</ele>
        <time>2017-06-10T18:21:53.008Z</time>
      </trkpt>
      <trkpt lat="43.00871" lon="0.78632">
        <ele>690</ele>
        <time>2017-06-10T18:21:55.008Z</time>
      </trkpt>
      <trkpt lat="43.00878" lon="0.7863">
        <ele>690</ele>
        <time>2017-06-10T18:21:57.008Z</time>
      </trkpt>
      <trkpt lat="43.00886" lon="0.78633">
        <ele>690</ele>
        <time>2017-06-10T18:21:59.008Z</time>
      </trkpt>
      <trkpt lat="43.00893" lon="0.78638">
        <ele>689.584</ele>
        <time>2017-06-10T18:22:01.008Z</time>
      </trkpt>
      <trkpt lat="43.00897" lon="0.78641">
        <ele>688</ele>
        <time>2017-06-10T18:22:02.008Z</time>
      </trkpt>
      <trkpt lat="43.00901" lon="0.78644">
        <ele>688</ele>
        <time>2017-06-10T18:22:03.008Z</time>
      </trkpt>
      <trkpt lat="43.00906" lon="0.78647">
        <ele>688</ele>
        <time>2017-06-10T18:22:04.008Z</time>
      </trkpt>
      <trkpt lat="43.0091" lon="0.78652">
        <ele>688</ele>
        <time>2017-06-10T18:22:05.008Z</time>
      </trkpt>
      <trkpt lat="43.00915" lon="0.78656">
        <ele>687.792</ele>
        <time>2017-06-10T18:22:06.008Z</time>
      </trkpt>
      <trkpt lat="43.00919" lon="0.78661">
        <ele>687</ele>
        <time>2017-06-10T18:22:07.008Z</time>
      </trkpt>
      <trkpt lat="43.00924" lon="0.78666">
        <ele>687</ele>
        <time>2017-06-10T18:22:08.008Z</time>
      </trkpt>
      <trkpt lat="43.00929" lon="0.78672">
        <ele>687</ele>
        <time>2017-06-10T18:22:09.008Z</time>
      </trkpt>
      <trkpt lat="43.00933" lon="0.78677">
        <ele>687</ele>
        <time>2017-06-10T18:22:10.008Z</time>
      </trkpt>
      <trkpt lat="43.00937" lon="0.78683">
        <ele>686.584</ele>
        <time>2017-06-10T18:22:11.008Z</time>
      </trkpt>
      <trkpt lat="43.00941" lon="0.78688">
        <ele>685</ele>
        <time>2017-06-10T18:22:12.008Z</time>
      </trkpt>
      <trkpt lat="43.00946" lon="0.78694">
        <ele>685</ele>
        <time>2017-06-10T18:22:13.008Z</time>
      </trkpt>
      <trkpt lat="43.00951" lon="0.78699">
        <ele>685</ele>
        <time>2017-06-10T18:22:14.008Z</time>
      </trkpt>
      <trkpt lat="43.00955" lon="0.78705">
        <ele>685</ele>
        <time>2017-06-10T18:22:15.008Z</time>
      </trkpt>
      <trkpt lat="43.0096" lon="0.78711">
        <ele>684.584</ele>
        <time>2017-06-10T18:22:16.008Z</time>
      </trkpt>
      <trkpt lat="43.00965" lon="0.78716">
        <ele>683</ele>
        <time>2017-06-10T18:22:17.008Z</time>
      </trkpt>
      <trkpt lat="43.00969" lon="0.78721">
        <ele>683</ele>
        <time>2017-06-10T18:22:18.008Z</time>
      </trkpt>
      <trkpt lat="43.00977" lon="0.7873">
        <ele>683</ele>
        <time>2017-06-10T18:22:20.008Z</time>
      </trkpt>
      <trkpt lat="43.00981" lon="0.78733">
        <ele>683</ele>
        <time>2017-06-10T18:22:21.008Z</time>
      </trkpt>
      <trkpt lat="43.00988" lon="0.78739">
        <ele>683</ele>
        <time>2017-06-10T18:22:23.008Z</time>
      </trkpt>
      <trkpt lat="43.00996" lon="0.78745">
        <ele>683</ele>
        <time>2017-06-10T18:22:25.008Z</time>
      </trkpt>
      <trkpt lat="43.01003" lon="0.78751">
        <ele>683</ele>
        <time>2017-06-10T18:22:27.008Z</time>
      </trkpt>
      <trkpt lat="43.01009" lon="0.78757">
        <ele>683</ele>
        <time>2017-06-10T18:22:29.008Z</time>
      </trkpt>
      <trkpt lat="43.01015" lon="0.78763">
        <ele>683</ele>
        <time>2017-06-10T18:22:31.008Z</time>
      </trkpt>
      <trkpt lat="43.01021" lon="0.78769">
        <ele>683</ele>
        <time>2017-06-10T18:22:33.008Z</time>
      </trkpt>
      <trkpt lat="43.01026" lon="0.78774">
        <ele>683</ele>
        <time>2017-06-10T18:22:35.008Z</time>
      </trkpt>
      <trkpt lat="43.0103" lon="0.78781">
        <ele>683</ele>
        <time>2017-06-10T18:22:37.008Z</time>
      </trkpt>
      <trkpt lat="43.01033" lon="0.78788">
        <ele>683</ele>
        <time>2017-06-10T18:22:39.008Z</time>
      </trkpt>
      <trkpt lat="43.01034" lon="0.78793">
        <ele>682.792</ele>
        <time>2017-06-10T18:22:41.008Z</time>
      </trkpt>
      <trkpt lat="43.01033" lon="0.78797">
        <ele>681</ele>
        <time>2017-06-10T18:22:54.008Z</time>
      </trkpt>
      <trkpt lat="43.01036" lon="0.78801">
        <ele>676</ele>
        <time>2017-06-10T18:27:25.008Z</time>
      </trkpt>
      <trkpt lat="43.01041" lon="0.78806">
        <ele>676</ele>
        <time>2017-06-10T18:27:28.008Z</time>
      </trkpt>
      <trkpt lat="43.01044" lon="0.78809">
        <ele>676</ele>
        <time>2017-06-10T18:27:29.008Z</time>
      </trkpt>
      <trkpt lat="43.01048" lon="0.78813">
        <ele>676</ele>
        <time>2017-06-10T18:27:30.008Z</time>
      </trkpt>
      <trkpt lat="43.01055" lon="0.78821">
        <ele>675</ele>
        <time>2017-06-10T18:27:32.008Z</time>
      </trkpt>
      <trkpt lat="43.0106" lon="0.78826">
        <ele>675</ele>
        <time>2017-06-10T18:27:33.008Z</time>
      </trkpt>
      <trkpt lat="43.01065" lon="0.7883">
        <ele>675</ele>
        <time>2017-06-10T18:27:34.008Z</time>
      </trkpt>
      <trkpt lat="43.0107" lon="0.78834">
        <ele>675</ele>
        <time>2017-06-10T18:27:35.008Z</time>
      </trkpt>
      <trkpt lat="43.01076" lon="0.78838">
        <ele>675</ele>
        <time>2017-06-10T18:27:36.008Z</time>
      </trkpt>
      <trkpt lat="43.01082" lon="0.78842">
        <ele>675</ele>
        <time>2017-06-10T18:27:37.008Z</time>
      </trkpt>
      <trkpt lat="43.01087" lon="0.78845">
        <ele>675</ele>
        <time>2017-06-10T18:27:38.008Z</time>
      </trkpt>
      <trkpt lat="43.01093" lon="0.78848">
        <ele>675</ele>
        <time>2017-06-10T18:27:39.008Z</time>
      </trkpt>
      <trkpt lat="43.01098" lon="0.7885">
        <ele>675</ele>
        <time>2017-06-10T18:27:40.008Z</time>
      </trkpt>
      <trkpt lat="43.01102" lon="0.78851">
        <ele>674.168</ele>
        <time>2017-06-10T18:27:41.008Z</time>
      </trkpt>
      <trkpt lat="43.01107" lon="0.78852">
        <ele>671</ele>
        <time>2017-06-10T18:27:42.008Z</time>
      </trkpt>
      <trkpt lat="43.01112" lon="0.78853">
        <ele>671</ele>
        <time>2017-06-10T18:27:43.008Z</time>
      </trkpt>
      <trkpt lat="43.01117" lon="0.78852">
        <ele>670.792</ele>
        <time>2017-06-10T18:27:44.008Z</time>
      </trkpt>
      <trkpt lat="43.01122" lon="0.78851">
        <ele>670</ele>
        <time>2017-06-10T18:27:45.008Z</time>
      </trkpt>
      <trkpt lat="43.01126" lon="0.7885">
        <ele>669.168</ele>
        <time>2017-06-10T18:27:46.008Z</time>
      </trkpt>
      <trkpt lat="43.0113" lon="0.78849">
        <ele>666</ele>
        <time>2017-06-10T18:27:47.008Z</time>
      </trkpt>
      <trkpt lat="43.01135" lon="0.78848">
        <ele>666</ele>
        <time>2017-06-10T18:27:49.008Z</time>
      </trkpt>
      <trkpt lat="43.01139" lon="0.78846">
        <ele>665.792</ele>
        <time>2017-06-10T18:27:51.008Z</time>
      </trkpt>
      <trkpt lat="43.01145" lon="0.78843">
        <ele>663.792</ele>
        <time>2017-06-10T18:27:53.008Z</time>
      </trkpt>
      <trkpt lat="43.0115" lon="0.78841">
        <ele>662.792</ele>
        <time>2017-06-10T18:27:54.008Z</time>
      </trkpt>
      <trkpt lat="43.01155" lon="0.7884">
        <ele>661.792</ele>
        <time>2017-06-10T18:27:55.008Z</time>
      </trkpt>
      <trkpt lat="43.01167" lon="0.78842">
        <ele>660</ele>
        <time>2017-06-10T18:27:57.008Z</time>
      </trkpt>
      <trkpt lat="43.01172" lon="0.78845">
        <ele>659.792</ele>
        <time>2017-06-10T18:27:58.008Z</time>
      </trkpt>
      <trkpt lat="43.01181" lon="0.78853">
        <ele>657.792</ele>
        <time>2017-06-10T18:28:00.008Z</time>
      </trkpt>
      <trkpt lat="43.01188" lon="0.78864">
        <ele>654</ele>
        <time>2017-06-10T18:28:02.008Z</time>
      </trkpt>
      <trkpt lat="43.01193" lon="0.78873">
        <ele>652.792</ele>
        <time>2017-06-10T18:28:04.008Z</time>
      </trkpt>
      <trkpt lat="43.01198" lon="0.78874">
        <ele>651.792</ele>
        <time>2017-06-10T18:28:05.008Z</time>
      </trkpt>
      <trkpt lat="43.01203" lon="0.78875">
        <ele>650.376</ele>
        <time>2017-06-10T18:28:06.008Z</time>
      </trkpt>
      <trkpt lat="43.0121" lon="0.78876">
        <ele>647.792</ele>
        <time>2017-06-10T18:28:07.008Z</time>
      </trkpt>
      <trkpt lat="43.01218" lon="0.78876">
        <ele>646.792</ele>
        <time>2017-06-10T18:28:08.008Z</time>
      </trkpt>
      <trkpt lat="43.01227" lon="0.78876">
        <ele>646</ele>
        <time>2017-06-10T18:28:09.008Z</time>
      </trkpt>
      <trkpt lat="43.01242" lon="0.78877">
        <ele>645.208</ele>
        <time>2017-06-10T18:28:11.008Z</time>
      </trkpt>
      <trkpt lat="43.01256" lon="0.7888">
        <ele>647</ele>
        <time>2017-06-10T18:28:13.008Z</time>
      </trkpt>
      <trkpt lat="43.01265" lon="0.78887">
        <ele>646</ele>
        <time>2017-06-10T18:28:15.008Z</time>
      </trkpt>
      <trkpt lat="43.0127" lon="0.78899">
        <ele>645.792</ele>
        <time>2017-06-10T18:28:17.008Z</time>
      </trkpt>
      <trkpt lat="43.01274" lon="0.78909">
        <ele>645</ele>
        <time>2017-06-10T18:28:19.008Z</time>
      </trkpt>
      <trkpt lat="43.01277" lon="0.78921">
        <ele>645</ele>
        <time>2017-06-10T18:28:21.008Z</time>
      </trkpt>
      <trkpt lat="43.01278" lon="0.78931">
        <ele>645</ele>
        <time>2017-06-10T18:28:23.008Z</time>
      </trkpt>
      <trkpt lat="43.01279" lon="0.7894">
        <ele>645</ele>
        <time>2017-06-10T18:28:25.008Z</time>
      </trkpt>
      <trkpt lat="43.01282" lon="0.78949">
        <ele>645</ele>
        <time>2017-06-10T18:28:27.008Z</time>
      </trkpt>
      <trkpt lat="43.01284" lon="0.78955">
        <ele>645</ele>
        <time>2017-06-10T18:28:29.008Z</time>
      </trkpt>
      <trkpt lat="43.01287" lon="0.7896">
        <ele>644.792</ele>
        <time>2017-06-10T18:28:31.008Z</time>
      </trkpt>
      <trkpt lat="43.01293" lon="0.78973">
        <ele>644</ele>
        <time>2017-06-10T18:28:35.008Z</time>
      </trkpt>
      <trkpt lat="43.01296" lon="0.78979">
        <ele>644</ele>
        <time>2017-06-10T18:28:37.008Z</time>
      </trkpt>
      <trkpt lat="43.01301" lon="0.78985">
        <ele>644</ele>
        <time>2017-06-10T18:28:39.008Z</time>
      </trkpt>
      <trkpt lat="43.01305" lon="0.7899">
        <ele>644</ele>
        <time>2017-06-10T18:28:41.008Z</time>
      </trkpt>
      <trkpt lat="43.01309" lon="0.78995">
        <ele>644</ele>
        <time>2017-06-10T18:28:43.008Z</time>
      </trkpt>
      <trkpt lat="43.01313" lon="0.79">
        <ele>644</ele>
        <time>2017-06-10T18:28:45.008Z</time>
      </trkpt>
      <trkpt lat="43.01317" lon="0.79005">
        <ele>644</ele>
        <time>2017-06-10T18:28:47.008Z</time>
      </trkpt>
      <trkpt lat="43.01319" lon="0.79013">
        <ele>644</ele>
        <time>2017-06-10T18:28:57.008Z</time>
      </trkpt>
      <trkpt lat="43.01317" lon="0.79021">
        <ele>640</ele>
        <time>2017-06-10T18:29:03.008Z</time>
      </trkpt>
      <trkpt lat="43.01317" lon="0.79031">
        <ele>638</ele>
        <time>2017-06-10T18:29:10.008Z</time>
      </trkpt>
      <trkpt lat="43.01318" lon="0.79042">
        <ele>634</ele>
        <time>2017-06-10T18:29:17.008Z</time>
      </trkpt>
      <trkpt lat="43.01319" lon="0.79053">
        <ele>633</ele>
        <time>2017-06-10T18:29:25.008Z</time>
      </trkpt>
      <trkpt lat="43.01313" lon="0.79059">
        <ele>629</ele>
        <time>2017-06-10T18:29:32.008Z</time>
      </trkpt>
      <trkpt lat="43.01307" lon="0.79058">
        <ele>628</ele>
        <time>2017-06-10T18:29:38.008Z</time>
      </trkpt>
      <trkpt lat="43.01299" lon="0.79059">
        <ele>626</ele>
        <time>2017-06-10T18:29:44.008Z</time>
      </trkpt>
      <trkpt lat="43.01293" lon="0.79059">
        <ele>624</ele>
        <time>2017-06-10T18:29:47.008Z</time>
      </trkpt>
      <trkpt lat="43.01286" lon="0.79057">
        <ele>623</ele>
        <time>2017-06-10T18:29:52.008Z</time>
      </trkpt>
      <trkpt lat="43.01281" lon="0.79059">
        <ele>623</ele>
        <time>2017-06-10T18:29:55.008Z</time>
      </trkpt>
      <trkpt lat="43.01276" lon="0.79062">
        <ele>624</ele>
        <time>2017-06-10T18:29:58.008Z</time>
      </trkpt>
      <trkpt lat="43.01271" lon="0.79064">
        <ele>624</ele>
        <time>2017-06-10T18:30:02.008Z</time>
      </trkpt>
      <trkpt lat="43.01267" lon="0.79071">
        <ele>624</ele>
        <time>2017-06-10T18:30:07.008Z</time>
      </trkpt>
      <trkpt lat="43.01265" lon="0.79081">
        <ele>624.416</ele>
        <time>2017-06-10T18:30:11.008Z</time>
      </trkpt>
      <trkpt lat="43.01263" lon="0.7909">
        <ele>626</ele>
        <time>2017-06-10T18:30:14.008Z</time>
      </trkpt>
      <trkpt lat="43.0126" lon="0.791">
        <ele>626</ele>
        <time>2017-06-10T18:30:18.008Z</time>
      </trkpt>
      <trkpt lat="43.01256" lon="0.79109">
        <ele>626.416</ele>
        <time>2017-06-10T18:30:21.008Z</time>
      </trkpt>
      <trkpt lat="43.01253" lon="0.79121">
        <ele>630</ele>
        <time>2017-06-10T18:30:27.008Z</time>
      </trkpt>
      <trkpt lat="43.01248" lon="0.7913">
        <ele>630</ele>
        <time>2017-06-10T18:30:34.008Z</time>
      </trkpt>
      <trkpt lat="43.01245" lon="0.79138">
        <ele>630</ele>
        <time>2017-06-10T18:30:38.008Z</time>
      </trkpt>
      <trkpt lat="43.01245" lon="0.79149">
        <ele>630</ele>
        <time>2017-06-10T18:30:43.008Z</time>
      </trkpt>
      <trkpt lat="43.01242" lon="0.79161">
        <ele>630</ele>
        <time>2017-06-10T18:30:47.008Z</time>
      </trkpt>
      <trkpt lat="43.01237" lon="0.79175">
        <ele>630</ele>
        <time>2017-06-10T18:30:50.008Z</time>
      </trkpt>
      <trkpt lat="43.01233" lon="0.79189">
        <ele>629</ele>
        <time>2017-06-10T18:30:53.008Z</time>
      </trkpt>
      <trkpt lat="43.0123" lon="0.79201">
        <ele>629</ele>
        <time>2017-06-10T18:30:56.008Z</time>
      </trkpt>
      <trkpt lat="43.01228" lon="0.79214">
        <ele>629</ele>
        <time>2017-06-10T18:30:59.008Z</time>
      </trkpt>
      <trkpt lat="43.01225" lon="0.79226">
        <ele>621</ele>
        <time>2017-06-10T18:31:02.008Z</time>
      </trkpt>
      <trkpt lat="43.01223" lon="0.79243">
        <ele>621</ele>
        <time>2017-06-10T18:31:05.008Z</time>
      </trkpt>
      <trkpt lat="43.01222" lon="0.79257">
        <ele>619.792</ele>
        <time>2017-06-10T18:31:07.008Z</time>
      </trkpt>
      <trkpt lat="43.0122" lon="0.79271">
        <ele>617</ele>
        <time>2017-06-10T18:31:10.008Z</time>
      </trkpt>
      <trkpt lat="43.01221" lon="0.79285">
        <ele>615.792</ele>
        <time>2017-06-10T18:31:14.008Z</time>
      </trkpt>
      <trkpt lat="43.01221" lon="0.793">
        <ele>614</ele>
        <time>2017-06-10T18:31:17.008Z</time>
      </trkpt>
      <trkpt lat="43.01217" lon="0.79317">
        <ele>612</ele>
        <time>2017-06-10T18:31:20.008Z</time>
      </trkpt>
      <trkpt lat="43.01213" lon="0.7933">
        <ele>611</ele>
        <time>2017-06-10T18:31:22.008Z</time>
      </trkpt>
      <trkpt lat="43.01208" lon="0.79343">
        <ele>611</ele>
        <time>2017-06-10T18:31:24.008Z</time>
      </trkpt>
      <trkpt lat="43.01203" lon="0.79355">
        <ele>610.792</ele>
        <time>2017-06-10T18:31:26.008Z</time>
      </trkpt>
      <trkpt lat="43.01193" lon="0.79366">
        <ele>608</ele>
        <time>2017-06-10T18:31:29.008Z</time>
      </trkpt>
      <trkpt lat="43.0118" lon="0.7937">
        <ele>608</ele>
        <time>2017-06-10T18:31:32.008Z</time>
      </trkpt>
      <trkpt lat="43.01169" lon="0.7937">
        <ele>608</ele>
        <time>2017-06-10T18:31:35.008Z</time>
      </trkpt>
      <trkpt lat="43.01159" lon="0.79366">
        <ele>605</ele>
        <time>2017-06-10T18:31:37.008Z</time>
      </trkpt>
      <trkpt lat="43.01147" lon="0.79361">
        <ele>605</ele>
        <time>2017-06-10T18:31:40.008Z</time>
      </trkpt>
      <trkpt lat="43.01132" lon="0.79357">
        <ele>603</ele>
        <time>2017-06-10T18:31:43.008Z</time>
      </trkpt>
      <trkpt lat="43.01121" lon="0.79352">
        <ele>603</ele>
        <time>2017-06-10T18:31:45.008Z</time>
      </trkpt>
      <trkpt lat="43.0111" lon="0.7935">
        <ele>602</ele>
        <time>2017-06-10T18:31:47.008Z</time>
      </trkpt>
      <trkpt lat="43.01098" lon="0.79348">
        <ele>602</ele>
        <time>2017-06-10T18:31:50.008Z</time>
      </trkpt>
      <trkpt lat="43.01088" lon="0.79346">
        <ele>599</ele>
        <time>2017-06-10T18:31:53.008Z</time>
      </trkpt>
      <trkpt lat="43.01077" lon="0.79343">
        <ele>598.584</ele>
        <time>2017-06-10T18:31:56.008Z</time>
      </trkpt>
      <trkpt lat="43.01064" lon="0.7934">
        <ele>597</ele>
        <time>2017-06-10T18:31:59.008Z</time>
      </trkpt>
      <trkpt lat="43.0105" lon="0.79336">
        <ele>593</ele>
        <time>2017-06-10T18:32:02.008Z</time>
      </trkpt>
      <trkpt lat="43.01037" lon="0.79335">
        <ele>591.792</ele>
        <time>2017-06-10T18:32:05.008Z</time>
      </trkpt>
      <trkpt lat="43.01025" lon="0.79331">
        <ele>589.792</ele>
        <time>2017-06-10T18:32:08.008Z</time>
      </trkpt>
      <trkpt lat="43.0101" lon="0.79325">
        <ele>587.584</ele>
        <time>2017-06-10T18:32:11.008Z</time>
      </trkpt>
      <trkpt lat="43.00999" lon="0.7932">
        <ele>585</ele>
        <time>2017-06-10T18:32:13.008Z</time>
      </trkpt>
      <trkpt lat="43.00989" lon="0.79317">
        <ele>584.792</ele>
        <time>2017-06-10T18:32:15.008Z</time>
      </trkpt>
      <trkpt lat="43.00978" lon="0.79312">
        <ele>583.792</ele>
        <time>2017-06-10T18:32:17.008Z</time>
      </trkpt>
      <trkpt lat="43.00964" lon="0.79306">
        <ele>581.792</ele>
        <time>2017-06-10T18:32:20.008Z</time>
      </trkpt>
      <trkpt lat="43.00953" lon="0.79298">
        <ele>579.792</ele>
        <time>2017-06-10T18:32:23.008Z</time>
      </trkpt>
      <trkpt lat="43.0094" lon="0.79293">
        <ele>578</ele>
        <time>2017-06-10T18:32:26.008Z</time>
      </trkpt>
      <trkpt lat="43.00927" lon="0.79288">
        <ele>576.792</ele>
        <time>2017-06-10T18:32:29.008Z</time>
      </trkpt>
      <trkpt lat="43.00917" lon="0.79286">
        <ele>572.792</ele>
        <time>2017-06-10T18:32:33.008Z</time>
      </trkpt>
      <trkpt lat="43.00925" lon="0.79301">
        <ele>571.792</ele>
        <time>2017-06-10T18:32:38.008Z</time>
      </trkpt>
      <trkpt lat="43.00932" lon="0.79316">
        <ele>567.792</ele>
        <time>2017-06-10T18:32:41.008Z</time>
      </trkpt>
      <trkpt lat="43.0094" lon="0.79332">
        <ele>564.792</ele>
        <time>2017-06-10T18:32:44.008Z</time>
      </trkpt>
      <trkpt lat="43.00946" lon="0.79343">
        <ele>563</ele>
        <time>2017-06-10T18:32:46.008Z</time>
      </trkpt>
      <trkpt lat="43.00951" lon="0.79356">
        <ele>561.584</ele>
        <time>2017-06-10T18:32:49.008Z</time>
      </trkpt>
      <trkpt lat="43.00955" lon="0.7937">
        <ele>559</ele>
        <time>2017-06-10T18:32:52.008Z</time>
      </trkpt>
      <trkpt lat="43.00962" lon="0.79382">
        <ele>555.792</ele>
        <time>2017-06-10T18:32:55.008Z</time>
      </trkpt>
      <trkpt lat="43.00968" lon="0.79395">
        <ele>551.584</ele>
        <time>2017-06-10T18:33:01.008Z</time>
      </trkpt>
      <trkpt lat="43.00976" lon="0.79403">
        <ele>548</ele>
        <time>2017-06-10T18:33:06.008Z</time>
      </trkpt>
      <trkpt lat="43.00983" lon="0.79411">
        <ele>546</ele>
        <time>2017-06-10T18:33:12.008Z</time>
      </trkpt>
      <trkpt lat="43.00991" lon="0.79421">
        <ele>544</ele>
        <time>2017-06-10T18:33:17.008Z</time>
      </trkpt>
      <trkpt lat="43.00997" lon="0.7943">
        <ele>543.584</ele>
        <time>2017-06-10T18:33:21.008Z</time>
      </trkpt>
      <trkpt lat="43.01005" lon="0.79438">
        <ele>542</ele>
        <time>2017-06-10T18:33:25.008Z</time>
      </trkpt>
      <trkpt lat="43.01013" lon="0.79446">
        <ele>539</ele>
        <time>2017-06-10T18:33:34.008Z</time>
      </trkpt>
      <trkpt lat="43.0102" lon="0.7945">
        <ele>538</ele>
        <time>2017-06-10T18:33:40.008Z</time>
      </trkpt>
      <trkpt lat="43.01025" lon="0.79456">
        <ele>536</ele>
        <time>2017-06-10T18:35:27.008Z</time>
      </trkpt>
      <trkpt lat="43.01032" lon="0.79463">
        <ele>535</ele>
        <time>2017-06-10T18:35:32.008Z</time>
      </trkpt>
      <trkpt lat="43.01039" lon="0.79473">
        <ele>535</ele>
        <time>2017-06-10T18:35:37.008Z</time>
      </trkpt>
      <trkpt lat="43.01046" lon="0.79482">
        <ele>533.96</ele>
        <time>2017-06-10T18:35:41.008Z</time>
      </trkpt>
      <trkpt lat="43.01053" lon="0.79493">
        <ele>527</ele>
        <time>2017-06-10T18:35:48.008Z</time>
      </trkpt>
      <trkpt lat="43.01061" lon="0.795">
        <ele>523.792</ele>
        <time>2017-06-10T18:35:52.008Z</time>
      </trkpt>
      <trkpt lat="43.01067" lon="0.79511">
        <ele>523</ele>
        <time>2017-06-10T18:35:58.008Z</time>
      </trkpt>
      <trkpt lat="43.01075" lon="0.79516">
        <ele>521.792</ele>
        <time>2017-06-10T18:36:06.008Z</time>
      </trkpt>
      <trkpt lat="43.01082" lon="0.79525">
        <ele>519</ele>
        <time>2017-06-10T18:36:15.008Z</time>
      </trkpt>
      <trkpt lat="43.01088" lon="0.79533">
        <ele>518</ele>
        <time>2017-06-10T18:36:23.008Z</time>
      </trkpt>
      <trkpt lat="43.01094" lon="0.79538">
        <ele>518</ele>
        <time>2017-06-10T18:36:30.008Z</time>
      </trkpt>
      <trkpt lat="43.01101" lon="0.79551">
        <ele>514</ele>
        <time>2017-06-10T18:36:39.008Z</time>
      </trkpt>
      <trkpt lat="43.01108" lon="0.79563">
        <ele>511</ele>
        <time>2017-06-10T18:36:42.008Z</time>
      </trkpt>
      <trkpt lat="43.01118" lon="0.79572">
        <ele>511</ele>
        <time>2017-06-10T18:36:45.008Z</time>
      </trkpt>
      <trkpt lat="43.0113" lon="0.79579">
        <ele>509</ele>
        <time>2017-06-10T18:36:49.008Z</time>
      </trkpt>
      <trkpt lat="43.01141" lon="0.79588">
        <ele>507</ele>
        <time>2017-06-10T18:36:52.008Z</time>
      </trkpt>
      <trkpt lat="43.01154" lon="0.79595">
        <ele>507</ele>
        <time>2017-06-10T18:36:55.008Z</time>
      </trkpt>
      <trkpt lat="43.01169" lon="0.79599">
        <ele>505</ele>
        <time>2017-06-10T18:36:58.008Z</time>
      </trkpt>
      <trkpt lat="43.01182" lon="0.79605">
        <ele>504.5999948283</ele>
        <time>2017-06-10T18:37:01.008Z</time>
      </trkpt>
      <trkpt lat="43.01193" lon="0.79611">
        <ele>503</ele>
        <time>2017-06-10T18:37:04.008Z</time>
      </trkpt>
      <trkpt lat="43.01206" lon="0.79614">
        <ele>502</ele>
        <time>2017-06-10T18:37:08.008Z</time>
      </trkpt>
      <trkpt lat="43.01218" lon="0.79616">
        <ele>499</ele>
        <time>2017-06-10T18:37:12.008Z</time>
      </trkpt>
      <trkpt lat="43.01232" lon="0.79617">
        <ele>499</ele>
        <time>2017-06-10T18:37:15.008Z</time>
      </trkpt>
      <trkpt lat="43.01245" lon="0.79619">
        <ele>499</ele>
        <time>2017-06-10T18:37:18.008Z</time>
      </trkpt>
      <trkpt lat="43.01258" lon="0.7962">
        <ele>498.376</ele>
        <time>2017-06-10T18:37:21.008Z</time>
      </trkpt>
      <trkpt lat="43.01269" lon="0.79618">
        <ele>496</ele>
        <time>2017-06-10T18:37:24.008Z</time>
      </trkpt>
      <trkpt lat="43.01281" lon="0.79617">
        <ele>492</ele>
        <time>2017-06-10T18:37:27.008Z</time>
      </trkpt>
      <trkpt lat="43.01293" lon="0.79618">
        <ele>492</ele>
        <time>2017-06-10T18:37:30.008Z</time>
      </trkpt>
      <trkpt lat="43.01305" lon="0.79617">
        <ele>489</ele>
        <time>2017-06-10T18:37:33.008Z</time>
      </trkpt>
      <trkpt lat="43.01319" lon="0.79615">
        <ele>488</ele>
        <time>2017-06-10T18:37:36.008Z</time>
      </trkpt>
      <trkpt lat="43.01334" lon="0.79613">
        <ele>486</ele>
        <time>2017-06-10T18:37:39.008Z</time>
      </trkpt>
      <trkpt lat="43.01344" lon="0.79612">
        <ele>486</ele>
        <time>2017-06-10T18:37:42.008Z</time>
      </trkpt>
      <trkpt lat="43.01355" lon="0.79616">
        <ele>485.584</ele>
        <time>2017-06-10T18:37:46.008Z</time>
      </trkpt>
      <trkpt lat="43.01365" lon="0.79619">
        <ele>482</ele>
        <time>2017-06-10T18:37:53.008Z</time>
      </trkpt>
      <trkpt lat="43.01374" lon="0.79621">
        <ele>479</ele>
        <time>2017-06-10T18:38:03.008Z</time>
      </trkpt>
      <trkpt lat="43.01382" lon="0.79629">
        <ele>477</ele>
        <time>2017-06-10T18:38:07.008Z</time>
      </trkpt>
      <trkpt lat="43.01391" lon="0.79636">
        <ele>476.376</ele>
        <time>2017-06-10T18:38:11.008Z</time>
      </trkpt>
      <trkpt lat="43.01398" lon="0.79646">
        <ele>474</ele>
        <time>2017-06-10T18:38:16.008Z</time>
      </trkpt>
      <trkpt lat="43.01396" lon="0.79659">
        <ele>473</ele>
        <time>2017-06-10T18:38:22.008Z</time>
      </trkpt>
      <trkpt lat="43.01389" lon="0.79669">
        <ele>473</ele>
        <time>2017-06-10T18:38:26.008Z</time>
      </trkpt>
      <trkpt lat="43.01381" lon="0.79672">
        <ele>473</ele>
        <time>2017-06-10T18:38:29.008Z</time>
      </trkpt>
      <trkpt lat="43.0137" lon="0.79673">
        <ele>474</ele>
        <time>2017-06-10T18:38:33.008Z</time>
      </trkpt>
      <trkpt lat="43.01361" lon="0.79675">
        <ele>474</ele>
        <time>2017-06-10T18:38:36.008Z</time>
      </trkpt>
      <trkpt lat="43.01351" lon="0.79677">
        <ele>474</ele>
        <time>2017-06-10T18:38:39.008Z</time>
      </trkpt>
      <trkpt lat="43.01341" lon="0.79679">
        <ele>474</ele>
        <time>2017-06-10T18:38:42.008Z</time>
      </trkpt>
      <trkpt lat="43.01332" lon="0.79681">
        <ele>474</ele>
        <time>2017-06-10T18:38:45.008Z</time>
      </trkpt>
      <trkpt lat="43.01325" lon="0.79683">
        <ele>474</ele>
        <time>2017-06-10T18:38:47.008Z</time>
      </trkpt>
      <trkpt lat="43.01318" lon="0.79685">
        <ele>474</ele>
        <time>2017-06-10T18:38:49.008Z</time>
      </trkpt>
      <trkpt lat="43.01309" lon="0.79689">
        <ele>473.792</ele>
        <time>2017-06-10T18:38:51.008Z</time>
      </trkpt>
      <trkpt lat="43.01302" lon="0.79695">
        <ele>473</ele>
        <time>2017-06-10T18:38:53.008Z</time>
      </trkpt>
      <trkpt lat="43.01294" lon="0.797">
        <ele>473</ele>
        <time>2017-06-10T18:38:55.008Z</time>
      </trkpt>
      <trkpt lat="43.01286" lon="0.79702">
        <ele>473</ele>
        <time>2017-06-10T18:38:57.008Z</time>
      </trkpt>
      <trkpt lat="43.01276" lon="0.79704">
        <ele>473</ele>
        <time>2017-06-10T18:39:00.008Z</time>
      </trkpt>
      <trkpt lat="43.01265" lon="0.79707">
        <ele>471</ele>
        <time>2017-06-10T18:39:03.008Z</time>
      </trkpt>
      <trkpt lat="43.01257" lon="0.79708">
        <ele>471</ele>
        <time>2017-06-10T18:39:06.008Z</time>
      </trkpt>
      <trkpt lat="43.01248" lon="0.7971">
        <ele>471</ele>
        <time>2017-06-10T18:39:09.008Z</time>
      </trkpt>
      <trkpt lat="43.01241" lon="0.79711">
        <ele>473</ele>
        <time>2017-06-10T18:39:12.008Z</time>
      </trkpt>
      <trkpt lat="43.0123" lon="0.79715">
        <ele>473</ele>
        <time>2017-06-10T18:39:16.008Z</time>
      </trkpt>
      <trkpt lat="43.01218" lon="0.79716">
        <ele>473</ele>
        <time>2017-06-10T18:39:19.008Z</time>
      </trkpt>
      <trkpt lat="43.01208" lon="0.79709">
        <ele>471</ele>
        <time>2017-06-10T18:39:22.008Z</time>
      </trkpt>
      <trkpt lat="43.012" lon="0.79702">
        <ele>471</ele>
        <time>2017-06-10T18:39:25.008Z</time>
      </trkpt>
      <trkpt lat="43.01187" lon="0.79698">
        <ele>471</ele>
        <time>2017-06-10T18:39:28.008Z</time>
      </trkpt>
      <trkpt lat="43.01175" lon="0.79696">
        <ele>470.168</ele>
        <time>2017-06-10T18:39:31.008Z</time>
      </trkpt>
      <trkpt lat="43.01161" lon="0.79691">
        <ele>467</ele>
        <time>2017-06-10T18:39:34.008Z</time>
      </trkpt>
      <trkpt lat="43.0115" lon="0.79685">
        <ele>466.168</ele>
        <time>2017-06-10T18:39:36.008Z</time>
      </trkpt>
      <trkpt lat="43.01138" lon="0.79681">
        <ele>463</ele>
        <time>2017-06-10T18:39:38.008Z</time>
      </trkpt>
      <trkpt lat="43.01128" lon="0.79676">
        <ele>463</ele>
        <time>2017-06-10T18:39:40.008Z</time>
      </trkpt>
      <trkpt lat="43.01118" lon="0.79678">
        <ele>459.792</ele>
        <time>2017-06-10T18:39:43.008Z</time>
      </trkpt>
      <trkpt lat="43.01118" lon="0.79694">
        <ele>458</ele>
        <time>2017-06-10T18:39:46.008Z</time>
      </trkpt>
      <trkpt lat="43.01116" lon="0.79706">
        <ele>457</ele>
        <time>2017-06-10T18:39:48.008Z</time>
      </trkpt>
      <trkpt lat="43.01114" lon="0.79718">
        <ele>457</ele>
        <time>2017-06-10T18:39:50.008Z</time>
      </trkpt>
      <trkpt lat="43.01111" lon="0.7973">
        <ele>458</ele>
        <time>2017-06-10T18:39:52.008Z</time>
      </trkpt>
      <trkpt lat="43.01108" lon="0.79742">
        <ele>458</ele>
        <time>2017-06-10T18:39:54.008Z</time>
      </trkpt>
      <trkpt lat="43.01107" lon="0.79754">
        <ele>458</ele>
        <time>2017-06-10T18:39:56.008Z</time>
      </trkpt>
      <trkpt lat="43.0111" lon="0.79765">
        <ele>458</ele>
        <time>2017-06-10T18:39:58.008Z</time>
      </trkpt>
      <trkpt lat="43.01116" lon="0.79775">
        <ele>458</ele>
        <time>2017-06-10T18:40:00.008Z</time>
      </trkpt>
      <trkpt lat="43.01118" lon="0.79781">
        <ele>458</ele>
        <time>2017-06-10T18:40:01.008Z</time>
      </trkpt>
      <trkpt lat="43.01119" lon="0.79786">
        <ele>458</ele>
        <time>2017-06-10T18:40:02.008Z</time>
      </trkpt>
      <trkpt lat="43.0112" lon="0.79796">
        <ele>458</ele>
        <time>2017-06-10T18:40:04.008Z</time>
      </trkpt>
      <trkpt lat="43.01121" lon="0.79802">
        <ele>458</ele>
        <time>2017-06-10T18:40:05.008Z</time>
      </trkpt>
      <trkpt lat="43.01121" lon="0.79807">
        <ele>458</ele>
        <time>2017-06-10T18:40:06.008Z</time>
      </trkpt>
      <trkpt lat="43.01122" lon="0.79813">
        <ele>458</ele>
        <time>2017-06-10T18:40:07.008Z</time>
      </trkpt>
      <trkpt lat="43.01123" lon="0.79818">
        <ele>458</ele>
        <time>2017-06-10T18:40:08.008Z</time>
      </trkpt>
      <trkpt lat="43.01126" lon="0.79826">
        <ele>458</ele>
        <time>2017-06-10T18:40:10.008Z</time>
      </trkpt>
      <trkpt lat="43.0113" lon="0.79832">
        <ele>460</ele>
        <time>2017-06-10T18:40:12.008Z</time>
      </trkpt>
      <trkpt lat="43.01135" lon="0.79835">
        <ele>460</ele>
        <time>2017-06-10T18:40:14.008Z</time>
      </trkpt>
      <trkpt lat="43.01141" lon="0.79835">
        <ele>460</ele>
        <time>2017-06-10T18:40:16.008Z</time>
      </trkpt>
      <trkpt lat="43.01148" lon="0.79834">
        <ele>460</ele>
        <time>2017-06-10T18:40:18.008Z</time>
      </trkpt>
      <trkpt lat="43.01156" lon="0.79836">
        <ele>460</ele>
        <time>2017-06-10T18:40:20.008Z</time>
      </trkpt>
      <trkpt lat="43.0116" lon="0.79837">
        <ele>460</ele>
        <time>2017-06-10T18:40:21.008Z</time>
      </trkpt>
      <trkpt lat="43.01164" lon="0.79839">
        <ele>460</ele>
        <time>2017-06-10T18:40:22.008Z</time>
      </trkpt>
      <trkpt lat="43.01169" lon="0.79841">
        <ele>460</ele>
        <time>2017-06-10T18:40:23.008Z</time>
      </trkpt>
      <trkpt lat="43.01173" lon="0.79843">
        <ele>460</ele>
        <time>2017-06-10T18:40:24.008Z</time>
      </trkpt>
      <trkpt lat="43.01178" lon="0.79845">
        <ele>460</ele>
        <time>2017-06-10T18:40:25.008Z</time>
      </trkpt>
      <trkpt lat="43.01183" lon="0.79846">
        <ele>460</ele>
        <time>2017-06-10T18:40:26.008Z</time>
      </trkpt>
      <trkpt lat="43.01189" lon="0.79846">
        <ele>460</ele>
        <time>2017-06-10T18:40:27.008Z</time>
      </trkpt>
      <trkpt lat="43.01194" lon="0.79847">
        <ele>460</ele>
        <time>2017-06-10T18:40:28.008Z</time>
      </trkpt>
      <trkpt lat="43.01199" lon="0.79848">
        <ele>460</ele>
        <time>2017-06-10T18:40:29.008Z</time>
      </trkpt>
      <trkpt lat="43.01205" lon="0.79849">
        <ele>460</ele>
        <time>2017-06-10T18:40:30.008Z</time>
      </trkpt>
      <trkpt lat="43.01211" lon="0.7985">
        <ele>460</ele>
        <time>2017-06-10T18:40:31.008Z</time>
      </trkpt>
      <trkpt lat="43.01216" lon="0.79851">
        <ele>460</ele>
        <time>2017-06-10T18:40:32.008Z</time>
      </trkpt>
      <trkpt lat="43.01222" lon="0.79852">
        <ele>460</ele>
        <time>2017-06-10T18:40:33.008Z</time>
      </trkpt>
      <trkpt lat="43.01228" lon="0.79852">
        <ele>460</ele>
        <time>2017-06-10T18:40:34.008Z</time>
      </trkpt>
      <trkpt lat="43.01234" lon="0.79853">
        <ele>460</ele>
        <time>2017-06-10T18:40:35.008Z</time>
      </trkpt>
      <trkpt lat="43.0124" lon="0.79854">
        <ele>460</ele>
        <time>2017-06-10T18:40:36.008Z</time>
      </trkpt>
      <trkpt lat="43.01246" lon="0.79856">
        <ele>460</ele>
        <time>2017-06-10T18:40:37.008Z</time>
      </trkpt>
      <trkpt lat="43.01252" lon="0.79857">
        <ele>460</ele>
        <time>2017-06-10T18:40:38.008Z</time>
      </trkpt>
      <trkpt lat="43.01258" lon="0.79858">
        <ele>460</ele>
        <time>2017-06-10T18:40:39.008Z</time>
      </trkpt>
      <trkpt lat="43.01264" lon="0.79859">
        <ele>460</ele>
        <time>2017-06-10T18:40:40.008Z</time>
      </trkpt>
      <trkpt lat="43.0127" lon="0.7986">
        <ele>459.792</ele>
        <time>2017-06-10T18:40:41.008Z</time>
      </trkpt>
      <trkpt lat="43.01275" lon="0.79861">
        <ele>459</ele>
        <time>2017-06-10T18:40:42.008Z</time>
      </trkpt>
      <trkpt lat="43.01281" lon="0.79862">
        <ele>459</ele>
        <time>2017-06-10T18:40:43.008Z</time>
      </trkpt>
      <trkpt lat="43.01286" lon="0.79863">
        <ele>459</ele>
        <time>2017-06-10T18:40:44.008Z</time>
      </trkpt>
      <trkpt lat="43.01292" lon="0.79865">
        <ele>459</ele>
        <time>2017-06-10T18:40:45.008Z</time>
      </trkpt>
      <trkpt lat="43.01297" lon="0.79868">
        <ele>459</ele>
        <time>2017-06-10T18:40:46.008Z</time>
      </trkpt>
      <trkpt lat="43.01301" lon="0.79871">
        <ele>459</ele>
        <time>2017-06-10T18:40:47.008Z</time>
      </trkpt>
      <trkpt lat="43.01305" lon="0.79875">
        <ele>459</ele>
        <time>2017-06-10T18:40:48.008Z</time>
      </trkpt>
      <trkpt lat="43.0131" lon="0.79884">
        <ele>459</ele>
        <time>2017-06-10T18:40:50.008Z</time>
      </trkpt>
      <trkpt lat="43.01314" lon="0.79893">
        <ele>462</ele>
        <time>2017-06-10T18:40:52.008Z</time>
      </trkpt>
      <trkpt lat="43.01316" lon="0.79903">
        <ele>462</ele>
        <time>2017-06-10T18:40:54.008Z</time>
      </trkpt>
      <trkpt lat="43.01318" lon="0.79913">
        <ele>462.416</ele>
        <time>2017-06-10T18:40:56.008Z</time>
      </trkpt>
      <trkpt lat="43.01319" lon="0.79924">
        <ele>464</ele>
        <time>2017-06-10T18:40:58.008Z</time>
      </trkpt>
      <trkpt lat="43.0132" lon="0.79934">
        <ele>464</ele>
        <time>2017-06-10T18:41:00.008Z</time>
      </trkpt>
      <trkpt lat="43.0132" lon="0.79944">
        <ele>465</ele>
        <time>2017-06-10T18:41:02.008Z</time>
      </trkpt>
      <trkpt lat="43.0132" lon="0.79953">
        <ele>465</ele>
        <time>2017-06-10T18:41:04.008Z</time>
      </trkpt>
      <trkpt lat="43.01321" lon="0.79962">
        <ele>465.208</ele>
        <time>2017-06-10T18:41:06.008Z</time>
      </trkpt>
      <trkpt lat="43.01321" lon="0.79971">
        <ele>466</ele>
        <time>2017-06-10T18:41:08.008Z</time>
      </trkpt>
      <trkpt lat="43.01321" lon="0.7998">
        <ele>466</ele>
        <time>2017-06-10T18:41:10.008Z</time>
      </trkpt>
      <trkpt lat="43.01321" lon="0.79988">
        <ele>468</ele>
        <time>2017-06-10T18:41:12.008Z</time>
      </trkpt>
      <trkpt lat="43.01321" lon="0.79996">
        <ele>468</ele>
        <time>2017-06-10T18:41:14.008Z</time>
      </trkpt>
      <trkpt lat="43.01321" lon="0.80005">
        <ele>468.208</ele>
        <time>2017-06-10T18:41:16.008Z</time>
      </trkpt>
      <trkpt lat="43.01321" lon="0.80013">
        <ele>469</ele>
        <time>2017-06-10T18:41:18.008Z</time>
      </trkpt>
      <trkpt lat="43.01321" lon="0.80021">
        <ele>469</ele>
        <time>2017-06-10T18:41:20.008Z</time>
      </trkpt>
      <trkpt lat="43.01322" lon="0.8003">
        <ele>470</ele>
        <time>2017-06-10T18:41:22.008Z</time>
      </trkpt>
      <trkpt lat="43.01322" lon="0.80038">
        <ele>470</ele>
        <time>2017-06-10T18:41:24.008Z</time>
      </trkpt>
      <trkpt lat="43.01323" lon="0.80046">
        <ele>470.208</ele>
        <time>2017-06-10T18:41:26.008Z</time>
      </trkpt>
      <trkpt lat="43.01323" lon="0.80055">
        <ele>471</ele>
        <time>2017-06-10T18:41:28.008Z</time>
      </trkpt>
      <trkpt lat="43.01324" lon="0.80063">
        <ele>471</ele>
        <time>2017-06-10T18:41:30.008Z</time>
      </trkpt>
      <trkpt lat="43.01324" lon="0.80072">
        <ele>471</ele>
        <time>2017-06-10T18:41:32.008Z</time>
      </trkpt>
      <trkpt lat="43.01324" lon="0.8008">
        <ele>471</ele>
        <time>2017-06-10T18:41:34.008Z</time>
      </trkpt>
      <trkpt lat="43.01324" lon="0.80088">
        <ele>471</ele>
        <time>2017-06-10T18:41:36.008Z</time>
      </trkpt>
      <trkpt lat="43.01324" lon="0.80096">
        <ele>471</ele>
        <time>2017-06-10T18:41:38.008Z</time>
      </trkpt>
      <trkpt lat="43.01325" lon="0.80105">
        <ele>471</ele>
        <time>2017-06-10T18:41:40.008Z</time>
      </trkpt>
      <trkpt lat="43.01325" lon="0.80113">
        <ele>474</ele>
        <time>2017-06-10T18:41:42.008Z</time>
      </trkpt>
      <trkpt lat="43.01326" lon="0.80121">
        <ele>473.792</ele>
        <time>2017-06-10T18:41:44.008Z</time>
      </trkpt>
      <trkpt lat="43.01326" lon="0.80129">
        <ele>473.416</ele>
        <time>2017-06-10T18:41:46.008Z</time>
      </trkpt>
      <trkpt lat="43.01326" lon="0.80137">
        <ele>475</ele>
        <time>2017-06-10T18:41:48.008Z</time>
      </trkpt>
      <trkpt lat="43.01326" lon="0.80145">
        <ele>475</ele>
        <time>2017-06-10T18:41:50.008Z</time>
      </trkpt>
      <trkpt lat="43.01327" lon="0.80154">
        <ele>476</ele>
        <time>2017-06-10T18:41:52.008Z</time>
      </trkpt>
      <trkpt lat="43.01327" lon="0.80162">
        <ele>476</ele>
        <time>2017-06-10T18:41:54.008Z</time>
      </trkpt>
      <trkpt lat="43.01327" lon="0.8017">
        <ele>476.208</ele>
        <time>2017-06-10T18:41:56.008Z</time>
      </trkpt>
      <trkpt lat="43.01328" lon="0.80178">
        <ele>476.792</ele>
        <time>2017-06-10T18:41:58.008Z</time>
      </trkpt>
      <trkpt lat="43.01328" lon="0.80186">
        <ele>476</ele>
        <time>2017-06-10T18:42:00.008Z</time>
      </trkpt>
      <trkpt lat="43.01328" lon="0.8019">
        <ele>476.624</ele>
        <time>2017-06-10T18:42:01.008Z</time>
      </trkpt>
      <trkpt lat="43.01329" lon="0.80198">
        <ele>479</ele>
        <time>2017-06-10T18:42:03.008Z</time>
      </trkpt>
      <trkpt lat="43.01328" lon="0.80206">
        <ele>479</ele>
        <time>2017-06-10T18:42:05.008Z</time>
      </trkpt>
      <trkpt lat="43.01328" lon="0.8021">
        <ele>479</ele>
        <time>2017-06-10T18:42:06.008Z</time>
      </trkpt>
      <trkpt lat="43.01329" lon="0.80218">
        <ele>479</ele>
        <time>2017-06-10T18:42:08.008Z</time>
      </trkpt>
      <trkpt lat="43.01329" lon="0.80227">
        <ele>479</ele>
        <time>2017-06-10T18:42:10.008Z</time>
      </trkpt>
      <trkpt lat="43.01329" lon="0.80235">
        <ele>480</ele>
        <time>2017-06-10T18:42:12.008Z</time>
      </trkpt>
      <trkpt lat="43.01329" lon="0.80239">
        <ele>480</ele>
        <time>2017-06-10T18:42:13.008Z</time>
      </trkpt>
      <trkpt lat="43.01329" lon="0.80243">
        <ele>480</ele>
        <time>2017-06-10T18:42:14.008Z</time>
      </trkpt>
      <trkpt lat="43.0133" lon="0.80247">
        <ele>480</ele>
        <time>2017-06-10T18:42:15.008Z</time>
      </trkpt>
      <trkpt lat="43.0133" lon="0.80251">
        <ele>480</ele>
        <time>2017-06-10T18:42:16.008Z</time>
      </trkpt>
      <trkpt lat="43.01331" lon="0.8026">
        <ele>480</ele>
        <time>2017-06-10T18:42:18.008Z</time>
      </trkpt>
      <trkpt lat="43.01332" lon="0.80268">
        <ele>480</ele>
        <time>2017-06-10T18:42:20.008Z</time>
      </trkpt>
      <trkpt lat="43.01333" lon="0.80276">
        <ele>482</ele>
        <time>2017-06-10T18:42:22.008Z</time>
      </trkpt>
      <trkpt lat="43.01335" lon="0.80284">
        <ele>482</ele>
        <time>2017-06-10T18:42:24.008Z</time>
      </trkpt>
      <trkpt lat="43.01337" lon="0.80292">
        <ele>482</ele>
        <time>2017-06-10T18:42:26.008Z</time>
      </trkpt>
      <trkpt lat="43.01339" lon="0.80301">
        <ele>482</ele>
        <time>2017-06-10T18:42:28.008Z</time>
      </trkpt>
      <trkpt lat="43.01341" lon="0.80309">
        <ele>482</ele>
        <time>2017-06-10T18:42:30.008Z</time>
      </trkpt>
      <trkpt lat="43.01346" lon="0.8032">
        <ele>484</ele>
        <time>2017-06-10T18:42:33.008Z</time>
      </trkpt>
      <trkpt lat="43.0135" lon="0.80327">
        <ele>484</ele>
        <time>2017-06-10T18:42:35.008Z</time>
      </trkpt>
      <trkpt lat="43.01354" lon="0.80333">
        <ele>485</ele>
        <time>2017-06-10T18:42:37.008Z</time>
      </trkpt>
      <trkpt lat="43.01358" lon="0.80339">
        <ele>485</ele>
        <time>2017-06-10T18:42:39.008Z</time>
      </trkpt>
      <trkpt lat="43.01363" lon="0.80343">
        <ele>485.208</ele>
        <time>2017-06-10T18:42:41.008Z</time>
      </trkpt>
      <trkpt lat="43.0137" lon="0.80346">
        <ele>486</ele>
        <time>2017-06-10T18:42:44.008Z</time>
      </trkpt>
      <trkpt lat="43.01379" lon="0.80343">
        <ele>487</ele>
        <time>2017-06-10T18:42:47.008Z</time>
      </trkpt>
      <trkpt lat="43.01385" lon="0.80341">
        <ele>487</ele>
        <time>2017-06-10T18:42:49.008Z</time>
      </trkpt>
      <trkpt lat="43.01392" lon="0.80338">
        <ele>487</ele>
        <time>2017-06-10T18:42:51.008Z</time>
      </trkpt>
      <trkpt lat="43.01398" lon="0.80334">
        <ele>487</ele>
        <time>2017-06-10T18:42:53.008Z</time>
      </trkpt>
      <trkpt lat="43.01404" lon="0.80331">
        <ele>487</ele>
        <time>2017-06-10T18:42:55.008Z</time>
      </trkpt>
      <trkpt lat="43.0141" lon="0.80327">
        <ele>487</ele>
        <time>2017-06-10T18:42:57.008Z</time>
      </trkpt>
      <trkpt lat="43.01417" lon="0.80325">
        <ele>487</ele>
        <time>2017-06-10T18:42:59.008Z</time>
      </trkpt>
      <trkpt lat="43.01424" lon="0.80323">
        <ele>487</ele>
        <time>2017-06-10T18:43:01.008Z</time>
      </trkpt>
      <trkpt lat="43.01428" lon="0.80323">
        <ele>487</ele>
        <time>2017-06-10T18:43:02.008Z</time>
      </trkpt>
      <trkpt lat="43.01432" lon="0.80324">
        <ele>487</ele>
        <time>2017-06-10T18:43:03.008Z</time>
      </trkpt>
      <trkpt lat="43.01439" lon="0.80326">
        <ele>487</ele>
        <time>2017-06-10T18:43:05.008Z</time>
      </trkpt>
      <trkpt lat="43.01445" lon="0.80329">
        <ele>487</ele>
        <time>2017-06-10T18:43:07.008Z</time>
      </trkpt>
      <trkpt lat="43.01453" lon="0.80334">
        <ele>487</ele>
        <time>2017-06-10T18:43:10.008Z</time>
      </trkpt>
      <trkpt lat="43.0146" lon="0.80338">
        <ele>487</ele>
        <time>2017-06-10T18:43:12.008Z</time>
      </trkpt>
      <trkpt lat="43.01469" lon="0.80343">
        <ele>487</ele>
        <time>2017-06-10T18:43:14.008Z</time>
      </trkpt>
      <trkpt lat="43.01478" lon="0.8035">
        <ele>487</ele>
        <time>2017-06-10T18:43:16.008Z</time>
      </trkpt>
      <trkpt lat="43.01485" lon="0.80353">
        <ele>487</ele>
        <time>2017-06-10T18:43:18.008Z</time>
      </trkpt>
      <trkpt lat="43.01493" lon="0.80354">
        <ele>487</ele>
        <time>2017-06-10T18:43:20.008Z</time>
      </trkpt>
      <trkpt lat="43.01501" lon="0.80355">
        <ele>488</ele>
        <time>2017-06-10T18:43:22.008Z</time>
      </trkpt>
      <trkpt lat="43.01509" lon="0.80354">
        <ele>488</ele>
        <time>2017-06-10T18:43:24.008Z</time>
      </trkpt>
      <trkpt lat="43.01517" lon="0.80355">
        <ele>488</ele>
        <time>2017-06-10T18:43:26.008Z</time>
      </trkpt>
      <trkpt lat="43.01525" lon="0.80356">
        <ele>488</ele>
        <time>2017-06-10T18:43:28.008Z</time>
      </trkpt>
      <trkpt lat="43.01534" lon="0.8036">
        <ele>488</ele>
        <time>2017-06-10T18:43:30.008Z</time>
      </trkpt>
      <trkpt lat="43.01545" lon="0.80368">
        <ele>487</ele>
        <time>2017-06-10T18:43:32.008Z</time>
      </trkpt>
      <trkpt lat="43.01557" lon="0.80372">
        <ele>487</ele>
        <time>2017-06-10T18:43:34.008Z</time>
      </trkpt>
      <trkpt lat="43.01566" lon="0.8038">
        <ele>487</ele>
        <time>2017-06-10T18:43:36.008Z</time>
      </trkpt>
      <trkpt lat="43.01567" lon="0.80392">
        <ele>486.99150040354</ele>
        <time>2017-06-10T18:43:38.008Z</time>
      </trkpt>
      <trkpt lat="43.01566" lon="0.80397">
        <ele>486.95422251811</ele>
        <time>2017-06-10T18:43:39.008Z</time>
      </trkpt>
    </trkseg>
  </trk>
</gpx>